
Distance (Route):
Temperature : 18.5°C
Humidity : 63.1%
Pressure : 898.6hPa| Receiver | Frames | First received | Last received |
|---|---|---|---|
| DO3MHA-11 | 1040 | 2026-08-30 22:45:53 | 2026-08-31 02:09:38 |
| OE5MMP-10 | 923 | 2026-08-30 23:13:30 | 2026-08-31 02:14:37 |
| BAUMI2-15 | 383 | 2026-08-30 23:34:04 | 2026-08-31 01:10:42 |
| OE5WHR-10 | 381 | 2026-08-30 23:01:42 | 2026-08-31 02:04:12 |
| OE5DRO-10 | 371 | 2026-08-30 22:57:58 | 2026-08-31 02:11:56 |
| OE5FHM-15 | 283 | 2026-08-30 23:19:02 | 2026-08-31 02:13:42 |
| OE5DXL-15 | 267 | 2026-08-30 22:53:33 | 2026-08-31 02:09:59 |
| OE5REO-15 | 257 | 2026-08-30 23:25:01 | 2026-08-31 01:42:53 |
| DL6DJ-15 | 213 | 2026-08-30 22:51:54 | 2026-08-31 01:39:09 |
| DG1MFX-10 | 193 | 2026-08-30 22:47:13 | 2026-08-31 01:52:23 |
| PG1ADW-2 | 171 | 2026-08-30 23:06:18 | 2026-08-31 01:59:19 |
| OE5HKT-10 | 162 | 2026-08-30 23:40:44 | 2026-08-31 01:57:48 |
| OE3JTB-15 | 160 | 2026-08-30 22:55:47 | 2026-08-31 02:11:23 |
| DK5PH-5 | 110 | 2026-08-30 23:19:32 | 2026-08-31 01:25:48 |
| DO7DH-14 | 62 | 2026-08-30 23:47:24 | 2026-08-31 00:49:11 |
| DF3TZ-5 | 56 | 2026-08-30 23:01:51 | 2026-08-31 01:21:04 |
| NBG1-10 | 51 | 2026-08-30 23:49:19 | 2026-08-31 01:52:08 |
| DB0UT-7 | 34 | 2026-08-30 23:06:20 | 2026-08-31 01:19:24 |
| DF7PN | 29 | 2026-08-31 00:45:00 | 2026-08-31 01:14:00 |
| DB0ND-19 | 24 | 2026-08-31 00:54:59 | 2026-08-31 01:16:43 |
| OM5KV | 24 | 2026-08-31 01:11:07 | 2026-08-31 01:22:47 |
| S52SK | 17 | 2026-08-30 23:39:25 | 2026-08-31 01:31:10 |
| DO8TBO-1 | 15 | 2026-08-31 00:54:37 | 2026-08-31 01:07:41 |
| DB0NH | 14 | 2026-08-31 00:59:52 | 2026-08-31 01:42:30 |
| DH7VM-15 | 11 | 2026-08-30 23:24:13 | 2026-08-31 01:07:43 |
| OE8JPQ-2 | 11 | 2026-08-31 00:07:38 | 2026-08-31 00:36:30 |
| DO9HM | 1 | 2026-08-31 00:40:38 | 2026-08-31 00:40:38 |
| DM0DOS-11 | 1 | 2026-08-31 00:57:43 | 2026-08-31 00:57:43 |
| Receiver | Date | Latitude | Longitude | Direction | Speed | Altitude | Climb | Temperature | Humidity | Pressure | Voltage | Killtimer | Uptime | BKT | XDATA |
|---|---|---|---|---|---|---|---|---|---|---|---|---|---|---|---|
| OE5MMP-10 | 2026-08-31 02:14:37 | 48.77243 | 13.76485 | 49° | 16km/h | 1074m | -2.3m/s | 18.5°C | 63.1% | 898.6hPa | 2.7V | 00:00:00 | 03:45:18 | 00:00:00 | |
| OE5MMP-10 | 2026-08-31 02:14:32 | 48.77231 | 13.76463 | 55° | 15km/h | 1086m | -2.4m/s | 18.3°C | 63.5% | 897.3hPa | 2.7V | 06:50:00 | 03:45:13 | 00:00:00 | |
| OE5MMP-10 | 2026-08-31 02:14:27 | 48.77221 | 13.76441 | 57° | 11km/h | 1098m | -2.5m/s | 18.2°C | 63.8% | 895.9hPa | 2.7V | 00:00:00 | 03:45:08 | 00:00:00 | |
| OE5MMP-10 | 2026-08-31 02:14:22 | 48.77213 | 13.76424 | 51° | 9km/h | 1112m | -2.6m/s | 18.1°C | 64.1% | 894.5hPa | 2.7V | 00:00:00 | 03:45:03 | 00:00:00 | |
| OE5MMP-10 | 2026-08-31 02:14:17 | 48.77204 | 13.76410 | 40° | 9km/h | 1125m | -2.4m/s | 18.0°C | 64.7% | 893.2hPa | 2.7V | 00:00:00 | 03:44:58 | 00:00:00 | |
| OE5MMP-10 | 2026-08-31 02:14:12 | 48.77195 | 13.76401 | 31° | 9km/h | 1138m | -2.3m/s | 17.9°C | 64.6% | 891.8hPa | 2.7V | 00:00:00 | 03:44:53 | 00:00:00 | |
| OE5MMP-10 | 2026-08-31 02:14:07 | 48.77182 | 13.76395 | 8° | 16km/h | 1149m | -2.1m/s | 17.8°C | 65.0% | 890.5hPa | 2.7V | 00:00:00 | 03:44:48 | 00:00:00 | |
| OE5MMP-10 | 2026-08-31 02:14:02 | 48.77161 | 13.76388 | 22° | 22km/h | 1160m | -1.9m/s | 18.0°C | 63.7% | 889.6hPa | 2.7V | 00:00:00 | 03:44:43 | 00:00:00 | |
| OE5MMP-10 | 2026-08-31 02:13:57 | 48.77136 | 13.76368 | 34° | 22km/h | 1170m | -2.0m/s | 17.9°C | 63.7% | 888.5hPa | 2.7V | 06:50:00 | 03:44:38 | 00:00:00 | |
| OE5MMP-10 | 2026-08-31 02:13:52 | 48.77117 | 13.76342 | 51° | 16km/h | 1180m | -2.0m/s | 17.9°C | 63.3% | 887.5hPa | 2.7V | 00:00:00 | 03:44:33 | 00:00:00 | |
| OE5MMP-10 | 2026-08-31 02:13:47 | 48.77105 | 13.76318 | 58° | 13km/h | 1191m | -2.2m/s | 17.9°C | 63.2% | 886.3hPa | 2.7V | 00:00:00 | 03:44:28 | 00:00:00 | |
| OE5FHM-15 | 2026-08-31 02:13:42 | 48.77096 | 13.76299 | 47° | 9km/h | 1202m | -2.0m/s | 17.9°C | 62.0% | 885.3hPa | 2.7V | 00:00:00 | 03:44:23 | 00:00:00 | |
| OE5MMP-10 | 2026-08-31 02:13:42 | 48.77096 | 13.76299 | 47° | 9km/h | 1202m | -2.0m/s | 17.9°C | 62.0% | 885.3hPa | 2.7V | 00:00:00 | 03:44:23 | 00:00:00 | |
| OE5MMP-10 | 2026-08-31 02:13:37 | 48.77087 | 13.76288 | 25° | 9km/h | 1212m | -2.1m/s | 17.9°C | 62.2% | 884.1hPa | 2.7V | 00:00:00 | 03:44:18 | 00:00:00 | |
| OE5FHM-15 | 2026-08-31 02:13:32 | 48.77076 | 13.76285 | 4° | 13km/h | 1223m | -2.1m/s | 17.9°C | 62.1% | 883.0hPa | 2.7V | 00:00:00 | 03:44:13 | 00:00:00 | |
| OE5MMP-10 | 2026-08-31 02:13:32 | 48.77076 | 13.76285 | 4° | 11km/h | 1223m | -2.1m/s | 17.9°C | 62.1% | 883.0hPa | 2.7V | 00:00:00 | 03:44:13 | 00:00:00 | |
| OE5MMP-10 | 2026-08-31 02:13:27 | 48.77062 | 13.76285 | 356° | 15km/h | 1234m | -2.1m/s | 17.8°C | 61.8% | 881.8hPa | 2.7V | 00:00:00 | 03:44:08 | 00:00:00 | |
| OE5MMP-10 | 2026-08-31 02:13:22 | 48.77043 | 13.76287 | 355° | 16km/h | 1245m | -2.2m/s | 17.7°C | 62.4% | 880.7hPa | 2.7V | 06:51:00 | 03:44:03 | 00:00:00 | |
| OE5FHM-15 | 2026-08-31 02:13:22 | 48.77043 | 13.76287 | 355° | 16km/h | 1245m | -2.2m/s | 17.7°C | 62.4% | 880.7hPa | 2.7V | 06:51:00 | 03:44:03 | 00:00:00 | |
| OE5MMP-10 | 2026-08-31 02:13:17 | 48.77023 | 13.76289 | 359° | 18km/h | 1256m | -2.1m/s | 17.7°C | 63.4% | 879.7hPa | 2.7V | 00:00:00 | 03:43:58 | 00:00:00 | |
| OE5FHM-15 | 2026-08-31 02:13:12 | 48.76999 | 13.76287 | 9° | 22km/h | 1267m | -2.0m/s | 17.7°C | 63.5% | 878.5hPa | 2.7V | 00:00:00 | 03:43:53 | 00:00:00 | |
| OE5MMP-10 | 2026-08-31 02:13:12 | 48.76999 | 13.76287 | 9° | 22km/h | 1267m | -2.0m/s | 17.7°C | 63.5% | 878.5hPa | 2.7V | 00:00:00 | 03:43:53 | 00:00:00 | |
| OE5MMP-10 | 2026-08-31 02:13:07 | 48.76972 | 13.76276 | 23° | 22km/h | 1277m | -2.0m/s | 17.7°C | 62.8% | 877.5hPa | 2.7V | 00:00:00 | 03:43:48 | 00:00:00 | |
| OE5MMP-10 | 2026-08-31 02:13:02 | 48.76946 | 13.76257 | 31° | 22km/h | 1288m | -2.1m/s | 17.7°C | 63.0% | 876.3hPa | 2.7V | 00:00:00 | 03:43:43 | 00:00:00 | |
| OE5FHM-15 | 2026-08-31 02:13:01 | 48.76941 | 13.76253 | 31° | 18km/h | 1290m | -2.1m/s | 17.7°C | 63.0% | 876.0hPa | 2.7V | 00:00:00 | 03:43:42 | 00:00:00 | |
| OE5MMP-10 | 2026-08-31 02:12:57 | 48.76923 | 13.76234 | 39° | 20km/h | 1299m | -2.0m/s | 17.6°C | 63.0% | 875.2hPa | 2.7V | 00:00:00 | 03:43:38 | 00:00:00 | |
| OE5MMP-10 | 2026-08-31 02:12:52 | 48.76906 | 13.76210 | 47° | 16km/h | 1309m | -2.0m/s | 17.5°C | 62.9% | 874.1hPa | 2.7V | 00:00:00 | 03:43:33 | 00:00:00 | |
| OE5FHM-15 | 2026-08-31 02:12:47 | 48.76891 | 13.76187 | 49° | 13km/h | 1319m | -2.0m/s | 17.5°C | 62.9% | 873.0hPa | 2.7V | 00:00:00 | 03:43:28 | 00:00:00 | |
| OE5MMP-10 | 2026-08-31 02:12:47 | 48.76891 | 13.76187 | 49° | 15km/h | 1319m | -2.0m/s | 17.5°C | 62.9% | 873.0hPa | 2.7V | 06:51:00 | 03:43:28 | 00:00:00 | |
| OE5MMP-10 | 2026-08-31 02:12:42 | 48.76879 | 13.76166 | 49° | 15km/h | 1330m | -2.0m/s | 17.4°C | 63.3% | 871.8hPa | 2.7V | 00:00:00 | 03:43:23 | 00:00:00 | |
| OE5MMP-10 | 2026-08-31 02:12:37 | 48.76868 | 13.76146 | 50° | 13km/h | 1341m | -2.1m/s | 17.3°C | 63.8% | 870.9hPa | 2.7V | 00:00:00 | 03:43:18 | 00:00:00 | |
| OE5MMP-10 | 2026-08-31 02:12:32 | 48.76858 | 13.76130 | 45° | 9km/h | 1352m | -2.1m/s | 17.2°C | 64.3% | 869.8hPa | 2.7V | 00:00:00 | 03:43:13 | 00:00:00 | |
| OE5MMP-10 | 2026-08-31 02:12:27 | 48.76848 | 13.76120 | 18° | 11km/h | 1364m | -2.2m/s | 17.1°C | 64.6% | 868.5hPa | 2.7V | 00:00:00 | 03:43:08 | 00:00:00 | |
| OE5MMP-10 | 2026-08-31 02:12:22 | 48.76834 | 13.76118 | 360° | 15km/h | 1374m | -2.3m/s | 17.0°C | 64.6% | 867.5hPa | 2.7V | 00:00:00 | 03:43:03 | 00:00:00 | |
| OE5MMP-10 | 2026-08-31 02:12:17 | 48.76815 | 13.76118 | 1° | 18km/h | 1386m | -2.1m/s | 16.9°C | 64.6% | 866.3hPa | 2.7V | 00:00:00 | 03:42:58 | 00:00:00 | |
| OE5MMP-10 | 2026-08-31 02:12:12 | 48.76791 | 13.76116 | 8° | 22km/h | 1397m | -2.2m/s | 16.8°C | 64.8% | 865.1hPa | 2.7V | 06:52:00 | 03:42:53 | 00:00:00 | |
| OE5MMP-10 | 2026-08-31 02:12:07 | 48.76764 | 13.76107 | 16° | 24km/h | 1408m | -2.1m/s | 16.7°C | 65.2% | 864.0hPa | 2.7V | 00:00:00 | 03:42:48 | 00:00:00 | |
| OE5MMP-10 | 2026-08-31 02:12:02 | 48.76736 | 13.76090 | 28° | 22km/h | 1419m | -2.1m/s | 16.6°C | 65.6% | 863.0hPa | 2.7V | 00:00:00 | 03:42:43 | 00:00:00 | |
| OE5MMP-10 | 2026-08-31 02:11:57 | 48.76712 | 13.76067 | 38° | 20km/h | 1430m | -2.0m/s | 16.5°C | 65.7% | 861.8hPa | 2.7V | 00:00:00 | 03:42:38 | 00:00:00 | |
| OE5DRO-10 | 2026-08-31 02:11:56 | 48.76708 | 13.76062 | 40° | 22km/h | 1432m | -2.1m/s | 16.5°C | 65.9% | 861.7hPa | 2.7V | 06:52:00 | 00:00:00 | 00:00:00 | |
| OE5DRO-10 | 2026-08-31 02:11:53 | 48.76697 | 13.76047 | 45° | 18km/h | 1439m | -2.0m/s | 16.5°C | 65.9% | 861.1hPa | 2.7V | 00:00:00 | 00:00:00 | 00:00:00 | |
| OE5MMP-10 | 2026-08-31 02:11:52 | 48.76694 | 13.76042 | 46° | 16km/h | 1441m | -2.0m/s | 16.5°C | 66.1% | 861.0hPa | 2.7V | 00:00:00 | 03:42:33 | 00:00:00 | |
| OE5DRO-10 | 2026-08-31 02:11:49 | 48.76685 | 13.76028 | 47° | 16km/h | 1447m | -2.1m/s | 16.4°C | 66.1% | 860.3hPa | 2.7V | 00:00:00 | 00:00:00 | 00:00:00 | |
| OE5MMP-10 | 2026-08-31 02:11:47 | 48.76680 | 13.76019 | 47° | 13km/h | 1452m | -2.2m/s | 16.4°C | 66.3% | 859.8hPa | 2.7V | 00:00:00 | 03:42:28 | 00:00:00 | |
| OE5DRO-10 | 2026-08-31 02:11:45 | 48.76675 | 13.76012 | 43° | 13km/h | 1456m | -2.0m/s | 16.3°C | 66.3% | 859.3hPa | 2.7V | 00:00:00 | 00:00:00 | 00:00:00 | |
| OE5MMP-10 | 2026-08-31 02:11:42 | 48.76668 | 13.76003 | 39° | 11km/h | 1462m | -1.9m/s | 16.3°C | 66.5% | 858.7hPa | 2.7V | 00:00:00 | 03:42:23 | 00:00:00 | |
| OE5DRO-10 | 2026-08-31 02:11:39 | 48.76660 | 13.75995 | 33° | 11km/h | 1468m | -2.0m/s | 16.2°C | 66.7% | 857.9hPa | 2.7V | 00:00:00 | 00:00:00 | 00:00:00 | |
| OE5MMP-10 | 2026-08-31 02:11:37 | 48.76656 | 13.75990 | 36° | 13km/h | 1472m | -2.1m/s | 16.2°C | 66.8% | 857.6hPa | 2.7V | 06:53:00 | 03:42:18 | 00:00:00 | |
| OE5DRO-10 | 2026-08-31 02:11:35 | 48.76651 | 13.75984 | 38° | 13km/h | 1476m | -2.1m/s | 16.2°C | 67.0% | 857.0hPa | 2.7V | 00:00:00 | 00:00:00 | 00:00:00 | |
| OE5DRO-10 | 2026-08-31 02:11:33 | 48.76646 | 13.75979 | 39° | 13km/h | 1481m | -2.2m/s | 16.1°C | 67.0% | 856.6hPa | 2.7V | 00:00:00 | 00:00:00 | 00:00:00 | |
| OE5MMP-10 | 2026-08-31 02:11:32 | 48.76644 | 13.75976 | 38° | 11km/h | 1483m | -2.2m/s | 16.1°C | 67.1% | 856.4hPa | 2.7V | 00:00:00 | 03:42:13 | 00:00:00 | |
| OE5DRO-10 | 2026-08-31 02:11:31 | 48.76641 | 13.75973 | 35° | 11km/h | 1485m | -2.1m/s | 16.1°C | 67.1% | 856.3hPa | 2.7V | 06:53:00 | 00:00:00 | 00:00:00 | |
| OE5FHM-15 | 2026-08-31 02:11:31 | 48.76641 | 13.75973 | 35° | 13km/h | 1485m | -2.1m/s | 16.1°C | 67.1% | 856.3hPa | 2.7V | 00:00:00 | 03:42:12 | 00:00:00 | |
| OE5DRO-10 | 2026-08-31 02:11:29 | 48.76636 | 13.75969 | 28° | 11km/h | 1490m | -2.1m/s | 16.1°C | 67.1% | 855.8hPa | 2.7V | 00:00:00 | 00:00:00 | 00:00:00 | |
| OE5MMP-10 | 2026-08-31 02:11:27 | 48.76631 | 13.75966 | 14° | 13km/h | 1494m | -2.1m/s | 16.0°C | 67.3% | 855.5hPa | 2.7V | 00:00:00 | 03:42:08 | 00:00:00 | |
| OE5DRO-10 | 2026-08-31 02:11:27 | 48.76631 | 13.75966 | 14° | 11km/h | 1494m | -2.1m/s | 16.0°C | 67.3% | 855.5hPa | 2.7V | 00:00:00 | 00:00:00 | 00:00:00 | |
| OE5DRO-10 | 2026-08-31 02:11:25 | 48.76625 | 13.75964 | 6° | 13km/h | 1498m | -2.1m/s | 16.0°C | 67.5% | 854.9hPa | 2.7V | 00:00:00 | 00:00:00 | 00:00:00 | |
| OE3JTB-15 | 2026-08-31 02:11:23 | 48.76619 | 13.75964 | 1° | 15km/h | 1502m | -2.1m/s | 15.9°C | 67.8% | 854.5hPa | 2.7V | 00:00:00 | 00:00:00 | 00:00:00 | |
| OE5DRO-10 | 2026-08-31 02:11:23 | 48.76619 | 13.75964 | 1° | 15km/h | 1502m | -2.1m/s | 15.9°C | 67.8% | 854.5hPa | 2.7V | 00:00:00 | 00:00:00 | 00:00:00 | |
| OE5MMP-10 | 2026-08-31 02:11:22 | 48.76615 | 13.75964 | 1° | 15km/h | 1504m | -2.0m/s | 15.9°C | 67.8% | 854.4hPa | 2.7V | 00:00:00 | 03:42:03 | 00:00:00 | |
| OE5DRO-10 | 2026-08-31 02:11:21 | 48.76611 | 13.75964 | 360° | 15km/h | 1506m | -2.1m/s | 15.9°C | 67.7% | 854.1hPa | 2.7V | 00:00:00 | 00:00:00 | 00:00:00 | |
| OE5FHM-15 | 2026-08-31 02:11:21 | 48.76611 | 13.75964 | 360° | 16km/h | 1506m | -2.1m/s | 15.9°C | 67.7% | 854.1hPa | 2.7V | 00:00:00 | 03:42:02 | 00:00:00 | |
| OE5DRO-10 | 2026-08-31 02:11:19 | 48.76603 | 13.75964 | 359° | 16km/h | 1511m | -2.1m/s | 15.8°C | 68.1% | 853.7hPa | 2.7V | 00:00:00 | 00:00:00 | 00:00:00 | |
| OE3JTB-15 | 2026-08-31 02:11:18 | 48.76599 | 13.75964 | 359° | 16km/h | 1513m | -2.1m/s | 15.8°C | 68.1% | 853.5hPa | 2.7V | 00:00:00 | 00:00:00 | 00:00:00 | |
| OE5DRO-10 | 2026-08-31 02:11:17 | 48.76595 | 13.75964 | 358° | 16km/h | 1515m | -2.0m/s | 15.8°C | 68.1% | 853.2hPa | 2.7V | 06:53:00 | 00:00:00 | 00:00:00 | |
| OE5MMP-10 | 2026-08-31 02:11:17 | 48.76595 | 13.75964 | 358° | 18km/h | 1515m | -2.0m/s | 15.8°C | 68.1% | 853.2hPa | 2.7V | 00:00:00 | 03:41:58 | 00:00:00 | |
| OE3JTB-15 | 2026-08-31 02:11:16 | 48.76591 | 13.75964 | 358° | 18km/h | 1517m | -2.2m/s | 15.8°C | 68.2% | 853.0hPa | 2.7V | 00:00:00 | 03:41:57 | 00:00:00 | |
| OE5DRO-10 | 2026-08-31 02:11:15 | 48.76586 | 13.75965 | 358° | 18km/h | 1519m | -2.1m/s | 15.8°C | 68.2% | 852.8hPa | 2.7V | 00:00:00 | 00:00:00 | 00:00:00 | |
| OE3JTB-15 | 2026-08-31 02:11:14 | 48.76582 | 13.75965 | 358° | 18km/h | 1521m | -2.1m/s | 15.7°C | 68.4% | 852.7hPa | 2.7V | 00:00:00 | 00:00:00 | 00:00:00 | |
| OE5DRO-10 | 2026-08-31 02:11:13 | 48.76578 | 13.75965 | 358° | 18km/h | 1524m | -2.1m/s | 15.7°C | 68.3% | 852.4hPa | 2.7V | 00:00:00 | 00:00:00 | 00:00:00 | |
| OE3JTB-15 | 2026-08-31 02:11:12 | 48.76573 | 13.75966 | 358° | 18km/h | 1526m | -2.2m/s | 15.7°C | 68.3% | 852.1hPa | 2.7V | 00:00:00 | 00:00:00 | 00:00:00 | |
| OE5MMP-10 | 2026-08-31 02:11:12 | 48.76573 | 13.75966 | 358° | 20km/h | 1526m | -2.2m/s | 15.7°C | 68.3% | 852.1hPa | 2.7V | 00:00:00 | 03:41:53 | 00:00:00 | |
| OE5DRO-10 | 2026-08-31 02:11:11 | 48.76568 | 13.75966 | 358° | 18km/h | 1528m | -2.2m/s | 15.7°C | 68.3% | 851.8hPa | 2.7V | 00:00:00 | 00:00:00 | 00:00:00 | |
| OE5FHM-15 | 2026-08-31 02:11:11 | 48.76568 | 13.75966 | 358° | 20km/h | 1528m | -2.2m/s | 15.7°C | 68.3% | 851.8hPa | 2.7V | 00:00:00 | 03:41:52 | 00:00:00 | |
| OE3JTB-15 | 2026-08-31 02:11:09 | 48.76559 | 13.75966 | 360° | 20km/h | 1532m | -2.1m/s | 15.7°C | 68.2% | 851.5hPa | 2.7V | 00:00:00 | 03:41:50 | 00:00:00 | |
| OE5DRO-10 | 2026-08-31 02:11:09 | 48.76559 | 13.75966 | 360° | 20km/h | 1532m | -2.1m/s | 15.7°C | 68.2% | 851.5hPa | 2.7V | 00:00:00 | 00:00:00 | 00:00:00 | |
| OE5DRO-10 | 2026-08-31 02:11:07 | 48.76548 | 13.75966 | 1° | 22km/h | 1536m | -2.1m/s | 15.6°C | 68.3% | 851.2hPa | 2.7V | 00:00:00 | 00:00:00 | 00:00:00 | |
| OE3JTB-15 | 2026-08-31 02:11:07 | 48.76548 | 13.75966 | 1° | 22km/h | 1536m | -2.1m/s | 15.6°C | 68.3% | 851.2hPa | 2.7V | 06:53:00 | 00:00:00 | 00:00:00 | |
| OE5MMP-10 | 2026-08-31 02:11:07 | 48.76548 | 13.75966 | 1° | 22km/h | 1536m | -2.1m/s | 15.6°C | 68.3% | 851.2hPa | 2.7V | 00:00:00 | 03:41:48 | 00:00:00 | |
| OE5DRO-10 | 2026-08-31 02:11:05 | 48.76538 | 13.75966 | 2° | 22km/h | 1541m | -2.1m/s | 15.6°C | 68.2% | 850.6hPa | 2.7V | 00:00:00 | 00:00:00 | 00:00:00 | |
| OE3JTB-15 | 2026-08-31 02:11:04 | 48.76532 | 13.75966 | 3° | 22km/h | 1543m | -2.2m/s | 15.6°C | 68.2% | 850.4hPa | 2.7V | 00:00:00 | 00:00:00 | 00:00:00 | |
| OE5DRO-10 | 2026-08-31 02:11:03 | 48.76526 | 13.75966 | 3° | 22km/h | 1545m | -2.1m/s | 15.6°C | 68.2% | 850.2hPa | 2.7V | 06:53:00 | 00:00:00 | 00:00:00 | |
| OE3JTB-15 | 2026-08-31 02:11:02 | 48.76521 | 13.75965 | 6° | 24km/h | 1547m | -2.1m/s | 15.5°C | 68.2% | 849.9hPa | 2.7V | 00:00:00 | 03:41:43 | 00:00:00 | |
| OE5MMP-10 | 2026-08-31 02:11:02 | 48.76521 | 13.75965 | 6° | 24km/h | 1547m | -2.1m/s | 15.5°C | 68.2% | 849.9hPa | 2.7V | 06:53:00 | 03:41:43 | 00:00:00 | |
| OE5DRO-10 | 2026-08-31 02:11:01 | 48.76515 | 13.75964 | 7° | 24km/h | 1550m | -2.1m/s | 15.5°C | 68.4% | 849.7hPa | 2.7V | 00:00:00 | 00:00:00 | 00:00:00 | |
| OE5FHM-15 | 2026-08-31 02:11:01 | 48.76515 | 13.75964 | 7° | 26km/h | 1550m | -2.1m/s | 15.5°C | 68.4% | 849.7hPa | 2.7V | 06:53:00 | 03:41:42 | 00:00:00 | |
| OE3JTB-15 | 2026-08-31 02:11:00 | 48.76509 | 13.75963 | 9° | 24km/h | 1552m | -2.0m/s | 15.5°C | 68.4% | 849.5hPa | 2.7V | 00:00:00 | 00:00:00 | 00:00:00 | |
| OE5DRO-10 | 2026-08-31 02:10:59 | 48.76503 | 13.75962 | 9° | 24km/h | 1554m | -2.1m/s | 15.5°C | 68.6% | 849.4hPa | 2.7V | 00:00:00 | 00:00:00 | 00:00:00 | |
| OE3JTB-15 | 2026-08-31 02:10:58 | 48.76496 | 13.75960 | 10° | 26km/h | 1556m | -2.1m/s | 15.5°C | 68.7% | 849.1hPa | 2.7V | 00:00:00 | 00:00:00 | 00:00:00 | |
| OE5DRO-10 | 2026-08-31 02:10:57 | 48.76490 | 13.75958 | 11° | 26km/h | 1558m | -2.1m/s | 15.5°C | 68.6% | 848.9hPa | 2.7V | 00:00:00 | 00:00:00 | 00:00:00 | |
| OE5MMP-10 | 2026-08-31 02:10:57 | 48.76490 | 13.75958 | 11° | 26km/h | 1558m | -2.1m/s | 15.5°C | 68.6% | 848.9hPa | 2.7V | 00:00:00 | 03:41:38 | 00:00:00 | |
| OE3JTB-15 | 2026-08-31 02:10:56 | 48.76484 | 13.75956 | 11° | 26km/h | 1560m | -2.2m/s | 15.5°C | 68.6% | 848.8hPa | 2.7V | 00:00:00 | 03:41:37 | 00:00:00 | |
| OE3JTB-15 | 2026-08-31 02:10:54 | 48.76471 | 13.75953 | 13° | 26km/h | 1565m | -2.1m/s | 15.5°C | 68.3% | 848.3hPa | 2.7V | 00:00:00 | 00:00:00 | 00:00:00 | |
| OE5DRO-10 | 2026-08-31 02:10:53 | 48.76465 | 13.75950 | 14° | 26km/h | 1567m | -2.2m/s | 15.4°C | 68.3% | 848.1hPa | 2.7V | 00:00:00 | 00:00:00 | 00:00:00 | |
| OE5MMP-10 | 2026-08-31 02:10:52 | 48.76458 | 13.75948 | 16° | 26km/h | 1569m | -2.2m/s | 15.4°C | 68.4% | 847.8hPa | 2.7V | 00:00:00 | 03:41:33 | 00:00:00 | |
| OE3JTB-15 | 2026-08-31 02:10:52 | 48.76458 | 13.75948 | 16° | 26km/h | 1569m | -2.2m/s | 15.4°C | 68.4% | 847.8hPa | 2.7V | 06:53:00 | 00:00:00 | 00:00:00 | |
| OE5DRO-10 | 2026-08-31 02:10:51 | 48.76452 | 13.75945 | 18° | 26km/h | 1572m | -2.2m/s | 15.4°C | 68.4% | 847.7hPa | 2.7V | 00:00:00 | 00:00:00 | 00:00:00 | |
| OE5FHM-15 | 2026-08-31 02:10:51 | 48.76452 | 13.75945 | 18° | 26km/h | 1572m | -2.2m/s | 15.4°C | 68.4% | 847.7hPa | 2.7V | 00:00:00 | 03:41:32 | 00:00:00 | |
| OE3JTB-15 | 2026-08-31 02:10:50 | 48.76446 | 13.75942 | 21° | 26km/h | 1574m | -2.0m/s | 15.4°C | 68.5% | 847.5hPa | 2.7V | 00:00:00 | 03:41:31 | 00:00:00 | |
| OE3JTB-15 | 2026-08-31 02:10:48 | 48.76434 | 13.75934 | 25° | 26km/h | 1578m | -2.0m/s | 15.4°C | 68.6% | 847.0hPa | 2.7V | 00:00:00 | 00:00:00 | 00:00:00 | |
| OE5DRO-10 | 2026-08-31 02:10:47 | 48.76428 | 13.75930 | 28° | 26km/h | 1580m | -2.2m/s | 15.3°C | 68.6% | 846.9hPa | 2.7V | 00:00:00 | 00:00:00 | 00:00:00 | |
| OE5MMP-10 | 2026-08-31 02:10:47 | 48.76428 | 13.75930 | 28° | 24km/h | 1580m | -2.2m/s | 15.3°C | 68.6% | 846.9hPa | 2.7V | 00:00:00 | 03:41:28 | 00:00:00 | |
| OE3JTB-15 | 2026-08-31 02:10:46 | 48.76422 | 13.75925 | 30° | 26km/h | 1583m | -2.3m/s | 15.3°C | 68.8% | 846.5hPa | 2.7V | 00:00:00 | 00:00:00 | 00:00:00 | |
| OE5DRO-10 | 2026-08-31 02:10:45 | 48.76417 | 13.75920 | 32° | 24km/h | 1585m | -2.1m/s | 15.3°C | 68.8% | 846.3hPa | 2.7V | 00:00:00 | 00:00:00 | 00:00:00 | |
| OE3JTB-15 | 2026-08-31 02:10:44 | 48.76412 | 13.75915 | 34° | 24km/h | 1587m | -2.1m/s | 15.3°C | 68.9% | 846.2hPa | 2.7V | 00:00:00 | 03:41:25 | 00:00:00 | |
| OE5DRO-10 | 2026-08-31 02:10:43 | 48.76407 | 13.75910 | 35° | 22km/h | 1589m | -2.1m/s | 15.3°C | 68.9% | 846.0hPa | 2.7V | 00:00:00 | 00:00:00 | 00:00:00 | |
| OE3JTB-15 | 2026-08-31 02:10:42 | 48.76402 | 13.75905 | 36° | 22km/h | 1591m | -2.2m/s | 15.3°C | 68.9% | 845.7hPa | 2.7V | 00:00:00 | 00:00:00 | 00:00:00 | |
| OE5MMP-10 | 2026-08-31 02:10:42 | 48.76402 | 13.75905 | 36° | 20km/h | 1591m | -2.2m/s | 15.3°C | 68.9% | 845.7hPa | 2.7V | 00:00:00 | 03:41:23 | 00:00:00 | |
| OE5DRO-10 | 2026-08-31 02:10:41 | 48.76398 | 13.75900 | 37° | 22km/h | 1594m | -2.1m/s | 15.2°C | 69.0% | 845.6hPa | 2.7V | 00:00:00 | 00:00:00 | 00:00:00 | |
| OE5FHM-15 | 2026-08-31 02:10:41 | 48.76398 | 13.75900 | 37° | 15km/h | 1594m | -2.1m/s | 15.2°C | 69.0% | 845.6hPa | 2.7V | 00:00:00 | 03:41:22 | 00:00:00 | |
| OE3JTB-15 | 2026-08-31 02:10:40 | 48.76393 | 13.75895 | 38° | 20km/h | 1596m | -2.1m/s | 15.2°C | 69.2% | 845.3hPa | 2.7V | 00:00:00 | 00:00:00 | 00:00:00 | |
| OE5DRO-10 | 2026-08-31 02:10:39 | 48.76389 | 13.75890 | 39° | 20km/h | 1598m | -2.1m/s | 15.2°C | 69.3% | 845.2hPa | 2.7V | 00:00:00 | 00:00:00 | 00:00:00 | |
| OE3JTB-15 | 2026-08-31 02:10:38 | 48.76386 | 13.75886 | 40° | 18km/h | 1600m | -2.1m/s | 15.2°C | 69.3% | 844.9hPa | 2.7V | 06:54:00 | 03:41:19 | 00:00:00 | |
| OE5DRO-10 | 2026-08-31 02:10:37 | 48.76382 | 13.75881 | 40° | 18km/h | 1603m | -2.0m/s | 15.2°C | 69.2% | 844.6hPa | 2.7V | 00:00:00 | 00:00:00 | 00:00:00 | |
| OE5MMP-10 | 2026-08-31 02:10:37 | 48.76382 | 13.75881 | 40° | 16km/h | 1603m | -2.0m/s | 15.2°C | 69.2% | 844.6hPa | 2.7V | 00:00:00 | 03:41:18 | 00:00:00 | |
| OE3JTB-15 | 2026-08-31 02:10:36 | 48.76379 | 13.75877 | 39° | 16km/h | 1605m | -2.1m/s | 15.2°C | 69.2% | 844.4hPa | 2.7V | 00:00:00 | 00:00:00 | 00:00:00 | |
| OE5DRO-10 | 2026-08-31 02:10:35 | 48.76375 | 13.75873 | 39° | 16km/h | 1607m | -2.1m/s | 15.1°C | 69.4% | 844.1hPa | 2.7V | 06:54:00 | 00:00:00 | 00:00:00 | |
| OE3JTB-15 | 2026-08-31 02:10:34 | 48.76372 | 13.75869 | 38° | 16km/h | 1609m | -2.0m/s | 15.1°C | 69.5% | 844.0hPa | 2.7V | 00:00:00 | 00:00:00 | 00:00:00 | |
| OE5DRO-10 | 2026-08-31 02:10:33 | 48.76369 | 13.75866 | 37° | 15km/h | 1611m | -2.1m/s | 15.1°C | 69.6% | 843.7hPa | 2.7V | 00:00:00 | 00:00:00 | 00:00:00 | |
| OE3JTB-15 | 2026-08-31 02:10:32 | 48.76366 | 13.75862 | 35° | 15km/h | 1613m | -2.1m/s | 15.1°C | 69.6% | 843.6hPa | 2.7V | 00:00:00 | 03:41:13 | 00:00:00 | |
| OE5MMP-10 | 2026-08-31 02:10:32 | 48.76366 | 13.75862 | 35° | 15km/h | 1613m | -2.1m/s | 15.1°C | 69.6% | 843.6hPa | 2.7V | 00:00:00 | 03:41:13 | 00:00:00 | |
| OE5DRO-10 | 2026-08-31 02:10:31 | 48.76363 | 13.75859 | 34° | 15km/h | 1615m | -2.2m/s | 15.1°C | 69.6% | 843.4hPa | 2.7V | 00:00:00 | 00:00:00 | 00:00:00 | |
| OE3JTB-15 | 2026-08-31 02:10:30 | 48.76360 | 13.75856 | 33° | 13km/h | 1618m | -2.2m/s | 15.0°C | 69.7% | 843.0hPa | 2.7V | 00:00:00 | 00:00:00 | 00:00:00 | |
| OE5DRO-10 | 2026-08-31 02:10:29 | 48.76357 | 13.75853 | 32° | 13km/h | 1620m | -2.1m/s | 15.0°C | 69.8% | 842.9hPa | 2.7V | 00:00:00 | 00:00:00 | 00:00:00 | |
| OE3JTB-15 | 2026-08-31 02:10:28 | 48.76354 | 13.75851 | 30° | 13km/h | 1622m | -2.3m/s | 15.0°C | 70.0% | 842.7hPa | 2.7V | 00:00:00 | 00:00:00 | 00:00:00 | |
| OE5DRO-10 | 2026-08-31 02:10:27 | 48.76351 | 13.75849 | 28° | 13km/h | 1624m | -2.2m/s | 15.0°C | 70.1% | 842.4hPa | 2.7V | 00:00:00 | 00:00:00 | 00:00:00 | |
| OE5MMP-10 | 2026-08-31 02:10:27 | 48.76351 | 13.75849 | 28° | 13km/h | 1624m | -2.2m/s | 15.0°C | 70.1% | 842.4hPa | 2.7V | 06:54:00 | 03:41:08 | 00:00:00 | |
| OE5FHM-15 | 2026-08-31 02:10:26 | 48.76348 | 13.75847 | 26° | 13km/h | 1627m | -2.2m/s | 15.0°C | 70.2% | 842.3hPa | 2.7V | 00:00:00 | 03:41:07 | 00:00:00 | |
| OE5DRO-10 | 2026-08-31 02:10:25 | 48.76345 | 13.75845 | 25° | 13km/h | 1629m | -2.2m/s | 14.9°C | 70.2% | 841.9hPa | 2.7V | 00:00:00 | 00:00:00 | 00:00:00 | |
| OE3JTB-15 | 2026-08-31 02:10:25 | 48.76345 | 13.75845 | 25° | 13km/h | 1629m | -2.2m/s | 14.9°C | 70.2% | 841.9hPa | 2.7V | 00:00:00 | 03:41:06 | 00:00:00 | |
| OE5DRO-10 | 2026-08-31 02:10:23 | 48.76340 | 13.75841 | 25° | 13km/h | 1633m | -2.2m/s | 14.9°C | 70.2% | 841.6hPa | 2.7V | 00:00:00 | 00:00:00 | 00:00:00 | |
| OE3JTB-15 | 2026-08-31 02:10:23 | 48.76340 | 13.75841 | 25° | 13km/h | 1633m | -2.2m/s | 14.9°C | 70.2% | 841.6hPa | 2.7V | 06:54:00 | 00:00:00 | 00:00:00 | |
| OE5MMP-10 | 2026-08-31 02:10:22 | 48.76337 | 13.75839 | 26° | 13km/h | 1636m | -2.2m/s | 14.9°C | 70.2% | 841.3hPa | 2.7V | 00:00:00 | 03:41:03 | 00:00:00 | |
| OE3JTB-15 | 2026-08-31 02:10:21 | 48.76334 | 13.75837 | 24° | 13km/h | 1638m | -2.3m/s | 14.9°C | 70.5% | 841.1hPa | 2.7V | 00:00:00 | 00:00:00 | 00:00:00 | |
| OE5DRO-10 | 2026-08-31 02:10:21 | 48.76334 | 13.75837 | 24° | 13km/h | 1638m | -2.3m/s | 14.9°C | 70.5% | 841.1hPa | 2.7V | 06:54:00 | 00:00:00 | 00:00:00 | |
| OE5DRO-10 | 2026-08-31 02:10:19 | 48.76328 | 13.75834 | 16° | 13km/h | 1643m | -2.0m/s | 14.8°C | 70.7% | 840.7hPa | 2.7V | 00:00:00 | 00:00:00 | 00:00:00 | |
| OE3JTB-15 | 2026-08-31 02:10:18 | 48.76325 | 13.75832 | 11° | 13km/h | 1645m | -2.1m/s | 14.8°C | 70.8% | 840.5hPa | 2.7V | 00:00:00 | 03:40:59 | 00:00:00 | |
| OE5DRO-10 | 2026-08-31 02:10:17 | 48.76322 | 13.75832 | 7° | 13km/h | 1647m | -2.1m/s | 14.8°C | 70.8% | 840.2hPa | 2.7V | 00:00:00 | 00:00:00 | 00:00:00 | |
| OE5MMP-10 | 2026-08-31 02:10:17 | 48.76322 | 13.75832 | 7° | 13km/h | 1647m | -2.1m/s | 14.8°C | 70.8% | 840.2hPa | 2.7V | 00:00:00 | 03:40:58 | 00:00:00 | |
| OE3JTB-15 | 2026-08-31 02:10:16 | 48.76318 | 13.75831 | 5° | 13km/h | 1649m | -2.1m/s | 14.8°C | 70.8% | 840.1hPa | 2.7V | 00:00:00 | 00:00:00 | 00:00:00 | |
| OE5FHM-15 | 2026-08-31 02:10:16 | 48.76318 | 13.75831 | 5° | 16km/h | 1649m | -2.1m/s | 14.8°C | 70.8% | 840.1hPa | 2.7V | 00:00:00 | 03:40:57 | 00:00:00 | |
| OE5DRO-10 | 2026-08-31 02:10:15 | 48.76315 | 13.75831 | 3° | 15km/h | 1651m | -2.2m/s | 14.7°C | 71.0% | 839.7hPa | 2.7V | 00:00:00 | 00:00:00 | 00:00:00 | |
| OE3JTB-15 | 2026-08-31 02:10:14 | 48.76312 | 13.75831 | 2° | 15km/h | 1654m | -2.2m/s | 14.7°C | 71.1% | 839.6hPa | 2.7V | 00:00:00 | 00:00:00 | 00:00:00 | |
| OE5DRO-10 | 2026-08-31 02:10:13 | 48.76308 | 13.75830 | 3° | 15km/h | 1656m | -2.2m/s | 14.7°C | 71.1% | 839.4hPa | 2.7V | 00:00:00 | 00:00:00 | 00:00:00 | |
| OE3JTB-15 | 2026-08-31 02:10:12 | 48.76304 | 13.75830 | 4° | 15km/h | 1658m | -2.2m/s | 14.7°C | 71.3% | 839.0hPa | 2.7V | 00:00:00 | 03:40:53 | 00:00:00 | |
| OE5MMP-10 | 2026-08-31 02:10:12 | 48.76304 | 13.75830 | 4° | 15km/h | 1658m | -2.2m/s | 14.7°C | 71.3% | 839.0hPa | 2.7V | 00:00:00 | 03:40:53 | 00:00:00 | |
| OE5DRO-10 | 2026-08-31 02:10:11 | 48.76301 | 13.75830 | 4° | 15km/h | 1660m | -2.1m/s | 14.6°C | 71.3% | 838.7hPa | 2.7V | 00:00:00 | 00:00:00 | 00:00:00 | |
| OE3JTB-15 | 2026-08-31 02:10:10 | 48.76297 | 13.75830 | 4° | 15km/h | 1662m | -2.1m/s | 14.6°C | 71.3% | 838.6hPa | 2.7V | 00:00:00 | 00:00:00 | 00:00:00 | |
| OE5DRO-10 | 2026-08-31 02:10:09 | 48.76294 | 13.75829 | 5° | 13km/h | 1665m | -2.1m/s | 14.6°C | 71.4% | 838.5hPa | 2.7V | 00:00:00 | 00:00:00 | 00:00:00 | |
| OE3JTB-15 | 2026-08-31 02:10:08 | 48.76290 | 13.75829 | 6° | 13km/h | 1667m | -2.1m/s | 14.6°C | 71.6% | 838.2hPa | 2.7V | 06:54:00 | 00:00:00 | 00:00:00 | |
| OE5DRO-10 | 2026-08-31 02:10:07 | 48.76287 | 13.75828 | 4° | 13km/h | 1669m | -2.1m/s | 14.6°C | 71.7% | 838.0hPa | 2.7V | 06:54:00 | 00:00:00 | 00:00:00 | |
| OE5MMP-10 | 2026-08-31 02:10:07 | 48.76287 | 13.75828 | 4° | 13km/h | 1669m | -2.1m/s | 14.6°C | 71.7% | 838.0hPa | 2.7V | 00:00:00 | 03:40:48 | 00:00:00 | |
| OE3JTB-15 | 2026-08-31 02:10:06 | 48.76284 | 13.75828 | 5° | 13km/h | 1671m | -2.2m/s | 14.5°C | 71.7% | 837.8hPa | 2.7V | 00:00:00 | 03:40:47 | 00:00:00 | |
| OE5DRO-10 | 2026-08-31 02:10:05 | 48.76280 | 13.75827 | 6° | 13km/h | 1673m | -2.1m/s | 14.5°C | 71.8% | 837.6hPa | 2.7V | 00:00:00 | 00:00:00 | 00:00:00 | |
| OE3JTB-15 | 2026-08-31 02:10:04 | 48.76277 | 13.75827 | 7° | 13km/h | 1675m | -2.1m/s | 14.5°C | 71.8% | 837.4hPa | 2.7V | 00:00:00 | 00:00:00 | 00:00:00 | |
| OE5DRO-10 | 2026-08-31 02:10:03 | 48.76273 | 13.75826 | 8° | 13km/h | 1678m | -2.1m/s | 14.5°C | 71.8% | 837.2hPa | 2.7V | 00:00:00 | 00:00:00 | 00:00:00 | |
| OE3JTB-15 | 2026-08-31 02:10:02 | 48.76270 | 13.75826 | 6° | 13km/h | 1680m | -2.2m/s | 14.5°C | 71.9% | 836.9hPa | 2.7V | 00:00:00 | 00:00:00 | 00:00:00 | |
| OE5MMP-10 | 2026-08-31 02:10:02 | 48.76270 | 13.75826 | 6° | 13km/h | 1680m | -2.2m/s | 14.5°C | 71.9% | 836.9hPa | 2.7V | 00:00:00 | 03:40:43 | 00:00:00 | |
| OE5DRO-10 | 2026-08-31 02:10:01 | 48.76267 | 13.75825 | 7° | 13km/h | 1682m | -2.1m/s | 14.4°C | 72.1% | 836.8hPa | 2.7V | 00:00:00 | 00:00:00 | 00:00:00 | |
| OE5DRO-10 | 2026-08-31 02:09:59 | 48.76260 | 13.75824 | 6° | 15km/h | 1686m | -2.2m/s | 14.4°C | 72.0% | 836.3hPa | 2.7V | 00:00:00 | 00:00:00 | 00:00:00 | |
| OE5DXL-15 | 2026-08-31 02:09:59 | 48.76260 | 13.75824 | 6° | 15km/h | 1686m | -2.2m/s | 14.4°C | 72.0% | 836.3hPa | 2.7V | 00:00:00 | 00:00:00 | 00:00:00 | |
| OE5DRO-10 | 2026-08-31 02:09:57 | 48.76253 | 13.75823 | 4° | 15km/h | 1691m | -2.1m/s | 14.4°C | 72.4% | 835.9hPa | 2.7V | 00:00:00 | 00:00:00 | 00:00:00 | |
| OE3JTB-15 | 2026-08-31 02:09:57 | 48.76253 | 13.75823 | 4° | 15km/h | 1691m | -2.1m/s | 14.4°C | 72.4% | 835.9hPa | 2.7V | 00:00:00 | 03:40:38 | 00:00:00 | |
| OE5MMP-10 | 2026-08-31 02:09:57 | 48.76253 | 13.75823 | 4° | 16km/h | 1691m | -2.1m/s | 14.4°C | 72.4% | 835.9hPa | 2.7V | 00:00:00 | 03:40:38 | 00:00:00 | |
| OE3JTB-15 | 2026-08-31 02:09:55 | 48.76245 | 13.75823 | 360° | 16km/h | 1695m | -2.1m/s | 14.3°C | 72.2% | 835.3hPa | 2.7V | 00:00:00 | 00:00:00 | 00:00:00 | |
| OE5DRO-10 | 2026-08-31 02:09:55 | 48.76245 | 13.75823 | 360° | 16km/h | 1695m | -2.1m/s | 14.3°C | 72.2% | 835.3hPa | 2.7V | 00:00:00 | 00:00:00 | 00:00:00 | |
| OE3JTB-15 | 2026-08-31 02:09:53 | 48.76237 | 13.75823 | 360° | 16km/h | 1699m | -2.2m/s | 14.3°C | 72.4% | 835.0hPa | 2.7V | 00:00:00 | 00:00:00 | 00:00:00 | |
| OE5DRO-10 | 2026-08-31 02:09:53 | 48.76237 | 13.75823 | 360° | 16km/h | 1699m | -2.2m/s | 14.3°C | 72.4% | 835.0hPa | 2.7V | 06:54:00 | 00:00:00 | 00:00:00 | |
| OE5DXL-15 | 2026-08-31 02:09:53 | 48.76237 | 13.75823 | 360° | 16km/h | 1699m | -2.2m/s | 14.3°C | 72.4% | 835.0hPa | 2.7V | 00:00:00 | 00:00:00 | 00:00:00 | |
| OE5MMP-10 | 2026-08-31 02:09:52 | 48.76233 | 13.75823 | 360° | 16km/h | 1701m | -2.0m/s | 14.3°C | 72.5% | 834.8hPa | 2.7V | 06:54:00 | 03:40:33 | 00:00:00 | |
| OE5DRO-10 | 2026-08-31 02:09:51 | 48.76229 | 13.75823 | 1° | 16km/h | 1704m | -2.2m/s | 14.2°C | 72.6% | 834.5hPa | 2.7V | 00:00:00 | 00:00:00 | 00:00:00 | |
| OE3JTB-15 | 2026-08-31 02:09:50 | 48.76225 | 13.75823 | 1° | 16km/h | 1706m | -2.2m/s | 14.2°C | 72.9% | 834.4hPa | 2.7V | 06:54:00 | 03:40:31 | 00:00:00 | |
| OE5DRO-10 | 2026-08-31 02:09:49 | 48.76221 | 13.75823 | 360° | 16km/h | 1708m | -2.1m/s | 14.2°C | 72.7% | 834.1hPa | 2.7V | 00:00:00 | 00:00:00 | 00:00:00 | |
| OE5DRO-10 | 2026-08-31 02:09:47 | 48.76212 | 13.75823 | 360° | 18km/h | 1712m | -2.1m/s | 14.2°C | 72.8% | 833.6hPa | 2.7V | 00:00:00 | 00:00:00 | 00:00:00 | |
| OE5DXL-15 | 2026-08-31 02:09:47 | 48.76212 | 13.75823 | 360° | 20km/h | 1712m | -2.1m/s | 14.2°C | 72.8% | 833.6hPa | 2.7V | 00:00:00 | 00:00:00 | 00:00:00 | |
| OE5MMP-10 | 2026-08-31 02:09:47 | 48.76212 | 13.75823 | 360° | 20km/h | 1712m | -2.1m/s | 14.2°C | 72.8% | 833.6hPa | 2.7V | 00:00:00 | 03:40:28 | 00:00:00 | |
| OE5DRO-10 | 2026-08-31 02:09:45 | 48.76203 | 13.75824 | 359° | 20km/h | 1717m | -2.0m/s | 14.1°C | 72.9% | 833.2hPa | 2.7V | 00:00:00 | 00:00:00 | 00:00:00 | |
| OE5DRO-10 | 2026-08-31 02:09:43 | 48.76193 | 13.75824 | 3° | 22km/h | 1721m | -2.0m/s | 14.1°C | 73.3% | 832.9hPa | 2.7V | 00:00:00 | 00:00:00 | 00:00:00 | |
| OE5MMP-10 | 2026-08-31 02:09:42 | 48.76187 | 13.75823 | 5° | 24km/h | 1723m | -2.0m/s | 14.1°C | 73.3% | 832.7hPa | 2.7V | 00:00:00 | 03:40:23 | 00:00:00 | |
| OE5DRO-10 | 2026-08-31 02:09:41 | 48.76181 | 13.75822 | 7° | 24km/h | 1725m | -2.0m/s | 14.1°C | 73.4% | 832.4hPa | 2.7V | 00:00:00 | 00:00:00 | 00:00:00 | |
| OE5DXL-15 | 2026-08-31 02:09:41 | 48.76181 | 13.75822 | 7° | 26km/h | 1725m | -2.0m/s | 14.1°C | 73.4% | 832.4hPa | 2.7V | 00:00:00 | 00:00:00 | 00:00:00 | |
| OE3JTB-15 | 2026-08-31 02:09:40 | 48.76175 | 13.75821 | 10° | 24km/h | 1727m | -2.1m/s | 14.0°C | 73.4% | 832.3hPa | 2.7V | 00:00:00 | 00:00:00 | 00:00:00 | |
| OE5DRO-10 | 2026-08-31 02:09:39 | 48.76169 | 13.75819 | 13° | 26km/h | 1729m | -2.1m/s | 14.0°C | 73.5% | 832.0hPa | 2.7V | 06:55:00 | 00:00:00 | 00:00:00 | |
| OE3JTB-15 | 2026-08-31 02:09:38 | 48.76163 | 13.75817 | 15° | 26km/h | 1732m | -2.1m/s | 14.0°C | 73.6% | 831.8hPa | 2.7V | 00:00:00 | 00:00:00 | 00:00:00 | |
| DO3MHA-11 | 2026-08-31 02:09:38 | 48.76163 | 13.75817 | 15° | 24km/h | 1732m | -2.1m/s | 14.0°C | 73.6% | 831.8hPa | 2.7V | 00:00:00 | 03:40:19 | 00:00:00 | |
| OE5DRO-10 | 2026-08-31 02:09:37 | 48.76157 | 13.75814 | 17° | 26km/h | 1734m | -2.1m/s | 14.0°C | 73.7% | 831.6hPa | 2.7V | 00:00:00 | 00:00:00 | 00:00:00 | |
| OE5MMP-10 | 2026-08-31 02:09:37 | 48.76157 | 13.75814 | 17° | 26km/h | 1734m | -2.1m/s | 14.0°C | 73.7% | 831.6hPa | 2.7V | 00:00:00 | 03:40:18 | 00:00:00 | |
| OE3JTB-15 | 2026-08-31 02:09:36 | 48.76151 | 13.75812 | 19° | 26km/h | 1736m | -2.2m/s | 14.0°C | 73.7% | 831.4hPa | 2.7V | 00:00:00 | 03:40:17 | 00:00:00 | |
| OE5DRO-10 | 2026-08-31 02:09:35 | 48.76145 | 13.75808 | 21° | 26km/h | 1738m | -2.2m/s | 13.9°C | 74.0% | 831.2hPa | 2.7V | 00:00:00 | 00:00:00 | 00:00:00 | |
| OE5DXL-15 | 2026-08-31 02:09:35 | 48.76145 | 13.75808 | 21° | 26km/h | 1738m | -2.2m/s | 13.9°C | 74.0% | 831.2hPa | 2.7V | 00:00:00 | 00:00:00 | 00:00:00 | |
| OE5DRO-10 | 2026-08-31 02:09:33 | 48.76132 | 13.75801 | 25° | 26km/h | 1743m | -2.2m/s | 13.9°C | 73.9% | 830.6hPa | 2.7V | 00:00:00 | 00:00:00 | 00:00:00 | |
| OE3JTB-15 | 2026-08-31 02:09:32 | 48.76126 | 13.75796 | 28° | 26km/h | 1745m | -2.1m/s | 13.9°C | 74.0% | 830.5hPa | 2.7V | 00:00:00 | 00:00:00 | 00:00:00 | |
| OE5MMP-10 | 2026-08-31 02:09:32 | 48.76126 | 13.75796 | 28° | 26km/h | 1745m | -2.1m/s | 13.9°C | 74.0% | 830.5hPa | 2.7V | 00:00:00 | 03:40:13 | 00:00:00 | |
| OE5DRO-10 | 2026-08-31 02:09:31 | 48.76121 | 13.75792 | 30° | 26km/h | 1747m | -2.1m/s | 13.9°C | 74.3% | 830.2hPa | 2.7V | 00:00:00 | 00:00:00 | 00:00:00 | |
| OE3JTB-15 | 2026-08-31 02:09:30 | 48.76115 | 13.75787 | 32° | 26km/h | 1750m | -2.1m/s | 13.9°C | 74.5% | 830.0hPa | 2.7V | 00:00:00 | 03:40:11 | 00:00:00 | |
| OE5DRO-10 | 2026-08-31 02:09:29 | 48.76110 | 13.75782 | 35° | 24km/h | 1752m | -2.2m/s | 13.9°C | 74.3% | 829.9hPa | 2.7V | 00:00:00 | 00:00:00 | 00:00:00 | |
| OE5DXL-15 | 2026-08-31 02:09:29 | 48.76110 | 13.75782 | 35° | 24km/h | 1752m | -2.2m/s | 13.9°C | 74.3% | 829.9hPa | 2.7V | 00:00:00 | 00:00:00 | 00:00:00 | |
| OE3JTB-15 | 2026-08-31 02:09:28 | 48.76105 | 13.75776 | 36° | 24km/h | 1754m | -2.2m/s | 13.8°C | 74.3% | 829.7hPa | 2.7V | 06:55:00 | 00:00:00 | 00:00:00 | |
| OE5DRO-10 | 2026-08-31 02:09:27 | 48.76100 | 13.75771 | 38° | 24km/h | 1756m | -2.1m/s | 13.8°C | 74.6% | 829.4hPa | 2.7V | 00:00:00 | 00:00:00 | 00:00:00 | |
| OE5MMP-10 | 2026-08-31 02:09:27 | 48.76100 | 13.75771 | 38° | 22km/h | 1756m | -2.1m/s | 13.8°C | 74.6% | 829.4hPa | 2.7V | 00:00:00 | 03:40:08 | 00:00:00 | |
| OE3JTB-15 | 2026-08-31 02:09:26 | 48.76095 | 13.75766 | 39° | 22km/h | 1758m | -2.2m/s | 13.8°C | 75.0% | 829.2hPa | 2.7V | 00:00:00 | 00:00:00 | 00:00:00 | |
| OE5FHM-15 | 2026-08-31 02:09:26 | 48.76095 | 13.75766 | 39° | 20km/h | 1758m | -2.2m/s | 13.8°C | 75.0% | 829.2hPa | 2.7V | 00:00:00 | 03:40:07 | 00:00:00 | |
| DO3MHA-11 | 2026-08-31 02:09:26 | 48.76095 | 13.75766 | 39° | 18km/h | 1758m | -2.2m/s | 13.8°C | 75.0% | 829.2hPa | 2.7V | 00:00:00 | 03:40:07 | 00:00:00 | |
| OE5DRO-10 | 2026-08-31 02:09:25 | 48.76091 | 13.75760 | 40° | 22km/h | 1761m | -2.1m/s | 13.8°C | 74.8% | 829.0hPa | 2.7V | 06:55:00 | 00:00:00 | 00:00:00 | |
| OE5DRO-10 | 2026-08-31 02:09:23 | 48.76083 | 13.75749 | 43° | 20km/h | 1765m | -2.1m/s | 13.7°C | 75.1% | 828.6hPa | 2.7V | 00:00:00 | 00:00:00 | 00:00:00 | |
| OE5DXL-15 | 2026-08-31 02:09:23 | 48.76083 | 13.75749 | 43° | 18km/h | 1765m | -2.1m/s | 13.7°C | 75.1% | 828.6hPa | 2.7V | 06:55:00 | 00:00:00 | 00:00:00 | |
| OE3JTB-15 | 2026-08-31 02:09:22 | 48.76079 | 13.75744 | 45° | 20km/h | 1767m | -2.1m/s | 13.7°C | 75.1% | 828.2hPa | 2.7V | 00:00:00 | 03:40:03 | 00:00:00 | |
| OE5MMP-10 | 2026-08-31 02:09:22 | 48.76079 | 13.75744 | 45° | 18km/h | 1767m | -2.1m/s | 13.7°C | 75.1% | 828.2hPa | 2.7V | 00:00:00 | 03:40:03 | 00:00:00 | |
| OE5DRO-10 | 2026-08-31 02:09:21 | 48.76075 | 13.75739 | 45° | 18km/h | 1769m | -2.1m/s | 13.7°C | 75.1% | 828.2hPa | 2.7V | 00:00:00 | 00:00:00 | 00:00:00 | |
| OE3JTB-15 | 2026-08-31 02:09:20 | 48.76072 | 13.75734 | 46° | 16km/h | 1771m | -2.0m/s | 13.7°C | 75.1% | 827.7hPa | 2.7V | 00:00:00 | 00:00:00 | 00:00:00 | |
| OE5DRO-10 | 2026-08-31 02:09:19 | 48.76069 | 13.75729 | 46° | 16km/h | 1774m | -2.1m/s | 13.6°C | 75.2% | 827.7hPa | 2.7V | 00:00:00 | 00:00:00 | 00:00:00 | |
| OE5DRO-10 | 2026-08-31 02:09:17 | 48.76063 | 13.75720 | 44° | 15km/h | 1778m | -1.9m/s | 13.6°C | 75.2% | 827.2hPa | 2.7V | 00:00:00 | 00:00:00 | 00:00:00 | |
| OE5DXL-15 | 2026-08-31 02:09:17 | 48.76063 | 13.75720 | 44° | 13km/h | 1778m | -1.9m/s | 13.6°C | 75.2% | 827.2hPa | 2.7V | 00:00:00 | 00:00:00 | 00:00:00 | |
| OE5MMP-10 | 2026-08-31 02:09:17 | 48.76063 | 13.75720 | 44° | 15km/h | 1778m | -1.9m/s | 13.6°C | 75.2% | 827.2hPa | 2.7V | 06:55:00 | 03:39:58 | 00:00:00 | |
| OE5FHM-15 | 2026-08-31 02:09:16 | 48.76060 | 13.75716 | 44° | 13km/h | 1780m | -2.1m/s | 13.6°C | 75.5% | 827.2hPa | 2.7V | 00:00:00 | 03:39:57 | 00:00:00 | |
| OE5DRO-10 | 2026-08-31 02:09:15 | 48.76058 | 13.75712 | 43° | 15km/h | 1782m | -2.2m/s | 13.6°C | 75.5% | 826.8hPa | 2.7V | 00:00:00 | 00:00:00 | 00:00:00 | |
| OE5DRO-10 | 2026-08-31 02:09:13 | 48.76052 | 13.75705 | 40° | 13km/h | 1786m | -2.0m/s | 13.5°C | 75.8% | 826.5hPa | 2.7V | 00:00:00 | 00:00:00 | 00:00:00 | |
| OE5MMP-10 | 2026-08-31 02:09:12 | 48.76050 | 13.75702 | 40° | 13km/h | 1789m | -2.1m/s | 13.5°C | 75.7% | 826.2hPa | 2.7V | 00:00:00 | 03:39:53 | 00:00:00 | |
| OE5DRO-10 | 2026-08-31 02:09:11 | 48.76047 | 13.75699 | 39° | 13km/h | 1791m | -1.9m/s | 13.5°C | 75.7% | 826.0hPa | 2.7V | 06:55:00 | 00:00:00 | 00:00:00 | |
| OE5DRO-10 | 2026-08-31 02:09:09 | 48.76042 | 13.75693 | 37° | 13km/h | 1795m | -2.1m/s | 13.4°C | 75.9% | 825.6hPa | 2.7V | 00:00:00 | 00:00:00 | 00:00:00 | |
| OE5MMP-10 | 2026-08-31 02:09:07 | 48.76037 | 13.75687 | 34° | 13km/h | 1799m | -2.1m/s | 13.4°C | 76.1% | 825.2hPa | 2.7V | 00:00:00 | 03:39:48 | 00:00:00 | |
| OE5FHM-15 | 2026-08-31 02:09:06 | 48.76034 | 13.75685 | 29° | 13km/h | 1801m | -2.2m/s | 13.4°C | 75.8% | 825.0hPa | 2.7V | 06:55:00 | 03:39:47 | 00:00:00 | |
| OE5DRO-10 | 2026-08-31 02:09:04 | 48.76029 | 13.75681 | 21° | 13km/h | 1806m | -2.1m/s | 13.3°C | 76.0% | 824.6hPa | 2.7V | 00:00:00 | 00:00:00 | 00:00:00 | |
| OE5MMP-10 | 2026-08-31 02:09:02 | 48.76023 | 13.75678 | 16° | 13km/h | 1810m | -2.0m/s | 13.3°C | 76.4% | 824.1hPa | 2.7V | 00:00:00 | 03:39:43 | 00:00:00 | |
| OE5DXL-15 | 2026-08-31 02:08:59 | 48.76014 | 13.75675 | 13° | 18km/h | 1816m | -2.2m/s | 13.2°C | 76.6% | 823.5hPa | 2.7V | 00:00:00 | 03:39:40 | 00:00:00 | |
| DO3MHA-11 | 2026-08-31 02:08:59 | 48.76014 | 13.75675 | 13° | 15km/h | 1816m | -2.2m/s | 13.2°C | 76.6% | 823.5hPa | 2.7V | 00:00:00 | 03:39:40 | 00:00:00 | |
| OE5DRO-10 | 2026-08-31 02:08:57 | 48.76007 | 13.75673 | 10° | 16km/h | 1820m | -2.2m/s | 13.2°C | 76.8% | 823.1hPa | 2.7V | 00:00:00 | 00:00:00 | 00:00:00 | |
| OE5MMP-10 | 2026-08-31 02:08:57 | 48.76007 | 13.75673 | 10° | 15km/h | 1820m | -2.2m/s | 13.2°C | 76.8% | 823.1hPa | 2.7V | 00:00:00 | 03:39:38 | 00:00:00 | |
| OE5FHM-15 | 2026-08-31 02:08:56 | 48.76003 | 13.75672 | 8° | 18km/h | 1823m | -2.3m/s | 13.2°C | 76.9% | 822.8hPa | 2.7V | 00:00:00 | 03:39:37 | 00:00:00 | |
| DO3MHA-11 | 2026-08-31 02:08:54 | 48.75996 | 13.75671 | 7° | 16km/h | 1827m | -2.3m/s | 13.1°C | 77.0% | 822.4hPa | 2.7V | 06:55:00 | 03:39:35 | 00:00:00 | |
| OE5MMP-10 | 2026-08-31 02:08:52 | 48.75988 | 13.75669 | 7° | 18km/h | 1832m | -2.0m/s | 13.1°C | 78.0% | 821.9hPa | 2.7V | 00:00:00 | 03:39:33 | 00:00:00 | |
| OE5DRO-10 | 2026-08-31 02:08:50 | 48.75978 | 13.75668 | 8° | 20km/h | 1836m | -2.0m/s | 13.0°C | 77.6% | 821.5hPa | 2.7V | 00:00:00 | 00:00:00 | 00:00:00 | |
| DO3MHA-11 | 2026-08-31 02:08:49 | 48.75974 | 13.75667 | 9° | 20km/h | 1838m | -2.1m/s | 13.0°C | 77.5% | 821.3hPa | 2.7V | 00:00:00 | 03:39:30 | 00:00:00 | |
| OE5MMP-10 | 2026-08-31 02:08:47 | 48.75964 | 13.75664 | 10° | 22km/h | 1842m | -2.1m/s | 13.0°C | 78.0% | 821.0hPa | 2.7V | 00:00:00 | 03:39:28 | 00:00:00 | |
| OE5FHM-15 | 2026-08-31 02:08:46 | 48.75958 | 13.75663 | 11° | 22km/h | 1844m | -2.1m/s | 13.0°C | 78.1% | 820.6hPa | 2.7V | 00:00:00 | 03:39:27 | 00:00:00 | |
| DO3MHA-11 | 2026-08-31 02:08:44 | 48.75948 | 13.75660 | 12° | 22km/h | 1849m | -2.2m/s | 12.9°C | 78.6% | 820.3hPa | 2.7V | 00:00:00 | 03:39:25 | 00:00:00 | |
| OE5DRO-10 | 2026-08-31 02:08:43 | 48.75942 | 13.75658 | 13° | 22km/h | 1851m | -2.1m/s | 12.9°C | 78.4% | 820.1hPa | 2.7V | 00:00:00 | 00:00:00 | 00:00:00 | |
| OE5MMP-10 | 2026-08-31 02:08:42 | 48.75937 | 13.75656 | 13° | 22km/h | 1853m | -2.1m/s | 12.9°C | 78.5% | 820.0hPa | 2.7V | 06:55:00 | 03:39:23 | 00:00:00 | |
| OE5DXL-15 | 2026-08-31 02:08:39 | 48.75920 | 13.75651 | 12° | 24km/h | 1860m | -2.1m/s | 12.8°C | 78.8% | 819.3hPa | 2.7V | 00:00:00 | 00:00:00 | 00:00:00 | |
| DO3MHA-11 | 2026-08-31 02:08:39 | 48.75920 | 13.75651 | 12° | 24km/h | 1860m | -2.1m/s | 12.8°C | 78.8% | 819.3hPa | 2.7V | 00:00:00 | 03:39:20 | 00:00:00 | |
| OE5MMP-10 | 2026-08-31 02:08:37 | 48.75909 | 13.75647 | 13° | 24km/h | 1864m | -2.0m/s | 12.8°C | 79.1% | 818.9hPa | 2.7V | 00:00:00 | 03:39:18 | 00:00:00 | |
| OE5DRO-10 | 2026-08-31 02:08:36 | 48.75903 | 13.75645 | 13° | 24km/h | 1866m | -2.1m/s | 12.7°C | 79.4% | 818.7hPa | 2.7V | 00:00:00 | 00:00:00 | 00:00:00 | |
| OE5FHM-15 | 2026-08-31 02:08:36 | 48.75903 | 13.75645 | 13° | 24km/h | 1866m | -2.1m/s | 12.7°C | 79.4% | 818.7hPa | 2.7V | 00:00:00 | 03:39:17 | 00:00:00 | |
| DO3MHA-11 | 2026-08-31 02:08:34 | 48.75892 | 13.75640 | 16° | 24km/h | 1870m | -2.0m/s | 12.7°C | 79.4% | 818.3hPa | 2.7V | 00:00:00 | 03:39:15 | 00:00:00 | |
| OE5MMP-10 | 2026-08-31 02:08:32 | 48.75880 | 13.75636 | 17° | 24km/h | 1875m | -2.0m/s | 12.7°C | 79.7% | 817.9hPa | 2.7V | 00:00:00 | 03:39:13 | 00:00:00 | |
| OE5DRO-10 | 2026-08-31 02:08:29 | 48.75862 | 13.75627 | 18° | 24km/h | 1881m | -1.9m/s | 12.6°C | 80.2% | 817.3hPa | 2.7V | 06:56:00 | 00:00:00 | 00:00:00 | |
| DO3MHA-11 | 2026-08-31 02:08:29 | 48.75862 | 13.75627 | 18° | 24km/h | 1881m | -1.9m/s | 12.6°C | 80.2% | 817.3hPa | 2.7V | 00:00:00 | 03:39:10 | 00:00:00 | |
| OE5FHM-15 | 2026-08-31 02:08:26 | 48.75845 | 13.75618 | 19° | 24km/h | 1887m | -2.0m/s | 12.6°C | 80.5% | 816.7hPa | 2.7V | 00:00:00 | 03:39:07 | 00:00:00 | |
| DO3MHA-11 | 2026-08-31 02:08:24 | 48.75833 | 13.75613 | 17° | 24km/h | 1891m | -2.0m/s | 12.5°C | 80.8% | 816.2hPa | 2.7V | 00:00:00 | 03:39:05 | 00:00:00 | |
| OE5DRO-10 | 2026-08-31 02:08:22 | 48.75821 | 13.75608 | 17° | 24km/h | 1895m | -2.0m/s | 12.5°C | 80.9% | 815.9hPa | 2.7V | 00:00:00 | 00:00:00 | 00:00:00 | |
| OE5MMP-10 | 2026-08-31 02:08:22 | 48.75821 | 13.75608 | 17° | 24km/h | 1895m | -2.0m/s | 12.5°C | 80.9% | 815.9hPa | 2.7V | 00:00:00 | 03:39:03 | 00:00:00 | |
| DO3MHA-11 | 2026-08-31 02:08:19 | 48.75803 | 13.75599 | 20° | 26km/h | 1901m | -2.0m/s | 12.5°C | 81.0% | 815.2hPa | 2.7V | 06:56:00 | 03:39:00 | 00:00:00 | |
| OE5DXL-15 | 2026-08-31 02:08:19 | 48.75803 | 13.75599 | 20° | 26km/h | 1901m | -2.0m/s | 12.5°C | 81.0% | 815.2hPa | 2.7V | 00:00:00 | 00:00:00 | 00:00:00 | |
| OE5MMP-10 | 2026-08-31 02:08:17 | 48.75792 | 13.75593 | 23° | 26km/h | 1905m | -1.9m/s | 12.4°C | 81.8% | 814.8hPa | 2.7V | 00:00:00 | 03:38:58 | 00:00:00 | |
| OE5FHM-15 | 2026-08-31 02:08:16 | 48.75786 | 13.75589 | 24° | 26km/h | 1907m | -2.0m/s | 12.4°C | 81.5% | 814.7hPa | 2.7V | 00:00:00 | 03:38:57 | 00:00:00 | |
| OE5DRO-10 | 2026-08-31 02:08:15 | 48.75780 | 13.75585 | 26° | 26km/h | 1909m | -2.0m/s | 12.4°C | 81.7% | 814.5hPa | 2.7V | 00:00:00 | 00:00:00 | 00:00:00 | |
| DO3MHA-11 | 2026-08-31 02:08:14 | 48.75775 | 13.75581 | 28° | 26km/h | 1911m | -2.0m/s | 12.3°C | 81.8% | 814.3hPa | 2.7V | 00:00:00 | 03:38:55 | 00:00:00 | |
| DO3MHA-11 | 2026-08-31 02:08:09 | 48.75747 | 13.75556 | 32° | 26km/h | 1922m | -2.2m/s | 12.2°C | 82.2% | 813.2hPa | 2.7V | 00:00:00 | 03:38:50 | 00:00:00 | |
| OE5DRO-10 | 2026-08-31 02:08:08 | 48.75741 | 13.75551 | 33° | 26km/h | 1924m | -2.1m/s | 12.2°C | 82.1% | 813.0hPa | 2.7V | 00:00:00 | 00:00:00 | 00:00:00 | |
| OE5MMP-10 | 2026-08-31 02:08:07 | 48.75736 | 13.75545 | 33° | 26km/h | 1926m | -2.1m/s | 12.2°C | 82.8% | 812.8hPa | 2.7V | 06:56:00 | 03:38:48 | 00:00:00 | |
| OE5FHM-15 | 2026-08-31 02:08:06 | 48.75730 | 13.75540 | 35° | 22km/h | 1928m | -2.2m/s | 12.1°C | 82.9% | 812.5hPa | 2.7V | 00:00:00 | 03:38:47 | 00:00:00 | |
| DO3MHA-11 | 2026-08-31 02:08:04 | 48.75720 | 13.75528 | 40° | 24km/h | 1933m | -2.0m/s | 12.1°C | 83.4% | 812.2hPa | 2.7V | 00:00:00 | 03:38:45 | 00:00:00 | |
| OE5MMP-10 | 2026-08-31 02:08:02 | 48.75710 | 13.75516 | 43° | 20km/h | 1937m | -2.1m/s | 12.1°C | 83.4% | 811.7hPa | 2.7V | 00:00:00 | 03:38:43 | 00:00:00 | |
| OE5DRO-10 | 2026-08-31 02:08:01 | 48.75706 | 13.75510 | 45° | 18km/h | 1939m | -2.1m/s | 12.0°C | 83.5% | 811.5hPa | 2.7V | 00:00:00 | 00:00:00 | 00:00:00 | |
| OE5DXL-15 | 2026-08-31 02:07:59 | 48.75699 | 13.75499 | 47° | 16km/h | 1943m | -2.0m/s | 12.0°C | 83.7% | 811.0hPa | 2.7V | 00:00:00 | 00:00:00 | 00:00:00 | |
| DO3MHA-11 | 2026-08-31 02:07:59 | 48.75699 | 13.75499 | 47° | 16km/h | 1943m | -2.0m/s | 12.0°C | 83.7% | 811.0hPa | 2.7V | 00:00:00 | 03:38:40 | 00:00:00 | |
| OE5MMP-10 | 2026-08-31 02:07:57 | 48.75693 | 13.75489 | 46° | 15km/h | 1948m | -2.0m/s | 12.0°C | 83.8% | 810.7hPa | 2.7V | 00:00:00 | 03:38:38 | 00:00:00 | |
| OE5FHM-15 | 2026-08-31 02:07:56 | 48.75690 | 13.75485 | 45° | 15km/h | 1950m | -2.1m/s | 11.9°C | 83.7% | 810.6hPa | 2.7V | 06:56:00 | 03:38:37 | 00:00:00 | |
| OE5DRO-10 | 2026-08-31 02:07:54 | 48.75684 | 13.75477 | 42° | 15km/h | 1954m | -2.1m/s | 11.9°C | 83.8% | 810.1hPa | 2.7V | 00:00:00 | 00:00:00 | 00:00:00 | |
| DO3MHA-11 | 2026-08-31 02:07:54 | 48.75684 | 13.75477 | 42° | 15km/h | 1954m | -2.1m/s | 11.9°C | 83.8% | 810.1hPa | 2.7V | 00:00:00 | 03:38:35 | 00:00:00 | |
| OE5MMP-10 | 2026-08-31 02:07:52 | 48.75679 | 13.75470 | 41° | 15km/h | 1958m | -1.9m/s | 11.9°C | 83.9% | 809.7hPa | 2.7V | 00:00:00 | 03:38:33 | 00:00:00 | |
| DO3MHA-11 | 2026-08-31 02:07:49 | 48.75671 | 13.75460 | 42° | 15km/h | 1964m | -2.2m/s | 11.8°C | 84.5% | 809.2hPa | 2.7V | 00:00:00 | 03:38:30 | 00:00:00 | |
| OE5DRO-10 | 2026-08-31 02:07:47 | 48.75665 | 13.75452 | 43° | 16km/h | 1968m | -2.1m/s | 11.8°C | 84.9% | 808.7hPa | 2.7V | 00:00:00 | 00:00:00 | 00:00:00 | |
| OE5MMP-10 | 2026-08-31 02:07:47 | 48.75665 | 13.75452 | 43° | 16km/h | 1968m | -2.1m/s | 11.8°C | 84.9% | 808.7hPa | 2.7V | 00:00:00 | 03:38:28 | 00:00:00 | |
| OE5FHM-15 | 2026-08-31 02:07:45 | 48.75659 | 13.75444 | 43° | 16km/h | 1972m | -2.0m/s | 11.7°C | 85.2% | 808.4hPa | 2.7V | 00:00:00 | 03:38:26 | 00:00:00 | |
| DO3MHA-11 | 2026-08-31 02:07:44 | 48.75656 | 13.75440 | 45° | 16km/h | 1974m | -2.0m/s | 11.7°C | 84.7% | 808.1hPa | 2.7V | 06:56:00 | 03:38:25 | 00:00:00 | |
| OE5MMP-10 | 2026-08-31 02:07:42 | 48.75650 | 13.75430 | 45° | 16km/h | 1979m | -2.1m/s | 11.7°C | 85.4% | 807.8hPa | 2.7V | 00:00:00 | 03:38:23 | 00:00:00 | |
| OE5DRO-10 | 2026-08-31 02:07:40 | 48.75644 | 13.75421 | 45° | 16km/h | 1983m | -2.1m/s | 11.6°C | 85.5% | 807.4hPa | 2.7V | 06:56:00 | 00:00:00 | 00:00:00 | |
| OE5DXL-15 | 2026-08-31 02:07:39 | 48.75641 | 13.75417 | 44° | 15km/h | 1985m | -1.9m/s | 11.6°C | 85.8% | 807.2hPa | 2.7V | 00:00:00 | 00:00:00 | 00:00:00 | |
| DO3MHA-11 | 2026-08-31 02:07:39 | 48.75641 | 13.75417 | 44° | 16km/h | 1985m | -1.9m/s | 11.6°C | 85.8% | 807.2hPa | 2.7V | 00:00:00 | 03:38:20 | 00:00:00 | |
| OE5MMP-10 | 2026-08-31 02:07:37 | 48.75635 | 13.75408 | 43° | 15km/h | 1989m | -2.0m/s | 11.6°C | 85.7% | 806.7hPa | 2.7V | 00:00:00 | 03:38:18 | 00:00:00 | |
| OE5FHM-15 | 2026-08-31 02:07:35 | 48.75629 | 13.75401 | 40° | 13km/h | 1993m | -1.9m/s | 11.5°C | 86.1% | 806.3hPa | 2.7V | 00:00:00 | 03:38:16 | 00:00:00 | |
| DO3MHA-11 | 2026-08-31 02:07:34 | 48.75627 | 13.75397 | 37° | 13km/h | 1995m | -2.0m/s | 11.5°C | 86.5% | 806.1hPa | 2.7V | 00:00:00 | 03:38:15 | 00:00:00 | |
| OE5DRO-10 | 2026-08-31 02:07:33 | 48.75624 | 13.75395 | 34° | 13km/h | 1997m | -1.9m/s | 11.5°C | 86.4% | 805.9hPa | 2.7V | 00:00:00 | 00:00:00 | 00:00:00 | |
| OE5MMP-10 | 2026-08-31 02:07:32 | 48.75621 | 13.75392 | 31° | 13km/h | 1999m | -2.1m/s | 11.5°C | 86.8% | 805.7hPa | 2.7V | 06:57:00 | 03:38:13 | 00:00:00 | |
| DO3MHA-11 | 2026-08-31 02:07:29 | 48.75612 | 13.75386 | 18° | 13km/h | 2006m | -2.2m/s | 11.5°C | 86.9% | 805.1hPa | 2.7V | 00:00:00 | 03:38:10 | 00:00:00 | |
| OE5MMP-10 | 2026-08-31 02:07:26 | 48.75602 | 13.75382 | 10° | 15km/h | 2012m | -2.0m/s | 11.4°C | 87.1% | 804.5hPa | 2.7V | 00:00:00 | 03:38:07 | 00:00:00 | |
| OE5FHM-15 | 2026-08-31 02:07:25 | 48.75599 | 13.75381 | 10° | 15km/h | 2014m | -2.0m/s | 11.4°C | 87.1% | 804.3hPa | 2.7V | 00:00:00 | 03:38:06 | 00:00:00 | |
| DO3MHA-11 | 2026-08-31 02:07:24 | 48.75595 | 13.75380 | 9° | 15km/h | 2016m | -2.1m/s | 11.4°C | 87.3% | 804.2hPa | 2.7V | 00:00:00 | 03:38:05 | 00:00:00 | |
| DO3MHA-11 | 2026-08-31 02:07:19 | 48.75577 | 13.75378 | 3° | 16km/h | 2027m | -2.1m/s | 11.3°C | 87.6% | 803.2hPa | 2.7V | 00:00:00 | 03:38:00 | 00:00:00 | |
| OE5MMP-10 | 2026-08-31 02:07:16 | 48.75565 | 13.75377 | 360° | 16km/h | 2033m | -2.1m/s | 11.2°C | 87.8% | 802.6hPa | 2.7V | 00:00:00 | 03:37:57 | 00:00:00 | |
| DO3MHA-11 | 2026-08-31 02:07:14 | 48.75557 | 13.75377 | 2° | 16km/h | 2037m | -1.9m/s | 11.2°C | 87.8% | 802.0hPa | 2.7V | 00:00:00 | 03:37:55 | 00:00:00 | |
| OE5DRO-10 | 2026-08-31 02:07:12 | 48.75549 | 13.75377 | 1° | 16km/h | 2041m | -2.0m/s | 11.2°C | 87.9% | 801.8hPa | 2.7V | 00:00:00 | 00:00:00 | 00:00:00 | |
| DO3MHA-11 | 2026-08-31 02:07:09 | 48.75536 | 13.75377 | 360° | 16km/h | 2047m | -2.0m/s | 11.2°C | 87.4% | 801.1hPa | 2.7V | 06:57:00 | 03:37:50 | 00:00:00 | |
| OE5MMP-10 | 2026-08-31 02:07:06 | 48.75524 | 13.75377 | 359° | 16km/h | 2053m | -2.0m/s | 11.1°C | 87.1% | 800.5hPa | 2.7V | 00:00:00 | 03:37:47 | 00:00:00 | |
| OE5FHM-15 | 2026-08-31 02:07:05 | 48.75519 | 13.75377 | 358° | 16km/h | 2055m | -2.0m/s | 11.1°C | 87.2% | 800.4hPa | 2.7V | 00:00:00 | 03:37:46 | 00:00:00 | |
| DO3MHA-11 | 2026-08-31 02:07:04 | 48.75515 | 13.75378 | 359° | 16km/h | 2057m | -2.0m/s | 11.1°C | 87.0% | 800.2hPa | 2.7V | 00:00:00 | 03:37:45 | 00:00:00 | |
| OE5DXL-15 | 2026-08-31 02:06:59 | 48.75494 | 13.75379 | 359° | 18km/h | 2067m | -1.9m/s | 11.1°C | 85.7% | 799.3hPa | 2.7V | 00:00:00 | 00:00:00 | 00:00:00 | |
| OE5DRO-10 | 2026-08-31 02:06:58 | 48.75490 | 13.75379 | 359° | 16km/h | 2069m | -2.0m/s | 11.1°C | 85.4% | 799.0hPa | 2.7V | 00:00:00 | 00:00:00 | 00:00:00 | |
| OE5MMP-10 | 2026-08-31 02:06:56 | 48.75482 | 13.75379 | 359° | 16km/h | 2073m | -1.9m/s | 11.0°C | 85.1% | 798.8hPa | 2.7V | 00:00:00 | 03:37:37 | 00:00:00 | |
| DO3MHA-11 | 2026-08-31 02:06:54 | 48.75473 | 13.75379 | 360° | 16km/h | 2077m | -2.0m/s | 11.0°C | 85.1% | 798.2hPa | 2.7V | 00:00:00 | 03:37:35 | 00:00:00 | |
| OE5DRO-10 | 2026-08-31 02:06:51 | 48.75461 | 13.75380 | 359° | 16km/h | 2083m | -2.0m/s | 11.0°C | 84.9% | 797.8hPa | 2.7V | 06:57:00 | 00:00:00 | 00:00:00 | |
| DO3MHA-11 | 2026-08-31 02:06:49 | 48.75453 | 13.75380 | 358° | 18km/h | 2087m | -1.9m/s | 11.0°C | 84.4% | 797.4hPa | 2.7V | 00:00:00 | 03:37:30 | 00:00:00 | |
| OE5MMP-10 | 2026-08-31 02:06:46 | 48.75440 | 13.75382 | 355° | 20km/h | 2093m | -1.9m/s | 10.9°C | 84.6% | 796.8hPa | 2.7V | 00:00:00 | 03:37:27 | 00:00:00 | |
| OE5FHM-15 | 2026-08-31 02:06:45 | 48.75435 | 13.75382 | 355° | 24km/h | 2096m | -2.1m/s | 10.9°C | 84.7% | 796.7hPa | 2.7V | 00:00:00 | 03:37:26 | 00:00:00 | |
| DO3MHA-11 | 2026-08-31 02:06:44 | 48.75430 | 13.75383 | 355° | 20km/h | 2097m | -2.0m/s | 10.9°C | 84.5% | 796.4hPa | 2.7V | 00:00:00 | 03:37:25 | 00:00:00 | |
| DO3MHA-11 | 2026-08-31 02:06:39 | 48.75404 | 13.75388 | 354° | 24km/h | 2107m | -2.0m/s | 10.8°C | 84.9% | 795.4hPa | 2.7V | 00:00:00 | 03:37:20 | 00:00:00 | |
| OE5DRO-10 | 2026-08-31 02:06:37 | 48.75393 | 13.75389 | 355° | 26km/h | 2112m | -1.9m/s | 10.8°C | 84.7% | 795.1hPa | 2.7V | 00:00:00 | 00:00:00 | 00:00:00 | |
| OE5MMP-10 | 2026-08-31 02:06:36 | 48.75387 | 13.75390 | 355° | 26km/h | 2113m | -2.0m/s | 10.8°C | 84.8% | 794.9hPa | 2.7V | 00:00:00 | 03:37:17 | 00:00:00 | |
| DO3MHA-11 | 2026-08-31 02:06:34 | 48.75375 | 13.75392 | 356° | 26km/h | 2118m | -2.0m/s | 10.7°C | 84.9% | 794.4hPa | 2.7V | 06:58:00 | 03:37:15 | 00:00:00 | |
| OE5DRO-10 | 2026-08-31 02:06:30 | 48.75349 | 13.75395 | 358° | 27km/h | 2126m | -1.9m/s | 10.7°C | 84.8% | 793.7hPa | 2.7V | 00:00:00 | 00:00:00 | 00:00:00 | |
| DO3MHA-11 | 2026-08-31 02:06:29 | 48.75342 | 13.75395 | 360° | 29km/h | 2128m | -2.0m/s | 10.7°C | 84.8% | 793.5hPa | 2.7V | 00:00:00 | 03:37:10 | 00:00:00 | |
| OE5MMP-10 | 2026-08-31 02:06:26 | 48.75321 | 13.75393 | 7° | 29km/h | 2134m | -2.0m/s | 10.7°C | 85.1% | 792.9hPa | 2.7V | 06:58:00 | 03:37:07 | 00:00:00 | |
| OE5FHM-15 | 2026-08-31 02:06:25 | 48.75313 | 13.75392 | 10° | 29km/h | 2136m | -2.0m/s | 10.6°C | 85.1% | 792.7hPa | 2.7V | 00:00:00 | 03:37:06 | 00:00:00 | |
| DO3MHA-11 | 2026-08-31 02:06:24 | 48.75306 | 13.75390 | 13° | 29km/h | 2138m | -2.0m/s | 10.6°C | 85.1% | 792.4hPa | 2.7V | 00:00:00 | 03:37:05 | 00:00:00 | |
| OE5DRO-10 | 2026-08-31 02:06:23 | 48.75299 | 13.75387 | 15° | 29km/h | 2140m | -2.1m/s | 10.6°C | 85.0% | 792.2hPa | 2.7V | 00:00:00 | 00:00:00 | 00:00:00 | |
| DO3MHA-11 | 2026-08-31 02:06:19 | 48.75270 | 13.75373 | 20° | 29km/h | 2149m | -2.1m/s | 10.5°C | 85.2% | 791.5hPa | 2.7V | 00:00:00 | 03:37:00 | 00:00:00 | |
| OE5MMP-10 | 2026-08-31 02:06:16 | 48.75248 | 13.75361 | 22° | 29km/h | 2156m | -2.1m/s | 10.5°C | 85.6% | 790.8hPa | 2.7V | 00:00:00 | 03:36:57 | 00:00:00 | |
| DO3MHA-11 | 2026-08-31 02:06:14 | 48.75234 | 13.75353 | 21° | 29km/h | 2160m | -2.0m/s | 10.4°C | 85.6% | 790.4hPa | 2.7V | 00:00:00 | 03:36:55 | 00:00:00 | |
| DO3MHA-11 | 2026-08-31 02:06:09 | 48.75200 | 13.75330 | 27° | 27km/h | 2170m | -2.1m/s | 10.4°C | 85.7% | 789.5hPa | 2.7V | 00:00:00 | 03:36:50 | 00:00:00 | |
| OE5MMP-10 | 2026-08-31 02:06:06 | 48.75182 | 13.75315 | 34° | 24km/h | 2177m | -2.1m/s | 10.3°C | 86.1% | 788.9hPa | 2.7V | 00:00:00 | 03:36:47 | 00:00:00 | |
| OE5FHM-15 | 2026-08-31 02:06:05 | 48.75176 | 13.75310 | 34° | 24km/h | 2179m | -2.1m/s | 10.3°C | 85.9% | 788.6hPa | 2.7V | 06:58:00 | 03:36:46 | 00:00:00 | |
| DO3MHA-11 | 2026-08-31 02:06:04 | 48.75171 | 13.75305 | 34° | 24km/h | 2181m | -2.1m/s | 10.3°C | 86.0% | 788.4hPa | 2.7V | 00:00:00 | 03:36:45 | 00:00:00 | |
| OE5DRO-10 | 2026-08-31 02:06:02 | 48.75162 | 13.75295 | 36° | 24km/h | 2185m | -2.1m/s | 10.3°C | 86.2% | 787.9hPa | 2.7V | 06:58:00 | 00:00:00 | 00:00:00 | |
| DO3MHA-11 | 2026-08-31 02:05:59 | 48.75147 | 13.75279 | 37° | 24km/h | 2192m | -2.2m/s | 10.3°C | 85.9% | 787.3hPa | 2.7V | 06:58:00 | 03:36:40 | 00:00:00 | |
| OE5MMP-10 | 2026-08-31 02:05:56 | 48.75133 | 13.75263 | 38° | 26km/h | 2200m | -2.3m/s | 10.2°C | 86.1% | 786.6hPa | 2.7V | 00:00:00 | 03:36:37 | 00:00:00 | |
| OE5DRO-10 | 2026-08-31 02:05:55 | 48.75128 | 13.75257 | 39° | 26km/h | 2202m | -2.2m/s | 10.2°C | 86.3% | 786.5hPa | 2.7V | 00:00:00 | 00:00:00 | 00:00:00 | |
| DO3MHA-11 | 2026-08-31 02:05:54 | 48.75123 | 13.75251 | 39° | 26km/h | 2204m | -2.2m/s | 10.2°C | 86.2% | 786.3hPa | 2.7V | 00:00:00 | 03:36:35 | 00:00:00 | |
| DO3MHA-11 | 2026-08-31 02:05:49 | 48.75099 | 13.75221 | 40° | 26km/h | 2216m | -2.2m/s | 10.3°C | 85.1% | 785.2hPa | 2.7V | 00:00:00 | 03:36:30 | 00:00:00 | |
| OE5DRO-10 | 2026-08-31 02:05:48 | 48.75094 | 13.75216 | 40° | 26km/h | 2218m | -2.2m/s | 10.4°C | 84.6% | 784.8hPa | 2.7V | 00:00:00 | 00:00:00 | 00:00:00 | |
| OE5MMP-10 | 2026-08-31 02:05:46 | 48.75084 | 13.75203 | 40° | 26km/h | 2223m | -2.2m/s | 10.5°C | 84.2% | 784.5hPa | 2.7V | 00:00:00 | 03:36:27 | 00:00:00 | |
| OE5FHM-15 | 2026-08-31 02:05:45 | 48.75079 | 13.75197 | 40° | 26km/h | 2225m | -2.3m/s | 10.5°C | 84.1% | 784.3hPa | 2.7V | 00:00:00 | 03:36:26 | 00:00:00 | |
| DO3MHA-11 | 2026-08-31 02:05:44 | 48.75074 | 13.75191 | 40° | 26km/h | 2227m | -2.2m/s | 10.6°C | 83.7% | 784.1hPa | 2.7V | 00:00:00 | 03:36:25 | 00:00:00 | |
| OE5DRO-10 | 2026-08-31 02:05:41 | 48.75059 | 13.75172 | 41° | 26km/h | 2234m | -2.1m/s | 10.6°C | 82.8% | 783.4hPa | 2.7V | 00:00:00 | 00:00:00 | 00:00:00 | |
| DO3MHA-11 | 2026-08-31 02:05:39 | 48.75049 | 13.75159 | 41° | 26km/h | 2238m | -2.0m/s | 10.6°C | 82.3% | 783.0hPa | 2.7V | 00:00:00 | 03:36:20 | 00:00:00 | |
| OE5MMP-10 | 2026-08-31 02:05:36 | 48.75034 | 13.75139 | 42° | 27km/h | 2245m | -2.0m/s | 10.6°C | 81.9% | 782.4hPa | 2.7V | 00:00:00 | 03:36:17 | 00:00:00 | |
| DO3MHA-11 | 2026-08-31 02:05:34 | 48.75024 | 13.75125 | 42° | 27km/h | 2249m | -2.1m/s | 10.6°C | 81.2% | 782.0hPa | 2.7V | 00:00:00 | 03:36:15 | 00:00:00 | |
| DO3MHA-11 | 2026-08-31 02:05:29 | 48.74998 | 13.75090 | 43° | 27km/h | 2260m | -2.2m/s | 10.6°C | 79.5% | 781.0hPa | 2.7V | 00:00:00 | 03:36:10 | 00:00:00 | |
| OE5DRO-10 | 2026-08-31 02:05:27 | 48.74987 | 13.75077 | 41° | 27km/h | 2264m | -2.3m/s | 10.6°C | 79.6% | 780.6hPa | 2.7V | 00:00:00 | 00:00:00 | 00:00:00 | |
| OE5MMP-10 | 2026-08-31 02:05:26 | 48.74982 | 13.75069 | 42° | 29km/h | 2267m | -2.1m/s | 10.6°C | 79.3% | 780.3hPa | 2.7V | 00:00:00 | 03:36:07 | 00:00:00 | |
| OE5FHM-15 | 2026-08-31 02:05:25 | 48.74977 | 13.75062 | 42° | 24km/h | 2269m | -2.1m/s | 10.6°C | 77.7% | 780.1hPa | 2.7V | 00:00:00 | 03:36:06 | 00:00:00 | |
| DO3MHA-11 | 2026-08-31 02:05:24 | 48.74971 | 13.75055 | 43° | 29km/h | 2271m | -2.1m/s | 10.6°C | 77.0% | 780.1hPa | 2.7V | 06:59:00 | 03:36:05 | 00:00:00 | |
| OE3JTB-15 | 2026-08-31 02:05:22 | 48.74960 | 13.75040 | 43° | 29km/h | 2275m | -2.3m/s | 10.6°C | 77.1% | 779.5hPa | 2.7V | 00:00:00 | 00:00:00 | 00:00:00 | |
| OE5DRO-10 | 2026-08-31 02:05:20 | 48.74950 | 13.75026 | 42° | 29km/h | 2280m | -2.1m/s | 10.6°C | 76.2% | 779.1hPa | 2.7V | 00:00:00 | 00:00:00 | 00:00:00 | |
| DO3MHA-11 | 2026-08-31 02:05:19 | 48.74945 | 13.75019 | 42° | 29km/h | 2282m | -2.2m/s | 10.5°C | 76.9% | 778.9hPa | 2.7V | 00:00:00 | 03:36:00 | 00:00:00 | |
| OE5MMP-10 | 2026-08-31 02:05:16 | 48.74928 | 13.74997 | 41° | 27km/h | 2289m | -2.1m/s | 10.5°C | 76.7% | 778.3hPa | 2.7V | 06:59:00 | 03:35:57 | 00:00:00 | |
| DO3MHA-11 | 2026-08-31 02:05:14 | 48.74917 | 13.74982 | 43° | 29km/h | 2293m | -2.1m/s | 10.5°C | 75.6% | 777.9hPa | 2.7V | 00:00:00 | 03:35:55 | 00:00:00 | |
| OE5DRO-10 | 2026-08-31 02:05:13 | 48.74912 | 13.74975 | 43° | 27km/h | 2295m | -2.3m/s | 10.5°C | 75.4% | 777.7hPa | 2.7V | 06:59:00 | 00:00:00 | 00:00:00 | |
| DO3MHA-11 | 2026-08-31 02:05:09 | 48.74892 | 13.74945 | 48° | 27km/h | 2304m | -2.0m/s | 10.6°C | 72.1% | 776.8hPa | 2.7V | 00:00:00 | 03:35:50 | 00:00:00 | |
| OE5MMP-10 | 2026-08-31 02:05:06 | 48.74878 | 13.74921 | 52° | 26km/h | 2311m | -2.3m/s | 10.5°C | 71.9% | 776.2hPa | 2.7V | 00:00:00 | 03:35:47 | 00:00:00 | |
| DO3MHA-11 | 2026-08-31 02:05:04 | 48.74870 | 13.74905 | 51° | 26km/h | 2316m | -2.3m/s | 10.5°C | 72.1% | 775.6hPa | 2.7V | 00:00:00 | 03:35:45 | 00:00:00 | |
| DO3MHA-11 | 2026-08-31 02:04:59 | 48.74849 | 13.74866 | 55° | 26km/h | 2327m | -2.3m/s | 10.4°C | 71.0% | 774.7hPa | 2.7V | 00:00:00 | 03:35:40 | 00:00:00 | |
| OE5MMP-10 | 2026-08-31 02:04:56 | 48.74838 | 13.74842 | 57° | 22km/h | 2334m | -2.1m/s | 10.4°C | 69.8% | 774.1hPa | 2.7V | 00:00:00 | 03:35:37 | 00:00:00 | |
| DO3MHA-11 | 2026-08-31 02:04:54 | 48.74832 | 13.74826 | 58° | 22km/h | 2339m | -2.1m/s | 10.3°C | 70.1% | 773.6hPa | 2.7V | 00:00:00 | 03:35:35 | 00:00:00 | |
| OE3JTB-15 | 2026-08-31 02:04:52 | 48.74825 | 13.74811 | 60° | 18km/h | 2344m | -2.3m/s | 10.3°C | 69.7% | 773.2hPa | 2.7V | 00:00:00 | 03:35:33 | 00:00:00 | |
| DO3MHA-11 | 2026-08-31 02:04:49 | 48.74818 | 13.74789 | 61° | 18km/h | 2351m | -2.3m/s | 10.3°C | 69.3% | 772.6hPa | 2.7V | 06:59:00 | 03:35:30 | 00:00:00 | |
| OE5MMP-10 | 2026-08-31 02:04:46 | 48.74810 | 13.74771 | 58° | 18km/h | 2357m | -2.2m/s | 10.2°C | 69.6% | 771.9hPa | 2.7V | 00:00:00 | 03:35:27 | 00:00:00 | |
| OE5DRO-10 | 2026-08-31 02:04:45 | 48.74808 | 13.74765 | 58° | 18km/h | 2359m | -2.3m/s | 10.2°C | 70.0% | 771.8hPa | 2.7V | 00:00:00 | 00:00:00 | 00:00:00 | |
| DO3MHA-11 | 2026-08-31 02:04:44 | 48.74805 | 13.74759 | 58° | 18km/h | 2362m | -2.4m/s | 10.2°C | 69.7% | 771.6hPa | 2.7V | 00:00:00 | 03:35:25 | 00:00:00 | |
| OE5FHM-15 | 2026-08-31 02:04:42 | 48.74800 | 13.74747 | 58° | 16km/h | 2366m | -2.1m/s | 10.2°C | 69.3% | 771.2hPa | 2.7V | 00:00:00 | 03:35:23 | 00:00:00 | |
| DO3MHA-11 | 2026-08-31 02:04:39 | 48.74793 | 13.74730 | 60° | 18km/h | 2373m | -2.2m/s | 10.2°C | 65.1% | 770.6hPa | 2.7V | 00:00:00 | 03:35:20 | 00:00:00 | |
| OE5DRO-10 | 2026-08-31 02:04:38 | 48.74791 | 13.74723 | 61° | 16km/h | 2375m | -2.2m/s | 10.1°C | 66.0% | 770.2hPa | 2.7V | 00:00:00 | 00:00:00 | 00:00:00 | |
| OE5MMP-10 | 2026-08-31 02:04:36 | 48.74787 | 13.74712 | 60° | 16km/h | 2380m | -2.3m/s | 10.1°C | 62.6% | 769.8hPa | 2.7V | 00:00:00 | 03:35:17 | 00:00:00 | |
| DO3MHA-11 | 2026-08-31 02:04:34 | 48.74782 | 13.74701 | 61° | 18km/h | 2385m | -2.4m/s | 10.1°C | 62.8% | 769.4hPa | 2.7V | 07:00:00 | 03:35:15 | 00:00:00 | |
| OE5DRO-10 | 2026-08-31 02:04:31 | 48.74776 | 13.74683 | 62° | 16km/h | 2392m | -2.3m/s | 10.0°C | 62.4% | 768.8hPa | 2.7V | 00:00:00 | 00:00:00 | 00:00:00 | |
| DO3MHA-11 | 2026-08-31 02:04:29 | 48.74772 | 13.74671 | 61° | 16km/h | 2396m | -2.3m/s | 10.0°C | 63.4% | 768.2hPa | 2.7V | 00:00:00 | 03:35:10 | 00:00:00 | |
| OE5MMP-10 | 2026-08-31 02:04:26 | 48.74765 | 13.74655 | 58° | 15km/h | 2403m | -2.2m/s | 10.0°C | 63.5% | 767.7hPa | 2.7V | 00:00:00 | 03:35:07 | 00:00:00 | |
| DO3MHA-11 | 2026-08-31 02:04:24 | 48.74761 | 13.74645 | 55° | 15km/h | 2408m | -2.3m/s | 9.9°C | 61.8% | 767.2hPa | 2.7V | 00:00:00 | 03:35:05 | 00:00:00 | |
| OE5FHM-15 | 2026-08-31 02:04:22 | 48.74757 | 13.74636 | 52° | 15km/h | 2412m | -2.1m/s | 9.9°C | 61.8% | 766.9hPa | 2.7V | 00:00:00 | 03:35:03 | 00:00:00 | |
| DO3MHA-11 | 2026-08-31 02:04:19 | 48.74750 | 13.74625 | 43° | 13km/h | 2419m | -2.3m/s | 9.9°C | 61.4% | 766.2hPa | 2.7V | 00:00:00 | 03:35:00 | 00:00:00 | |
| OE5DRO-10 | 2026-08-31 02:04:17 | 48.74744 | 13.74619 | 32° | 15km/h | 2424m | -2.4m/s | 9.8°C | 61.0% | 765.8hPa | 2.7V | 00:00:00 | 00:00:00 | 00:00:00 | |
| OE5MMP-10 | 2026-08-31 02:04:16 | 48.74741 | 13.74616 | 29° | 15km/h | 2426m | -2.3m/s | 9.8°C | 61.2% | 765.6hPa | 2.7V | 07:00:00 | 03:34:57 | 00:00:00 | |
| DO3MHA-11 | 2026-08-31 02:04:14 | 48.74735 | 13.74612 | 24° | 15km/h | 2431m | -2.5m/s | 9.7°C | 61.7% | 765.0hPa | 2.7V | 00:00:00 | 03:34:55 | 00:00:00 | |
| OE5WHR-10 | 2026-08-31 02:04:12 | 48.74728 | 13.74607 | 23° | 16km/h | 2436m | -2.3m/s | 9.7°C | 61.3% | 764.7hPa | 2.7V | 00:00:00 | 00:00:00 | 00:00:00 | |
| OE5DRO-10 | 2026-08-31 02:04:10 | 48.74721 | 13.74603 | 20° | 16km/h | 2441m | -2.5m/s | 9.7°C | 59.5% | 764.3hPa | 2.7V | 00:00:00 | 00:00:00 | 00:00:00 | |
| DO3MHA-11 | 2026-08-31 02:04:09 | 48.74717 | 13.74601 | 20° | 16km/h | 2443m | -2.4m/s | 9.7°C | 60.2% | 764.1hPa | 2.7V | 00:00:00 | 03:34:50 | 00:00:00 | |
| OE5MMP-10 | 2026-08-31 02:04:06 | 48.74705 | 13.74595 | 19° | 18km/h | 2450m | -2.5m/s | 9.6°C | 60.3% | 763.3hPa | 2.7V | 00:00:00 | 03:34:47 | 00:00:00 | |
| OE3JTB-15 | 2026-08-31 02:04:05 | 48.74701 | 13.74592 | 20° | 18km/h | 2453m | -2.4m/s | 9.6°C | 59.8% | 763.2hPa | 2.7V | 00:00:00 | 00:00:00 | 00:00:00 | |
| DO3MHA-11 | 2026-08-31 02:04:04 | 48.74697 | 13.74590 | 20° | 18km/h | 2455m | -2.4m/s | 9.6°C | 59.5% | 762.9hPa | 2.7V | 00:00:00 | 03:34:45 | 00:00:00 | |
| OE5FHM-15 | 2026-08-31 02:04:02 | 48.74688 | 13.74586 | 19° | 24km/h | 2460m | -2.4m/s | 9.6°C | 59.3% | 762.4hPa | 2.7V | 00:00:00 | 03:34:43 | 00:00:00 | |
| DO3MHA-11 | 2026-08-31 02:03:59 | 48.74675 | 13.74579 | 19° | 20km/h | 2468m | -2.4m/s | 9.5°C | 58.1% | 761.8hPa | 2.7V | 00:00:00 | 03:34:40 | 00:00:00 | |
| OE5MMP-10 | 2026-08-31 02:03:56 | 48.74661 | 13.74572 | 21° | 24km/h | 2475m | -2.4m/s | 9.4°C | 58.0% | 761.1hPa | 2.7V | 00:00:00 | 03:34:37 | 00:00:00 | |
| DO3MHA-11 | 2026-08-31 02:03:54 | 48.74651 | 13.74566 | 23° | 24km/h | 2480m | -2.5m/s | 9.4°C | 58.3% | 760.7hPa | 2.7V | 07:00:00 | 03:34:35 | 00:00:00 | |
| OE3JTB-15 | 2026-08-31 02:03:52 | 48.74640 | 13.74558 | 27° | 27km/h | 2485m | -2.3m/s | 9.3°C | 58.5% | 760.2hPa | 2.7V | 00:00:00 | 03:34:33 | 00:00:00 | |
| DO3MHA-11 | 2026-08-31 02:03:49 | 48.74623 | 13.74544 | 32° | 27km/h | 2493m | -2.4m/s | 9.3°C | 58.9% | 759.4hPa | 2.7V | 00:00:00 | 03:34:30 | 00:00:00 | |
| OE5MMP-10 | 2026-08-31 02:03:46 | 48.74607 | 13.74527 | 36° | 27km/h | 2500m | -2.4m/s | 9.2°C | 58.6% | 758.8hPa | 2.7V | 00:00:00 | 03:34:27 | 00:00:00 | |
| DO3MHA-11 | 2026-08-31 02:03:44 | 48.74596 | 13.74515 | 38° | 27km/h | 2505m | -2.4m/s | 9.2°C | 57.1% | 758.4hPa | 2.7V | 00:00:00 | 03:34:25 | 00:00:00 | |
| OE5FHM-15 | 2026-08-31 02:03:42 | 48.74585 | 13.74502 | 38° | 27km/h | 2510m | -2.6m/s | 9.2°C | 56.2% | 757.9hPa | 2.7V | 00:00:00 | 03:34:23 | 00:00:00 | |
| DO3MHA-11 | 2026-08-31 02:03:39 | 48.74568 | 13.74482 | 37° | 27km/h | 2518m | -2.5m/s | 9.2°C | 55.8% | 757.2hPa | 2.7V | 00:00:00 | 03:34:20 | 00:00:00 | |
| OE5MMP-10 | 2026-08-31 02:03:36 | 48.74551 | 13.74464 | 36° | 27km/h | 2526m | -2.6m/s | 9.1°C | 54.8% | 756.5hPa | 2.7V | 00:00:00 | 03:34:17 | 00:00:00 | |
| OE5DRO-10 | 2026-08-31 02:03:35 | 48.74545 | 13.74458 | 36° | 27km/h | 2529m | -2.7m/s | 9.1°C | 54.6% | 756.2hPa | 2.7V | 00:00:00 | 00:00:00 | 00:00:00 | |
| DO3MHA-11 | 2026-08-31 02:03:34 | 48.74540 | 13.74451 | 36° | 27km/h | 2531m | -2.5m/s | 9.1°C | 53.6% | 756.0hPa | 2.7V | 00:00:00 | 03:34:15 | 00:00:00 | |
| DO3MHA-11 | 2026-08-31 02:03:29 | 48.74511 | 13.74421 | 37° | 27km/h | 2544m | -2.6m/s | 9.1°C | 51.0% | 754.8hPa | 2.7V | 00:00:00 | 03:34:10 | 00:00:00 | |
| OE5DRO-10 | 2026-08-31 02:03:28 | 48.74506 | 13.74414 | 38° | 27km/h | 2547m | -2.7m/s | 9.1°C | 50.8% | 754.5hPa | 2.7V | 00:00:00 | 00:00:00 | 00:00:00 | |
| OE5MMP-10 | 2026-08-31 02:03:26 | 48.74494 | 13.74401 | 38° | 27km/h | 2552m | -2.5m/s | 9.0°C | 51.2% | 754.0hPa | 2.7V | 00:00:00 | 03:34:07 | 00:00:00 | |
| OE5FHM-15 | 2026-08-31 02:03:22 | 48.74471 | 13.74375 | 37° | 29km/h | 2563m | -2.6m/s | 9.0°C | 49.5% | 753.1hPa | 2.7V | 00:00:00 | 03:34:03 | 00:00:00 | |
| OE5DRO-10 | 2026-08-31 02:03:21 | 48.74466 | 13.74369 | 37° | 27km/h | 2565m | -2.6m/s | 9.0°C | 49.4% | 752.8hPa | 2.7V | 00:00:00 | 00:00:00 | 00:00:00 | |
| DO3MHA-11 | 2026-08-31 02:03:19 | 48.74454 | 13.74356 | 37° | 27km/h | 2571m | -2.6m/s | 8.9°C | 48.8% | 752.3hPa | 2.7V | 00:00:00 | 03:34:00 | 00:00:00 | |
| OE5MMP-10 | 2026-08-31 02:03:16 | 48.74437 | 13.74336 | 36° | 29km/h | 2578m | -2.6m/s | 8.9°C | 48.8% | 751.7hPa | 2.7V | 00:00:00 | 03:33:57 | 00:00:00 | |
| DO3MHA-11 | 2026-08-31 02:03:14 | 48.74425 | 13.74324 | 37° | 29km/h | 2583m | -2.5m/s | 8.9°C | 48.7% | 751.1hPa | 2.7V | 07:01:00 | 03:33:55 | 00:00:00 | |
| DO3MHA-11 | 2026-08-31 02:03:09 | 48.74397 | 13.74290 | 41° | 29km/h | 2597m | -2.4m/s | 8.8°C | 48.8% | 750.0hPa | 2.7V | 00:00:00 | 03:33:50 | 00:00:00 | |
| OE5DRO-10 | 2026-08-31 02:03:07 | 48.74386 | 13.74276 | 42° | 29km/h | 2602m | -2.7m/s | 8.8°C | 49.1% | 749.5hPa | 2.7V | 07:01:00 | 00:00:00 | 00:00:00 | |
| OE5MMP-10 | 2026-08-31 02:03:06 | 48.74380 | 13.74268 | 42° | 29km/h | 2605m | -2.7m/s | 8.8°C | 49.0% | 749.3hPa | 2.7V | 00:00:00 | 03:33:47 | 00:00:00 | |
| DO3MHA-11 | 2026-08-31 02:03:04 | 48.74369 | 13.74253 | 42° | 29km/h | 2610m | -2.6m/s | 8.7°C | 49.2% | 748.8hPa | 2.7V | 00:00:00 | 03:33:45 | 00:00:00 | |
| OE5FHM-15 | 2026-08-31 02:03:02 | 48.74358 | 13.74239 | 41° | 31km/h | 2615m | -2.6m/s | 8.7°C | 48.9% | 748.3hPa | 2.7V | 07:01:00 | 03:33:43 | 00:00:00 | |
| OE5DRO-10 | 2026-08-31 02:03:00 | 48.74347 | 13.74224 | 41° | 29km/h | 2621m | -2.7m/s | 8.6°C | 49.1% | 747.8hPa | 2.7V | 00:00:00 | 00:00:00 | 00:00:00 | |
| DO3MHA-11 | 2026-08-31 02:02:59 | 48.74342 | 13.74217 | 41° | 29km/h | 2623m | -2.6m/s | 8.6°C | 48.8% | 747.5hPa | 2.7V | 00:00:00 | 03:33:40 | 00:00:00 | |
| OE5MMP-10 | 2026-08-31 02:02:56 | 48.74325 | 13.74195 | 41° | 27km/h | 2631m | -2.5m/s | 8.6°C | 47.3% | 746.8hPa | 2.7V | 07:01:00 | 03:33:37 | 00:00:00 | |
| DO3MHA-11 | 2026-08-31 02:02:54 | 48.74314 | 13.74182 | 40° | 27km/h | 2636m | -2.6m/s | 8.6°C | 46.8% | 746.4hPa | 2.7V | 00:00:00 | 03:33:35 | 00:00:00 | |
| OE5DRO-10 | 2026-08-31 02:02:53 | 48.74308 | 13.74175 | 40° | 27km/h | 2639m | -2.6m/s | 8.6°C | 46.8% | 746.1hPa | 2.7V | 00:00:00 | 00:00:00 | 00:00:00 | |
| DO3MHA-11 | 2026-08-31 02:02:49 | 48.74286 | 13.74148 | 38° | 27km/h | 2650m | -2.6m/s | 8.5°C | 45.9% | 745.2hPa | 2.7V | 00:00:00 | 03:33:30 | 00:00:00 | |
| OE5MMP-10 | 2026-08-31 02:02:46 | 48.74270 | 13.74129 | 36° | 27km/h | 2658m | -2.7m/s | 8.5°C | 44.2% | 744.6hPa | 2.7V | 00:00:00 | 03:33:27 | 00:00:00 | |
| DO3MHA-11 | 2026-08-31 02:02:44 | 48.74259 | 13.74118 | 35° | 26km/h | 2663m | -2.7m/s | 8.4°C | 43.6% | 744.0hPa | 2.7V | 00:00:00 | 03:33:25 | 00:00:00 | |
| DO3MHA-11 | 2026-08-31 02:02:39 | 48.74231 | 13.74089 | 34° | 27km/h | 2677m | -2.7m/s | 8.3°C | 45.4% | 742.8hPa | 2.7V | 00:00:00 | 03:33:20 | 00:00:00 | |
| OE5WHR-10 | 2026-08-31 02:02:37 | 48.74220 | 13.74078 | 35° | 27km/h | 2682m | -2.6m/s | 8.3°C | 44.9% | 742.1hPa | 2.7V | 00:00:00 | 03:33:18 | 00:00:00 | |
| OE5MMP-10 | 2026-08-31 02:02:36 | 48.74214 | 13.74072 | 36° | 29km/h | 2685m | -2.8m/s | 8.3°C | 44.7% | 742.1hPa | 2.7V | 00:00:00 | 03:33:17 | 00:00:00 | |
| OE3JTB-15 | 2026-08-31 02:02:35 | 48.74208 | 13.74066 | 37° | 29km/h | 2688m | -2.7m/s | 8.3°C | 44.5% | 741.8hPa | 2.7V | 00:00:00 | 00:00:00 | 00:00:00 | |
| DO3MHA-11 | 2026-08-31 02:02:34 | 48.74203 | 13.74059 | 38° | 29km/h | 2690m | -2.7m/s | 8.3°C | 45.5% | 741.5hPa | 2.7V | 07:02:00 | 03:33:15 | 00:00:00 | |
| OE5DRO-10 | 2026-08-31 02:02:32 | 48.74191 | 13.74046 | 39° | 29km/h | 2696m | -2.8m/s | 8.2°C | 46.3% | 741.0hPa | 2.7V | 00:00:00 | 00:00:00 | 00:00:00 | |
| OE5WHR-10 | 2026-08-31 02:02:31 | 48.74186 | 13.74039 | 40° | 29km/h | 2699m | -2.7m/s | 8.2°C | 46.4% | 740.8hPa | 2.7V | 00:00:00 | 00:00:00 | 00:00:00 | |
| DO3MHA-11 | 2026-08-31 02:02:29 | 48.74174 | 13.74024 | 41° | 31km/h | 2704m | -2.7m/s | 8.2°C | 46.4% | 740.3hPa | 2.7V | 00:00:00 | 03:33:10 | 00:00:00 | |
| OE5MMP-10 | 2026-08-31 02:02:26 | 48.74157 | 13.74001 | 43° | 31km/h | 2712m | -2.7m/s | 8.1°C | 45.1% | 739.6hPa | 2.7V | 00:00:00 | 03:33:07 | 00:00:00 | |
| OE5WHR-10 | 2026-08-31 02:02:25 | 48.74151 | 13.73993 | 44° | 31km/h | 2715m | -2.7m/s | 8.2°C | 44.5% | 739.3hPa | 2.7V | 07:02:00 | 00:00:00 | 00:00:00 | |
| DO3MHA-11 | 2026-08-31 02:02:24 | 48.74145 | 13.73985 | 45° | 31km/h | 2718m | -2.7m/s | 8.1°C | 43.8% | 739.1hPa | 2.7V | 00:00:00 | 03:33:05 | 00:00:00 | |
| OE3JTB-15 | 2026-08-31 02:02:22 | 48.74134 | 13.73969 | 47° | 31km/h | 2723m | -2.7m/s | 8.1°C | 42.5% | 738.6hPa | 2.7V | 00:00:00 | 00:00:00 | 00:00:00 | |
| OE5DXL-15 | 2026-08-31 02:02:19 | 48.74119 | 13.73941 | 51° | 31km/h | 2731m | -2.6m/s | 8.1°C | 42.3% | 737.9hPa | 2.7V | 00:00:00 | 00:00:00 | 00:00:00 | |
| OE5DRO-10 | 2026-08-31 02:02:18 | 48.74114 | 13.73932 | 52° | 31km/h | 2734m | -2.8m/s | 8.1°C | 42.2% | 737.7hPa | 2.7V | 00:00:00 | 00:00:00 | 00:00:00 | |
| OE5MMP-10 | 2026-08-31 02:02:16 | 48.74104 | 13.73912 | 54° | 31km/h | 2740m | -2.6m/s | 8.0°C | 42.1% | 737.1hPa | 2.7V | 00:00:00 | 03:32:57 | 00:00:00 | |
| DO3MHA-11 | 2026-08-31 02:02:14 | 48.74094 | 13.73893 | 54° | 33km/h | 2745m | -2.7m/s | 8.1°C | 43.2% | 736.8hPa | 2.7V | 00:00:00 | 03:32:55 | 00:00:00 | |
| OE3JTB-15 | 2026-08-31 02:02:12 | 48.74085 | 13.73873 | 56° | 29km/h | 2751m | -2.6m/s | 8.0°C | 46.6% | 736.1hPa | 2.7V | 00:00:00 | 03:32:53 | 00:00:00 | |
| DO3MHA-11 | 2026-08-31 02:02:09 | 48.74072 | 13.73842 | 60° | 31km/h | 2758m | -2.6m/s | 8.0°C | 47.3% | 735.4hPa | 2.7V | 00:00:00 | 03:32:50 | 00:00:00 | |
| OE5WHR-10 | 2026-08-31 02:02:07 | 48.74064 | 13.73821 | 64° | 29km/h | 2764m | -2.8m/s | 7.9°C | 47.5% | 734.9hPa | 2.7V | 00:00:00 | 00:00:00 | 00:00:00 | |
| OE5MMP-10 | 2026-08-31 02:02:06 | 48.74061 | 13.73810 | 64° | 31km/h | 2767m | -2.7m/s | 7.9°C | 47.8% | 734.6hPa | 2.7V | 00:00:00 | 03:32:47 | 00:00:00 | |
| DO3MHA-11 | 2026-08-31 02:02:04 | 48.74054 | 13.73789 | 66° | 31km/h | 2772m | -2.8m/s | 7.9°C | 48.5% | 734.2hPa | 2.7V | 00:00:00 | 03:32:45 | 00:00:00 | |
| OE5FHM-15 | 2026-08-31 02:02:02 | 48.74048 | 13.73768 | 66° | 29km/h | 2778m | -2.7m/s | 7.8°C | 48.9% | 733.7hPa | 2.7V | 00:00:00 | 03:32:43 | 00:00:00 | |
| DO3MHA-11 | 2026-08-31 02:01:59 | 48.74038 | 13.73736 | 67° | 29km/h | 2786m | -2.6m/s | 7.8°C | 49.4% | 733.0hPa | 2.7V | 00:00:00 | 03:32:40 | 00:00:00 | |
| OE5MMP-10 | 2026-08-31 02:01:56 | 48.74030 | 13.73704 | 71° | 27km/h | 2794m | -2.7m/s | 7.7°C | 49.9% | 732.2hPa | 2.7V | 00:00:00 | 03:32:37 | 00:00:00 | |
| DO3MHA-11 | 2026-08-31 02:01:54 | 48.74025 | 13.73683 | 72° | 27km/h | 2800m | -2.7m/s | 7.6°C | 50.3% | 731.9hPa | 2.7V | 07:02:00 | 03:32:35 | 00:00:00 | |
| OE3JTB-15 | 2026-08-31 02:01:51 | 48.74019 | 13.73653 | 75° | 29km/h | 2808m | -2.5m/s | 7.6°C | 51.0% | 731.0hPa | 2.7V | 00:00:00 | 00:00:00 | 00:00:00 | |
| OE5DXL-15 | 2026-08-31 02:01:50 | 48.74018 | 13.73643 | 75° | 29km/h | 2810m | -2.7m/s | 7.5°C | 51.5% | 730.7hPa | 2.7V | 07:02:00 | 00:00:00 | 00:00:00 | |
| DO3MHA-11 | 2026-08-31 02:01:49 | 48.74016 | 13.73633 | 74° | 27km/h | 2813m | -2.5m/s | 7.5°C | 51.3% | 730.5hPa | 2.7V | 00:00:00 | 03:32:30 | 00:00:00 | |
| OE5DRO-10 | 2026-08-31 02:01:48 | 48.74014 | 13.73623 | 75° | 29km/h | 2815m | -2.8m/s | 7.5°C | 51.5% | 730.4hPa | 2.7V | 00:00:00 | 00:00:00 | 00:00:00 | |
| OE5MMP-10 | 2026-08-31 02:01:46 | 48.74010 | 13.73602 | 74° | 29km/h | 2821m | -2.8m/s | 7.4°C | 51.5% | 729.9hPa | 2.7V | 00:00:00 | 03:32:27 | 00:00:00 | |
| DO3MHA-11 | 2026-08-31 02:01:44 | 48.74006 | 13.73581 | 75° | 29km/h | 2827m | -2.6m/s | 7.4°C | 52.4% | 729.3hPa | 2.7V | 00:00:00 | 03:32:25 | 00:00:00 | |
| OE5FHM-15 | 2026-08-31 02:01:42 | 48.74002 | 13.73560 | 75° | 29km/h | 2832m | -2.6m/s | 7.3°C | 52.2% | 728.8hPa | 2.7V | 00:00:00 | 03:32:23 | 00:00:00 | |
| DO3MHA-11 | 2026-08-31 02:01:39 | 48.73995 | 13.73528 | 74° | 29km/h | 2840m | -2.7m/s | 7.3°C | 53.1% | 728.2hPa | 2.7V | 00:00:00 | 03:32:20 | 00:00:00 | |
| OE5MMP-10 | 2026-08-31 02:01:36 | 48.73989 | 13.73495 | 75° | 29km/h | 2848m | -2.6m/s | 7.2°C | 54.4% | 727.5hPa | 2.7V | 07:03:00 | 03:32:17 | 00:00:00 | |
| DO3MHA-11 | 2026-08-31 02:01:34 | 48.73985 | 13.73474 | 75° | 29km/h | 2854m | -2.6m/s | 7.2°C | 54.6% | 726.9hPa | 2.7V | 00:00:00 | 03:32:15 | 00:00:00 | |
| OE5WHR-10 | 2026-08-31 02:01:33 | 48.73983 | 13.73463 | 75° | 29km/h | 2856m | -2.5m/s | 7.1°C | 54.8% | 726.9hPa | 2.7V | 00:00:00 | 03:32:14 | 00:00:00 | |
| OE5DRO-10 | 2026-08-31 02:01:32 | 48.73981 | 13.73453 | 75° | 29km/h | 2859m | -2.5m/s | 7.1°C | 55.1% | 726.7hPa | 2.7V | 00:00:00 | 00:00:00 | 00:00:00 | |
| DO3MHA-11 | 2026-08-31 02:01:29 | 48.73975 | 13.73419 | 75° | 29km/h | 2867m | -2.6m/s | 7.0°C | 56.0% | 725.8hPa | 2.7V | 00:00:00 | 03:32:10 | 00:00:00 | |
| OE5MMP-10 | 2026-08-31 02:01:26 | 48.73969 | 13.73386 | 77° | 27km/h | 2875m | -2.5m/s | 6.9°C | 57.2% | 725.1hPa | 2.7V | 00:00:00 | 03:32:07 | 00:00:00 | |
| DO3MHA-11 | 2026-08-31 02:01:24 | 48.73966 | 13.73365 | 79° | 27km/h | 2880m | -2.8m/s | 6.9°C | 57.5% | 724.6hPa | 2.7V | 00:00:00 | 03:32:05 | 00:00:00 | |
| OE5FHM-15 | 2026-08-31 02:01:22 | 48.73963 | 13.73343 | 80° | 26km/h | 2886m | -2.7m/s | 6.8°C | 58.2% | 724.0hPa | 2.7V | 00:00:00 | 03:32:03 | 00:00:00 | |
| OE5DXL-15 | 2026-08-31 02:01:20 | 48.73961 | 13.73323 | 81° | 26km/h | 2891m | -2.6m/s | 6.8°C | 58.5% | 723.8hPa | 2.7V | 00:00:00 | 00:00:00 | 00:00:00 | |
| DO3MHA-11 | 2026-08-31 02:01:19 | 48.73960 | 13.73312 | 81° | 27km/h | 2894m | -2.6m/s | 6.8°C | 58.7% | 723.4hPa | 2.7V | 00:00:00 | 03:32:00 | 00:00:00 | |
| OE5WHR-10 | 2026-08-31 02:01:16 | 48.73956 | 13.73281 | 82° | 26km/h | 2902m | -2.6m/s | 6.7°C | 59.1% | 722.7hPa | 2.7V | 00:00:00 | 00:00:00 | 00:00:00 | |
| DO3MHA-11 | 2026-08-31 02:01:14 | 48.73955 | 13.73261 | 83° | 26km/h | 2907m | -2.7m/s | 6.6°C | 59.7% | 722.3hPa | 2.7V | 07:03:00 | 03:31:55 | 00:00:00 | |
| DO3MHA-11 | 2026-08-31 02:01:09 | 48.73951 | 13.73213 | 85° | 26km/h | 2921m | -2.7m/s | 6.5°C | 60.2% | 720.9hPa | 2.7V | 00:00:00 | 03:31:50 | 00:00:00 | |
| OE5MMP-10 | 2026-08-31 02:01:06 | 48.73950 | 13.73185 | 87° | 26km/h | 2929m | -2.9m/s | 6.4°C | 60.4% | 720.4hPa | 2.7V | 00:00:00 | 03:31:47 | 00:00:00 | |
| DO3MHA-11 | 2026-08-31 02:01:04 | 48.73949 | 13.73165 | 86° | 26km/h | 2935m | -2.6m/s | 6.4°C | 60.6% | 719.9hPa | 2.7V | 00:00:00 | 03:31:45 | 00:00:00 | |
| OE5FHM-15 | 2026-08-31 02:01:02 | 48.73948 | 13.73146 | 86° | 22km/h | 2940m | -2.7m/s | 6.4°C | 60.8% | 719.4hPa | 2.7V | 00:00:00 | 03:31:43 | 00:00:00 | |
| OE5DRO-10 | 2026-08-31 02:01:00 | 48.73947 | 13.73126 | 86° | 22km/h | 2946m | -2.6m/s | 6.3°C | 61.2% | 718.8hPa | 2.7V | 00:00:00 | 00:00:00 | 00:00:00 | |
| OE5WHR-10 | 2026-08-31 02:00:59 | 48.73946 | 13.73116 | 87° | 22km/h | 2948m | -2.7m/s | 6.3°C | 61.1% | 718.7hPa | 2.7V | 00:00:00 | 00:00:00 | 00:00:00 | |
| OE5MMP-10 | 2026-08-31 02:00:56 | 48.73945 | 13.73087 | 87° | 22km/h | 2957m | -2.6m/s | 6.2°C | 61.3% | 717.9hPa | 2.7V | 00:00:00 | 03:31:37 | 00:00:00 | |
| DO3MHA-11 | 2026-08-31 02:00:54 | 48.73944 | 13.73070 | 86° | 22km/h | 2962m | -2.5m/s | 6.2°C | 61.2% | 717.5hPa | 2.7V | 00:00:00 | 03:31:35 | 00:00:00 | |
| OE5DXL-15 | 2026-08-31 02:00:50 | 48.73942 | 13.73038 | 84° | 20km/h | 2972m | -2.5m/s | 6.1°C | 61.5% | 716.5hPa | 2.7V | 00:00:00 | 00:00:00 | 00:00:00 | |
| DO3MHA-11 | 2026-08-31 02:00:49 | 48.73941 | 13.73030 | 84° | 20km/h | 2975m | -2.7m/s | 6.1°C | 61.8% | 716.4hPa | 2.7V | 00:00:00 | 03:31:30 | 00:00:00 | |
| OE5MMP-10 | 2026-08-31 02:00:46 | 48.73940 | 13.73007 | 84° | 20km/h | 2982m | -2.5m/s | 6.0°C | 62.0% | 715.7hPa | 2.7V | 00:00:00 | 03:31:27 | 00:00:00 | |
| DO3MHA-11 | 2026-08-31 02:00:44 | 48.73938 | 13.72992 | 83° | 20km/h | 2988m | -2.6m/s | 6.0°C | 62.0% | 715.3hPa | 2.7V | 00:00:00 | 03:31:25 | 00:00:00 | |
| OE5FHM-15 | 2026-08-31 02:00:42 | 48.73937 | 13.72977 | 81° | 22km/h | 2993m | -2.5m/s | 5.9°C | 62.4% | 714.8hPa | 2.7V | 00:00:00 | 03:31:23 | 00:00:00 | |
| OE5MMP-10 | 2026-08-31 02:00:36 | 48.73930 | 13.72933 | 76° | 22km/h | 3008m | -2.6m/s | 5.7°C | 62.9% | 713.4hPa | 2.7V | 00:00:00 | 03:31:17 | 00:00:00 | |
| DO3MHA-11 | 2026-08-31 02:00:34 | 48.73927 | 13.72919 | 71° | 20km/h | 3013m | -2.5m/s | 5.7°C | 63.0% | 712.9hPa | 2.7V | 07:04:00 | 03:31:15 | 00:00:00 | |
| DO3MHA-11 | 2026-08-31 02:00:29 | 48.73917 | 13.72882 | 63° | 22km/h | 3025m | -2.5m/s | 5.6°C | 63.7% | 711.9hPa | 2.7V | 00:00:00 | 03:31:10 | 00:00:00 | |
| OE5DRO-10 | 2026-08-31 02:00:28 | 48.73914 | 13.72874 | 63° | 24km/h | 3028m | -2.6m/s | 5.6°C | 63.8% | 711.8hPa | 2.7V | 00:00:00 | 00:00:00 | 00:00:00 | |
| OE5MMP-10 | 2026-08-31 02:00:26 | 48.73908 | 13.72859 | 61° | 24km/h | 3033m | -2.6m/s | 5.5°C | 64.0% | 711.2hPa | 2.7V | 00:00:00 | 03:31:07 | 00:00:00 | |
| OE5WHR-10 | 2026-08-31 02:00:25 | 48.73906 | 13.72851 | 62° | 26km/h | 3036m | -2.5m/s | 5.5°C | 64.1% | 711.0hPa | 2.7V | 07:04:00 | 00:00:00 | 00:00:00 | |
| DO3MHA-11 | 2026-08-31 02:00:24 | 48.73903 | 13.72844 | 60° | 24km/h | 3039m | -2.5m/s | 5.5°C | 64.3% | 710.7hPa | 2.7V | 00:00:00 | 03:31:05 | 00:00:00 | |
| OE5FHM-15 | 2026-08-31 02:00:22 | 48.73897 | 13.72828 | 60° | 29km/h | 3044m | -2.6m/s | 5.4°C | 64.7% | 710.4hPa | 2.7V | 00:00:00 | 03:31:03 | 00:00:00 | |
| OE5DXL-15 | 2026-08-31 02:00:20 | 48.73891 | 13.72813 | 59° | 31km/h | 3049m | -2.5m/s | 5.4°C | 64.8% | 709.9hPa | 2.7V | 00:00:00 | 00:00:00 | 00:00:00 | |
| DO3MHA-11 | 2026-08-31 02:00:19 | 48.73888 | 13.72805 | 59° | 26km/h | 3051m | -2.6m/s | 5.4°C | 65.3% | 709.7hPa | 2.7V | 00:00:00 | 03:31:00 | 00:00:00 | |
| OE5MMP-10 | 2026-08-31 02:00:16 | 48.73877 | 13.72780 | 58° | 29km/h | 3059m | -2.7m/s | 5.3°C | 66.2% | 709.0hPa | 2.7V | 07:04:00 | 03:30:57 | 00:00:00 | |
| OE3JTB-15 | 2026-08-31 02:00:15 | 48.73874 | 13.72772 | 58° | 31km/h | 3062m | -2.6m/s | 5.3°C | 66.4% | 708.7hPa | 2.7V | 00:00:00 | 00:00:00 | 00:00:00 | |
| DO3MHA-11 | 2026-08-31 02:00:14 | 48.73871 | 13.72764 | 58° | 27km/h | 3064m | -2.5m/s | 5.3°C | 66.6% | 708.5hPa | 2.7V | 00:00:00 | 03:30:55 | 00:00:00 | |
| OE5DRO-10 | 2026-08-31 02:00:12 | 48.73863 | 13.72746 | 58° | 31km/h | 3070m | -2.6m/s | 5.2°C | 67.1% | 708.1hPa | 2.7V | 00:00:00 | 00:00:00 | 00:00:00 | |
| DO3MHA-11 | 2026-08-31 02:00:09 | 48.73851 | 13.72717 | 59° | 31km/h | 3078m | -2.5m/s | 5.1°C | 67.5% | 707.3hPa | 2.7V | 00:00:00 | 03:30:50 | 00:00:00 | |
| OE5WHR-10 | 2026-08-31 02:00:08 | 48.73847 | 13.72707 | 59° | 33km/h | 3080m | -2.6m/s | 5.1°C | 67.7% | 707.1hPa | 2.7V | 00:00:00 | 00:00:00 | 00:00:00 | |
| OE5MMP-10 | 2026-08-31 02:00:06 | 48.73839 | 13.72687 | 60° | 33km/h | 3086m | -2.6m/s | 5.1°C | 67.7% | 706.6hPa | 2.7V | 00:00:00 | 03:30:47 | 00:00:00 | |
| DO3MHA-11 | 2026-08-31 02:00:04 | 48.73831 | 13.72666 | 61° | 33km/h | 3091m | -2.7m/s | 5.0°C | 68.1% | 706.2hPa | 2.7V | 00:00:00 | 03:30:45 | 00:00:00 | |
| DO3MHA-11 | 2026-08-31 01:59:59 | 48.73810 | 13.72611 | 61° | 33km/h | 3104m | -2.7m/s | 4.9°C | 68.7% | 705.0hPa | 2.7V | 00:00:00 | 03:30:40 | 00:00:00 | |
| OE5MMP-10 | 2026-08-31 01:59:56 | 48.73798 | 13.72578 | 62° | 35km/h | 3113m | -2.7m/s | 4.9°C | 69.1% | 704.4hPa | 2.7V | 00:00:00 | 03:30:37 | 00:00:00 | |
| DO3MHA-11 | 2026-08-31 01:59:54 | 48.73790 | 13.72555 | 64° | 35km/h | 3118m | -2.8m/s | 4.9°C | 69.2% | 703.9hPa | 2.7V | 07:04:00 | 03:30:35 | 00:00:00 | |
| OE5FHM-15 | 2026-08-31 01:59:52 | 48.73782 | 13.72531 | 66° | 35km/h | 3124m | -2.7m/s | 4.9°C | 68.8% | 703.4hPa | 2.7V | 00:00:00 | 03:30:33 | 00:00:00 | |
| OE5WHR-10 | 2026-08-31 01:59:51 | 48.73779 | 13.72518 | 66° | 35km/h | 3127m | -2.5m/s | 4.9°C | 68.0% | 703.2hPa | 2.7V | 00:00:00 | 03:30:32 | 00:00:00 | |
| OE5DXL-15 | 2026-08-31 01:59:50 | 48.73775 | 13.72506 | 67° | 35km/h | 3129m | -2.5m/s | 4.8°C | 67.7% | 702.9hPa | 2.7V | 00:00:00 | 00:00:00 | 00:00:00 | |
| DO3MHA-11 | 2026-08-31 01:59:49 | 48.73771 | 13.72493 | 67° | 37km/h | 3132m | -2.6m/s | 4.8°C | 67.2% | 702.8hPa | 2.7V | 00:00:00 | 03:30:30 | 00:00:00 | |
| OE5MMP-10 | 2026-08-31 01:59:46 | 48.73761 | 13.72454 | 70° | 35km/h | 3140m | -2.5m/s | 4.8°C | 66.2% | 702.0hPa | 2.7V | 00:00:00 | 03:30:27 | 00:00:00 | |
| DO3MHA-11 | 2026-08-31 01:59:44 | 48.73755 | 13.72428 | 72° | 35km/h | 3145m | -2.5m/s | 4.8°C | 65.9% | 701.6hPa | 2.7V | 00:00:00 | 03:30:25 | 00:00:00 | |
| OE5DRO-10 | 2026-08-31 01:59:40 | 48.73745 | 13.72376 | 77° | 35km/h | 3155m | -2.4m/s | 4.7°C | 64.9% | 700.7hPa | 2.7V | 00:00:00 | 00:00:00 | 00:00:00 | |
| DO3MHA-11 | 2026-08-31 01:59:39 | 48.73743 | 13.72363 | 78° | 35km/h | 3157m | -2.2m/s | 4.7°C | 64.7% | 700.5hPa | 2.7V | 00:00:00 | 03:30:20 | 00:00:00 | |
| OE3JTB-15 | 2026-08-31 01:59:37 | 48.73740 | 13.72337 | 79° | 26km/h | 3162m | -2.4m/s | 4.6°C | 64.6% | 700.1hPa | 2.7V | 00:00:00 | 03:30:18 | 00:00:00 | |
| OE5MMP-10 | 2026-08-31 01:59:36 | 48.73738 | 13.72324 | 80° | 35km/h | 3165m | -2.4m/s | 4.6°C | 64.6% | 699.9hPa | 2.7V | 00:00:00 | 03:30:17 | 00:00:00 | |
| DO3MHA-11 | 2026-08-31 01:59:34 | 48.73735 | 13.72299 | 81° | 35km/h | 3170m | -2.4m/s | 4.6°C | 64.3% | 699.5hPa | 2.7V | 00:00:00 | 03:30:15 | 00:00:00 | |
| DO3MHA-11 | 2026-08-31 01:59:29 | 48.73727 | 13.72234 | 80° | 31km/h | 3183m | -2.5m/s | 4.5°C | 63.7% | 698.4hPa | 2.7V | 00:00:00 | 03:30:10 | 00:00:00 | |
| OE5MMP-10 | 2026-08-31 01:59:26 | 48.73722 | 13.72195 | 79° | 35km/h | 3190m | -2.7m/s | 4.4°C | 63.9% | 697.7hPa | 2.7V | 00:00:00 | 03:30:07 | 00:00:00 | |
| OE5DRO-10 | 2026-08-31 01:59:24 | 48.73718 | 13.72169 | 78° | 31km/h | 3196m | -2.4m/s | 4.4°C | 63.9% | 697.3hPa | 2.7V | 00:00:00 | 00:00:00 | 00:00:00 | |
| OE5FHM-15 | 2026-08-31 01:59:22 | 48.73714 | 13.72142 | 79° | 27km/h | 3201m | -2.5m/s | 4.4°C | 64.4% | 696.9hPa | 2.7V | 07:05:00 | 03:30:03 | 00:00:00 | |
| OE5DXL-15 | 2026-08-31 01:59:20 | 48.73711 | 13.72115 | 80° | 26km/h | 3206m | -2.3m/s | 4.3°C | 64.8% | 696.3hPa | 2.7V | 00:00:00 | 00:00:00 | 00:00:00 | |
| PG1ADW-2 | 2026-08-31 01:59:19 | 48.73709 | 13.72102 | 81° | 26km/h | 3208m | -2.5m/s | 4.3°C | 65.1% | 696.0hPa | 2.7V | 00:00:00 | 03:30:00 | 00:00:00 | |
| OE5WHR-10 | 2026-08-31 01:59:17 | 48.73707 | 13.72076 | 83° | 26km/h | 3213m | -2.6m/s | 4.2°C | 65.5% | 695.8hPa | 2.7V | 00:00:00 | 00:00:00 | 00:00:00 | |
| OE5MMP-10 | 2026-08-31 01:59:16 | 48.73706 | 13.72064 | 84° | 27km/h | 3216m | -2.4m/s | 4.2°C | 65.7% | 695.5hPa | 2.7V | 00:00:00 | 03:29:57 | 00:00:00 | |
| DO3MHA-11 | 2026-08-31 01:59:12 | 48.73702 | 13.72021 | 82° | 26km/h | 3225m | -2.4m/s | 4.1°C | 66.1% | 694.8hPa | 2.7V | 00:00:00 | 03:29:53 | 00:00:00 | |
| OE5DRO-10 | 2026-08-31 01:59:08 | 48.73697 | 13.71982 | 78° | 24km/h | 3235m | -2.3m/s | 4.0°C | 66.6% | 694.0hPa | 2.7V | 00:00:00 | 00:00:00 | 00:00:00 | |
| DO3MHA-11 | 2026-08-31 01:59:07 | 48.73696 | 13.71973 | 78° | 24km/h | 3237m | -2.4m/s | 4.0°C | 66.6% | 693.8hPa | 2.7V | 00:00:00 | 03:29:48 | 00:00:00 | |
| OE5MMP-10 | 2026-08-31 01:59:06 | 48.73695 | 13.71964 | 77° | 24km/h | 3239m | -2.3m/s | 4.0°C | 66.7% | 693.5hPa | 2.7V | 00:00:00 | 03:29:47 | 00:00:00 | |
| DO3MHA-11 | 2026-08-31 01:59:02 | 48.73689 | 13.71929 | 77° | 24km/h | 3249m | -2.4m/s | 3.9°C | 66.8% | 692.7hPa | 2.7V | 07:05:00 | 03:29:43 | 00:00:00 | |
| OE5WHR-10 | 2026-08-31 01:59:00 | 48.73686 | 13.71911 | 78° | 24km/h | 3253m | -2.4m/s | 3.9°C | 66.8% | 692.3hPa | 2.7V | 00:00:00 | 03:29:41 | 00:00:00 | |
| DO3MHA-11 | 2026-08-31 01:58:57 | 48.73682 | 13.71885 | 77° | 24km/h | 3260m | -2.3m/s | 3.9°C | 67.0% | 691.7hPa | 2.7V | 00:00:00 | 03:29:38 | 00:00:00 | |
| OE5MMP-10 | 2026-08-31 01:58:56 | 48.73681 | 13.71876 | 77° | 24km/h | 3263m | -2.2m/s | 3.8°C | 66.8% | 691.4hPa | 2.7V | 07:05:00 | 03:29:37 | 00:00:00 | |
| OE3JTB-15 | 2026-08-31 01:58:53 | 48.73677 | 13.71851 | 75° | 29km/h | 3270m | -2.3m/s | 3.8°C | 66.3% | 690.9hPa | 2.7V | 00:00:00 | 00:00:00 | 00:00:00 | |
| DO3MHA-11 | 2026-08-31 01:58:52 | 48.73675 | 13.71842 | 73° | 22km/h | 3272m | -2.4m/s | 3.8°C | 66.3% | 690.6hPa | 2.7V | 00:00:00 | 03:29:33 | 00:00:00 | |
| OE5DXL-15 | 2026-08-31 01:58:50 | 48.73671 | 13.71826 | 70° | 33km/h | 3277m | -2.4m/s | 3.8°C | 66.5% | 690.3hPa | 2.7V | 00:00:00 | 00:00:00 | 00:00:00 | |
| DO3MHA-11 | 2026-08-31 01:58:47 | 48.73664 | 13.71802 | 64° | 26km/h | 3284m | -2.2m/s | 3.8°C | 66.6% | 689.7hPa | 2.7V | 00:00:00 | 03:29:28 | 00:00:00 | |
| OE5MMP-10 | 2026-08-31 01:58:46 | 48.73662 | 13.71793 | 62° | 31km/h | 3286m | -2.1m/s | 3.7°C | 66.9% | 689.5hPa | 2.7V | 00:00:00 | 03:29:27 | 00:00:00 | |
| OE5WHR-10 | 2026-08-31 01:58:43 | 48.73651 | 13.71767 | 58° | 35km/h | 3293m | -2.2m/s | 3.7°C | 67.6% | 689.0hPa | 2.7V | 00:00:00 | 00:00:00 | 00:00:00 | |
| DO3MHA-11 | 2026-08-31 01:58:42 | 48.73647 | 13.71757 | 58° | 33km/h | 3295m | -2.2m/s | 3.6°C | 67.4% | 688.7hPa | 2.7V | 00:00:00 | 03:29:23 | 00:00:00 | |
| DO3MHA-11 | 2026-08-31 01:58:37 | 48.73625 | 13.71701 | 62° | 37km/h | 3307m | -2.3m/s | 3.6°C | 67.9% | 687.8hPa | 2.7V | 00:00:00 | 03:29:18 | 00:00:00 | |
| OE5MMP-10 | 2026-08-31 01:58:36 | 48.73621 | 13.71689 | 63° | 37km/h | 3309m | -2.3m/s | 3.6°C | 67.1% | 687.5hPa | 2.7V | 00:00:00 | 03:29:17 | 00:00:00 | |
| PG1ADW-2 | 2026-08-31 01:58:35 | 48.73617 | 13.71677 | 63° | 37km/h | 3311m | -2.4m/s | 3.6°C | 66.2% | 687.3hPa | 2.7V | 07:06:00 | 00:00:00 | 00:00:00 | |
| OE3JTB-15 | 2026-08-31 01:58:34 | 48.73612 | 13.71664 | 64° | 37km/h | 3314m | -2.4m/s | 3.6°C | 65.8% | 687.3hPa | 2.7V | 00:00:00 | 00:00:00 | 00:00:00 | |
| DO3MHA-11 | 2026-08-31 01:58:32 | 48.73604 | 13.71639 | 64° | 37km/h | 3319m | -2.4m/s | 3.6°C | 65.4% | 686.8hPa | 2.7V | 00:00:00 | 03:29:13 | 00:00:00 | |
| DO3MHA-11 | 2026-08-31 01:58:27 | 48.73582 | 13.71576 | 62° | 37km/h | 3331m | -2.4m/s | 3.6°C | 64.3% | 685.8hPa | 2.7V | 00:00:00 | 03:29:08 | 00:00:00 | |
| OE5WHR-10 | 2026-08-31 01:58:26 | 48.73578 | 13.71564 | 62° | 38km/h | 3333m | -2.4m/s | 3.6°C | 65.0% | 685.6hPa | 2.7V | 00:00:00 | 00:00:00 | 00:00:00 | |
| DO3MHA-11 | 2026-08-31 01:58:22 | 48.73560 | 13.71515 | 61° | 37km/h | 3343m | -2.3m/s | 3.5°C | 66.0% | 684.7hPa | 2.7V | 07:06:00 | 03:29:03 | 00:00:00 | |
| OE5DXL-15 | 2026-08-31 01:58:20 | 48.73551 | 13.71490 | 62° | 42km/h | 3348m | -2.3m/s | 3.5°C | 66.2% | 684.3hPa | 2.7V | 00:00:00 | 00:00:00 | 00:00:00 | |
| DO3MHA-11 | 2026-08-31 01:58:17 | 48.73537 | 13.71451 | 64° | 40km/h | 3355m | -2.3m/s | 3.4°C | 65.8% | 683.8hPa | 2.7V | 00:00:00 | 03:28:58 | 00:00:00 | |
| OE5MMP-10 | 2026-08-31 01:58:16 | 48.73533 | 13.71438 | 65° | 40km/h | 3357m | -2.5m/s | 3.4°C | 65.7% | 683.5hPa | 2.7V | 00:00:00 | 03:28:57 | 00:00:00 | |
| OE3JTB-15 | 2026-08-31 01:58:15 | 48.73529 | 13.71425 | 65° | 42km/h | 3359m | -2.4m/s | 3.4°C | 65.6% | 683.3hPa | 2.7V | 00:00:00 | 03:28:56 | 00:00:00 | |
| DO3MHA-11 | 2026-08-31 01:58:12 | 48.73516 | 13.71383 | 66° | 42km/h | 3366m | -2.3m/s | 3.3°C | 66.0% | 682.7hPa | 2.7V | 00:00:00 | 03:28:53 | 00:00:00 | |
| OE5WHR-10 | 2026-08-31 01:58:09 | 48.73503 | 13.71340 | 68° | 42km/h | 3373m | -2.4m/s | 3.3°C | 65.7% | 682.1hPa | 2.7V | 07:06:00 | 03:28:50 | 00:00:00 | |
| DO3MHA-11 | 2026-08-31 01:58:07 | 48.73495 | 13.71310 | 70° | 42km/h | 3378m | -2.3m/s | 3.3°C | 65.8% | 681.8hPa | 2.7V | 00:00:00 | 03:28:48 | 00:00:00 | |
| OE5MMP-10 | 2026-08-31 01:58:06 | 48.73492 | 13.71295 | 71° | 42km/h | 3381m | -2.4m/s | 3.3°C | 65.9% | 681.5hPa | 2.7V | 00:00:00 | 03:28:47 | 00:00:00 | |
| OE5DRO-10 | 2026-08-31 01:58:04 | 48.73485 | 13.71264 | 73° | 42km/h | 3385m | -2.4m/s | 3.2°C | 66.1% | 681.2hPa | 2.7V | 00:00:00 | 00:00:00 | 00:00:00 | |
| DO3MHA-11 | 2026-08-31 01:58:02 | 48.73479 | 13.71233 | 76° | 42km/h | 3390m | -2.3m/s | 3.2°C | 66.1% | 680.7hPa | 2.7V | 00:00:00 | 03:28:43 | 00:00:00 | |
| DO3MHA-11 | 2026-08-31 01:57:57 | 48.73468 | 13.71154 | 80° | 42km/h | 3402m | -2.5m/s | 3.1°C | 66.5% | 679.7hPa | 2.7V | 00:00:00 | 03:28:38 | 00:00:00 | |
| OE5MMP-10 | 2026-08-31 01:57:56 | 48.73466 | 13.71138 | 80° | 44km/h | 3405m | -2.4m/s | 3.0°C | 66.4% | 679.6hPa | 2.7V | 00:00:00 | 03:28:37 | 00:00:00 | |
| PG1ADW-2 | 2026-08-31 01:57:55 | 48.73464 | 13.71122 | 79° | 44km/h | 3407m | -2.3m/s | 3.0°C | 66.4% | 679.3hPa | 2.7V | 00:00:00 | 03:28:36 | 00:00:00 | |
| OE5FHM-15 | 2026-08-31 01:57:52 | 48.73457 | 13.71074 | 78° | 44km/h | 3414m | -2.3m/s | 3.0°C | 66.1% | 678.8hPa | 2.6V | 00:00:00 | 03:28:33 | 00:00:00 | |
| OE5DXL-15 | 2026-08-31 01:57:50 | 48.73452 | 13.71041 | 77° | 44km/h | 3419m | -2.2m/s | 3.0°C | 65.5% | 678.4hPa | 2.6V | 07:06:00 | 00:00:00 | 00:00:00 | |
| OE5HKT-10 | 2026-08-31 01:57:48 | 48.73447 | 13.71008 | 77° | 49km/h | 3424m | -2.3m/s | 3.0°C | 65.6% | 678.0hPa | 2.6V | 00:00:00 | 00:00:00 | 00:00:00 | |
| DO3MHA-11 | 2026-08-31 01:57:47 | 48.73444 | 13.70992 | 77° | 44km/h | 3426m | -2.4m/s | 3.0°C | 65.1% | 677.7hPa | 2.6V | 00:00:00 | 03:28:28 | 00:00:00 | |
| OE5MMP-10 | 2026-08-31 01:57:46 | 48.73442 | 13.70975 | 76° | 44km/h | 3428m | -2.4m/s | 3.0°C | 64.7% | 677.5hPa | 2.6V | 00:00:00 | 03:28:27 | 00:00:00 | |
| DO3MHA-11 | 2026-08-31 01:57:42 | 48.73430 | 13.70909 | 76° | 44km/h | 3438m | -2.3m/s | 2.9°C | 65.2% | 676.8hPa | 2.6V | 07:06:00 | 03:28:23 | 00:00:00 | |
| DO3MHA-11 | 2026-08-31 01:57:37 | 48.73418 | 13.70825 | 80° | 44km/h | 3449m | -2.4m/s | 2.8°C | 65.6% | 675.7hPa | 2.6V | 00:00:00 | 03:28:18 | 00:00:00 | |
| OE5MMP-10 | 2026-08-31 01:57:36 | 48.73416 | 13.70809 | 81° | 44km/h | 3452m | -2.3m/s | 2.8°C | 65.5% | 675.5hPa | 2.7V | 07:07:00 | 03:28:17 | 00:00:00 | |
| OE5WHR-10 | 2026-08-31 01:57:35 | 48.73414 | 13.70792 | 81° | 44km/h | 3454m | -2.2m/s | 2.7°C | 65.6% | 675.3hPa | 2.7V | 00:00:00 | 00:00:00 | 00:00:00 | |
| DO3MHA-11 | 2026-08-31 01:57:32 | 48.73409 | 13.70743 | 82° | 44km/h | 3461m | -2.3m/s | 2.7°C | 66.0% | 674.7hPa | 2.7V | 00:00:00 | 03:28:13 | 00:00:00 | |
| DO3MHA-11 | 2026-08-31 01:57:27 | 48.73401 | 13.70660 | 81° | 44km/h | 3473m | -2.6m/s | 2.6°C | 66.5% | 673.8hPa | 2.7V | 00:00:00 | 03:28:08 | 00:00:00 | |
| OE5MMP-10 | 2026-08-31 01:57:26 | 48.73399 | 13.70643 | 81° | 44km/h | 3475m | -2.5m/s | 2.6°C | 66.5% | 673.6hPa | 2.7V | 00:00:00 | 03:28:07 | 00:00:00 | |
| OE5FHM-15 | 2026-08-31 01:57:22 | 48.73392 | 13.70575 | 84° | 37km/h | 3485m | -2.3m/s | 2.5°C | 67.2% | 672.8hPa | 2.7V | 00:00:00 | 03:28:03 | 00:00:00 | |
| OE5DXL-15 | 2026-08-31 01:57:20 | 48.73390 | 13.70542 | 85° | 37km/h | 3490m | -2.3m/s | 2.5°C | 67.5% | 672.4hPa | 2.7V | 00:00:00 | 00:00:00 | 00:00:00 | |
| OE5WHR-10 | 2026-08-31 01:57:18 | 48.73388 | 13.70510 | 86° | 37km/h | 3495m | -2.4m/s | 2.4°C | 67.5% | 671.9hPa | 2.7V | 00:00:00 | 03:27:59 | 00:00:00 | |
| OE3JTB-15 | 2026-08-31 01:57:17 | 48.73387 | 13.70493 | 86° | 35km/h | 3497m | -2.4m/s | 2.4°C | 67.6% | 671.8hPa | 2.7V | 00:00:00 | 03:27:58 | 00:00:00 | |
| OE5MMP-10 | 2026-08-31 01:57:16 | 48.73386 | 13.70477 | 87° | 38km/h | 3499m | -2.3m/s | 2.4°C | 67.8% | 671.7hPa | 2.7V | 00:00:00 | 03:27:57 | 00:00:00 | |
| PG1ADW-2 | 2026-08-31 01:57:15 | 48.73385 | 13.70462 | 86° | 37km/h | 3502m | -2.2m/s | 2.4°C | 67.7% | 671.4hPa | 2.7V | 00:00:00 | 00:00:00 | 00:00:00 | |
| OE5MMP-10 | 2026-08-31 01:57:06 | 48.73379 | 13.70332 | 83° | 33km/h | 3523m | -2.0m/s | 2.1°C | 68.6% | 669.7hPa | 2.7V | 00:00:00 | 03:27:47 | 00:00:00 | |
| OE5WHR-10 | 2026-08-31 01:57:01 | 48.73372 | 13.70271 | 76° | 33km/h | 3534m | -2.2m/s | 2.0°C | 68.8% | 668.8hPa | 2.7V | 00:00:00 | 00:00:00 | 00:00:00 | |
| OE5DRO-10 | 2026-08-31 01:57:00 | 48.73370 | 13.70259 | 76° | 33km/h | 3536m | -2.1m/s | 2.0°C | 68.9% | 668.5hPa | 2.6V | 00:00:00 | 00:00:00 | 00:00:00 | |
| OE5MMP-10 | 2026-08-31 01:56:56 | 48.73360 | 13.70212 | 72° | 33km/h | 3545m | -2.3m/s | 1.9°C | 69.4% | 667.8hPa | 2.6V | 00:00:00 | 03:27:37 | 00:00:00 | |
| PG1ADW-2 | 2026-08-31 01:56:55 | 48.73357 | 13.70201 | 71° | 37km/h | 3548m | -2.4m/s | 1.9°C | 69.4% | 667.6hPa | 2.7V | 00:00:00 | 00:00:00 | 00:00:00 | |
| OE5FHM-15 | 2026-08-31 01:56:52 | 48.73349 | 13.70166 | 70° | 37km/h | 3555m | -2.4m/s | 1.8°C | 69.8% | 666.9hPa | 2.7V | 00:00:00 | 03:27:33 | 00:00:00 | |
| OE5DXL-15 | 2026-08-31 01:56:50 | 48.73343 | 13.70143 | 69° | 38km/h | 3560m | -2.2m/s | 1.8°C | 69.1% | 666.7hPa | 2.7V | 00:00:00 | 00:00:00 | 00:00:00 | |
| OE5MMP-10 | 2026-08-31 01:56:46 | 48.73330 | 13.70095 | 67° | 37km/h | 3569m | -2.4m/s | 1.7°C | 69.4% | 665.8hPa | 2.6V | 00:00:00 | 03:27:27 | 00:00:00 | |
| OE5WHR-10 | 2026-08-31 01:56:44 | 48.73323 | 13.70071 | 66° | 38km/h | 3574m | -2.3m/s | 1.7°C | 69.6% | 665.4hPa | 2.6V | 00:00:00 | 00:00:00 | 00:00:00 | |
| DO3MHA-11 | 2026-08-31 01:56:38 | 48.73300 | 13.69994 | 66° | 38km/h | 3588m | -2.3m/s | 1.6°C | 68.9% | 664.2hPa | 2.6V | 00:00:00 | 03:27:19 | 00:00:00 | |
| OE3JTB-15 | 2026-08-31 01:56:37 | 48.73296 | 13.69981 | 65° | 40km/h | 3590m | -2.3m/s | 1.5°C | 69.0% | 664.0hPa | 2.6V | 00:00:00 | 00:00:00 | 00:00:00 | |
| OE5MMP-10 | 2026-08-31 01:56:36 | 48.73292 | 13.69967 | 66° | 38km/h | 3593m | -2.4m/s | 1.5°C | 68.9% | 663.9hPa | 2.6V | 00:00:00 | 03:27:17 | 00:00:00 | |
| DO3MHA-11 | 2026-08-31 01:56:33 | 48.73279 | 13.69927 | 66° | 38km/h | 3600m | -2.4m/s | 1.4°C | 68.9% | 663.3hPa | 2.6V | 00:00:00 | 03:27:14 | 00:00:00 | |
| DO3MHA-11 | 2026-08-31 01:56:28 | 48.73258 | 13.69859 | 66° | 40km/h | 3612m | -2.3m/s | 1.4°C | 68.8% | 662.3hPa | 2.6V | 00:00:00 | 03:27:09 | 00:00:00 | |
| OE5WHR-10 | 2026-08-31 01:56:27 | 48.73254 | 13.69845 | 66° | 42km/h | 3614m | -2.4m/s | 1.3°C | 68.9% | 662.2hPa | 2.6V | 00:00:00 | 03:27:08 | 00:00:00 | |
| OE5MMP-10 | 2026-08-31 01:56:26 | 48.73250 | 13.69831 | 66° | 42km/h | 3616m | -2.3m/s | 1.3°C | 68.7% | 662.0hPa | 2.6V | 00:00:00 | 03:27:07 | 00:00:00 | |
| DO3MHA-11 | 2026-08-31 01:56:23 | 48.73238 | 13.69788 | 67° | 42km/h | 3624m | -2.4m/s | 1.2°C | 68.8% | 661.4hPa | 2.7V | 00:00:00 | 03:27:04 | 00:00:00 | |
| OE5FHM-15 | 2026-08-31 01:56:22 | 48.73233 | 13.69773 | 66° | 44km/h | 3626m | -2.3m/s | 1.2°C | 68.8% | 661.1hPa | 2.7V | 00:00:00 | 03:27:03 | 00:00:00 | |
| OE5DXL-15 | 2026-08-31 01:56:20 | 48.73225 | 13.69744 | 66° | 44km/h | 3631m | -2.3m/s | 1.2°C | 68.7% | 660.8hPa | 2.7V | 00:00:00 | 00:00:00 | 00:00:00 | |
| DO3MHA-11 | 2026-08-31 01:56:18 | 48.73216 | 13.69715 | 67° | 44km/h | 3636m | -2.4m/s | 1.2°C | 69.1% | 660.4hPa | 2.7V | 07:08:00 | 03:26:59 | 00:00:00 | |
| OE5MMP-10 | 2026-08-31 01:56:16 | 48.73208 | 13.69685 | 68° | 46km/h | 3641m | -2.3m/s | 1.1°C | 69.2% | 660.0hPa | 2.7V | 07:08:00 | 03:26:57 | 00:00:00 | |
| OE5WHR-10 | 2026-08-31 01:56:10 | 48.73185 | 13.69588 | 75° | 46km/h | 3655m | -2.4m/s | 1.0°C | 69.3% | 658.8hPa | 2.7V | 00:00:00 | 00:00:00 | 00:00:00 | |
| DO3MHA-11 | 2026-08-31 01:56:08 | 48.73179 | 13.69553 | 76° | 47km/h | 3660m | -2.4m/s | 1.0°C | 69.6% | 658.4hPa | 2.6V | 00:00:00 | 03:26:49 | 00:00:00 | |
| OE5MMP-10 | 2026-08-31 01:56:06 | 48.73173 | 13.69518 | 78° | 46km/h | 3665m | -2.5m/s | 0.9°C | 69.3% | 658.1hPa | 2.7V | 00:00:00 | 03:26:47 | 00:00:00 | |
| DO3MHA-11 | 2026-08-31 01:56:02 | 48.73165 | 13.69447 | 82° | 46km/h | 3675m | -2.3m/s | 0.9°C | 69.4% | 657.2hPa | 2.7V | 00:00:00 | 03:26:43 | 00:00:00 | |
| DO3MHA-11 | 2026-08-31 01:55:57 | 48.73158 | 13.69362 | 86° | 44km/h | 3686m | -2.3m/s | 0.7°C | 69.8% | 656.2hPa | 2.7V | 00:00:00 | 03:26:38 | 00:00:00 | |
| OE5MMP-10 | 2026-08-31 01:55:56 | 48.73158 | 13.69345 | 85° | 42km/h | 3689m | -2.3m/s | 0.7°C | 69.9% | 656.1hPa | 2.7V | 00:00:00 | 03:26:37 | 00:00:00 | |
| OE5WHR-10 | 2026-08-31 01:55:53 | 48.73155 | 13.69295 | 86° | 40km/h | 3695m | -2.1m/s | 0.7°C | 69.9% | 655.5hPa | 2.6V | 07:08:00 | 00:00:00 | 00:00:00 | |
| OE5FHM-15 | 2026-08-31 01:55:52 | 48.73154 | 13.69279 | 86° | 40km/h | 3698m | -2.3m/s | 0.6°C | 70.3% | 655.3hPa | 2.6V | 00:00:00 | 03:26:33 | 00:00:00 | |
| OE5DXL-15 | 2026-08-31 01:55:50 | 48.73153 | 13.69247 | 87° | 40km/h | 3702m | -2.2m/s | 0.6°C | 70.6% | 654.9hPa | 2.6V | 00:00:00 | 00:00:00 | 00:00:00 | |
| DO3MHA-11 | 2026-08-31 01:55:47 | 48.73151 | 13.69200 | 87° | 38km/h | 3709m | -2.3m/s | 0.6°C | 70.6% | 654.4hPa | 2.6V | 00:00:00 | 03:26:28 | 00:00:00 | |
| OE5MMP-10 | 2026-08-31 01:55:46 | 48.73150 | 13.69185 | 87° | 38km/h | 3711m | -2.3m/s | 0.5°C | 70.2% | 654.3hPa | 2.6V | 00:00:00 | 03:26:27 | 00:00:00 | |
| OE5DRO-10 | 2026-08-31 01:55:40 | 48.73146 | 13.69097 | 85° | 40km/h | 3725m | -2.4m/s | 0.5°C | 69.4% | 653.2hPa | 2.6V | 07:08:00 | 00:00:00 | 00:00:00 | |
| DO3MHA-11 | 2026-08-31 01:55:38 | 48.73144 | 13.69067 | 84° | 40km/h | 3729m | -2.2m/s | 0.5°C | 68.2% | 652.7hPa | 2.6V | 00:00:00 | 03:26:19 | 00:00:00 | |
| OE5MMP-10 | 2026-08-31 01:55:36 | 48.73142 | 13.69038 | 85° | 40km/h | 3734m | -2.1m/s | 0.5°C | 66.4% | 652.4hPa | 2.6V | 00:00:00 | 03:26:17 | 00:00:00 | |
| DO3MHA-11 | 2026-08-31 01:55:33 | 48.73139 | 13.68992 | 84° | 40km/h | 3741m | -2.2m/s | 0.5°C | 65.1% | 651.8hPa | 2.6V | 07:09:00 | 03:26:14 | 00:00:00 | |
| DO3MHA-11 | 2026-08-31 01:55:28 | 48.73134 | 13.68914 | 85° | 40km/h | 3752m | -2.2m/s | 0.4°C | 66.0% | 650.8hPa | 2.7V | 00:00:00 | 03:26:09 | 00:00:00 | |
| OE5MMP-10 | 2026-08-31 01:55:26 | 48.73132 | 13.68883 | 85° | 38km/h | 3756m | -2.3m/s | 0.3°C | 66.7% | 650.4hPa | 2.7V | 00:00:00 | 03:26:07 | 00:00:00 | |
| OE5DRO-10 | 2026-08-31 01:55:24 | 48.73130 | 13.68853 | 84° | 38km/h | 3761m | -2.2m/s | 0.3°C | 67.6% | 650.1hPa | 2.6V | 00:00:00 | 00:00:00 | 00:00:00 | |
| OE5FHM-15 | 2026-08-31 01:55:22 | 48.73127 | 13.68823 | 84° | 38km/h | 3765m | -2.4m/s | 0.3°C | 67.8% | 649.7hPa | 2.6V | 07:09:00 | 03:26:03 | 00:00:00 | |
| DO3MHA-11 | 2026-08-31 01:55:21 | 48.73126 | 13.68808 | 84° | 38km/h | 3768m | -2.1m/s | 0.3°C | 67.9% | 649.6hPa | 2.7V | 00:00:00 | 03:26:02 | 00:00:00 | |
| OE5DXL-15 | 2026-08-31 01:55:20 | 48.73125 | 13.68794 | 84° | 38km/h | 3770m | -2.4m/s | 0.2°C | 68.4% | 649.4hPa | 2.7V | 00:00:00 | 00:00:00 | 00:00:00 | |
| OE5WHR-10 | 2026-08-31 01:55:19 | 48.73124 | 13.68779 | 83° | 37km/h | 3773m | -2.2m/s | 0.2°C | 68.7% | 649.2hPa | 2.7V | 00:00:00 | 00:00:00 | 00:00:00 | |
| DO3MHA-11 | 2026-08-31 01:55:16 | 48.73120 | 13.68737 | 81° | 40km/h | 3780m | -2.4m/s | 0.2°C | 69.0% | 648.7hPa | 2.7V | 00:00:00 | 03:25:57 | 00:00:00 | |
| PG1ADW-2 | 2026-08-31 01:55:13 | 48.73116 | 13.68695 | 82° | 37km/h | 3787m | -2.2m/s | 0.1°C | 69.3% | 648.1hPa | 2.7V | 00:00:00 | 03:25:54 | 00:00:00 | |
| OE5DRO-10 | 2026-08-31 01:55:08 | 48.73108 | 13.68627 | 76° | 40km/h | 3799m | -2.2m/s | 0.0°C | 70.4% | 647.1hPa | 2.7V | 00:00:00 | 00:00:00 | 00:00:00 | |
| OE5MMP-10 | 2026-08-31 01:55:06 | 48.73103 | 13.68600 | 72° | 38km/h | 3804m | -2.3m/s | 0.0°C | 71.3% | 646.8hPa | 2.7V | 00:00:00 | 03:25:47 | 00:00:00 | |
| OE5WHR-10 | 2026-08-31 01:55:02 | 48.73088 | 13.68547 | 66° | 44km/h | 3813m | -2.3m/s | -0.0°C | 71.9% | 646.0hPa | 2.7V | 00:00:00 | 00:00:00 | 00:00:00 | |
| OE5MMP-10 | 2026-08-31 01:54:56 | 48.73062 | 13.68463 | 64° | 44km/h | 3828m | -2.4m/s | -0.0°C | 72.0% | 644.8hPa | 2.7V | 07:09:00 | 03:25:37 | 00:00:00 | |
| PG1ADW-2 | 2026-08-31 01:54:53 | 48.73047 | 13.68420 | 64° | 49km/h | 3835m | -2.5m/s | -0.1°C | 72.1% | 644.2hPa | 2.7V | 00:00:00 | 00:00:00 | 00:00:00 | |
| OE5DXL-15 | 2026-08-31 01:54:50 | 48.73032 | 13.68374 | 64° | 51km/h | 3842m | -2.3m/s | -0.1°C | 72.1% | 643.6hPa | 2.7V | 00:00:00 | 00:00:00 | 00:00:00 | |
| OE5MMP-10 | 2026-08-31 01:54:46 | 48.73012 | 13.68308 | 67° | 51km/h | 3852m | -2.4m/s | -0.2°C | 72.4% | 642.9hPa | 2.7V | 00:00:00 | 03:25:27 | 00:00:00 | |
| OE5WHR-10 | 2026-08-31 01:54:45 | 48.73007 | 13.68291 | 68° | 53km/h | 3855m | -2.4m/s | -0.2°C | 72.4% | 642.6hPa | 2.7V | 00:00:00 | 03:25:26 | 00:00:00 | |
| DO3MHA-11 | 2026-08-31 01:54:37 | 48.72973 | 13.68142 | 73° | 53km/h | 3874m | -2.4m/s | -0.3°C | 72.0% | 641.1hPa | 2.7V | 00:00:00 | 03:25:18 | 00:00:00 | |
| OE5MMP-10 | 2026-08-31 01:54:36 | 48.72969 | 13.68123 | 73° | 53km/h | 3876m | -2.4m/s | -0.3°C | 71.9% | 640.8hPa | 2.7V | 00:00:00 | 03:25:17 | 00:00:00 | |
| PG1ADW-2 | 2026-08-31 01:54:33 | 48.72957 | 13.68065 | 74° | 53km/h | 3883m | -2.3m/s | -0.4°C | 72.2% | 640.3hPa | 2.7V | 00:00:00 | 00:00:00 | 00:00:00 | |
| DO3MHA-11 | 2026-08-31 01:54:32 | 48.72953 | 13.68045 | 74° | 53km/h | 3886m | -2.2m/s | -0.4°C | 72.0% | 640.1hPa | 2.7V | 00:00:00 | 03:25:13 | 00:00:00 | |
| OE5WHR-10 | 2026-08-31 01:54:28 | 48.72938 | 13.67968 | 74° | 53km/h | 3895m | -2.3m/s | -0.5°C | 72.4% | 639.2hPa | 2.7V | 00:00:00 | 00:00:00 | 00:00:00 | |
| DO3MHA-11 | 2026-08-31 01:54:27 | 48.72935 | 13.67949 | 74° | 53km/h | 3898m | -2.4m/s | -0.5°C | 72.6% | 639.2hPa | 2.7V | 00:00:00 | 03:25:08 | 00:00:00 | |
| OE5MMP-10 | 2026-08-31 01:54:26 | 48.72931 | 13.67929 | 75° | 53km/h | 3900m | -2.3m/s | -0.5°C | 72.6% | 639.0hPa | 2.6V | 00:00:00 | 03:25:07 | 00:00:00 | |
| OE5FHM-15 | 2026-08-31 01:54:22 | 48.72918 | 13.67851 | 78° | 47km/h | 3910m | -2.3m/s | -0.5°C | 71.9% | 638.2hPa | 2.6V | 00:00:00 | 03:25:03 | 00:00:00 | |
| OE5DXL-15 | 2026-08-31 01:54:20 | 48.72912 | 13.67811 | 78° | 46km/h | 3915m | -2.4m/s | -0.6°C | 71.5% | 637.8hPa | 2.6V | 00:00:00 | 00:00:00 | 00:00:00 | |
| DO3MHA-11 | 2026-08-31 01:54:17 | 48.72903 | 13.67752 | 78° | 53km/h | 3923m | -2.3m/s | -0.6°C | 70.3% | 637.2hPa | 2.6V | 07:10:00 | 03:24:58 | 00:00:00 | |
| OE5MMP-10 | 2026-08-31 01:54:16 | 48.72901 | 13.67732 | 78° | 53km/h | 3925m | -2.3m/s | -0.6°C | 70.4% | 637.0hPa | 2.6V | 00:00:00 | 03:24:57 | 00:00:00 | |
| PG1ADW-2 | 2026-08-31 01:54:13 | 48.72892 | 13.67672 | 80° | 46km/h | 3933m | -2.4m/s | -0.7°C | 70.5% | 636.5hPa | 2.6V | 00:00:00 | 00:00:00 | 00:00:00 | |
| DO3MHA-11 | 2026-08-31 01:54:12 | 48.72890 | 13.67652 | 80° | 51km/h | 3935m | -2.4m/s | -0.7°C | 70.4% | 636.2hPa | 2.6V | 00:00:00 | 03:24:53 | 00:00:00 | |
| OE5WHR-10 | 2026-08-31 01:54:11 | 48.72888 | 13.67633 | 81° | 46km/h | 3937m | -2.5m/s | -0.7°C | 70.6% | 636.1hPa | 2.7V | 00:00:00 | 00:00:00 | 00:00:00 | |
| DO3MHA-11 | 2026-08-31 01:54:07 | 48.72880 | 13.67555 | 84° | 49km/h | 3947m | -2.4m/s | -0.8°C | 71.2% | 635.2hPa | 2.7V | 00:00:00 | 03:24:48 | 00:00:00 | |
| OE5MMP-10 | 2026-08-31 01:54:06 | 48.72879 | 13.67536 | 84° | 46km/h | 3950m | -2.5m/s | -0.8°C | 71.3% | 635.0hPa | 2.7V | 00:00:00 | 03:24:47 | 00:00:00 | |
| OE5DRO-10 | 2026-08-31 01:54:04 | 48.72876 | 13.67498 | 85° | 40km/h | 3955m | -2.5m/s | -0.9°C | 71.3% | 634.6hPa | 2.7V | 00:00:00 | 00:00:00 | 00:00:00 | |
| DO3MHA-11 | 2026-08-31 01:54:02 | 48.72874 | 13.67462 | 85° | 42km/h | 3960m | -2.5m/s | -0.9°C | 71.6% | 634.2hPa | 2.7V | 00:00:00 | 03:24:43 | 00:00:00 | |
| DO3MHA-11 | 2026-08-31 01:53:57 | 48.72867 | 13.67383 | 81° | 38km/h | 3972m | -2.4m/s | -1.0°C | 71.4% | 633.2hPa | 2.7V | 00:00:00 | 03:24:38 | 00:00:00 | |
| OE5MMP-10 | 2026-08-31 01:53:56 | 48.72865 | 13.67368 | 80° | 38km/h | 3975m | -2.3m/s | -1.0°C | 71.6% | 633.1hPa | 2.7V | 00:00:00 | 03:24:37 | 00:00:00 | |
| OE5WHR-10 | 2026-08-31 01:53:54 | 48.72862 | 13.67339 | 79° | 40km/h | 3979m | -2.4m/s | -1.1°C | 71.4% | 632.7hPa | 2.6V | 00:00:00 | 03:24:35 | 00:00:00 | |
| PG1ADW-2 | 2026-08-31 01:53:53 | 48.72860 | 13.67325 | 79° | 42km/h | 3982m | -2.5m/s | -1.1°C | 71.7% | 632.4hPa | 2.6V | 00:00:00 | 03:24:34 | 00:00:00 | |
| DO3MHA-11 | 2026-08-31 01:53:52 | 48.72858 | 13.67310 | 79° | 38km/h | 3985m | -2.5m/s | -1.1°C | 71.9% | 632.3hPa | 2.7V | 00:00:00 | 03:24:33 | 00:00:00 | |
| OE5DRO-10 | 2026-08-31 01:53:48 | 48.72849 | 13.67254 | 76° | 44km/h | 3995m | -2.5m/s | -1.2°C | 72.1% | 631.5hPa | 2.7V | 00:00:00 | 00:00:00 | 00:00:00 | |
| OE5DXL-15 | 2026-08-31 01:53:47 | 48.72847 | 13.67240 | 73° | 46km/h | 3997m | -2.5m/s | -1.2°C | 72.5% | 631.3hPa | 2.7V | 07:10:00 | 00:00:00 | 00:00:00 | |
| OE5MMP-10 | 2026-08-31 01:53:46 | 48.72844 | 13.67226 | 71° | 44km/h | 4000m | -2.5m/s | -1.3°C | 72.6% | 631.2hPa | 2.7V | 00:00:00 | 03:24:27 | 00:00:00 | |
| DO3MHA-11 | 2026-08-31 01:53:42 | 48.72828 | 13.67168 | 66° | 46km/h | 4010m | -2.6m/s | -1.4°C | 72.9% | 630.3hPa | 2.7V | 00:00:00 | 03:24:23 | 00:00:00 | |
| DO3MHA-11 | 2026-08-31 01:53:37 | 48.72803 | 13.67090 | 65° | 47km/h | 4023m | -2.6m/s | -1.5°C | 74.2% | 629.2hPa | 2.7V | 07:11:00 | 03:24:18 | 00:00:00 | |
| OE5MMP-10 | 2026-08-31 01:53:36 | 48.72798 | 13.67074 | 65° | 47km/h | 4025m | -2.5m/s | -1.5°C | 74.2% | 629.1hPa | 2.7V | 07:11:00 | 03:24:17 | 00:00:00 | |
| PG1ADW-2 | 2026-08-31 01:53:33 | 48.72782 | 13.67025 | 65° | 46km/h | 4033m | -2.7m/s | -1.5°C | 74.3% | 628.4hPa | 2.7V | 00:00:00 | 00:00:00 | 00:00:00 | |
| DO3MHA-11 | 2026-08-31 01:53:32 | 48.72777 | 13.67008 | 65° | 47km/h | 4036m | -2.6m/s | -1.6°C | 74.4% | 628.1hPa | 2.7V | 00:00:00 | 03:24:13 | 00:00:00 | |
| DO3MHA-11 | 2026-08-31 01:53:27 | 48.72751 | 13.66927 | 65° | 46km/h | 4049m | -2.6m/s | -1.7°C | 75.8% | 627.2hPa | 2.7V | 00:00:00 | 03:24:08 | 00:00:00 | |
| OE5MMP-10 | 2026-08-31 01:53:26 | 48.72746 | 13.66912 | 65° | 46km/h | 4052m | -2.6m/s | -1.7°C | 75.7% | 626.9hPa | 2.7V | 00:00:00 | 03:24:07 | 00:00:00 | |
| OE5FHM-15 | 2026-08-31 01:53:22 | 48.72726 | 13.66848 | 65° | 47km/h | 4062m | -2.6m/s | -1.8°C | 75.7% | 626.1hPa | 2.7V | 00:00:00 | 03:24:03 | 00:00:00 | |
| OE5WHR-10 | 2026-08-31 01:53:20 | 48.72716 | 13.66817 | 65° | 47km/h | 4068m | -2.6m/s | -1.8°C | 74.7% | 625.7hPa | 2.7V | 00:00:00 | 00:00:00 | 00:00:00 | |
| DO3MHA-11 | 2026-08-31 01:53:17 | 48.72701 | 13.66769 | 65° | 47km/h | 4075m | -2.7m/s | -1.8°C | 73.8% | 625.0hPa | 2.7V | 00:00:00 | 03:23:58 | 00:00:00 | |
| OE5MMP-10 | 2026-08-31 01:53:16 | 48.72695 | 13.66753 | 65° | 49km/h | 4078m | -2.7m/s | -1.8°C | 74.0% | 624.8hPa | 2.7V | 00:00:00 | 03:23:57 | 00:00:00 | |
| PG1ADW-2 | 2026-08-31 01:53:13 | 48.72680 | 13.66704 | 64° | 49km/h | 4086m | -2.7m/s | -1.9°C | 74.4% | 624.2hPa | 2.7V | 07:11:00 | 00:00:00 | 00:00:00 | |
| DO3MHA-11 | 2026-08-31 01:53:12 | 48.72675 | 13.66687 | 64° | 49km/h | 4089m | -2.6m/s | -1.9°C | 74.4% | 624.0hPa | 2.7V | 00:00:00 | 03:23:53 | 00:00:00 | |
| DO3MHA-11 | 2026-08-31 01:53:07 | 48.72646 | 13.66602 | 64° | 47km/h | 4103m | -2.7m/s | -2.0°C | 75.4% | 623.0hPa | 2.7V | 00:00:00 | 03:23:48 | 00:00:00 | |
| OE5MMP-10 | 2026-08-31 01:53:06 | 48.72641 | 13.66585 | 64° | 47km/h | 4105m | -2.6m/s | -2.1°C | 75.6% | 622.8hPa | 2.7V | 00:00:00 | 03:23:47 | 00:00:00 | |
| OE5WHR-10 | 2026-08-31 01:53:03 | 48.72625 | 13.66538 | 64° | 51km/h | 4113m | -2.7m/s | -2.1°C | 75.8% | 622.2hPa | 2.7V | 00:00:00 | 03:23:44 | 00:00:00 | |
| DO3MHA-11 | 2026-08-31 01:53:02 | 48.72620 | 13.66522 | 64° | 47km/h | 4116m | -2.6m/s | -2.1°C | 74.9% | 621.9hPa | 2.7V | 00:00:00 | 03:23:43 | 00:00:00 | |
| OE5DRO-10 | 2026-08-31 01:53:00 | 48.72609 | 13.66490 | 63° | 53km/h | 4121m | -2.7m/s | -2.1°C | 74.0% | 621.4hPa | 2.7V | 00:00:00 | 00:00:00 | 00:00:00 | |
| DO3MHA-11 | 2026-08-31 01:52:57 | 48.72592 | 13.66440 | 64° | 53km/h | 4129m | -2.5m/s | -2.2°C | 74.5% | 620.9hPa | 2.7V | 07:11:00 | 03:23:38 | 00:00:00 | |
| OE5MMP-10 | 2026-08-31 01:52:56 | 48.72586 | 13.66423 | 65° | 55km/h | 4132m | -2.5m/s | -2.2°C | 74.3% | 620.7hPa | 2.6V | 00:00:00 | 03:23:37 | 00:00:00 | |
| PG1ADW-2 | 2026-08-31 01:52:53 | 48.72569 | 13.66367 | 66° | 57km/h | 4139m | -2.6m/s | -2.3°C | 74.5% | 620.1hPa | 2.7V | 00:00:00 | 00:00:00 | 00:00:00 | |
| DO3MHA-11 | 2026-08-31 01:52:52 | 48.72564 | 13.66348 | 67° | 55km/h | 4142m | -2.5m/s | -2.3°C | 74.9% | 619.9hPa | 2.7V | 00:00:00 | 03:23:33 | 00:00:00 | |
| OE5DXL-15 | 2026-08-31 01:52:47 | 48.72537 | 13.66250 | 70° | 58km/h | 4155m | -2.4m/s | -2.4°C | 75.7% | 618.9hPa | 2.7V | 00:00:00 | 00:00:00 | 00:00:00 | |
| OE5MMP-10 | 2026-08-31 01:52:46 | 48.72532 | 13.66229 | 71° | 58km/h | 4157m | -2.5m/s | -2.4°C | 75.9% | 618.6hPa | 2.7V | 00:00:00 | 03:23:27 | 00:00:00 | |
| DO3MHA-11 | 2026-08-31 01:52:42 | 48.72513 | 13.66146 | 72° | 58km/h | 4168m | -2.4m/s | -2.5°C | 76.6% | 617.9hPa | 2.7V | 00:00:00 | 03:23:23 | 00:00:00 | |
| DO3MHA-11 | 2026-08-31 01:52:37 | 48.72490 | 13.66040 | 73° | 58km/h | 4181m | -2.7m/s | -2.6°C | 77.2% | 616.9hPa | 2.7V | 00:00:00 | 03:23:18 | 00:00:00 | |
| OE5MMP-10 | 2026-08-31 01:52:36 | 48.72486 | 13.66019 | 73° | 58km/h | 4184m | -2.6m/s | -2.6°C | 77.8% | 616.6hPa | 2.7V | 00:00:00 | 03:23:17 | 00:00:00 | |
| PG1ADW-2 | 2026-08-31 01:52:33 | 48.72473 | 13.65954 | 74° | 60km/h | 4192m | -2.7m/s | -2.7°C | 77.8% | 616.0hPa | 2.7V | 00:00:00 | 03:23:14 | 00:00:00 | |
| DO3MHA-11 | 2026-08-31 01:52:32 | 48.72469 | 13.65932 | 75° | 58km/h | 4195m | -2.7m/s | -2.7°C | 78.4% | 615.8hPa | 2.7V | 00:00:00 | 03:23:13 | 00:00:00 | |
| OE5WHR-10 | 2026-08-31 01:52:29 | 48.72457 | 13.65867 | 76° | 60km/h | 4203m | -2.8m/s | -2.7°C | 78.5% | 615.2hPa | 2.7V | 00:00:00 | 00:00:00 | 00:00:00 | |
| OE5DRO-10 | 2026-08-31 01:52:28 | 48.72453 | 13.65845 | 76° | 60km/h | 4206m | -2.8m/s | -2.8°C | 78.9% | 615.0hPa | 2.7V | 00:00:00 | 00:00:00 | 00:00:00 | |
| DO3MHA-11 | 2026-08-31 01:52:27 | 48.72449 | 13.65823 | 75° | 60km/h | 4209m | -2.8m/s | -2.8°C | 79.3% | 614.8hPa | 2.7V | 00:00:00 | 03:23:08 | 00:00:00 | |
| OE5MMP-10 | 2026-08-31 01:52:26 | 48.72445 | 13.65801 | 75° | 60km/h | 4211m | -2.6m/s | -2.8°C | 78.9% | 614.4hPa | 2.6V | 00:00:00 | 03:23:07 | 00:00:00 | |
| DG1MFX-10 | 2026-08-31 01:52:23 | 48.72438 | 13.65757 | 76° | 60km/h | 4217m | -2.8m/s | -2.9°C | 76.1% | 614.2hPa | 2.7V | 00:00:00 | 00:00:00 | 00:00:00 | |
| OE5FHM-15 | 2026-08-31 01:52:22 | 48.72430 | 13.65712 | 76° | 60km/h | 4222m | -2.7m/s | -3.0°C | 77.2% | 613.7hPa | 2.7V | 00:00:00 | 03:23:03 | 00:00:00 | |
| DO3MHA-11 | 2026-08-31 01:52:17 | 48.72411 | 13.65601 | 76° | 60km/h | 4236m | -2.7m/s | -3.2°C | 79.4% | 612.6hPa | 2.6V | 07:12:00 | 03:22:58 | 00:00:00 | |
| OE5MMP-10 | 2026-08-31 01:52:16 | 48.72407 | 13.65579 | 76° | 60km/h | 4239m | -2.7m/s | -3.2°C | 77.4% | 612.3hPa | 2.6V | 07:12:00 | 03:22:57 | 00:00:00 | |
| PG1ADW-2 | 2026-08-31 01:52:13 | 48.72396 | 13.65511 | 76° | 60km/h | 4247m | -2.7m/s | -3.3°C | 78.1% | 611.7hPa | 2.6V | 00:00:00 | 00:00:00 | 00:00:00 | |
| OE5WHR-10 | 2026-08-31 01:52:12 | 48.72392 | 13.65489 | 76° | 60km/h | 4250m | -2.6m/s | -3.4°C | 78.4% | 611.5hPa | 2.6V | 00:00:00 | 03:22:53 | 00:00:00 | |
| NBG1-10 | 2026-08-31 01:52:08 | 48.72377 | 13.65398 | 76° | 57km/h | 4261m | -2.8m/s | -3.6°C | 80.0% | 610.6hPa | 2.6V | 00:00:00 | 03:22:49 | 00:00:00 | |
| DO3MHA-11 | 2026-08-31 01:52:07 | 48.72373 | 13.65376 | 77° | 60km/h | 4264m | -2.8m/s | -3.6°C | 79.8% | 610.3hPa | 2.6V | 00:00:00 | 03:22:48 | 00:00:00 | |
| OE5MMP-10 | 2026-08-31 01:52:06 | 48.72370 | 13.65353 | 77° | 62km/h | 4267m | -2.9m/s | -3.7°C | 80.0% | 610.2hPa | 2.6V | 00:00:00 | 03:22:47 | 00:00:00 | |
| DO3MHA-11 | 2026-08-31 01:52:02 | 48.72356 | 13.65262 | 78° | 62km/h | 4278m | -2.7m/s | -3.9°C | 80.8% | 609.3hPa | 2.6V | 00:00:00 | 03:22:43 | 00:00:00 | |
| DO3MHA-11 | 2026-08-31 01:51:57 | 48.72341 | 13.65147 | 81° | 60km/h | 4291m | -2.6m/s | -4.1°C | 82.2% | 608.2hPa | 2.6V | 00:00:00 | 03:22:38 | 00:00:00 | |
| OE5DRO-10 | 2026-08-31 01:51:56 | 48.72338 | 13.65124 | 81° | 60km/h | 4294m | -2.6m/s | -4.2°C | 83.0% | 608.2hPa | 2.6V | 00:00:00 | 00:00:00 | 00:00:00 | |
| OE5WHR-10 | 2026-08-31 01:51:55 | 48.72336 | 13.65101 | 82° | 60km/h | 4297m | -2.7m/s | -4.2°C | 83.2% | 607.9hPa | 2.7V | 00:00:00 | 00:00:00 | 00:00:00 | |
| DO3MHA-11 | 2026-08-31 01:51:52 | 48.72329 | 13.65032 | 81° | 62km/h | 4305m | -2.8m/s | -4.4°C | 84.1% | 607.3hPa | 2.6V | 00:00:00 | 03:22:33 | 00:00:00 | |
| OE5DXL-15 | 2026-08-31 01:51:47 | 48.72317 | 13.64916 | 83° | 55km/h | 4320m | -2.7m/s | -4.6°C | 84.7% | 606.2hPa | 2.6V | 00:00:00 | 00:00:00 | 00:00:00 | |
| OE5MMP-10 | 2026-08-31 01:51:46 | 48.72315 | 13.64893 | 83° | 58km/h | 4322m | -2.8m/s | -4.6°C | 84.8% | 606.0hPa | 2.6V | 00:00:00 | 03:22:27 | 00:00:00 | |
| DO3MHA-11 | 2026-08-31 01:51:42 | 48.72308 | 13.64803 | 85° | 57km/h | 4334m | -2.8m/s | -4.7°C | 84.9% | 605.1hPa | 2.6V | 00:00:00 | 03:22:23 | 00:00:00 | |
| OE5HKT-10 | 2026-08-31 01:51:40 | 48.72305 | 13.64758 | 85° | 57km/h | 4339m | -2.7m/s | -4.7°C | 85.3% | 604.6hPa | 2.7V | 00:00:00 | 03:22:21 | 00:00:00 | |
| OE5WHR-10 | 2026-08-31 01:51:38 | 48.72302 | 13.64715 | 85° | 55km/h | 4345m | -2.5m/s | -4.8°C | 85.3% | 604.1hPa | 2.7V | 00:00:00 | 00:00:00 | 00:00:00 | |
| DO3MHA-11 | 2026-08-31 01:51:37 | 48.72301 | 13.64693 | 85° | 55km/h | 4347m | -2.7m/s | -4.8°C | 85.8% | 604.0hPa | 2.7V | 07:13:00 | 03:22:18 | 00:00:00 | |
| OE5MMP-10 | 2026-08-31 01:51:36 | 48.72300 | 13.64672 | 85° | 53km/h | 4350m | -2.8m/s | -4.8°C | 85.9% | 603.9hPa | 2.7V | 00:00:00 | 03:22:17 | 00:00:00 | |
| DO3MHA-11 | 2026-08-31 01:51:32 | 48.72295 | 13.64589 | 86° | 53km/h | 4362m | -2.9m/s | -4.9°C | 86.7% | 602.9hPa | 2.7V | 00:00:00 | 03:22:13 | 00:00:00 | |
| DO3MHA-11 | 2026-08-31 01:51:27 | 48.72289 | 13.64488 | 85° | 55km/h | 4376m | -2.8m/s | -5.0°C | 86.5% | 601.8hPa | 2.7V | 00:00:00 | 03:22:08 | 00:00:00 | |
| OE5MMP-10 | 2026-08-31 01:51:26 | 48.72288 | 13.64468 | 85° | 55km/h | 4379m | -2.7m/s | -5.0°C | 86.7% | 601.6hPa | 2.7V | 00:00:00 | 03:22:07 | 00:00:00 | |
| OE5DRO-10 | 2026-08-31 01:51:24 | 48.72286 | 13.64427 | 85° | 53km/h | 4385m | -3.0m/s | -5.1°C | 86.5% | 601.1hPa | 2.7V | 07:13:00 | 00:00:00 | 00:00:00 | |
| OE5FHM-15 | 2026-08-31 01:51:22 | 48.72283 | 13.64385 | 85° | 49km/h | 4391m | -3.1m/s | -5.1°C | 87.5% | 600.7hPa | 2.7V | 07:13:00 | 03:22:03 | 00:00:00 | |
| OE5WHR-10 | 2026-08-31 01:51:21 | 48.72282 | 13.64364 | 85° | 51km/h | 4394m | -2.9m/s | -5.1°C | 86.7% | 600.5hPa | 2.7V | 07:13:00 | 03:22:02 | 00:00:00 | |
| NBG1-10 | 2026-08-31 01:51:19 | 48.72279 | 13.64323 | 85° | 49km/h | 4399m | -2.9m/s | -5.2°C | 87.1% | 600.1hPa | 2.7V | 00:00:00 | 03:22:00 | 00:00:00 | |
| DO3MHA-11 | 2026-08-31 01:51:17 | 48.72276 | 13.64282 | 84° | 51km/h | 4405m | -2.9m/s | -5.2°C | 87.4% | 599.6hPa | 2.7V | 00:00:00 | 03:21:58 | 00:00:00 | |
| OE5MMP-10 | 2026-08-31 01:51:16 | 48.72275 | 13.64262 | 84° | 51km/h | 4408m | -3.0m/s | -5.2°C | 86.7% | 599.4hPa | 2.7V | 00:00:00 | 03:21:57 | 00:00:00 | |
| DO3MHA-11 | 2026-08-31 01:51:12 | 48.72268 | 13.64184 | 83° | 49km/h | 4420m | -3.0m/s | -5.3°C | 88.1% | 598.4hPa | 2.7V | 00:00:00 | 03:21:53 | 00:00:00 | |
| OE5DRO-10 | 2026-08-31 01:51:08 | 48.72260 | 13.64108 | 81° | 47km/h | 4432m | -3.0m/s | -5.4°C | 87.7% | 597.6hPa | 2.7V | 00:00:00 | 00:00:00 | 00:00:00 | |
| DO3MHA-11 | 2026-08-31 01:51:07 | 48.72258 | 13.64090 | 81° | 49km/h | 4435m | -3.0m/s | -5.4°C | 88.1% | 597.3hPa | 2.7V | 00:00:00 | 03:21:48 | 00:00:00 | |
| OE5WHR-10 | 2026-08-31 01:51:04 | 48.72252 | 13.64035 | 80° | 47km/h | 4445m | -3.3m/s | -5.4°C | 88.2% | 596.6hPa | 2.7V | 00:00:00 | 00:00:00 | 00:00:00 | |
| DO3MHA-11 | 2026-08-31 01:51:02 | 48.72247 | 13.63998 | 79° | 47km/h | 4452m | -3.1m/s | -5.4°C | 88.7% | 596.1hPa | 2.7V | 00:00:00 | 03:21:43 | 00:00:00 | |
| DO3MHA-11 | 2026-08-31 01:50:57 | 48.72235 | 13.63910 | 77° | 47km/h | 4468m | -3.4m/s | -5.5°C | 88.9% | 594.8hPa | 2.7V | 07:13:00 | 03:21:38 | 00:00:00 | |
| OE5MMP-10 | 2026-08-31 01:50:56 | 48.72232 | 13.63892 | 77° | 47km/h | 4471m | -3.2m/s | -5.5°C | 88.5% | 594.5hPa | 2.6V | 07:13:00 | 03:21:37 | 00:00:00 | |
| DO3MHA-11 | 2026-08-31 01:50:52 | 48.72220 | 13.63824 | 73° | 47km/h | 4484m | -3.0m/s | -5.6°C | 89.2% | 593.8hPa | 2.6V | 00:00:00 | 03:21:33 | 00:00:00 | |
| OE5WHR-10 | 2026-08-31 01:50:47 | 48.72201 | 13.63739 | 70° | 46km/h | 4499m | -3.1m/s | -5.6°C | 89.9% | 592.4hPa | 2.6V | 00:00:00 | 00:00:00 | 00:00:00 | |
| OE5MMP-10 | 2026-08-31 01:50:46 | 48.72197 | 13.63722 | 70° | 46km/h | 4503m | -3.1m/s | -5.6°C | 89.7% | 592.2hPa | 2.6V | 00:00:00 | 03:21:27 | 00:00:00 | |
| DO3MHA-11 | 2026-08-31 01:50:42 | 48.72180 | 13.63655 | 69° | 46km/h | 4515m | -2.9m/s | -5.7°C | 89.7% | 591.4hPa | 2.6V | 00:00:00 | 03:21:23 | 00:00:00 | |
| DO3MHA-11 | 2026-08-31 01:50:37 | 48.72159 | 13.63573 | 70° | 46km/h | 4529m | -2.5m/s | -5.7°C | 90.4% | 590.1hPa | 2.7V | 00:00:00 | 03:21:18 | 00:00:00 | |
| OE5HKT-10 | 2026-08-31 01:50:36 | 48.72155 | 13.63556 | 70° | 46km/h | 4531m | -2.6m/s | -5.8°C | 90.0% | 589.9hPa | 2.7V | 07:14:00 | 00:00:00 | 00:00:00 | |
| DO3MHA-11 | 2026-08-31 01:50:32 | 48.72139 | 13.63492 | 70° | 44km/h | 4543m | -2.9m/s | -5.8°C | 90.3% | 589.3hPa | 2.6V | 00:00:00 | 03:21:13 | 00:00:00 | |
| OE5WHR-10 | 2026-08-31 01:50:30 | 48.72131 | 13.63461 | 70° | 42km/h | 4549m | -2.7m/s | -5.8°C | 90.6% | 588.8hPa | 2.6V | 00:00:00 | 03:21:11 | 00:00:00 | |
| DO3MHA-11 | 2026-08-31 01:50:27 | 48.72119 | 13.63415 | 68° | 42km/h | 4556m | -2.5m/s | -5.5°C | 91.0% | 588.2hPa | 2.6V | 00:00:00 | 03:21:08 | 00:00:00 | |
| OE5MMP-10 | 2026-08-31 01:50:26 | 48.72115 | 13.63400 | 68° | 42km/h | 4560m | -3.0m/s | -5.5°C | 91.3% | 587.9hPa | 2.7V | 00:00:00 | 03:21:07 | 00:00:00 | |
| DO3MHA-11 | 2026-08-31 01:50:22 | 48.72097 | 13.63342 | 62° | 42km/h | 4571m | -3.0m/s | -5.6°C | 91.7% | 587.0hPa | 2.6V | 00:00:00 | 03:21:03 | 00:00:00 | |
| OE5DRO-10 | 2026-08-31 01:50:20 | 48.72086 | 13.63314 | 60° | 42km/h | 4576m | -2.7m/s | -5.6°C | 91.6% | 586.6hPa | 2.6V | 00:00:00 | 00:00:00 | 00:00:00 | |
| DO3MHA-11 | 2026-08-31 01:50:17 | 48.72070 | 13.63272 | 58° | 44km/h | 4585m | -3.3m/s | -5.2°C | 92.3% | 586.0hPa | 2.6V | 07:14:00 | 03:20:58 | 00:00:00 | |
| OE5MMP-10 | 2026-08-31 01:50:16 | 48.72064 | 13.63258 | 56° | 44km/h | 4589m | -3.3m/s | -5.0°C | 93.3% | 585.8hPa | 2.6V | 00:00:00 | 03:20:57 | 00:00:00 | |
| OE5WHR-10 | 2026-08-31 01:50:13 | 48.72044 | 13.63219 | 54° | 44km/h | 4599m | -3.2m/s | -4.9°C | 93.4% | 585.1hPa | 2.6V | 00:00:00 | 00:00:00 | 00:00:00 | |
| DO3MHA-11 | 2026-08-31 01:50:12 | 48.72038 | 13.63205 | 53° | 44km/h | 4602m | -2.9m/s | -4.9°C | 93.2% | 584.8hPa | 2.7V | 00:00:00 | 03:20:53 | 00:00:00 | |
| DO3MHA-11 | 2026-08-31 01:50:07 | 48.72003 | 13.63141 | 50° | 42km/h | 4619m | -3.2m/s | -5.0°C | 93.6% | 583.6hPa | 2.7V | 00:00:00 | 03:20:48 | 00:00:00 | |
| OE5MMP-10 | 2026-08-31 01:50:06 | 48.71996 | 13.63129 | 50° | 44km/h | 4622m | -3.4m/s | -5.0°C | 93.3% | 583.3hPa | 2.7V | 00:00:00 | 03:20:47 | 00:00:00 | |
| OE5DRO-10 | 2026-08-31 01:50:04 | 48.71982 | 13.63104 | 50° | 46km/h | 4628m | -3.4m/s | -5.0°C | 93.5% | 582.8hPa | 2.7V | 00:00:00 | 00:00:00 | 00:00:00 | |
| DO3MHA-11 | 2026-08-31 01:50:02 | 48.71968 | 13.63080 | 48° | 44km/h | 4635m | -3.4m/s | -4.8°C | 93.6% | 582.3hPa | 2.7V | 00:00:00 | 03:20:43 | 00:00:00 | |
| DO3MHA-11 | 2026-08-31 01:49:57 | 48.71930 | 13.63018 | 46° | 47km/h | 4651m | -3.1m/s | -5.0°C | 94.1% | 581.0hPa | 2.7V | 00:00:00 | 03:20:38 | 00:00:00 | |
| OE5WHR-10 | 2026-08-31 01:49:56 | 48.71922 | 13.63006 | 46° | 51km/h | 4654m | -3.3m/s | -5.1°C | 94.1% | 580.9hPa | 2.7V | 00:00:00 | 00:00:00 | 00:00:00 | |
| OE5FHM-15 | 2026-08-31 01:49:52 | 48.71888 | 13.62953 | 47° | 49km/h | 4668m | -3.3m/s | -5.1°C | 94.8% | 579.8hPa | 2.7V | 00:00:00 | 03:20:33 | 00:00:00 | |
| OE5DRO-10 | 2026-08-31 01:49:48 | 48.71854 | 13.62894 | 51° | 53km/h | 4681m | -3.4m/s | -5.2°C | 94.6% | 578.9hPa | 2.7V | 00:00:00 | 00:00:00 | 00:00:00 | |
| OE5DXL-15 | 2026-08-31 01:49:47 | 48.71845 | 13.62879 | 51° | 47km/h | 4684m | -3.1m/s | -5.1°C | 95.2% | 578.7hPa | 2.7V | 07:14:00 | 00:00:00 | 00:00:00 | |
| OE5MMP-10 | 2026-08-31 01:49:46 | 48.71837 | 13.62863 | 52° | 53km/h | 4688m | -3.0m/s | -5.1°C | 94.9% | 578.4hPa | 2.7V | 00:00:00 | 03:20:27 | 00:00:00 | |
| DO3MHA-11 | 2026-08-31 01:49:42 | 48.71804 | 13.62799 | 52° | 53km/h | 4700m | -2.9m/s | -5.1°C | 94.8% | 577.6hPa | 2.7V | 00:00:00 | 03:20:23 | 00:00:00 | |
| NBG1-10 | 2026-08-31 01:49:40 | 48.71787 | 13.62767 | 53° | 42km/h | 4706m | -3.3m/s | -5.1°C | 95.1% | 577.2hPa | 2.7V | 00:00:00 | 03:20:21 | 00:00:00 | |
| OE5WHR-10 | 2026-08-31 01:49:39 | 48.71779 | 13.62751 | 53° | 46km/h | 4709m | -3.2m/s | -5.2°C | 95.3% | 577.0hPa | 2.7V | 00:00:00 | 03:20:20 | 00:00:00 | |
| DO3MHA-11 | 2026-08-31 01:49:37 | 48.71763 | 13.62718 | 55° | 51km/h | 4716m | -3.0m/s | -5.2°C | 95.4% | 576.4hPa | 2.7V | 07:15:00 | 03:20:18 | 00:00:00 | |
| OE5MMP-10 | 2026-08-31 01:49:36 | 48.71756 | 13.62701 | 56° | 47km/h | 4719m | -2.9m/s | -5.2°C | 95.4% | 576.2hPa | 2.7V | 07:15:00 | 03:20:17 | 00:00:00 | |
| DO3MHA-11 | 2026-08-31 01:49:32 | 48.71730 | 13.62636 | 63° | 44km/h | 4730m | -2.6m/s | -5.3°C | 95.4% | 575.4hPa | 2.7V | 00:00:00 | 03:20:13 | 00:00:00 | |
| DO3MHA-11 | 2026-08-31 01:49:27 | 48.71705 | 13.62561 | 65° | 40km/h | 4743m | -2.2m/s | -5.3°C | 95.3% | 574.4hPa | 2.7V | 00:00:00 | 03:20:08 | 00:00:00 | |
| OE5MMP-10 | 2026-08-31 01:49:26 | 48.71700 | 13.62547 | 65° | 38km/h | 4746m | -2.0m/s | -5.3°C | 95.0% | 574.2hPa | 2.7V | 00:00:00 | 03:20:07 | 00:00:00 | |
| OE5FHM-15 | 2026-08-31 01:49:22 | 48.71682 | 13.62492 | 63° | 33km/h | 4755m | -2.7m/s | -5.4°C | 95.1% | 573.6hPa | 2.7V | 00:00:00 | 03:20:03 | 00:00:00 | |
| OE5DXL-15 | 2026-08-31 01:49:17 | 48.71660 | 13.62428 | 61° | 33km/h | 4768m | -2.6m/s | -5.4°C | 95.6% | 572.7hPa | 2.7V | 00:00:00 | 00:00:00 | 00:00:00 | |
| OE5MMP-10 | 2026-08-31 01:49:16 | 48.71655 | 13.62416 | 61° | 35km/h | 4770m | -2.5m/s | -5.4°C | 95.3% | 572.4hPa | 2.6V | 00:00:00 | 03:19:57 | 00:00:00 | |
| DO3MHA-11 | 2026-08-31 01:49:12 | 48.71637 | 13.62368 | 60° | 35km/h | 4781m | -2.9m/s | -5.5°C | 95.7% | 571.6hPa | 2.6V | 00:00:00 | 03:19:53 | 00:00:00 | |
| DO3MHA-11 | 2026-08-31 01:49:07 | 48.71614 | 13.62310 | 60° | 33km/h | 4796m | -2.7m/s | -5.6°C | 96.1% | 570.6hPa | 2.7V | 00:00:00 | 03:19:48 | 00:00:00 | |
| OE5MMP-10 | 2026-08-31 01:49:06 | 48.71610 | 13.62299 | 59° | 31km/h | 4798m | -2.4m/s | -5.6°C | 96.0% | 570.4hPa | 2.7V | 00:00:00 | 03:19:47 | 00:00:00 | |
| OE5WHR-10 | 2026-08-31 01:49:05 | 48.71606 | 13.62288 | 58° | 29km/h | 4801m | -2.3m/s | -5.6°C | 96.0% | 570.2hPa | 2.7V | 07:15:00 | 00:00:00 | 00:00:00 | |
| DO3MHA-11 | 2026-08-31 01:49:02 | 48.71592 | 13.62259 | 54° | 29km/h | 4809m | -2.8m/s | -5.6°C | 96.1% | 569.7hPa | 2.7V | 00:00:00 | 03:19:43 | 00:00:00 | |
| OE5DRO-10 | 2026-08-31 01:49:00 | 48.71583 | 13.62241 | 52° | 29km/h | 4814m | -2.7m/s | -5.7°C | 96.5% | 569.3hPa | 2.7V | 00:00:00 | 00:00:00 | 00:00:00 | |
| DO3MHA-11 | 2026-08-31 01:48:57 | 48.71569 | 13.62215 | 48° | 29km/h | 4823m | -2.5m/s | -5.7°C | 96.5% | 568.7hPa | 2.7V | 07:15:00 | 03:19:38 | 00:00:00 | |
| OE5MMP-10 | 2026-08-31 01:48:56 | 48.71564 | 13.62207 | 46° | 29km/h | 4826m | -2.9m/s | -5.7°C | 96.7% | 568.4hPa | 2.7V | 00:00:00 | 03:19:37 | 00:00:00 | |
| DO3MHA-11 | 2026-08-31 01:48:52 | 48.71542 | 13.62176 | 41° | 29km/h | 4838m | -3.1m/s | -5.8°C | 96.9% | 567.6hPa | 2.6V | 00:00:00 | 03:19:33 | 00:00:00 | |
| OE5WHR-10 | 2026-08-31 01:48:48 | 48.71519 | 13.62146 | 39° | 33km/h | 4850m | -2.8m/s | -5.9°C | 97.1% | 566.8hPa | 2.6V | 00:00:00 | 03:19:29 | 00:00:00 | |
| OE5DXL-15 | 2026-08-31 01:48:47 | 48.71513 | 13.62139 | 40° | 37km/h | 4853m | -3.0m/s | -5.9°C | 96.9% | 566.5hPa | 2.6V | 00:00:00 | 00:00:00 | 00:00:00 | |
| OE5MMP-10 | 2026-08-31 01:48:46 | 48.71507 | 13.62132 | 40° | 31km/h | 4856m | -2.8m/s | -5.9°C | 97.0% | 566.3hPa | 2.6V | 00:00:00 | 03:19:27 | 00:00:00 | |
| OE5DRO-10 | 2026-08-31 01:48:44 | 48.71496 | 13.62118 | 40° | 35km/h | 4862m | -3.0m/s | -5.9°C | 97.2% | 565.9hPa | 2.6V | 00:00:00 | 00:00:00 | 00:00:00 | |
| DO3MHA-11 | 2026-08-31 01:48:42 | 48.71484 | 13.62104 | 39° | 31km/h | 4868m | -3.0m/s | -5.9°C | 97.1% | 565.4hPa | 2.7V | 00:00:00 | 03:19:23 | 00:00:00 | |
| DO3MHA-11 | 2026-08-31 01:48:37 | 48.71452 | 13.62067 | 37° | 38km/h | 4883m | -2.6m/s | -6.0°C | 97.8% | 564.4hPa | 2.6V | 00:00:00 | 03:19:18 | 00:00:00 | |
| OE5MMP-10 | 2026-08-31 01:48:36 | 48.71444 | 13.62059 | 37° | 40km/h | 4885m | -2.6m/s | -6.0°C | 97.7% | 564.1hPa | 2.6V | 00:00:00 | 03:19:17 | 00:00:00 | |
| NBG1-10 | 2026-08-31 01:48:34 | 48.71429 | 13.62041 | 38° | 40km/h | 4891m | -2.6m/s | -6.1°C | 97.8% | 563.7hPa | 2.6V | 00:00:00 | 03:19:15 | 00:00:00 | |
| DO3MHA-11 | 2026-08-31 01:48:32 | 48.71413 | 13.62023 | 39° | 40km/h | 4896m | -2.6m/s | -6.1°C | 98.0% | 563.3hPa | 2.6V | 00:00:00 | 03:19:13 | 00:00:00 | |
| OE5WHR-10 | 2026-08-31 01:48:31 | 48.71405 | 13.62013 | 38° | 42km/h | 4898m | -2.7m/s | -6.1°C | 98.1% | 563.1hPa | 2.6V | 00:00:00 | 00:00:00 | 00:00:00 | |
| OE5DRO-10 | 2026-08-31 01:48:28 | 48.71381 | 13.61984 | 39° | 42km/h | 4907m | -2.9m/s | -6.2°C | 97.7% | 562.5hPa | 2.7V | 00:00:00 | 00:00:00 | 00:00:00 | |
| DO3MHA-11 | 2026-08-31 01:48:27 | 48.71373 | 13.61975 | 39° | 42km/h | 4910m | -2.9m/s | -6.1°C | 97.5% | 562.3hPa | 2.7V | 00:00:00 | 03:19:08 | 00:00:00 | |
| OE5MMP-10 | 2026-08-31 01:48:26 | 48.71364 | 13.61965 | 40° | 42km/h | 4913m | -2.8m/s | -6.1°C | 97.4% | 562.1hPa | 2.6V | 00:00:00 | 03:19:07 | 00:00:00 | |
| OE5FHM-15 | 2026-08-31 01:48:22 | 48.71332 | 13.61923 | 43° | 35km/h | 4924m | -2.7m/s | -6.2°C | 97.8% | 561.3hPa | 2.6V | 00:00:00 | 03:19:03 | 00:00:00 | |
| OE5DXL-15 | 2026-08-31 01:48:17 | 48.71294 | 13.61864 | 50° | 35km/h | 4938m | -2.6m/s | -6.2°C | 97.9% | 560.3hPa | 2.6V | 00:00:00 | 00:00:00 | 00:00:00 | |
| OE5MMP-10 | 2026-08-31 01:48:16 | 48.71287 | 13.61851 | 52° | 40km/h | 4941m | -2.6m/s | -6.2°C | 97.7% | 560.1hPa | 2.6V | 07:16:00 | 03:18:57 | 00:00:00 | |
| OE5WHR-10 | 2026-08-31 01:48:14 | 48.71274 | 13.61826 | 54° | 37km/h | 4946m | -2.5m/s | -6.3°C | 98.1% | 559.8hPa | 2.6V | 00:00:00 | 00:00:00 | 00:00:00 | |
| DO3MHA-11 | 2026-08-31 01:48:12 | 48.71262 | 13.61800 | 56° | 40km/h | 4951m | -2.5m/s | -6.3°C | 98.1% | 559.5hPa | 2.6V | 00:00:00 | 03:18:53 | 00:00:00 | |
| DO3MHA-11 | 2026-08-31 01:48:07 | 48.71234 | 13.61737 | 58° | 37km/h | 4963m | -2.6m/s | -6.4°C | 97.4% | 558.6hPa | 2.7V | 00:00:00 | 03:18:48 | 00:00:00 | |
| OE5MMP-10 | 2026-08-31 01:48:06 | 48.71229 | 13.61724 | 59° | 33km/h | 4966m | -2.6m/s | -6.4°C | 97.4% | 558.3hPa | 2.7V | 00:00:00 | 03:18:47 | 00:00:00 | |
| DG1MFX-10 | 2026-08-31 01:48:05 | 48.71229 | 13.61724 | 59° | 38km/h | 4966m | -2.6m/s | -6.4°C | 95.3% | 558.4hPa | 2.7V | 07:17:00 | 00:00:00 | 00:00:00 | |
| DO3MHA-11 | 2026-08-31 01:48:02 | 48.71210 | 13.61679 | 58° | 31km/h | 4976m | -2.5m/s | -6.5°C | 97.9% | 557.6hPa | 2.7V | 00:00:00 | 03:18:43 | 00:00:00 | |
| NBG1-10 | 2026-08-31 01:48:01 | 48.71206 | 13.61668 | 57° | 33km/h | 4979m | -2.6m/s | -6.5°C | 97.9% | 557.5hPa | 2.7V | 00:00:00 | 03:18:42 | 00:00:00 | |
| OE5HKT-10 | 2026-08-31 01:47:59 | 48.71197 | 13.61649 | 55° | 31km/h | 4984m | -2.3m/s | -6.5°C | 98.1% | 557.0hPa | 2.7V | 00:00:00 | 00:00:00 | 00:00:00 | |
| OE5WHR-10 | 2026-08-31 01:47:57 | 48.71188 | 13.61630 | 52° | 31km/h | 4989m | -2.4m/s | -6.5°C | 98.1% | 556.8hPa | 2.7V | 00:00:00 | 03:18:38 | 00:00:00 | |
| OE5MMP-10 | 2026-08-31 01:47:56 | 48.71184 | 13.61622 | 50° | 29km/h | 4991m | -2.5m/s | -6.5°C | 98.1% | 556.6hPa | 2.7V | 00:00:00 | 03:18:37 | 00:00:00 | |
| OE5FHM-15 | 2026-08-31 01:47:52 | 48.71163 | 13.61590 | 43° | 33km/h | 5001m | -2.4m/s | -6.6°C | 98.0% | 555.8hPa | 2.6V | 00:00:00 | 03:18:33 | 00:00:00 | |
| OE5DXL-15 | 2026-08-31 01:47:47 | 48.71134 | 13.61553 | 39° | 33km/h | 5014m | -2.3m/s | -6.7°C | 98.1% | 554.9hPa | 2.6V | 00:00:00 | 00:00:00 | 00:00:00 | |
| OE5MMP-10 | 2026-08-31 01:47:46 | 48.71128 | 13.61545 | 38° | 33km/h | 5016m | -2.5m/s | -6.7°C | 98.1% | 554.8hPa | 2.6V | 00:00:00 | 03:18:27 | 00:00:00 | |
| DG1MFX-10 | 2026-08-31 01:47:45 | 48.71128 | 13.61545 | 38° | 31km/h | 5016m | -2.6m/s | -6.7°C | 95.9% | 554.9hPa | 2.6V | 07:17:00 | 00:00:00 | 00:00:00 | |
| DO3MHA-11 | 2026-08-31 01:47:42 | 48.71102 | 13.61517 | 35° | 35km/h | 5026m | -2.4m/s | -6.7°C | 98.0% | 554.1hPa | 2.6V | 00:00:00 | 03:18:23 | 00:00:00 | |
| OE5WHR-10 | 2026-08-31 01:47:40 | 48.71088 | 13.61502 | 34° | 35km/h | 5031m | -2.5m/s | -6.8°C | 97.9% | 553.6hPa | 2.6V | 00:00:00 | 00:00:00 | 00:00:00 | |
| OE5MMP-10 | 2026-08-31 01:47:36 | 48.71058 | 13.61473 | 33° | 35km/h | 5042m | -2.8m/s | -6.8°C | 97.7% | 552.8hPa | 2.7V | 00:00:00 | 03:18:17 | 00:00:00 | |
| DO3MHA-11 | 2026-08-31 01:47:32 | 48.71028 | 13.61445 | 33° | 33km/h | 5054m | -2.8m/s | -6.9°C | 97.6% | 552.1hPa | 2.7V | 00:00:00 | 03:18:13 | 00:00:00 | |
| NBG1-10 | 2026-08-31 01:47:28 | 48.70998 | 13.61417 | 34° | 33km/h | 5065m | -2.6m/s | -7.0°C | 97.7% | 551.3hPa | 2.7V | 00:00:00 | 03:18:09 | 00:00:00 | |
| OE5MMP-10 | 2026-08-31 01:47:26 | 48.70984 | 13.61403 | 35° | 31km/h | 5070m | -2.5m/s | -7.0°C | 97.4% | 551.0hPa | 2.7V | 00:00:00 | 03:18:07 | 00:00:00 | |
| OE5DRO-10 | 2026-08-31 01:47:24 | 48.70971 | 13.61389 | 38° | 31km/h | 5075m | -2.4m/s | -7.0°C | 97.4% | 550.6hPa | 2.6V | 00:00:00 | 00:00:00 | 00:00:00 | |
| OE5WHR-10 | 2026-08-31 01:47:23 | 48.70965 | 13.61381 | 40° | 31km/h | 5078m | -2.4m/s | -7.0°C | 97.3% | 550.4hPa | 2.6V | 00:00:00 | 00:00:00 | 00:00:00 | |
| OE5FHM-15 | 2026-08-31 01:47:22 | 48.70959 | 13.61374 | 42° | 33km/h | 5080m | -2.4m/s | -7.1°C | 97.1% | 550.2hPa | 2.6V | 07:17:00 | 03:18:03 | 00:00:00 | |
| OE5DXL-15 | 2026-08-31 01:47:17 | 48.70932 | 13.61333 | 46° | 35km/h | 5093m | -2.7m/s | -7.2°C | 96.9% | 549.4hPa | 2.6V | 00:00:00 | 00:00:00 | 00:00:00 | |
| OE5MMP-10 | 2026-08-31 01:47:16 | 48.70926 | 13.61325 | 46° | 31km/h | 5096m | -2.5m/s | -7.2°C | 97.1% | 549.2hPa | 2.6V | 00:00:00 | 03:17:57 | 00:00:00 | |
| DO3MHA-11 | 2026-08-31 01:47:12 | 48.70904 | 13.61293 | 41° | 31km/h | 5107m | -3.0m/s | -7.2°C | 96.9% | 548.4hPa | 2.6V | 00:00:00 | 03:17:53 | 00:00:00 | |
| OE5DRO-10 | 2026-08-31 01:47:08 | 48.70880 | 13.61263 | 37° | 35km/h | 5118m | -2.6m/s | -7.3°C | 96.4% | 547.6hPa | 2.6V | 07:17:00 | 00:00:00 | 00:00:00 | |
| OE5MMP-10 | 2026-08-31 01:47:06 | 48.70867 | 13.61249 | 35° | 35km/h | 5123m | -2.7m/s | -7.3°C | 96.0% | 547.3hPa | 2.6V | 00:00:00 | 03:17:47 | 00:00:00 | |
| DG1MFX-10 | 2026-08-31 01:47:03 | 48.70853 | 13.61235 | 34° | 33km/h | 5128m | -2.6m/s | -7.4°C | 93.8% | 547.0hPa | 2.6V | 00:00:00 | 00:00:00 | 00:00:00 | |
| OE5MMP-10 | 2026-08-31 01:46:56 | 48.70791 | 13.61179 | 31° | 40km/h | 5149m | -2.6m/s | -7.5°C | 96.2% | 545.4hPa | 2.6V | 07:17:00 | 03:17:37 | 00:00:00 | |
| NBG1-10 | 2026-08-31 01:46:55 | 48.70783 | 13.61171 | 31° | 40km/h | 5152m | -2.7m/s | -7.5°C | 96.1% | 545.2hPa | 2.6V | 00:00:00 | 03:17:36 | 00:00:00 | |
| DO3MHA-11 | 2026-08-31 01:46:52 | 48.70756 | 13.61149 | 31° | 40km/h | 5160m | -2.6m/s | -7.5°C | 96.4% | 544.6hPa | 2.6V | 00:00:00 | 03:17:33 | 00:00:00 | |
| OE5WHR-10 | 2026-08-31 01:46:49 | 48.70730 | 13.61126 | 30° | 38km/h | 5168m | -2.8m/s | -7.6°C | 96.6% | 544.1hPa | 2.6V | 07:17:00 | 00:00:00 | 00:00:00 | |
| OE5DXL-15 | 2026-08-31 01:46:47 | 48.70713 | 13.61111 | 30° | 40km/h | 5174m | -2.8m/s | -7.6°C | 96.4% | 543.7hPa | 2.7V | 00:00:00 | 00:00:00 | 00:00:00 | |
| OE5MMP-10 | 2026-08-31 01:46:46 | 48.70704 | 13.61103 | 30° | 38km/h | 5177m | -2.7m/s | -7.6°C | 96.3% | 543.5hPa | 2.7V | 00:00:00 | 03:17:27 | 00:00:00 | |
| DO3MHA-11 | 2026-08-31 01:46:42 | 48.70670 | 13.61074 | 30° | 38km/h | 5188m | -2.8m/s | -7.7°C | 96.3% | 542.7hPa | 2.7V | 00:00:00 | 03:17:23 | 00:00:00 | |
| OE5HKT-10 | 2026-08-31 01:46:39 | 48.70644 | 13.61052 | 29° | 40km/h | 5196m | -2.8m/s | -7.7°C | 97.0% | 542.1hPa | 2.7V | 00:00:00 | 03:17:20 | 00:00:00 | |
| OE5MMP-10 | 2026-08-31 01:46:36 | 48.70619 | 13.61032 | 29° | 40km/h | 5204m | -2.7m/s | -7.8°C | 96.9% | 541.6hPa | 2.7V | 00:00:00 | 03:17:17 | 00:00:00 | |
| OE5WHR-10 | 2026-08-31 01:46:32 | 48.70584 | 13.61004 | 28° | 42km/h | 5216m | -2.7m/s | -7.9°C | 96.8% | 540.8hPa | 2.7V | 00:00:00 | 00:00:00 | 00:00:00 | |
| OE5MMP-10 | 2026-08-31 01:46:26 | 48.70529 | 13.60961 | 28° | 42km/h | 5233m | -2.8m/s | -8.0°C | 96.9% | 539.5hPa | 2.7V | 00:00:00 | 03:17:07 | 00:00:00 | |
| DO3MHA-11 | 2026-08-31 01:46:22 | 48.70492 | 13.60932 | 27° | 44km/h | 5243m | -2.7m/s | -8.0°C | 96.2% | 538.8hPa | 2.7V | 00:00:00 | 03:17:03 | 00:00:00 | |
| OE5DRO-10 | 2026-08-31 01:46:20 | 48.70473 | 13.60918 | 28° | 46km/h | 5249m | -2.7m/s | -8.1°C | 96.4% | 538.4hPa | 2.7V | 00:00:00 | 00:00:00 | 00:00:00 | |
| OE5DXL-15 | 2026-08-31 01:46:17 | 48.70443 | 13.60895 | 28° | 47km/h | 5257m | -2.7m/s | -8.1°C | 96.2% | 537.8hPa | 2.7V | 00:00:00 | 00:00:00 | 00:00:00 | |
| OE5MMP-10 | 2026-08-31 01:46:16 | 48.70434 | 13.60887 | 29° | 46km/h | 5260m | -2.7m/s | -8.1°C | 96.4% | 537.6hPa | 2.7V | 00:00:00 | 03:16:57 | 00:00:00 | |
| OE5WHR-10 | 2026-08-31 01:46:15 | 48.70423 | 13.60879 | 29° | 47km/h | 5262m | -2.7m/s | -8.1°C | 96.4% | 537.4hPa | 2.7V | 00:00:00 | 03:16:56 | 00:00:00 | |
| DO3MHA-11 | 2026-08-31 01:46:12 | 48.70393 | 13.60854 | 30° | 47km/h | 5270m | -2.7m/s | -8.2°C | 96.2% | 537.0hPa | 2.7V | 00:00:00 | 03:16:53 | 00:00:00 | |
| OE5MMP-10 | 2026-08-31 01:46:06 | 48.70332 | 13.60799 | 32° | 49km/h | 5286m | -2.6m/s | -8.2°C | 96.1% | 535.8hPa | 2.7V | 00:00:00 | 03:16:47 | 00:00:00 | |
| OE5DRO-10 | 2026-08-31 01:46:04 | 48.70310 | 13.60779 | 32° | 49km/h | 5292m | -2.7m/s | -8.2°C | 96.6% | 535.4hPa | 2.7V | 00:00:00 | 00:00:00 | 00:00:00 | |
| DO3MHA-11 | 2026-08-31 01:46:02 | 48.70290 | 13.60760 | 33° | 49km/h | 5297m | -2.6m/s | -8.3°C | 96.4% | 535.1hPa | 2.7V | 07:18:00 | 03:16:43 | 00:00:00 | |
| OE5WHR-10 | 2026-08-31 01:45:58 | 48.70249 | 13.60718 | 35° | 49km/h | 5308m | -2.5m/s | -8.3°C | 96.7% | 534.3hPa | 2.7V | 00:00:00 | 00:00:00 | 00:00:00 | |
| OE5MMP-10 | 2026-08-31 01:45:56 | 48.70228 | 13.60697 | 35° | 49km/h | 5313m | -2.5m/s | -8.3°C | 96.9% | 534.0hPa | 2.7V | 00:00:00 | 03:16:37 | 00:00:00 | |
| DO3MHA-11 | 2026-08-31 01:45:52 | 48.70186 | 13.60654 | 35° | 49km/h | 5324m | -2.5m/s | -8.4°C | 96.9% | 533.2hPa | 2.7V | 00:00:00 | 03:16:33 | 00:00:00 | |
| OE5DRO-10 | 2026-08-31 01:45:48 | 48.70145 | 13.60610 | 38° | 49km/h | 5334m | -2.6m/s | -8.4°C | 96.6% | 532.6hPa | 2.7V | 00:00:00 | 00:00:00 | 00:00:00 | |
| OE5DXL-15 | 2026-08-31 01:45:47 | 48.70136 | 13.60598 | 38° | 51km/h | 5337m | -2.7m/s | -8.4°C | 96.7% | 532.4hPa | 2.7V | 07:18:00 | 00:00:00 | 00:00:00 | |
| OE5MMP-10 | 2026-08-31 01:45:46 | 48.70125 | 13.60587 | 38° | 49km/h | 5339m | -2.7m/s | -8.4°C | 96.7% | 532.1hPa | 2.7V | 00:00:00 | 03:16:27 | 00:00:00 | |
| DO3MHA-11 | 2026-08-31 01:45:42 | 48.70085 | 13.60540 | 38° | 51km/h | 5350m | -2.7m/s | -8.5°C | 97.0% | 531.4hPa | 2.7V | 00:00:00 | 03:16:23 | 00:00:00 | |
| OE5WHR-10 | 2026-08-31 01:45:41 | 48.70075 | 13.60529 | 37° | 51km/h | 5353m | -2.6m/s | -8.5°C | 97.0% | 531.3hPa | 2.7V | 00:00:00 | 00:00:00 | 00:00:00 | |
| OE5MMP-10 | 2026-08-31 01:45:36 | 48.70024 | 13.60472 | 37° | 51km/h | 5365m | -2.4m/s | -8.6°C | 97.0% | 530.4hPa | 2.7V | 07:19:00 | 03:16:17 | 00:00:00 | |
| DO3MHA-11 | 2026-08-31 01:45:32 | 48.69984 | 13.60424 | 39° | 51km/h | 5375m | -2.6m/s | -8.7°C | 96.6% | 529.6hPa | 2.7V | 00:00:00 | 03:16:13 | 00:00:00 | |
| OE5MMP-10 | 2026-08-31 01:45:26 | 48.69923 | 13.60353 | 37° | 51km/h | 5391m | -2.7m/s | -8.8°C | 96.7% | 528.6hPa | 2.7V | 00:00:00 | 03:16:07 | 00:00:00 | |
| OE5WHR-10 | 2026-08-31 01:45:24 | 48.69902 | 13.60329 | 38° | 51km/h | 5396m | -2.6m/s | -8.8°C | 96.5% | 528.2hPa | 2.6V | 00:00:00 | 03:16:05 | 00:00:00 | |
| OE5FHM-15 | 2026-08-31 01:45:22 | 48.69882 | 13.60306 | 38° | 49km/h | 5401m | -2.5m/s | -8.8°C | 96.6% | 527.8hPa | 2.6V | 00:00:00 | 03:16:03 | 00:00:00 | |
| OE5DXL-15 | 2026-08-31 01:45:17 | 48.69831 | 13.60245 | 39° | 49km/h | 5414m | -2.4m/s | -8.9°C | 96.7% | 527.1hPa | 2.6V | 00:00:00 | 00:00:00 | 00:00:00 | |
| OE5MMP-10 | 2026-08-31 01:45:16 | 48.69821 | 13.60233 | 40° | 51km/h | 5417m | -2.3m/s | -8.9°C | 96.9% | 526.9hPa | 2.6V | 00:00:00 | 03:15:57 | 00:00:00 | |
| DO3MHA-11 | 2026-08-31 01:45:12 | 48.69782 | 13.60183 | 41° | 51km/h | 5427m | -2.4m/s | -9.0°C | 96.8% | 526.2hPa | 2.6V | 00:00:00 | 03:15:53 | 00:00:00 | |
| OE5WHR-10 | 2026-08-31 01:45:07 | 48.69733 | 13.60120 | 42° | 49km/h | 5439m | -2.4m/s | -9.0°C | 96.9% | 525.4hPa | 2.6V | 00:00:00 | 00:00:00 | 00:00:00 | |
| OE5MMP-10 | 2026-08-31 01:45:06 | 48.69724 | 13.60107 | 42° | 49km/h | 5442m | -2.4m/s | -9.0°C | 96.9% | 525.2hPa | 2.6V | 00:00:00 | 03:15:47 | 00:00:00 | |
| DO3MHA-11 | 2026-08-31 01:45:02 | 48.69687 | 13.60055 | 45° | 47km/h | 5452m | -2.5m/s | -9.1°C | 97.0% | 524.5hPa | 2.6V | 00:00:00 | 03:15:43 | 00:00:00 | |
| OE5DRO-10 | 2026-08-31 01:45:00 | 48.69669 | 13.60029 | 44° | 47km/h | 5457m | -2.4m/s | -9.1°C | 97.3% | 524.2hPa | 2.6V | 07:19:00 | 00:00:00 | 00:00:00 | |
| OE5MMP-10 | 2026-08-31 01:44:56 | 48.69634 | 13.59977 | 46° | 46km/h | 5467m | -2.3m/s | -9.2°C | 97.1% | 523.5hPa | 2.6V | 00:00:00 | 03:15:37 | 00:00:00 | |
| DO3MHA-11 | 2026-08-31 01:44:52 | 48.69602 | 13.59925 | 47° | 46km/h | 5477m | -2.4m/s | -9.3°C | 97.4% | 522.8hPa | 2.7V | 00:00:00 | 03:15:33 | 00:00:00 | |
| OE5WHR-10 | 2026-08-31 01:44:50 | 48.69586 | 13.59899 | 47° | 44km/h | 5482m | -2.4m/s | -9.3°C | 97.2% | 522.5hPa | 2.7V | 00:00:00 | 00:00:00 | 00:00:00 | |
| OE5DXL-15 | 2026-08-31 01:44:47 | 48.69562 | 13.59860 | 48° | 40km/h | 5489m | -2.5m/s | -9.3°C | 97.2% | 522.1hPa | 2.7V | 00:00:00 | 00:00:00 | 00:00:00 | |
| OE5MMP-10 | 2026-08-31 01:44:46 | 48.69555 | 13.59848 | 48° | 44km/h | 5492m | -2.6m/s | -9.3°C | 96.9% | 521.9hPa | 2.6V | 00:00:00 | 03:15:27 | 00:00:00 | |
| OE5DRO-10 | 2026-08-31 01:44:44 | 48.69539 | 13.59822 | 49° | 42km/h | 5497m | -2.5m/s | -9.4°C | 97.1% | 521.5hPa | 2.6V | 00:00:00 | 00:00:00 | 00:00:00 | |
| NBG1-10 | 2026-08-31 01:44:43 | 48.69532 | 13.59809 | 49° | 40km/h | 5500m | -2.4m/s | -9.4°C | 97.3% | 521.4hPa | 2.6V | 00:00:00 | 03:15:24 | 00:00:00 | |
| DO3MHA-11 | 2026-08-31 01:44:42 | 48.69524 | 13.59797 | 49° | 42km/h | 5502m | -2.4m/s | -9.4°C | 97.0% | 521.2hPa | 2.6V | 07:19:00 | 03:15:23 | 00:00:00 | |
| OE5MMP-10 | 2026-08-31 01:44:36 | 48.69481 | 13.59726 | 47° | 38km/h | 5517m | -2.4m/s | -9.5°C | 97.4% | 520.3hPa | 2.6V | 00:00:00 | 03:15:17 | 00:00:00 | |
| DO3MHA-11 | 2026-08-31 01:44:33 | 48.69453 | 13.59682 | 47° | 38km/h | 5527m | -2.5m/s | -9.6°C | 97.9% | 519.5hPa | 2.6V | 00:00:00 | 03:15:13 | 00:00:00 | |
| OE5DRO-10 | 2026-08-31 01:44:30 | 48.69425 | 13.59640 | 43° | 38km/h | 5537m | -2.4m/s | -9.6°C | 98.1% | 518.9hPa | 2.6V | 00:00:00 | 00:00:00 | 00:00:00 | |
| OE5MMP-10 | 2026-08-31 01:44:27 | 48.69410 | 13.59621 | 39° | 38km/h | 5542m | -2.4m/s | -9.7°C | 98.3% | 518.5hPa | 2.6V | 00:00:00 | 03:15:07 | 00:00:00 | |
| OE5DXL-15 | 2026-08-31 01:44:17 | 48.69339 | 13.59547 | 35° | 44km/h | 5565m | -2.5m/s | -9.8°C | 98.1% | 517.0hPa | 2.7V | 00:00:00 | 00:00:00 | 00:00:00 | |
| OE5MMP-10 | 2026-08-31 01:44:16 | 48.69331 | 13.59539 | 35° | 40km/h | 5567m | -2.5m/s | -9.8°C | 97.8% | 516.8hPa | 2.7V | 07:20:00 | 03:14:57 | 00:00:00 | |
| DO3MHA-11 | 2026-08-31 01:44:12 | 48.69297 | 13.59506 | 32° | 40km/h | 5579m | -2.3m/s | -9.9°C | 98.1% | 516.2hPa | 2.7V | 00:00:00 | 03:14:53 | 00:00:00 | |
| NBG1-10 | 2026-08-31 01:44:09 | 48.69270 | 13.59482 | 31° | 40km/h | 5586m | -2.6m/s | -9.9°C | 98.4% | 515.7hPa | 2.7V | 00:00:00 | 03:14:50 | 00:00:00 | |
| OE5MMP-10 | 2026-08-31 01:44:06 | 48.69244 | 13.59458 | 33° | 42km/h | 5594m | -2.3m/s | -10.0°C | 98.3% | 515.2hPa | 2.7V | 00:00:00 | 03:14:47 | 00:00:00 | |
| DO3MHA-11 | 2026-08-31 01:44:02 | 48.69211 | 13.59425 | 33° | 47km/h | 5604m | -2.5m/s | -10.0°C | 98.6% | 514.5hPa | 2.7V | 00:00:00 | 03:14:43 | 00:00:00 | |
| OE5WHR-10 | 2026-08-31 01:43:59 | 48.69182 | 13.59400 | 29° | 53km/h | 5612m | -1.9m/s | -10.1°C | 98.3% | 514.0hPa | 2.7V | 00:00:00 | 00:00:00 | 00:00:00 | |
| OE5MMP-10 | 2026-08-31 01:43:56 | 48.69150 | 13.59375 | 29° | 53km/h | 5619m | -2.3m/s | -10.1°C | 98.5% | 513.6hPa | 2.7V | 00:00:00 | 03:14:37 | 00:00:00 | |
| OE5FHM-15 | 2026-08-31 01:43:52 | 48.69106 | 13.59336 | 31° | 57km/h | 5629m | -2.6m/s | -10.2°C | 98.5% | 512.9hPa | 2.7V | 00:00:00 | 03:14:33 | 00:00:00 | |
| OE5DXL-15 | 2026-08-31 01:43:47 | 48.69049 | 13.59281 | 36° | 57km/h | 5643m | -2.5m/s | -10.3°C | 0% | 512.1hPa | 2.7V | 00:00:00 | 00:00:00 | 00:00:00 | |
| OE5MMP-10 | 2026-08-31 01:43:46 | 48.69037 | 13.59269 | 34° | 57km/h | 5646m | -2.6m/s | -10.3°C | 0% | 511.8hPa | 2.7V | 00:00:00 | 03:14:27 | 00:00:00 | |
| OE5WHR-10 | 2026-08-31 01:43:42 | 48.68991 | 13.59222 | 35° | 57km/h | 5657m | -2.7m/s | -10.3°C | 0% | 511.1hPa | 2.7V | 00:00:00 | 03:14:23 | 00:00:00 | |
| OE5DRO-10 | 2026-08-31 01:43:40 | 48.68967 | 13.59198 | 33° | 57km/h | 5663m | -2.3m/s | -10.4°C | 0% | 510.8hPa | 2.7V | 00:00:00 | 00:00:00 | 00:00:00 | |
| OE5MMP-10 | 2026-08-31 01:43:36 | 48.68919 | 13.59151 | 36° | 58km/h | 5672m | -2.5m/s | -10.5°C | 98.3% | 510.0hPa | 2.7V | 00:00:00 | 03:14:17 | 00:00:00 | |
| PG1ADW-2 | 2026-08-31 01:43:32 | 48.68873 | 13.59097 | 36° | 55km/h | 5682m | -2.4m/s | -10.4°C | 97.4% | 509.3hPa | 2.7V | 00:00:00 | 00:00:00 | 00:00:00 | |
| DO3MHA-11 | 2026-08-31 01:43:31 | 48.68861 | 13.59084 | 39° | 57km/h | 5685m | -2.4m/s | -10.4°C | 97.6% | 509.1hPa | 2.7V | 00:00:00 | 03:14:12 | 00:00:00 | |
| OE5MMP-10 | 2026-08-31 01:43:26 | 48.68801 | 13.59019 | 35° | 53km/h | 5697m | -2.7m/s | -10.5°C | 97.5% | 508.4hPa | 2.7V | 00:00:00 | 03:14:07 | 00:00:00 | |
| OE5WHR-10 | 2026-08-31 01:43:25 | 48.68790 | 13.59007 | 33° | 53km/h | 5700m | -2.4m/s | -10.5°C | 97.7% | 508.2hPa | 2.6V | 00:00:00 | 00:00:00 | 00:00:00 | |
| OE5DRO-10 | 2026-08-31 01:43:24 | 48.68777 | 13.58995 | 35° | 53km/h | 5703m | -2.8m/s | -10.5°C | 97.7% | 508.1hPa | 2.7V | 00:00:00 | 00:00:00 | 00:00:00 | |
| OE5FHM-15 | 2026-08-31 01:43:22 | 48.68754 | 13.58972 | 32° | 57km/h | 5708m | -2.4m/s | -10.5°C | 97.8% | 507.6hPa | 2.7V | 07:21:00 | 03:14:03 | 00:00:00 | |
| DO3MHA-11 | 2026-08-31 01:43:20 | 48.68731 | 13.58951 | 32° | 53km/h | 5713m | -2.5m/s | -10.5°C | 97.7% | 507.4hPa | 2.7V | 07:21:00 | 03:14:01 | 00:00:00 | |
| OE5DXL-15 | 2026-08-31 01:43:17 | 48.68698 | 13.58921 | 31° | 58km/h | 5720m | -2.7m/s | -10.6°C | 97.5% | 506.9hPa | 2.7V | 00:00:00 | 00:00:00 | 00:00:00 | |
| OE5MMP-10 | 2026-08-31 01:43:16 | 48.68686 | 13.58911 | 32° | 53km/h | 5723m | -2.6m/s | -10.6°C | 97.4% | 506.7hPa | 2.6V | 00:00:00 | 03:13:57 | 00:00:00 | |
| PG1ADW-2 | 2026-08-31 01:43:12 | 48.68641 | 13.58871 | 30° | 58km/h | 5734m | -2.3m/s | -10.7°C | 97.6% | 505.9hPa | 2.6V | 00:00:00 | 03:13:53 | 00:00:00 | |
| DO3MHA-11 | 2026-08-31 01:43:09 | 48.68606 | 13.58840 | 33° | 60km/h | 5742m | -2.5m/s | -10.7°C | 97.2% | 505.5hPa | 2.6V | 00:00:00 | 03:13:50 | 00:00:00 | |
| OE5WHR-10 | 2026-08-31 01:43:08 | 48.68593 | 13.58829 | 31° | 60km/h | 5745m | -2.3m/s | -10.7°C | 97.4% | 505.3hPa | 2.6V | 00:00:00 | 00:00:00 | 00:00:00 | |
| OE5MMP-10 | 2026-08-31 01:43:06 | 48.68569 | 13.58806 | 35° | 60km/h | 5750m | -2.8m/s | -10.7°C | 97.4% | 505.0hPa | 2.6V | 00:00:00 | 03:13:47 | 00:00:00 | |
| NBG1-10 | 2026-08-31 01:43:02 | 48.68519 | 13.58754 | 35° | 64km/h | 5761m | -2.4m/s | -10.7°C | 97.0% | 504.1hPa | 2.6V | 00:00:00 | 03:13:43 | 00:00:00 | |
| DO3MHA-11 | 2026-08-31 01:42:57 | 48.68458 | 13.58684 | 39° | 64km/h | 5775m | -2.4m/s | -10.8°C | 97.5% | 503.3hPa | 2.6V | 00:00:00 | 03:13:38 | 00:00:00 | |
| OE5MMP-10 | 2026-08-31 01:42:56 | 48.68446 | 13.58670 | 37° | 64km/h | 5778m | -2.4m/s | -10.8°C | 97.3% | 503.1hPa | 2.6V | 07:21:00 | 03:13:37 | 00:00:00 | |
| OE5REO-15 | 2026-08-31 01:42:53 | 48.68420 | 13.58642 | 40° | 64km/h | 5782m | -2.9m/s | -10.9°C | 94.7% | 502.8hPa | 2.6V | 00:00:00 | 00:00:00 | 00:00:00 | |
| OE5FHM-15 | 2026-08-31 01:42:52 | 48.68395 | 13.58612 | 37° | 66km/h | 5788m | -2.7m/s | -10.9°C | 97.5% | 502.3hPa | 2.6V | 00:00:00 | 03:13:33 | 00:00:00 | |
| OE5WHR-10 | 2026-08-31 01:42:51 | 48.68382 | 13.58597 | 40° | 66km/h | 5791m | -2.4m/s | -10.9°C | 97.6% | 502.2hPa | 2.6V | 00:00:00 | 03:13:32 | 00:00:00 | |
| OE5DXL-15 | 2026-08-31 01:42:47 | 48.68332 | 13.58534 | 41° | 66km/h | 5802m | -2.7m/s | -10.9°C | 97.8% | 501.4hPa | 2.6V | 00:00:00 | 00:00:00 | 00:00:00 | |
| OE5MMP-10 | 2026-08-31 01:42:46 | 48.68319 | 13.58519 | 38° | 66km/h | 5805m | -2.5m/s | -10.9°C | 97.6% | 501.1hPa | 2.6V | 00:00:00 | 03:13:27 | 00:00:00 | |
| DO3MHA-11 | 2026-08-31 01:42:37 | 48.68201 | 13.58382 | 40° | 66km/h | 5830m | -2.4m/s | -11.1°C | 97.7% | 499.6hPa | 2.6V | 00:00:00 | 03:13:18 | 00:00:00 | |
| OE5MMP-10 | 2026-08-31 01:42:36 | 48.68188 | 13.58366 | 36° | 66km/h | 5832m | -2.7m/s | -11.1°C | 97.3% | 499.4hPa | 2.6V | 00:00:00 | 03:13:17 | 00:00:00 | |
| OE5WHR-10 | 2026-08-31 01:42:34 | 48.68161 | 13.58336 | 38° | 68km/h | 5838m | -2.9m/s | -11.1°C | 97.3% | 499.1hPa | 2.6V | 00:00:00 | 00:00:00 | 00:00:00 | |
| PG1ADW-2 | 2026-08-31 01:42:32 | 48.68135 | 13.58305 | 38° | 68km/h | 5844m | -2.7m/s | -11.1°C | 97.3% | 498.6hPa | 2.6V | 07:22:00 | 00:00:00 | 00:00:00 | |
| DB0NH | 2026-08-31 01:42:30 | 48.68108 | 13.58275 | 38° | 77km/h | 5849m | -2.6m/s | 0°C | 0% | 0hPa | 2.6V | 07:22:00 | 03:13:11 | 00:00:00 | |
| NBG1-10 | 2026-08-31 01:42:29 | 48.68095 | 13.58259 | 37° | 69km/h | 5852m | -2.5m/s | -11.1°C | 97.2% | 498.1hPa | 2.6V | 00:00:00 | 03:13:10 | 00:00:00 | |
| DO3MHA-11 | 2026-08-31 01:42:27 | 48.68068 | 13.58229 | 37° | 68km/h | 5857m | -2.9m/s | -11.1°C | 97.3% | 497.7hPa | 2.6V | 00:00:00 | 03:13:08 | 00:00:00 | |
| OE5MMP-10 | 2026-08-31 01:42:26 | 48.68055 | 13.58214 | 38° | 68km/h | 5860m | -2.7m/s | -11.1°C | 97.4% | 497.6hPa | 2.6V | 00:00:00 | 03:13:07 | 00:00:00 | |
| OE5FHM-15 | 2026-08-31 01:42:22 | 48.68000 | 13.58152 | 37° | 69km/h | 5872m | -2.7m/s | -11.1°C | 97.8% | 496.8hPa | 2.6V | 00:00:00 | 03:13:03 | 00:00:00 | |
| OE5DRO-10 | 2026-08-31 01:42:20 | 48.67972 | 13.58122 | 37° | 69km/h | 5877m | -2.6m/s | -11.1°C | 98.1% | 496.6hPa | 2.6V | 00:00:00 | 00:00:00 | 00:00:00 | |
| DO3MHA-11 | 2026-08-31 01:42:17 | 48.67930 | 13.58077 | 35° | 69km/h | 5885m | -2.4m/s | -11.2°C | 98.1% | 495.9hPa | 2.6V | 00:00:00 | 03:12:58 | 00:00:00 | |
| OE5MMP-10 | 2026-08-31 01:42:16 | 48.67916 | 13.58062 | 37° | 69km/h | 5888m | -2.4m/s | -11.2°C | 98.5% | 495.8hPa | 2.6V | 00:00:00 | 03:12:57 | 00:00:00 | |
| PG1ADW-2 | 2026-08-31 01:42:12 | 48.67859 | 13.58003 | 35° | 71km/h | 5898m | -2.7m/s | -11.2°C | 98.2% | 495.1hPa | 2.6V | 00:00:00 | 00:00:00 | 00:00:00 | |
| DO3MHA-11 | 2026-08-31 01:42:07 | 48.67787 | 13.57925 | 38° | 71km/h | 5912m | -3.1m/s | -11.2°C | 98.5% | 494.2hPa | 2.6V | 00:00:00 | 03:12:48 | 00:00:00 | |
| OE5MMP-10 | 2026-08-31 01:42:06 | 48.67772 | 13.57910 | 34° | 71km/h | 5915m | -3.0m/s | -11.2°C | 98.3% | 494.0hPa | 2.6V | 00:00:00 | 03:12:47 | 00:00:00 | |
| OE5DRO-10 | 2026-08-31 01:42:01 | 48.67698 | 13.57834 | 33° | 75km/h | 5930m | -2.4m/s | -11.3°C | 98.4% | 493.1hPa | 2.6V | 00:00:00 | 00:00:00 | 00:00:00 | |
| DO3MHA-11 | 2026-08-31 01:41:57 | 48.67638 | 13.57773 | 33° | 75km/h | 5943m | -2.7m/s | -11.4°C | 97.4% | 492.3hPa | 2.6V | 07:22:00 | 03:12:38 | 00:00:00 | |
| OE5MMP-10 | 2026-08-31 01:41:56 | 48.67623 | 13.57758 | 36° | 75km/h | 5946m | -3.7m/s | -11.4°C | 97.1% | 492.1hPa | 2.6V | 00:00:00 | 03:12:37 | 00:00:00 | |
| OE5FHM-15 | 2026-08-31 01:41:52 | 48.67562 | 13.57696 | 35° | 78km/h | 5960m | -3.3m/s | -11.3°C | 95.1% | 491.1hPa | 2.6V | 00:00:00 | 03:12:33 | 00:00:00 | |
| DO3MHA-11 | 2026-08-31 01:41:47 | 48.67482 | 13.57614 | 35° | 78km/h | 5976m | -2.1m/s | -11.4°C | 95.7% | 490.2hPa | 2.6V | 00:00:00 | 03:12:28 | 00:00:00 | |
| OE5MMP-10 | 2026-08-31 01:41:46 | 48.67466 | 13.57596 | 38° | 78km/h | 5978m | -2.1m/s | -11.4°C | 95.8% | 490.2hPa | 2.6V | 00:00:00 | 03:12:27 | 00:00:00 | |
| OE5DRO-10 | 2026-08-31 01:41:42 | 48.67403 | 13.57524 | 39° | 80km/h | 5986m | -2.1m/s | -11.4°C | 95.2% | 489.8hPa | 2.6V | 00:00:00 | 00:00:00 | 00:00:00 | |
| DO3MHA-11 | 2026-08-31 01:41:37 | 48.67323 | 13.57431 | 37° | 80km/h | 5998m | -1.9m/s | -11.5°C | 95.8% | 488.9hPa | 2.6V | 00:00:00 | 03:12:18 | 00:00:00 | |
| OE5MMP-10 | 2026-08-31 01:41:36 | 48.67307 | 13.57412 | 39° | 80km/h | 6000m | -1.7m/s | -11.5°C | 96.0% | 488.8hPa | 2.6V | 07:23:00 | 03:12:17 | 00:00:00 | |
| OE5WHR-10 | 2026-08-31 01:41:35 | 48.67291 | 13.57394 | 36° | 82km/h | 6002m | -1.7m/s | -11.6°C | 95.9% | 488.6hPa | 2.6V | 00:00:00 | 00:00:00 | 00:00:00 | |
| PG1ADW-2 | 2026-08-31 01:41:32 | 48.67242 | 13.57341 | 34° | 80km/h | 6009m | -2.3m/s | -11.5°C | 95.0% | 488.2hPa | 2.6V | 00:00:00 | 00:00:00 | 00:00:00 | |
| DO3MHA-11 | 2026-08-31 01:41:27 | 48.67159 | 13.57253 | 35° | 82km/h | 6022m | -2.1m/s | -11.6°C | 95.0% | 487.3hPa | 2.6V | 00:00:00 | 03:12:08 | 00:00:00 | |
| OE5MMP-10 | 2026-08-31 01:41:26 | 48.67142 | 13.57235 | 35° | 82km/h | 6024m | -2.2m/s | -11.6°C | 95.3% | 487.2hPa | 2.6V | 00:00:00 | 03:12:07 | 00:00:00 | |
| DB0NH | 2026-08-31 01:41:24 | 48.67109 | 13.57198 | 38° | 73km/h | 6029m | -2.1m/s | 0°C | 0% | 0hPa | 2.6V | 00:00:00 | 03:12:05 | 00:00:00 | |
| NBG1-10 | 2026-08-31 01:41:23 | 48.67092 | 13.57179 | 39° | 73km/h | 6031m | -2.4m/s | -11.6°C | 95.3% | 486.8hPa | 2.6V | 00:00:00 | 03:12:04 | 00:00:00 | |
| OE5FHM-15 | 2026-08-31 01:41:22 | 48.67076 | 13.57159 | 40° | 73km/h | 6034m | -2.5m/s | -11.6°C | 94.7% | 486.5hPa | 2.6V | 00:00:00 | 03:12:03 | 00:00:00 | |
| DO3MHA-11 | 2026-08-31 01:41:17 | 48.66997 | 13.57056 | 43° | 73km/h | 6046m | -2.2m/s | -11.7°C | 94.9% | 485.8hPa | 2.6V | 00:00:00 | 03:11:58 | 00:00:00 | |
| OE5MMP-10 | 2026-08-31 01:41:16 | 48.66982 | 13.57034 | 45° | 73km/h | 6048m | -2.0m/s | -11.7°C | 95.1% | 485.6hPa | 2.6V | 00:00:00 | 03:11:57 | 00:00:00 | |
| OE5WHR-10 | 2026-08-31 01:41:14 | 48.66953 | 13.56991 | 46° | 69km/h | 6052m | -2.0m/s | -11.8°C | 96.0% | 485.4hPa | 2.6V | 00:00:00 | 00:00:00 | 00:00:00 | |
| PG1ADW-2 | 2026-08-31 01:41:12 | 48.66926 | 13.56951 | 46° | 68km/h | 6055m | -2.0m/s | -11.8°C | 96.3% | 485.0hPa | 2.6V | 00:00:00 | 00:00:00 | 00:00:00 | |
| DO3MHA-11 | 2026-08-31 01:41:07 | 48.66865 | 13.56861 | 43° | 68km/h | 6063m | -2.1m/s | -11.9°C | 96.8% | 484.3hPa | 2.6V | 00:00:00 | 03:11:48 | 00:00:00 | |
| OE5MMP-10 | 2026-08-31 01:41:06 | 48.66852 | 13.56843 | 44° | 68km/h | 6066m | -2.0m/s | -12.0°C | 97.3% | 484.2hPa | 2.6V | 00:00:00 | 03:11:47 | 00:00:00 | |
| OE5DRO-10 | 2026-08-31 01:41:04 | 48.66826 | 13.56807 | 41° | 68km/h | 6069m | -1.9m/s | -12.1°C | 98.5% | 483.9hPa | 2.6V | 00:00:00 | 00:00:00 | 00:00:00 | |
| DO3MHA-11 | 2026-08-31 01:40:57 | 48.66736 | 13.56690 | 38° | 68km/h | 6083m | -2.0m/s | -12.0°C | 96.4% | 483.0hPa | 2.6V | 00:00:00 | 03:11:38 | 00:00:00 | |
| OE5MMP-10 | 2026-08-31 01:40:56 | 48.66723 | 13.56675 | 37° | 68km/h | 6085m | -2.0m/s | -12.0°C | 96.2% | 482.8hPa | 2.6V | 00:00:00 | 03:11:37 | 00:00:00 | |
| DB0NH | 2026-08-31 01:40:53 | 48.66681 | 13.56631 | 34° | 75km/h | 6092m | -2.4m/s | 0°C | 0% | 0hPa | 2.6V | 00:00:00 | 03:11:34 | 00:00:00 | |
| PG1ADW-2 | 2026-08-31 01:40:52 | 48.66667 | 13.56617 | 33° | 75km/h | 6094m | -2.6m/s | -12.1°C | 96.5% | 482.2hPa | 2.6V | 00:00:00 | 00:00:00 | 00:00:00 | |
| NBG1-10 | 2026-08-31 01:40:50 | 48.66638 | 13.56589 | 31° | 78km/h | 6099m | -2.2m/s | -12.2°C | 96.9% | 482.0hPa | 2.6V | 00:00:00 | 03:11:31 | 00:00:00 | |
| DO3MHA-11 | 2026-08-31 01:40:47 | 48.66591 | 13.56550 | 29° | 75km/h | 6105m | -2.3m/s | -12.2°C | 96.2% | 481.5hPa | 2.6V | 00:00:00 | 03:11:28 | 00:00:00 | |
| OE5MMP-10 | 2026-08-31 01:40:46 | 48.66575 | 13.56536 | 29° | 77km/h | 6107m | -2.1m/s | -12.3°C | 97.0% | 481.4hPa | 2.6V | 00:00:00 | 03:11:27 | 00:00:00 | |
| OE5DRO-10 | 2026-08-31 01:40:45 | 48.66560 | 13.56523 | 29° | 80km/h | 6109m | -2.2m/s | -12.3°C | 96.8% | 481.1hPa | 2.6V | 00:00:00 | 00:00:00 | 00:00:00 | |
| DG1MFX-10 | 2026-08-31 01:40:43 | 48.66543 | 13.56510 | 29° | 73km/h | 6112m | -2.3m/s | -12.2°C | 91.8% | 481.1hPa | 2.6V | 00:00:00 | 00:00:00 | 00:00:00 | |
| DO3MHA-11 | 2026-08-31 01:40:37 | 48.66425 | 13.56408 | 33° | 82km/h | 6126m | -1.9m/s | -12.2°C | 93.1% | 480.2hPa | 2.6V | 07:24:00 | 03:11:18 | 00:00:00 | |
| OE5MMP-10 | 2026-08-31 01:40:36 | 48.66408 | 13.56390 | 35° | 82km/h | 6128m | -1.8m/s | -12.2°C | 92.8% | 480.0hPa | 2.6V | 00:00:00 | 03:11:17 | 00:00:00 | |
| OE5WHR-10 | 2026-08-31 01:40:32 | 48.66340 | 13.56318 | 37° | 78km/h | 6135m | -2.3m/s | -12.2°C | 93.0% | 479.4hPa | 2.6V | 00:00:00 | 00:00:00 | 00:00:00 | |
| DO3MHA-11 | 2026-08-31 01:40:27 | 48.66257 | 13.56225 | 38° | 80km/h | 6147m | -2.9m/s | -12.3°C | 93.1% | 478.7hPa | 2.5V | 00:00:00 | 03:11:08 | 00:00:00 | |
| OE5MMP-10 | 2026-08-31 01:40:26 | 48.66240 | 13.56206 | 39° | 80km/h | 6150m | -2.4m/s | -12.3°C | 93.2% | 478.6hPa | 2.6V | 00:00:00 | 03:11:07 | 00:00:00 | |
| OE5FHM-15 | 2026-08-31 01:40:22 | 48.66177 | 13.56130 | 39° | 75km/h | 6160m | -2.9m/s | -12.4°C | 92.8% | 477.9hPa | 2.5V | 00:00:00 | 03:11:03 | 00:00:00 | |
| DO3MHA-11 | 2026-08-31 01:40:17 | 48.66100 | 13.56031 | 42° | 73km/h | 6170m | -2.2m/s | -12.5°C | 92.7% | 477.1hPa | 2.5V | 00:00:00 | 03:10:58 | 00:00:00 | |
| OE5MMP-10 | 2026-08-31 01:40:16 | 48.66085 | 13.56012 | 42° | 71km/h | 6173m | -2.8m/s | -12.5°C | 92.5% | 477.1hPa | 2.5V | 07:24:00 | 03:10:57 | 00:00:00 | |
| PG1ADW-2 | 2026-08-31 01:40:12 | 48.66028 | 13.55938 | 41° | 71km/h | 6184m | -3.1m/s | -12.5°C | 92.1% | 476.3hPa | 2.5V | 00:00:00 | 00:00:00 | 00:00:00 | |
| OE5WHR-10 | 2026-08-31 01:40:11 | 48.66014 | 13.55920 | 42° | 73km/h | 6187m | -2.6m/s | -12.5°C | 92.3% | 476.2hPa | 2.5V | 00:00:00 | 00:00:00 | 00:00:00 | |
| DO3MHA-11 | 2026-08-31 01:40:07 | 48.65960 | 13.55850 | 39° | 69km/h | 6197m | -3.0m/s | -12.6°C | 92.1% | 475.6hPa | 2.5V | 00:00:00 | 03:10:48 | 00:00:00 | |
| OE5MMP-10 | 2026-08-31 01:40:06 | 48.65947 | 13.55835 | 37° | 69km/h | 6199m | -2.6m/s | -12.6°C | 92.1% | 475.5hPa | 2.5V | 00:00:00 | 03:10:47 | 00:00:00 | |
| DO3MHA-11 | 2026-08-31 01:39:57 | 48.65812 | 13.55715 | 26° | 82km/h | 6222m | -2.3m/s | -12.8°C | 93.0% | 474.1hPa | 2.5V | 00:00:00 | 03:10:38 | 00:00:00 | |
| OE5MMP-10 | 2026-08-31 01:39:56 | 48.65794 | 13.55702 | 27° | 82km/h | 6224m | -2.3m/s | -12.8°C | 93.1% | 473.9hPa | 2.5V | 00:00:00 | 03:10:37 | 00:00:00 | |
| OE5FHM-15 | 2026-08-31 01:39:52 | 48.65722 | 13.55642 | 31° | 78km/h | 6231m | -1.9m/s | -12.9°C | 93.0% | 473.4hPa | 2.5V | 00:00:00 | 03:10:33 | 00:00:00 | |
| OE5REO-15 | 2026-08-31 01:39:51 | 48.65722 | 13.55642 | 32° | 84km/h | 6231m | -1.9m/s | -12.9°C | 90.0% | 473.4hPa | 2.5V | 07:24:00 | 00:00:00 | 00:00:00 | |
| OE5WHR-10 | 2026-08-31 01:39:50 | 48.65686 | 13.55607 | 34° | 80km/h | 6236m | -2.4m/s | -12.9°C | 93.3% | 473.1hPa | 2.5V | 00:00:00 | 03:10:31 | 00:00:00 | |
| OE5DRO-10 | 2026-08-31 01:39:48 | 48.65651 | 13.55570 | 36° | 80km/h | 6240m | -2.6m/s | -12.9°C | 93.4% | 472.8hPa | 2.5V | 00:00:00 | 00:00:00 | 00:00:00 | |
| DO3MHA-11 | 2026-08-31 01:39:47 | 48.65634 | 13.55551 | 37° | 84km/h | 6242m | -2.4m/s | -12.9°C | 93.4% | 472.7hPa | 2.5V | 00:00:00 | 03:10:28 | 00:00:00 | |
| OE5MMP-10 | 2026-08-31 01:39:46 | 48.65618 | 13.55532 | 37° | 84km/h | 6244m | -2.5m/s | -13.0°C | 93.8% | 472.5hPa | 2.5V | 00:00:00 | 03:10:27 | 00:00:00 | |
| NBG1-10 | 2026-08-31 01:39:44 | 48.65584 | 13.55494 | 38° | 75km/h | 6248m | -2.2m/s | -13.0°C | 94.0% | 472.2hPa | 2.5V | 00:00:00 | 03:10:25 | 00:00:00 | |
| DB0NH | 2026-08-31 01:39:38 | 48.65484 | 13.55376 | 40° | 73km/h | 6262m | -2.6m/s | 0°C | 0% | 0hPa | 2.6V | 00:00:00 | 03:10:19 | 00:00:00 | |
| DO3MHA-11 | 2026-08-31 01:39:37 | 48.65468 | 13.55356 | 41° | 75km/h | 6264m | -2.8m/s | -13.1°C | 94.4% | 471.2hPa | 2.6V | 00:00:00 | 03:10:18 | 00:00:00 | |
| OE5MMP-10 | 2026-08-31 01:39:36 | 48.65453 | 13.55337 | 39° | 75km/h | 6267m | -2.6m/s | -13.1°C | 94.3% | 471.1hPa | 2.6V | 00:00:00 | 03:10:17 | 00:00:00 | |
| OE5REO-15 | 2026-08-31 01:39:35 | 48.65453 | 13.55337 | 40° | 80km/h | 6267m | -2.6m/s | -13.2°C | 91.3% | 471.2hPa | 2.6V | 07:25:00 | 00:00:00 | 00:00:00 | |
| PG1ADW-2 | 2026-08-31 01:39:32 | 48.65393 | 13.55263 | 40° | 69km/h | 6275m | -2.7m/s | -13.2°C | 94.0% | 470.4hPa | 2.6V | 00:00:00 | 00:00:00 | 00:00:00 | |
| OE5WHR-10 | 2026-08-31 01:39:29 | 48.65351 | 13.55210 | 40° | 69km/h | 6282m | -2.4m/s | -13.2°C | 94.3% | 470.1hPa | 2.6V | 07:25:00 | 00:00:00 | 00:00:00 | |
| DO3MHA-11 | 2026-08-31 01:39:27 | 48.65323 | 13.55174 | 39° | 73km/h | 6285m | -3.0m/s | -13.3°C | 94.4% | 469.8hPa | 2.5V | 00:00:00 | 03:10:08 | 00:00:00 | |
| OE5MMP-10 | 2026-08-31 01:39:26 | 48.65309 | 13.55156 | 39° | 71km/h | 6288m | -3.0m/s | -13.3°C | 94.4% | 469.7hPa | 2.5V | 00:00:00 | 03:10:07 | 00:00:00 | |
| OE5FHM-15 | 2026-08-31 01:39:22 | 48.65252 | 13.55086 | 39° | 73km/h | 6297m | -2.8m/s | -13.3°C | 94.1% | 469.1hPa | 2.5V | 07:25:00 | 03:10:03 | 00:00:00 | |
| OE5REO-15 | 2026-08-31 01:39:20 | 48.65238 | 13.55069 | 39° | 71km/h | 6300m | -2.9m/s | -13.4°C | 91.2% | 469.1hPa | 2.5V | 07:25:00 | 00:00:00 | 00:00:00 | |
| OE5DXL-15 | 2026-08-31 01:39:17 | 48.65183 | 13.55000 | 40° | 75km/h | 6309m | -2.6m/s | -13.4°C | 93.5% | 468.4hPa | 2.5V | 00:00:00 | 00:00:00 | 00:00:00 | |
| OE5MMP-10 | 2026-08-31 01:39:16 | 48.65169 | 13.54983 | 40° | 66km/h | 6311m | -2.6m/s | -13.4°C | 93.6% | 468.3hPa | 2.5V | 00:00:00 | 03:09:57 | 00:00:00 | |
| NBG1-10 | 2026-08-31 01:39:11 | 48.65102 | 13.54910 | 31° | 77km/h | 6321m | -2.8m/s | -13.5°C | 94.1% | 467.7hPa | 2.5V | 00:00:00 | 03:09:52 | 00:00:00 | |
| OE5DRO-10 | 2026-08-31 01:39:10 | 48.65088 | 13.54897 | 28° | 75km/h | 6324m | -2.7m/s | -13.5°C | 94.0% | 467.6hPa | 2.5V | 00:00:00 | 00:00:00 | 00:00:00 | |
| DL6DJ-15 | 2026-08-31 01:39:09 | 48.65073 | 13.54886 | 27° | 66km/h | 6326m | -2.8m/s | -13.6°C | 91.1% | 467.6hPa | 2.5V | 00:00:00 | 00:00:00 | 00:00:00 | |
| OE5WHR-10 | 2026-08-31 01:39:08 | 48.65058 | 13.54873 | 29° | 77km/h | 6328m | -2.8m/s | -13.5°C | 94.6% | 467.3hPa | 2.5V | 00:00:00 | 00:00:00 | 00:00:00 | |
| DO3MHA-11 | 2026-08-31 01:39:07 | 48.65043 | 13.54862 | 27° | 75km/h | 6331m | -2.5m/s | -13.5°C | 94.7% | 467.2hPa | 2.5V | 00:00:00 | 03:09:48 | 00:00:00 | |
| OE5HKT-10 | 2026-08-31 01:39:06 | 48.65027 | 13.54850 | 25° | 78km/h | 6333m | -2.5m/s | -13.6°C | 94.9% | 467.1hPa | 2.5V | 00:00:00 | 00:00:00 | 00:00:00 | |
| OE5REO-15 | 2026-08-31 01:39:04 | 48.65011 | 13.54838 | 27° | 73km/h | 6335m | -2.3m/s | -13.6°C | 91.2% | 467.0hPa | 2.6V | 07:25:00 | 00:00:00 | 00:00:00 | |
| DB0NH | 2026-08-31 01:39:00 | 48.64925 | 13.54776 | 26° | 77km/h | 6346m | -2.4m/s | 0°C | 0% | 0hPa | 2.6V | 00:00:00 | 03:09:41 | 00:00:00 | |
| DO3MHA-11 | 2026-08-31 01:38:57 | 48.64872 | 13.54735 | 27° | 80km/h | 6352m | -2.5m/s | -13.7°C | 94.8% | 466.0hPa | 2.6V | 00:00:00 | 03:09:38 | 00:00:00 | |
| OE5MMP-10 | 2026-08-31 01:38:56 | 48.64854 | 13.54721 | 28° | 80km/h | 6354m | -2.4m/s | -13.7°C | 94.9% | 465.8hPa | 2.5V | 07:25:00 | 03:09:37 | 00:00:00 | |
| OE5FHM-15 | 2026-08-31 01:38:52 | 48.64782 | 13.54663 | 30° | 73km/h | 6363m | -2.5m/s | -13.8°C | 95.1% | 465.4hPa | 2.6V | 00:00:00 | 03:09:33 | 00:00:00 | |
| PG1ADW-2 | 2026-08-31 01:38:51 | 48.64764 | 13.54648 | 30° | 77km/h | 6366m | -2.5m/s | -13.8°C | 95.1% | 465.1hPa | 2.5V | 00:00:00 | 00:00:00 | 00:00:00 | |
| OE5REO-15 | 2026-08-31 01:38:48 | 48.64729 | 13.54617 | 32° | 84km/h | 6370m | -2.4m/s | -13.9°C | 91.9% | 464.8hPa | 2.6V | 07:26:00 | 00:00:00 | 00:00:00 | |
| OE5WHR-10 | 2026-08-31 01:38:47 | 48.64694 | 13.54582 | 35° | 73km/h | 6374m | -2.5m/s | -13.9°C | 95.6% | 464.6hPa | 2.6V | 00:00:00 | 03:09:28 | 00:00:00 | |
| OE5MMP-10 | 2026-08-31 01:38:46 | 48.64677 | 13.54564 | 38° | 75km/h | 6376m | -2.1m/s | -13.9°C | 95.9% | 464.4hPa | 2.6V | 00:00:00 | 03:09:27 | 00:00:00 | |
| OE5HKT-10 | 2026-08-31 01:38:45 | 48.64661 | 13.54546 | 38° | 71km/h | 6379m | -2.3m/s | -13.9°C | 96.1% | 464.4hPa | 2.6V | 00:00:00 | 00:00:00 | 00:00:00 | |
| NBG1-10 | 2026-08-31 01:38:38 | 48.64559 | 13.54419 | 39° | 66km/h | 6393m | -2.6m/s | -14.1°C | 97.3% | 463.3hPa | 2.6V | 00:00:00 | 03:09:19 | 00:00:00 | |
| DO3MHA-11 | 2026-08-31 01:38:37 | 48.64545 | 13.54402 | 41° | 69km/h | 6396m | -2.8m/s | -14.1°C | 97.4% | 463.2hPa | 2.6V | 00:00:00 | 03:09:18 | 00:00:00 | |
| OE5MMP-10 | 2026-08-31 01:38:36 | 48.64531 | 13.54384 | 41° | 69km/h | 6398m | -3.0m/s | -14.1°C | 97.4% | 463.0hPa | 2.6V | 00:00:00 | 03:09:17 | 00:00:00 | |
| OE5DRO-10 | 2026-08-31 01:38:32 | 48.64476 | 13.54315 | 40° | 64km/h | 6408m | -2.7m/s | -14.2°C | 97.8% | 462.4hPa | 2.6V | 00:00:00 | 00:00:00 | 00:00:00 | |
| PG1ADW-2 | 2026-08-31 01:38:31 | 48.64462 | 13.54298 | 38° | 64km/h | 6410m | -2.8m/s | -14.2°C | 98.1% | 462.3hPa | 2.6V | 00:00:00 | 00:00:00 | 00:00:00 | |
| DB0NH | 2026-08-31 01:38:30 | 48.64449 | 13.54282 | 39° | 66km/h | 6413m | -2.9m/s | 0°C | 0% | 0hPa | 2.6V | 00:00:00 | 03:09:11 | 00:00:00 | |
| DO3MHA-11 | 2026-08-31 01:38:27 | 48.64409 | 13.54236 | 38° | 64km/h | 6420m | -3.2m/s | -14.3°C | 98.1% | 461.7hPa | 2.6V | 00:00:00 | 03:09:08 | 00:00:00 | |
| OE5WHR-10 | 2026-08-31 01:38:26 | 48.64395 | 13.54222 | 35° | 64km/h | 6423m | -3.0m/s | -14.3°C | 98.4% | 461.5hPa | 2.6V | 00:00:00 | 00:00:00 | 00:00:00 | |
| OE5HKT-10 | 2026-08-31 01:38:24 | 48.64369 | 13.54193 | 35° | 64km/h | 6428m | -2.9m/s | -14.3°C | 98.6% | 461.1hPa | 2.6V | 07:26:00 | 03:09:05 | 00:00:00 | |
| OE5FHM-15 | 2026-08-31 01:38:22 | 48.64343 | 13.54165 | 36° | 66km/h | 6433m | -3.2m/s | -14.4°C | 98.9% | 460.9hPa | 2.6V | 00:00:00 | 03:09:03 | 00:00:00 | |
| OE5DXL-15 | 2026-08-31 01:38:17 | 48.64279 | 13.54095 | 33° | 69km/h | 6448m | -3.9m/s | -14.5°C | 97.4% | 460.0hPa | 2.6V | 00:00:00 | 00:00:00 | 00:00:00 | |
| OE5MMP-10 | 2026-08-31 01:38:16 | 48.64265 | 13.54083 | 31° | 64km/h | 6452m | -3.3m/s | -14.5°C | 97.7% | 459.8hPa | 2.6V | 00:00:00 | 03:08:57 | 00:00:00 | |
| OE5DRO-10 | 2026-08-31 01:38:13 | 48.64223 | 13.54046 | 30° | 66km/h | 6462m | -3.0m/s | -14.6°C | 98.4% | 459.3hPa | 2.6V | 00:00:00 | 00:00:00 | 00:00:00 | |
| PG1ADW-2 | 2026-08-31 01:38:11 | 48.64195 | 13.54022 | 28° | 69km/h | 6467m | -2.6m/s | -14.7°C | 98.8% | 459.0hPa | 2.6V | 00:00:00 | 00:00:00 | 00:00:00 | |
| DO3MHA-11 | 2026-08-31 01:38:07 | 48.64136 | 13.53978 | 25° | 68km/h | 6476m | -3.0m/s | -14.7°C | 97.4% | 458.4hPa | 2.6V | 00:00:00 | 03:08:48 | 00:00:00 | |
| OE5MMP-10 | 2026-08-31 01:38:06 | 48.64121 | 13.53968 | 25° | 68km/h | 6479m | -3.1m/s | -14.8°C | 98.0% | 458.1hPa | 2.6V | 00:00:00 | 03:08:47 | 00:00:00 | |
| OE5WHR-10 | 2026-08-31 01:38:05 | 48.64106 | 13.53958 | 24° | 75km/h | 6482m | -3.3m/s | -14.8°C | 98.1% | 458.0hPa | 2.6V | 00:00:00 | 00:00:00 | 00:00:00 | |
| OE5HKT-10 | 2026-08-31 01:38:03 | 48.64076 | 13.53938 | 23° | 75km/h | 6487m | -3.8m/s | -14.9°C | 98.7% | 457.5hPa | 2.6V | 00:00:00 | 00:00:00 | 00:00:00 | |
| OE5REO-15 | 2026-08-31 01:38:01 | 48.64060 | 13.53928 | 24° | 68km/h | 6491m | -3.9m/s | -14.9°C | 95.5% | 457.5hPa | 2.6V | 07:26:00 | 00:00:00 | 00:00:00 | |
| DO3MHA-11 | 2026-08-31 01:37:57 | 48.63982 | 13.53874 | 25° | 77km/h | 6508m | -3.6m/s | -15.1°C | 0% | 456.5hPa | 2.6V | 07:26:00 | 03:08:38 | 00:00:00 | |
| OE5MMP-10 | 2026-08-31 01:37:56 | 48.63966 | 13.53864 | 23° | 78km/h | 6511m | -3.4m/s | -15.1°C | 0% | 456.3hPa | 2.6V | 00:00:00 | 03:08:37 | 00:00:00 | |
| DG1MFX-10 | 2026-08-31 01:37:55 | 48.63966 | 13.53864 | 23° | 71km/h | 6511m | -3.4m/s | -15.1°C | 97.2% | 456.4hPa | 2.6V | 00:00:00 | 00:00:00 | 00:00:00 | |
| OE5DRO-10 | 2026-08-31 01:37:54 | 48.63932 | 13.53842 | 25° | 80km/h | 6517m | -3.5m/s | -15.2°C | 0% | 456.0hPa | 2.6V | 07:26:00 | 00:00:00 | 00:00:00 | |
| OE5FHM-15 | 2026-08-31 01:37:52 | 48.63897 | 13.53816 | 27° | 80km/h | 6524m | -3.6m/s | -15.2°C | 0% | 455.6hPa | 2.6V | 00:00:00 | 03:08:33 | 00:00:00 | |
| PG1ADW-2 | 2026-08-31 01:37:51 | 48.63879 | 13.53803 | 27° | 82km/h | 6527m | -3.8m/s | -15.2°C | 0% | 455.4hPa | 2.6V | 00:00:00 | 03:08:32 | 00:00:00 | |
| DO3MHA-11 | 2026-08-31 01:37:47 | 48.63808 | 13.53744 | 31° | 80km/h | 6541m | -3.9m/s | -15.3°C | 0% | 454.5hPa | 2.6V | 00:00:00 | 03:08:28 | 00:00:00 | |
| OE5MMP-10 | 2026-08-31 01:37:46 | 48.63790 | 13.53728 | 30° | 80km/h | 6544m | -4.1m/s | -15.4°C | 0% | 454.3hPa | 2.6V | 00:00:00 | 03:08:27 | 00:00:00 | |
| OE5WHR-10 | 2026-08-31 01:37:44 | 48.63754 | 13.53698 | 29° | 80km/h | 6552m | -4.2m/s | -15.4°C | 0% | 453.8hPa | 2.6V | 00:00:00 | 03:08:25 | 00:00:00 | |
| OE5HKT-10 | 2026-08-31 01:37:42 | 48.63718 | 13.53669 | 27° | 80km/h | 6559m | -4.3m/s | -15.5°C | 0% | 453.4hPa | 2.6V | 00:00:00 | 00:00:00 | 00:00:00 | |
| DO3MHA-11 | 2026-08-31 01:37:37 | 48.63627 | 13.53599 | 31° | 82km/h | 6578m | -4.0m/s | -15.6°C | 0% | 452.3hPa | 2.6V | 00:00:00 | 03:08:18 | 00:00:00 | |
| OE5MMP-10 | 2026-08-31 01:37:36 | 48.63609 | 13.53583 | 32° | 82km/h | 6582m | -4.0m/s | -15.6°C | 0% | 452.1hPa | 2.6V | 07:27:00 | 03:08:17 | 00:00:00 | |
| OE5DRO-10 | 2026-08-31 01:37:35 | 48.63590 | 13.53567 | 31° | 78km/h | 6586m | -4.0m/s | -15.6°C | 0% | 451.8hPa | 2.6V | 00:00:00 | 00:00:00 | 00:00:00 | |
| NBG1-10 | 2026-08-31 01:37:32 | 48.63538 | 13.53517 | 37° | 71km/h | 6600m | -3.6m/s | -15.7°C | 0% | 451.2hPa | 2.6V | 07:27:00 | 03:08:13 | 00:00:00 | |
| PG1ADW-2 | 2026-08-31 01:37:31 | 48.63521 | 13.53499 | 36° | 75km/h | 6603m | -4.3m/s | -15.8°C | 0% | 450.9hPa | 2.6V | 00:00:00 | 00:00:00 | 00:00:00 | |
| DO3MHA-11 | 2026-08-31 01:37:27 | 48.63456 | 13.53424 | 38° | 77km/h | 6617m | -4.6m/s | -15.9°C | 0% | 450.1hPa | 2.6V | 00:00:00 | 03:08:08 | 00:00:00 | |
| OE5MMP-10 | 2026-08-31 01:37:26 | 48.63440 | 13.53405 | 40° | 75km/h | 6622m | -4.1m/s | -15.9°C | 0% | 449.8hPa | 2.5V | 00:00:00 | 03:08:07 | 00:00:00 | |
| OE5WHR-10 | 2026-08-31 01:37:23 | 48.63395 | 13.53346 | 43° | 68km/h | 6632m | -3.3m/s | -16.0°C | 0% | 449.1hPa | 2.6V | 00:00:00 | 00:00:00 | 00:00:00 | |
| OE5FHM-15 | 2026-08-31 01:37:22 | 48.63380 | 13.53326 | 45° | 69km/h | 6635m | -3.0m/s | -16.0°C | 0% | 448.9hPa | 2.6V | 00:00:00 | 03:08:03 | 00:00:00 | |
| OE5HKT-10 | 2026-08-31 01:37:21 | 48.63367 | 13.53305 | 45° | 68km/h | 6637m | -3.4m/s | -16.0°C | 0% | 448.7hPa | 2.5V | 00:00:00 | 03:08:02 | 00:00:00 | |
| DO3MHA-11 | 2026-08-31 01:37:17 | 48.63315 | 13.53227 | 44° | 66km/h | 6650m | -5.0m/s | -16.2°C | 0% | 447.6hPa | 2.5V | 00:00:00 | 03:07:58 | 00:00:00 | |
| OE5MMP-10 | 2026-08-31 01:37:16 | 48.63302 | 13.53208 | 43° | 64km/h | 6655m | -5.4m/s | -16.2°C | 0% | 447.4hPa | 2.5V | 00:00:00 | 03:07:57 | 00:00:00 | |
| OE5REO-15 | 2026-08-31 01:37:15 | 48.63302 | 13.53208 | 44° | 68km/h | 6655m | -5.4m/s | -16.3°C | 0% | 447.5hPa | 2.5V | 07:27:00 | 00:00:00 | 00:00:00 | |
| DG1MFX-10 | 2026-08-31 01:37:14 | 48.63290 | 13.53190 | 43° | 68km/h | 6659m | -5.6m/s | -16.3°C | 109.2% | 447.1hPa | 2.5V | 00:00:00 | 00:00:00 | 00:00:00 | |
| PG1ADW-2 | 2026-08-31 01:37:11 | 48.63241 | 13.53124 | 43° | 69km/h | 6676m | -5.3m/s | -16.4°C | 0% | 446.2hPa | 2.5V | 07:27:00 | 00:00:00 | 00:00:00 | |
| DO3MHA-11 | 2026-08-31 01:37:07 | 48.63193 | 13.53056 | 43° | 68km/h | 6693m | -4.1m/s | -16.3°C | 88.1% | 445.3hPa | 2.5V | 00:00:00 | 03:07:48 | 00:00:00 | |
| OE5MMP-10 | 2026-08-31 01:37:06 | 48.63182 | 13.53038 | 45° | 69km/h | 6697m | -4.8m/s | -16.2°C | 81.3% | 445.1hPa | 2.5V | 00:00:00 | 03:07:47 | 00:00:00 | |
| DL6DJ-15 | 2026-08-31 01:37:05 | 48.63170 | 13.53021 | 45° | 64km/h | 6701m | -4.3m/s | -16.2°C | 75.1% | 444.9hPa | 2.5V | 00:00:00 | 00:00:00 | 00:00:00 | |
| OE5WHR-10 | 2026-08-31 01:37:02 | 48.63135 | 13.52964 | 45° | 75km/h | 6713m | -4.7m/s | -16.2°C | 76.7% | 444.2hPa | 2.5V | 00:00:00 | 00:00:00 | 00:00:00 | |
| OE5HKT-10 | 2026-08-31 01:37:00 | 48.63110 | 13.52929 | 45° | 75km/h | 6723m | -5.0m/s | -16.2°C | 68.9% | 443.7hPa | 2.5V | 00:00:00 | 00:00:00 | 00:00:00 | |
| NBG1-10 | 2026-08-31 01:36:59 | 48.63098 | 13.52910 | 45° | 73km/h | 6727m | -4.9m/s | -16.2°C | 73.5% | 443.4hPa | 2.6V | 00:00:00 | 03:07:40 | 00:00:00 | |
| DO3MHA-11 | 2026-08-31 01:36:57 | 48.63073 | 13.52871 | 48° | 75km/h | 6737m | -4.8m/s | -16.4°C | 75.4% | 442.9hPa | 2.6V | 00:00:00 | 03:07:38 | 00:00:00 | |
| OE5MMP-10 | 2026-08-31 01:36:56 | 48.63060 | 13.52850 | 47° | 75km/h | 6741m | -4.7m/s | -16.4°C | 73.1% | 442.7hPa | 2.5V | 00:00:00 | 03:07:37 | 00:00:00 | |
| OE5DRO-10 | 2026-08-31 01:36:54 | 48.63034 | 13.52810 | 48° | 73km/h | 6749m | -4.6m/s | -16.4°C | 68.7% | 442.1hPa | 2.5V | 00:00:00 | 00:00:00 | 00:00:00 | |
| OE5FHM-15 | 2026-08-31 01:36:52 | 48.63008 | 13.52768 | 45° | 73km/h | 6757m | -4.0m/s | -16.6°C | 79.3% | 441.7hPa | 2.5V | 00:00:00 | 03:07:33 | 00:00:00 | |
| PG1ADW-2 | 2026-08-31 01:36:51 | 48.62995 | 13.52748 | 47° | 73km/h | 6761m | -4.1m/s | -16.6°C | 80.0% | 441.6hPa | 2.5V | 00:00:00 | 00:00:00 | 00:00:00 | |
| DO3MHA-11 | 2026-08-31 01:36:47 | 48.62940 | 13.52664 | 47° | 75km/h | 6775m | -3.8m/s | -16.8°C | 79.1% | 440.6hPa | 2.5V | 00:00:00 | 03:07:28 | 00:00:00 | |
| OE5MMP-10 | 2026-08-31 01:36:46 | 48.62927 | 13.52642 | 47° | 75km/h | 6778m | -4.0m/s | -16.8°C | 80.5% | 440.4hPa | 2.5V | 00:00:00 | 03:07:27 | 00:00:00 | |
| OE5WHR-10 | 2026-08-31 01:36:41 | 48.62862 | 13.52534 | 49° | 69km/h | 6796m | -3.4m/s | -17.0°C | 81.0% | 439.4hPa | 2.5V | 07:27:00 | 03:07:22 | 00:00:00 | |
| OE5HKT-10 | 2026-08-31 01:36:39 | 48.62838 | 13.52491 | 51° | 69km/h | 6802m | -3.5m/s | -17.0°C | 82.1% | 439.0hPa | 2.5V | 00:00:00 | 00:00:00 | 00:00:00 | |
| DO3MHA-11 | 2026-08-31 01:36:37 | 48.62817 | 13.52449 | 54° | 68km/h | 6807m | -3.2m/s | -17.3°C | 93.0% | 438.7hPa | 2.5V | 07:28:00 | 03:07:18 | 00:00:00 | |
| OE5MMP-10 | 2026-08-31 01:36:36 | 48.62807 | 13.52429 | 52° | 68km/h | 6811m | -4.5m/s | -17.5°C | 96.0% | 438.5hPa | 2.5V | 00:00:00 | 03:07:17 | 00:00:00 | |
| PG1ADW-2 | 2026-08-31 01:36:31 | 48.62758 | 13.52329 | 53° | 75km/h | 6831m | -4.0m/s | -17.3°C | 79.5% | 437.3hPa | 2.5V | 00:00:00 | 03:07:12 | 00:00:00 | |
| OE5REO-15 | 2026-08-31 01:36:29 | 48.62747 | 13.52308 | 55° | 69km/h | 6835m | -5.4m/s | -17.4°C | 73.4% | 437.1hPa | 2.5V | 07:28:00 | 00:00:00 | 00:00:00 | |
| DO3MHA-11 | 2026-08-31 01:36:27 | 48.62715 | 13.52245 | 52° | 75km/h | 6847m | -4.5m/s | -17.3°C | 67.9% | 436.5hPa | 2.5V | 00:00:00 | 03:07:08 | 00:00:00 | |
| NBG1-10 | 2026-08-31 01:36:26 | 48.62703 | 13.52223 | 49° | 77km/h | 6851m | -5.0m/s | -17.4°C | 71.5% | 436.1hPa | 2.6V | 00:00:00 | 03:07:07 | 00:00:00 | |
| OE5FHM-15 | 2026-08-31 01:36:22 | 48.62655 | 13.52134 | 52° | 77km/h | 6872m | -6.9m/s | -17.5°C | 64.6% | 435.1hPa | 2.6V | 00:00:00 | 03:07:03 | 00:00:00 | |
| OE5WHR-10 | 2026-08-31 01:36:20 | 48.62632 | 13.52090 | 52° | 78km/h | 6888m | -9.0m/s | -17.7°C | 69.9% | 434.1hPa | 2.6V | 00:00:00 | 00:00:00 | 00:00:00 | |
| OE5HKT-10 | 2026-08-31 01:36:18 | 48.62609 | 13.52045 | 53° | 78km/h | 6904m | -7.4m/s | -17.8°C | 68.2% | 433.3hPa | 2.6V | 00:00:00 | 03:06:59 | 00:00:00 | |
| OE5DXL-15 | 2026-08-31 01:36:17 | 48.62597 | 13.52023 | 52° | 77km/h | 6911m | -7.6m/s | -17.9°C | 67.1% | 432.9hPa | 2.6V | 00:00:00 | 00:00:00 | 00:00:00 | |
| OE5MMP-10 | 2026-08-31 01:36:16 | 48.62586 | 13.52000 | 52° | 80km/h | 6918m | -7.2m/s | -17.9°C | 63.2% | 432.4hPa | 2.6V | 07:28:00 | 03:06:57 | 00:00:00 | |
| OE5DRO-10 | 2026-08-31 01:36:15 | 48.62574 | 13.51977 | 53° | 78km/h | 6926m | -7.3m/s | -18.0°C | 65.7% | 431.9hPa | 2.6V | 00:00:00 | 00:00:00 | 00:00:00 | |
| OE5REO-15 | 2026-08-31 01:36:13 | 48.62561 | 13.51952 | 54° | 82km/h | 6933m | -7.3m/s | -18.2°C | 67.2% | 431.5hPa | 2.6V | 07:29:00 | 00:00:00 | 00:00:00 | |
| PG1ADW-2 | 2026-08-31 01:36:11 | 48.62524 | 13.51877 | 53° | 78km/h | 6955m | -7.1m/s | -18.7°C | 0% | 430.2hPa | 2.6V | 00:00:00 | 00:00:00 | 00:00:00 | |
| DO3MHA-11 | 2026-08-31 01:36:07 | 48.62473 | 13.51778 | 50° | 77km/h | 6981m | -6.9m/s | -19.0°C | 0% | 428.6hPa | 2.6V | 00:00:00 | 03:06:48 | 00:00:00 | |
| OE5MMP-10 | 2026-08-31 01:36:06 | 48.62460 | 13.51755 | 51° | 77km/h | 6988m | -7.8m/s | -19.0°C | 0% | 428.2hPa | 2.6V | 00:00:00 | 03:06:47 | 00:00:00 | |
| DL6DJ-15 | 2026-08-31 01:36:03 | 48.62423 | 13.51685 | 51° | 77km/h | 7011m | -8.7m/s | -19.1°C | 97.7% | 426.9hPa | 2.6V | 00:00:00 | 00:00:00 | 00:00:00 | |
| OE5WHR-10 | 2026-08-31 01:35:59 | 48.62377 | 13.51592 | 54° | 68km/h | 7041m | -7.8m/s | -18.9°C | 51.3% | 425.0hPa | 2.6V | 00:00:00 | 00:00:00 | 00:00:00 | |
| DO3MHA-11 | 2026-08-31 01:35:57 | 48.62355 | 13.51546 | 54° | 73km/h | 7055m | -8.1m/s | -19.1°C | 54.6% | 424.2hPa | 2.6V | 00:00:00 | 03:06:38 | 00:00:00 | |
| OE5MMP-10 | 2026-08-31 01:35:56 | 48.62344 | 13.51523 | 54° | 71km/h | 7062m | -8.0m/s | -19.2°C | 54.7% | 423.7hPa | 2.6V | 00:00:00 | 03:06:37 | 00:00:00 | |
| OE5HKT-10 | 2026-08-31 01:35:55 | 48.62333 | 13.51499 | 54° | 64km/h | 7069m | -7.6m/s | -19.2°C | 55.0% | 423.4hPa | 2.6V | 00:00:00 | 00:00:00 | 00:00:00 | |
| NBG1-10 | 2026-08-31 01:35:53 | 48.62311 | 13.51453 | 53° | 62km/h | 7082m | -7.3m/s | -19.3°C | 53.5% | 422.6hPa | 2.5V | 00:00:00 | 03:06:34 | 00:00:00 | |
| OE5FHM-15 | 2026-08-31 01:35:52 | 48.62300 | 13.51430 | 53° | 62km/h | 7088m | -7.2m/s | -19.4°C | 53.4% | 422.3hPa | 2.5V | 00:00:00 | 03:06:33 | 00:00:00 | |
| PG1ADW-2 | 2026-08-31 01:35:51 | 48.62289 | 13.51408 | 53° | 62km/h | 7095m | -7.4m/s | -19.5°C | 52.5% | 421.9hPa | 2.6V | 00:00:00 | 00:00:00 | 00:00:00 | |
| DO3MHA-11 | 2026-08-31 01:35:47 | 48.62250 | 13.51323 | 55° | 60km/h | 7120m | -6.3m/s | -19.6°C | 49.0% | 420.5hPa | 2.5V | 00:00:00 | 03:06:28 | 00:00:00 | |
| OE5MMP-10 | 2026-08-31 01:35:46 | 48.62241 | 13.51303 | 54° | 58km/h | 7125m | -6.2m/s | -19.7°C | 49.7% | 420.2hPa | 2.5V | 00:00:00 | 03:06:27 | 00:00:00 | |
| OE5REO-15 | 2026-08-31 01:35:41 | 48.62206 | 13.51226 | 54° | 57km/h | 7148m | -6.8m/s | -20.0°C | 54.3% | 418.9hPa | 2.5V | 07:29:00 | 00:00:00 | 00:00:00 | |
| OE5WHR-10 | 2026-08-31 01:35:38 | 48.62174 | 13.51155 | 61° | 62km/h | 7173m | -6.5m/s | -20.2°C | 55.4% | 417.5hPa | 2.5V | 00:00:00 | 03:06:19 | 00:00:00 | |
| DO3MHA-11 | 2026-08-31 01:35:37 | 48.62167 | 13.51135 | 61° | 60km/h | 7178m | -6.3m/s | -20.2°C | 57.0% | 417.3hPa | 2.5V | 00:00:00 | 03:06:18 | 00:00:00 | |
| OE5MMP-10 | 2026-08-31 01:35:36 | 48.62160 | 13.51116 | 61° | 60km/h | 7184m | -6.2m/s | -20.3°C | 57.7% | 417.0hPa | 2.5V | 00:00:00 | 03:06:17 | 00:00:00 | |
| OE5HKT-10 | 2026-08-31 01:35:34 | 48.62145 | 13.51075 | 59° | 64km/h | 7195m | -6.0m/s | -20.5°C | 63.4% | 416.5hPa | 2.5V | 07:29:00 | 00:00:00 | 00:00:00 | |
| DL6DJ-15 | 2026-08-31 01:35:32 | 48.62130 | 13.51035 | 57° | 58km/h | 7206m | -6.4m/s | -20.6°C | 54.1% | 415.8hPa | 2.5V | 00:00:00 | 00:00:00 | 00:00:00 | |
| PG1ADW-2 | 2026-08-31 01:35:31 | 48.62122 | 13.51015 | 60° | 66km/h | 7212m | -6.3m/s | -20.6°C | 58.5% | 415.5hPa | 2.5V | 00:00:00 | 00:00:00 | 00:00:00 | |
| DO3MHA-11 | 2026-08-31 01:35:27 | 48.62092 | 13.50934 | 60° | 66km/h | 7235m | -5.4m/s | -20.8°C | 68.0% | 414.4hPa | 2.5V | 00:00:00 | 03:06:08 | 00:00:00 | |
| OE5MMP-10 | 2026-08-31 01:35:26 | 48.62084 | 13.50913 | 63° | 66km/h | 7240m | -4.5m/s | -20.9°C | 74.4% | 414.0hPa | 2.6V | 00:00:00 | 03:06:07 | 00:00:00 | |
| OE5FHM-15 | 2026-08-31 01:35:22 | 48.62051 | 13.50827 | 59° | 66km/h | 7255m | -4.1m/s | -21.1°C | 76.6% | 413.3hPa | 2.6V | 07:29:00 | 03:06:03 | 00:00:00 | |
| NBG1-10 | 2026-08-31 01:35:19 | 48.62027 | 13.50759 | 61° | 68km/h | 7268m | -4.6m/s | -21.3°C | 75.9% | 412.4hPa | 2.6V | 00:00:00 | 03:06:00 | 00:00:00 | |
| OE5DRO-10 | 2026-08-31 01:35:18 | 48.62019 | 13.50736 | 62° | 66km/h | 7272m | -4.6m/s | -21.3°C | 75.9% | 412.2hPa | 2.6V | 07:29:00 | 00:00:00 | 00:00:00 | |
| DO3MHA-11 | 2026-08-31 01:35:17 | 48.62011 | 13.50713 | 64° | 66km/h | 7277m | -5.1m/s | -21.3°C | 75.5% | 412.0hPa | 2.6V | 07:29:00 | 03:05:58 | 00:00:00 | |
| OE5MMP-10 | 2026-08-31 01:35:16 | 48.62004 | 13.50690 | 66° | 66km/h | 7282m | -4.9m/s | -21.4°C | 79.5% | 411.8hPa | 2.6V | 00:00:00 | 03:05:57 | 00:00:00 | |
| OE5HKT-10 | 2026-08-31 01:35:13 | 48.61983 | 13.50619 | 66° | 66km/h | 7295m | -4.2m/s | -21.5°C | 76.1% | 411.0hPa | 2.6V | 00:00:00 | 03:05:54 | 00:00:00 | |
| PG1ADW-2 | 2026-08-31 01:35:11 | 48.61969 | 13.50573 | 65° | 66km/h | 7304m | -5.3m/s | -21.7°C | 79.3% | 410.4hPa | 2.6V | 00:00:00 | 03:05:52 | 00:00:00 | |
| DO3MHA-11 | 2026-08-31 01:35:07 | 48.61943 | 13.50484 | 68° | 64km/h | 7324m | -5.4m/s | -22.0°C | 80.1% | 409.2hPa | 2.6V | 00:00:00 | 03:05:48 | 00:00:00 | |
| OE5MMP-10 | 2026-08-31 01:35:06 | 48.61936 | 13.50462 | 67° | 66km/h | 7329m | -5.5m/s | -21.9°C | 74.0% | 408.9hPa | 2.6V | 00:00:00 | 03:05:47 | 00:00:00 | |
| DL6DJ-15 | 2026-08-31 01:35:01 | 48.61904 | 13.50348 | 65° | 64km/h | 7355m | -5.9m/s | -22.2°C | 78.1% | 407.6hPa | 2.6V | 00:00:00 | 00:00:00 | 00:00:00 | |
| OE5DRO-10 | 2026-08-31 01:34:59 | 48.61891 | 13.50304 | 67° | 75km/h | 7365m | -5.1m/s | -22.3°C | 84.5% | 407.0hPa | 2.6V | 00:00:00 | 00:00:00 | 00:00:00 | |
| DO3MHA-11 | 2026-08-31 01:34:57 | 48.61878 | 13.50257 | 68° | 73km/h | 7375m | -5.2m/s | -22.4°C | 87.4% | 406.5hPa | 2.6V | 00:00:00 | 03:05:38 | 00:00:00 | |
| OE5WHR-10 | 2026-08-31 01:34:56 | 48.61871 | 13.50232 | 66° | 77km/h | 7380m | -5.1m/s | -22.4°C | 86.2% | 406.3hPa | 2.6V | 00:00:00 | 00:00:00 | 00:00:00 | |
| OE5REO-15 | 2026-08-31 01:34:55 | 48.61871 | 13.50232 | 67° | 71km/h | 7380m | -5.2m/s | -22.4°C | 82.0% | 406.3hPa | 2.6V | 07:30:00 | 00:00:00 | 00:00:00 | |
| DG1MFX-10 | 2026-08-31 01:34:53 | 48.61857 | 13.50183 | 69° | 73km/h | 7390m | -5.0m/s | -22.4°C | 76.3% | 405.8hPa | 2.6V | 07:30:00 | 00:00:00 | 00:00:00 | |
| OE5FHM-15 | 2026-08-31 01:34:52 | 48.61842 | 13.50132 | 67° | 73km/h | 7399m | -4.8m/s | -22.5°C | 84.8% | 405.3hPa | 2.6V | 00:00:00 | 03:05:33 | 00:00:00 | |
| PG1ADW-2 | 2026-08-31 01:34:51 | 48.61835 | 13.50106 | 68° | 77km/h | 7404m | -4.5m/s | -22.6°C | 85.5% | 404.9hPa | 2.6V | 00:00:00 | 00:00:00 | 00:00:00 | |
| DO3MHA-11 | 2026-08-31 01:34:47 | 48.61801 | 13.50000 | 62° | 78km/h | 7421m | -4.3m/s | -22.7°C | 81.7% | 404.2hPa | 2.5V | 00:00:00 | 03:05:28 | 00:00:00 | |
| OE5MMP-10 | 2026-08-31 01:34:46 | 48.61791 | 13.49973 | 61° | 78km/h | 7425m | -3.6m/s | -22.7°C | 81.1% | 403.9hPa | 2.5V | 00:00:00 | 03:05:27 | 00:00:00 | |
| OE5DRO-10 | 2026-08-31 01:34:40 | 48.61726 | 13.49822 | 56° | 68km/h | 7449m | -4.0m/s | -22.8°C | 70.4% | 402.7hPa | 2.5V | 00:00:00 | 00:00:00 | 00:00:00 | |
| OE5REO-15 | 2026-08-31 01:34:39 | 48.61726 | 13.49822 | 56° | 77km/h | 7449m | -4.0m/s | -22.9°C | 66.7% | 402.8hPa | 2.6V | 07:30:00 | 00:00:00 | 00:00:00 | |
| DO3MHA-11 | 2026-08-31 01:34:37 | 48.61693 | 13.49751 | 55° | 69km/h | 7460m | -3.5m/s | -22.8°C | 59.9% | 402.1hPa | 2.6V | 00:00:00 | 03:05:18 | 00:00:00 | |
| OE5MMP-10 | 2026-08-31 01:34:36 | 48.61682 | 13.49728 | 54° | 68km/h | 7464m | -3.4m/s | -22.9°C | 61.5% | 401.8hPa | 2.6V | 00:00:00 | 03:05:17 | 00:00:00 | |
| OE5WHR-10 | 2026-08-31 01:34:35 | 48.61671 | 13.49706 | 54° | 64km/h | 7467m | -3.3m/s | -22.9°C | 62.1% | 401.7hPa | 2.6V | 00:00:00 | 03:05:16 | 00:00:00 | |
| DG1MFX-10 | 2026-08-31 01:34:32 | 48.61650 | 13.49663 | 54° | 69km/h | 7474m | -3.2m/s | -23.1°C | 61.6% | 401.4hPa | 2.6V | 07:30:00 | 00:00:00 | 00:00:00 | |
| OE5HKT-10 | 2026-08-31 01:34:31 | 48.61629 | 13.49621 | 53° | 62km/h | 7480m | -3.1m/s | -23.1°C | 64.6% | 401.0hPa | 2.6V | 00:00:00 | 00:00:00 | 00:00:00 | |
| DL6DJ-15 | 2026-08-31 01:34:30 | 48.61618 | 13.49601 | 52° | 66km/h | 7483m | -3.1m/s | -23.1°C | 60.0% | 400.9hPa | 2.6V | 00:00:00 | 00:00:00 | 00:00:00 | |
| DO3MHA-11 | 2026-08-31 01:34:27 | 48.61588 | 13.49542 | 53° | 60km/h | 7492m | -3.2m/s | -23.1°C | 61.0% | 400.3hPa | 2.6V | 00:00:00 | 03:05:08 | 00:00:00 | |
| OE5MMP-10 | 2026-08-31 01:34:26 | 48.61578 | 13.49523 | 53° | 60km/h | 7496m | -3.3m/s | -23.1°C | 57.6% | 400.2hPa | 2.6V | 00:00:00 | 03:05:07 | 00:00:00 | |
| OE5REO-15 | 2026-08-31 01:34:24 | 48.61569 | 13.49504 | 55° | 62km/h | 7499m | -3.1m/s | -23.2°C | 55.2% | 400.0hPa | 2.5V | 07:30:00 | 00:00:00 | 00:00:00 | |
| OE5FHM-15 | 2026-08-31 01:34:22 | 48.61542 | 13.49447 | 56° | 66km/h | 7509m | -3.2m/s | -23.3°C | 57.8% | 399.4hPa | 2.5V | 00:00:00 | 03:05:03 | 00:00:00 | |
| OE5DRO-10 | 2026-08-31 01:34:21 | 48.61534 | 13.49427 | 57° | 64km/h | 7512m | -3.4m/s | -23.3°C | 57.7% | 399.3hPa | 2.6V | 00:00:00 | 00:00:00 | 00:00:00 | |
| DO3MHA-11 | 2026-08-31 01:34:17 | 48.61502 | 13.49348 | 63° | 64km/h | 7526m | -3.2m/s | -23.4°C | 53.4% | 398.5hPa | 2.6V | 00:00:00 | 03:04:58 | 00:00:00 | |
| OE5MMP-10 | 2026-08-31 01:34:16 | 48.61495 | 13.49327 | 65° | 64km/h | 7529m | -3.2m/s | -23.4°C | 54.0% | 398.4hPa | 2.6V | 00:00:00 | 03:04:57 | 00:00:00 | |
| OE5WHR-10 | 2026-08-31 01:34:14 | 48.61482 | 13.49284 | 67° | 68km/h | 7536m | -3.6m/s | -23.4°C | 54.1% | 398.0hPa | 2.6V | 00:00:00 | 00:00:00 | 00:00:00 | |
| NBG1-10 | 2026-08-31 01:34:13 | 48.61476 | 13.49262 | 68° | 69km/h | 7539m | -3.4m/s | -23.4°C | 52.3% | 397.8hPa | 2.6V | 00:00:00 | 03:04:54 | 00:00:00 | |
| DG1MFX-10 | 2026-08-31 01:34:12 | 48.61476 | 13.49262 | 69° | 64km/h | 7539m | -3.4m/s | -23.4°C | 49.3% | 397.9hPa | 2.6V | 07:30:00 | 00:00:00 | 00:00:00 | |
| PG1ADW-2 | 2026-08-31 01:34:11 | 48.61464 | 13.49216 | 70° | 69km/h | 7546m | -3.5m/s | -23.4°C | 50.0% | 397.4hPa | 2.6V | 00:00:00 | 00:00:00 | 00:00:00 | |
| OE5HKT-10 | 2026-08-31 01:34:10 | 48.61458 | 13.49193 | 70° | 69km/h | 7550m | -3.6m/s | -23.4°C | 49.3% | 397.3hPa | 2.6V | 00:00:00 | 03:04:51 | 00:00:00 | |
| OE5REO-15 | 2026-08-31 01:34:09 | 48.61458 | 13.49193 | 71° | 66km/h | 7550m | -3.7m/s | -23.5°C | 46.4% | 397.3hPa | 2.6V | 07:30:00 | 00:00:00 | 00:00:00 | |
| DO3MHA-11 | 2026-08-31 01:34:07 | 48.61441 | 13.49121 | 71° | 69km/h | 7561m | -3.5m/s | -23.5°C | 48.7% | 396.5hPa | 2.6V | 00:00:00 | 03:04:48 | 00:00:00 | |
| OE5MMP-10 | 2026-08-31 01:34:06 | 48.61435 | 13.49096 | 71° | 69km/h | 7564m | -3.6m/s | -23.6°C | 48.7% | 396.4hPa | 2.6V | 00:00:00 | 03:04:47 | 00:00:00 | |
| OE5DRO-10 | 2026-08-31 01:34:02 | 48.61412 | 13.48996 | 71° | 71km/h | 7579m | -3.4m/s | -23.7°C | 46.9% | 395.7hPa | 2.6V | 00:00:00 | 00:00:00 | 00:00:00 | |
| DL6DJ-15 | 2026-08-31 01:33:59 | 48.61393 | 13.48920 | 70° | 69km/h | 7589m | -3.6m/s | -23.8°C | 45.6% | 395.1hPa | 2.6V | 00:00:00 | 00:00:00 | 00:00:00 | |
| DO3MHA-11 | 2026-08-31 01:33:57 | 48.61382 | 13.48869 | 71° | 69km/h | 7596m | -3.5m/s | -23.8°C | 47.6% | 394.7hPa | 2.6V | 07:30:00 | 03:04:38 | 00:00:00 | |
| OE5MMP-10 | 2026-08-31 01:33:56 | 48.61376 | 13.48843 | 72° | 71km/h | 7600m | -3.5m/s | -23.9°C | 48.0% | 394.5hPa | 2.6V | 00:00:00 | 03:04:37 | 00:00:00 | |
| OE3JTB-15 | 2026-08-31 01:33:54 | 48.61365 | 13.48793 | 72° | 75km/h | 7607m | -3.5m/s | -23.9°C | 49.6% | 394.2hPa | 2.5V | 00:00:00 | 00:00:00 | 00:00:00 | |
| OE5WHR-10 | 2026-08-31 01:33:53 | 48.61359 | 13.48768 | 72° | 73km/h | 7610m | -3.4m/s | -24.0°C | 49.6% | 393.9hPa | 2.6V | 07:30:00 | 00:00:00 | 00:00:00 | |
| OE5FHM-15 | 2026-08-31 01:33:52 | 48.61353 | 13.48742 | 72° | 77km/h | 7614m | -3.4m/s | -24.0°C | 49.9% | 393.8hPa | 2.6V | 00:00:00 | 03:04:33 | 00:00:00 | |
| PG1ADW-2 | 2026-08-31 01:33:51 | 48.61348 | 13.48717 | 73° | 73km/h | 7617m | -3.6m/s | -24.0°C | 49.7% | 393.5hPa | 2.6V | 00:00:00 | 03:04:32 | 00:00:00 | |
| OE5HKT-10 | 2026-08-31 01:33:49 | 48.61337 | 13.48666 | 73° | 75km/h | 7625m | -3.6m/s | -24.0°C | 48.3% | 393.1hPa | 2.6V | 00:00:00 | 00:00:00 | 00:00:00 | |
| DO3MHA-11 | 2026-08-31 01:33:47 | 48.61327 | 13.48614 | 74° | 73km/h | 7632m | -3.4m/s | -24.1°C | 49.2% | 392.8hPa | 2.6V | 00:00:00 | 03:04:28 | 00:00:00 | |
| OE5MMP-10 | 2026-08-31 01:33:46 | 48.61321 | 13.48588 | 74° | 73km/h | 7635m | -3.3m/s | -24.2°C | 50.6% | 392.6hPa | 2.6V | 00:00:00 | 03:04:27 | 00:00:00 | |
| OE5DRO-10 | 2026-08-31 01:33:43 | 48.61306 | 13.48508 | 75° | 77km/h | 7646m | -3.3m/s | -24.2°C | 48.3% | 392.1hPa | 2.6V | 00:00:00 | 00:00:00 | 00:00:00 | |
| NBG1-10 | 2026-08-31 01:33:40 | 48.61292 | 13.48428 | 75° | 80km/h | 7656m | -3.4m/s | -24.3°C | 47.0% | 391.5hPa | 2.6V | 00:00:00 | 03:04:21 | 00:00:00 | |
| OE5REO-15 | 2026-08-31 01:33:38 | 48.61286 | 13.48401 | 75° | 73km/h | 7659m | -3.4m/s | -24.3°C | 43.6% | 391.4hPa | 2.6V | 07:31:00 | 00:00:00 | 00:00:00 | |
| DO3MHA-11 | 2026-08-31 01:33:37 | 48.61276 | 13.48347 | 75° | 78km/h | 7666m | -3.4m/s | -24.3°C | 45.8% | 391.0hPa | 2.6V | 00:00:00 | 03:04:18 | 00:00:00 | |
| OE5MMP-10 | 2026-08-31 01:33:36 | 48.61271 | 13.48319 | 74° | 78km/h | 7669m | -3.2m/s | -24.4°C | 46.0% | 390.8hPa | 2.6V | 07:31:00 | 03:04:17 | 00:00:00 | |
| OE5WHR-10 | 2026-08-31 01:33:32 | 48.61250 | 13.48206 | 75° | 82km/h | 7682m | -3.3m/s | -24.4°C | 41.0% | 390.1hPa | 2.6V | 00:00:00 | 03:04:13 | 00:00:00 | |
| PG1ADW-2 | 2026-08-31 01:33:31 | 48.61245 | 13.48177 | 75° | 82km/h | 7686m | -3.3m/s | -24.4°C | 41.1% | 389.9hPa | 2.6V | 00:00:00 | 00:00:00 | 00:00:00 | |
| DG1MFX-10 | 2026-08-31 01:33:30 | 48.61245 | 13.48177 | 75° | 78km/h | 7686m | -3.3m/s | -24.5°C | 38.4% | 389.9hPa | 2.6V | 07:31:00 | 00:00:00 | 00:00:00 | |
| OE5HKT-10 | 2026-08-31 01:33:28 | 48.61228 | 13.48089 | 74° | 80km/h | 7696m | -3.3m/s | -24.4°C | 36.0% | 389.4hPa | 2.6V | 00:00:00 | 00:00:00 | 00:00:00 | |
| DO3MHA-11 | 2026-08-31 01:33:27 | 48.61222 | 13.48059 | 74° | 84km/h | 7699m | -3.5m/s | -24.4°C | 35.6% | 389.2hPa | 2.6V | 00:00:00 | 03:04:08 | 00:00:00 | |
| OE5MMP-10 | 2026-08-31 01:33:26 | 48.61216 | 13.48029 | 74° | 84km/h | 7702m | -3.4m/s | -24.4°C | 35.2% | 389.0hPa | 2.6V | 00:00:00 | 03:04:07 | 00:00:00 | |
| OE3JTB-15 | 2026-08-31 01:33:25 | 48.61210 | 13.47998 | 73° | 75km/h | 7706m | -3.5m/s | -24.4°C | 35.0% | 388.8hPa | 2.5V | 00:00:00 | 00:00:00 | 00:00:00 | |
| OE5DRO-10 | 2026-08-31 01:33:24 | 48.61203 | 13.47968 | 73° | 80km/h | 7709m | -3.4m/s | -24.5°C | 35.2% | 388.6hPa | 2.5V | 00:00:00 | 00:00:00 | 00:00:00 | |
| OE5REO-15 | 2026-08-31 01:33:23 | 48.61203 | 13.47968 | 73° | 84km/h | 7709m | -3.4m/s | -24.5°C | 32.8% | 388.7hPa | 2.5V | 07:31:00 | 00:00:00 | 00:00:00 | |
| OE5FHM-15 | 2026-08-31 01:33:22 | 48.61190 | 13.47906 | 72° | 77km/h | 7716m | -3.3m/s | -24.5°C | 35.2% | 388.2hPa | 2.5V | 00:00:00 | 03:04:03 | 00:00:00 | |
| DO3MHA-11 | 2026-08-31 01:33:17 | 48.61152 | 13.47753 | 68° | 78km/h | 7732m | -3.1m/s | -24.7°C | 34.8% | 387.4hPa | 2.5V | 00:00:00 | 03:03:58 | 00:00:00 | |
| OE5MMP-10 | 2026-08-31 01:33:16 | 48.61144 | 13.47724 | 66° | 77km/h | 7736m | -3.1m/s | -24.7°C | 34.4% | 387.2hPa | 2.5V | 00:00:00 | 03:03:57 | 00:00:00 | |
| OE5WHR-10 | 2026-08-31 01:33:11 | 48.61099 | 13.47588 | 63° | 73km/h | 7751m | -3.2m/s | -24.7°C | 32.2% | 386.3hPa | 2.5V | 00:00:00 | 00:00:00 | 00:00:00 | |
| DG1MFX-10 | 2026-08-31 01:33:09 | 48.61090 | 13.47563 | 64° | 73km/h | 7754m | -3.2m/s | -24.8°C | 29.5% | 386.3hPa | 2.6V | 07:31:00 | 00:00:00 | 00:00:00 | |
| DO3MHA-11 | 2026-08-31 01:33:07 | 48.61068 | 13.47488 | 68° | 71km/h | 7764m | -3.1m/s | -24.8°C | 28.5% | 385.7hPa | 2.6V | 00:00:00 | 03:03:48 | 00:00:00 | |
| OE5MMP-10 | 2026-08-31 01:33:06 | 48.61061 | 13.47464 | 70° | 71km/h | 7768m | -3.1m/s | -24.7°C | 27.0% | 385.6hPa | 2.6V | 00:00:00 | 03:03:47 | 00:00:00 | |
| OE5DRO-10 | 2026-08-31 01:33:05 | 48.61055 | 13.47439 | 71° | 75km/h | 7771m | -3.2m/s | -24.7°C | 26.0% | 385.4hPa | 2.6V | 00:00:00 | 00:00:00 | 00:00:00 | |
| DL6DJ-15 | 2026-08-31 01:32:57 | 48.61012 | 13.47201 | 77° | 75km/h | 7800m | -3.4m/s | -24.8°C | 19.1% | 383.9hPa | 2.6V | 00:00:00 | 00:00:00 | 00:00:00 | |
| OE5MMP-10 | 2026-08-31 01:32:56 | 48.61012 | 13.47201 | 78° | 78km/h | 7800m | -3.4m/s | -24.7°C | 20.9% | 383.8hPa | 2.6V | 00:00:00 | 03:03:37 | 00:00:00 | |
| OE5FHM-15 | 2026-08-31 01:32:52 | 48.60996 | 13.47087 | 79° | 86km/h | 7813m | -3.1m/s | -24.8°C | 20.8% | 383.1hPa | 2.5V | 00:00:00 | 03:03:33 | 00:00:00 | |
| PG1ADW-2 | 2026-08-31 01:32:51 | 48.60992 | 13.47058 | 79° | 86km/h | 7817m | -3.3m/s | -24.9°C | 20.6% | 382.9hPa | 2.6V | 00:00:00 | 00:00:00 | 00:00:00 | |
| OE5WHR-10 | 2026-08-31 01:32:50 | 48.60988 | 13.47028 | 79° | 86km/h | 7820m | -3.3m/s | -24.9°C | 20.5% | 382.7hPa | 2.5V | 00:00:00 | 00:00:00 | 00:00:00 | |
| DG1MFX-10 | 2026-08-31 01:32:48 | 48.60984 | 13.46998 | 80° | 80km/h | 7823m | -3.4m/s | -24.9°C | 18.5% | 382.6hPa | 2.5V | 00:00:00 | 00:00:00 | 00:00:00 | |
| OE5MMP-10 | 2026-08-31 01:32:46 | 48.60971 | 13.46907 | 79° | 88km/h | 7833m | -3.2m/s | -24.9°C | 19.2% | 382.1hPa | 2.5V | 00:00:00 | 03:03:27 | 00:00:00 | |
| DO3MHA-11 | 2026-08-31 01:32:37 | 48.60919 | 13.46615 | 71° | 88km/h | 7861m | -3.2m/s | -25.1°C | 18.7% | 380.6hPa | 2.5V | 07:32:00 | 03:03:18 | 00:00:00 | |
| OE5MMP-10 | 2026-08-31 01:32:36 | 48.60911 | 13.46583 | 70° | 86km/h | 7864m | -3.1m/s | -25.1°C | 18.7% | 380.4hPa | 2.5V | 00:00:00 | 03:03:17 | 00:00:00 | |
| PG1ADW-2 | 2026-08-31 01:32:31 | 48.60869 | 13.46429 | 67° | 78km/h | 7880m | -3.2m/s | -25.3°C | 18.9% | 379.6hPa | 2.5V | 00:00:00 | 03:03:12 | 00:00:00 | |
| OE5WHR-10 | 2026-08-31 01:32:29 | 48.60851 | 13.46369 | 67° | 77km/h | 7887m | -3.1m/s | -25.3°C | 19.0% | 379.3hPa | 2.5V | 00:00:00 | 03:03:10 | 00:00:00 | |
| DO3MHA-11 | 2026-08-31 01:32:27 | 48.60834 | 13.46310 | 66° | 80km/h | 7893m | -3.1m/s | -25.4°C | 19.1% | 378.9hPa | 2.5V | 00:00:00 | 03:03:08 | 00:00:00 | |
| DL6DJ-15 | 2026-08-31 01:32:26 | 48.60816 | 13.46252 | 64° | 82km/h | 7899m | -3.2m/s | -25.5°C | 17.6% | 378.7hPa | 2.5V | 00:00:00 | 00:00:00 | 00:00:00 | |
| OE5HKT-10 | 2026-08-31 01:32:25 | 48.60816 | 13.46252 | 65° | 75km/h | 7899m | -3.2m/s | -25.5°C | 19.2% | 378.6hPa | 2.5V | 00:00:00 | 00:00:00 | 00:00:00 | |
| OE5FHM-15 | 2026-08-31 01:32:22 | 48.60789 | 13.46167 | 65° | 73km/h | 7908m | -3.0m/s | -25.6°C | 19.3% | 378.1hPa | 2.5V | 00:00:00 | 03:03:03 | 00:00:00 | |
| OE5REO-15 | 2026-08-31 01:32:21 | 48.60789 | 13.46167 | 65° | 80km/h | 7908m | -3.1m/s | -25.6°C | 17.6% | 378.2hPa | 2.5V | 07:32:00 | 00:00:00 | 00:00:00 | |
| DO3MHA-11 | 2026-08-31 01:32:17 | 48.60750 | 13.46037 | 69° | 71km/h | 7924m | -3.1m/s | -25.7°C | 19.4% | 377.3hPa | 2.5V | 00:00:00 | 03:02:58 | 00:00:00 | |
| OE5MMP-10 | 2026-08-31 01:32:16 | 48.60744 | 13.46011 | 71° | 71km/h | 7927m | -3.1m/s | -25.7°C | 19.5% | 377.2hPa | 2.5V | 07:32:00 | 03:02:57 | 00:00:00 | |
| PG1ADW-2 | 2026-08-31 01:32:11 | 48.60718 | 13.45882 | 75° | 73km/h | 7942m | -3.1m/s | -25.9°C | 19.7% | 376.4hPa | 2.5V | 00:00:00 | 00:00:00 | 00:00:00 | |
| OE5WHR-10 | 2026-08-31 01:32:08 | 48.60703 | 13.45802 | 76° | 73km/h | 7952m | -3.1m/s | -25.9°C | 19.8% | 376.0hPa | 2.5V | 00:00:00 | 00:00:00 | 00:00:00 | |
| DO3MHA-11 | 2026-08-31 01:32:07 | 48.60699 | 13.45775 | 76° | 71km/h | 7955m | -3.0m/s | -26.0°C | 19.9% | 375.8hPa | 2.6V | 00:00:00 | 03:02:48 | 00:00:00 | |
| OE5MMP-10 | 2026-08-31 01:32:06 | 48.60694 | 13.45749 | 75° | 71km/h | 7958m | -2.9m/s | -26.0°C | 19.9% | 375.6hPa | 2.6V | 00:00:00 | 03:02:47 | 00:00:00 | |
| OE5REO-15 | 2026-08-31 01:32:05 | 48.60694 | 13.45749 | 76° | 71km/h | 7958m | -3.0m/s | -26.0°C | 18.1% | 375.7hPa | 2.6V | 07:32:00 | 00:00:00 | 00:00:00 | |
| OE5HKT-10 | 2026-08-31 01:32:04 | 48.60684 | 13.45696 | 73° | 73km/h | 7964m | -3.1m/s | -26.1°C | 20.2% | 375.3hPa | 2.6V | 00:00:00 | 03:02:45 | 00:00:00 | |
| DL6DJ-15 | 2026-08-31 01:31:54 | 48.60630 | 13.45433 | 75° | 73km/h | 7994m | -3.0m/s | -26.4°C | 19.4% | 373.8hPa | 2.6V | 00:00:00 | 00:00:00 | 00:00:00 | |
| OE5FHM-15 | 2026-08-31 01:31:52 | 48.60621 | 13.45379 | 76° | 77km/h | 8000m | -3.0m/s | -26.3°C | 21.4% | 373.4hPa | 2.6V | 00:00:00 | 03:02:33 | 00:00:00 | |
| PG1ADW-2 | 2026-08-31 01:31:51 | 48.60616 | 13.45352 | 76° | 75km/h | 8003m | -2.9m/s | -26.4°C | 21.3% | 373.3hPa | 2.6V | 07:32:00 | 00:00:00 | 00:00:00 | |
| OE5DRO-10 | 2026-08-31 01:31:49 | 48.60606 | 13.45297 | 76° | 75km/h | 8009m | -3.1m/s | -26.4°C | 21.5% | 373.0hPa | 2.5V | 00:00:00 | 00:00:00 | 00:00:00 | |
| OE5WHR-10 | 2026-08-31 01:31:47 | 48.60597 | 13.45244 | 75° | 77km/h | 8015m | -3.0m/s | -26.5°C | 21.5% | 372.6hPa | 2.5V | 00:00:00 | 00:00:00 | 00:00:00 | |
| OE5MMP-10 | 2026-08-31 01:31:46 | 48.60592 | 13.45217 | 76° | 73km/h | 8018m | -3.0m/s | -26.5°C | 21.5% | 372.5hPa | 2.5V | 00:00:00 | 03:02:27 | 00:00:00 | |
| OE5HKT-10 | 2026-08-31 01:31:43 | 48.60578 | 13.45137 | 76° | 78km/h | 8027m | -3.0m/s | -26.6°C | 21.7% | 372.0hPa | 2.5V | 00:00:00 | 00:00:00 | 00:00:00 | |
| NBG1-10 | 2026-08-31 01:31:39 | 48.60561 | 13.45028 | 78° | 84km/h | 8039m | -3.0m/s | -26.7°C | 21.9% | 371.4hPa | 2.5V | 00:00:00 | 03:02:20 | 00:00:00 | |
| OE5MMP-10 | 2026-08-31 01:31:36 | 48.60549 | 13.44942 | 80° | 80km/h | 8049m | -3.0m/s | -26.8°C | 22.2% | 371.0hPa | 2.5V | 00:00:00 | 03:02:17 | 00:00:00 | |
| OE5REO-15 | 2026-08-31 01:31:33 | 48.60542 | 13.44883 | 80° | 78km/h | 8055m | -3.2m/s | -26.8°C | 20.3% | 370.6hPa | 2.5V | 07:33:00 | 00:00:00 | 00:00:00 | |
| PG1ADW-2 | 2026-08-31 01:31:31 | 48.60531 | 13.44793 | 80° | 86km/h | 8064m | -3.2m/s | -26.9°C | 22.4% | 370.1hPa | 2.5V | 00:00:00 | 00:00:00 | 00:00:00 | |
| OE5DRO-10 | 2026-08-31 01:31:30 | 48.60527 | 13.44763 | 80° | 86km/h | 8067m | -3.0m/s | -26.9°C | 22.5% | 370.0hPa | 2.5V | 00:00:00 | 00:00:00 | 00:00:00 | |
| DO3MHA-11 | 2026-08-31 01:31:27 | 48.60516 | 13.44672 | 80° | 84km/h | 8076m | -2.9m/s | -27.0°C | 22.8% | 369.5hPa | 2.5V | 00:00:00 | 03:02:08 | 00:00:00 | |
| OE5MMP-10 | 2026-08-31 01:31:26 | 48.60512 | 13.44642 | 80° | 84km/h | 8079m | -2.9m/s | -27.0°C | 22.8% | 369.4hPa | 2.5V | 00:00:00 | 03:02:07 | 00:00:00 | |
| DL6DJ-15 | 2026-08-31 01:31:23 | 48.60501 | 13.44549 | 79° | 84km/h | 8088m | -3.0m/s | -27.1°C | 21.2% | 369.0hPa | 2.5V | 00:00:00 | 00:00:00 | 00:00:00 | |
| OE5HKT-10 | 2026-08-31 01:31:22 | 48.60497 | 13.44517 | 79° | 89km/h | 8091m | -3.1m/s | -27.1°C | 23.3% | 368.8hPa | 2.5V | 00:00:00 | 00:00:00 | 00:00:00 | |
| DO3MHA-11 | 2026-08-31 01:31:17 | 48.60476 | 13.44357 | 79° | 91km/h | 8106m | -3.0m/s | -27.2°C | 25.2% | 368.1hPa | 2.5V | 07:33:00 | 03:01:58 | 00:00:00 | |
| OE5MMP-10 | 2026-08-31 01:31:16 | 48.60471 | 13.44324 | 79° | 91km/h | 8109m | -3.0m/s | -27.3°C | 25.8% | 367.8hPa | 2.5V | 00:00:00 | 03:01:57 | 00:00:00 | |
| OE5DRO-10 | 2026-08-31 01:31:11 | 48.60447 | 13.44156 | 77° | 89km/h | 8124m | -3.1m/s | -27.4°C | 29.5% | 367.1hPa | 2.5V | 00:00:00 | 00:00:00 | 00:00:00 | |
| S52SK | 2026-08-31 01:31:10 | 48.60447 | 13.44156 | 77° | 91km/h | 8124m | -3.1m/s | -27.5°C | 27.1% | 367.1hPa | 2.5V | 00:00:00 | 00:00:00 | 00:00:00 | |
| DO3MHA-11 | 2026-08-31 01:31:07 | 48.60422 | 13.44019 | 74° | 91km/h | 8136m | -3.1m/s | -27.5°C | 29.9% | 366.5hPa | 2.5V | 00:00:00 | 03:01:48 | 00:00:00 | |
| OE5MMP-10 | 2026-08-31 01:31:06 | 48.60415 | 13.43985 | 74° | 91km/h | 8139m | -3.0m/s | -27.5°C | 29.9% | 366.3hPa | 2.5V | 00:00:00 | 03:01:47 | 00:00:00 | |
| OE5WHR-10 | 2026-08-31 01:31:05 | 48.60408 | 13.43951 | 73° | 86km/h | 8142m | -3.1m/s | -27.6°C | 30.2% | 366.1hPa | 2.5V | 07:33:00 | 00:00:00 | 00:00:00 | |
| OE5REO-15 | 2026-08-31 01:31:03 | 48.60401 | 13.43917 | 72° | 93km/h | 8145m | -2.9m/s | -27.7°C | 28.0% | 366.1hPa | 2.5V | 07:34:00 | 00:00:00 | 00:00:00 | |
| OE5HKT-10 | 2026-08-31 01:31:01 | 48.60377 | 13.43817 | 70° | 82km/h | 8154m | -2.9m/s | -27.7°C | 31.3% | 365.5hPa | 2.5V | 00:00:00 | 03:01:42 | 00:00:00 | |
| DO3MHA-11 | 2026-08-31 01:30:57 | 48.60344 | 13.43692 | 68° | 80km/h | 8166m | -2.8m/s | -27.7°C | 30.3% | 364.9hPa | 2.5V | 00:00:00 | 03:01:38 | 00:00:00 | |
| OE5MMP-10 | 2026-08-31 01:30:56 | 48.60335 | 13.43662 | 68° | 82km/h | 8168m | -2.8m/s | -27.8°C | 30.5% | 364.9hPa | 2.5V | 07:33:00 | 03:01:37 | 00:00:00 | |
| OE5DRO-10 | 2026-08-31 01:30:52 | 48.60302 | 13.43545 | 67° | 77km/h | 8180m | -3.0m/s | -27.9°C | 32.5% | 364.1hPa | 2.5V | 00:00:00 | 00:00:00 | 00:00:00 | |
| PG1ADW-2 | 2026-08-31 01:30:51 | 48.60294 | 13.43516 | 67° | 77km/h | 8183m | -3.1m/s | -27.9°C | 33.3% | 364.0hPa | 2.5V | 00:00:00 | 00:00:00 | 00:00:00 | |
| OE5DXL-15 | 2026-08-31 01:30:47 | 48.60262 | 13.43403 | 69° | 80km/h | 8195m | -3.0m/s | -28.0°C | 35.1% | 363.4hPa | 2.5V | 00:00:00 | 00:00:00 | 00:00:00 | |
| OE5MMP-10 | 2026-08-31 01:30:46 | 48.60255 | 13.43376 | 70° | 75km/h | 8198m | -3.2m/s | -28.0°C | 35.1% | 363.3hPa | 2.5V | 00:00:00 | 03:01:27 | 00:00:00 | |
| DO3MHA-11 | 2026-08-31 01:30:45 | 48.60249 | 13.43349 | 71° | 75km/h | 8201m | -2.9m/s | -28.0°C | 34.9% | 363.1hPa | 2.5V | 00:00:00 | 03:01:26 | 00:00:00 | |
| OE5HKT-10 | 2026-08-31 01:30:40 | 48.60219 | 13.43213 | 74° | 82km/h | 8216m | -3.2m/s | -28.2°C | 34.4% | 362.4hPa | 2.5V | 00:00:00 | 00:00:00 | 00:00:00 | |
| OE5MMP-10 | 2026-08-31 01:30:36 | 48.60201 | 13.43103 | 78° | 80km/h | 8229m | -3.0m/s | -28.3°C | 35.0% | 361.7hPa | 2.5V | 00:00:00 | 03:01:17 | 00:00:00 | |
| DO3MHA-11 | 2026-08-31 01:30:35 | 48.60197 | 13.43074 | 80° | 82km/h | 8232m | -3.1m/s | -28.3°C | 35.1% | 361.6hPa | 2.5V | 00:00:00 | 03:01:16 | 00:00:00 | |
| OE3JTB-15 | 2026-08-31 01:30:34 | 48.60193 | 13.43045 | 80° | 91km/h | 8235m | -3.2m/s | -28.3°C | 35.3% | 361.4hPa | 2.5V | 00:00:00 | 03:01:15 | 00:00:00 | |
| NBG1-10 | 2026-08-31 01:30:33 | 48.60190 | 13.43015 | 81° | 86km/h | 8238m | -3.0m/s | -28.3°C | 35.4% | 361.2hPa | 2.5V | 00:00:00 | 03:01:14 | 00:00:00 | |
| PG1ADW-2 | 2026-08-31 01:30:31 | 48.60183 | 13.42953 | 82° | 89km/h | 8244m | -3.2m/s | -28.4°C | 35.9% | 361.0hPa | 2.5V | 00:00:00 | 00:00:00 | 00:00:00 | |
| OE5MMP-10 | 2026-08-31 01:30:26 | 48.60168 | 13.42796 | 82° | 89km/h | 8260m | -2.8m/s | -28.5°C | 36.2% | 360.2hPa | 2.5V | 00:00:00 | 03:01:07 | 00:00:00 | |
| DO3MHA-11 | 2026-08-31 01:30:25 | 48.60165 | 13.42764 | 83° | 89km/h | 8263m | -3.1m/s | -28.6°C | 36.2% | 360.0hPa | 2.5V | 00:00:00 | 03:01:06 | 00:00:00 | |
| OE5WHR-10 | 2026-08-31 01:30:23 | 48.60159 | 13.42698 | 83° | 93km/h | 8270m | -3.2m/s | -28.6°C | 36.2% | 359.7hPa | 2.5V | 00:00:00 | 03:01:04 | 00:00:00 | |
| OE5FHM-15 | 2026-08-31 01:30:22 | 48.60156 | 13.42665 | 83° | 91km/h | 8273m | -3.3m/s | -28.6°C | 36.2% | 359.5hPa | 2.5V | 00:00:00 | 03:01:03 | 00:00:00 | |
| DL6DJ-15 | 2026-08-31 01:30:21 | 48.60153 | 13.42632 | 81° | 88km/h | 8276m | -3.2m/s | -28.7°C | 33.3% | 359.4hPa | 2.5V | 00:00:00 | 00:00:00 | 00:00:00 | |
| OE5HKT-10 | 2026-08-31 01:30:19 | 48.60146 | 13.42564 | 82° | 95km/h | 8282m | -3.1m/s | -28.7°C | 36.2% | 359.0hPa | 2.5V | 00:00:00 | 00:00:00 | 00:00:00 | |
| OE5DXL-15 | 2026-08-31 01:30:17 | 48.60139 | 13.42495 | 82° | 89km/h | 8289m | -3.1m/s | -28.8°C | 36.1% | 358.8hPa | 2.5V | 00:00:00 | 00:00:00 | 00:00:00 | |
| OE5MMP-10 | 2026-08-31 01:30:16 | 48.60135 | 13.42460 | 81° | 95km/h | 8292m | -3.1m/s | -28.8°C | 36.0% | 358.6hPa | 2.5V | 00:00:00 | 03:00:57 | 00:00:00 | |
| DO3MHA-11 | 2026-08-31 01:30:15 | 48.60132 | 13.42425 | 81° | 95km/h | 8295m | -3.3m/s | -28.8°C | 35.8% | 358.4hPa | 2.5V | 00:00:00 | 03:00:56 | 00:00:00 | |
| OE5DRO-10 | 2026-08-31 01:30:14 | 48.60127 | 13.42389 | 81° | 93km/h | 8298m | -3.1m/s | -28.8°C | 35.8% | 358.2hPa | 2.5V | 07:34:00 | 00:00:00 | 00:00:00 | |
| PG1ADW-2 | 2026-08-31 01:30:11 | 48.60114 | 13.42282 | 80° | 89km/h | 8307m | -3.0m/s | -28.9°C | 35.7% | 357.8hPa | 2.5V | 00:00:00 | 00:00:00 | 00:00:00 | |
| DG1MFX-10 | 2026-08-31 01:30:08 | 48.60105 | 13.42210 | 79° | 97km/h | 8313m | -3.0m/s | -29.1°C | 32.9% | 357.5hPa | 2.5V | 07:35:00 | 00:00:00 | 00:00:00 | |
| OE5MMP-10 | 2026-08-31 01:30:06 | 48.60088 | 13.42102 | 76° | 91km/h | 8323m | -3.0m/s | -29.1°C | 35.0% | 357.0hPa | 2.5V | 00:00:00 | 03:00:47 | 00:00:00 | |
| DO3MHA-11 | 2026-08-31 01:30:05 | 48.60082 | 13.42066 | 75° | 89km/h | 8326m | -3.0m/s | -29.1°C | 34.9% | 356.9hPa | 2.5V | 00:00:00 | 03:00:46 | 00:00:00 | |
| OE5WHR-10 | 2026-08-31 01:30:02 | 48.60061 | 13.41961 | 72° | 82km/h | 8335m | -3.1m/s | -29.2°C | 33.9% | 356.4hPa | 2.5V | 00:00:00 | 00:00:00 | 00:00:00 | |
| DL6DJ-15 | 2026-08-31 01:29:50 | 48.59983 | 13.41596 | 73° | 78km/h | 8371m | -3.2m/s | -29.4°C | 25.8% | 354.7hPa | 2.5V | 00:00:00 | 00:00:00 | 00:00:00 | |
| OE5DXL-15 | 2026-08-31 01:29:47 | 48.59968 | 13.41509 | 78° | 89km/h | 8380m | -3.1m/s | -29.4°C | 27.9% | 354.1hPa | 2.5V | 07:34:00 | 00:00:00 | 00:00:00 | |
| OE5MMP-10 | 2026-08-31 01:29:46 | 48.59964 | 13.41480 | 79° | 82km/h | 8384m | -3.2m/s | -29.4°C | 28.0% | 354.0hPa | 2.5V | 00:00:00 | 03:00:27 | 00:00:00 | |
| DO3MHA-11 | 2026-08-31 01:29:45 | 48.59960 | 13.41450 | 80° | 82km/h | 8387m | -3.0m/s | -29.4°C | 28.2% | 353.9hPa | 2.5V | 00:00:00 | 03:00:26 | 00:00:00 | |
| OE5WHR-10 | 2026-08-31 01:29:41 | 48.59947 | 13.41329 | 82° | 91km/h | 8399m | -3.1m/s | -29.5°C | 28.4% | 353.2hPa | 2.5V | 00:00:00 | 00:00:00 | 00:00:00 | |
| OE5HKT-10 | 2026-08-31 01:29:37 | 48.59936 | 13.41201 | 83° | 93km/h | 8412m | -3.1m/s | -29.6°C | 28.7% | 352.7hPa | 2.5V | 00:00:00 | 00:00:00 | 00:00:00 | |
| OE5MMP-10 | 2026-08-31 01:29:36 | 48.59933 | 13.41169 | 83° | 91km/h | 8415m | -3.0m/s | -29.6°C | 28.7% | 352.5hPa | 2.5V | 07:35:00 | 03:00:17 | 00:00:00 | |
| DO3MHA-11 | 2026-08-31 01:29:35 | 48.59930 | 13.41136 | 84° | 91km/h | 8418m | -3.0m/s | -29.6°C | 28.8% | 352.3hPa | 2.5V | 00:00:00 | 03:00:16 | 00:00:00 | |
| PG1ADW-2 | 2026-08-31 01:29:31 | 48.59920 | 13.41001 | 84° | 97km/h | 8430m | -3.1m/s | -29.7°C | 29.2% | 351.7hPa | 2.5V | 00:00:00 | 00:00:00 | 00:00:00 | |
| OE5REO-15 | 2026-08-31 01:29:30 | 48.59920 | 13.41001 | 84° | 91km/h | 8430m | -3.2m/s | -29.8°C | 26.6% | 351.8hPa | 2.5V | 07:35:00 | 00:00:00 | 00:00:00 | |
| DG1MFX-10 | 2026-08-31 01:29:27 | 48.59911 | 13.40897 | 83° | 95km/h | 8440m | -3.1m/s | -29.9°C | 26.7% | 351.2hPa | 2.5V | 07:35:00 | 00:00:00 | 00:00:00 | |
| OE5MMP-10 | 2026-08-31 01:29:26 | 48.59904 | 13.40825 | 81° | 99km/h | 8446m | -3.1m/s | -29.9°C | 29.2% | 350.9hPa | 2.5V | 00:00:00 | 03:00:07 | 00:00:00 | |
| DO3MHA-11 | 2026-08-31 01:29:25 | 48.59900 | 13.40788 | 80° | 99km/h | 8448m | -2.8m/s | -29.9°C | 29.3% | 350.8hPa | 2.5V | 00:00:00 | 03:00:06 | 00:00:00 | |
| NBG1-10 | 2026-08-31 01:29:24 | 48.59895 | 13.40752 | 79° | 88km/h | 8451m | -3.0m/s | -29.9°C | 29.3% | 350.6hPa | 2.5V | 00:00:00 | 03:00:05 | 00:00:00 | |
| OE5FHM-15 | 2026-08-31 01:29:22 | 48.59884 | 13.40679 | 77° | 91km/h | 8458m | -3.1m/s | -29.9°C | 29.5% | 350.3hPa | 2.5V | 00:00:00 | 03:00:03 | 00:00:00 | |
| OE5WHR-10 | 2026-08-31 01:29:20 | 48.59872 | 13.40606 | 76° | 95km/h | 8464m | -3.0m/s | -30.0°C | 29.3% | 350.0hPa | 2.5V | 00:00:00 | 03:00:01 | 00:00:00 | |
| DL6DJ-15 | 2026-08-31 01:29:19 | 48.59866 | 13.40569 | 74° | 97km/h | 8466m | -2.9m/s | -30.1°C | 26.7% | 349.9hPa | 2.5V | 00:00:00 | 00:00:00 | 00:00:00 | |
| OE5DXL-15 | 2026-08-31 01:29:17 | 48.59853 | 13.40497 | 75° | 89km/h | 8473m | -3.0m/s | -30.0°C | 29.5% | 349.6hPa | 2.5V | 00:00:00 | 00:00:00 | 00:00:00 | |
| OE5HKT-10 | 2026-08-31 01:29:16 | 48.59846 | 13.40461 | 74° | 91km/h | 8476m | -3.1m/s | -30.1°C | 29.6% | 349.4hPa | 2.5V | 00:00:00 | 00:00:00 | 00:00:00 | |
| DO3MHA-11 | 2026-08-31 01:29:15 | 48.59839 | 13.40425 | 74° | 97km/h | 8479m | -3.1m/s | -30.1°C | 29.6% | 349.3hPa | 2.5V | 00:00:00 | 02:59:56 | 00:00:00 | |
| OE5REO-15 | 2026-08-31 01:29:14 | 48.59839 | 13.40425 | 75° | 99km/h | 8479m | -3.1m/s | -30.2°C | 26.9% | 349.3hPa | 2.5V | 07:35:00 | 00:00:00 | 00:00:00 | |
| PG1ADW-2 | 2026-08-31 01:29:11 | 48.59810 | 13.40281 | 73° | 88km/h | 8491m | -3.2m/s | -30.2°C | 29.8% | 348.6hPa | 2.5V | 07:35:00 | 00:00:00 | 00:00:00 | |
| OE5MMP-10 | 2026-08-31 01:29:06 | 48.59771 | 13.40109 | 70° | 86km/h | 8507m | -3.1m/s | -30.4°C | 30.0% | 347.9hPa | 2.5V | 00:00:00 | 02:59:47 | 00:00:00 | |
| DO3MHA-11 | 2026-08-31 01:29:05 | 48.59762 | 13.40077 | 70° | 88km/h | 8510m | -3.1m/s | -30.4°C | 30.1% | 347.7hPa | 2.5V | 00:00:00 | 02:59:46 | 00:00:00 | |
| DL6DJ-15 | 2026-08-31 01:28:48 | 48.59661 | 13.39562 | 80° | 80km/h | 8562m | -3.3m/s | -30.9°C | 27.6% | 345.2hPa | 2.5V | 00:00:00 | 00:00:00 | 00:00:00 | |
| OE5DXL-15 | 2026-08-31 01:28:47 | 48.59658 | 13.39531 | 82° | 95km/h | 8566m | -3.1m/s | -30.8°C | 30.3% | 345.1hPa | 2.5V | 00:00:00 | 00:00:00 | 00:00:00 | |
| OE5MMP-10 | 2026-08-31 01:28:46 | 48.59655 | 13.39500 | 82° | 91km/h | 8569m | -3.1m/s | -30.9°C | 30.2% | 345.0hPa | 2.5V | 00:00:00 | 02:59:27 | 00:00:00 | |
| DG1MFX-10 | 2026-08-31 01:28:45 | 48.59655 | 13.39500 | 82° | 84km/h | 8569m | -3.1m/s | -30.9°C | 27.4% | 345.0hPa | 2.5V | 07:35:00 | 00:00:00 | 00:00:00 | |
| OE5REO-15 | 2026-08-31 01:28:42 | 48.59646 | 13.39403 | 84° | 88km/h | 8578m | -3.4m/s | -31.0°C | 27.3% | 344.4hPa | 2.5V | 07:35:00 | 00:00:00 | 00:00:00 | |
| OE5DRO-10 | 2026-08-31 01:28:39 | 48.59633 | 13.39265 | 82° | 99km/h | 8591m | -3.1m/s | -31.0°C | 30.0% | 343.9hPa | 2.5V | 00:00:00 | 00:00:00 | 00:00:00 | |
| OE5WHR-10 | 2026-08-31 01:28:38 | 48.59630 | 13.39229 | 82° | 99km/h | 8594m | -3.1m/s | -31.0°C | 29.9% | 343.7hPa | 2.5V | 00:00:00 | 00:00:00 | 00:00:00 | |
| OE5MMP-10 | 2026-08-31 01:28:36 | 48.59622 | 13.39156 | 81° | 100km/h | 8600m | -3.2m/s | -31.1°C | 29.8% | 343.4hPa | 2.5V | 00:00:00 | 02:59:17 | 00:00:00 | |
| S52SK | 2026-08-31 01:28:35 | 48.59622 | 13.39156 | 82° | 99km/h | 8600m | -3.2m/s | -31.1°C | 27.1% | 343.4hPa | 2.5V | 00:00:00 | 00:00:00 | 00:00:00 | |
| DO3MHA-11 | 2026-08-31 01:28:34 | 48.59614 | 13.39081 | 80° | 102km/h | 8607m | -3.1m/s | -31.1°C | 29.9% | 343.0hPa | 2.5V | 00:00:00 | 02:59:15 | 00:00:00 | |
| PG1ADW-2 | 2026-08-31 01:28:31 | 48.59598 | 13.38967 | 77° | 95km/h | 8616m | -3.1m/s | -31.2°C | 29.9% | 342.6hPa | 2.5V | 00:00:00 | 02:59:12 | 00:00:00 | |
| S52SK | 2026-08-31 01:28:29 | 48.59592 | 13.38929 | 77° | 102km/h | 8619m | -3.0m/s | -31.3°C | 27.1% | 342.5hPa | 2.5V | 00:00:00 | 00:00:00 | 00:00:00 | |
| OE5REO-15 | 2026-08-31 01:28:27 | 48.59579 | 13.38854 | 75° | 102km/h | 8625m | -3.1m/s | -31.3°C | 27.3% | 342.2hPa | 2.5V | 07:36:00 | 00:00:00 | 00:00:00 | |
| OE5MMP-10 | 2026-08-31 01:28:26 | 48.59564 | 13.38780 | 73° | 95km/h | 8631m | -2.9m/s | -31.3°C | 29.9% | 341.9hPa | 2.5V | 00:00:00 | 02:59:07 | 00:00:00 | |
| DG1MFX-10 | 2026-08-31 01:28:24 | 48.59557 | 13.38744 | 73° | 99km/h | 8634m | -2.9m/s | -31.4°C | 27.1% | 341.8hPa | 2.5V | 07:36:00 | 00:00:00 | 00:00:00 | |
| DO3MHA-11 | 2026-08-31 01:28:23 | 48.59541 | 13.38673 | 72° | 89km/h | 8640m | -3.0m/s | -31.4°C | 29.8% | 341.4hPa | 2.5V | 07:36:00 | 02:59:04 | 00:00:00 | |
| OE5FHM-15 | 2026-08-31 01:28:22 | 48.59533 | 13.38638 | 71° | 88km/h | 8643m | -2.8m/s | -31.4°C | 29.9% | 341.3hPa | 2.5V | 00:00:00 | 02:59:03 | 00:00:00 | |
| OE5DRO-10 | 2026-08-31 01:28:20 | 48.59517 | 13.38571 | 71° | 86km/h | 8649m | -3.0m/s | -31.4°C | 29.8% | 341.1hPa | 2.5V | 00:00:00 | 00:00:00 | 00:00:00 | |
| OE5WHR-10 | 2026-08-31 01:28:17 | 48.59494 | 13.38473 | 71° | 86km/h | 8658m | -3.1m/s | -31.5°C | 29.0% | 340.7hPa | 2.5V | 07:36:00 | 02:58:58 | 00:00:00 | |
| OE5MMP-10 | 2026-08-31 01:28:16 | 48.59486 | 13.38442 | 71° | 86km/h | 8661m | -3.0m/s | -31.5°C | 28.5% | 340.5hPa | 2.5V | 07:36:00 | 02:58:57 | 00:00:00 | |
| OE5REO-15 | 2026-08-31 01:28:12 | 48.59465 | 13.38347 | 73° | 86km/h | 8670m | -3.2m/s | -31.5°C | 22.8% | 340.1hPa | 2.5V | 07:36:00 | 00:00:00 | 00:00:00 | |
| DO3MHA-11 | 2026-08-31 01:28:11 | 48.59452 | 13.38285 | 74° | 84km/h | 8676m | -2.9m/s | -31.5°C | 23.3% | 339.7hPa | 2.5V | 00:00:00 | 02:58:52 | 00:00:00 | |
| OE5MMP-10 | 2026-08-31 01:28:06 | 48.59424 | 13.38130 | 77° | 86km/h | 8691m | -3.0m/s | -31.4°C | 19.1% | 339.0hPa | 2.5V | 00:00:00 | 02:58:47 | 00:00:00 | |
| DG1MFX-10 | 2026-08-31 01:28:04 | 48.59419 | 13.38099 | 78° | 84km/h | 8694m | -3.3m/s | -31.4°C | 16.6% | 338.9hPa | 2.5V | 07:36:00 | 00:00:00 | 00:00:00 | |
| OE5REO-15 | 2026-08-31 01:27:57 | 48.59392 | 13.37872 | 82° | 89km/h | 8716m | -3.1m/s | -31.5°C | 16.1% | 337.9hPa | 2.5V | 07:36:00 | 00:00:00 | 00:00:00 | |
| OE5WHR-10 | 2026-08-31 01:27:56 | 48.59385 | 13.37804 | 82° | 100km/h | 8722m | -3.0m/s | -31.5°C | 18.2% | 337.6hPa | 2.5V | 00:00:00 | 00:00:00 | 00:00:00 | |
| OE3JTB-15 | 2026-08-31 01:27:53 | 48.59374 | 13.37699 | 82° | 102km/h | 8731m | -2.8m/s | -31.6°C | 18.4% | 337.2hPa | 2.6V | 00:00:00 | 00:00:00 | 00:00:00 | |
| OE5FHM-15 | 2026-08-31 01:27:52 | 48.59371 | 13.37663 | 81° | 102km/h | 8734m | -3.0m/s | -31.6°C | 18.4% | 337.0hPa | 2.5V | 00:00:00 | 02:58:33 | 00:00:00 | |
| DO3MHA-11 | 2026-08-31 01:27:51 | 48.59367 | 13.37626 | 81° | 100km/h | 8737m | -2.9m/s | -31.7°C | 18.6% | 336.8hPa | 2.5V | 00:00:00 | 02:58:32 | 00:00:00 | |
| OE5HKT-10 | 2026-08-31 01:27:50 | 48.59362 | 13.37589 | 81° | 104km/h | 8740m | -3.0m/s | -31.7°C | 18.7% | 336.7hPa | 2.5V | 00:00:00 | 00:00:00 | 00:00:00 | |
| OE5DXL-15 | 2026-08-31 01:27:47 | 48.59350 | 13.37476 | 81° | 100km/h | 8750m | -3.1m/s | -31.8°C | 18.8% | 336.2hPa | 2.5V | 00:00:00 | 00:00:00 | 00:00:00 | |
| OE5MMP-10 | 2026-08-31 01:27:46 | 48.59346 | 13.37438 | 81° | 104km/h | 8753m | -3.1m/s | -31.8°C | 18.9% | 336.1hPa | 2.5V | 00:00:00 | 02:58:27 | 00:00:00 | |
| NBG1-10 | 2026-08-31 01:27:44 | 48.59338 | 13.37362 | 81° | 93km/h | 8759m | -3.1m/s | -31.9°C | 19.0% | 335.8hPa | 2.5V | 07:36:00 | 02:58:25 | 00:00:00 | |
| DG1MFX-10 | 2026-08-31 01:27:43 | 48.59338 | 13.37362 | 82° | 102km/h | 8759m | -3.2m/s | -31.9°C | 16.8% | 335.9hPa | 2.5V | 00:00:00 | 00:00:00 | 00:00:00 | |
| OE5DRO-10 | 2026-08-31 01:27:42 | 48.59330 | 13.37285 | 81° | 102km/h | 8765m | -3.1m/s | -31.9°C | 19.0% | 335.5hPa | 2.5V | 07:36:00 | 00:00:00 | 00:00:00 | |
| DO3MHA-11 | 2026-08-31 01:27:41 | 48.59325 | 13.37247 | 80° | 106km/h | 8768m | -3.2m/s | -31.9°C | 19.0% | 335.4hPa | 2.5V | 00:00:00 | 02:58:22 | 00:00:00 | |
| OE5MMP-10 | 2026-08-31 01:27:36 | 48.59298 | 13.37048 | 77° | 104km/h | 8785m | -3.3m/s | -32.1°C | 18.6% | 334.6hPa | 2.6V | 00:00:00 | 02:58:17 | 00:00:00 | |
| OE5WHR-10 | 2026-08-31 01:27:35 | 48.59291 | 13.37008 | 76° | 97km/h | 8788m | -3.1m/s | -32.1°C | 18.5% | 334.4hPa | 2.6V | 00:00:00 | 00:00:00 | 00:00:00 | |
| DO3MHA-11 | 2026-08-31 01:27:31 | 48.59260 | 13.36852 | 72° | 97km/h | 8800m | -2.8m/s | -32.2°C | 18.4% | 333.9hPa | 2.6V | 00:00:00 | 02:58:12 | 00:00:00 | |
| OE5HKT-10 | 2026-08-31 01:27:29 | 48.59243 | 13.36780 | 70° | 93km/h | 8805m | -2.9m/s | -32.2°C | 17.9% | 333.7hPa | 2.6V | 00:00:00 | 02:58:10 | 00:00:00 | |
| OE5MMP-10 | 2026-08-31 01:27:26 | 48.59218 | 13.36676 | 71° | 95km/h | 8814m | -3.0m/s | -32.2°C | 17.1% | 333.2hPa | 2.6V | 00:00:00 | 02:58:07 | 00:00:00 | |
| OE3JTB-15 | 2026-08-31 01:27:24 | 48.59202 | 13.36608 | 71° | 95km/h | 8820m | -3.0m/s | -32.2°C | 16.6% | 333.0hPa | 2.4V | 07:37:00 | 00:00:00 | 00:00:00 | |
| OE5DRO-10 | 2026-08-31 01:27:23 | 48.59195 | 13.36574 | 71° | 91km/h | 8823m | -3.0m/s | -32.2°C | 16.5% | 332.8hPa | 2.4V | 00:00:00 | 00:00:00 | 00:00:00 | |
| OE5FHM-15 | 2026-08-31 01:27:22 | 48.59187 | 13.36540 | 71° | 95km/h | 8826m | -3.0m/s | -32.2°C | 16.5% | 332.7hPa | 2.4V | 07:37:00 | 02:58:03 | 00:00:00 | |
| DO3MHA-11 | 2026-08-31 01:27:21 | 48.59179 | 13.36506 | 71° | 93km/h | 8829m | -2.9m/s | -32.2°C | 16.4% | 332.5hPa | 2.4V | 00:00:00 | 02:58:02 | 00:00:00 | |
| OE5DXL-15 | 2026-08-31 01:27:17 | 48.59147 | 13.36371 | 71° | 99km/h | 8841m | -3.0m/s | -32.2°C | 15.9% | 331.9hPa | 2.4V | 00:00:00 | 00:00:00 | 00:00:00 | |
| OE5MMP-10 | 2026-08-31 01:27:16 | 48.59140 | 13.36337 | 72° | 91km/h | 8844m | -2.8m/s | -32.2°C | 15.9% | 331.7hPa | 2.4V | 00:00:00 | 02:57:57 | 00:00:00 | |
| DL6DJ-15 | 2026-08-31 01:27:15 | 48.59132 | 13.36304 | 71° | 91km/h | 8847m | -3.1m/s | -32.3°C | 14.0% | 331.7hPa | 2.4V | 00:00:00 | 00:00:00 | 00:00:00 | |
| OE5WHR-10 | 2026-08-31 01:27:14 | 48.59125 | 13.36270 | 73° | 95km/h | 8850m | -2.8m/s | -32.2°C | 15.9% | 331.5hPa | 2.4V | 00:00:00 | 02:57:55 | 00:00:00 | |
| DO3MHA-11 | 2026-08-31 01:27:11 | 48.59106 | 13.36171 | 75° | 91km/h | 8859m | -2.9m/s | -32.3°C | 16.0% | 331.1hPa | 2.4V | 00:00:00 | 02:57:52 | 00:00:00 | |
| S52SK | 2026-08-31 01:27:09 | 48.59100 | 13.36138 | 77° | 89km/h | 8862m | -3.0m/s | -32.4°C | 13.9% | 331.0hPa | 2.5V | 00:00:00 | 00:00:00 | 00:00:00 | |
| OE5HKT-10 | 2026-08-31 01:27:08 | 48.59090 | 13.36071 | 79° | 102km/h | 8868m | -2.9m/s | -32.4°C | 16.0% | 330.7hPa | 2.5V | 00:00:00 | 00:00:00 | 00:00:00 | |
| OE5MMP-10 | 2026-08-31 01:27:06 | 48.59081 | 13.36003 | 80° | 97km/h | 8874m | -3.1m/s | -32.4°C | 16.0% | 330.4hPa | 2.5V | 00:00:00 | 02:57:47 | 00:00:00 | |
| NBG1-10 | 2026-08-31 01:27:05 | 48.59077 | 13.35969 | 81° | 104km/h | 8877m | -3.0m/s | -32.4°C | 15.9% | 330.2hPa | 2.5V | 00:00:00 | 02:57:46 | 00:00:00 | |
| OE5DRO-10 | 2026-08-31 01:27:04 | 48.59073 | 13.35934 | 81° | 104km/h | 8880m | -3.1m/s | -32.4°C | 16.0% | 330.1hPa | 2.4V | 00:00:00 | 00:00:00 | 00:00:00 | |
| DL6DJ-15 | 2026-08-31 01:26:44 | 48.58961 | 13.35150 | 71° | 108km/h | 8942m | -3.1m/s | -32.8°C | 14.1% | 327.3hPa | 2.5V | 00:00:00 | 00:00:00 | 00:00:00 | |
| DO3MHA-11 | 2026-08-31 01:26:41 | 48.58934 | 13.35033 | 71° | 100km/h | 8951m | -3.1m/s | -32.9°C | 16.3% | 326.8hPa | 2.5V | 00:00:00 | 02:57:22 | 00:00:00 | |
| OE5REO-15 | 2026-08-31 01:26:40 | 48.58934 | 13.35033 | 71° | 106km/h | 8951m | -3.1m/s | -32.9°C | 14.2% | 326.8hPa | 2.5V | 07:38:00 | 00:00:00 | 00:00:00 | |
| OE5MMP-10 | 2026-08-31 01:26:36 | 48.58890 | 13.34850 | 71° | 95km/h | 8967m | -3.1m/s | -33.0°C | 16.5% | 326.1hPa | 2.5V | 00:00:00 | 02:57:17 | 00:00:00 | |
| NBG1-10 | 2026-08-31 01:26:32 | 48.58858 | 13.34712 | 71° | 100km/h | 8978m | -3.0m/s | -33.1°C | 16.4% | 325.5hPa | 2.5V | 00:00:00 | 02:57:13 | 00:00:00 | |
| DO3MHA-11 | 2026-08-31 01:26:31 | 48.58850 | 13.34677 | 72° | 91km/h | 8982m | -3.0m/s | -33.1°C | 16.5% | 325.4hPa | 2.5V | 00:00:00 | 02:57:12 | 00:00:00 | |
| OE5MMP-10 | 2026-08-31 01:26:26 | 48.58814 | 13.34509 | 73° | 91km/h | 8996m | -3.2m/s | -33.2°C | 16.6% | 324.7hPa | 2.5V | 00:00:00 | 02:57:07 | 00:00:00 | |
| OE5REO-15 | 2026-08-31 01:26:24 | 48.58807 | 13.34475 | 74° | 91km/h | 9000m | -3.2m/s | -33.3°C | 14.5% | 324.5hPa | 2.5V | 07:38:00 | 00:00:00 | 00:00:00 | |
| OE5FHM-15 | 2026-08-31 01:26:22 | 48.58788 | 13.34375 | 76° | 104km/h | 9010m | -3.1m/s | -33.3°C | 16.7% | 324.1hPa | 2.5V | 00:00:00 | 02:57:03 | 00:00:00 | |
| DO3MHA-11 | 2026-08-31 01:26:21 | 48.58782 | 13.34342 | 77° | 97km/h | 9013m | -3.1m/s | -33.3°C | 16.7% | 323.9hPa | 2.5V | 00:00:00 | 02:57:02 | 00:00:00 | |
| OE5DXL-15 | 2026-08-31 01:26:17 | 48.58763 | 13.34203 | 80° | 108km/h | 9025m | -3.1m/s | -33.4°C | 16.8% | 323.4hPa | 2.5V | 00:00:00 | 00:00:00 | 00:00:00 | |
| OE5MMP-10 | 2026-08-31 01:26:16 | 48.58759 | 13.34167 | 81° | 102km/h | 9028m | -3.1m/s | -33.5°C | 16.8% | 323.2hPa | 2.5V | 00:00:00 | 02:56:57 | 00:00:00 | |
| DL6DJ-15 | 2026-08-31 01:26:13 | 48.58747 | 13.34056 | 81° | 100km/h | 9038m | -3.3m/s | -33.6°C | 14.7% | 322.9hPa | 2.5V | 00:00:00 | 00:00:00 | 00:00:00 | |
| OE5WHR-10 | 2026-08-31 01:26:11 | 48.58739 | 13.33979 | 81° | 110km/h | 9045m | -3.0m/s | -33.6°C | 16.9% | 322.5hPa | 2.5V | 00:00:00 | 02:56:52 | 00:00:00 | |
| OE5REO-15 | 2026-08-31 01:26:08 | 48.58730 | 13.33900 | 81° | 106km/h | 9050m | -3.1m/s | -33.7°C | 14.9% | 322.3hPa | 2.5V | 07:38:00 | 00:00:00 | 00:00:00 | |
| OE5DRO-10 | 2026-08-31 01:26:07 | 48.58721 | 13.33819 | 80° | 110km/h | 9057m | -3.1m/s | -33.7°C | 17.2% | 321.9hPa | 2.5V | 00:00:00 | 00:00:00 | 00:00:00 | |
| OE5MMP-10 | 2026-08-31 01:26:06 | 48.58715 | 13.33778 | 79° | 110km/h | 9060m | -3.2m/s | -33.7°C | 17.2% | 321.8hPa | 2.4V | 00:00:00 | 02:56:47 | 00:00:00 | |
| OE5HKT-10 | 2026-08-31 01:26:05 | 48.58710 | 13.33737 | 79° | 110km/h | 9063m | -3.2m/s | -33.7°C | 17.2% | 321.6hPa | 2.4V | 00:00:00 | 00:00:00 | 00:00:00 | |
| DO3MHA-11 | 2026-08-31 01:26:01 | 48.58689 | 13.33572 | 80° | 110km/h | 9076m | -3.2m/s | -33.8°C | 17.3% | 321.0hPa | 2.4V | 00:00:00 | 02:56:42 | 00:00:00 | |
| NBG1-10 | 2026-08-31 01:25:59 | 48.58679 | 13.33490 | 81° | 110km/h | 9083m | -3.3m/s | -33.9°C | 17.4% | 320.8hPa | 2.4V | 00:00:00 | 02:56:40 | 00:00:00 | |
| OE3JTB-15 | 2026-08-31 01:25:57 | 48.58670 | 13.33409 | 81° | 113km/h | 9089m | -3.3m/s | -34.0°C | 17.5% | 320.4hPa | 2.4V | 00:00:00 | 00:00:00 | 00:00:00 | |
| OE5MMP-10 | 2026-08-31 01:25:56 | 48.58665 | 13.33368 | 81° | 110km/h | 9093m | -3.4m/s | -34.0°C | 17.5% | 320.3hPa | 2.4V | 00:00:00 | 02:56:37 | 00:00:00 | |
| OE5REO-15 | 2026-08-31 01:25:53 | 48.58656 | 13.33286 | 81° | 110km/h | 9099m | -3.2m/s | -34.1°C | 15.1% | 320.1hPa | 2.4V | 07:39:00 | 00:00:00 | 00:00:00 | |
| OE5FHM-15 | 2026-08-31 01:25:52 | 48.58646 | 13.33204 | 80° | 115km/h | 9106m | -3.4m/s | -34.1°C | 17.4% | 319.7hPa | 2.4V | 00:00:00 | 02:56:33 | 00:00:00 | |
| DO3MHA-11 | 2026-08-31 01:25:51 | 48.58641 | 13.33163 | 80° | 113km/h | 9109m | -3.3m/s | -34.1°C | 17.4% | 319.5hPa | 2.4V | 00:00:00 | 02:56:32 | 00:00:00 | |
| OE5WHR-10 | 2026-08-31 01:25:50 | 48.58636 | 13.33122 | 80° | 113km/h | 9113m | -3.3m/s | -34.1°C | 17.4% | 319.4hPa | 2.4V | 00:00:00 | 00:00:00 | 00:00:00 | |
| DK5PH-5 | 2026-08-31 01:25:48 | 48.58625 | 13.33038 | 79° | 113km/h | 9119m | -3.2m/s | -34.1°C | 17.4% | 319.0hPa | 2.4V | 00:00:00 | 02:56:29 | 00:00:00 | |
| OE5DXL-15 | 2026-08-31 01:25:47 | 48.58619 | 13.32996 | 78° | 115km/h | 9122m | -3.2m/s | -34.2°C | 17.4% | 318.9hPa | 2.4V | 07:38:00 | 00:00:00 | 00:00:00 | |
| OE5MMP-10 | 2026-08-31 01:25:46 | 48.58613 | 13.32954 | 78° | 113km/h | 9126m | -3.3m/s | -34.2°C | 17.4% | 318.7hPa | 2.4V | 00:00:00 | 02:56:27 | 00:00:00 | |
| OE5HKT-10 | 2026-08-31 01:25:44 | 48.58601 | 13.32870 | 78° | 115km/h | 9132m | -3.3m/s | -34.2°C | 17.3% | 318.4hPa | 2.4V | 00:00:00 | 00:00:00 | 00:00:00 | |
| DL6DJ-15 | 2026-08-31 01:25:42 | 48.58583 | 13.32743 | 77° | 113km/h | 9142m | -3.2m/s | -34.4°C | 15.0% | 318.1hPa | 2.4V | 00:00:00 | 00:00:00 | 00:00:00 | |
| DO3MHA-11 | 2026-08-31 01:25:41 | 48.58582 | 13.32743 | 78° | 113km/h | 9142m | -3.2m/s | -34.3°C | 17.3% | 318.0hPa | 2.4V | 07:38:00 | 02:56:22 | 00:00:00 | |
| OE5REO-15 | 2026-08-31 01:25:37 | 48.58566 | 13.32616 | 80° | 113km/h | 9152m | -3.2m/s | -34.4°C | 14.7% | 317.6hPa | 2.4V | 07:39:00 | 00:00:00 | 00:00:00 | |
| OE5MMP-10 | 2026-08-31 01:25:36 | 48.58554 | 13.32531 | 80° | 115km/h | 9159m | -3.2m/s | -34.4°C | 17.0% | 317.3hPa | 2.4V | 07:39:00 | 02:56:17 | 00:00:00 | |
| DO3MHA-11 | 2026-08-31 01:25:31 | 48.58526 | 13.32316 | 78° | 117km/h | 9175m | -3.4m/s | -34.5°C | 16.6% | 316.5hPa | 2.4V | 00:00:00 | 02:56:12 | 00:00:00 | |
| OE5WHR-10 | 2026-08-31 01:25:29 | 48.58513 | 13.32229 | 77° | 110km/h | 9182m | -3.4m/s | -34.5°C | 16.2% | 316.2hPa | 2.4V | 07:39:00 | 00:00:00 | 00:00:00 | |
| OE3JTB-15 | 2026-08-31 01:25:28 | 48.58506 | 13.32186 | 77° | 106km/h | 9186m | -3.4m/s | -34.5°C | 16.1% | 316.1hPa | 2.4V | 00:00:00 | 02:56:09 | 00:00:00 | |
| OE5MMP-10 | 2026-08-31 01:25:26 | 48.58491 | 13.32099 | 75° | 113km/h | 9193m | -3.4m/s | -34.5°C | 16.2% | 315.7hPa | 2.4V | 00:00:00 | 02:56:07 | 00:00:00 | |
| OE5FHM-15 | 2026-08-31 01:25:22 | 48.58458 | 13.31930 | 73° | 104km/h | 9206m | -3.2m/s | -34.6°C | 16.3% | 315.1hPa | 2.5V | 00:00:00 | 02:56:03 | 00:00:00 | |
| DO3MHA-11 | 2026-08-31 01:25:21 | 48.58449 | 13.31889 | 72° | 108km/h | 9210m | -3.3m/s | -34.6°C | 16.3% | 315.0hPa | 2.5V | 00:00:00 | 02:56:02 | 00:00:00 | |
| OE5DXL-15 | 2026-08-31 01:25:17 | 48.58411 | 13.31730 | 70° | 106km/h | 9223m | -3.5m/s | -34.7°C | 16.3% | 314.3hPa | 2.5V | 00:00:00 | 00:00:00 | 00:00:00 | |
| OE5MMP-10 | 2026-08-31 01:25:16 | 48.58401 | 13.31690 | 70° | 102km/h | 9227m | -3.4m/s | -34.7°C | 16.2% | 314.2hPa | 2.4V | 00:00:00 | 02:55:57 | 00:00:00 | |
| DL6DJ-15 | 2026-08-31 01:25:11 | 48.58347 | 13.31466 | 71° | 99km/h | 9247m | -3.5m/s | -34.9°C | 13.2% | 313.3hPa | 2.4V | 00:00:00 | 00:00:00 | 00:00:00 | |
| OE5DRO-10 | 2026-08-31 01:25:10 | 48.58347 | 13.31466 | 72° | 104km/h | 9247m | -3.5m/s | -34.8°C | 15.4% | 313.3hPa | 2.4V | 07:39:00 | 00:00:00 | 00:00:00 | |
| OE5WHR-10 | 2026-08-31 01:25:08 | 48.58331 | 13.31393 | 73° | 106km/h | 9254m | -3.5m/s | -34.8°C | 14.9% | 312.9hPa | 2.5V | 00:00:00 | 02:55:49 | 00:00:00 | |
| OE5REO-15 | 2026-08-31 01:25:07 | 48.58331 | 13.31393 | 74° | 99km/h | 9254m | -3.6m/s | -34.9°C | 12.8% | 313.0hPa | 2.5V | 07:40:00 | 00:00:00 | 00:00:00 | |
| OE5MMP-10 | 2026-08-31 01:25:06 | 48.58317 | 13.31322 | 75° | 100km/h | 9261m | -3.5m/s | -34.9°C | 14.8% | 312.6hPa | 2.5V | 00:00:00 | 02:55:47 | 00:00:00 | |
| OE5HKT-10 | 2026-08-31 01:25:02 | 48.58294 | 13.31177 | 79° | 111km/h | 9275m | -3.5m/s | -35.0°C | 15.0% | 312.0hPa | 2.5V | 00:00:00 | 00:00:00 | 00:00:00 | |
| DO3MHA-11 | 2026-08-31 01:25:01 | 48.58289 | 13.31140 | 80° | 108km/h | 9279m | -3.5m/s | -35.0°C | 15.0% | 311.9hPa | 2.4V | 00:00:00 | 02:55:42 | 00:00:00 | |
| OE3JTB-15 | 2026-08-31 01:24:59 | 48.58280 | 13.31064 | 81° | 111km/h | 9286m | -3.6m/s | -35.1°C | 15.2% | 311.5hPa | 2.4V | 00:00:00 | 00:00:00 | 00:00:00 | |
| OE5MMP-10 | 2026-08-31 01:24:56 | 48.58266 | 13.30944 | 81° | 115km/h | 9296m | -3.6m/s | -35.1°C | 15.5% | 311.1hPa | 2.4V | 00:00:00 | 02:55:37 | 00:00:00 | |
| OE5FHM-15 | 2026-08-31 01:24:52 | 48.58247 | 13.30776 | 80° | 110km/h | 9310m | -3.6m/s | -35.2°C | 15.9% | 310.5hPa | 2.5V | 00:00:00 | 02:55:33 | 00:00:00 | |
| DO3MHA-11 | 2026-08-31 01:24:51 | 48.58242 | 13.30733 | 80° | 117km/h | 9314m | -3.7m/s | -35.3°C | 16.1% | 310.3hPa | 2.5V | 00:00:00 | 02:55:32 | 00:00:00 | |
| OE5WHR-10 | 2026-08-31 01:24:47 | 48.58216 | 13.30558 | 76° | 110km/h | 9328m | -3.6m/s | -35.4°C | 16.4% | 309.6hPa | 2.5V | 00:00:00 | 00:00:00 | 00:00:00 | |
| OE5MMP-10 | 2026-08-31 01:24:46 | 48.58208 | 13.30514 | 75° | 115km/h | 9332m | -3.7m/s | -35.4°C | 16.6% | 309.5hPa | 2.4V | 00:00:00 | 02:55:27 | 00:00:00 | |
| DO3MHA-11 | 2026-08-31 01:24:41 | 48.58164 | 13.30301 | 71° | 110km/h | 9350m | -3.5m/s | -35.5°C | 16.7% | 308.7hPa | 2.4V | 00:00:00 | 02:55:22 | 00:00:00 | |
| DL6DJ-15 | 2026-08-31 01:24:40 | 48.58145 | 13.30219 | 69° | 111km/h | 9357m | -3.4m/s | -35.6°C | 14.5% | 308.4hPa | 2.5V | 00:00:00 | 00:00:00 | 00:00:00 | |
| DG1MFX-10 | 2026-08-31 01:24:37 | 48.58135 | 13.30179 | 71° | 111km/h | 9360m | -3.4m/s | -35.7°C | 14.6% | 308.3hPa | 2.5V | 07:40:00 | 00:00:00 | 00:00:00 | |
| OE5MMP-10 | 2026-08-31 01:24:36 | 48.58115 | 13.30100 | 70° | 102km/h | 9367m | -3.5m/s | -35.7°C | 17.1% | 307.9hPa | 2.5V | 00:00:00 | 02:55:17 | 00:00:00 | |
| S52SK | 2026-08-31 01:24:33 | 48.58096 | 13.30023 | 70° | 106km/h | 9374m | -3.5m/s | -35.7°C | 15.2% | 307.7hPa | 2.5V | 07:40:00 | 00:00:00 | 00:00:00 | |
| DK5PH-5 | 2026-08-31 01:24:32 | 48.58078 | 13.29949 | 71° | 104km/h | 9381m | -3.7m/s | -35.7°C | 18.2% | 307.3hPa | 2.5V | 07:40:00 | 02:55:13 | 00:00:00 | |
| DO3MHA-11 | 2026-08-31 01:24:31 | 48.58069 | 13.29912 | 71° | 97km/h | 9385m | -3.8m/s | -35.8°C | 18.4% | 307.1hPa | 2.4V | 00:00:00 | 02:55:12 | 00:00:00 | |
| OE3JTB-15 | 2026-08-31 01:24:30 | 48.58061 | 13.29876 | 72° | 104km/h | 9388m | -3.6m/s | -35.8°C | 18.5% | 306.9hPa | 2.4V | 00:00:00 | 00:00:00 | 00:00:00 | |
| S52SK | 2026-08-31 01:24:28 | 48.58053 | 13.29840 | 74° | 99km/h | 9392m | -3.7m/s | -35.9°C | 16.2% | 306.8hPa | 2.4V | 07:40:00 | 00:00:00 | 00:00:00 | |
| OE5WHR-10 | 2026-08-31 01:24:26 | 48.58033 | 13.29733 | 75° | 104km/h | 9403m | -3.6m/s | -35.9°C | 18.9% | 306.3hPa | 2.4V | 00:00:00 | 00:00:00 | 00:00:00 | |
| OE5FHM-15 | 2026-08-31 01:24:22 | 48.58009 | 13.29592 | 78° | 110km/h | 9419m | -3.8m/s | -36.0°C | 19.3% | 305.6hPa | 2.4V | 00:00:00 | 02:55:03 | 00:00:00 | |
| DO3MHA-11 | 2026-08-31 01:24:21 | 48.58004 | 13.29556 | 79° | 102km/h | 9423m | -3.7m/s | -36.0°C | 19.3% | 305.5hPa | 2.4V | 07:40:00 | 02:55:02 | 00:00:00 | |
| OE5HKT-10 | 2026-08-31 01:24:20 | 48.57999 | 13.29520 | 80° | 115km/h | 9427m | -3.7m/s | -36.1°C | 19.5% | 305.3hPa | 2.4V | 00:00:00 | 02:55:01 | 00:00:00 | |
| OE5DXL-15 | 2026-08-31 01:24:17 | 48.57987 | 13.29408 | 82° | 110km/h | 9438m | -3.9m/s | -36.1°C | 19.7% | 304.8hPa | 2.4V | 00:00:00 | 00:00:00 | 00:00:00 | |
| OE5MMP-10 | 2026-08-31 01:24:16 | 48.57983 | 13.29370 | 83° | 110km/h | 9442m | -3.7m/s | -36.2°C | 19.8% | 304.6hPa | 2.4V | 07:40:00 | 02:54:57 | 00:00:00 | |
| OE5DRO-10 | 2026-08-31 01:24:13 | 48.57973 | 13.29252 | 83° | 115km/h | 9453m | -3.8m/s | -36.3°C | 20.0% | 304.1hPa | 2.4V | 00:00:00 | 00:00:00 | 00:00:00 | |
| DO3MHA-11 | 2026-08-31 01:24:11 | 48.57966 | 13.29170 | 83° | 115km/h | 9461m | -3.9m/s | -36.3°C | 20.3% | 303.8hPa | 2.4V | 00:00:00 | 02:54:52 | 00:00:00 | |
| NBG1-10 | 2026-08-31 01:24:10 | 48.57962 | 13.29129 | 83° | 110km/h | 9465m | -3.8m/s | -36.4°C | 20.4% | 303.6hPa | 2.5V | 00:00:00 | 02:54:51 | 00:00:00 | |
| DL6DJ-15 | 2026-08-31 01:24:08 | 48.57954 | 13.29043 | 81° | 113km/h | 9472m | -3.7m/s | -36.5°C | 18.0% | 303.3hPa | 2.5V | 00:00:00 | 00:00:00 | 00:00:00 | |
| OE5MMP-10 | 2026-08-31 01:24:06 | 48.57945 | 13.28956 | 80° | 117km/h | 9480m | -3.7m/s | -36.5°C | 21.1% | 303.0hPa | 2.5V | 00:00:00 | 02:54:47 | 00:00:00 | |
| OE5WHR-10 | 2026-08-31 01:24:05 | 48.57939 | 13.28912 | 80° | 110km/h | 9484m | -3.8m/s | -36.5°C | 21.1% | 302.8hPa | 2.5V | 00:00:00 | 02:54:46 | 00:00:00 | |
| DK5PH-5 | 2026-08-31 01:24:02 | 48.57921 | 13.28779 | 77° | 119km/h | 9495m | -3.8m/s | -36.6°C | 21.2% | 302.2hPa | 2.5V | 00:00:00 | 02:54:43 | 00:00:00 | |
| DO3MHA-11 | 2026-08-31 01:24:01 | 48.57914 | 13.28735 | 76° | 113km/h | 9499m | -3.8m/s | -36.6°C | 21.3% | 302.1hPa | 2.5V | 00:00:00 | 02:54:42 | 00:00:00 | |
| OE5HKT-10 | 2026-08-31 01:23:58 | 48.57889 | 13.28605 | 73° | 104km/h | 9510m | -3.8m/s | -36.7°C | 21.3% | 301.6hPa | 2.5V | 07:40:00 | 00:00:00 | 00:00:00 | |
| OE5MMP-10 | 2026-08-31 01:23:56 | 48.57871 | 13.28522 | 72° | 104km/h | 9517m | -3.6m/s | -36.7°C | 21.3% | 301.3hPa | 2.4V | 00:00:00 | 02:54:37 | 00:00:00 | |
| DG1MFX-10 | 2026-08-31 01:23:55 | 48.57871 | 13.28522 | 72° | 113km/h | 9517m | -3.7m/s | -36.8°C | 18.5% | 301.4hPa | 2.4V | 07:41:00 | 00:00:00 | 00:00:00 | |
| OE5DRO-10 | 2026-08-31 01:23:54 | 48.57853 | 13.28443 | 71° | 102km/h | 9525m | -3.6m/s | -36.7°C | 21.5% | 301.0hPa | 2.4V | 00:00:00 | 00:00:00 | 00:00:00 | |
| OE5FHM-15 | 2026-08-31 01:23:52 | 48.57835 | 13.28367 | 71° | 110km/h | 9532m | -3.6m/s | -36.8°C | 21.8% | 300.7hPa | 2.4V | 00:00:00 | 02:54:33 | 00:00:00 | |
| DO3MHA-11 | 2026-08-31 01:23:51 | 48.57826 | 13.28330 | 71° | 99km/h | 9536m | -3.5m/s | -36.8°C | 22.2% | 300.5hPa | 2.5V | 00:00:00 | 02:54:32 | 00:00:00 | |
| OE5REO-15 | 2026-08-31 01:23:50 | 48.57826 | 13.28330 | 72° | 102km/h | 9536m | -3.6m/s | -36.8°C | 19.3% | 300.5hPa | 2.5V | 07:41:00 | 00:00:00 | 00:00:00 | |
| OE5DXL-15 | 2026-08-31 01:23:47 | 48.57796 | 13.28186 | 75° | 113km/h | 9550m | -3.4m/s | -36.8°C | 23.8% | 299.9hPa | 2.5V | 00:00:00 | 00:00:00 | 00:00:00 | |
| OE5MMP-10 | 2026-08-31 01:23:46 | 48.57790 | 13.28151 | 77° | 102km/h | 9554m | -3.4m/s | -36.8°C | 24.2% | 299.7hPa | 2.4V | 00:00:00 | 02:54:27 | 00:00:00 | |
| OE5WHR-10 | 2026-08-31 01:23:44 | 48.57779 | 13.28078 | 79° | 113km/h | 9561m | -3.5m/s | -36.9°C | 25.0% | 299.4hPa | 2.4V | 00:00:00 | 00:00:00 | 00:00:00 | |
| DO3MHA-11 | 2026-08-31 01:23:41 | 48.57766 | 13.27965 | 82° | 110km/h | 9572m | -3.9m/s | -36.9°C | 26.3% | 299.0hPa | 2.5V | 00:00:00 | 02:54:22 | 00:00:00 | |
| DB0NH | 2026-08-31 01:23:37 | 48.57750 | 13.27805 | 82° | 117km/h | 9587m | -3.6m/s | 0°C | 0% | 0hPa | 2.4V | 07:41:00 | 02:54:18 | 00:00:00 | |
| OE5MMP-10 | 2026-08-31 01:23:36 | 48.57745 | 13.27764 | 81° | 117km/h | 9590m | -3.5m/s | -37.1°C | 28.9% | 298.1hPa | 2.4V | 00:00:00 | 02:54:17 | 00:00:00 | |
| OE5DRO-10 | 2026-08-31 01:23:35 | 48.57741 | 13.27721 | 81° | 119km/h | 9594m | -3.7m/s | -37.1°C | 29.4% | 298.0hPa | 2.4V | 00:00:00 | 00:00:00 | 00:00:00 | |
| OE5REO-15 | 2026-08-31 01:23:34 | 48.57741 | 13.27721 | 81° | 113km/h | 9594m | -3.7m/s | -37.2°C | 25.9% | 298.0hPa | 2.4V | 07:41:00 | 00:00:00 | 00:00:00 | |
| OE3JTB-15 | 2026-08-31 01:23:32 | 48.57725 | 13.27591 | 79° | 113km/h | 9605m | -3.8m/s | -37.2°C | 30.5% | 297.5hPa | 2.4V | 07:41:00 | 00:00:00 | 00:00:00 | |
| DK5PH-5 | 2026-08-31 01:23:31 | 48.57718 | 13.27547 | 78° | 111km/h | 9609m | -3.8m/s | -37.2°C | 30.8% | 297.4hPa | 2.4V | 00:00:00 | 02:54:12 | 00:00:00 | |
| OE5MMP-10 | 2026-08-31 01:23:26 | 48.57684 | 13.27325 | 76° | 119km/h | 9628m | -3.9m/s | -37.4°C | 32.1% | 296.5hPa | 2.4V | 00:00:00 | 02:54:07 | 00:00:00 | |
| OE5WHR-10 | 2026-08-31 01:23:23 | 48.57660 | 13.27191 | 74° | 110km/h | 9640m | -3.7m/s | -37.5°C | 31.5% | 296.0hPa | 2.4V | 00:00:00 | 00:00:00 | 00:00:00 | |
| OE5FHM-15 | 2026-08-31 01:23:22 | 48.57651 | 13.27147 | 73° | 108km/h | 9643m | -3.7m/s | -37.5°C | 31.2% | 295.9hPa | 2.4V | 07:41:00 | 02:54:03 | 00:00:00 | |
| DO3MHA-11 | 2026-08-31 01:23:21 | 48.57642 | 13.27103 | 72° | 113km/h | 9647m | -3.7m/s | -37.6°C | 30.9% | 295.7hPa | 2.4V | 00:00:00 | 02:54:02 | 00:00:00 | |
| OE5REO-15 | 2026-08-31 01:23:18 | 48.57623 | 13.27017 | 72° | 119km/h | 9655m | -3.8m/s | -37.7°C | 26.7% | 295.4hPa | 2.4V | 07:41:00 | 00:00:00 | 00:00:00 | |
| OE5DXL-15 | 2026-08-31 01:23:17 | 48.57603 | 13.26933 | 70° | 108km/h | 9662m | -3.6m/s | -37.7°C | 29.6% | 295.1hPa | 2.4V | 00:00:00 | 00:00:00 | 00:00:00 | |
| OE5MMP-10 | 2026-08-31 01:23:16 | 48.57592 | 13.26893 | 70° | 106km/h | 9666m | -3.6m/s | -37.7°C | 29.5% | 294.9hPa | 2.4V | 00:00:00 | 02:53:57 | 00:00:00 | |
| DG1MFX-10 | 2026-08-31 01:23:14 | 48.57582 | 13.26853 | 70° | 111km/h | 9669m | -3.7m/s | -37.8°C | 25.9% | 294.8hPa | 2.4V | 07:41:00 | 00:00:00 | 00:00:00 | |
| DO3MHA-11 | 2026-08-31 01:23:11 | 48.57545 | 13.26699 | 71° | 102km/h | 9683m | -3.5m/s | -37.9°C | 27.4% | 294.2hPa | 2.4V | 00:00:00 | 02:53:52 | 00:00:00 | |
| DB0NH | 2026-08-31 01:23:07 | 48.57514 | 13.26552 | 75° | 115km/h | 9698m | -3.8m/s | 0°C | 0% | 0hPa | 2.4V | 00:00:00 | 02:53:48 | 00:00:00 | |
| OE5MMP-10 | 2026-08-31 01:23:06 | 48.57507 | 13.26515 | 76° | 106km/h | 9702m | -3.7m/s | -38.1°C | 27.8% | 293.4hPa | 2.4V | 00:00:00 | 02:53:47 | 00:00:00 | |
| OE3JTB-15 | 2026-08-31 01:23:03 | 48.57489 | 13.26401 | 79° | 115km/h | 9713m | -3.7m/s | -38.2°C | 28.1% | 292.9hPa | 2.4V | 00:00:00 | 00:00:00 | 00:00:00 | |
| DO3MHA-11 | 2026-08-31 01:23:02 | 48.57479 | 13.26323 | 80° | 110km/h | 9720m | -3.7m/s | -38.2°C | 28.7% | 292.6hPa | 2.4V | 07:41:00 | 02:53:42 | 00:00:00 | |
| DK5PH-5 | 2026-08-31 01:23:00 | 48.57474 | 13.26283 | 80° | 117km/h | 9724m | -3.6m/s | -38.2°C | 29.0% | 292.4hPa | 2.4V | 00:00:00 | 02:53:41 | 00:00:00 | |
| OE5DRO-10 | 2026-08-31 01:22:57 | 48.57460 | 13.26161 | 81° | 117km/h | 9735m | -3.8m/s | -38.3°C | 29.7% | 292.0hPa | 2.4V | 00:00:00 | 00:00:00 | 00:00:00 | |
| OE5MMP-10 | 2026-08-31 01:22:56 | 48.57455 | 13.26120 | 81° | 113km/h | 9739m | -3.6m/s | -38.4°C | 29.8% | 291.8hPa | 2.4V | 07:41:00 | 02:53:37 | 00:00:00 | |
| OE5HKT-10 | 2026-08-31 01:22:55 | 48.57451 | 13.26079 | 81° | 119km/h | 9743m | -3.5m/s | -38.4°C | 30.0% | 291.7hPa | 2.4V | 00:00:00 | 00:00:00 | 00:00:00 | |
| DG1MFX-10 | 2026-08-31 01:22:54 | 48.57451 | 13.26079 | 81° | 111km/h | 9743m | -3.6m/s | -38.5°C | 26.4% | 291.7hPa | 2.5V | 07:41:00 | 00:00:00 | 00:00:00 | |
| OE5FHM-15 | 2026-08-31 01:22:52 | 48.57437 | 13.25953 | 81° | 117km/h | 9754m | -3.7m/s | -38.5°C | 30.7% | 291.2hPa | 2.5V | 00:00:00 | 02:53:33 | 00:00:00 | |
| DO3MHA-11 | 2026-08-31 01:22:51 | 48.57432 | 13.25910 | 81° | 117km/h | 9757m | -3.7m/s | -38.6°C | 31.0% | 291.1hPa | 2.5V | 00:00:00 | 02:53:32 | 00:00:00 | |
| OM5KV | 2026-08-31 01:22:47 | 48.57418 | 13.25781 | 82° | 115km/h | 9768m | -3.7m/s | -38.7°C | 27.7% | 290.6hPa | 2.5V | 07:41:00 | 00:00:00 | 00:00:00 | |
| OE5MMP-10 | 2026-08-31 01:22:46 | 48.57409 | 13.25694 | 81° | 122km/h | 9776m | -3.6m/s | -38.7°C | 31.8% | 290.2hPa | 2.5V | 00:00:00 | 02:53:27 | 00:00:00 | |
| DO3MHA-11 | 2026-08-31 01:22:41 | 48.57382 | 13.25470 | 79° | 124km/h | 9794m | -3.7m/s | -38.9°C | 33.5% | 289.5hPa | 2.5V | 00:00:00 | 02:53:22 | 00:00:00 | |
| OE5DRO-10 | 2026-08-31 01:22:38 | 48.57361 | 13.25332 | 76° | 117km/h | 9805m | -3.6m/s | -39.0°C | 34.8% | 289.0hPa | 2.5V | 07:42:00 | 00:00:00 | 00:00:00 | |
| OE5MMP-10 | 2026-08-31 01:22:36 | 48.57345 | 13.25240 | 74° | 120km/h | 9812m | -3.6m/s | -39.1°C | 35.4% | 288.7hPa | 2.5V | 00:00:00 | 02:53:17 | 00:00:00 | |
| DB0NH | 2026-08-31 01:22:35 | 48.57336 | 13.25195 | 74° | 110km/h | 9816m | -3.5m/s | 0°C | 0% | 0hPa | 2.5V | 00:00:00 | 02:53:16 | 00:00:00 | |
| OE5HKT-10 | 2026-08-31 01:22:34 | 48.57327 | 13.25150 | 73° | 111km/h | 9819m | -3.6m/s | -39.1°C | 36.5% | 288.4hPa | 2.5V | 00:00:00 | 00:00:00 | 00:00:00 | |
| PG1ADW-2 | 2026-08-31 01:22:31 | 48.57297 | 13.25018 | 71° | 108km/h | 9830m | -3.8m/s | -39.2°C | 37.4% | 287.9hPa | 2.5V | 00:00:00 | 00:00:00 | 00:00:00 | |
| DK5PH-5 | 2026-08-31 01:22:30 | 48.57287 | 13.24975 | 71° | 119km/h | 9834m | -3.6m/s | -39.3°C | 37.5% | 287.8hPa | 2.5V | 00:00:00 | 02:53:11 | 00:00:00 | |
| OE5MMP-10 | 2026-08-31 01:22:26 | 48.57247 | 13.24809 | 70° | 106km/h | 9849m | -3.6m/s | -39.4°C | 39.2% | 287.2hPa | 2.5V | 00:00:00 | 02:53:07 | 00:00:00 | |
| OE5FHM-15 | 2026-08-31 01:22:22 | 48.57209 | 13.24653 | 71° | 113km/h | 9864m | -3.8m/s | -39.5°C | 40.7% | 286.5hPa | 2.4V | 00:00:00 | 02:53:03 | 00:00:00 | |
| DO3MHA-11 | 2026-08-31 01:22:21 | 48.57200 | 13.24614 | 71° | 104km/h | 9867m | -3.6m/s | -39.6°C | 40.9% | 286.3hPa | 2.5V | 00:00:00 | 02:53:02 | 00:00:00 | |
| OE5WHR-10 | 2026-08-31 01:22:20 | 48.57192 | 13.24577 | 72° | 111km/h | 9871m | -3.5m/s | -39.6°C | 41.1% | 286.2hPa | 2.5V | 00:00:00 | 00:00:00 | 00:00:00 | |
| OE5DRO-10 | 2026-08-31 01:22:19 | 48.57183 | 13.24539 | 73° | 110km/h | 9875m | -3.6m/s | -39.7°C | 41.4% | 286.0hPa | 2.5V | 00:00:00 | 00:00:00 | 00:00:00 | |
| OE5DXL-15 | 2026-08-31 01:22:17 | 48.57168 | 13.24464 | 75° | 117km/h | 9882m | -3.6m/s | -39.7°C | 41.8% | 285.7hPa | 2.4V | 00:00:00 | 00:00:00 | 00:00:00 | |
| OE5MMP-10 | 2026-08-31 01:22:16 | 48.57162 | 13.24426 | 76° | 108km/h | 9885m | -3.6m/s | -39.8°C | 42.2% | 285.6hPa | 2.4V | 00:00:00 | 02:52:57 | 00:00:00 | |
| OE5REO-15 | 2026-08-31 01:22:15 | 48.57162 | 13.24426 | 76° | 102km/h | 9885m | -3.6m/s | -39.8°C | 37.5% | 285.7hPa | 2.4V | 07:42:00 | 00:00:00 | 00:00:00 | |
| OE5HKT-10 | 2026-08-31 01:22:13 | 48.57144 | 13.24311 | 79° | 117km/h | 9897m | -3.6m/s | -39.9°C | 42.9% | 285.2hPa | 2.4V | 00:00:00 | 02:52:54 | 00:00:00 | |
| DO3MHA-11 | 2026-08-31 01:22:11 | 48.57134 | 13.24231 | 80° | 115km/h | 9904m | -3.5m/s | -39.9°C | 43.5% | 284.9hPa | 2.4V | 00:00:00 | 02:52:52 | 00:00:00 | |
| OM5KV | 2026-08-31 01:22:10 | 48.57134 | 13.24231 | 81° | 108km/h | 9904m | -3.5m/s | -40.0°C | 38.7% | 284.9hPa | 2.4V | 07:42:00 | 00:00:00 | 00:00:00 | |
| NBG1-10 | 2026-08-31 01:22:09 | 48.57124 | 13.24149 | 81° | 113km/h | 9911m | -3.5m/s | -40.0°C | 44.1% | 284.6hPa | 2.4V | 00:00:00 | 02:52:50 | 00:00:00 | |
| OE5MMP-10 | 2026-08-31 01:22:06 | 48.57110 | 13.24020 | 81° | 120km/h | 9921m | -3.4m/s | -40.1°C | 44.9% | 284.1hPa | 2.4V | 00:00:00 | 02:52:47 | 00:00:00 | |
| OE3JTB-15 | 2026-08-31 01:22:05 | 48.57105 | 13.23977 | 81° | 117km/h | 9925m | -3.6m/s | -40.1°C | 45.2% | 284.0hPa | 2.4V | 00:00:00 | 00:00:00 | 00:00:00 | |
| DL6DJ-15 | 2026-08-31 01:22:04 | 48.57100 | 13.23932 | 79° | 117km/h | 9928m | -3.7m/s | -40.2°C | 40.4% | 283.9hPa | 2.5V | 00:00:00 | 00:00:00 | 00:00:00 | |
| OM5KV | 2026-08-31 01:22:03 | 48.57099 | 13.23932 | 81° | 119km/h | 9928m | -3.7m/s | -40.2°C | 40.4% | 283.9hPa | 2.5V | 07:42:00 | 00:00:00 | 00:00:00 | |
| DO3MHA-11 | 2026-08-31 01:22:01 | 48.57082 | 13.23798 | 78° | 124km/h | 9939m | -3.4m/s | -40.3°C | 46.3% | 283.4hPa | 2.5V | 00:00:00 | 02:52:42 | 00:00:00 | |
| OE5DRO-10 | 2026-08-31 01:22:00 | 48.57075 | 13.23753 | 77° | 120km/h | 9942m | -3.5m/s | -40.3°C | 46.5% | 283.2hPa | 2.5V | 00:00:00 | 00:00:00 | 00:00:00 | |
| OE5WHR-10 | 2026-08-31 01:21:59 | 48.57068 | 13.23708 | 76° | 119km/h | 9946m | -3.5m/s | -40.3°C | 46.5% | 283.1hPa | 2.5V | 00:00:00 | 02:52:40 | 00:00:00 | |
| DG1MFX-10 | 2026-08-31 01:21:53 | 48.57026 | 13.23481 | 75° | 124km/h | 9964m | -3.8m/s | -40.6°C | 42.7% | 282.4hPa | 2.5V | 07:42:00 | 00:00:00 | 00:00:00 | |
| OE5FHM-15 | 2026-08-31 01:21:52 | 48.57008 | 13.23390 | 73° | 111km/h | 9971m | -3.6m/s | -40.6°C | 48.3% | 282.0hPa | 2.5V | 00:00:00 | 02:52:33 | 00:00:00 | |
| DO3MHA-11 | 2026-08-31 01:21:51 | 48.56999 | 13.23345 | 73° | 117km/h | 9975m | -3.7m/s | -40.6°C | 48.7% | 281.9hPa | 2.5V | 00:00:00 | 02:52:32 | 00:00:00 | |
| S52SK | 2026-08-31 01:21:49 | 48.56989 | 13.23300 | 73° | 124km/h | 9979m | -3.7m/s | -40.7°C | 43.6% | 281.8hPa | 2.5V | 00:00:00 | 00:00:00 | 00:00:00 | |
| OE5DXL-15 | 2026-08-31 01:21:47 | 48.56958 | 13.23168 | 70° | 111km/h | 9990m | -3.3m/s | -40.7°C | 49.3% | 281.3hPa | 2.5V | 07:42:00 | 00:00:00 | 00:00:00 | |
| OE5MMP-10 | 2026-08-31 01:21:46 | 48.56947 | 13.23126 | 69° | 108km/h | 9993m | -3.6m/s | -40.8°C | 49.8% | 281.1hPa | 2.5V | 00:00:00 | 02:52:27 | 00:00:00 | |
| OE5REO-15 | 2026-08-31 01:21:44 | 48.56936 | 13.23084 | 69° | 115km/h | 9997m | -3.8m/s | -40.9°C | 44.5% | 281.0hPa | 2.5V | 07:43:00 | 00:00:00 | 00:00:00 | |
| S52SK | 2026-08-31 01:21:43 | 48.56926 | 13.23044 | 69° | 113km/h | 10000m | -3.8m/s | -40.9°C | 44.6% | 280.9hPa | 2.5V | 00:00:00 | 00:00:00 | 00:00:00 | |
| DO3MHA-11 | 2026-08-31 01:21:41 | 48.56895 | 13.22928 | 70° | 102km/h | 10011m | -3.5m/s | -41.0°C | 50.5% | 280.4hPa | 2.5V | 07:42:00 | 02:52:22 | 00:00:00 | |
| OE5WHR-10 | 2026-08-31 01:21:38 | 48.56869 | 13.22817 | 73° | 111km/h | 10022m | -3.5m/s | -41.1°C | 51.5% | 279.9hPa | 2.4V | 00:00:00 | 00:00:00 | 00:00:00 | |
| OE3JTB-15 | 2026-08-31 01:21:36 | 48.56855 | 13.22742 | 76° | 115km/h | 10029m | -3.6m/s | -41.1°C | 52.1% | 279.6hPa | 2.4V | 00:00:00 | 00:00:00 | 00:00:00 | |
| DL6DJ-15 | 2026-08-31 01:21:33 | 48.56838 | 13.22629 | 77° | 102km/h | 10040m | -3.6m/s | -41.3°C | 47.4% | 279.3hPa | 2.4V | 00:00:00 | 00:00:00 | 00:00:00 | |
| DG1MFX-10 | 2026-08-31 01:21:32 | 48.56837 | 13.22629 | 79° | 104km/h | 10040m | -3.6m/s | -41.3°C | 47.4% | 279.3hPa | 2.4V | 07:43:00 | 00:00:00 | 00:00:00 | |
| DO3MHA-11 | 2026-08-31 01:21:31 | 48.56827 | 13.22550 | 80° | 111km/h | 10047m | -3.4m/s | -41.3°C | 54.0% | 278.9hPa | 2.4V | 00:00:00 | 02:52:12 | 00:00:00 | |
| OE5REO-15 | 2026-08-31 01:21:29 | 48.56822 | 13.22510 | 80° | 108km/h | 10050m | -3.5m/s | -41.4°C | 48.8% | 278.9hPa | 2.4V | 07:43:00 | 00:00:00 | 00:00:00 | |
| OM5KV | 2026-08-31 01:21:27 | 48.56812 | 13.22428 | 81° | 111km/h | 10057m | -3.5m/s | -41.5°C | 49.3% | 278.5hPa | 2.4V | 07:43:00 | 00:00:00 | 00:00:00 | |
| OE5MMP-10 | 2026-08-31 01:21:26 | 48.56802 | 13.22344 | 80° | 119km/h | 10064m | -3.5m/s | -41.5°C | 56.2% | 278.2hPa | 2.4V | 00:00:00 | 02:52:07 | 00:00:00 | |
| NBG1-10 | 2026-08-31 01:21:23 | 48.56786 | 13.22215 | 80° | 113km/h | 10075m | -3.7m/s | -41.6°C | 56.5% | 277.8hPa | 2.4V | 00:00:00 | 02:52:04 | 00:00:00 | |
| OE5FHM-15 | 2026-08-31 01:21:22 | 48.56781 | 13.22172 | 80° | 117km/h | 10079m | -3.6m/s | -41.6°C | 56.5% | 277.6hPa | 2.4V | 00:00:00 | 02:52:03 | 00:00:00 | |
| DO3MHA-11 | 2026-08-31 01:21:21 | 48.56775 | 13.22127 | 80° | 122km/h | 10083m | -3.6m/s | -41.7°C | 56.4% | 277.5hPa | 2.4V | 00:00:00 | 02:52:02 | 00:00:00 | |
| OE5WHR-10 | 2026-08-31 01:21:17 | 48.56750 | 13.21947 | 77° | 119km/h | 10097m | -3.5m/s | -41.8°C | 56.6% | 276.9hPa | 2.4V | 00:00:00 | 00:00:00 | 00:00:00 | |
| OE5MMP-10 | 2026-08-31 01:21:16 | 48.56742 | 13.21901 | 77° | 122km/h | 10100m | -3.4m/s | -41.8°C | 56.7% | 276.7hPa | 2.4V | 00:00:00 | 02:51:57 | 00:00:00 | |
| OE5REO-15 | 2026-08-31 01:21:13 | 48.56727 | 13.21809 | 76° | 124km/h | 10107m | -3.7m/s | -41.9°C | 51.2% | 276.5hPa | 2.4V | 07:43:00 | 00:00:00 | 00:00:00 | |
| DG1MFX-10 | 2026-08-31 01:21:12 | 48.56719 | 13.21763 | 75° | 124km/h | 10111m | -3.6m/s | -42.0°C | 51.8% | 276.3hPa | 2.4V | 07:43:00 | 00:00:00 | 00:00:00 | |
| DO3MHA-11 | 2026-08-31 01:21:11 | 48.56701 | 13.21673 | 73° | 119km/h | 10118m | -3.4m/s | -42.0°C | 59.2% | 276.0hPa | 2.4V | 00:00:00 | 02:51:52 | 00:00:00 | |
| OE5HKT-10 | 2026-08-31 01:21:10 | 48.56691 | 13.21628 | 72° | 113km/h | 10121m | -3.4m/s | -42.0°C | 59.4% | 275.9hPa | 2.4V | 07:43:00 | 02:51:51 | 00:00:00 | |
| OE3JTB-15 | 2026-08-31 01:21:07 | 48.56662 | 13.21497 | 71° | 108km/h | 10132m | -3.5m/s | -42.1°C | 60.4% | 275.4hPa | 2.4V | 00:00:00 | 02:51:48 | 00:00:00 | |
| OE5MMP-10 | 2026-08-31 01:21:06 | 48.56652 | 13.21454 | 71° | 113km/h | 10135m | -3.5m/s | -42.2°C | 60.8% | 275.3hPa | 2.4V | 00:00:00 | 02:51:47 | 00:00:00 | |
| DF3TZ-5 | 2026-08-31 01:21:04 | 48.56632 | 13.21370 | 70° | 115km/h | 10142m | -3.5m/s | -42.3°C | 54.0% | 275.1hPa | 2.4V | 00:00:00 | 00:00:00 | 00:00:00 | |
| OE5DRO-10 | 2026-08-31 01:21:03 | 48.56622 | 13.21329 | 71° | 108km/h | 10146m | -3.5m/s | -42.3°C | 60.4% | 274.9hPa | 2.4V | 00:00:00 | 00:00:00 | 00:00:00 | |
| DO3MHA-11 | 2026-08-31 01:21:01 | 48.56603 | 13.21248 | 71° | 108km/h | 10153m | -3.6m/s | -42.3°C | 60.1% | 274.6hPa | 2.4V | 00:00:00 | 02:51:42 | 00:00:00 | |
| OM5KV | 2026-08-31 01:20:58 | 48.56584 | 13.21168 | 72° | 110km/h | 10160m | -3.5m/s | -42.5°C | 53.2% | 274.4hPa | 2.4V | 07:44:00 | 00:00:00 | 00:00:00 | |
| OE5WHR-10 | 2026-08-31 01:20:56 | 48.56559 | 13.21051 | 73° | 104km/h | 10171m | -3.7m/s | -42.5°C | 58.3% | 273.9hPa | 2.4V | 00:00:00 | 02:51:37 | 00:00:00 | |
| OE5FHM-15 | 2026-08-31 01:20:52 | 48.56525 | 13.20896 | 72° | 108km/h | 10186m | -3.6m/s | -42.6°C | 57.5% | 273.3hPa | 2.4V | 00:00:00 | 02:51:33 | 00:00:00 | |
| DO3MHA-11 | 2026-08-31 01:20:51 | 48.56517 | 13.20857 | 72° | 106km/h | 10189m | -3.8m/s | -42.6°C | 57.3% | 273.1hPa | 2.4V | 00:00:00 | 02:51:32 | 00:00:00 | |
| OE5HKT-10 | 2026-08-31 01:20:49 | 48.56500 | 13.20779 | 72° | 104km/h | 10197m | -3.8m/s | -42.7°C | 57.1% | 272.8hPa | 2.4V | 00:00:00 | 00:00:00 | 00:00:00 | |
| OE5DXL-15 | 2026-08-31 01:20:47 | 48.56483 | 13.20702 | 73° | 110km/h | 10205m | -3.7m/s | -42.7°C | 56.8% | 272.6hPa | 2.4V | 00:00:00 | 00:00:00 | 00:00:00 | |
| OE5MMP-10 | 2026-08-31 01:20:46 | 48.56475 | 13.20664 | 73° | 102km/h | 10208m | -3.6m/s | -42.8°C | 57.1% | 272.4hPa | 2.4V | 00:00:00 | 02:51:27 | 00:00:00 | |
| OE5DRO-10 | 2026-08-31 01:20:44 | 48.56460 | 13.20587 | 74° | 106km/h | 10215m | -3.4m/s | -42.8°C | 57.0% | 272.1hPa | 2.4V | 00:00:00 | 00:00:00 | 00:00:00 | |
| OE5REO-15 | 2026-08-31 01:20:42 | 48.56453 | 13.20549 | 75° | 104km/h | 10219m | -3.7m/s | -42.9°C | 50.8% | 272.0hPa | 2.4V | 07:44:00 | 00:00:00 | 00:00:00 | |
| DO3MHA-11 | 2026-08-31 01:20:41 | 48.56439 | 13.20474 | 76° | 104km/h | 10227m | -3.9m/s | -42.9°C | 57.6% | 271.6hPa | 2.4V | 00:00:00 | 02:51:22 | 00:00:00 | |
| OE3JTB-15 | 2026-08-31 01:20:38 | 48.56421 | 13.20361 | 77° | 115km/h | 10238m | -3.6m/s | -43.0°C | 58.0% | 271.1hPa | 2.5V | 00:00:00 | 00:00:00 | 00:00:00 | |
| OM5KV | 2026-08-31 01:20:37 | 48.56421 | 13.20361 | 78° | 102km/h | 10238m | -3.6m/s | -43.1°C | 51.6% | 271.2hPa | 2.4V | 07:44:00 | 00:00:00 | 00:00:00 | |
| OE5MMP-10 | 2026-08-31 01:20:36 | 48.56410 | 13.20285 | 79° | 108km/h | 10246m | -3.6m/s | -43.1°C | 58.7% | 270.8hPa | 2.4V | 00:00:00 | 02:51:17 | 00:00:00 | |
| OE5WHR-10 | 2026-08-31 01:20:35 | 48.56405 | 13.20246 | 80° | 117km/h | 10249m | -3.7m/s | -43.1°C | 58.7% | 270.7hPa | 2.4V | 00:00:00 | 00:00:00 | 00:00:00 | |
| DF3TZ-5 | 2026-08-31 01:20:33 | 48.56396 | 13.20168 | 81° | 104km/h | 10256m | -3.7m/s | -43.3°C | 52.3% | 270.5hPa | 2.4V | 00:00:00 | 00:00:00 | 00:00:00 | |
| DB0NH | 2026-08-31 01:20:32 | 48.56392 | 13.20128 | 82° | 117km/h | 10260m | -3.7m/s | 0°C | 0% | 0hPa | 2.4V | 00:00:00 | 02:51:13 | 00:00:00 | |
| PG1ADW-2 | 2026-08-31 01:20:31 | 48.56388 | 13.20087 | 83° | 119km/h | 10264m | -3.8m/s | -43.3°C | 59.6% | 270.1hPa | 2.4V | 00:00:00 | 02:51:12 | 00:00:00 | |
| OM5KV | 2026-08-31 01:20:30 | 48.56388 | 13.20087 | 83° | 108km/h | 10264m | -3.9m/s | -43.3°C | 53.0% | 270.2hPa | 2.4V | 07:44:00 | 00:00:00 | 00:00:00 | |
| OE5HKT-10 | 2026-08-31 01:20:28 | 48.56377 | 13.19962 | 83° | 120km/h | 10275m | -3.6m/s | -43.4°C | 60.2% | 269.7hPa | 2.4V | 00:00:00 | 00:00:00 | 00:00:00 | |
| OE5REO-15 | 2026-08-31 01:20:27 | 48.56377 | 13.19962 | 84° | 113km/h | 10275m | -3.6m/s | -43.4°C | 53.5% | 269.7hPa | 2.4V | 07:44:00 | 00:00:00 | 00:00:00 | |
| OE5MMP-10 | 2026-08-31 01:20:26 | 48.56370 | 13.19875 | 83° | 120km/h | 10283m | -3.7m/s | -43.5°C | 60.6% | 269.4hPa | 2.4V | 00:00:00 | 02:51:07 | 00:00:00 | |
| OE5DRO-10 | 2026-08-31 01:20:25 | 48.56383 | 13.19832 | 83° | 122km/h | 10286m | -3.6m/s | -43.5°C | 60.9% | 269.2hPa | 2.4V | 00:00:00 | 00:00:00 | 00:00:00 | |
| OE5FHM-15 | 2026-08-31 01:20:22 | 48.56354 | 13.19697 | 82° | 117km/h | 10297m | -3.6m/s | -43.6°C | 61.3% | 268.8hPa | 2.4V | 00:00:00 | 02:51:03 | 00:00:00 | |
| DK5PH-5 | 2026-08-31 01:20:21 | 48.56349 | 13.19651 | 81° | 115km/h | 10301m | -3.5m/s | -43.6°C | 61.4% | 268.6hPa | 2.4V | 07:44:00 | 02:51:02 | 00:00:00 | |
| OM5KV | 2026-08-31 01:20:20 | 48.56349 | 13.19651 | 82° | 122km/h | 10301m | -3.5m/s | -43.7°C | 54.6% | 268.7hPa | 2.4V | 07:44:00 | 00:00:00 | 00:00:00 | |
| OE5DXL-15 | 2026-08-31 01:20:17 | 48.56326 | 13.19466 | 78° | 113km/h | 10315m | -3.6m/s | -43.8°C | 61.9% | 268.0hPa | 2.4V | 00:00:00 | 00:00:00 | 00:00:00 | |
| OE5MMP-10 | 2026-08-31 01:20:16 | 48.56319 | 13.19419 | 77° | 120km/h | 10319m | -3.7m/s | -43.8°C | 62.3% | 267.9hPa | 2.4V | 07:44:00 | 02:50:57 | 00:00:00 | |
| OE5WHR-10 | 2026-08-31 01:20:14 | 48.56303 | 13.19327 | 76° | 113km/h | 10326m | -3.5m/s | -43.9°C | 62.5% | 267.6hPa | 2.4V | 00:00:00 | 00:00:00 | 00:00:00 | |
| OM5KV | 2026-08-31 01:20:12 | 48.56295 | 13.19282 | 75° | 122km/h | 10330m | -3.6m/s | -44.0°C | 55.8% | 267.6hPa | 2.4V | 07:44:00 | 00:00:00 | 00:00:00 | |
| DO3MHA-11 | 2026-08-31 01:20:11 | 48.56278 | 13.19193 | 74° | 117km/h | 10337m | -3.6m/s | -44.0°C | 63.0% | 267.2hPa | 2.4V | 00:00:00 | 02:50:52 | 00:00:00 | |
| OE3JTB-15 | 2026-08-31 01:20:09 | 48.56260 | 13.19106 | 73° | 106km/h | 10344m | -3.6m/s | -44.1°C | 63.4% | 266.9hPa | 2.4V | 00:00:00 | 00:00:00 | 00:00:00 | |
| OE5HKT-10 | 2026-08-31 01:20:07 | 48.56242 | 13.19020 | 73° | 108km/h | 10351m | -3.7m/s | -44.1°C | 63.5% | 266.6hPa | 2.4V | 00:00:00 | 02:50:48 | 00:00:00 | |
| OE5MMP-10 | 2026-08-31 01:20:06 | 48.56233 | 13.18978 | 72° | 111km/h | 10355m | -3.5m/s | -44.2°C | 63.8% | 266.5hPa | 2.4V | 00:00:00 | 02:50:47 | 00:00:00 | |
| DF3TZ-5 | 2026-08-31 01:20:02 | 48.56179 | 13.18729 | 72° | 108km/h | 10377m | -3.6m/s | -44.4°C | 57.6% | 265.7hPa | 2.4V | 00:00:00 | 00:00:00 | 00:00:00 | |
| DL6DJ-15 | 2026-08-31 01:20:00 | 48.56179 | 13.18729 | 72° | 108km/h | 10377m | -3.6m/s | -44.4°C | 57.6% | 265.7hPa | 2.4V | 00:00:00 | 00:00:00 | 00:00:00 | |
| OE5MMP-10 | 2026-08-31 01:19:56 | 48.56149 | 13.18574 | 75° | 102km/h | 10391m | -3.6m/s | -44.5°C | 64.7% | 265.1hPa | 2.4V | 00:00:00 | 02:50:37 | 00:00:00 | |
| OM5KV | 2026-08-31 01:19:55 | 48.56149 | 13.18574 | 76° | 104km/h | 10391m | -3.6m/s | -44.6°C | 57.5% | 265.1hPa | 2.4V | 07:45:00 | 00:00:00 | 00:00:00 | |
| NBG1-10 | 2026-08-31 01:19:54 | 48.56136 | 13.18498 | 76° | 111km/h | 10398m | -3.7m/s | -44.6°C | 65.1% | 264.8hPa | 2.4V | 00:00:00 | 02:50:35 | 00:00:00 | |
| OE5WHR-10 | 2026-08-31 01:19:53 | 48.56129 | 13.18460 | 76° | 102km/h | 10402m | -3.7m/s | -44.6°C | 65.4% | 264.6hPa | 2.4V | 07:44:00 | 02:50:34 | 00:00:00 | |
| DK5PH-5 | 2026-08-31 01:19:51 | 48.56116 | 13.18384 | 76° | 110km/h | 10409m | -3.5m/s | -44.7°C | 66.2% | 264.4hPa | 2.4V | 00:00:00 | 02:50:32 | 00:00:00 | |
| DO3MHA-11 | 2026-08-31 01:19:50 | 48.56110 | 13.18347 | 77° | 99km/h | 10413m | -3.8m/s | -44.7°C | 66.5% | 264.2hPa | 2.5V | 00:00:00 | 02:50:31 | 00:00:00 | |
| OE5DXL-15 | 2026-08-31 01:19:47 | 48.56093 | 13.18235 | 79° | 111km/h | 10424m | -3.7m/s | -44.8°C | 67.3% | 263.8hPa | 2.5V | 00:00:00 | 00:00:00 | 00:00:00 | |
| OE5HKT-10 | 2026-08-31 01:19:46 | 48.56088 | 13.18198 | 79° | 110km/h | 10428m | -3.8m/s | -44.8°C | 67.6% | 263.6hPa | 2.5V | 00:00:00 | 00:00:00 | 00:00:00 | |
| OE5REO-15 | 2026-08-31 01:19:41 | 48.56069 | 13.18050 | 81° | 99km/h | 10444m | -3.9m/s | -45.0°C | 59.9% | 263.0hPa | 2.5V | 07:45:00 | 00:00:00 | 00:00:00 | |
| DO3MHA-11 | 2026-08-31 01:19:40 | 48.56061 | 13.17976 | 82° | 108km/h | 10452m | -3.9m/s | -45.1°C | 67.2% | 262.7hPa | 2.5V | 00:00:00 | 02:50:21 | 00:00:00 | |
| OE5MMP-10 | 2026-08-31 01:19:36 | 48.56050 | 13.17820 | 86° | 117km/h | 10467m | -3.6m/s | -45.2°C | 65.9% | 262.0hPa | 2.4V | 00:00:00 | 02:50:17 | 00:00:00 | |
| OM5KV | 2026-08-31 01:19:35 | 48.56050 | 13.17820 | 86° | 106km/h | 10467m | -3.7m/s | -45.2°C | 58.5% | 262.1hPa | 2.4V | 07:45:00 | 00:00:00 | 00:00:00 | |
| OE5WHR-10 | 2026-08-31 01:19:32 | 48.56042 | 13.17650 | 86° | 119km/h | 10482m | -3.5m/s | -45.3°C | 65.6% | 261.5hPa | 2.4V | 00:00:00 | 00:00:00 | 00:00:00 | |
| PG1ADW-2 | 2026-08-31 01:19:31 | 48.56039 | 13.17606 | 85° | 119km/h | 10486m | -3.6m/s | -45.4°C | 65.6% | 261.3hPa | 2.5V | 00:00:00 | 00:00:00 | 00:00:00 | |
| DO3MHA-11 | 2026-08-31 01:19:30 | 48.56036 | 13.17561 | 84° | 122km/h | 10489m | -3.4m/s | -45.4°C | 65.6% | 261.2hPa | 2.5V | 00:00:00 | 02:50:11 | 00:00:00 | |
| DL6DJ-15 | 2026-08-31 01:19:29 | 48.56032 | 13.17515 | 82° | 120km/h | 10493m | -3.7m/s | -45.5°C | 58.2% | 261.1hPa | 2.5V | 00:00:00 | 00:00:00 | 00:00:00 | |
| OE5DRO-10 | 2026-08-31 01:19:28 | 48.56028 | 13.17469 | 83° | 117km/h | 10496m | -3.6m/s | -45.5°C | 65.5% | 261.0hPa | 2.5V | 00:00:00 | 00:00:00 | 00:00:00 | |
| OE5MMP-10 | 2026-08-31 01:19:26 | 48.56019 | 13.17377 | 81° | 120km/h | 10504m | -3.6m/s | -45.5°C | 64.9% | 260.6hPa | 2.4V | 00:00:00 | 02:50:07 | 00:00:00 | |
| OE5HKT-10 | 2026-08-31 01:19:25 | 48.56013 | 13.17331 | 80° | 113km/h | 10507m | -3.6m/s | -45.6°C | 64.7% | 260.5hPa | 2.5V | 00:00:00 | 00:00:00 | 00:00:00 | |
| DB0UT-7 | 2026-08-31 01:19:24 | 48.56007 | 13.17285 | 79° | 110km/h | 10511m | -3.6m/s | -45.6°C | 64.2% | 260.4hPa | 2.5V | 00:00:00 | 00:00:00 | 00:00:00 | |
| OM5KV | 2026-08-31 01:19:23 | 48.56007 | 13.17285 | 79° | 122km/h | 10511m | -3.7m/s | -45.6°C | 56.8% | 260.4hPa | 2.5V | 07:45:00 | 00:00:00 | 00:00:00 | |
| OE5FHM-15 | 2026-08-31 01:19:22 | 48.55994 | 13.17195 | 77° | 108km/h | 10518m | -3.6m/s | -45.6°C | 63.1% | 260.0hPa | 2.5V | 07:45:00 | 02:50:03 | 00:00:00 | |
| DK5PH-5 | 2026-08-31 01:19:21 | 48.55987 | 13.17150 | 77° | 108km/h | 10522m | -3.6m/s | -45.6°C | 62.9% | 259.9hPa | 2.5V | 00:00:00 | 02:50:02 | 00:00:00 | |
| DO3MHA-11 | 2026-08-31 01:19:20 | 48.55980 | 13.17106 | 76° | 106km/h | 10526m | -3.8m/s | -45.7°C | 62.0% | 259.8hPa | 2.5V | 00:00:00 | 02:50:01 | 00:00:00 | |
| OE5DXL-15 | 2026-08-31 01:19:17 | 48.55958 | 13.16975 | 76° | 108km/h | 10536m | -3.6m/s | -45.7°C | 60.6% | 259.3hPa | 2.5V | 00:00:00 | 00:00:00 | 00:00:00 | |
| OE5MMP-10 | 2026-08-31 01:19:16 | 48.55950 | 13.16932 | 75° | 110km/h | 10540m | -3.6m/s | -45.7°C | 60.1% | 259.2hPa | 2.5V | 00:00:00 | 02:49:57 | 00:00:00 | |
| OE5WHR-10 | 2026-08-31 01:19:11 | 48.55912 | 13.16726 | 75° | 106km/h | 10559m | -3.5m/s | -45.8°C | 58.5% | 258.5hPa | 2.5V | 00:00:00 | 00:00:00 | 00:00:00 | |
| OE5DRO-10 | 2026-08-31 01:19:09 | 48.55898 | 13.16647 | 76° | 104km/h | 10566m | -3.7m/s | -45.9°C | 57.8% | 258.2hPa | 2.5V | 00:00:00 | 00:00:00 | 00:00:00 | |
| OE5MMP-10 | 2026-08-31 01:19:06 | 48.55879 | 13.16532 | 78° | 102km/h | 10577m | -3.6m/s | -45.9°C | 57.0% | 257.7hPa | 2.5V | 00:00:00 | 02:49:47 | 00:00:00 | |
| DO3MHA-11 | 2026-08-31 01:19:04 | 48.55869 | 13.16457 | 80° | 102km/h | 10584m | -3.8m/s | -46.0°C | 56.5% | 257.5hPa | 2.5V | 00:00:00 | 02:49:45 | 00:00:00 | |
| DL6DJ-15 | 2026-08-31 01:18:58 | 48.55850 | 13.16228 | 85° | 102km/h | 10607m | -3.8m/s | -46.1°C | 47.9% | 256.7hPa | 2.4V | 00:00:00 | 00:00:00 | 00:00:00 | |
| OE5MMP-10 | 2026-08-31 01:18:56 | 48.55846 | 13.16149 | 87° | 113km/h | 10615m | -3.7m/s | -46.1°C | 54.3% | 256.3hPa | 2.4V | 07:45:00 | 02:49:37 | 00:00:00 | |
| OE5REO-15 | 2026-08-31 01:18:55 | 48.55846 | 13.16149 | 88° | 106km/h | 10615m | -3.8m/s | -46.2°C | 47.5% | 256.3hPa | 2.4V | 07:46:00 | 00:00:00 | 00:00:00 | |
| DB0UT-7 | 2026-08-31 01:18:54 | 48.55843 | 13.16067 | 88° | 115km/h | 10623m | -3.7m/s | -46.1°C | 54.0% | 256.0hPa | 2.4V | 07:45:00 | 02:49:35 | 00:00:00 | |
| OE5FHM-15 | 2026-08-31 01:18:52 | 48.55841 | 13.15982 | 88° | 120km/h | 10630m | -3.8m/s | -46.2°C | 53.9% | 255.7hPa | 2.4V | 00:00:00 | 02:49:33 | 00:00:00 | |
| OE5WHR-10 | 2026-08-31 01:18:50 | 48.55838 | 13.15894 | 87° | 122km/h | 10638m | -3.8m/s | -46.3°C | 53.5% | 255.5hPa | 2.4V | 00:00:00 | 02:49:31 | 00:00:00 | |
| OE5DXL-15 | 2026-08-31 01:18:47 | 48.55832 | 13.15759 | 87° | 120km/h | 10649m | -3.8m/s | -46.4°C | 53.7% | 255.0hPa | 2.4V | 00:00:00 | 00:00:00 | 00:00:00 | |
| OE5MMP-10 | 2026-08-31 01:18:46 | 48.55830 | 13.15713 | 86° | 122km/h | 10653m | -3.7m/s | -46.4°C | 53.6% | 254.9hPa | 2.4V | 00:00:00 | 02:49:27 | 00:00:00 | |
| DO3MHA-11 | 2026-08-31 01:18:44 | 48.55825 | 13.15621 | 85° | 122km/h | 10660m | -3.6m/s | -46.4°C | 53.8% | 254.6hPa | 2.4V | 00:00:00 | 02:49:25 | 00:00:00 | |
| OE5HKT-10 | 2026-08-31 01:18:43 | 48.55822 | 13.15574 | 84° | 122km/h | 10664m | -3.6m/s | -46.5°C | 54.0% | 254.4hPa | 2.4V | 00:00:00 | 00:00:00 | 00:00:00 | |
| OE3JTB-15 | 2026-08-31 01:18:41 | 48.55814 | 13.15481 | 83° | 119km/h | 10671m | -3.6m/s | -46.6°C | 53.8% | 254.2hPa | 2.5V | 00:00:00 | 00:00:00 | 00:00:00 | |
| OE5REO-15 | 2026-08-31 01:18:39 | 48.55810 | 13.15435 | 83° | 122km/h | 10674m | -3.6m/s | -46.6°C | 46.9% | 254.0hPa | 2.5V | 07:46:00 | 00:00:00 | 00:00:00 | |
| S52SK | 2026-08-31 01:18:37 | 48.55801 | 13.15342 | 82° | 122km/h | 10682m | -3.7m/s | -46.7°C | 0% | 253.8hPa | 2.5V | 00:00:00 | 00:00:00 | 00:00:00 | |
| OE5MMP-10 | 2026-08-31 01:18:36 | 48.55792 | 13.15251 | 81° | 122km/h | 10689m | -3.7m/s | -46.7°C | 53.7% | 253.5hPa | 2.5V | 00:00:00 | 02:49:17 | 00:00:00 | |
| DO3MHA-11 | 2026-08-31 01:18:34 | 48.55782 | 13.15158 | 81° | 122km/h | 10696m | -3.5m/s | -46.8°C | 53.5% | 253.2hPa | 2.5V | 00:00:00 | 02:49:15 | 00:00:00 | |
| PG1ADW-2 | 2026-08-31 01:18:31 | 48.55767 | 13.15021 | 81° | 119km/h | 10707m | -3.7m/s | -46.8°C | 53.5% | 252.8hPa | 2.5V | 07:46:00 | 00:00:00 | 00:00:00 | |
| OE5WHR-10 | 2026-08-31 01:18:29 | 48.55756 | 13.14929 | 81° | 117km/h | 10715m | -3.6m/s | -46.9°C | 53.1% | 252.5hPa | 2.5V | 00:00:00 | 00:00:00 | 00:00:00 | |
| DL6DJ-15 | 2026-08-31 01:18:27 | 48.55740 | 13.14791 | 79° | 120km/h | 10726m | -3.7m/s | -47.0°C | 46.0% | 252.1hPa | 2.4V | 00:00:00 | 00:00:00 | 00:00:00 | |
| OE5MMP-10 | 2026-08-31 01:18:26 | 48.55740 | 13.14791 | 80° | 113km/h | 10726m | -3.6m/s | -46.9°C | 52.9% | 252.0hPa | 2.4V | 00:00:00 | 02:49:07 | 00:00:00 | |
| OM5KV | 2026-08-31 01:18:25 | 48.55740 | 13.14791 | 81° | 122km/h | 10726m | -3.7m/s | -47.0°C | 46.0% | 252.1hPa | 2.4V | 07:47:00 | 00:00:00 | 00:00:00 | |
| DO3MHA-11 | 2026-08-31 01:18:24 | 48.55729 | 13.14700 | 80° | 117km/h | 10733m | -3.8m/s | -47.0°C | 53.1% | 251.7hPa | 2.4V | 00:00:00 | 02:49:05 | 00:00:00 | |
| OE5FHM-15 | 2026-08-31 01:18:22 | 48.55718 | 13.14610 | 79° | 110km/h | 10741m | -3.9m/s | -47.0°C | 53.8% | 251.5hPa | 2.4V | 00:00:00 | 02:49:03 | 00:00:00 | |
| DK5PH-5 | 2026-08-31 01:18:21 | 48.55712 | 13.14566 | 79° | 110km/h | 10745m | -3.7m/s | -47.1°C | 53.8% | 251.4hPa | 2.4V | 00:00:00 | 02:49:02 | 00:00:00 | |
| OM5KV | 2026-08-31 01:18:19 | 48.55706 | 13.14522 | 79° | 119km/h | 10748m | -3.5m/s | -47.2°C | 46.8% | 251.2hPa | 2.5V | 07:47:00 | 00:00:00 | 00:00:00 | |
| OE5DXL-15 | 2026-08-31 01:18:17 | 48.55688 | 13.14391 | 79° | 108km/h | 10759m | -3.7m/s | -47.2°C | 53.9% | 250.7hPa | 2.5V | 00:00:00 | 00:00:00 | 00:00:00 | |
| DO3MHA-11 | 2026-08-31 01:18:14 | 48.55670 | 13.14264 | 79° | 110km/h | 10770m | -3.8m/s | -47.3°C | 53.4% | 250.4hPa | 2.5V | 00:00:00 | 02:48:55 | 00:00:00 | |
| OM5KV | 2026-08-31 01:18:13 | 48.55670 | 13.14264 | 79° | 113km/h | 10770m | -3.8m/s | -47.3°C | 46.4% | 250.4hPa | 2.5V | 07:47:00 | 00:00:00 | 00:00:00 | |
| OE5DRO-10 | 2026-08-31 01:18:12 | 48.55659 | 13.14180 | 79° | 106km/h | 10778m | -3.8m/s | -47.3°C | 53.2% | 250.1hPa | 2.5V | 00:00:00 | 00:00:00 | 00:00:00 | |
| PG1ADW-2 | 2026-08-31 01:18:11 | 48.55653 | 13.14139 | 79° | 106km/h | 10782m | -3.7m/s | -47.4°C | 53.1% | 249.9hPa | 2.5V | 00:00:00 | 00:00:00 | 00:00:00 | |
| OE3JTB-15 | 2026-08-31 01:18:10 | 48.55648 | 13.14098 | 80° | 111km/h | 10785m | -3.8m/s | -47.4°C | 52.8% | 249.8hPa | 2.5V | 00:00:00 | 02:48:51 | 00:00:00 | |
| OE5MMP-10 | 2026-08-31 01:18:09 | 48.55643 | 13.14057 | 80° | 106km/h | 10789m | -3.7m/s | -47.4°C | 52.7% | 249.7hPa | 2.5V | 00:00:00 | 02:48:50 | 00:00:00 | |
| OE5WHR-10 | 2026-08-31 01:18:08 | 48.55639 | 13.14017 | 81° | 108km/h | 10793m | -3.5m/s | -47.4°C | 52.5% | 249.5hPa | 2.5V | 00:00:00 | 00:00:00 | 00:00:00 | |
| OM5KV | 2026-08-31 01:18:07 | 48.55638 | 13.14017 | 81° | 108km/h | 10793m | -3.6m/s | -47.5°C | 45.6% | 249.6hPa | 2.5V | 07:47:00 | 00:00:00 | 00:00:00 | |
| DO3MHA-11 | 2026-08-31 01:18:04 | 48.55621 | 13.13856 | 81° | 104km/h | 10808m | -3.7m/s | -47.6°C | 53.0% | 248.9hPa | 2.5V | 00:00:00 | 02:48:45 | 00:00:00 | |
| NBG1-10 | 2026-08-31 01:18:02 | 48.55612 | 13.13776 | 82° | 119km/h | 10815m | -3.7m/s | -47.6°C | 53.2% | 248.7hPa | 2.4V | 00:00:00 | 02:48:43 | 00:00:00 | |
| DL6DJ-15 | 2026-08-31 01:17:56 | 48.55592 | 13.13501 | 87° | 102km/h | 10841m | -3.8m/s | -47.9°C | 47.1% | 247.7hPa | 2.5V | 00:00:00 | 00:00:00 | 00:00:00 | |
| DO3MHA-11 | 2026-08-31 01:17:54 | 48.55591 | 13.13462 | 88° | 113km/h | 10845m | -3.9m/s | -47.9°C | 54.6% | 247.6hPa | 2.5V | 00:00:00 | 02:48:35 | 00:00:00 | |
| OM5KV | 2026-08-31 01:17:53 | 48.55591 | 13.13462 | 89° | 104km/h | 10845m | -3.9m/s | -47.9°C | 47.4% | 247.6hPa | 2.5V | 07:47:00 | 00:00:00 | 00:00:00 | |
| OE5FHM-15 | 2026-08-31 01:17:52 | 48.55590 | 13.13380 | 90° | 124km/h | 10853m | -3.7m/s | -47.9°C | 54.7% | 247.2hPa | 2.5V | 00:00:00 | 02:48:33 | 00:00:00 | |
| DK5PH-5 | 2026-08-31 01:17:51 | 48.55590 | 13.13339 | 91° | 124km/h | 10857m | -3.8m/s | -48.0°C | 54.9% | 247.1hPa | 2.4V | 00:00:00 | 02:48:32 | 00:00:00 | |
| OE5MMP-10 | 2026-08-31 01:17:49 | 48.55591 | 13.13253 | 92° | 124km/h | 10864m | -4.0m/s | -48.0°C | 54.7% | 246.8hPa | 2.4V | 00:00:00 | 02:48:30 | 00:00:00 | |
| OE5WHR-10 | 2026-08-31 01:17:47 | 48.55592 | 13.13164 | 92° | 128km/h | 10872m | -3.8m/s | -48.1°C | 54.7% | 246.5hPa | 2.5V | 00:00:00 | 02:48:28 | 00:00:00 | |
| DO3MHA-11 | 2026-08-31 01:17:44 | 48.55593 | 13.13023 | 90° | 130km/h | 10884m | -3.8m/s | -48.2°C | 54.7% | 246.1hPa | 2.5V | 00:00:00 | 02:48:25 | 00:00:00 | |
| OE3JTB-15 | 2026-08-31 01:17:41 | 48.55590 | 13.12876 | 88° | 120km/h | 10896m | -3.9m/s | -48.3°C | 54.8% | 245.6hPa | 2.5V | 00:00:00 | 00:00:00 | 00:00:00 | |
| DB0UT-7 | 2026-08-31 01:17:40 | 48.55588 | 13.12827 | 87° | 120km/h | 10899m | -3.8m/s | -48.3°C | 54.7% | 245.5hPa | 2.5V | 00:00:00 | 00:00:00 | 00:00:00 | |
| OE5MMP-10 | 2026-08-31 01:17:39 | 48.55586 | 13.12777 | 86° | 130km/h | 10903m | -3.8m/s | -48.3°C | 54.5% | 245.4hPa | 2.5V | 00:00:00 | 02:48:20 | 00:00:00 | |
| OE5REO-15 | 2026-08-31 01:17:36 | 48.55580 | 13.12677 | 85° | 131km/h | 10911m | -3.9m/s | -48.4°C | 47.1% | 245.1hPa | 2.5V | 07:47:00 | 00:00:00 | 00:00:00 | |
| OE5DRO-10 | 2026-08-31 01:17:35 | 48.55568 | 13.12528 | 83° | 119km/h | 10923m | -3.8m/s | -48.5°C | 53.3% | 244.6hPa | 2.5V | 07:47:00 | 00:00:00 | 00:00:00 | |
| DO3MHA-11 | 2026-08-31 01:17:34 | 48.55568 | 13.12528 | 83° | 124km/h | 10923m | -3.8m/s | -48.5°C | 53.3% | 244.6hPa | 2.5V | 07:47:00 | 02:48:15 | 00:00:00 | |
| PG1ADW-2 | 2026-08-31 01:17:31 | 48.55553 | 13.12382 | 81° | 117km/h | 10934m | -3.9m/s | -48.6°C | 53.7% | 244.2hPa | 2.4V | 00:00:00 | 00:00:00 | 00:00:00 | |
| OE5MMP-10 | 2026-08-31 01:17:29 | 48.55541 | 13.12288 | 80° | 117km/h | 10942m | -3.8m/s | -48.6°C | 53.8% | 243.9hPa | 2.4V | 07:47:00 | 02:48:10 | 00:00:00 | |
| OE5WHR-10 | 2026-08-31 01:17:26 | 48.55524 | 13.12153 | 80° | 115km/h | 10953m | -3.8m/s | -48.7°C | 54.7% | 243.5hPa | 2.4V | 00:00:00 | 00:00:00 | 00:00:00 | |
| DL6DJ-15 | 2026-08-31 01:17:25 | 48.55513 | 13.12065 | 80° | 115km/h | 10960m | -3.7m/s | -48.8°C | 47.8% | 243.3hPa | 2.4V | 00:00:00 | 00:00:00 | 00:00:00 | |
| DO3MHA-11 | 2026-08-31 01:17:24 | 48.55513 | 13.12065 | 81° | 113km/h | 10960m | -3.7m/s | -48.8°C | 55.3% | 243.3hPa | 2.4V | 00:00:00 | 02:48:05 | 00:00:00 | |
| OE5FHM-15 | 2026-08-31 01:17:22 | 48.55504 | 13.11979 | 82° | 120km/h | 10968m | -3.6m/s | -48.9°C | 55.7% | 242.9hPa | 2.4V | 00:00:00 | 02:48:03 | 00:00:00 | |
| DK5PH-5 | 2026-08-31 01:17:21 | 48.55500 | 13.11937 | 83° | 120km/h | 10971m | -3.6m/s | -48.9°C | 55.9% | 242.8hPa | 2.4V | 00:00:00 | 02:48:02 | 00:00:00 | |
| OE5REO-15 | 2026-08-31 01:17:20 | 48.55499 | 13.11937 | 83° | 113km/h | 10971m | -3.7m/s | -48.9°C | 48.3% | 242.8hPa | 2.4V | 07:47:00 | 00:00:00 | 00:00:00 | |
| OE5MMP-10 | 2026-08-31 01:17:19 | 48.55493 | 13.11852 | 84° | 113km/h | 10979m | -3.6m/s | -49.0°C | 55.7% | 242.5hPa | 2.4V | 00:00:00 | 02:48:00 | 00:00:00 | |
| OE5DXL-15 | 2026-08-31 01:17:17 | 48.55487 | 13.11767 | 85° | 124km/h | 10986m | -3.6m/s | -49.0°C | 55.7% | 242.3hPa | 2.5V | 00:00:00 | 00:00:00 | 00:00:00 | |
| OM5KV | 2026-08-31 01:17:16 | 48.55484 | 13.11725 | 86° | 113km/h | 10990m | -3.7m/s | -49.1°C | 48.1% | 242.2hPa | 2.5V | 00:00:00 | 00:00:00 | 00:00:00 | |
| OE5DRO-10 | 2026-08-31 01:17:15 | 48.55482 | 13.11682 | 86° | 120km/h | 10993m | -3.7m/s | -49.1°C | 55.6% | 242.0hPa | 2.5V | 00:00:00 | 00:00:00 | 00:00:00 | |
| DO3MHA-11 | 2026-08-31 01:17:14 | 48.55480 | 13.11639 | 86° | 117km/h | 10997m | -3.7m/s | -49.1°C | 55.5% | 241.9hPa | 2.5V | 00:00:00 | 02:47:55 | 00:00:00 | |
| PG1ADW-2 | 2026-08-31 01:17:11 | 48.55474 | 13.11509 | 88° | 124km/h | 11008m | -3.7m/s | -49.2°C | 55.2% | 241.5hPa | 2.5V | 00:00:00 | 00:00:00 | 00:00:00 | |
| DB0UT-7 | 2026-08-31 01:17:10 | 48.55473 | 13.11465 | 88° | 131km/h | 11012m | -3.6m/s | -49.3°C | 55.0% | 241.4hPa | 2.5V | 00:00:00 | 02:47:51 | 00:00:00 | |
| OE5MMP-10 | 2026-08-31 01:17:09 | 48.55472 | 13.11421 | 88° | 120km/h | 11015m | -3.6m/s | -49.3°C | 54.9% | 241.2hPa | 2.5V | 00:00:00 | 02:47:50 | 00:00:00 | |
| OE5WHR-10 | 2026-08-31 01:17:05 | 48.55468 | 13.11240 | 89° | 130km/h | 11030m | -3.6m/s | -49.3°C | 54.7% | 240.6hPa | 2.5V | 07:47:00 | 00:00:00 | 00:00:00 | |
| DO3MHA-11 | 2026-08-31 01:17:04 | 48.55467 | 13.11194 | 89° | 126km/h | 11034m | -3.5m/s | -49.3°C | 54.5% | 240.5hPa | 2.5V | 00:00:00 | 02:47:45 | 00:00:00 | |
| DL6DJ-15 | 2026-08-31 01:16:54 | 48.55456 | 13.10662 | 86° | 133km/h | 11074m | -3.7m/s | -49.7°C | 47.4% | 239.1hPa | 2.4V | 00:00:00 | 00:00:00 | 00:00:00 | |
| OE5FHM-15 | 2026-08-31 01:16:52 | 48.55454 | 13.10611 | 86° | 126km/h | 11078m | -3.7m/s | -49.6°C | 55.2% | 238.9hPa | 2.4V | 00:00:00 | 02:47:33 | 00:00:00 | |
| OE5REO-15 | 2026-08-31 01:16:51 | 48.55451 | 13.10560 | 86° | 135km/h | 11082m | -3.6m/s | -49.7°C | 47.6% | 238.8hPa | 2.4V | 07:47:00 | 00:00:00 | 00:00:00 | |
| OE5MMP-10 | 2026-08-31 01:16:48 | 48.55442 | 13.10405 | 85° | 137km/h | 11093m | -3.8m/s | -49.8°C | 55.8% | 238.3hPa | 2.4V | 00:00:00 | 02:47:29 | 00:00:00 | |
| OE5DXL-15 | 2026-08-31 01:16:47 | 48.55439 | 13.10353 | 85° | 122km/h | 11097m | -3.7m/s | -49.8°C | 55.7% | 238.2hPa | 2.4V | 00:00:00 | 00:00:00 | 00:00:00 | |
| OE5HKT-10 | 2026-08-31 01:16:46 | 48.55435 | 13.10301 | 84° | 122km/h | 11100m | -3.7m/s | -49.8°C | 56.0% | 238.1hPa | 2.4V | 00:00:00 | 02:47:27 | 00:00:00 | |
| DO3MHA-11 | 2026-08-31 01:16:44 | 48.55427 | 13.10197 | 83° | 131km/h | 11108m | -3.8m/s | -49.9°C | 56.3% | 237.8hPa | 2.4V | 00:00:00 | 02:47:25 | 00:00:00 | |
| DB0ND-19 | 2026-08-31 01:16:43 | 48.55417 | 13.10093 | 80° | 135km/h | 11115m | -3.8m/s | -50.0°C | 48.1% | 237.6hPa | 2.4V | 00:00:00 | 00:00:00 | 00:00:00 | |
| OE3JTB-15 | 2026-08-31 01:16:42 | 48.55417 | 13.10093 | 81° | 122km/h | 11116m | -3.8m/s | -49.9°C | 55.9% | 237.5hPa | 2.4V | 00:00:00 | 02:47:23 | 00:00:00 | |
| OE5MMP-10 | 2026-08-31 01:16:38 | 48.55392 | 13.09894 | 79° | 122km/h | 11131m | -3.7m/s | -50.1°C | 55.6% | 237.0hPa | 2.4V | 00:00:00 | 02:47:19 | 00:00:00 | |
| OE5DRO-10 | 2026-08-31 01:16:37 | 48.55385 | 13.09846 | 78° | 117km/h | 11134m | -3.8m/s | -50.1°C | 55.5% | 236.8hPa | 2.4V | 00:00:00 | 00:00:00 | 00:00:00 | |
| DO3MHA-11 | 2026-08-31 01:16:34 | 48.55364 | 13.09706 | 78° | 117km/h | 11146m | -3.7m/s | -50.2°C | 55.0% | 236.4hPa | 2.4V | 00:00:00 | 02:47:15 | 00:00:00 | |
| PG1ADW-2 | 2026-08-31 01:16:31 | 48.55344 | 13.09571 | 78° | 119km/h | 11157m | -3.8m/s | -50.3°C | 54.1% | 236.0hPa | 2.4V | 00:00:00 | 02:47:12 | 00:00:00 | |
| OE5MMP-10 | 2026-08-31 01:16:28 | 48.55327 | 13.09442 | 81° | 113km/h | 11168m | -3.6m/s | -50.4°C | 53.7% | 235.6hPa | 2.4V | 00:00:00 | 02:47:09 | 00:00:00 | |
| DO3MHA-11 | 2026-08-31 01:16:24 | 48.55310 | 13.09273 | 83° | 117km/h | 11183m | -3.8m/s | -50.5°C | 53.2% | 235.1hPa | 2.4V | 00:00:00 | 02:47:05 | 00:00:00 | |
| OE5WHR-10 | 2026-08-31 01:16:23 | 48.55307 | 13.09230 | 84° | 128km/h | 11186m | -3.7m/s | -50.6°C | 53.5% | 235.0hPa | 2.4V | 00:00:00 | 00:00:00 | 00:00:00 | |
| OE5FHM-15 | 2026-08-31 01:16:22 | 48.55304 | 13.09188 | 85° | 130km/h | 11190m | -3.6m/s | -50.6°C | 53.6% | 234.8hPa | 2.4V | 00:00:00 | 02:47:03 | 00:00:00 | |
| DK5PH-5 | 2026-08-31 01:16:21 | 48.55301 | 13.09145 | 86° | 130km/h | 11194m | -3.7m/s | -50.6°C | 53.9% | 234.7hPa | 2.4V | 07:48:00 | 02:47:02 | 00:00:00 | |
| OE5MMP-10 | 2026-08-31 01:16:18 | 48.55296 | 13.09013 | 88° | 130km/h | 11205m | -3.7m/s | -50.7°C | 53.7% | 234.3hPa | 2.4V | 00:00:00 | 02:46:59 | 00:00:00 | |
| OE5DXL-15 | 2026-08-31 01:16:17 | 48.55295 | 13.08967 | 89° | 131km/h | 11209m | -3.8m/s | -50.8°C | 53.2% | 234.2hPa | 2.4V | 00:00:00 | 00:00:00 | 00:00:00 | |
| DO3MHA-11 | 2026-08-31 01:16:14 | 48.55292 | 13.08823 | 89° | 135km/h | 11220m | -3.9m/s | -50.9°C | 51.7% | 233.7hPa | 2.5V | 07:48:00 | 02:46:55 | 00:00:00 | |
| DB0ND-19 | 2026-08-31 01:16:12 | 48.55288 | 13.08672 | 86° | 133km/h | 11232m | -3.9m/s | -51.0°C | 41.7% | 233.3hPa | 2.5V | 00:00:00 | 00:00:00 | 00:00:00 | |
| PG1ADW-2 | 2026-08-31 01:16:11 | 48.55288 | 13.08672 | 87° | 133km/h | 11232m | -3.9m/s | -51.0°C | 49.1% | 233.3hPa | 2.5V | 00:00:00 | 00:00:00 | 00:00:00 | |
| OE5MMP-10 | 2026-08-31 01:16:08 | 48.55281 | 13.08517 | 86° | 139km/h | 11243m | -3.8m/s | -51.1°C | 46.3% | 232.9hPa | 2.5V | 07:48:00 | 02:46:49 | 00:00:00 | |
| OE3JTB-15 | 2026-08-31 01:16:07 | 48.55278 | 13.08464 | 85° | 126km/h | 11247m | -3.9m/s | -51.1°C | 45.1% | 232.7hPa | 2.5V | 00:00:00 | 00:00:00 | 00:00:00 | |
| DO3MHA-11 | 2026-08-31 01:16:04 | 48.55265 | 13.08307 | 82° | 135km/h | 11259m | -3.6m/s | -51.0°C | 41.1% | 232.3hPa | 2.4V | 00:00:00 | 02:46:45 | 00:00:00 | |
| OE5REO-15 | 2026-08-31 01:16:03 | 48.55265 | 13.08307 | 82° | 139km/h | 11259m | -3.6m/s | -51.0°C | 34.4% | 232.4hPa | 2.4V | 07:48:00 | 00:00:00 | 00:00:00 | |
| OE5WHR-10 | 2026-08-31 01:16:02 | 48.55253 | 13.08202 | 80° | 124km/h | 11266m | -3.8m/s | -51.1°C | 40.6% | 232.1hPa | 2.4V | 00:00:00 | 00:00:00 | 00:00:00 | |
| OE5DRO-10 | 2026-08-31 01:15:59 | 48.55234 | 13.08047 | 79° | 122km/h | 11278m | -3.8m/s | -51.1°C | 39.4% | 231.7hPa | 2.4V | 00:00:00 | 00:00:00 | 00:00:00 | |
| OE5MMP-10 | 2026-08-31 01:15:58 | 48.55227 | 13.07997 | 79° | 124km/h | 11281m | -3.8m/s | -51.1°C | 39.2% | 231.5hPa | 2.4V | 00:00:00 | 02:46:39 | 00:00:00 | |
| DO3MHA-11 | 2026-08-31 01:15:54 | 48.55200 | 13.07804 | 79° | 119km/h | 11296m | -3.7m/s | -51.2°C | 38.6% | 231.0hPa | 2.4V | 00:00:00 | 02:46:35 | 00:00:00 | |
| OE5FHM-15 | 2026-08-31 01:15:52 | 48.55187 | 13.07713 | 79° | 122km/h | 11304m | -3.9m/s | -51.2°C | 39.0% | 230.7hPa | 2.4V | 00:00:00 | 02:46:33 | 00:00:00 | |
| PG1ADW-2 | 2026-08-31 01:15:51 | 48.55182 | 13.07668 | 79° | 117km/h | 11307m | -3.8m/s | -51.3°C | 38.9% | 230.6hPa | 2.4V | 07:48:00 | 00:00:00 | 00:00:00 | |
| OE5MMP-10 | 2026-08-31 01:15:48 | 48.55165 | 13.07535 | 80° | 115km/h | 11320m | -4.2m/s | -51.3°C | 39.6% | 230.1hPa | 2.5V | 00:00:00 | 02:46:29 | 00:00:00 | |
| OE5DXL-15 | 2026-08-31 01:15:47 | 48.55160 | 13.07491 | 81° | 126km/h | 11324m | -4.0m/s | -51.4°C | 39.9% | 230.0hPa | 2.4V | 00:00:00 | 00:00:00 | 00:00:00 | |
| NBG1-10 | 2026-08-31 01:15:46 | 48.55155 | 13.07447 | 81° | 133km/h | 11328m | -3.9m/s | -51.4°C | 40.0% | 229.9hPa | 2.4V | 00:00:00 | 02:46:27 | 00:00:00 | |
| DO3MHA-11 | 2026-08-31 01:15:44 | 48.55147 | 13.07360 | 83° | 115km/h | 11336m | -4.0m/s | -51.4°C | 39.9% | 229.6hPa | 2.4V | 00:00:00 | 02:46:25 | 00:00:00 | |
| DB0ND-19 | 2026-08-31 01:15:41 | 48.55136 | 13.07186 | 85° | 115km/h | 11352m | -4.0m/s | -51.6°C | 32.9% | 229.1hPa | 2.4V | 00:00:00 | 00:00:00 | 00:00:00 | |
| OE5DRO-10 | 2026-08-31 01:15:40 | 48.55136 | 13.07186 | 86° | 126km/h | 11352m | -4.0m/s | -51.5°C | 39.5% | 229.0hPa | 2.4V | 00:00:00 | 00:00:00 | 00:00:00 | |
| OE5MMP-10 | 2026-08-31 01:15:38 | 48.55132 | 13.07098 | 87° | 122km/h | 11360m | -4.0m/s | -51.6°C | 39.6% | 228.7hPa | 2.4V | 00:00:00 | 02:46:19 | 00:00:00 | |
| OM5KV | 2026-08-31 01:15:37 | 48.55132 | 13.07098 | 88° | 115km/h | 11360m | -4.0m/s | -51.6°C | 32.9% | 228.8hPa | 2.4V | 00:00:00 | 00:00:00 | 00:00:00 | |
| S52SK | 2026-08-31 01:15:35 | 48.55129 | 13.07010 | 89° | 117km/h | 11368m | -4.1m/s | -51.7°C | 0% | 228.5hPa | 2.4V | 00:00:00 | 00:00:00 | 00:00:00 | |
| DO3MHA-11 | 2026-08-31 01:15:34 | 48.55128 | 13.06920 | 90° | 130km/h | 11376m | -3.9m/s | -51.7°C | 38.9% | 228.1hPa | 2.4V | 00:00:00 | 02:46:15 | 00:00:00 | |
| OE5REO-15 | 2026-08-31 01:15:32 | 48.55128 | 13.06828 | 92° | 124km/h | 11384m | -4.1m/s | -51.8°C | 32.1% | 227.9hPa | 2.4V | 07:49:00 | 00:00:00 | 00:00:00 | |
| PG1ADW-2 | 2026-08-31 01:15:31 | 48.55129 | 13.06780 | 91° | 133km/h | 11388m | -4.2m/s | -51.7°C | 38.6% | 227.7hPa | 2.4V | 00:00:00 | 00:00:00 | 00:00:00 | |
| OE5MMP-10 | 2026-08-31 01:15:28 | 48.55129 | 13.06631 | 90° | 137km/h | 11401m | -4.0m/s | -51.8°C | 38.5% | 227.3hPa | 2.4V | 00:00:00 | 02:46:09 | 00:00:00 | |
| DO3MHA-11 | 2026-08-31 01:15:24 | 48.55123 | 13.06423 | 86° | 135km/h | 11416m | -3.8m/s | -51.9°C | 38.7% | 226.8hPa | 2.4V | 00:00:00 | 02:46:05 | 00:00:00 | |
| OE5WHR-10 | 2026-08-31 01:15:22 | 48.55108 | 13.06214 | 83° | 124km/h | 11432m | -4.0m/s | -52.0°C | 38.2% | 226.2hPa | 2.4V | 00:00:00 | 00:00:00 | 00:00:00 | |
| OE5MMP-10 | 2026-08-31 01:15:21 | 48.55097 | 13.06112 | 81° | 126km/h | 11439m | -3.8m/s | -52.1°C | 38.0% | 225.9hPa | 2.4V | 00:00:00 | 02:45:59 | 00:00:00 | |
| OE5DXL-15 | 2026-08-31 01:15:19 | 48.55092 | 13.06062 | 80° | 124km/h | 11443m | -3.9m/s | -52.1°C | 37.8% | 225.8hPa | 2.5V | 00:00:00 | 00:00:00 | 00:00:00 | |
| OE5REO-15 | 2026-08-31 01:15:18 | 48.55092 | 13.06062 | 81° | 133km/h | 11443m | -4.0m/s | -52.2°C | 31.2% | 225.9hPa | 2.5V | 07:49:00 | 00:00:00 | 00:00:00 | |
| DO3MHA-11 | 2026-08-31 01:15:14 | 48.55073 | 13.05915 | 79° | 120km/h | 11455m | -3.9m/s | -52.2°C | 37.6% | 225.4hPa | 2.5V | 00:00:00 | 02:45:55 | 00:00:00 | |
| NBG1-10 | 2026-08-31 01:15:11 | 48.55056 | 13.05775 | 80° | 133km/h | 11467m | -3.8m/s | -52.3°C | 37.7% | 225.0hPa | 2.5V | 00:00:00 | 02:45:52 | 00:00:00 | |
| OE3JTB-15 | 2026-08-31 01:15:09 | 48.55046 | 13.05684 | 82° | 130km/h | 11475m | -3.8m/s | -52.3°C | 37.3% | 224.7hPa | 2.5V | 00:00:00 | 02:45:50 | 00:00:00 | |
| OE5MMP-10 | 2026-08-31 01:15:08 | 48.55042 | 13.05640 | 83° | 117km/h | 11478m | -3.8m/s | -52.4°C | 37.4% | 224.6hPa | 2.5V | 00:00:00 | 02:45:49 | 00:00:00 | |
| DO3MHA-11 | 2026-08-31 01:15:04 | 48.55032 | 13.05462 | 88° | 119km/h | 11494m | -3.9m/s | -52.4°C | 37.3% | 224.1hPa | 2.5V | 00:00:00 | 02:45:45 | 00:00:00 | |
| OE5REO-15 | 2026-08-31 01:15:01 | 48.55029 | 13.05373 | 89° | 117km/h | 11501m | -3.9m/s | -52.5°C | 30.3% | 223.8hPa | 2.4V | 07:50:00 | 00:00:00 | 00:00:00 | |
| DL6DJ-15 | 2026-08-31 01:14:49 | 48.55033 | 13.04750 | 90° | 139km/h | 11553m | -4.0m/s | -52.7°C | 28.5% | 222.1hPa | 2.4V | 00:00:00 | 00:00:00 | 00:00:00 | |
| OE5MMP-10 | 2026-08-31 01:14:48 | 48.55032 | 13.04697 | 90° | 142km/h | 11557m | -3.9m/s | -52.7°C | 34.9% | 221.8hPa | 2.4V | 07:49:00 | 02:45:29 | 00:00:00 | |
| OE5DXL-15 | 2026-08-31 01:14:47 | 48.55032 | 13.04643 | 89° | 131km/h | 11561m | -3.8m/s | -52.7°C | 34.9% | 221.8hPa | 2.4V | 00:00:00 | 00:00:00 | 00:00:00 | |
| DO3MHA-11 | 2026-08-31 01:14:44 | 48.55026 | 13.04478 | 86° | 139km/h | 11572m | -3.8m/s | -52.7°C | 34.8% | 221.4hPa | 2.4V | 00:00:00 | 02:45:25 | 00:00:00 | |
| OE5DRO-10 | 2026-08-31 01:14:43 | 48.55023 | 13.04423 | 85° | 130km/h | 11576m | -3.8m/s | -52.7°C | 34.8% | 221.2hPa | 2.4V | 00:00:00 | 00:00:00 | 00:00:00 | |
| OE3JTB-15 | 2026-08-31 01:14:40 | 48.55011 | 13.04260 | 83° | 130km/h | 11588m | -3.8m/s | -52.8°C | 35.3% | 220.9hPa | 2.4V | 00:00:00 | 00:00:00 | 00:00:00 | |
| OE5WHR-10 | 2026-08-31 01:14:38 | 48.55001 | 13.04155 | 82° | 126km/h | 11595m | -3.5m/s | -52.9°C | 35.9% | 220.6hPa | 2.4V | 00:00:00 | 02:45:19 | 00:00:00 | |
| DO3MHA-11 | 2026-08-31 01:14:34 | 48.54980 | 13.03958 | 82° | 124km/h | 11609m | -3.7m/s | -53.0°C | 35.6% | 220.1hPa | 2.4V | 00:00:00 | 02:45:15 | 00:00:00 | |
| PG1ADW-2 | 2026-08-31 01:14:31 | 48.54969 | 13.03818 | 85° | 128km/h | 11621m | -3.6m/s | -53.0°C | 35.2% | 219.7hPa | 2.4V | 00:00:00 | 00:00:00 | 00:00:00 | |
| OE5REO-15 | 2026-08-31 01:14:29 | 48.54966 | 13.03771 | 86° | 122km/h | 11624m | -3.7m/s | -53.1°C | 28.5% | 219.7hPa | 2.4V | 07:50:00 | 00:00:00 | 00:00:00 | |
| OE5MMP-10 | 2026-08-31 01:14:28 | 48.54962 | 13.03678 | 87° | 126km/h | 11631m | -3.7m/s | -53.0°C | 34.7% | 219.4hPa | 2.4V | 00:00:00 | 02:45:09 | 00:00:00 | |
| DG1MFX-10 | 2026-08-31 01:14:27 | 48.54962 | 13.03678 | 88° | 122km/h | 11631m | -3.7m/s | -53.1°C | 28.2% | 219.4hPa | 2.4V | 07:50:00 | 00:00:00 | 00:00:00 | |
| DO3MHA-11 | 2026-08-31 01:14:24 | 48.54957 | 13.03489 | 89° | 130km/h | 11646m | -3.7m/s | -53.1°C | 34.4% | 218.9hPa | 2.4V | 00:00:00 | 02:45:05 | 00:00:00 | |
| OE5HKT-10 | 2026-08-31 01:14:23 | 48.54956 | 13.03441 | 90° | 139km/h | 11650m | -3.6m/s | -53.1°C | 34.5% | 218.7hPa | 2.4V | 00:00:00 | 00:00:00 | 00:00:00 | |
| OE5FHM-15 | 2026-08-31 01:14:22 | 48.54956 | 13.03393 | 90° | 141km/h | 11653m | -3.6m/s | -53.1°C | 34.4% | 218.6hPa | 2.5V | 00:00:00 | 02:45:03 | 00:00:00 | |
| DK5PH-5 | 2026-08-31 01:14:21 | 48.54956 | 13.03345 | 91° | 141km/h | 11657m | -3.7m/s | -53.1°C | 34.5% | 218.5hPa | 2.5V | 00:00:00 | 02:45:02 | 00:00:00 | |
| DB0NH | 2026-08-31 01:14:19 | 48.54956 | 13.03248 | 91° | 142km/h | 11664m | -3.8m/s | 0°C | 0% | 0hPa | 2.5V | 00:00:00 | 02:45:00 | 00:00:00 | |
| OE5MMP-10 | 2026-08-31 01:14:18 | 48.54957 | 13.03198 | 92° | 139km/h | 11668m | -3.9m/s | -53.2°C | 34.6% | 218.1hPa | 2.5V | 00:00:00 | 02:44:59 | 00:00:00 | |
| OE5DXL-15 | 2026-08-31 01:14:17 | 48.54958 | 13.03148 | 92° | 141km/h | 11672m | -3.7m/s | -53.2°C | 34.5% | 218.0hPa | 2.4V | 00:00:00 | 00:00:00 | 00:00:00 | |
| DB0UT-7 | 2026-08-31 01:14:15 | 48.54960 | 13.03046 | 92° | 139km/h | 11680m | -3.8m/s | -53.3°C | 34.6% | 217.8hPa | 2.4V | 00:00:00 | 00:00:00 | 00:00:00 | |
| DO3MHA-11 | 2026-08-31 01:14:14 | 48.54960 | 13.02994 | 92° | 144km/h | 11683m | -3.7m/s | -53.3°C | 34.7% | 217.6hPa | 2.4V | 00:00:00 | 02:44:55 | 00:00:00 | |
| OE5REO-15 | 2026-08-31 01:14:13 | 48.54960 | 13.02994 | 92° | 137km/h | 11683m | -3.7m/s | -53.3°C | 28.2% | 217.7hPa | 2.4V | 07:50:00 | 00:00:00 | 00:00:00 | |
| PG1ADW-2 | 2026-08-31 01:14:11 | 48.54962 | 13.02835 | 91° | 144km/h | 11694m | -3.7m/s | -53.3°C | 34.7% | 217.2hPa | 2.4V | 00:00:00 | 00:00:00 | 00:00:00 | |
| OE5MMP-10 | 2026-08-31 01:14:08 | 48.54961 | 13.02669 | 89° | 148km/h | 11705m | -3.7m/s | -53.4°C | 34.7% | 216.8hPa | 2.4V | 00:00:00 | 02:44:49 | 00:00:00 | |
| DG1MFX-10 | 2026-08-31 01:14:07 | 48.54960 | 13.02669 | 90° | 146km/h | 11705m | -3.8m/s | -53.4°C | 28.2% | 216.9hPa | 2.4V | 00:00:00 | 00:00:00 | 00:00:00 | |
| OE5DRO-10 | 2026-08-31 01:14:05 | 48.54956 | 13.02501 | 88° | 139km/h | 11717m | -3.7m/s | -53.5°C | 34.9% | 216.5hPa | 2.4V | 00:00:00 | 00:00:00 | 00:00:00 | |
| DO3MHA-11 | 2026-08-31 01:14:04 | 48.54954 | 13.02445 | 87° | 144km/h | 11720m | -3.8m/s | -53.5°C | 34.9% | 216.4hPa | 2.4V | 00:00:00 | 02:44:45 | 00:00:00 | |
| OE5HKT-10 | 2026-08-31 01:14:02 | 48.54948 | 13.02332 | 85° | 133km/h | 11728m | -3.7m/s | -53.5°C | 34.9% | 216.1hPa | 2.4V | 00:00:00 | 00:00:00 | 00:00:00 | |
| DF7PN | 2026-08-31 01:14:00 | 48.54940 | 13.02221 | 83° | 146km/h | 11735m | -3.9m/s | -53.6°C | 28.6% | 215.9hPa | 2.4V | 00:00:00 | 00:00:00 | 00:00:00 | |
| OE5MMP-10 | 2026-08-31 01:13:58 | 48.54930 | 13.02112 | 82° | 135km/h | 11743m | -3.8m/s | -53.6°C | 35.3% | 215.6hPa | 2.4V | 00:00:00 | 02:44:39 | 00:00:00 | |
| OE5WHR-10 | 2026-08-31 01:13:56 | 48.54919 | 13.02006 | 81° | 126km/h | 11751m | -3.9m/s | -53.6°C | 35.3% | 215.3hPa | 2.4V | 00:00:00 | 00:00:00 | 00:00:00 | |
| DO3MHA-11 | 2026-08-31 01:13:54 | 48.54908 | 13.01902 | 80° | 128km/h | 11759m | -3.9m/s | -53.7°C | 35.5% | 215.1hPa | 2.4V | 00:00:00 | 02:44:35 | 00:00:00 | |
| OE5FHM-15 | 2026-08-31 01:13:52 | 48.54895 | 13.01801 | 80° | 130km/h | 11767m | -3.9m/s | -53.7°C | 35.6% | 214.8hPa | 2.4V | 00:00:00 | 02:44:33 | 00:00:00 | |
| DK5PH-5 | 2026-08-31 01:13:51 | 48.54890 | 13.01752 | 80° | 130km/h | 11770m | -3.8m/s | -53.7°C | 35.4% | 214.7hPa | 2.4V | 00:00:00 | 02:44:32 | 00:00:00 | |
| DB0NH | 2026-08-31 01:13:49 | 48.54879 | 13.01655 | 81° | 86km/h | 11778m | -3.8m/s | 0°C | 0% | 0hPa | 2.4V | 00:00:00 | 02:44:30 | 00:00:00 | |
| OE5MMP-10 | 2026-08-31 01:13:48 | 48.54873 | 13.01607 | 81° | 120km/h | 11782m | -3.8m/s | -53.8°C | 35.7% | 214.3hPa | 2.4V | 00:00:00 | 02:44:29 | 00:00:00 | |
| OE5DXL-15 | 2026-08-31 01:13:47 | 48.54868 | 13.01560 | 81° | 131km/h | 11786m | -4.0m/s | -53.8°C | 35.7% | 214.1hPa | 2.5V | 07:50:00 | 00:00:00 | 00:00:00 | |
| OE5DRO-10 | 2026-08-31 01:13:46 | 48.54863 | 13.01514 | 81° | 126km/h | 11790m | -3.9m/s | -53.8°C | 35.7% | 214.1hPa | 2.5V | 00:00:00 | 00:00:00 | 00:00:00 | |
| DB0UT-7 | 2026-08-31 01:13:45 | 48.54858 | 13.01468 | 82° | 135km/h | 11794m | -3.8m/s | -53.9°C | 35.6% | 213.9hPa | 2.5V | 00:00:00 | 02:44:26 | 00:00:00 | |
| DO3MHA-11 | 2026-08-31 01:13:44 | 48.54854 | 13.01422 | 83° | 120km/h | 11798m | -3.7m/s | -53.9°C | 35.5% | 213.8hPa | 2.4V | 00:00:00 | 02:44:25 | 00:00:00 | |
| OE5REO-15 | 2026-08-31 01:13:43 | 48.54854 | 13.01421 | 83° | 120km/h | 11798m | -3.7m/s | -54.0°C | 28.8% | 213.8hPa | 2.4V | 07:51:00 | 00:00:00 | 00:00:00 | |
| OE3JTB-15 | 2026-08-31 01:13:42 | 48.54846 | 13.01331 | 84° | 135km/h | 11806m | -3.9m/s | -54.0°C | 35.6% | 213.5hPa | 2.4V | 00:00:00 | 02:44:23 | 00:00:00 | |
| OE5HKT-10 | 2026-08-31 01:13:41 | 48.54842 | 13.01286 | 84° | 133km/h | 11809m | -4.1m/s | -54.0°C | 35.4% | 213.4hPa | 2.4V | 00:00:00 | 02:44:22 | 00:00:00 | |
| OE5MMP-10 | 2026-08-31 01:13:38 | 48.54835 | 13.01151 | 87° | 130km/h | 11821m | -3.9m/s | -54.1°C | 35.9% | 213.0hPa | 2.4V | 00:00:00 | 02:44:19 | 00:00:00 | |
| DB0ND-19 | 2026-08-31 01:13:36 | 48.54833 | 13.01059 | 88° | 120km/h | 11829m | -3.8m/s | -54.2°C | -1.0% | 212.8hPa | 2.4V | 00:00:00 | 00:00:00 | 00:00:00 | |
| OE5WHR-10 | 2026-08-31 01:13:35 | 48.54832 | 13.01012 | 90° | 139km/h | 11833m | -3.6m/s | -54.2°C | 36.5% | 212.6hPa | 2.4V | 00:00:00 | 02:44:16 | 00:00:00 | |
| DO3MHA-11 | 2026-08-31 01:13:34 | 48.54832 | 13.00965 | 90° | 139km/h | 11837m | -3.8m/s | -54.3°C | 36.5% | 212.5hPa | 2.4V | 07:51:00 | 02:44:15 | 00:00:00 | |
| PG1ADW-2 | 2026-08-31 01:13:31 | 48.54832 | 13.00814 | 90° | 141km/h | 11848m | -3.7m/s | -54.4°C | 36.8% | 212.1hPa | 2.4V | 00:00:00 | 00:00:00 | 00:00:00 | |
| DF7PN | 2026-08-31 01:13:29 | 48.54831 | 13.00709 | 88° | 141km/h | 11856m | -4.0m/s | -54.5°C | 29.7% | 211.9hPa | 2.4V | 00:00:00 | 00:00:00 | 00:00:00 | |
| OE5MMP-10 | 2026-08-31 01:13:28 | 48.54830 | 13.00655 | 88° | 144km/h | 11859m | -3.9m/s | -54.5°C | 36.6% | 211.7hPa | 2.4V | 07:51:00 | 02:44:09 | 00:00:00 | |
| OE5DRO-10 | 2026-08-31 01:13:27 | 48.54828 | 13.00601 | 87° | 137km/h | 11863m | -3.9m/s | -54.5°C | 36.6% | 211.7hPa | 2.4V | 00:00:00 | 00:00:00 | 00:00:00 | |
| DG1MFX-10 | 2026-08-31 01:13:26 | 48.54828 | 13.00601 | 88° | 144km/h | 11863m | -3.9m/s | -54.5°C | 29.6% | 211.7hPa | 2.4V | 00:00:00 | 00:00:00 | 00:00:00 | |
| DO3MHA-11 | 2026-08-31 01:13:24 | 48.54819 | 13.00436 | 85° | 141km/h | 11875m | -4.0m/s | -54.5°C | 36.5% | 211.2hPa | 2.4V | 00:00:00 | 02:44:05 | 00:00:00 | |
| OE5FHM-15 | 2026-08-31 01:13:22 | 48.54811 | 13.00326 | 83° | 133km/h | 11883m | -3.7m/s | -54.6°C | 36.5% | 211.0hPa | 2.4V | 00:00:00 | 02:44:03 | 00:00:00 | |
| DK5PH-5 | 2026-08-31 01:13:21 | 48.54806 | 13.00272 | 82° | 133km/h | 11887m | -3.8m/s | -54.6°C | 36.5% | 210.8hPa | 2.5V | 00:00:00 | 02:44:02 | 00:00:00 | |
| OE5HKT-10 | 2026-08-31 01:13:20 | 48.54800 | 13.00218 | 81° | 130km/h | 11891m | -3.8m/s | -54.6°C | 36.5% | 210.7hPa | 2.5V | 07:51:00 | 00:00:00 | 00:00:00 | |
| NBG1-10 | 2026-08-31 01:13:19 | 48.54794 | 13.00165 | 80° | 133km/h | 11895m | -3.9m/s | -54.6°C | 36.5% | 210.6hPa | 2.4V | 00:00:00 | 02:44:00 | 00:00:00 | |
| OE5MMP-10 | 2026-08-31 01:13:18 | 48.54788 | 13.00112 | 80° | 131km/h | 11898m | -3.7m/s | -54.6°C | 36.4% | 210.4hPa | 2.4V | 00:00:00 | 02:43:59 | 00:00:00 | |
| OE5DXL-15 | 2026-08-31 01:13:17 | 48.54781 | 13.00060 | 79° | 133km/h | 11902m | -3.8m/s | -54.7°C | 36.5% | 210.3hPa | 2.4V | 00:00:00 | 00:00:00 | 00:00:00 | |
| DL6DJ-15 | 2026-08-31 01:13:16 | 48.54774 | 13.00009 | 78° | 137km/h | 11906m | -3.9m/s | -54.7°C | 29.6% | 210.2hPa | 2.5V | 00:00:00 | 00:00:00 | 00:00:00 | |
| OE5WHR-10 | 2026-08-31 01:13:14 | 48.54760 | 12.99907 | 78° | 130km/h | 11914m | -3.8m/s | -54.8°C | 36.9% | 209.9hPa | 2.5V | 00:00:00 | 00:00:00 | 00:00:00 | |
| OE3JTB-15 | 2026-08-31 01:13:13 | 48.54753 | 12.99858 | 79° | 133km/h | 11918m | -3.8m/s | -54.8°C | 36.9% | 209.8hPa | 2.5V | 00:00:00 | 00:00:00 | 00:00:00 | |
| OE5REO-15 | 2026-08-31 01:13:12 | 48.54753 | 12.99858 | 79° | 130km/h | 11918m | -3.9m/s | -54.8°C | 29.8% | 209.8hPa | 2.4V | 07:52:00 | 00:00:00 | 00:00:00 | |
| PG1ADW-2 | 2026-08-31 01:13:11 | 48.54740 | 12.99763 | 80° | 131km/h | 11925m | -3.7m/s | -54.9°C | 37.0% | 209.6hPa | 2.4V | 07:51:00 | 00:00:00 | 00:00:00 | |
| OE5MMP-10 | 2026-08-31 01:13:08 | 48.54725 | 12.99625 | 83° | 124km/h | 11937m | -3.8m/s | -54.9°C | 36.9% | 209.2hPa | 2.4V | 00:00:00 | 02:43:49 | 00:00:00 | |
| DB0ND-19 | 2026-08-31 01:13:05 | 48.54717 | 12.99489 | 86° | 119km/h | 11948m | -3.9m/s | 0°C | -1.0% | -1.0hPa | 2.4V | 00:00:00 | 00:00:00 | 00:00:00 | |
| DO3MHA-11 | 2026-08-31 01:13:04 | 48.54715 | 12.99443 | 88° | 133km/h | 11952m | -3.9m/s | -55.0°C | 36.6% | 208.6hPa | 2.4V | 00:00:00 | 02:43:45 | 00:00:00 | |
| DG1MFX-10 | 2026-08-31 01:13:03 | 48.54714 | 12.99396 | 89° | 124km/h | 11957m | -4.0m/s | -55.1°C | 29.6% | 208.6hPa | 2.5V | 07:52:00 | 00:00:00 | 00:00:00 | |
| DF7PN | 2026-08-31 01:12:58 | 48.54712 | 12.99148 | 89° | 137km/h | 11976m | -3.9m/s | -55.2°C | 29.4% | 208.0hPa | 2.5V | 00:00:00 | 00:00:00 | 00:00:00 | |
| DF3TZ-5 | 2026-08-31 01:12:47 | 48.54678 | 12.98547 | 81° | 142km/h | 12018m | -3.8m/s | -55.5°C | -1.0% | -1.0hPa | 2.5V | 00:00:00 | 00:00:00 | 00:00:00 | |
| DL6DJ-15 | 2026-08-31 01:12:45 | 48.54667 | 12.98440 | 80° | 141km/h | 12026m | -3.8m/s | -55.5°C | 29.4% | 206.4hPa | 2.5V | 00:00:00 | 00:00:00 | 00:00:00 | |
| DO3MHA-11 | 2026-08-31 01:12:44 | 48.54662 | 12.98387 | 81° | 137km/h | 12030m | -3.8m/s | -55.5°C | 36.6% | 206.2hPa | 2.5V | 00:00:00 | 02:43:25 | 00:00:00 | |
| NBG1-10 | 2026-08-31 01:12:41 | 48.54643 | 12.98231 | 80° | 135km/h | 12041m | -4.0m/s | -55.6°C | 36.9% | 205.8hPa | 2.5V | 00:00:00 | 02:43:22 | 00:00:00 | |
| OE5MMP-10 | 2026-08-31 01:12:38 | 48.54625 | 12.98077 | 80° | 130km/h | 12053m | -3.8m/s | -55.7°C | 37.2% | 205.5hPa | 2.5V | 00:00:00 | 02:43:19 | 00:00:00 | |
| DO3MHA-11 | 2026-08-31 01:12:34 | 48.54598 | 12.97876 | 79° | 122km/h | 12068m | -3.8m/s | -55.8°C | 37.9% | 204.9hPa | 2.5V | 00:00:00 | 02:43:15 | 00:00:00 | |
| OE5WHR-10 | 2026-08-31 01:12:32 | 48.54585 | 12.97779 | 79° | 120km/h | 12076m | -3.8m/s | -55.8°C | 38.1% | 204.7hPa | 2.5V | 00:00:00 | 02:43:13 | 00:00:00 | |
| PG1ADW-2 | 2026-08-31 01:12:31 | 48.54579 | 12.97732 | 79° | 120km/h | 12080m | -4.0m/s | -55.8°C | 37.8% | 204.6hPa | 2.5V | 00:00:00 | 02:43:12 | 00:00:00 | |
| OE5DRO-10 | 2026-08-31 01:12:30 | 48.54573 | 12.97685 | 80° | 120km/h | 12084m | -3.9m/s | -55.8°C | 37.6% | 204.4hPa | 2.5V | 07:52:00 | 00:00:00 | 00:00:00 | |
| DF7PN | 2026-08-31 01:12:28 | 48.54558 | 12.97550 | 81° | 117km/h | 12096m | -4.1m/s | -55.9°C | 29.5% | 204.1hPa | 2.5V | 00:00:00 | 00:00:00 | 00:00:00 | |
| OE5REO-15 | 2026-08-31 01:12:26 | 48.54558 | 12.97550 | 82° | 117km/h | 12096m | -4.1m/s | -55.9°C | 29.5% | 204.1hPa | 2.5V | 07:52:00 | 00:00:00 | 00:00:00 | |
| DO3MHA-11 | 2026-08-31 01:12:24 | 48.54546 | 12.97419 | 84° | 117km/h | 12108m | -3.9m/s | -55.9°C | 36.1% | 203.6hPa | 2.5V | 00:00:00 | 02:43:05 | 00:00:00 | |
| OE5FHM-15 | 2026-08-31 01:12:22 | 48.54540 | 12.97332 | 86° | 128km/h | 12116m | -3.9m/s | -56.0°C | 35.6% | 203.4hPa | 2.5V | 00:00:00 | 02:43:03 | 00:00:00 | |
| DK5PH-5 | 2026-08-31 01:12:21 | 48.54538 | 12.97288 | 87° | 128km/h | 12120m | -3.9m/s | -56.0°C | 35.6% | 203.3hPa | 2.5V | 07:52:00 | 02:43:02 | 00:00:00 | |
| OE5MMP-10 | 2026-08-31 01:12:18 | 48.54534 | 12.97156 | 90° | 130km/h | 12132m | -3.8m/s | -56.1°C | 35.6% | 202.9hPa | 2.4V | 00:00:00 | 02:42:59 | 00:00:00 | |
| OE5DXL-15 | 2026-08-31 01:12:17 | 48.54534 | 12.97111 | 90° | 128km/h | 12135m | -3.7m/s | -56.1°C | 35.8% | 202.8hPa | 2.4V | 00:00:00 | 00:00:00 | 00:00:00 | |
| OE3JTB-15 | 2026-08-31 01:12:15 | 48.54534 | 12.97018 | 91° | 130km/h | 12143m | -3.7m/s | -56.2°C | 36.2% | 202.6hPa | 2.4V | 00:00:00 | 02:42:56 | 00:00:00 | |
| DO3MHA-11 | 2026-08-31 01:12:14 | 48.54535 | 12.96969 | 91° | 137km/h | 12147m | -3.8m/s | -56.2°C | 36.3% | 202.4hPa | 2.4V | 07:52:00 | 02:42:55 | 00:00:00 | |
| OE5WHR-10 | 2026-08-31 01:12:11 | 48.54534 | 12.96818 | 89° | 131km/h | 12158m | -4.0m/s | -56.2°C | 36.3% | 202.1hPa | 2.4V | 00:00:00 | 00:00:00 | 00:00:00 | |
| OE5REO-15 | 2026-08-31 01:12:10 | 48.54534 | 12.96818 | 90° | 135km/h | 12158m | -4.1m/s | -56.3°C | 28.9% | 202.1hPa | 2.4V | 07:52:00 | 00:00:00 | 00:00:00 | |
| OE5MMP-10 | 2026-08-31 01:12:08 | 48.54530 | 12.96661 | 86° | 137km/h | 12170m | -3.9m/s | -56.2°C | 36.2% | 201.7hPa | 2.4V | 07:52:00 | 02:42:49 | 00:00:00 | |
| DO3MHA-11 | 2026-08-31 01:12:04 | 48.54514 | 12.96449 | 82° | 131km/h | 12186m | -3.9m/s | -56.3°C | 35.9% | 201.2hPa | 2.4V | 00:00:00 | 02:42:45 | 00:00:00 | |
| DB0UT-7 | 2026-08-31 01:12:02 | 48.54503 | 12.96345 | 80° | 128km/h | 12194m | -3.8m/s | -56.3°C | 35.9% | 200.9hPa | 2.4V | 07:52:00 | 02:42:43 | 00:00:00 | |
| DF7PN | 2026-08-31 01:11:56 | 48.54461 | 12.96053 | 76° | 122km/h | 12218m | -4.2m/s | -56.5°C | 28.5% | 200.2hPa | 2.4V | 00:00:00 | 00:00:00 | 00:00:00 | |
| DO3MHA-11 | 2026-08-31 01:11:54 | 48.54447 | 12.95964 | 78° | 113km/h | 12226m | -3.9m/s | -56.5°C | 35.2% | 199.9hPa | 2.4V | 00:00:00 | 02:42:35 | 00:00:00 | |
| OE5FHM-15 | 2026-08-31 01:11:52 | 48.54436 | 12.95878 | 80° | 126km/h | 12234m | -3.8m/s | -56.5°C | 35.0% | 199.6hPa | 2.4V | 00:00:00 | 02:42:33 | 00:00:00 | |
| DK5PH-5 | 2026-08-31 01:11:51 | 48.54431 | 12.95835 | 81° | 126km/h | 12238m | -4.0m/s | -56.5°C | 34.9% | 199.5hPa | 2.5V | 00:00:00 | 02:42:32 | 00:00:00 | |
| OM5KV | 2026-08-31 01:11:50 | 48.54427 | 12.95793 | 83° | 111km/h | 12242m | -4.0m/s | -56.6°C | 27.7% | 199.5hPa | 2.5V | 07:52:00 | 00:00:00 | 00:00:00 | |
| OE5MMP-10 | 2026-08-31 01:11:48 | 48.54421 | 12.95709 | 86° | 120km/h | 12249m | -3.7m/s | -56.6°C | 34.9% | 199.2hPa | 2.5V | 00:00:00 | 02:42:29 | 00:00:00 | |
| OE5DXL-15 | 2026-08-31 01:11:47 | 48.54419 | 12.95666 | 87° | 128km/h | 12253m | -3.8m/s | -56.6°C | 34.9% | 199.0hPa | 2.4V | 00:00:00 | 00:00:00 | 00:00:00 | |
| OE3JTB-15 | 2026-08-31 01:11:46 | 48.54418 | 12.95623 | 89° | 128km/h | 12257m | -3.9m/s | -56.6°C | 35.0% | 198.9hPa | 2.4V | 07:52:00 | 00:00:00 | 00:00:00 | |
| DO3MHA-11 | 2026-08-31 01:11:44 | 48.54417 | 12.95533 | 90° | 130km/h | 12265m | -3.8m/s | -56.6°C | 35.0% | 198.7hPa | 2.4V | 00:00:00 | 02:42:25 | 00:00:00 | |
| DL6DJ-15 | 2026-08-31 01:11:43 | 48.54416 | 12.95487 | 89° | 120km/h | 12269m | -3.8m/s | -56.7°C | 27.7% | 198.6hPa | 2.4V | 00:00:00 | 00:00:00 | 00:00:00 | |
| OE5REO-15 | 2026-08-31 01:11:39 | 48.54415 | 12.95343 | 90° | 130km/h | 12280m | -3.9m/s | -56.8°C | 27.7% | 198.3hPa | 2.4V | 07:52:00 | 00:00:00 | 00:00:00 | |
| OE5MMP-10 | 2026-08-31 01:11:38 | 48.54413 | 12.95244 | 88° | 135km/h | 12288m | -3.9m/s | -56.8°C | 35.3% | 198.0hPa | 2.4V | 00:00:00 | 02:42:19 | 00:00:00 | |
| DO3MHA-11 | 2026-08-31 01:11:34 | 48.54403 | 12.95040 | 84° | 133km/h | 12303m | -3.7m/s | -56.9°C | 35.4% | 197.5hPa | 2.4V | 00:00:00 | 02:42:15 | 00:00:00 | |
| OE5DRO-10 | 2026-08-31 01:11:33 | 48.54399 | 12.94988 | 83° | 126km/h | 12306m | -3.6m/s | -57.0°C | 35.2% | 197.4hPa | 2.4V | 00:00:00 | 00:00:00 | 00:00:00 | |
| OM5KV | 2026-08-31 01:11:32 | 48.54399 | 12.94988 | 84° | 137km/h | 12306m | -3.7m/s | -57.0°C | 0% | 197.4hPa | 2.4V | 07:53:00 | 00:00:00 | 00:00:00 | |
| PG1ADW-2 | 2026-08-31 01:11:31 | 48.54390 | 12.94885 | 82° | 122km/h | 12314m | -4.1m/s | -57.0°C | 35.6% | 197.1hPa | 2.4V | 00:00:00 | 00:00:00 | 00:00:00 | |
| OM5KV | 2026-08-31 01:11:30 | 48.54390 | 12.94885 | 83° | 137km/h | 12314m | -4.1m/s | -57.1°C | 0% | 0hPa | 2.4V | 07:53:00 | 00:00:00 | 00:00:00 | |
| OE5WHR-10 | 2026-08-31 01:11:29 | 48.54379 | 12.94783 | 81° | 119km/h | 12322m | -3.9m/s | -57.1°C | 36.2% | 196.9hPa | 2.4V | 07:53:00 | 02:42:10 | 00:00:00 | |
| OE5MMP-10 | 2026-08-31 01:11:28 | 48.54373 | 12.94733 | 80° | 126km/h | 12326m | -3.9m/s | -57.1°C | 36.3% | 196.8hPa | 2.4V | 00:00:00 | 02:42:09 | 00:00:00 | |
| OM5KV | 2026-08-31 01:11:26 | 48.54367 | 12.94683 | 80° | 131km/h | 12330m | -4.1m/s | -57.2°C | 0% | 196.7hPa | 2.4V | 07:53:00 | 00:00:00 | 00:00:00 | |
| DF7PN | 2026-08-31 01:11:25 | 48.54346 | 12.94539 | 76° | 126km/h | 12342m | -4.1m/s | -57.3°C | 28.8% | 196.3hPa | 2.4V | 00:00:00 | 00:00:00 | 00:00:00 | |
| DO3MHA-11 | 2026-08-31 01:11:24 | 48.54345 | 12.94539 | 77° | 120km/h | 12343m | -4.1m/s | -57.2°C | 36.5% | 196.3hPa | 2.4V | 00:00:00 | 02:42:05 | 00:00:00 | |
| OE5REO-15 | 2026-08-31 01:11:23 | 48.54346 | 12.94539 | 78° | 126km/h | 12343m | -4.1m/s | -57.2°C | 28.8% | 196.4hPa | 2.4V | 07:53:00 | 00:00:00 | 00:00:00 | |
| OE5FHM-15 | 2026-08-31 01:11:22 | 48.54330 | 12.94447 | 77° | 119km/h | 12351m | -4.2m/s | -57.3°C | 36.1% | 196.0hPa | 2.4V | 07:53:00 | 02:42:03 | 00:00:00 | |
| DK5PH-5 | 2026-08-31 01:11:21 | 48.54323 | 12.94401 | 76° | 119km/h | 12355m | -4.0m/s | -57.3°C | 35.9% | 195.9hPa | 2.4V | 00:00:00 | 02:42:02 | 00:00:00 | |
| OE5MMP-10 | 2026-08-31 01:11:18 | 48.54301 | 12.94268 | 76° | 111km/h | 12368m | -4.3m/s | -57.4°C | 35.3% | 195.5hPa | 2.4V | 00:00:00 | 02:41:59 | 00:00:00 | |
| OE5DXL-15 | 2026-08-31 01:11:17 | 48.54293 | 12.94225 | 76° | 120km/h | 12372m | -4.0m/s | -57.4°C | 35.1% | 195.4hPa | 2.4V | 00:00:00 | 00:00:00 | 00:00:00 | |
| NBG1-10 | 2026-08-31 01:11:15 | 48.54279 | 12.94140 | 77° | 124km/h | 12380m | -3.9m/s | -57.4°C | 34.6% | 195.1hPa | 2.4V | 00:00:00 | 02:41:56 | 00:00:00 | |
| DO3MHA-11 | 2026-08-31 01:11:14 | 48.54273 | 12.94098 | 77° | 110km/h | 12384m | -4.0m/s | -57.4°C | 34.6% | 195.0hPa | 2.4V | 00:00:00 | 02:41:55 | 00:00:00 | |
| DL6DJ-15 | 2026-08-31 01:11:12 | 48.54255 | 12.93977 | 78° | 106km/h | 12396m | -4.0m/s | -57.5°C | 27.4% | 194.7hPa | 2.4V | 00:00:00 | 00:00:00 | 00:00:00 | |
| PG1ADW-2 | 2026-08-31 01:11:11 | 48.54255 | 12.93977 | 79° | 120km/h | 12396m | -3.9m/s | -57.5°C | 34.9% | 194.6hPa | 2.4V | 00:00:00 | 02:41:52 | 00:00:00 | |
| OE5MMP-10 | 2026-08-31 01:11:08 | 48.54242 | 12.93856 | 84° | 117km/h | 12408m | -3.9m/s | -57.6°C | 35.7% | 194.3hPa | 2.4V | 00:00:00 | 02:41:49 | 00:00:00 | |
| OM5KV | 2026-08-31 01:11:07 | 48.54242 | 12.93856 | 84° | 108km/h | 12408m | -3.9m/s | -57.6°C | 0% | 0hPa | 2.4V | 07:53:00 | 00:00:00 | 00:00:00 | |
| DO3MHA-11 | 2026-08-31 01:11:04 | 48.54233 | 12.93687 | 88° | 124km/h | 12424m | -4.0m/s | -57.7°C | 36.1% | 193.8hPa | 2.4V | 00:00:00 | 02:41:45 | 00:00:00 | |
| DF7PN | 2026-08-31 01:10:54 | 48.54208 | 12.93159 | 81° | 133km/h | 12469m | -3.9m/s | -57.8°C | 26.4% | 192.4hPa | 2.4V | 00:00:00 | 00:00:00 | 00:00:00 | |
| OE5FHM-15 | 2026-08-31 01:10:52 | 48.54203 | 12.93108 | 81° | 119km/h | 12473m | -3.9m/s | -57.7°C | 33.8% | 192.3hPa | 2.4V | 00:00:00 | 02:41:33 | 00:00:00 | |
| DK5PH-5 | 2026-08-31 01:10:51 | 48.54197 | 12.93058 | 81° | 117km/h | 12477m | -3.8m/s | -57.7°C | 33.8% | 192.2hPa | 2.4V | 00:00:00 | 02:41:32 | 00:00:00 | |
| DB0UT-7 | 2026-08-31 01:10:49 | 48.54184 | 12.92956 | 79° | 117km/h | 12484m | -3.8m/s | -57.7°C | 34.1% | 191.9hPa | 2.5V | 00:00:00 | 00:00:00 | 00:00:00 | |
| OE5MMP-10 | 2026-08-31 01:10:48 | 48.54178 | 12.92906 | 79° | 124km/h | 12488m | -3.8m/s | -57.7°C | 34.3% | 191.8hPa | 2.4V | 07:53:00 | 02:41:29 | 00:00:00 | |
| OE5WHR-10 | 2026-08-31 01:10:47 | 48.54171 | 12.92857 | 78° | 115km/h | 12492m | -3.8m/s | -57.7°C | 34.7% | 191.7hPa | 2.4V | 00:00:00 | 00:00:00 | 00:00:00 | |
| OE3JTB-15 | 2026-08-31 01:10:45 | 48.54156 | 12.92760 | 77° | 115km/h | 12500m | -3.6m/s | -57.8°C | 35.3% | 191.5hPa | 2.4V | 00:00:00 | 02:41:26 | 00:00:00 | |
| DO3MHA-11 | 2026-08-31 01:10:44 | 48.54149 | 12.92713 | 76° | 117km/h | 12503m | -3.5m/s | -57.9°C | 35.4% | 191.4hPa | 2.4V | 00:00:00 | 02:41:25 | 00:00:00 | |
| BAUMI2-15 | 2026-08-31 01:10:42 | 48.54133 | 12.92622 | 76° | 119km/h | 12511m | -3.9m/s | -57.9°C | 35.4% | 191.1hPa | 2.4V | 07:53:00 | 02:41:23 | 00:00:00 | |
| DL6DJ-15 | 2026-08-31 01:10:41 | 48.54117 | 12.92534 | 74° | 117km/h | 12518m | -4.4m/s | -57.9°C | 27.6% | 190.9hPa | 2.4V | 00:00:00 | 00:00:00 | 00:00:00 | |
| OE5MMP-10 | 2026-08-31 01:10:38 | 48.54102 | 12.92449 | 75° | 110km/h | 12527m | -4.0m/s | -57.9°C | 35.0% | 190.6hPa | 2.4V | 00:00:00 | 02:41:19 | 00:00:00 | |
| BAUMI2-15 | 2026-08-31 01:10:37 | 48.54094 | 12.92407 | 75° | 110km/h | 12531m | -4.3m/s | -57.9°C | 35.0% | 190.4hPa | 2.4V | 00:00:00 | 02:41:18 | 00:00:00 | |
| OE5DRO-10 | 2026-08-31 01:10:36 | 48.54087 | 12.92366 | 76° | 111km/h | 12536m | -4.4m/s | -57.9°C | 34.9% | 190.3hPa | 2.4V | 00:00:00 | 00:00:00 | 00:00:00 | |
| DO3MHA-11 | 2026-08-31 01:10:34 | 48.54073 | 12.92285 | 78° | 108km/h | 12544m | -4.2m/s | -58.0°C | 34.8% | 190.1hPa | 2.4V | 00:00:00 | 02:41:15 | 00:00:00 | |
| BAUMI2-15 | 2026-08-31 01:10:33 | 48.54063 | 12.92205 | 81° | 106km/h | 12552m | -3.9m/s | -58.0°C | 34.7% | 189.9hPa | 2.4V | 00:00:00 | 02:41:13 | 00:00:00 | |
| PG1ADW-2 | 2026-08-31 01:10:31 | 48.54059 | 12.92165 | 82° | 117km/h | 12556m | -3.9m/s | -58.0°C | 34.3% | 189.7hPa | 2.4V | 07:54:00 | 00:00:00 | 00:00:00 | |
| OE5MMP-10 | 2026-08-31 01:10:28 | 48.54050 | 12.92044 | 86° | 113km/h | 12568m | -4.0m/s | -57.8°C | 33.3% | 189.4hPa | 2.4V | 00:00:00 | 02:41:09 | 00:00:00 | |
| BAUMI2-15 | 2026-08-31 01:10:27 | 48.54048 | 12.92003 | 87° | 111km/h | 12572m | -4.1m/s | -57.8°C | 33.2% | 189.2hPa | 2.4V | 00:00:00 | 02:41:08 | 00:00:00 | |
| OE5WHR-10 | 2026-08-31 01:10:26 | 48.54047 | 12.91962 | 88° | 124km/h | 12576m | -4.0m/s | -57.8°C | 33.3% | 189.1hPa | 2.4V | 00:00:00 | 02:41:07 | 00:00:00 | |
| DO3MHA-11 | 2026-08-31 01:10:24 | 48.54045 | 12.91877 | 88° | 120km/h | 12584m | -4.0m/s | -57.8°C | 33.3% | 188.9hPa | 2.4V | 00:00:00 | 02:41:05 | 00:00:00 | |
| DF7PN | 2026-08-31 01:10:23 | 48.54043 | 12.91791 | 88° | 115km/h | 12592m | -4.1m/s | -57.9°C | 25.9% | 188.7hPa | 2.4V | 00:00:00 | 00:00:00 | 00:00:00 | |
| OE5FHM-15 | 2026-08-31 01:10:22 | 48.54043 | 12.91791 | 89° | 124km/h | 12593m | -4.1m/s | -57.9°C | 33.3% | 188.6hPa | 2.4V | 00:00:00 | 02:41:03 | 00:00:00 | |
| DK5PH-5 | 2026-08-31 01:10:21 | 48.54042 | 12.91746 | 89° | 124km/h | 12596m | -4.0m/s | -57.9°C | 33.4% | 188.5hPa | 2.5V | 00:00:00 | 02:41:02 | 00:00:00 | |
| DB0UT-7 | 2026-08-31 01:10:19 | 48.54040 | 12.91654 | 88° | 111km/h | 12605m | -4.1m/s | -58.0°C | 33.2% | 188.3hPa | 2.5V | 00:00:00 | 02:41:00 | 00:00:00 | |
| OE5MMP-10 | 2026-08-31 01:10:18 | 48.54039 | 12.91607 | 88° | 130km/h | 12609m | -4.0m/s | -57.9°C | 32.9% | 188.2hPa | 2.5V | 00:00:00 | 02:40:59 | 00:00:00 | |
| BAUMI2-15 | 2026-08-31 01:10:17 | 48.54038 | 12.91559 | 88° | 128km/h | 12613m | -4.1m/s | -57.9°C | 32.8% | 188.1hPa | 2.5V | 00:00:00 | 02:40:58 | 00:00:00 | |
| OE3JTB-15 | 2026-08-31 01:10:16 | 48.54036 | 12.91511 | 88° | 122km/h | 12617m | -4.2m/s | -58.0°C | 32.6% | 187.9hPa | 2.4V | 00:00:00 | 00:00:00 | 00:00:00 | |
| DO3MHA-11 | 2026-08-31 01:10:14 | 48.54032 | 12.91414 | 86° | 130km/h | 12625m | -4.1m/s | -58.0°C | 32.4% | 187.7hPa | 2.5V | 00:00:00 | 02:40:55 | 00:00:00 | |
| BAUMI2-15 | 2026-08-31 01:10:12 | 48.54027 | 12.91315 | 85° | 130km/h | 12633m | -3.9m/s | -58.0°C | 32.6% | 187.4hPa | 2.5V | 00:00:00 | 02:40:53 | 00:00:00 | |
| PG1ADW-2 | 2026-08-31 01:10:11 | 48.54023 | 12.91266 | 83° | 122km/h | 12637m | -3.9m/s | -58.1°C | 32.6% | 187.3hPa | 2.5V | 00:00:00 | 00:00:00 | 00:00:00 | |
| DL6DJ-15 | 2026-08-31 01:10:10 | 48.54014 | 12.91167 | 80° | 130km/h | 12645m | -4.2m/s | -58.1°C | 25.0% | 187.1hPa | 2.5V | 00:00:00 | 00:00:00 | 00:00:00 | |
| OE5MMP-10 | 2026-08-31 01:10:08 | 48.54008 | 12.91118 | 80° | 124km/h | 12650m | -4.0m/s | -58.1°C | 32.2% | 187.0hPa | 2.5V | 00:00:00 | 02:40:49 | 00:00:00 | |
| BAUMI2-15 | 2026-08-31 01:10:07 | 48.54002 | 12.91070 | 80° | 126km/h | 12654m | -4.0m/s | -58.1°C | 32.1% | 186.8hPa | 2.5V | 00:00:00 | 02:40:48 | 00:00:00 | |
| OE5WHR-10 | 2026-08-31 01:10:05 | 48.53989 | 12.90975 | 78° | 115km/h | 12662m | -4.0m/s | -58.2°C | 32.1% | 186.6hPa | 2.5V | 00:00:00 | 00:00:00 | 00:00:00 | |
| DO3MHA-11 | 2026-08-31 01:10:04 | 48.53982 | 12.90928 | 77° | 120km/h | 12666m | -3.9m/s | -58.2°C | 32.0% | 186.4hPa | 2.5V | 00:00:00 | 02:40:45 | 00:00:00 | |
| S52SK | 2026-08-31 01:10:03 | 48.53982 | 12.90928 | 78° | 126km/h | 12666m | -3.9m/s | -58.2°C | 0% | 0hPa | 2.4V | 07:54:00 | 00:00:00 | 00:00:00 | |
| BAUMI2-15 | 2026-08-31 01:10:02 | 48.53967 | 12.90836 | 77° | 122km/h | 12674m | -4.2m/s | -58.2°C | 32.2% | 186.2hPa | 2.4V | 07:54:00 | 02:40:43 | 00:00:00 | |
| DF7PN | 2026-08-31 01:09:52 | 48.53882 | 12.90361 | 73° | 110km/h | 12720m | -4.3m/s | -58.4°C | 22.6% | 184.9hPa | 2.5V | 00:00:00 | 00:00:00 | 00:00:00 | |
| PG1ADW-2 | 2026-08-31 01:09:51 | 48.53882 | 12.90361 | 74° | 104km/h | 12721m | -4.2m/s | -58.3°C | 29.7% | 184.9hPa | 2.5V | 00:00:00 | 02:40:32 | 00:00:00 | |
| OE5REO-15 | 2026-08-31 01:09:50 | 48.53881 | 12.90361 | 74° | 110km/h | 12721m | -4.3m/s | -58.4°C | 22.6% | 184.9hPa | 2.4V | 07:55:00 | 00:00:00 | 00:00:00 | |
| OE5MMP-10 | 2026-08-31 01:09:48 | 48.53858 | 12.90243 | 74° | 99km/h | 12733m | -4.1m/s | -58.3°C | 28.4% | 184.5hPa | 2.4V | 00:00:00 | 02:40:29 | 00:00:00 | |
| BAUMI2-15 | 2026-08-31 01:09:47 | 48.53851 | 12.90205 | 74° | 100km/h | 12738m | -4.2m/s | -58.3°C | 28.1% | 184.3hPa | 2.4V | 00:00:00 | 02:40:28 | 00:00:00 | |
| OE5WHR-10 | 2026-08-31 01:09:44 | 48.53830 | 12.90094 | 76° | 111km/h | 12750m | -4.3m/s | -58.3°C | 27.4% | 184.0hPa | 2.4V | 00:00:00 | 00:00:00 | 00:00:00 | |
| BAUMI2-15 | 2026-08-31 01:09:42 | 48.53818 | 12.90023 | 79° | 97km/h | 12759m | -4.3m/s | -58.3°C | 27.3% | 183.7hPa | 2.4V | 00:00:00 | 02:40:23 | 00:00:00 | |
| OE5DRO-10 | 2026-08-31 01:09:39 | 48.53807 | 12.89914 | 85° | 117km/h | 12772m | -3.9m/s | -58.4°C | 27.5% | 183.3hPa | 2.4V | 00:00:00 | 00:00:00 | 00:00:00 | |
| OE5MMP-10 | 2026-08-31 01:09:38 | 48.53805 | 12.89876 | 86° | 115km/h | 12776m | -3.8m/s | -58.4°C | 27.5% | 183.2hPa | 2.4V | 00:00:00 | 02:40:19 | 00:00:00 | |
| BAUMI2-15 | 2026-08-31 01:09:37 | 48.53803 | 12.89837 | 87° | 111km/h | 12780m | -4.1m/s | -58.4°C | 27.4% | 183.1hPa | 2.4V | 00:00:00 | 02:40:18 | 00:00:00 | |
| DG1MFX-10 | 2026-08-31 01:09:36 | 48.53803 | 12.89837 | 88° | 104km/h | 12780m | -4.2m/s | -58.5°C | 20.6% | 183.1hPa | 2.4V | 07:55:00 | 00:00:00 | 00:00:00 | |
| DO3MHA-11 | 2026-08-31 01:09:34 | 48.53799 | 12.89712 | 87° | 122km/h | 12792m | -4.1m/s | -58.5°C | 26.8% | 182.8hPa | 2.4V | 07:55:00 | 02:40:15 | 00:00:00 | |
| BAUMI2-15 | 2026-08-31 01:09:32 | 48.53795 | 12.89622 | 86° | 124km/h | 12801m | -4.4m/s | -58.5°C | 26.3% | 182.5hPa | 2.5V | 00:00:00 | 02:40:13 | 00:00:00 | |
| PG1ADW-2 | 2026-08-31 01:09:31 | 48.53792 | 12.89576 | 85° | 115km/h | 12806m | -4.5m/s | -58.6°C | 26.2% | 182.3hPa | 2.4V | 00:00:00 | 00:00:00 | 00:00:00 | |
| OE5MMP-10 | 2026-08-31 01:09:28 | 48.53781 | 12.89436 | 82° | 120km/h | 12819m | -4.4m/s | -58.7°C | 25.8% | 182.0hPa | 2.4V | 07:55:00 | 02:40:09 | 00:00:00 | |
| BAUMI2-15 | 2026-08-31 01:09:27 | 48.53776 | 12.89388 | 80° | 124km/h | 12823m | -4.2m/s | -58.7°C | 25.7% | 181.9hPa | 2.4V | 00:00:00 | 02:40:08 | 00:00:00 | |
| DO3MHA-11 | 2026-08-31 01:09:24 | 48.53756 | 12.89250 | 76° | 113km/h | 12836m | -4.1m/s | -58.6°C | 25.4% | 181.5hPa | 2.4V | 00:00:00 | 02:40:05 | 00:00:00 | |
| OE5WHR-10 | 2026-08-31 01:09:23 | 48.53747 | 12.89205 | 74° | 110km/h | 12840m | -4.1m/s | -58.6°C | 25.2% | 181.4hPa | 2.4V | 00:00:00 | 02:40:04 | 00:00:00 | |
| BAUMI2-15 | 2026-08-31 01:09:22 | 48.53739 | 12.89162 | 74° | 113km/h | 12844m | -4.2m/s | -58.6°C | 25.2% | 181.2hPa | 2.4V | 07:55:00 | 02:40:03 | 00:00:00 | |
| DK5PH-5 | 2026-08-31 01:09:21 | 48.53730 | 12.89119 | 73° | 115km/h | 12848m | -4.2m/s | -58.6°C | 25.2% | 181.1hPa | 2.4V | 00:00:00 | 02:40:02 | 00:00:00 | |
| OE5DRO-10 | 2026-08-31 01:09:20 | 48.53721 | 12.89077 | 73° | 108km/h | 12853m | -4.1m/s | -58.6°C | 25.2% | 181.0hPa | 2.5V | 00:00:00 | 00:00:00 | 00:00:00 | |
| OE5MMP-10 | 2026-08-31 01:09:18 | 48.53703 | 12.88996 | 72° | 102km/h | 12861m | -4.3m/s | -58.6°C | 25.2% | 180.8hPa | 2.5V | 00:00:00 | 02:39:59 | 00:00:00 | |
| OE5DXL-15 | 2026-08-31 01:09:17 | 48.53695 | 12.88957 | 73° | 117km/h | 12865m | -4.2m/s | -58.6°C | 25.1% | 180.7hPa | 2.4V | 00:00:00 | 00:00:00 | 00:00:00 | |
| OE5HKT-10 | 2026-08-31 01:09:16 | 48.53687 | 12.88919 | 74° | 113km/h | 12870m | -4.2m/s | -58.6°C | 25.0% | 180.5hPa | 2.4V | 00:00:00 | 02:39:57 | 00:00:00 | |
| DG1MFX-10 | 2026-08-31 01:09:15 | 48.53687 | 12.88919 | 74° | 104km/h | 12870m | -4.2m/s | -58.6°C | 18.5% | 180.5hPa | 2.4V | 07:55:00 | 00:00:00 | 00:00:00 | |
| DO3MHA-11 | 2026-08-31 01:09:14 | 48.53673 | 12.88844 | 76° | 104km/h | 12878m | -4.3m/s | -58.6°C | 25.0% | 180.2hPa | 2.4V | 00:00:00 | 02:39:55 | 00:00:00 | |
| BAUMI2-15 | 2026-08-31 01:09:12 | 48.53663 | 12.88771 | 80° | 102km/h | 12887m | -4.2m/s | -58.6°C | 24.9% | 180.0hPa | 2.4V | 00:00:00 | 02:39:53 | 00:00:00 | |
| PG1ADW-2 | 2026-08-31 01:09:11 | 48.53659 | 12.88734 | 82° | 120km/h | 12891m | -4.4m/s | -58.6°C | 24.9% | 179.9hPa | 2.4V | 00:00:00 | 00:00:00 | 00:00:00 | |
| OE5MMP-10 | 2026-08-31 01:09:08 | 48.53651 | 12.88618 | 87° | 120km/h | 12904m | -4.2m/s | -58.7°C | 24.9% | 179.6hPa | 2.4V | 00:00:00 | 02:39:49 | 00:00:00 | |
| DB0UT-7 | 2026-08-31 01:09:07 | 48.53650 | 12.88576 | 87° | 119km/h | 12908m | -4.4m/s | -58.7°C | 24.8% | 179.4hPa | 2.4V | 00:00:00 | 00:00:00 | 00:00:00 | |
| DO3MHA-11 | 2026-08-31 01:09:04 | 48.53645 | 12.88445 | 87° | 128km/h | 12921m | -4.2m/s | -58.8°C | 24.8% | 179.0hPa | 2.4V | 00:00:00 | 02:39:45 | 00:00:00 | |
| OE5REO-15 | 2026-08-31 01:09:03 | 48.53645 | 12.88445 | 87° | 120km/h | 12921m | -4.2m/s | -58.8°C | 18.3% | 179.1hPa | 2.4V | 07:56:00 | 00:00:00 | 00:00:00 | |
| BAUMI2-15 | 2026-08-31 01:09:02 | 48.53641 | 12.88352 | 86° | 128km/h | 12930m | -4.4m/s | -58.8°C | 24.7% | 178.8hPa | 2.4V | 00:00:00 | 02:39:43 | 00:00:00 | |
| DF7PN | 2026-08-31 01:08:49 | 48.53564 | 12.87731 | 74° | 122km/h | 12986m | -4.3m/s | -59.2°C | 18.8% | 177.2hPa | 2.4V | 00:00:00 | 00:00:00 | 00:00:00 | |
| OE5MMP-10 | 2026-08-31 01:08:48 | 48.53556 | 12.87686 | 75° | 111km/h | 12991m | -4.2m/s | -59.2°C | 25.6% | 177.1hPa | 2.4V | 00:00:00 | 02:39:29 | 00:00:00 | |
| OE5DXL-15 | 2026-08-31 01:08:47 | 48.53547 | 12.87643 | 75° | 115km/h | 12995m | -4.2m/s | -59.3°C | 25.6% | 177.0hPa | 2.5V | 00:00:00 | 00:00:00 | 00:00:00 | |
| DO3MHA-11 | 2026-08-31 01:08:44 | 48.53525 | 12.87517 | 76° | 106km/h | 13007m | -4.0m/s | -59.4°C | 25.8% | 176.6hPa | 2.5V | 00:00:00 | 02:39:25 | 00:00:00 | |
| OE5DRO-10 | 2026-08-31 01:08:42 | 48.53512 | 12.87436 | 77° | 106km/h | 13016m | -4.2m/s | -59.5°C | 25.9% | 176.3hPa | 2.5V | 00:00:00 | 00:00:00 | 00:00:00 | |
| OE5WHR-10 | 2026-08-31 01:08:41 | 48.53506 | 12.87396 | 77° | 113km/h | 13020m | -4.3m/s | -59.5°C | 26.0% | 176.2hPa | 2.5V | 07:55:00 | 00:00:00 | 00:00:00 | |
| OE5MMP-10 | 2026-08-31 01:08:38 | 48.53488 | 12.87279 | 79° | 106km/h | 13033m | -4.3m/s | -59.4°C | 25.6% | 175.9hPa | 2.5V | 00:00:00 | 02:39:19 | 00:00:00 | |
| DL6DJ-15 | 2026-08-31 01:08:37 | 48.53480 | 12.87201 | 81° | 102km/h | 13041m | -4.3m/s | -59.5°C | 18.6% | 175.7hPa | 2.5V | 00:00:00 | 00:00:00 | 00:00:00 | |
| DO3MHA-11 | 2026-08-31 01:08:34 | 48.53473 | 12.87123 | 85° | 113km/h | 13050m | -4.2m/s | -59.4°C | 24.9% | 175.3hPa | 2.5V | 00:00:00 | 02:39:15 | 00:00:00 | |
| DG1MFX-10 | 2026-08-31 01:08:33 | 48.53473 | 12.87123 | 86° | 104km/h | 13050m | -4.2m/s | -59.5°C | 18.3% | 175.4hPa | 2.4V | 07:56:00 | 00:00:00 | 00:00:00 | |
| OE5REO-15 | 2026-08-31 01:08:32 | 48.53471 | 12.87083 | 87° | 106km/h | 13055m | -4.4m/s | -59.5°C | 18.1% | 175.3hPa | 2.4V | 07:56:00 | 00:00:00 | 00:00:00 | |
| PG1ADW-2 | 2026-08-31 01:08:31 | 48.53469 | 12.87001 | 89° | 126km/h | 13063m | -4.3m/s | -59.4°C | 24.5% | 175.0hPa | 2.4V | 00:00:00 | 02:39:12 | 00:00:00 | |
| OE5MMP-10 | 2026-08-31 01:08:28 | 48.53467 | 12.86872 | 90° | 126km/h | 13076m | -4.2m/s | -59.5°C | 24.9% | 174.7hPa | 2.4V | 00:00:00 | 02:39:09 | 00:00:00 | |
| DB0ND-19 | 2026-08-31 01:08:26 | 48.53466 | 12.86780 | 88° | 122km/h | 13084m | -4.2m/s | -59.6°C | 18.4% | 174.5hPa | 2.4V | 00:00:00 | 00:00:00 | 00:00:00 | |
| DO3MHA-11 | 2026-08-31 01:08:24 | 48.53463 | 12.86685 | 87° | 130km/h | 13093m | -4.2m/s | -59.6°C | 25.4% | 174.2hPa | 2.4V | 00:00:00 | 02:39:05 | 00:00:00 | |
| OE5DRO-10 | 2026-08-31 01:08:23 | 48.53461 | 12.86637 | 86° | 126km/h | 13098m | -4.1m/s | -59.7°C | 25.3% | 174.1hPa | 2.4V | 00:00:00 | 00:00:00 | 00:00:00 | |
| OE5FHM-15 | 2026-08-31 01:08:22 | 48.53458 | 12.86588 | 85° | 119km/h | 13102m | -4.0m/s | -59.7°C | 25.4% | 174.0hPa | 2.4V | 00:00:00 | 02:39:03 | 00:00:00 | |
| DK5PH-5 | 2026-08-31 01:08:21 | 48.53455 | 12.86538 | 84° | 117km/h | 13106m | -4.1m/s | -59.7°C | 25.4% | 173.9hPa | 2.4V | 07:56:00 | 02:39:02 | 00:00:00 | |
| OE5WHR-10 | 2026-08-31 01:08:20 | 48.53451 | 12.86489 | 83° | 120km/h | 13110m | -4.0m/s | -59.8°C | 25.4% | 173.7hPa | 2.4V | 00:00:00 | 02:39:01 | 00:00:00 | |
| OE3JTB-15 | 2026-08-31 01:08:19 | 48.53446 | 12.86439 | 82° | 119km/h | 13114m | -4.2m/s | -59.7°C | 25.3% | 173.6hPa | 2.4V | 00:00:00 | 00:00:00 | 00:00:00 | |
| OE5MMP-10 | 2026-08-31 01:08:18 | 48.53441 | 12.86390 | 81° | 128km/h | 13118m | -4.3m/s | -59.7°C | 25.3% | 173.5hPa | 2.4V | 00:00:00 | 02:38:59 | 00:00:00 | |
| OE5DXL-15 | 2026-08-31 01:08:17 | 48.53436 | 12.86340 | 81° | 115km/h | 13123m | -4.2m/s | -59.8°C | 25.2% | 173.4hPa | 2.4V | 00:00:00 | 00:00:00 | 00:00:00 | |
| OE5REO-15 | 2026-08-31 01:08:16 | 48.53436 | 12.86340 | 81° | 131km/h | 13123m | -4.3m/s | -59.8°C | 18.4% | 173.4hPa | 2.4V | 07:56:00 | 00:00:00 | 00:00:00 | |
| S52SK | 2026-08-31 01:08:15 | 48.53430 | 12.86292 | 80° | 130km/h | 13127m | -4.3m/s | 0°C | 0% | 0hPa | 2.4V | 07:56:00 | 00:00:00 | 00:00:00 | |
| DO3MHA-11 | 2026-08-31 01:08:14 | 48.53417 | 12.86195 | 78° | 122km/h | 13136m | -4.2m/s | -59.8°C | 24.7% | 173.0hPa | 2.4V | 07:56:00 | 02:38:55 | 00:00:00 | |
| OE5HKT-10 | 2026-08-31 01:08:13 | 48.53410 | 12.86147 | 78° | 113km/h | 13140m | -4.3m/s | -59.8°C | 24.7% | 172.8hPa | 2.4V | 07:56:00 | 02:38:54 | 00:00:00 | |
| DG1MFX-10 | 2026-08-31 01:08:12 | 48.53410 | 12.86147 | 78° | 128km/h | 13140m | -4.3m/s | -59.9°C | 18.0% | 172.9hPa | 2.4V | 07:57:00 | 00:00:00 | 00:00:00 | |
| PG1ADW-2 | 2026-08-31 01:08:11 | 48.53395 | 12.86054 | 76° | 111km/h | 13149m | -4.2m/s | -59.9°C | 24.7% | 172.6hPa | 2.4V | 00:00:00 | 00:00:00 | 00:00:00 | |
| NBG1-10 | 2026-08-31 01:08:10 | 48.53387 | 12.86008 | 75° | 119km/h | 13153m | -4.3m/s | -59.9°C | 24.7% | 172.5hPa | 2.4V | 07:56:00 | 02:38:51 | 00:00:00 | |
| OE5MMP-10 | 2026-08-31 01:08:08 | 48.53371 | 12.85920 | 75° | 111km/h | 13162m | -4.3m/s | -60.0°C | 24.8% | 172.3hPa | 2.4V | 07:56:00 | 02:38:49 | 00:00:00 | |
| DL6DJ-15 | 2026-08-31 01:08:05 | 48.53347 | 12.85792 | 74° | 113km/h | 13175m | -4.3m/s | -60.1°C | 18.4% | 172.0hPa | 2.4V | 00:00:00 | 00:00:00 | 00:00:00 | |
| DO3MHA-11 | 2026-08-31 01:08:04 | 48.53339 | 12.85751 | 75° | 108km/h | 13180m | -4.3m/s | -60.1°C | 25.4% | 171.9hPa | 2.4V | 00:00:00 | 02:38:45 | 00:00:00 | |
| DB0ND-19 | 2026-08-31 01:07:55 | 48.53285 | 12.85393 | 81° | 104km/h | 13218m | -4.3m/s | -60.5°C | 18.5% | 170.8hPa | 2.4V | 00:00:00 | 00:00:00 | 00:00:00 | |
| DO3MHA-11 | 2026-08-31 01:07:54 | 48.53282 | 12.85354 | 83° | 113km/h | 13223m | -4.5m/s | -60.5°C | 25.4% | 170.7hPa | 2.4V | 00:00:00 | 02:38:35 | 00:00:00 | |
| OE5FHM-15 | 2026-08-31 01:07:52 | 48.53275 | 12.85273 | 85° | 124km/h | 13232m | -4.6m/s | -60.5°C | 25.3% | 170.4hPa | 2.4V | 00:00:00 | 02:38:33 | 00:00:00 | |
| PG1ADW-2 | 2026-08-31 01:07:51 | 48.53273 | 12.85232 | 85° | 128km/h | 13237m | -4.7m/s | -60.5°C | 25.4% | 170.2hPa | 2.4V | 07:56:00 | 00:00:00 | 00:00:00 | |
| OE3JTB-15 | 2026-08-31 01:07:50 | 48.53270 | 12.85191 | 86° | 124km/h | 13241m | -4.7m/s | -60.5°C | 25.2% | 170.1hPa | 2.5V | 07:56:00 | 02:38:31 | 00:00:00 | |
| OE5MMP-10 | 2026-08-31 01:07:48 | 48.53266 | 12.85104 | 87° | 128km/h | 13251m | -4.5m/s | -60.3°C | 24.8% | 169.9hPa | 2.5V | 00:00:00 | 02:38:29 | 00:00:00 | |
| OE5DXL-15 | 2026-08-31 01:07:47 | 48.53264 | 12.85059 | 86° | 124km/h | 13255m | -4.5m/s | -60.4°C | 24.7% | 169.8hPa | 2.4V | 00:00:00 | 00:00:00 | 00:00:00 | |
| OE5DRO-10 | 2026-08-31 01:07:45 | 48.53259 | 12.84966 | 86° | 130km/h | 13265m | -4.6m/s | -60.4°C | 24.7% | 169.5hPa | 2.4V | 00:00:00 | 00:00:00 | 00:00:00 | |
| DO3MHA-11 | 2026-08-31 01:07:44 | 48.53256 | 12.84918 | 85° | 133km/h | 13269m | -4.6m/s | -60.4°C | 24.6% | 169.4hPa | 2.4V | 00:00:00 | 02:38:25 | 00:00:00 | |
| DH7VM-15 | 2026-08-31 01:07:43 | 48.53256 | 12.84918 | 86° | 128km/h | 13269m | -4.6m/s | -60.5°C | 0% | 169.4hPa | 2.4V | 00:00:00 | 00:00:00 | 00:00:00 | |
| DO8TBO-1 | 2026-08-31 01:07:41 | 48.53245 | 12.84769 | 83° | 120km/h | 13283m | -4.7m/s | -60.4°C | 24.4% | 169.0hPa | 2.4V | 00:00:00 | 02:38:22 | 00:00:00 | |
| OE5WHR-10 | 2026-08-31 01:07:38 | 48.53231 | 12.84617 | 81° | 120km/h | 13298m | -4.8m/s | -60.5°C | 24.4% | 168.6hPa | 2.4V | 00:00:00 | 00:00:00 | 00:00:00 | |
| DO3MHA-11 | 2026-08-31 01:07:34 | 48.53204 | 12.84413 | 77° | 124km/h | 13317m | -4.6m/s | -60.6°C | 25.4% | 168.1hPa | 2.4V | 00:00:00 | 02:38:15 | 00:00:00 | |
| OE5HKT-10 | 2026-08-31 01:07:31 | 48.53178 | 12.84268 | 74° | 115km/h | 13331m | -4.5m/s | -60.7°C | 25.6% | 167.7hPa | 2.5V | 00:00:00 | 00:00:00 | 00:00:00 | |
| DG1MFX-10 | 2026-08-31 01:07:30 | 48.53178 | 12.84268 | 74° | 128km/h | 13331m | -4.6m/s | -60.8°C | 18.5% | 167.8hPa | 2.5V | 07:57:00 | 00:00:00 | 00:00:00 | |
| OE5MMP-10 | 2026-08-31 01:07:28 | 48.53149 | 12.84134 | 72° | 111km/h | 13345m | -5.0m/s | -60.8°C | 24.8% | 167.3hPa | 2.5V | 00:00:00 | 02:38:09 | 00:00:00 | |
| OE5DRO-10 | 2026-08-31 01:07:26 | 48.53130 | 12.84049 | 72° | 115km/h | 13355m | -4.9m/s | -60.9°C | 24.4% | 167.1hPa | 2.5V | 07:57:00 | 00:00:00 | 00:00:00 | |
| DB0UT-7 | 2026-08-31 01:07:25 | 48.53120 | 12.84008 | 72° | 120km/h | 13360m | -4.9m/s | -60.9°C | 24.1% | 167.0hPa | 2.5V | 00:00:00 | 00:00:00 | 00:00:00 | |
| DO3MHA-11 | 2026-08-31 01:07:24 | 48.53112 | 12.83968 | 73° | 110km/h | 13365m | -4.9m/s | -60.9°C | 23.8% | 166.8hPa | 2.5V | 00:00:00 | 02:38:05 | 00:00:00 | |
| OE5FHM-15 | 2026-08-31 01:07:22 | 48.53097 | 12.83890 | 77° | 122km/h | 13374m | -4.7m/s | -61.0°C | 23.4% | 166.6hPa | 2.5V | 07:57:00 | 02:38:03 | 00:00:00 | |
| DK5PH-5 | 2026-08-31 01:07:21 | 48.53092 | 12.83850 | 79° | 122km/h | 13378m | -4.3m/s | -60.9°C | 23.1% | 166.4hPa | 2.4V | 00:00:00 | 02:38:02 | 00:00:00 | |
| OE5MMP-10 | 2026-08-31 01:07:18 | 48.53080 | 12.83730 | 84° | 119km/h | 13391m | -4.5m/s | -61.0°C | 22.9% | 166.0hPa | 2.4V | 00:00:00 | 02:37:59 | 00:00:00 | |
| OE5WHR-10 | 2026-08-31 01:07:17 | 48.53077 | 12.83688 | 84° | 126km/h | 13395m | -4.1m/s | -61.0°C | 22.8% | 165.9hPa | 2.5V | 00:00:00 | 02:37:58 | 00:00:00 | |
| DF7PN | 2026-08-31 01:07:16 | 48.53074 | 12.83645 | 84° | 113km/h | 13399m | -4.5m/s | -61.0°C | 16.0% | 165.9hPa | 2.5V | 00:00:00 | 00:00:00 | 00:00:00 | |
| DO3MHA-11 | 2026-08-31 01:07:14 | 48.53069 | 12.83557 | 85° | 126km/h | 13408m | -4.6m/s | -61.0°C | 22.5% | 165.6hPa | 2.5V | 00:00:00 | 02:37:55 | 00:00:00 | |
| OE5REO-15 | 2026-08-31 01:07:13 | 48.53069 | 12.83557 | 85° | 119km/h | 13408m | -4.7m/s | -61.0°C | 15.8% | 165.7hPa | 2.5V | 07:58:00 | 00:00:00 | 00:00:00 | |
| PG1ADW-2 | 2026-08-31 01:07:11 | 48.53058 | 12.83419 | 83° | 126km/h | 13422m | -4.4m/s | -60.9°C | 21.9% | 165.3hPa | 2.5V | 00:00:00 | 02:37:52 | 00:00:00 | |
| OE5HKT-10 | 2026-08-31 01:07:10 | 48.53054 | 12.83372 | 82° | 126km/h | 13426m | -4.5m/s | -60.9°C | 21.9% | 165.1hPa | 2.5V | 00:00:00 | 02:37:51 | 00:00:00 | |
| DO8TBO-1 | 2026-08-31 01:07:09 | 48.53049 | 12.83325 | 81° | 110km/h | 13431m | -4.6m/s | -60.9°C | 21.8% | 165.0hPa | 2.5V | 07:57:00 | 02:37:50 | 00:00:00 | |
| OE5MMP-10 | 2026-08-31 01:07:08 | 48.53043 | 12.83277 | 80° | 130km/h | 13436m | -4.7m/s | -60.9°C | 21.8% | 164.9hPa | 2.4V | 00:00:00 | 02:37:49 | 00:00:00 | |
| OE5DRO-10 | 2026-08-31 01:07:07 | 48.53037 | 12.83229 | 79° | 124km/h | 13441m | -4.2m/s | -61.0°C | 21.7% | 164.8hPa | 2.4V | 00:00:00 | 00:00:00 | 00:00:00 | |
| DF3TZ-5 | 2026-08-31 01:07:06 | 48.53016 | 12.83085 | 75° | 130km/h | 13454m | -5.0m/s | -61.1°C | 14.5% | 164.4hPa | 2.5V | 00:00:00 | 00:00:00 | 00:00:00 | |
| DO3MHA-11 | 2026-08-31 01:07:04 | 48.53016 | 12.83085 | 76° | 128km/h | 13454m | -5.0m/s | -61.1°C | 21.0% | 164.4hPa | 2.5V | 00:00:00 | 02:37:45 | 00:00:00 | |
| DL6DJ-15 | 2026-08-31 01:07:03 | 48.53008 | 12.83037 | 74° | 130km/h | 13460m | -5.1m/s | -61.1°C | 14.3% | 164.3hPa | 2.4V | 00:00:00 | 00:00:00 | 00:00:00 | |
| DB0ND-19 | 2026-08-31 01:06:53 | 48.52864 | 12.82464 | 65° | 108km/h | 13528m | -4.8m/s | -61.2°C | 11.4% | 162.6hPa | 2.4V | 00:00:00 | 00:00:00 | 00:00:00 | |
| DF7PN | 2026-08-31 01:06:45 | 48.52813 | 12.82285 | 70° | 95km/h | 13553m | -4.4m/s | -61.2°C | 10.7% | 162.0hPa | 2.4V | 00:00:00 | 00:00:00 | 00:00:00 | |
| DO3MHA-11 | 2026-08-31 01:06:44 | 48.52805 | 12.82249 | 74° | 106km/h | 13557m | -4.2m/s | -61.1°C | 16.2% | 161.8hPa | 2.4V | 00:00:00 | 02:37:25 | 00:00:00 | |
| BAUMI2-15 | 2026-08-31 01:06:42 | 48.52793 | 12.82176 | 79° | 104km/h | 13565m | -4.4m/s | -61.0°C | 15.6% | 161.5hPa | 2.4V | 07:57:00 | 02:37:23 | 00:00:00 | |
| OE5REO-15 | 2026-08-31 01:06:41 | 48.52793 | 12.82176 | 79° | 102km/h | 13565m | -4.5m/s | -61.1°C | 9.9% | 161.6hPa | 2.4V | 07:58:00 | 00:00:00 | 00:00:00 | |
| OE5MMP-10 | 2026-08-31 01:06:38 | 48.52776 | 12.82019 | 82° | 120km/h | 13586m | -5.4m/s | -61.1°C | 14.3% | 161.0hPa | 2.4V | 00:00:00 | 02:37:19 | 00:00:00 | |
| BAUMI2-15 | 2026-08-31 01:06:37 | 48.52772 | 12.81978 | 83° | 115km/h | 13591m | -5.5m/s | -61.0°C | 14.0% | 160.9hPa | 2.4V | 00:00:00 | 02:37:18 | 00:00:00 | |
| DF3TZ-5 | 2026-08-31 01:06:35 | 48.52761 | 12.81849 | 83° | 117km/h | 13607m | -4.9m/s | -60.9°C | 7.8% | 160.4hPa | 2.4V | 00:00:00 | 00:00:00 | 00:00:00 | |
| DO3MHA-11 | 2026-08-31 01:06:34 | 48.52761 | 12.81849 | 84° | 126km/h | 13607m | -4.9m/s | -60.8°C | 13.0% | 160.4hPa | 2.4V | 00:00:00 | 02:37:15 | 00:00:00 | |
| BAUMI2-15 | 2026-08-31 01:06:32 | 48.52752 | 12.81756 | 80° | 130km/h | 13617m | -4.7m/s | -60.8°C | 12.7% | 160.2hPa | 2.5V | 00:00:00 | 02:37:13 | 00:00:00 | |
| PG1ADW-2 | 2026-08-31 01:06:31 | 48.52746 | 12.81708 | 78° | 111km/h | 13622m | -4.5m/s | -60.7°C | 12.5% | 160.0hPa | 2.4V | 00:00:00 | 00:00:00 | 00:00:00 | |
| OE5DRO-10 | 2026-08-31 01:06:29 | 48.52730 | 12.81612 | 74° | 110km/h | 13631m | -4.6m/s | -60.5°C | 12.4% | 159.8hPa | 2.4V | 00:00:00 | 00:00:00 | 00:00:00 | |
| OE5MMP-10 | 2026-08-31 01:06:28 | 48.52720 | 12.81564 | 73° | 115km/h | 13636m | -4.6m/s | -60.5°C | 12.3% | 159.7hPa | 2.4V | 00:00:00 | 02:37:09 | 00:00:00 | |
| BAUMI2-15 | 2026-08-31 01:06:27 | 48.52709 | 12.81517 | 71° | 122km/h | 13641m | -4.8m/s | -60.4°C | 12.1% | 159.6hPa | 2.4V | 00:00:00 | 02:37:08 | 00:00:00 | |
| NBG1-10 | 2026-08-31 01:06:25 | 48.52686 | 12.81428 | 68° | 104km/h | 13651m | -5.2m/s | -60.3°C | 12.1% | 159.3hPa | 2.4V | 00:00:00 | 02:37:06 | 00:00:00 | |
| DO3MHA-11 | 2026-08-31 01:06:24 | 48.52675 | 12.81386 | 67° | 102km/h | 13656m | -5.1m/s | -60.2°C | 11.9% | 159.2hPa | 2.4V | 00:00:00 | 02:37:05 | 00:00:00 | |
| OE3JTB-15 | 2026-08-31 01:06:23 | 48.52663 | 12.81345 | 68° | 106km/h | 13661m | -4.7m/s | -60.1°C | 11.7% | 159.1hPa | 2.4V | 00:00:00 | 02:37:04 | 00:00:00 | |
| OE5FHM-15 | 2026-08-31 01:06:22 | 48.52652 | 12.81305 | 68° | 111km/h | 13667m | -4.4m/s | -60.1°C | 11.5% | 159.0hPa | 2.4V | 00:00:00 | 02:37:03 | 00:00:00 | |
| DK5PH-5 | 2026-08-31 01:06:21 | 48.52642 | 12.81268 | 68° | 111km/h | 13671m | -5.4m/s | -60.0°C | 11.4% | 158.8hPa | 2.4V | 00:00:00 | 02:37:02 | 00:00:00 | |
| OE5MMP-10 | 2026-08-31 01:06:18 | 48.52615 | 12.81160 | 73° | 99km/h | 13688m | -4.8m/s | -59.7°C | 10.9% | 158.4hPa | 2.5V | 00:00:00 | 02:36:59 | 00:00:00 | |
| BAUMI2-15 | 2026-08-31 01:06:17 | 48.52608 | 12.81124 | 75° | 97km/h | 13693m | -5.3m/s | -59.7°C | 10.8% | 158.3hPa | 2.4V | 00:00:00 | 02:36:58 | 00:00:00 | |
| DO3MHA-11 | 2026-08-31 01:06:14 | 48.52593 | 12.81019 | 82° | 108km/h | 13708m | -4.0m/s | -59.7°C | 10.7% | 157.9hPa | 2.4V | 00:00:00 | 02:36:55 | 00:00:00 | |
| BAUMI2-15 | 2026-08-31 01:06:12 | 48.52587 | 12.80945 | 84° | 106km/h | 13716m | -4.7m/s | -59.8°C | 10.7% | 157.7hPa | 2.4V | 00:00:00 | 02:36:53 | 00:00:00 | |
| PG1ADW-2 | 2026-08-31 01:06:11 | 48.52584 | 12.80907 | 85° | 117km/h | 13721m | -4.7m/s | -59.8°C | 10.7% | 157.5hPa | 2.4V | 00:00:00 | 00:00:00 | 00:00:00 | |
| OE5DRO-10 | 2026-08-31 01:06:10 | 48.52582 | 12.80868 | 87° | 117km/h | 13725m | -4.5m/s | -59.7°C | 10.6% | 157.4hPa | 2.4V | 00:00:00 | 00:00:00 | 00:00:00 | |
| OE5REO-15 | 2026-08-31 01:06:09 | 48.52582 | 12.80868 | 87° | 106km/h | 13725m | -4.6m/s | -59.8°C | 6.0% | 157.4hPa | 2.4V | 07:58:00 | 00:00:00 | 00:00:00 | |
| OE5MMP-10 | 2026-08-31 01:06:08 | 48.52578 | 12.80784 | 85° | 120km/h | 13735m | -5.0m/s | -59.7°C | 10.4% | 157.1hPa | 2.4V | 00:00:00 | 02:36:49 | 00:00:00 | |
| BAUMI2-15 | 2026-08-31 01:06:07 | 48.52576 | 12.80741 | 86° | 120km/h | 13740m | -4.6m/s | -59.7°C | 10.4% | 157.0hPa | 2.4V | 00:00:00 | 02:36:48 | 00:00:00 | |
| DO3MHA-11 | 2026-08-31 01:06:04 | 48.52566 | 12.80606 | 82° | 124km/h | 13755m | -4.8m/s | -59.5°C | 10.2% | 156.6hPa | 2.4V | 00:00:00 | 02:36:45 | 00:00:00 | |
| DO8TBO-1 | 2026-08-31 01:06:03 | 48.52562 | 12.80560 | 82° | 120km/h | 13761m | -4.9m/s | -59.5°C | 10.2% | 156.5hPa | 2.4V | 00:00:00 | 02:36:44 | 00:00:00 | |
| BAUMI2-15 | 2026-08-31 01:06:02 | 48.52556 | 12.80513 | 81° | 126km/h | 13765m | -5.0m/s | -59.4°C | 10.1% | 156.4hPa | 2.4V | 07:58:00 | 02:36:43 | 00:00:00 | |
| DL6DJ-15 | 2026-08-31 01:06:01 | 48.52551 | 12.80466 | 78° | 126km/h | 13771m | -5.3m/s | -59.4°C | 5.6% | 156.3hPa | 2.5V | 00:00:00 | 00:00:00 | 00:00:00 | |
| OE5MMP-10 | 2026-08-31 01:05:58 | 48.52528 | 12.80327 | 75° | 111km/h | 13787m | -4.8m/s | -59.3°C | 9.8% | 155.9hPa | 2.5V | 00:00:00 | 02:36:39 | 00:00:00 | |
| OE5HKT-10 | 2026-08-31 01:05:57 | 48.52519 | 12.80281 | 73° | 69km/h | 13792m | -5.0m/s | -59.3°C | 9.9% | 155.8hPa | 2.5V | 00:00:00 | 02:36:38 | 00:00:00 | |
| DO3MHA-11 | 2026-08-31 01:05:54 | 48.52489 | 12.80153 | 69° | 100km/h | 13807m | -5.2m/s | -59.2°C | 9.6% | 155.4hPa | 2.5V | 00:00:00 | 02:36:35 | 00:00:00 | |
| OE5WHR-10 | 2026-08-31 01:05:53 | 48.52479 | 12.80113 | 70° | 104km/h | 13812m | -5.2m/s | -59.2°C | 9.6% | 155.3hPa | 2.5V | 07:58:00 | 00:00:00 | 00:00:00 | |
| OE5FHM-15 | 2026-08-31 01:05:52 | 48.52469 | 12.80074 | 70° | 108km/h | 13818m | -4.8m/s | -59.2°C | 9.6% | 155.1hPa | 2.4V | 00:00:00 | 02:36:33 | 00:00:00 | |
| DK5PH-5 | 2026-08-31 01:05:51 | 48.52459 | 12.80036 | 69° | 108km/h | 13823m | -5.1m/s | -59.3°C | 9.6% | 155.0hPa | 2.5V | 00:00:00 | 02:36:32 | 00:00:00 | |
| OE5MMP-10 | 2026-08-31 01:05:48 | 48.52434 | 12.79930 | 73° | 97km/h | 13838m | -5.3m/s | -59.4°C | 9.4% | 154.6hPa | 2.5V | 00:00:00 | 02:36:29 | 00:00:00 | |
| BAUMI2-15 | 2026-08-31 01:05:47 | 48.52428 | 12.79897 | 76° | 93km/h | 13843m | -5.0m/s | -59.4°C | 9.4% | 154.5hPa | 2.5V | 00:00:00 | 02:36:28 | 00:00:00 | |
| DO3MHA-11 | 2026-08-31 01:05:44 | 48.52417 | 12.79793 | 84° | 106km/h | 13857m | -4.5m/s | -59.5°C | 9.5% | 154.1hPa | 2.5V | 00:00:00 | 02:36:25 | 00:00:00 | |
| DF7PN | 2026-08-31 01:05:43 | 48.52414 | 12.79757 | 86° | 93km/h | 13862m | -4.7m/s | -59.6°C | 5.2% | 154.0hPa | 2.5V | 00:00:00 | 00:00:00 | 00:00:00 | |
| BAUMI2-15 | 2026-08-31 01:05:42 | 48.52413 | 12.79721 | 88° | 106km/h | 13867m | -4.2m/s | -59.6°C | 9.5% | 153.9hPa | 2.5V | 00:00:00 | 02:36:23 | 00:00:00 | |
| DB0UT-7 | 2026-08-31 01:05:41 | 48.52412 | 12.79682 | 89° | 106km/h | 13871m | -4.2m/s | -59.6°C | 9.5% | 153.8hPa | 2.5V | 00:00:00 | 00:00:00 | 00:00:00 | |
| OE5REO-15 | 2026-08-31 01:05:39 | 48.52412 | 12.79642 | 90° | 108km/h | 13875m | -4.9m/s | -59.7°C | 5.2% | 153.7hPa | 2.5V | 07:59:00 | 00:00:00 | 00:00:00 | |
| OE5MMP-10 | 2026-08-31 01:05:38 | 48.52410 | 12.79559 | 88° | 117km/h | 13885m | -4.2m/s | -59.7°C | 9.5% | 153.4hPa | 2.5V | 00:00:00 | 02:36:19 | 00:00:00 | |
| BAUMI2-15 | 2026-08-31 01:05:37 | 48.52409 | 12.79517 | 87° | 115km/h | 13889m | -4.4m/s | -59.8°C | 9.6% | 153.4hPa | 2.5V | 00:00:00 | 02:36:18 | 00:00:00 | |
| OE3JTB-15 | 2026-08-31 01:05:35 | 48.52405 | 12.79429 | 86° | 102km/h | 13898m | -4.4m/s | -59.8°C | 9.7% | 153.1hPa | 2.5V | 00:00:00 | 00:00:00 | 00:00:00 | |
| DO3MHA-11 | 2026-08-31 01:05:34 | 48.52403 | 12.79385 | 86° | 117km/h | 13903m | -4.2m/s | -59.8°C | 9.5% | 153.0hPa | 2.5V | 07:59:00 | 02:36:15 | 00:00:00 | |
| DF3TZ-5 | 2026-08-31 01:05:33 | 48.52396 | 12.79296 | 82° | 117km/h | 13911m | -4.5m/s | -59.8°C | 5.1% | 152.8hPa | 2.4V | 00:00:00 | 00:00:00 | 00:00:00 | |
| BAUMI2-15 | 2026-08-31 01:05:32 | 48.52396 | 12.79295 | 83° | 119km/h | 13911m | -4.5m/s | -59.8°C | 9.5% | 152.8hPa | 2.4V | 00:00:00 | 02:36:13 | 00:00:00 | |
| PG1ADW-2 | 2026-08-31 01:05:31 | 48.52392 | 12.79251 | 83° | 102km/h | 13916m | -4.2m/s | -59.8°C | 9.5% | 152.7hPa | 2.4V | 00:00:00 | 00:00:00 | 00:00:00 | |
| DL6DJ-15 | 2026-08-31 01:05:30 | 48.52388 | 12.79206 | 80° | 117km/h | 13920m | -4.3m/s | -59.8°C | 5.1% | 152.7hPa | 2.4V | 00:00:00 | 00:00:00 | 00:00:00 | |
| OE5MMP-10 | 2026-08-31 01:05:28 | 48.52377 | 12.79116 | 79° | 108km/h | 13928m | -4.5m/s | -59.7°C | 9.3% | 152.3hPa | 2.4V | 07:59:00 | 02:36:09 | 00:00:00 | |
| BAUMI2-15 | 2026-08-31 01:05:27 | 48.52371 | 12.79073 | 77° | 113km/h | 13933m | -4.8m/s | -59.7°C | 9.3% | 152.3hPa | 2.4V | 00:00:00 | 02:36:08 | 00:00:00 | |
| DO3MHA-11 | 2026-08-31 01:05:24 | 48.52350 | 12.78946 | 75° | 97km/h | 13947m | -4.6m/s | -59.7°C | 9.2% | 151.9hPa | 2.4V | 00:00:00 | 02:36:05 | 00:00:00 | |
| BAUMI2-15 | 2026-08-31 01:05:22 | 48.52335 | 12.78868 | 74° | 97km/h | 13956m | -4.8m/s | -59.7°C | 9.2% | 151.7hPa | 2.4V | 07:59:00 | 02:36:03 | 00:00:00 | |
| DK5PH-5 | 2026-08-31 01:05:21 | 48.52328 | 12.78831 | 76° | 99km/h | 13961m | -4.4m/s | -59.7°C | 9.2% | 151.6hPa | 2.4V | 00:00:00 | 02:36:02 | 00:00:00 | |
| DB0ND-19 | 2026-08-31 01:05:20 | 48.52310 | 12.78725 | 76° | 91km/h | 13974m | -4.7m/s | -59.8°C | 4.8% | 151.3hPa | 2.4V | 00:00:00 | 00:00:00 | 00:00:00 | |
| OE5MMP-10 | 2026-08-31 01:05:18 | 48.52310 | 12.78725 | 77° | 89km/h | 13974m | -4.6m/s | -59.7°C | 9.1% | 151.3hPa | 2.4V | 00:00:00 | 02:35:59 | 00:00:00 | |
| BAUMI2-15 | 2026-08-31 01:05:17 | 48.52305 | 12.78691 | 78° | 89km/h | 13979m | -4.6m/s | -59.7°C | 9.2% | 151.1hPa | 2.4V | 00:00:00 | 02:35:58 | 00:00:00 | |
| S52SK | 2026-08-31 01:05:16 | 48.52305 | 12.78691 | 79° | 91km/h | 13979m | -4.7m/s | 0°C | 0% | 0hPa | 2.5V | 00:00:00 | 00:00:00 | 00:00:00 | |
| DO3MHA-11 | 2026-08-31 01:05:14 | 48.52292 | 12.78590 | 82° | 91km/h | 13992m | -4.4m/s | -59.4°C | 8.8% | 150.8hPa | 2.5V | 00:00:00 | 02:35:55 | 00:00:00 | |
| BAUMI2-15 | 2026-08-31 01:05:12 | 48.52287 | 12.78523 | 86° | 89km/h | 14001m | -4.7m/s | -59.4°C | 8.7% | 150.6hPa | 2.5V | 00:00:00 | 02:35:53 | 00:00:00 | |
| DB0UT-7 | 2026-08-31 01:05:11 | 48.52286 | 12.78490 | 87° | 82km/h | 14006m | -4.6m/s | -59.4°C | 8.6% | 150.5hPa | 2.5V | 07:59:00 | 02:35:52 | 00:00:00 | |
| OE5MMP-10 | 2026-08-31 01:05:08 | 48.52284 | 12.78387 | 91° | 102km/h | 14020m | -4.6m/s | -59.4°C | 8.5% | 150.1hPa | 2.5V | 00:00:00 | 02:35:49 | 00:00:00 | |
| BAUMI2-15 | 2026-08-31 01:05:07 | 48.52285 | 12.78352 | 93° | 100km/h | 14024m | -4.8m/s | -59.5°C | 8.5% | 149.9hPa | 2.5V | 00:00:00 | 02:35:48 | 00:00:00 | |
| OE3JTB-15 | 2026-08-31 01:05:06 | 48.52286 | 12.78315 | 94° | 89km/h | 14029m | -4.7m/s | -59.5°C | 8.5% | 149.9hPa | 2.5V | 00:00:00 | 00:00:00 | 00:00:00 | |
| DO3MHA-11 | 2026-08-31 01:05:04 | 48.52289 | 12.78239 | 94° | 108km/h | 14038m | -4.6m/s | -59.5°C | 8.6% | 149.6hPa | 2.5V | 00:00:00 | 02:35:45 | 00:00:00 | |
| DO8TBO-1 | 2026-08-31 01:05:03 | 48.52291 | 12.78199 | 94° | 97km/h | 14043m | -4.7m/s | -59.5°C | 8.6% | 149.5hPa | 2.4V | 00:00:00 | 02:35:44 | 00:00:00 | |
| BAUMI2-15 | 2026-08-31 01:05:02 | 48.52292 | 12.78160 | 93° | 108km/h | 14048m | -4.6m/s | -59.5°C | 8.6% | 149.4hPa | 2.4V | 00:00:00 | 02:35:43 | 00:00:00 | |
| DG1MFX-10 | 2026-08-31 01:05:01 | 48.52292 | 12.78160 | 94° | 106km/h | 14048m | -4.6m/s | -59.6°C | 4.5% | 149.5hPa | 2.4V | 07:59:00 | 00:00:00 | 00:00:00 | |
| DL6DJ-15 | 2026-08-31 01:04:59 | 48.52295 | 12.77994 | 89° | 110km/h | 14065m | -4.3m/s | -59.5°C | 4.4% | 149.0hPa | 2.4V | 00:00:00 | 00:00:00 | 00:00:00 | |
| DB0ND-19 | 2026-08-31 01:04:49 | 48.52271 | 12.77623 | 79° | 102km/h | 14106m | -4.8m/s | -59.3°C | 4.3% | 148.1hPa | 2.4V | 00:00:00 | 00:00:00 | 00:00:00 | |
| OE5MMP-10 | 2026-08-31 01:04:48 | 48.52266 | 12.77585 | 79° | 89km/h | 14111m | -4.9m/s | -59.2°C | 8.5% | 147.9hPa | 2.4V | 00:00:00 | 02:35:29 | 00:00:00 | |
| BAUMI2-15 | 2026-08-31 01:04:47 | 48.52261 | 12.77547 | 79° | 93km/h | 14116m | -4.9m/s | -58.9°C | 8.4% | 147.8hPa | 2.4V | 00:00:00 | 02:35:28 | 00:00:00 | |
| DO3MHA-11 | 2026-08-31 01:04:44 | 48.52245 | 12.77441 | 78° | 78km/h | 14131m | -5.0m/s | -58.6°C | 8.0% | 147.4hPa | 2.4V | 00:00:00 | 02:35:25 | 00:00:00 | |
| DF7PN | 2026-08-31 01:04:41 | 48.52231 | 12.77345 | 78° | 80km/h | 14145m | -4.9m/s | -58.6°C | 4.1% | 147.1hPa | 2.4V | 00:00:00 | 00:00:00 | 00:00:00 | |
| DG1MFX-10 | 2026-08-31 01:04:40 | 48.52231 | 12.77345 | 79° | 82km/h | 14145m | -4.9m/s | -58.6°C | 4.1% | 147.1hPa | 2.4V | 08:00:00 | 00:00:00 | 00:00:00 | |
| OE5MMP-10 | 2026-08-31 01:04:38 | 48.52221 | 12.77258 | 83° | 71km/h | 14160m | -4.8m/s | -58.6°C | 7.9% | 146.8hPa | 2.4V | 00:00:00 | 02:35:19 | 00:00:00 | |
| OE5REO-15 | 2026-08-31 01:04:36 | 48.52219 | 12.77230 | 85° | 71km/h | 14166m | -5.2m/s | -58.7°C | 4.0% | 146.7hPa | 2.4V | 08:00:00 | 00:00:00 | 00:00:00 | |
| DO3MHA-11 | 2026-08-31 01:04:34 | 48.52216 | 12.77152 | 90° | 78km/h | 14181m | -5.4m/s | -58.8°C | 7.8% | 146.3hPa | 2.4V | 00:00:00 | 02:35:15 | 00:00:00 | |
| DO8TBO-1 | 2026-08-31 01:04:33 | 48.52216 | 12.77126 | 92° | 84km/h | 14187m | -5.2m/s | -58.8°C | 7.8% | 146.1hPa | 2.4V | 00:00:00 | 02:35:14 | 00:00:00 | |
| PG1ADW-2 | 2026-08-31 01:04:31 | 48.52218 | 12.77074 | 97° | 88km/h | 14198m | -5.1m/s | -58.9°C | 7.8% | 145.8hPa | 2.4V | 00:00:00 | 02:35:12 | 00:00:00 | |
| OE5WHR-10 | 2026-08-31 01:04:29 | 48.52223 | 12.77018 | 99° | 88km/h | 14207m | -4.7m/s | -58.9°C | 7.9% | 145.7hPa | 2.4V | 00:00:00 | 00:00:00 | 00:00:00 | |
| DO3MHA-11 | 2026-08-31 01:04:24 | 48.52235 | 12.76849 | 92° | 93km/h | 14230m | -4.6m/s | -58.9°C | 7.9% | 145.2hPa | 2.4V | 00:00:00 | 02:35:05 | 00:00:00 | |
| OE5FHM-15 | 2026-08-31 01:04:21 | 48.52232 | 12.76738 | 85° | 77km/h | 14245m | -4.7m/s | -58.7°C | 7.7% | 144.8hPa | 2.4V | 00:00:00 | 02:35:02 | 00:00:00 | |
| DG1MFX-10 | 2026-08-31 01:04:20 | 48.52233 | 12.76738 | 86° | 97km/h | 14245m | -4.7m/s | -58.7°C | 3.9% | 144.9hPa | 2.4V | 08:00:00 | 00:00:00 | 00:00:00 | |
| OE5MMP-10 | 2026-08-31 01:04:18 | 48.52223 | 12.76631 | 81° | 84km/h | 14259m | -4.7m/s | -58.5°C | 7.5% | 144.5hPa | 2.4V | 08:00:00 | 02:34:59 | 00:00:00 | |
| OE5DRO-10 | 2026-08-31 01:04:17 | 48.52219 | 12.76597 | 80° | 78km/h | 14263m | -4.5m/s | -58.5°C | 7.5% | 144.4hPa | 2.4V | 00:00:00 | 00:00:00 | 00:00:00 | |
| DO3MHA-11 | 2026-08-31 01:04:14 | 48.52206 | 12.76501 | 77° | 78km/h | 14278m | -4.6m/s | -58.5°C | 7.5% | 144.1hPa | 2.4V | 00:00:00 | 02:34:55 | 00:00:00 | |
| PG1ADW-2 | 2026-08-31 01:04:11 | 48.52191 | 12.76411 | 76° | 71km/h | 14291m | -4.5m/s | -58.6°C | 7.5% | 143.8hPa | 2.4V | 00:00:00 | 00:00:00 | 00:00:00 | |
| DF7PN | 2026-08-31 01:04:10 | 48.52181 | 12.76353 | 75° | 77km/h | 14301m | -4.7m/s | -58.7°C | 3.7% | 143.6hPa | 2.4V | 00:00:00 | 00:00:00 | 00:00:00 | |
| OE5WHR-10 | 2026-08-31 01:04:08 | 48.52176 | 12.76324 | 76° | 66km/h | 14305m | -4.6m/s | -58.7°C | 7.6% | 143.4hPa | 2.4V | 00:00:00 | 02:34:49 | 00:00:00 | |
| NBG1-10 | 2026-08-31 01:04:06 | 48.52166 | 12.76267 | 76° | 71km/h | 14315m | -4.8m/s | -58.6°C | 7.5% | 143.2hPa | 2.4V | 00:00:00 | 02:34:47 | 00:00:00 | |
| OE5REO-15 | 2026-08-31 01:04:05 | 48.52166 | 12.76267 | 76° | 77km/h | 14315m | -4.8m/s | -58.7°C | 3.7% | 143.3hPa | 2.4V | 08:00:00 | 00:00:00 | 00:00:00 | |
| DO3MHA-11 | 2026-08-31 01:04:04 | 48.52156 | 12.76211 | 75° | 69km/h | 14324m | -4.5m/s | -58.5°C | 7.5% | 143.0hPa | 2.4V | 08:00:00 | 02:34:45 | 00:00:00 | |
| DO8TBO-1 | 2026-08-31 01:04:03 | 48.52151 | 12.76184 | 75° | 69km/h | 14329m | -4.7m/s | -58.5°C | 7.5% | 142.9hPa | 2.4V | 08:00:00 | 02:34:44 | 00:00:00 | |
| DL6DJ-15 | 2026-08-31 01:03:57 | 48.52123 | 12.76004 | 79° | 62km/h | 14361m | -4.7m/s | -58.5°C | 3.7% | 142.2hPa | 2.5V | 00:00:00 | 00:00:00 | 00:00:00 | |
| DO3MHA-11 | 2026-08-31 01:03:54 | 48.52118 | 12.75957 | 82° | 57km/h | 14370m | -4.5m/s | -58.3°C | 7.4% | 141.9hPa | 2.5V | 00:00:00 | 02:34:35 | 00:00:00 | |
| OE5FHM-15 | 2026-08-31 01:03:51 | 48.52113 | 12.75892 | 86° | 69km/h | 14385m | -5.0m/s | -58.3°C | 7.2% | 141.6hPa | 2.5V | 00:00:00 | 02:34:32 | 00:00:00 | |
| OE5REO-15 | 2026-08-31 01:03:50 | 48.52113 | 12.75892 | 86° | 55km/h | 14385m | -5.1m/s | -58.4°C | 3.5% | 141.7hPa | 2.5V | 08:01:00 | 00:00:00 | 00:00:00 | |
| OE5MMP-10 | 2026-08-31 01:03:48 | 48.52112 | 12.75830 | 93° | 68km/h | 14401m | -5.1m/s | -58.4°C | 7.1% | 141.2hPa | 2.5V | 00:00:00 | 02:34:29 | 00:00:00 | |
| OE5WHR-10 | 2026-08-31 01:03:47 | 48.52112 | 12.75809 | 96° | 75km/h | 14406m | -5.1m/s | -58.4°C | 7.1% | 141.1hPa | 2.4V | 08:00:00 | 00:00:00 | 00:00:00 | |
| DO3MHA-11 | 2026-08-31 01:03:44 | 48.52120 | 12.75742 | 103° | 78km/h | 14420m | -4.6m/s | -58.4°C | 7.1% | 140.8hPa | 2.4V | 00:00:00 | 02:34:25 | 00:00:00 | |
| DF7PN | 2026-08-31 01:03:39 | 48.52139 | 12.75570 | 92° | 84km/h | 14447m | -4.3m/s | -58.5°C | 3.5% | 140.3hPa | 2.4V | 00:00:00 | 00:00:00 | 00:00:00 | |
| OE5MMP-10 | 2026-08-31 01:03:38 | 48.52139 | 12.75569 | 93° | 80km/h | 14447m | -4.3m/s | -58.5°C | 7.4% | 140.2hPa | 2.4V | 00:00:00 | 02:34:19 | 00:00:00 | |
| OE5REO-15 | 2026-08-31 01:03:35 | 48.52139 | 12.75505 | 88° | 86km/h | 14456m | -4.6m/s | -58.5°C | 3.5% | 140.1hPa | 2.4V | 08:01:00 | 00:00:00 | 00:00:00 | |
| DO3MHA-11 | 2026-08-31 01:03:34 | 48.52135 | 12.75441 | 83° | 73km/h | 14465m | -4.7m/s | -58.5°C | 7.3% | 139.8hPa | 2.4V | 00:00:00 | 02:34:15 | 00:00:00 | |
| DO8TBO-1 | 2026-08-31 01:03:33 | 48.52132 | 12.75411 | 81° | 62km/h | 14470m | -4.9m/s | -58.5°C | 7.2% | 139.7hPa | 2.5V | 00:00:00 | 02:34:14 | 00:00:00 | |
| NBG1-10 | 2026-08-31 01:03:31 | 48.52124 | 12.75352 | 77° | 71km/h | 14480m | -4.9m/s | -58.5°C | 7.1% | 139.5hPa | 2.5V | 00:00:00 | 02:34:12 | 00:00:00 | |
| DB0UT-7 | 2026-08-31 01:03:30 | 48.52119 | 12.75325 | 76° | 75km/h | 14485m | -4.8m/s | -58.4°C | 7.1% | 139.4hPa | 2.5V | 00:00:00 | 02:34:11 | 00:00:00 | |
| OE5MMP-10 | 2026-08-31 01:03:28 | 48.52110 | 12.75273 | 73° | 58km/h | 14495m | -4.8m/s | -58.4°C | 7.0% | 139.1hPa | 2.6V | 00:00:00 | 02:34:09 | 00:00:00 | |
| DL6DJ-15 | 2026-08-31 01:03:26 | 48.52094 | 12.75203 | 71° | 60km/h | 14509m | -4.8m/s | -58.5°C | 3.2% | 138.9hPa | 2.6V | 00:00:00 | 00:00:00 | 00:00:00 | |
| DO3MHA-11 | 2026-08-31 01:03:24 | 48.52089 | 12.75181 | 72° | 53km/h | 14514m | -4.6m/s | -58.5°C | 6.9% | 138.7hPa | 2.6V | 00:00:00 | 02:34:05 | 00:00:00 | |
| OE5FHM-15 | 2026-08-31 01:03:21 | 48.52076 | 12.75119 | 72° | 66km/h | 14529m | -4.8m/s | -58.5°C | 6.9% | 138.4hPa | 2.6V | 00:00:00 | 02:34:02 | 00:00:00 | |
| OE5DRO-10 | 2026-08-31 01:03:19 | 48.52068 | 12.75080 | 75° | 62km/h | 14538m | -5.0m/s | -58.6°C | 6.9% | 138.2hPa | 2.6V | 00:00:00 | 00:00:00 | 00:00:00 | |
| OE5MMP-10 | 2026-08-31 01:03:18 | 48.52065 | 12.75062 | 76° | 55km/h | 14543m | -4.9m/s | -58.6°C | 7.0% | 138.1hPa | 2.6V | 00:00:00 | 02:33:59 | 00:00:00 | |
| OE5DXL-15 | 2026-08-31 01:03:17 | 48.52062 | 12.75044 | 79° | 68km/h | 14548m | -4.9m/s | -58.6°C | 7.0% | 138.0hPa | 2.4V | 00:00:00 | 00:00:00 | 00:00:00 | |
| DB0ND-19 | 2026-08-31 01:03:16 | 48.52058 | 12.75008 | 84° | 47km/h | 14558m | -5.1m/s | -58.8°C | 3.3% | 137.8hPa | 2.4V | 00:00:00 | 00:00:00 | 00:00:00 | |
| DO3MHA-11 | 2026-08-31 01:03:14 | 48.52057 | 12.74990 | 89° | 64km/h | 14563m | -4.8m/s | -58.8°C | 7.2% | 137.7hPa | 2.4V | 00:00:00 | 02:33:55 | 00:00:00 | |
| OE5HKT-10 | 2026-08-31 01:03:13 | 48.52057 | 12.74970 | 92° | 71km/h | 14568m | -4.9m/s | -58.8°C | 7.2% | 137.5hPa | 2.4V | 08:01:00 | 00:00:00 | 00:00:00 | |
| PG1ADW-2 | 2026-08-31 01:03:11 | 48.52058 | 12.74928 | 94° | 71km/h | 14578m | -4.9m/s | -58.9°C | 7.1% | 137.3hPa | 2.4V | 00:00:00 | 02:33:52 | 00:00:00 | |
| DF7PN | 2026-08-31 01:03:08 | 48.52061 | 12.74828 | 90° | 71km/h | 14597m | -4.7m/s | -59.0°C | 3.3% | 137.0hPa | 2.4V | 00:00:00 | 00:00:00 | 00:00:00 | |
| OE5WHR-10 | 2026-08-31 01:03:05 | 48.52061 | 12.74773 | 89° | 77km/h | 14607m | -4.7m/s | -59.1°C | 7.1% | 136.7hPa | 2.4V | 00:00:00 | 02:33:46 | 00:00:00 | |
| DO3MHA-11 | 2026-08-31 01:03:04 | 48.52060 | 12.74745 | 88° | 75km/h | 14612m | -4.7m/s | -59.1°C | 7.1% | 136.6hPa | 2.4V | 00:00:00 | 02:33:45 | 00:00:00 | |
| DO8TBO-1 | 2026-08-31 01:03:03 | 48.52059 | 12.74716 | 87° | 77km/h | 14616m | -4.8m/s | -59.1°C | 7.1% | 136.5hPa | 2.6V | 00:00:00 | 02:33:44 | 00:00:00 | |
| DL6DJ-15 | 2026-08-31 01:02:55 | 48.52045 | 12.74464 | 84° | 73km/h | 14660m | -5.0m/s | -59.1°C | 3.2% | 135.6hPa | 2.6V | 00:00:00 | 00:00:00 | 00:00:00 | |
| DB0ND-19 | 2026-08-31 01:02:45 | 48.52020 | 12.74166 | 78° | 86km/h | 14711m | -5.4m/s | -59.0°C | 3.2% | 134.5hPa | 2.6V | 00:00:00 | 00:00:00 | 00:00:00 | |
| DO3MHA-11 | 2026-08-31 01:02:44 | 48.52020 | 12.74166 | 79° | 88km/h | 14711m | -5.4m/s | -58.9°C | 7.0% | 134.4hPa | 2.6V | 00:00:00 | 02:33:25 | 00:00:00 | |
| BAUMI2-15 | 2026-08-31 01:02:42 | 48.52010 | 12.74101 | 74° | 88km/h | 14721m | -5.0m/s | -58.9°C | 6.9% | 134.2hPa | 2.6V | 00:00:00 | 02:33:23 | 00:00:00 | |
| OE5DRO-10 | 2026-08-31 01:02:41 | 48.52003 | 12.74069 | 72° | 69km/h | 14726m | -4.9m/s | -59.0°C | 6.9% | 134.1hPa | 2.6V | 00:00:00 | 00:00:00 | 00:00:00 | |
| OE5MMP-10 | 2026-08-31 01:02:38 | 48.51977 | 12.73976 | 65° | 78km/h | 14741m | -5.0m/s | -58.7°C | 6.7% | 133.8hPa | 2.6V | 00:00:00 | 02:33:19 | 00:00:00 | |
| DF7PN | 2026-08-31 01:02:37 | 48.51957 | 12.73918 | 60° | 82km/h | 14751m | -5.1m/s | -58.7°C | 3.0% | 133.6hPa | 2.6V | 00:00:00 | 00:00:00 | 00:00:00 | |
| DO3MHA-11 | 2026-08-31 01:02:34 | 48.51936 | 12.73864 | 59° | 71km/h | 14761m | -4.8m/s | -58.7°C | 6.7% | 133.3hPa | 2.6V | 08:02:00 | 02:33:15 | 00:00:00 | |
| DO8TBO-1 | 2026-08-31 01:02:33 | 48.51926 | 12.73838 | 58° | 78km/h | 14766m | -4.9m/s | -58.7°C | 6.7% | 133.2hPa | 2.4V | 00:00:00 | 02:33:14 | 00:00:00 | |
| BAUMI2-15 | 2026-08-31 01:02:32 | 48.51915 | 12.73813 | 58° | 73km/h | 14771m | -4.8m/s | -58.7°C | 6.8% | 133.1hPa | 2.4V | 00:00:00 | 02:33:13 | 00:00:00 | |
| OE5HKT-10 | 2026-08-31 01:02:31 | 48.51905 | 12.73789 | 58° | 86km/h | 14775m | -4.8m/s | -58.7°C | 6.8% | 133.0hPa | 2.4V | 00:00:00 | 02:33:12 | 00:00:00 | |
| OE5MMP-10 | 2026-08-31 01:02:28 | 48.51876 | 12.73720 | 60° | 64km/h | 14790m | -4.8m/s | -58.7°C | 6.9% | 132.7hPa | 2.4V | 00:00:00 | 02:33:09 | 00:00:00 | |
| BAUMI2-15 | 2026-08-31 01:02:27 | 48.51868 | 12.73698 | 61° | 62km/h | 14795m | -4.7m/s | -58.7°C | 6.9% | 132.6hPa | 2.4V | 00:00:00 | 02:33:08 | 00:00:00 | |
| DL6DJ-15 | 2026-08-31 01:02:24 | 48.51842 | 12.73611 | 71° | 60km/h | 14814m | -5.0m/s | -58.8°C | 3.2% | 132.3hPa | 2.4V | 00:00:00 | 00:00:00 | 00:00:00 | |
| OE5WHR-10 | 2026-08-31 01:02:23 | 48.51842 | 12.73611 | 72° | 82km/h | 14814m | -4.9m/s | -58.7°C | 7.0% | 132.2hPa | 2.4V | 00:00:00 | 00:00:00 | 00:00:00 | |
| BAUMI2-15 | 2026-08-31 01:02:22 | 48.51837 | 12.73588 | 75° | 66km/h | 14819m | -4.9m/s | -58.7°C | 7.1% | 132.1hPa | 2.4V | 00:00:00 | 02:33:03 | 00:00:00 | |
| OE5FHM-15 | 2026-08-31 01:02:21 | 48.51833 | 12.73566 | 77° | 84km/h | 14824m | -4.9m/s | -58.5°C | 7.0% | 132.0hPa | 2.4V | 00:00:00 | 02:33:02 | 00:00:00 | |
| NBG1-10 | 2026-08-31 01:02:20 | 48.51830 | 12.73542 | 79° | 84km/h | 14829m | -5.2m/s | -58.4°C | 6.9% | 131.9hPa | 2.4V | 08:02:00 | 02:33:01 | 00:00:00 | |
| OE5MMP-10 | 2026-08-31 01:02:18 | 48.51824 | 12.73491 | 82° | 82km/h | 14839m | -5.1m/s | -58.5°C | 6.9% | 131.7hPa | 2.4V | 00:00:00 | 02:32:59 | 00:00:00 | |
| BAUMI2-15 | 2026-08-31 01:02:17 | 48.51821 | 12.73464 | 83° | 78km/h | 14844m | -5.2m/s | -58.5°C | 7.0% | 131.6hPa | 2.6V | 00:00:00 | 02:32:58 | 00:00:00 | |
| OE5REO-15 | 2026-08-31 01:02:16 | 48.51821 | 12.73464 | 83° | 73km/h | 14844m | -5.3m/s | -58.6°C | 3.1% | 131.6hPa | 2.6V | 08:03:00 | 00:00:00 | 00:00:00 | |
| DO3MHA-11 | 2026-08-31 01:02:14 | 48.51814 | 12.73377 | 83° | 91km/h | 14860m | -5.2m/s | -58.6°C | 6.9% | 131.2hPa | 2.6V | 00:00:00 | 02:32:55 | 00:00:00 | |
| BAUMI2-15 | 2026-08-31 01:02:12 | 48.51807 | 12.73312 | 81° | 91km/h | 14869m | -4.8m/s | -58.6°C | 6.9% | 131.0hPa | 2.6V | 00:00:00 | 02:32:53 | 00:00:00 | |
| PG1ADW-2 | 2026-08-31 01:02:11 | 48.51804 | 12.73279 | 80° | 88km/h | 14874m | -4.9m/s | -58.7°C | 7.0% | 130.9hPa | 2.6V | 00:00:00 | 00:00:00 | 00:00:00 | |
| OE5MMP-10 | 2026-08-31 01:02:08 | 48.51789 | 12.73176 | 76° | 91km/h | 14889m | -4.8m/s | -58.7°C | 7.1% | 130.6hPa | 2.6V | 00:00:00 | 02:32:49 | 00:00:00 | |
| BAUMI2-15 | 2026-08-31 01:02:07 | 48.51783 | 12.73141 | 74° | 95km/h | 14894m | -4.6m/s | -58.6°C | 7.1% | 130.5hPa | 2.6V | 00:00:00 | 02:32:48 | 00:00:00 | |
| OE5HKT-10 | 2026-08-31 01:02:05 | 48.51768 | 12.73072 | 70° | 88km/h | 14904m | -4.8m/s | -58.5°C | 7.1% | 130.3hPa | 2.6V | 00:00:00 | 00:00:00 | 00:00:00 | |
| DO3MHA-11 | 2026-08-31 01:02:04 | 48.51759 | 12.73038 | 68° | 86km/h | 14908m | -4.9m/s | -58.4°C | 6.9% | 130.3hPa | 2.5V | 00:00:00 | 02:32:45 | 00:00:00 | |
| OE5DRO-10 | 2026-08-31 01:02:03 | 48.51750 | 12.73006 | 66° | 80km/h | 14913m | -5.1m/s | -58.3°C | 6.9% | 130.1hPa | 2.4V | 00:00:00 | 00:00:00 | 00:00:00 | |
| OE5WHR-10 | 2026-08-31 01:02:02 | 48.51740 | 12.72974 | 65° | 80km/h | 14918m | -5.2m/s | -58.2°C | 6.7% | 130.0hPa | 2.4V | 00:00:00 | 02:32:43 | 00:00:00 | |
| DF3TZ-5 | 2026-08-31 01:01:56 | 48.51667 | 12.72779 | 58° | 77km/h | 14953m | -4.7m/s | -57.9°C | 2.7% | 129.3hPa | 2.4V | 00:00:00 | 00:00:00 | 00:00:00 | |
| DO3MHA-11 | 2026-08-31 01:01:54 | 48.51657 | 12.72753 | 59° | 77km/h | 14958m | -5.0m/s | -57.7°C | 6.2% | 129.2hPa | 2.4V | 00:00:00 | 02:32:35 | 00:00:00 | |
| BAUMI2-15 | 2026-08-31 01:01:52 | 48.51637 | 12.72704 | 60° | 77km/h | 14968m | -4.7m/s | -57.5°C | 6.0% | 129.0hPa | 2.4V | 00:00:00 | 02:32:33 | 00:00:00 | |
| OE5FHM-15 | 2026-08-31 01:01:51 | 48.51627 | 12.72679 | 61° | 71km/h | 14973m | -4.6m/s | -57.5°C | 6.0% | 128.9hPa | 2.4V | 00:00:00 | 02:32:32 | 00:00:00 | |
| OE5MMP-10 | 2026-08-31 01:01:48 | 48.51598 | 12.72602 | 60° | 78km/h | 14987m | -5.0m/s | -57.6°C | 6.1% | 128.6hPa | 2.4V | 00:00:00 | 02:32:29 | 00:00:00 | |
| OE5DXL-15 | 2026-08-31 01:01:47 | 48.51588 | 12.72576 | 61° | 69km/h | 14992m | -4.9m/s | -57.6°C | 6.0% | 128.5hPa | 2.4V | 00:00:00 | 00:00:00 | 00:00:00 | |
| DO3MHA-11 | 2026-08-31 01:01:44 | 48.51559 | 12.72497 | 62° | 78km/h | 15006m | -5.1m/s | -57.6°C | 6.2% | 128.2hPa | 2.4V | 00:00:00 | 02:32:25 | 00:00:00 | |
| DB0ND-19 | 2026-08-31 01:01:43 | 48.51541 | 12.72443 | 63° | 78km/h | 15016m | -5.0m/s | -57.7°C | 2.7% | 128.1hPa | 2.4V | 00:00:00 | 00:00:00 | 00:00:00 | |
| NBG1-10 | 2026-08-31 01:01:42 | 48.51540 | 12.72443 | 64° | 66km/h | 15016m | -4.9m/s | -57.6°C | 6.3% | 128.0hPa | 2.4V | 00:00:00 | 02:32:23 | 00:00:00 | |
| OE5WHR-10 | 2026-08-31 01:01:41 | 48.51531 | 12.72417 | 63° | 68km/h | 15021m | -5.1m/s | -57.6°C | 6.3% | 127.9hPa | 2.4V | 00:00:00 | 00:00:00 | 00:00:00 | |
| BAUMI2-15 | 2026-08-31 01:01:37 | 48.51496 | 12.72311 | 66° | 77km/h | 15041m | -4.8m/s | -57.3°C | 6.2% | 127.5hPa | 2.6V | 00:00:00 | 02:32:18 | 00:00:00 | |
| DG1MFX-10 | 2026-08-31 01:01:35 | 48.51487 | 12.72285 | 65° | 77km/h | 15046m | -5.1m/s | -57.3°C | 2.7% | 127.5hPa | 2.6V | 08:03:00 | 00:00:00 | 00:00:00 | |
| DO3MHA-11 | 2026-08-31 01:01:34 | 48.51471 | 12.72232 | 65° | 68km/h | 15056m | -4.9m/s | -57.3°C | 6.2% | 127.3hPa | 2.6V | 00:00:00 | 02:32:15 | 00:00:00 | |
| BAUMI2-15 | 2026-08-31 01:01:32 | 48.51453 | 12.72180 | 62° | 71km/h | 15065m | -4.9m/s | -57.3°C | 6.2% | 127.0hPa | 2.4V | 00:00:00 | 02:32:13 | 00:00:00 | |
| PG1ADW-2 | 2026-08-31 01:01:31 | 48.51444 | 12.72155 | 60° | 64km/h | 15071m | -5.6m/s | -57.4°C | 6.2% | 126.9hPa | 2.6V | 00:00:00 | 00:00:00 | 00:00:00 | |
| OE5MMP-10 | 2026-08-31 01:01:28 | 48.51417 | 12.72087 | 60° | 57km/h | 15087m | -5.7m/s | -57.5°C | 6.3% | 126.6hPa | 2.6V | 00:00:00 | 02:32:09 | 00:00:00 | |
| BAUMI2-15 | 2026-08-31 01:01:27 | 48.51409 | 12.72066 | 61° | 53km/h | 15093m | -5.8m/s | -57.5°C | 6.2% | 126.4hPa | 2.6V | 00:00:00 | 02:32:08 | 00:00:00 | |
| OE5DRO-10 | 2026-08-31 01:01:25 | 48.51396 | 12.72029 | 69° | 68km/h | 15105m | -5.7m/s | -57.5°C | 6.3% | 126.3hPa | 2.6V | 00:00:00 | 00:00:00 | 00:00:00 | |
| DO3MHA-11 | 2026-08-31 01:01:24 | 48.51392 | 12.72010 | 75° | 60km/h | 15111m | -5.2m/s | -57.6°C | 6.4% | 126.1hPa | 2.6V | 00:00:00 | 02:32:05 | 00:00:00 | |
| OE5HKT-10 | 2026-08-31 01:01:23 | 48.51388 | 12.71990 | 80° | 68km/h | 15117m | -5.2m/s | -57.6°C | 6.5% | 126.0hPa | 2.6V | 00:00:00 | 02:32:04 | 00:00:00 | |
| OE5FHM-15 | 2026-08-31 01:01:21 | 48.51387 | 12.71951 | 91° | 69km/h | 15127m | -4.7m/s | -57.5°C | 6.5% | 125.8hPa | 2.6V | 00:00:00 | 02:32:02 | 00:00:00 | |
| OE5WHR-10 | 2026-08-31 01:01:20 | 48.51387 | 12.71930 | 90° | 69km/h | 15131m | -5.0m/s | -57.4°C | 6.5% | 125.7hPa | 2.4V | 00:00:00 | 00:00:00 | 00:00:00 | |
| OE5MMP-10 | 2026-08-31 01:01:18 | 48.51387 | 12.71882 | 91° | 71km/h | 15142m | -4.9m/s | -57.4°C | 6.6% | 125.5hPa | 2.4V | 08:03:00 | 02:31:59 | 00:00:00 | |
| OE5DXL-15 | 2026-08-31 01:01:17 | 48.51387 | 12.71857 | 91° | 71km/h | 15146m | -4.8m/s | -57.4°C | 6.6% | 125.4hPa | 2.4V | 00:00:00 | 00:00:00 | 00:00:00 | |
| DO3MHA-11 | 2026-08-31 01:01:14 | 48.51384 | 12.71776 | 86° | 71km/h | 15161m | -5.0m/s | -57.5°C | 6.8% | 125.2hPa | 2.6V | 00:00:00 | 02:31:55 | 00:00:00 | |
| DB0ND-19 | 2026-08-31 01:01:12 | 48.51377 | 12.71693 | 81° | 73km/h | 15176m | -4.9m/s | -57.3°C | 3.0% | 124.9hPa | 2.6V | 00:00:00 | 00:00:00 | 00:00:00 | |
| PG1ADW-2 | 2026-08-31 01:01:11 | 48.51377 | 12.71693 | 82° | 71km/h | 15177m | -4.8m/s | -57.3°C | 6.7% | 124.9hPa | 2.6V | 00:00:00 | 00:00:00 | 00:00:00 | |
| OE5MMP-10 | 2026-08-31 01:01:08 | 48.51368 | 12.71611 | 81° | 69km/h | 15191m | -4.6m/s | -57.0°C | 6.6% | 124.6hPa | 2.6V | 00:00:00 | 02:31:49 | 00:00:00 | |
| BAUMI2-15 | 2026-08-31 01:01:07 | 48.51365 | 12.71584 | 81° | 69km/h | 15196m | -4.9m/s | -57.0°C | 6.6% | 124.5hPa | 2.6V | 00:00:00 | 02:31:48 | 00:00:00 | |
| DO3MHA-11 | 2026-08-31 01:01:04 | 48.51357 | 12.71507 | 81° | 71km/h | 15211m | -5.0m/s | -56.9°C | 6.5% | 124.2hPa | 2.6V | 08:03:00 | 02:31:45 | 00:00:00 | |
| DF7PN | 2026-08-31 01:01:03 | 48.51354 | 12.71481 | 81° | 68km/h | 15216m | -5.1m/s | -56.9°C | 2.9% | 124.1hPa | 2.4V | 00:00:00 | 00:00:00 | 00:00:00 | |
| OE5HKT-10 | 2026-08-31 01:01:02 | 48.51352 | 12.71456 | 81° | 68km/h | 15221m | -5.3m/s | -56.9°C | 6.5% | 124.0hPa | 2.4V | 00:00:00 | 00:00:00 | 00:00:00 | |
| DL6DJ-15 | 2026-08-31 01:00:50 | 48.51300 | 12.71147 | 65° | 66km/h | 15286m | -5.3m/s | -56.5°C | 2.7% | 122.8hPa | 2.4V | 00:00:00 | 00:00:00 | 00:00:00 | |
| OE5MMP-10 | 2026-08-31 01:00:48 | 48.51284 | 12.71103 | 60° | 58km/h | 15297m | -5.4m/s | -56.4°C | 6.1% | 122.5hPa | 2.4V | 00:00:00 | 02:31:29 | 00:00:00 | |
| OE5DXL-15 | 2026-08-31 01:00:47 | 48.51275 | 12.71081 | 60° | 51km/h | 15302m | -5.5m/s | -56.5°C | 6.0% | 122.4hPa | 2.6V | 00:00:00 | 00:00:00 | 00:00:00 | |
| DO3MHA-11 | 2026-08-31 01:00:44 | 48.51249 | 12.71022 | 54° | 49km/h | 15318m | -5.6m/s | -56.5°C | 5.9% | 122.1hPa | 2.6V | 00:00:00 | 02:31:25 | 00:00:00 | |
| OE5REO-15 | 2026-08-31 01:00:42 | 48.51231 | 12.70986 | 54° | 55km/h | 15329m | -5.8m/s | -56.6°C | 2.6% | 122.0hPa | 2.6V | 08:04:00 | 00:00:00 | 00:00:00 | |
| DB0ND-19 | 2026-08-31 01:00:41 | 48.51214 | 12.70955 | 51° | 49km/h | 15341m | -5.2m/s | -56.7°C | 2.6% | 121.7hPa | 2.6V | 00:00:00 | 00:00:00 | 00:00:00 | |
| OE5MMP-10 | 2026-08-31 01:00:38 | 48.51198 | 12.70926 | 52° | 42km/h | 15352m | -5.3m/s | -56.7°C | 6.1% | 121.5hPa | 2.6V | 00:00:00 | 02:31:19 | 00:00:00 | |
| DB0NH | 2026-08-31 01:00:35 | 48.51178 | 12.70884 | 61° | 60km/h | 15369m | -5.0m/s | 0°C | 0% | 0hPa | 2.6V | 00:00:00 | 02:31:16 | 00:00:00 | |
| DO3MHA-11 | 2026-08-31 01:00:34 | 48.51173 | 12.70870 | 64° | 44km/h | 15375m | -5.0m/s | -56.8°C | 6.1% | 121.0hPa | 2.6V | 00:00:00 | 02:31:15 | 00:00:00 | |
| DG1MFX-10 | 2026-08-31 01:00:33 | 48.51173 | 12.70870 | 65° | 42km/h | 15375m | -5.1m/s | -56.8°C | 2.7% | 121.1hPa | 2.4V | 08:04:00 | 00:00:00 | 00:00:00 | |
| DF7PN | 2026-08-31 01:00:32 | 48.51164 | 12.70841 | 70° | 38km/h | 15385m | -5.2m/s | -56.9°C | 2.7% | 120.9hPa | 2.4V | 00:00:00 | 00:00:00 | 00:00:00 | |
| PG1ADW-2 | 2026-08-31 01:00:31 | 48.51160 | 12.70826 | 71° | 55km/h | 15391m | -5.3m/s | -56.9°C | 6.1% | 120.8hPa | 2.4V | 00:00:00 | 02:31:12 | 00:00:00 | |
| DH7VM-15 | 2026-08-31 01:00:30 | 48.51160 | 12.70826 | 72° | 44km/h | 15391m | -5.3m/s | 0°C | 0% | 120.8hPa | 2.4V | 00:00:00 | 00:00:00 | 00:00:00 | |
| OE5MMP-10 | 2026-08-31 01:00:28 | 48.51151 | 12.70778 | 78° | 51km/h | 15406m | -5.0m/s | -57.0°C | 6.1% | 120.5hPa | 2.4V | 00:00:00 | 02:31:09 | 00:00:00 | |
| NBG1-10 | 2026-08-31 01:00:26 | 48.51146 | 12.70745 | 80° | 69km/h | 15416m | -4.9m/s | -57.0°C | 6.1% | 120.3hPa | 2.4V | 00:00:00 | 02:31:07 | 00:00:00 | |
| OE5REO-15 | 2026-08-31 01:00:25 | 48.51146 | 12.70745 | 81° | 46km/h | 15416m | -5.0m/s | -57.0°C | 2.6% | 120.4hPa | 2.4V | 08:04:00 | 00:00:00 | 00:00:00 | |
| DO3MHA-11 | 2026-08-31 01:00:24 | 48.51142 | 12.70709 | 79° | 57km/h | 15427m | -5.7m/s | -57.0°C | 6.1% | 120.1hPa | 2.4V | 00:00:00 | 02:31:05 | 00:00:00 | |
| DB0UT-7 | 2026-08-31 01:00:21 | 48.51136 | 12.70650 | 82° | 69km/h | 15443m | -5.5m/s | -57.0°C | 6.1% | 119.8hPa | 2.4V | 00:00:00 | 02:31:02 | 00:00:00 | |
| DL6DJ-15 | 2026-08-31 01:00:20 | 48.51132 | 12.70608 | 82° | 58km/h | 15455m | -5.7m/s | -57.1°C | 2.6% | 119.6hPa | 2.4V | 00:00:00 | 00:00:00 | 00:00:00 | |
| OE5MMP-10 | 2026-08-31 01:00:18 | 48.51130 | 12.70585 | 85° | 64km/h | 15460m | -5.3m/s | -57.1°C | 6.1% | 119.5hPa | 2.4V | 00:00:00 | 02:30:59 | 00:00:00 | |
| OE5DXL-15 | 2026-08-31 01:00:17 | 48.51129 | 12.70562 | 82° | 77km/h | 15465m | -5.7m/s | -57.1°C | 6.1% | 119.3hPa | 2.6V | 00:00:00 | 00:00:00 | 00:00:00 | |
| DO3MHA-11 | 2026-08-31 01:00:14 | 48.51124 | 12.70490 | 86° | 68km/h | 15481m | -5.5m/s | -57.1°C | 6.0% | 119.0hPa | 2.6V | 00:00:00 | 02:30:55 | 00:00:00 | |
| DG1MFX-10 | 2026-08-31 01:00:12 | 48.51122 | 12.70464 | 88° | 66km/h | 15487m | -5.7m/s | -57.2°C | 2.5% | 119.0hPa | 2.6V | 08:04:00 | 00:00:00 | 00:00:00 | |
| PG1ADW-2 | 2026-08-31 01:00:11 | 48.51120 | 12.70414 | 87° | 78km/h | 15497m | -5.4m/s | -57.1°C | 5.9% | 118.7hPa | 2.6V | 00:00:00 | 00:00:00 | 00:00:00 | |
| OE5REO-15 | 2026-08-31 01:00:10 | 48.51120 | 12.70414 | 88° | 66km/h | 15497m | -5.5m/s | -57.2°C | 2.5% | 118.7hPa | 2.6V | 08:04:00 | 00:00:00 | 00:00:00 | |
| OE5MMP-10 | 2026-08-31 01:00:08 | 48.51118 | 12.70338 | 89° | 78km/h | 15514m | -5.5m/s | -57.2°C | 5.8% | 118.4hPa | 2.6V | 00:00:00 | 02:30:49 | 00:00:00 | |
| OE5DRO-10 | 2026-08-31 01:00:06 | 48.51116 | 12.70284 | 88° | 82km/h | 15524m | -5.2m/s | -57.2°C | 5.8% | 118.1hPa | 2.6V | 00:00:00 | 00:00:00 | 00:00:00 | |
| DO3MHA-11 | 2026-08-31 01:00:04 | 48.51114 | 12.70226 | 86° | 86km/h | 15535m | -5.1m/s | -57.2°C | 5.8% | 117.9hPa | 2.6V | 00:00:00 | 02:30:45 | 00:00:00 | |
| DF7PN | 2026-08-31 01:00:01 | 48.51107 | 12.70134 | 79° | 84km/h | 15550m | -5.4m/s | -57.2°C | 2.4% | 117.7hPa | 2.4V | 00:00:00 | 00:00:00 | 00:00:00 | |
| OE5HKT-10 | 2026-08-31 00:59:59 | 48.51098 | 12.70069 | 77° | 77km/h | 15560m | -5.4m/s | -57.2°C | 5.7% | 117.5hPa | 2.4V | 08:04:00 | 00:00:00 | 00:00:00 | |
| OE5MMP-10 | 2026-08-31 00:59:58 | 48.51093 | 12.70037 | 77° | 82km/h | 15565m | -5.3m/s | -57.2°C | 5.7% | 117.3hPa | 2.4V | 00:00:00 | 02:30:39 | 00:00:00 | |
| OE5WHR-10 | 2026-08-31 00:59:56 | 48.51082 | 12.69973 | 73° | 73km/h | 15576m | -5.2m/s | -57.3°C | 5.8% | 117.2hPa | 2.4V | 00:00:00 | 02:30:37 | 00:00:00 | |
| OE5REO-15 | 2026-08-31 00:59:55 | 48.51082 | 12.69973 | 74° | 88km/h | 15576m | -5.3m/s | -57.3°C | 2.3% | 117.2hPa | 2.4V | 08:04:00 | 00:00:00 | 00:00:00 | |
| DO3MHA-11 | 2026-08-31 00:59:54 | 48.51068 | 12.69912 | 71° | 78km/h | 15586m | -5.0m/s | -57.3°C | 5.8% | 117.0hPa | 2.4V | 00:00:00 | 02:30:35 | 00:00:00 | |
| NBG1-10 | 2026-08-31 00:59:53 | 48.51061 | 12.69882 | 69° | 69km/h | 15591m | -5.0m/s | -57.4°C | 5.8% | 116.9hPa | 2.4V | 00:00:00 | 02:30:34 | 00:00:00 | |
| DB0NH | 2026-08-31 00:59:52 | 48.51053 | 12.69853 | 67° | 78km/h | 15596m | -5.0m/s | 0°C | 0% | 0hPa | 2.4V | 00:00:00 | 02:30:33 | 00:00:00 | |
| DB0UT-7 | 2026-08-31 00:59:51 | 48.51044 | 12.69825 | 65° | 77km/h | 15601m | -5.5m/s | -57.4°C | 5.7% | 116.7hPa | 2.4V | 00:00:00 | 00:00:00 | 00:00:00 | |
| OE5MMP-10 | 2026-08-31 00:59:48 | 48.51019 | 12.69745 | 64° | 69km/h | 15617m | -5.7m/s | -57.5°C | 5.7% | 116.4hPa | 2.4V | 08:04:00 | 02:30:29 | 00:00:00 | |
| OE5DXL-15 | 2026-08-31 00:59:47 | 48.51010 | 12.69719 | 65° | 68km/h | 15623m | -5.6m/s | -57.5°C | 5.8% | 116.3hPa | 2.4V | 08:04:00 | 00:00:00 | 00:00:00 | |
| DO3MHA-11 | 2026-08-31 00:59:44 | 48.50988 | 12.69642 | 70° | 66km/h | 15639m | -5.2m/s | -57.6°C | 5.7% | 116.0hPa | 2.4V | 00:00:00 | 02:30:25 | 00:00:00 | |
| OE5REO-15 | 2026-08-31 00:59:40 | 48.50969 | 12.69569 | 72° | 68km/h | 15654m | -4.9m/s | -57.7°C | 2.2% | 115.8hPa | 2.4V | 08:05:00 | 00:00:00 | 00:00:00 | |
| DB0ND-19 | 2026-08-31 00:59:39 | 48.50954 | 12.69497 | 73° | 64km/h | 15670m | -5.1m/s | -57.7°C | 2.2% | 115.5hPa | 2.4V | 00:00:00 | 00:00:00 | 00:00:00 | |
| OE5HKT-10 | 2026-08-31 00:59:38 | 48.50954 | 12.69497 | 74° | 68km/h | 15670m | -5.1m/s | -57.7°C | 5.8% | 115.4hPa | 2.4V | 00:00:00 | 00:00:00 | 00:00:00 | |
| OE5WHR-10 | 2026-08-31 00:59:35 | 48.50939 | 12.69427 | 73° | 66km/h | 15686m | -5.7m/s | -57.7°C | 5.8% | 115.2hPa | 2.4V | 00:00:00 | 00:00:00 | 00:00:00 | |
| DO3MHA-11 | 2026-08-31 00:59:34 | 48.50934 | 12.69403 | 73° | 69km/h | 15692m | -5.2m/s | -57.7°C | 5.8% | 115.1hPa | 2.6V | 08:05:00 | 02:30:15 | 00:00:00 | |
| DG1MFX-10 | 2026-08-31 00:59:32 | 48.50929 | 12.69380 | 75° | 64km/h | 15698m | -5.0m/s | -57.7°C | 2.2% | 115.0hPa | 2.6V | 08:05:00 | 00:00:00 | 00:00:00 | |
| PG1ADW-2 | 2026-08-31 00:59:31 | 48.50921 | 12.69332 | 76° | 66km/h | 15708m | -5.2m/s | -57.3°C | 5.6% | 114.8hPa | 2.6V | 00:00:00 | 00:00:00 | 00:00:00 | |
| DF7PN | 2026-08-31 00:59:30 | 48.50917 | 12.69307 | 74° | 68km/h | 15712m | -5.1m/s | -57.3°C | 2.1% | 114.7hPa | 2.6V | 00:00:00 | 00:00:00 | 00:00:00 | |
| OE5MMP-10 | 2026-08-31 00:59:28 | 48.50907 | 12.69256 | 73° | 69km/h | 15723m | -5.4m/s | -57.3°C | 5.6% | 114.5hPa | 2.6V | 00:00:00 | 02:30:09 | 00:00:00 | |
| DO3MHA-11 | 2026-08-31 00:59:24 | 48.50887 | 12.69151 | 76° | 64km/h | 15745m | -5.5m/s | -56.9°C | 5.6% | 114.1hPa | 2.6V | 00:00:00 | 02:30:05 | 00:00:00 | |
| OE5FHM-15 | 2026-08-31 00:59:21 | 48.50875 | 12.69076 | 75° | 71km/h | 15762m | -5.4m/s | -56.8°C | 5.5% | 113.8hPa | 2.6V | 00:00:00 | 02:30:02 | 00:00:00 | |
| NBG1-10 | 2026-08-31 00:59:20 | 48.50871 | 12.69052 | 78° | 69km/h | 15767m | -5.7m/s | 0°C | 0% | 0hPa | 2.6V | 00:00:00 | 02:30:01 | 00:00:00 | |
| OE5DXL-15 | 2026-08-31 00:59:18 | 48.50859 | 12.68983 | 78° | 71km/h | 15785m | -5.8m/s | -56.7°C | 5.3% | 113.4hPa | 2.6V | 00:00:00 | 00:00:00 | 00:00:00 | |
| OE5HKT-10 | 2026-08-31 00:59:17 | 48.50859 | 12.68983 | 78° | 71km/h | 15785m | -5.8m/s | -56.7°C | 5.3% | 113.4hPa | 2.6V | 00:00:00 | 02:29:58 | 00:00:00 | |
| OE5WHR-10 | 2026-08-31 00:59:14 | 48.50853 | 12.68918 | 87° | 75km/h | 15804m | -6.1m/s | -56.7°C | 5.3% | 113.1hPa | 2.6V | 00:00:00 | 00:00:00 | 00:00:00 | |
| PG1ADW-2 | 2026-08-31 00:59:11 | 48.50854 | 12.68853 | 97° | 77km/h | 15822m | -5.7m/s | -56.7°C | 5.3% | 112.7hPa | 2.6V | 00:00:00 | 02:29:52 | 00:00:00 | |
| OE5DRO-10 | 2026-08-31 00:59:09 | 48.50859 | 12.68804 | 101° | 77km/h | 15833m | -5.3m/s | -56.7°C | 5.3% | 112.5hPa | 2.6V | 00:00:00 | 00:00:00 | 00:00:00 | |
| DB0ND-19 | 2026-08-31 00:59:08 | 48.50866 | 12.68750 | 100° | 75km/h | 15844m | -5.4m/s | -56.6°C | 1.9% | 112.4hPa | 2.6V | 00:00:00 | 00:00:00 | 00:00:00 | |
| DO3MHA-11 | 2026-08-31 00:59:04 | 48.50875 | 12.68659 | 97° | 80km/h | 15860m | -5.2m/s | -56.4°C | 5.3% | 112.0hPa | 2.6V | 00:00:00 | 02:29:45 | 00:00:00 | |
| DF7PN | 2026-08-31 00:58:59 | 48.50876 | 12.68499 | 85° | 80km/h | 15886m | -5.3m/s | -56.1°C | 1.8% | 111.7hPa | 2.6V | 00:00:00 | 00:00:00 | 00:00:00 | |
| DL6DJ-15 | 2026-08-31 00:58:47 | 48.50831 | 12.68161 | 75° | 58km/h | 15954m | -5.5m/s | -55.8°C | 1.8% | 110.4hPa | 2.6V | 00:00:00 | 00:00:00 | 00:00:00 | |
| DO3MHA-11 | 2026-08-31 00:58:44 | 48.50825 | 12.68117 | 78° | 62km/h | 15965m | -4.9m/s | -55.7°C | 5.0% | 110.2hPa | 2.6V | 00:00:00 | 02:29:25 | 00:00:00 | |
| BAUMI2-15 | 2026-08-31 00:58:42 | 48.50819 | 12.68070 | 81° | 62km/h | 15976m | -5.3m/s | -55.7°C | 5.0% | 110.0hPa | 2.6V | 00:00:00 | 02:29:23 | 00:00:00 | |
| OE5MMP-10 | 2026-08-31 00:58:38 | 48.50810 | 12.67975 | 82° | 60km/h | 15996m | -5.1m/s | -55.7°C | 5.1% | 109.6hPa | 2.6V | 00:00:00 | 02:29:19 | 00:00:00 | |
| BAUMI2-15 | 2026-08-31 00:58:37 | 48.50808 | 12.67952 | 83° | 62km/h | 16001m | -4.8m/s | -55.7°C | 5.0% | 109.6hPa | 2.6V | 00:00:00 | 02:29:18 | 00:00:00 | |
| DB0ND-19 | 2026-08-31 00:58:36 | 48.50805 | 12.67928 | 81° | 62km/h | 16006m | -4.9m/s | -55.7°C | 1.8% | 109.5hPa | 2.6V | 00:00:00 | 00:00:00 | 00:00:00 | |
| DO3MHA-11 | 2026-08-31 00:58:34 | 48.50801 | 12.67881 | 83° | 55km/h | 16017m | -5.3m/s | -55.5°C | 5.0% | 109.3hPa | 2.6V | 00:00:00 | 02:29:15 | 00:00:00 | |
| OE5WHR-10 | 2026-08-31 00:58:32 | 48.50796 | 12.67836 | 77° | 35km/h | 16027m | -5.4m/s | -55.5°C | 4.9% | 109.1hPa | 2.4V | 00:00:00 | 00:00:00 | 00:00:00 | |
| PG1ADW-2 | 2026-08-31 00:58:31 | 48.50792 | 12.67815 | 74° | 35km/h | 16033m | -5.8m/s | -55.4°C | 4.9% | 109.0hPa | 2.6V | 00:00:00 | 00:00:00 | 00:00:00 | |
| DG1MFX-10 | 2026-08-31 00:58:30 | 48.50792 | 12.67815 | 75° | 60km/h | 16033m | -5.8m/s | -55.4°C | 1.8% | 109.0hPa | 2.6V | 00:00:00 | 00:00:00 | 00:00:00 | |
| OE5MMP-10 | 2026-08-31 00:58:28 | 48.50777 | 12.67754 | 68° | 38km/h | 16051m | -5.6m/s | -55.5°C | 4.8% | 108.8hPa | 2.6V | 00:00:00 | 02:29:09 | 00:00:00 | |
| BAUMI2-15 | 2026-08-31 00:58:27 | 48.50772 | 12.67736 | 64° | 44km/h | 16057m | -6.1m/s | -55.5°C | 4.8% | 108.6hPa | 2.6V | 00:00:00 | 02:29:08 | 00:00:00 | |
| DO3MHA-11 | 2026-08-31 00:58:24 | 48.50755 | 12.67688 | 62° | 26km/h | 16076m | -6.0m/s | -55.5°C | 4.8% | 108.4hPa | 2.6V | 00:00:00 | 02:29:05 | 00:00:00 | |
| BAUMI2-15 | 2026-08-31 00:58:22 | 48.50745 | 12.67664 | 61° | 26km/h | 16088m | -5.7m/s | -55.5°C | 4.8% | 108.1hPa | 2.6V | 00:00:00 | 02:29:03 | 00:00:00 | |
| OE5FHM-15 | 2026-08-31 00:58:21 | 48.50741 | 12.67653 | 59° | 31km/h | 16094m | -6.3m/s | -55.4°C | 4.7% | 108.0hPa | 2.6V | 08:06:00 | 02:29:02 | 00:00:00 | |
| DO8TBO-1 | 2026-08-31 00:58:20 | 48.50738 | 12.67645 | 58° | 29km/h | 16100m | -6.0m/s | -55.4°C | 4.7% | 107.9hPa | 2.5V | 00:00:00 | 02:29:01 | 00:00:00 | |
| OE5MMP-10 | 2026-08-31 00:58:18 | 48.50733 | 12.67630 | 69° | 20km/h | 16112m | -5.7m/s | -55.5°C | 4.7% | 107.7hPa | 2.5V | 08:06:00 | 02:28:59 | 00:00:00 | |
| BAUMI2-15 | 2026-08-31 00:58:17 | 48.50732 | 12.67623 | 74° | 16km/h | 16118m | -5.7m/s | -55.5°C | 4.7% | 107.6hPa | 2.5V | 00:00:00 | 02:28:58 | 00:00:00 | |
| DL6DJ-15 | 2026-08-31 00:58:15 | 48.50731 | 12.67612 | 95° | 15km/h | 16128m | -4.6m/s | -55.6°C | 1.7% | 107.4hPa | 2.6V | 00:00:00 | 00:00:00 | 00:00:00 | |
| DO3MHA-11 | 2026-08-31 00:58:14 | 48.50732 | 12.67606 | 103° | 24km/h | 16133m | -5.0m/s | -55.6°C | 4.8% | 107.3hPa | 2.6V | 00:00:00 | 02:28:55 | 00:00:00 | |
| BAUMI2-15 | 2026-08-31 00:58:12 | 48.50734 | 12.67589 | 100° | 24km/h | 16143m | -5.3m/s | -55.7°C | 4.9% | 107.2hPa | 2.6V | 00:00:00 | 02:28:53 | 00:00:00 | |
| OE5WHR-10 | 2026-08-31 00:58:11 | 48.50735 | 12.67580 | 104° | 35km/h | 16149m | -5.2m/s | -55.7°C | 4.9% | 107.0hPa | 2.6V | 00:00:00 | 00:00:00 | 00:00:00 | |
| DH7VM-15 | 2026-08-31 00:58:09 | 48.50737 | 12.67571 | 106° | 26km/h | 16154m | -5.4m/s | 0°C | 0% | 107.0hPa | 2.6V | 00:00:00 | 00:00:00 | 00:00:00 | |
| OE5MMP-10 | 2026-08-31 00:58:08 | 48.50740 | 12.67553 | 109° | 29km/h | 16165m | -4.8m/s | -55.5°C | 4.8% | 106.8hPa | 2.6V | 00:00:00 | 02:28:49 | 00:00:00 | |
| BAUMI2-15 | 2026-08-31 00:58:07 | 48.50742 | 12.67544 | 105° | 27km/h | 16170m | -4.9m/s | -55.5°C | 4.8% | 106.7hPa | 2.6V | 00:00:00 | 02:28:48 | 00:00:00 | |
| OE5REO-15 | 2026-08-31 00:58:06 | 48.50742 | 12.67544 | 106° | 26km/h | 16170m | -5.0m/s | -55.5°C | 1.7% | 106.8hPa | 2.6V | 08:06:00 | 00:00:00 | 00:00:00 | |
| DB0ND-19 | 2026-08-31 00:58:05 | 48.50746 | 12.67525 | 109° | 27km/h | 16181m | -5.2m/s | -55.4°C | 1.7% | 106.6hPa | 2.6V | 00:00:00 | 00:00:00 | 00:00:00 | |
| DO3MHA-11 | 2026-08-31 00:58:04 | 48.50748 | 12.67515 | 107° | 37km/h | 16186m | -5.2m/s | -55.4°C | 4.8% | 106.5hPa | 2.6V | 08:06:00 | 02:28:45 | 00:00:00 | |
| BAUMI2-15 | 2026-08-31 00:58:02 | 48.50752 | 12.67492 | 105° | 35km/h | 16197m | -5.5m/s | -55.6°C | 4.9% | 106.3hPa | 2.4V | 00:00:00 | 02:28:43 | 00:00:00 | |
| OE5MMP-10 | 2026-08-31 00:57:58 | 48.50759 | 12.67440 | 97° | 44km/h | 16219m | -5.4m/s | -55.7°C | 4.8% | 105.9hPa | 2.5V | 00:00:00 | 02:28:39 | 00:00:00 | |
| BAUMI2-15 | 2026-08-31 00:57:57 | 48.50760 | 12.67425 | 93° | 42km/h | 16225m | -5.7m/s | -55.7°C | 4.8% | 105.8hPa | 2.5V | 00:00:00 | 02:28:38 | 00:00:00 | |
| DO3MHA-11 | 2026-08-31 00:57:54 | 48.50761 | 12.67377 | 88° | 47km/h | 16242m | -5.7m/s | -55.8°C | 4.8% | 105.5hPa | 2.5V | 00:00:00 | 02:28:35 | 00:00:00 | |
| OE5HKT-10 | 2026-08-31 00:57:53 | 48.50760 | 12.67360 | 89° | 38km/h | 16248m | -5.4m/s | -55.9°C | 4.8% | 105.4hPa | 2.5V | 00:00:00 | 00:00:00 | 00:00:00 | |
| BAUMI2-15 | 2026-08-31 00:57:52 | 48.50759 | 12.67342 | 83° | 49km/h | 16253m | -5.6m/s | -55.9°C | 4.8% | 105.3hPa | 2.5V | 00:00:00 | 02:28:33 | 00:00:00 | |
| DK5PH-5 | 2026-08-31 00:57:51 | 48.50757 | 12.67324 | 82° | 29km/h | 16259m | -5.8m/s | -55.9°C | 4.8% | 105.2hPa | 2.5V | 00:00:00 | 02:28:32 | 00:00:00 | |
| OE5WHR-10 | 2026-08-31 00:57:50 | 48.50755 | 12.67306 | 77° | 33km/h | 16265m | -6.0m/s | -56.0°C | 4.8% | 105.1hPa | 2.5V | 00:00:00 | 02:28:31 | 00:00:00 | |
| OE5FHM-15 | 2026-08-31 00:57:49 | 48.50751 | 12.67287 | 72° | 40km/h | 16271m | -6.1m/s | -56.0°C | 4.8% | 105.0hPa | 2.5V | 00:00:00 | 02:28:30 | 00:00:00 | |
| OE5MMP-10 | 2026-08-31 00:57:48 | 48.50746 | 12.67269 | 66° | 42km/h | 16276m | -4.7m/s | -56.1°C | 4.8% | 104.9hPa | 2.5V | 00:00:00 | 02:28:29 | 00:00:00 | |
| BAUMI2-15 | 2026-08-31 00:57:47 | 48.50740 | 12.67253 | 60° | 46km/h | 16281m | -5.1m/s | -56.1°C | 4.8% | 104.9hPa | 2.5V | 08:06:00 | 02:28:28 | 00:00:00 | |
| DO3MHA-11 | 2026-08-31 00:57:44 | 48.50717 | 12.67211 | 40° | 33km/h | 16299m | -6.1m/s | -56.3°C | 4.8% | 104.6hPa | 2.5V | 00:00:00 | 02:28:25 | 00:00:00 | |
| DM0DOS-11 | 2026-08-31 00:57:43 | 48.50691 | 12.67185 | 28° | 37km/h | 16315m | -5.6m/s | 0°C | 0% | 0hPa | 2.5V | 08:06:58 | 02:28:22 | 00:00:00 | |
| BAUMI2-15 | 2026-08-31 00:57:42 | 48.50699 | 12.67192 | 30° | 33km/h | 16310m | -5.3m/s | -56.4°C | 4.8% | 104.4hPa | 2.6V | 00:00:00 | 02:28:23 | 00:00:00 | |
| BAUMI2-15 | 2026-08-31 00:57:37 | 48.50662 | 12.67169 | 10° | 22km/h | 16339m | -5.9m/s | -56.6°C | 4.9% | 103.9hPa | 2.6V | 00:00:00 | 02:28:18 | 00:00:00 | |
| OE5REO-15 | 2026-08-31 00:57:35 | 48.50656 | 12.67167 | 8° | 24km/h | 16345m | -6.1m/s | -56.7°C | 1.7% | 103.9hPa | 2.6V | 08:07:00 | 00:00:00 | 00:00:00 | |
| DO3MHA-11 | 2026-08-31 00:57:34 | 48.50645 | 12.67164 | 10° | 15km/h | 16356m | -5.6m/s | -56.7°C | 5.0% | 103.7hPa | 2.6V | 00:00:00 | 02:28:15 | 00:00:00 | |
| OE5HKT-10 | 2026-08-31 00:57:32 | 48.50637 | 12.67162 | 17° | 33km/h | 16366m | -5.6m/s | -56.8°C | 5.0% | 103.5hPa | 2.6V | 00:00:00 | 00:00:00 | 00:00:00 | |
| PG1ADW-2 | 2026-08-31 00:57:31 | 48.50634 | 12.67160 | 23° | 33km/h | 16371m | -5.4m/s | -56.9°C | 5.1% | 103.4hPa | 2.6V | 00:00:00 | 00:00:00 | 00:00:00 | |
| OE5MMP-10 | 2026-08-31 00:57:28 | 48.50629 | 12.67151 | 79° | 27km/h | 16387m | -5.3m/s | -57.0°C | 5.1% | 103.1hPa | 2.6V | 00:00:00 | 02:28:09 | 00:00:00 | |
| BAUMI2-15 | 2026-08-31 00:57:27 | 48.50629 | 12.67146 | 92° | 20km/h | 16392m | -5.2m/s | -57.1°C | 5.1% | 103.1hPa | 2.6V | 00:00:00 | 02:28:08 | 00:00:00 | |
| DF7PN | 2026-08-31 00:57:26 | 48.50630 | 12.67134 | 92° | 18km/h | 16403m | -5.3m/s | -57.2°C | 1.8% | 102.9hPa | 2.6V | 00:00:00 | 00:00:00 | 00:00:00 | |
| DO3MHA-11 | 2026-08-31 00:57:24 | 48.50630 | 12.67127 | 87° | 42km/h | 16408m | -5.8m/s | -57.2°C | 5.2% | 102.8hPa | 2.6V | 00:00:00 | 02:28:05 | 00:00:00 | |
| BAUMI2-15 | 2026-08-31 00:57:22 | 48.50629 | 12.67105 | 84° | 40km/h | 16420m | -5.5m/s | -57.3°C | 5.2% | 102.6hPa | 2.6V | 00:00:00 | 02:28:03 | 00:00:00 | |
| DK5PH-5 | 2026-08-31 00:57:21 | 48.50627 | 12.67092 | 78° | 40km/h | 16425m | -5.7m/s | -57.3°C | 5.2% | 102.5hPa | 2.6V | 00:00:00 | 02:28:02 | 00:00:00 | |
| OE5REO-15 | 2026-08-31 00:57:20 | 48.50627 | 12.67092 | 79° | 38km/h | 16425m | -5.7m/s | -57.3°C | 1.8% | 102.5hPa | 2.4V | 08:07:00 | 00:00:00 | 00:00:00 | |
| OE5FHM-15 | 2026-08-31 00:57:19 | 48.50622 | 12.67061 | 72° | 33km/h | 16437m | -5.7m/s | -57.1°C | 5.1% | 102.3hPa | 2.4V | 00:00:00 | 02:28:00 | 00:00:00 | |
| OE5MMP-10 | 2026-08-31 00:57:18 | 48.50617 | 12.67045 | 67° | 53km/h | 16443m | -5.6m/s | -57.1°C | 5.1% | 102.2hPa | 2.4V | 00:00:00 | 02:27:59 | 00:00:00 | |
| BAUMI2-15 | 2026-08-31 00:57:17 | 48.50612 | 12.67028 | 65° | 53km/h | 16448m | -5.8m/s | -57.1°C | 5.1% | 102.1hPa | 2.5V | 00:00:00 | 02:27:58 | 00:00:00 | |
| OE5DRO-10 | 2026-08-31 00:57:15 | 48.50597 | 12.66994 | 54° | 42km/h | 16459m | -5.5m/s | -57.0°C | 5.0% | 101.9hPa | 2.6V | 00:00:00 | 00:00:00 | 00:00:00 | |
| DO3MHA-11 | 2026-08-31 00:57:14 | 48.50588 | 12.66977 | 48° | 51km/h | 16464m | -5.1m/s | -57.0°C | 5.0% | 101.8hPa | 2.6V | 00:00:00 | 02:27:55 | 00:00:00 | |
| DL6DJ-15 | 2026-08-31 00:57:13 | 48.50568 | 12.66948 | 40° | 53km/h | 16475m | -5.5m/s | -57.1°C | 1.7% | 101.7hPa | 2.6V | 00:00:00 | 00:00:00 | 00:00:00 | |
| BAUMI2-15 | 2026-08-31 00:57:12 | 48.50568 | 12.66947 | 41° | 53km/h | 16475m | -5.5m/s | -57.0°C | 5.1% | 101.7hPa | 2.6V | 00:00:00 | 02:27:53 | 00:00:00 | |
| OE5HKT-10 | 2026-08-31 00:57:11 | 48.50557 | 12.66935 | 36° | 35km/h | 16481m | -5.5m/s | -57.1°C | 5.0% | 101.6hPa | 2.6V | 00:00:00 | 02:27:52 | 00:00:00 | |
| OE5WHR-10 | 2026-08-31 00:57:08 | 48.50523 | 12.66903 | 30° | 29km/h | 16496m | -5.0m/s | -57.2°C | 5.1% | 101.4hPa | 2.6V | 00:00:00 | 00:00:00 | 00:00:00 | |
| BAUMI2-15 | 2026-08-31 00:57:07 | 48.50513 | 12.66894 | 29° | 42km/h | 16501m | -4.8m/s | -57.2°C | 5.1% | 101.2hPa | 2.6V | 00:00:00 | 02:27:48 | 00:00:00 | |
| DO3MHA-11 | 2026-08-31 00:57:04 | 48.50484 | 12.66873 | 21° | 29km/h | 16517m | -5.4m/s | -57.3°C | 5.1% | 101.0hPa | 2.6V | 00:00:00 | 02:27:45 | 00:00:00 | |
| DB0ND-19 | 2026-08-31 00:57:03 | 48.50475 | 12.66868 | 18° | 35km/h | 16522m | -5.3m/s | -57.4°C | 1.7% | 101.0hPa | 2.4V | 00:00:00 | 00:00:00 | 00:00:00 | |
| BAUMI2-15 | 2026-08-31 00:57:02 | 48.50467 | 12.66864 | 18° | 29km/h | 16527m | -5.2m/s | -57.4°C | 5.1% | 100.8hPa | 2.4V | 08:07:00 | 02:27:43 | 00:00:00 | |
| DF7PN | 2026-08-31 00:56:55 | 48.50419 | 12.66831 | 42° | 20km/h | 16570m | -5.1m/s | -57.1°C | 1.7% | 100.2hPa | 2.4V | 00:00:00 | 00:00:00 | 00:00:00 | |
| DO3MHA-11 | 2026-08-31 00:56:54 | 48.50419 | 12.66831 | 43° | 24km/h | 16570m | -5.1m/s | -57.1°C | 5.2% | 100.1hPa | 2.4V | 00:00:00 | 02:27:35 | 00:00:00 | |
| BAUMI2-15 | 2026-08-31 00:56:52 | 48.50412 | 12.66819 | 51° | 22km/h | 16580m | -5.2m/s | -57.0°C | 5.1% | 100.0hPa | 2.4V | 00:00:00 | 02:27:33 | 00:00:00 | |
| DK5PH-5 | 2026-08-31 00:56:51 | 48.50409 | 12.66813 | 56° | 47km/h | 16585m | -5.2m/s | -57.0°C | 5.1% | 99.9hPa | 2.4V | 00:00:00 | 02:27:32 | 00:00:00 | |
| OE5HKT-10 | 2026-08-31 00:56:50 | 48.50406 | 12.66806 | 61° | 44km/h | 16591m | -5.2m/s | -57.0°C | 5.1% | 99.8hPa | 2.4V | 08:07:00 | 00:00:00 | 00:00:00 | |
| OE5REO-15 | 2026-08-31 00:56:49 | 48.50406 | 12.66806 | 62° | 22km/h | 16591m | -5.3m/s | -57.0°C | 1.6% | 99.9hPa | 2.4V | 08:08:00 | 00:00:00 | 00:00:00 | |
| OE5MMP-10 | 2026-08-31 00:56:48 | 48.50402 | 12.66790 | 71° | 35km/h | 16602m | -5.1m/s | -56.8°C | 5.1% | 99.6hPa | 2.4V | 08:07:00 | 02:27:29 | 00:00:00 | |
| OE5WHR-10 | 2026-08-31 00:56:47 | 48.50400 | 12.66781 | 74° | 49km/h | 16607m | -5.2m/s | -56.7°C | 5.0% | 99.6hPa | 2.4V | 00:00:00 | 02:27:28 | 00:00:00 | |
| DO3MHA-11 | 2026-08-31 00:56:44 | 48.50394 | 12.66749 | 72° | 44km/h | 16623m | -5.5m/s | -56.5°C | 4.9% | 99.3hPa | 2.4V | 00:00:00 | 02:27:25 | 00:00:00 | |
| DL6DJ-15 | 2026-08-31 00:56:42 | 48.50386 | 12.66709 | 71° | 38km/h | 16640m | -5.4m/s | -56.3°C | 1.5% | 99.1hPa | 2.4V | 00:00:00 | 00:00:00 | 00:00:00 | |
| DB0UT-7 | 2026-08-31 00:56:38 | 48.50375 | 12.66661 | 71° | 57km/h | 16658m | -5.4m/s | -56.4°C | 4.7% | 98.8hPa | 2.4V | 00:00:00 | 00:00:00 | 00:00:00 | |
| DO8TBO-1 | 2026-08-31 00:56:37 | 48.50371 | 12.66643 | 69° | 49km/h | 16663m | -5.4m/s | -56.4°C | 4.8% | 98.7hPa | 2.6V | 00:00:00 | 02:27:18 | 00:00:00 | |
| OE5REO-15 | 2026-08-31 00:56:35 | 48.50360 | 12.66605 | 66° | 55km/h | 16675m | -5.6m/s | -56.5°C | 1.6% | 98.6hPa | 2.6V | 08:08:00 | 00:00:00 | 00:00:00 | |
| DO3MHA-11 | 2026-08-31 00:56:34 | 48.50354 | 12.66586 | 64° | 66km/h | 16680m | -5.4m/s | -56.5°C | 4.8% | 98.5hPa | 2.6V | 08:08:00 | 02:27:15 | 00:00:00 | |
| DB0ND-19 | 2026-08-31 00:56:32 | 48.50339 | 12.66545 | 59° | 62km/h | 16691m | -5.7m/s | -56.6°C | 1.5% | 98.3hPa | 2.4V | 00:00:00 | 00:00:00 | 00:00:00 | |
| PG1ADW-2 | 2026-08-31 00:56:31 | 48.50330 | 12.66524 | 57° | 49km/h | 16697m | -5.6m/s | -56.5°C | 4.8% | 98.2hPa | 2.4V | 00:00:00 | 02:27:12 | 00:00:00 | |
| OE5HKT-10 | 2026-08-31 00:56:29 | 48.50310 | 12.66483 | 53° | 47km/h | 16709m | -5.8m/s | -56.5°C | 4.8% | 98.0hPa | 2.4V | 00:00:00 | 00:00:00 | 00:00:00 | |
| OE5MMP-10 | 2026-08-31 00:56:28 | 48.50299 | 12.66463 | 50° | 60km/h | 16715m | -6.0m/s | -56.5°C | 4.9% | 97.9hPa | 2.4V | 00:00:00 | 02:27:09 | 00:00:00 | |
| OE5WHR-10 | 2026-08-31 00:56:26 | 48.50275 | 12.66425 | 43° | 46km/h | 16727m | -5.5m/s | -56.5°C | 4.9% | 97.7hPa | 2.4V | 00:00:00 | 00:00:00 | 00:00:00 | |
| DF7PN | 2026-08-31 00:56:24 | 48.50237 | 12.66379 | 34° | 58km/h | 16744m | -5.1m/s | -56.6°C | 1.6% | 97.5hPa | 2.5V | 00:00:00 | 00:00:00 | 00:00:00 | |
| DK5PH-5 | 2026-08-31 00:56:21 | 48.50212 | 12.66357 | 28° | 53km/h | 16754m | -5.6m/s | -56.5°C | 5.0% | 97.3hPa | 2.5V | 00:00:00 | 02:27:02 | 00:00:00 | |
| OE5MMP-10 | 2026-08-31 00:56:18 | 48.50182 | 12.66337 | 26° | 46km/h | 16772m | -6.1m/s | -56.4°C | 4.9% | 97.1hPa | 2.5V | 00:00:00 | 02:26:59 | 00:00:00 | |
| OE5DXL-15 | 2026-08-31 00:56:17 | 48.50174 | 12.66332 | 23° | 51km/h | 16777m | -6.5m/s | -56.3°C | 4.9% | 97.0hPa | 2.6V | 00:00:00 | 00:00:00 | 00:00:00 | |
| OE5FHM-15 | 2026-08-31 00:56:16 | 48.50168 | 12.66327 | 27° | 53km/h | 16784m | -6.0m/s | -56.3°C | 4.9% | 96.9hPa | 2.6V | 00:00:00 | 02:26:57 | 00:00:00 | |
| DO3MHA-11 | 2026-08-31 00:56:14 | 48.50159 | 12.66316 | 57° | 46km/h | 16794m | -6.2m/s | -56.2°C | 4.9% | 96.7hPa | 2.6V | 00:00:00 | 02:26:55 | 00:00:00 | |
| DL6DJ-15 | 2026-08-31 00:56:11 | 48.50152 | 12.66271 | 85° | 44km/h | 16817m | -6.2m/s | -56.2°C | 1.5% | 96.3hPa | 2.6V | 00:00:00 | 00:00:00 | 00:00:00 | |
| OE5HKT-10 | 2026-08-31 00:56:08 | 48.50149 | 12.66234 | 80° | 60km/h | 16830m | -5.8m/s | -56.1°C | 4.9% | 96.2hPa | 2.6V | 00:00:00 | 02:26:49 | 00:00:00 | |
| DO8TBO-1 | 2026-08-31 00:56:07 | 48.50146 | 12.66213 | 78° | 53km/h | 16836m | -6.1m/s | 0°C | 0% | 0hPa | 2.6V | 00:00:00 | 02:26:48 | 00:00:00 | |
| OE5MMP-10 | 2026-08-31 00:56:06 | 48.50142 | 12.66191 | 75° | 69km/h | 16842m | -6.0m/s | -56.0°C | 4.8% | 95.9hPa | 2.6V | 00:00:00 | 02:26:47 | 00:00:00 | |
| OE5WHR-10 | 2026-08-31 00:56:05 | 48.50137 | 12.66168 | 72° | 58km/h | 16848m | -6.2m/s | -55.7°C | 4.7% | 95.8hPa | 2.6V | 00:00:00 | 00:00:00 | 00:00:00 | |
| DO3MHA-11 | 2026-08-31 00:56:04 | 48.50131 | 12.66143 | 69° | 69km/h | 16854m | -6.3m/s | -55.6°C | 4.6% | 95.7hPa | 2.6V | 00:00:00 | 02:26:45 | 00:00:00 | |
| DB0ND-19 | 2026-08-31 00:56:01 | 48.50105 | 12.66070 | 57° | 73km/h | 16874m | -6.6m/s | -55.4°C | 1.4% | 95.5hPa | 2.6V | 00:00:00 | 00:00:00 | 00:00:00 | |
| DF7PN | 2026-08-31 00:55:53 | 48.49999 | 12.65912 | 36° | 51km/h | 16930m | -6.1m/s | -55.2°C | 1.4% | 94.7hPa | 2.6V | 00:00:00 | 00:00:00 | 00:00:00 | |
| DK5PH-5 | 2026-08-31 00:55:51 | 48.49989 | 12.65901 | 35° | 53km/h | 16936m | -6.4m/s | -55.2°C | 4.5% | 94.5hPa | 2.6V | 00:00:00 | 02:26:32 | 00:00:00 | |
| OE5DXL-15 | 2026-08-31 00:55:47 | 48.49956 | 12.65859 | 51° | 53km/h | 16961m | -5.6m/s | -55.3°C | 4.5% | 94.2hPa | 2.6V | 00:00:00 | 00:00:00 | 00:00:00 | |
| OE5MMP-10 | 2026-08-31 00:55:46 | 48.49951 | 12.65848 | 53° | 40km/h | 16966m | -6.1m/s | -55.4°C | 4.5% | 94.1hPa | 2.6V | 00:00:00 | 02:26:27 | 00:00:00 | |
| DO3MHA-11 | 2026-08-31 00:55:44 | 48.49942 | 12.65824 | 67° | 42km/h | 16979m | -5.9m/s | -55.4°C | 4.5% | 94.0hPa | 2.6V | 00:00:00 | 02:26:25 | 00:00:00 | |
| DL6DJ-15 | 2026-08-31 00:55:40 | 48.49931 | 12.65753 | 84° | 42km/h | 17010m | -6.3m/s | -55.5°C | 1.4% | 93.5hPa | 2.6V | 00:00:00 | 00:00:00 | 00:00:00 | |
| DO8TBO-1 | 2026-08-31 00:55:37 | 48.49930 | 12.65719 | 91° | 68km/h | 17022m | -5.7m/s | 0°C | 0% | 0hPa | 2.6V | 00:00:00 | 02:26:18 | 00:00:00 | |
| OE5MMP-10 | 2026-08-31 00:55:36 | 48.49931 | 12.65701 | 92° | 62km/h | 17028m | -5.8m/s | -55.3°C | 4.5% | 93.2hPa | 2.6V | 00:00:00 | 02:26:17 | 00:00:00 | |
| DO3MHA-11 | 2026-08-31 00:55:34 | 48.49931 | 12.65660 | 90° | 66km/h | 17040m | -5.8m/s | -55.3°C | 4.5% | 93.0hPa | 2.6V | 00:00:00 | 02:26:15 | 00:00:00 | |
| PG1ADW-2 | 2026-08-31 00:55:31 | 48.49931 | 12.65591 | 90° | 71km/h | 17058m | -6.3m/s | -55.3°C | 4.5% | 92.7hPa | 2.5V | 00:00:00 | 00:00:00 | 00:00:00 | |
| DB0ND-19 | 2026-08-31 00:55:30 | 48.49931 | 12.65566 | 89° | 66km/h | 17064m | -6.0m/s | -55.4°C | -1.0% | 92.7hPa | 2.5V | 00:00:00 | 00:00:00 | 00:00:00 | |
| OE5MMP-10 | 2026-08-31 00:55:26 | 48.49927 | 12.65459 | 86° | 73km/h | 17088m | -5.9m/s | -55.3°C | 4.4% | 92.3hPa | 2.5V | 00:00:00 | 02:26:07 | 00:00:00 | |
| DO3MHA-11 | 2026-08-31 00:55:24 | 48.49924 | 12.65403 | 84° | 73km/h | 17100m | -6.0m/s | -55.3°C | 4.4% | 92.1hPa | 2.5V | 00:00:00 | 02:26:05 | 00:00:00 | |
| OE5WHR-10 | 2026-08-31 00:55:23 | 48.49921 | 12.65375 | 82° | 69km/h | 17106m | -6.0m/s | -55.4°C | 4.5% | 92.1hPa | 2.5V | 00:00:00 | 00:00:00 | 00:00:00 | |
| DF7PN | 2026-08-31 00:55:22 | 48.49916 | 12.65319 | 79° | 73km/h | 17118m | -5.9m/s | -55.5°C | 1.4% | 91.9hPa | 2.6V | 00:00:00 | 00:00:00 | 00:00:00 | |
| DK5PH-5 | 2026-08-31 00:55:21 | 48.49916 | 12.65319 | 80° | 62km/h | 17118m | -5.9m/s | -55.4°C | 4.5% | 91.9hPa | 2.6V | 00:00:00 | 02:26:02 | 00:00:00 | |
| OE5DXL-15 | 2026-08-31 00:55:18 | 48.49896 | 12.65185 | 77° | 57km/h | 17148m | -5.9m/s | -55.5°C | 4.5% | 91.5hPa | 2.6V | 08:09:00 | 00:00:00 | 00:00:00 | |
| OE5MMP-10 | 2026-08-31 00:55:16 | 48.49896 | 12.65185 | 77° | 69km/h | 17148m | -5.9m/s | -55.5°C | 4.5% | 91.5hPa | 2.6V | 08:09:00 | 02:25:57 | 00:00:00 | |
| OE5FHM-15 | 2026-08-31 00:55:15 | 48.49892 | 12.65159 | 77° | 55km/h | 17154m | -6.1m/s | -55.5°C | 4.6% | 91.4hPa | 2.6V | 00:00:00 | 02:25:56 | 00:00:00 | |
| DO3MHA-11 | 2026-08-31 00:55:14 | 48.49888 | 12.65133 | 77° | 68km/h | 17161m | -6.2m/s | -55.5°C | 4.6% | 91.3hPa | 2.6V | 00:00:00 | 02:25:55 | 00:00:00 | |
| DG1MFX-10 | 2026-08-31 00:55:13 | 48.49888 | 12.65133 | 78° | 71km/h | 17161m | -6.3m/s | -55.6°C | 1.5% | 91.4hPa | 2.6V | 00:00:00 | 00:00:00 | 00:00:00 | |
| PG1ADW-2 | 2026-08-31 00:55:11 | 48.49877 | 12.65054 | 77° | 26km/h | 17180m | -5.8m/s | -55.6°C | 4.6% | 91.0hPa | 2.6V | 00:00:00 | 02:25:52 | 00:00:00 | |
| DL6DJ-15 | 2026-08-31 00:55:08 | 48.49864 | 12.64978 | 75° | 68km/h | 17197m | -5.8m/s | -55.5°C | 1.4% | 90.8hPa | 2.6V | 00:00:00 | 00:00:00 | 00:00:00 | |
| DO8TBO-1 | 2026-08-31 00:55:07 | 48.49860 | 12.64953 | 76° | 42km/h | 17204m | -5.7m/s | 0°C | 0% | 0hPa | 2.6V | 00:00:00 | 02:25:48 | 00:00:00 | |
| OE5MMP-10 | 2026-08-31 00:55:06 | 48.49856 | 12.64929 | 75° | 57km/h | 17209m | -5.7m/s | -55.3°C | 4.6% | 90.6hPa | 2.6V | 00:00:00 | 02:25:47 | 00:00:00 | |
| OE5HKT-10 | 2026-08-31 00:55:05 | 48.49851 | 12.64906 | 74° | 46km/h | 17215m | -6.2m/s | -55.2°C | 4.6% | 90.5hPa | 2.6V | 00:00:00 | 02:25:46 | 00:00:00 | |
| DO3MHA-11 | 2026-08-31 00:55:04 | 48.49847 | 12.64884 | 75° | 55km/h | 17221m | -6.0m/s | -55.1°C | 4.5% | 90.4hPa | 2.6V | 08:09:00 | 02:25:45 | 00:00:00 | |
| OE5WHR-10 | 2026-08-31 00:55:02 | 48.49838 | 12.64840 | 74° | 40km/h | 17233m | -6.1m/s | -55.1°C | 4.5% | 90.2hPa | 2.6V | 00:00:00 | 00:00:00 | 00:00:00 | |
| DB0ND-19 | 2026-08-31 00:54:59 | 48.49826 | 12.64780 | 71° | 53km/h | 17251m | -6.0m/s | -55.2°C | -1.0% | -1.0hPa | 2.6V | 00:00:00 | 00:00:00 | 00:00:00 | |
| OE5MMP-10 | 2026-08-31 00:54:56 | 48.49811 | 12.64725 | 67° | 40km/h | 17269m | -5.9m/s | -55.1°C | 4.5% | 89.7hPa | 2.6V | 00:00:00 | 02:25:37 | 00:00:00 | |
| DO3MHA-11 | 2026-08-31 00:54:54 | 48.49801 | 12.64693 | 62° | 37km/h | 17282m | -6.1m/s | -55.0°C | 4.5% | 89.5hPa | 2.6V | 00:00:00 | 02:25:35 | 00:00:00 | |
| DB0UT-7 | 2026-08-31 00:54:52 | 48.49790 | 12.64664 | 64° | 46km/h | 17294m | -6.3m/s | -54.8°C | 4.4% | 89.4hPa | 2.6V | 00:00:00 | 00:00:00 | 00:00:00 | |
| DK5PH-5 | 2026-08-31 00:54:51 | 48.49786 | 12.64651 | 61° | 20km/h | 17300m | -6.2m/s | -54.8°C | 4.4% | 89.3hPa | 2.6V | 00:00:00 | 02:25:32 | 00:00:00 | |
| OE5DXL-15 | 2026-08-31 00:54:47 | 48.49766 | 12.64606 | 54° | 18km/h | 17325m | -6.1m/s | -54.8°C | 4.5% | 88.9hPa | 2.6V | 00:00:00 | 00:00:00 | 00:00:00 | |
| OE5MMP-10 | 2026-08-31 00:54:46 | 48.49761 | 12.64597 | 55° | 22km/h | 17331m | -6.2m/s | -54.8°C | 4.4% | 88.9hPa | 2.6V | 00:00:00 | 02:25:27 | 00:00:00 | |
| OE5REO-15 | 2026-08-31 00:54:45 | 48.49761 | 12.64597 | 55° | 29km/h | 17331m | -6.2m/s | -54.9°C | 1.4% | 88.9hPa | 2.6V | 08:09:00 | 00:00:00 | 00:00:00 | |
| DO3MHA-11 | 2026-08-31 00:54:44 | 48.49752 | 12.64580 | 57° | 20km/h | 17343m | -6.1m/s | -54.7°C | 4.4% | 88.7hPa | 2.6V | 00:00:00 | 02:25:25 | 00:00:00 | |
| OE5DRO-10 | 2026-08-31 00:54:43 | 48.49749 | 12.64573 | 51° | 16km/h | 17350m | -6.5m/s | -54.7°C | 4.4% | 88.6hPa | 2.6V | 00:00:00 | 00:00:00 | 00:00:00 | |
| OE5WHR-10 | 2026-08-31 00:54:41 | 48.49743 | 12.64559 | 58° | 15km/h | 17362m | -5.9m/s | -54.7°C | 4.4% | 88.4hPa | 2.6V | 00:00:00 | 02:25:22 | 00:00:00 | |
| DO8TBO-1 | 2026-08-31 00:54:37 | 48.49732 | 12.64533 | 62° | 15km/h | 17388m | -6.1m/s | 0°C | 0% | 0hPa | 2.6V | 00:00:00 | 02:25:18 | 00:00:00 | |
| OE5MMP-10 | 2026-08-31 00:54:36 | 48.49730 | 12.64527 | 67° | 15km/h | 17394m | -6.1m/s | -54.4°C | 4.3% | 88.0hPa | 2.6V | 00:00:00 | 02:25:17 | 00:00:00 | |
| DO3MHA-11 | 2026-08-31 00:54:34 | 48.49726 | 12.64515 | 68° | 13km/h | 17407m | -6.1m/s | -54.4°C | 4.3% | 87.8hPa | 2.6V | 00:00:00 | 02:25:15 | 00:00:00 | |
| BAUMI2-15 | 2026-08-31 00:54:31 | 48.49724 | 12.64499 | 76° | 13km/h | 17425m | -6.4m/s | -54.3°C | 4.3% | 87.6hPa | 2.4V | 00:00:00 | 02:25:12 | 00:00:00 | |
| OE5REO-15 | 2026-08-31 00:54:29 | 48.49723 | 12.64495 | 87° | 15km/h | 17432m | -6.3m/s | -54.4°C | 1.3% | 87.6hPa | 2.5V | 08:10:00 | 00:00:00 | 00:00:00 | |
| BAUMI2-15 | 2026-08-31 00:54:26 | 48.49722 | 12.64476 | 88° | 13km/h | 17457m | -6.1m/s | -54.2°C | 4.2% | 87.2hPa | 2.5V | 00:00:00 | 02:25:07 | 00:00:00 | |
| DO3MHA-11 | 2026-08-31 00:54:24 | 48.49723 | 12.64468 | 89° | 20km/h | 17469m | -6.3m/s | -54.2°C | 4.2% | 87.0hPa | 2.5V | 00:00:00 | 02:25:05 | 00:00:00 | |
| OE5HKT-10 | 2026-08-31 00:54:23 | 48.49723 | 12.64462 | 110° | 27km/h | 17475m | -6.3m/s | -54.1°C | 4.2% | 86.9hPa | 2.5V | 00:00:00 | 00:00:00 | 00:00:00 | |
| BAUMI2-15 | 2026-08-31 00:54:21 | 48.49725 | 12.64451 | 113° | 22km/h | 17489m | -6.1m/s | -54.2°C | 4.2% | 86.8hPa | 2.5V | 00:00:00 | 02:25:02 | 00:00:00 | |
| OE5WHR-10 | 2026-08-31 00:54:20 | 48.49727 | 12.64445 | 116° | 31km/h | 17495m | -6.1m/s | -54.2°C | 4.2% | 86.7hPa | 2.5V | 08:10:00 | 00:00:00 | 00:00:00 | |
| OE5DXL-15 | 2026-08-31 00:54:17 | 48.49734 | 12.64421 | 114° | 38km/h | 17513m | -6.3m/s | -54.3°C | 4.2% | 86.4hPa | 2.6V | 00:00:00 | 00:00:00 | 00:00:00 | |
| OE5MMP-10 | 2026-08-31 00:54:16 | 48.49737 | 12.64411 | 117° | 31km/h | 17519m | -6.3m/s | -54.4°C | 4.2% | 86.3hPa | 2.6V | 00:00:00 | 02:24:57 | 00:00:00 | |
| OE5FHM-15 | 2026-08-31 00:54:15 | 48.49740 | 12.64401 | 118° | 40km/h | 17525m | -6.0m/s | -54.4°C | 4.2% | 86.2hPa | 2.6V | 00:00:00 | 02:24:56 | 00:00:00 | |
| DO3MHA-11 | 2026-08-31 00:54:14 | 48.49743 | 12.64391 | 113° | 33km/h | 17531m | -6.2m/s | -54.4°C | 4.3% | 86.2hPa | 2.6V | 00:00:00 | 02:24:55 | 00:00:00 | |
| OE5REO-15 | 2026-08-31 00:54:13 | 48.49743 | 12.64391 | 114° | 31km/h | 17531m | -6.2m/s | -54.5°C | 1.3% | 86.2hPa | 2.6V | 08:10:00 | 00:00:00 | 00:00:00 | |
| BAUMI2-15 | 2026-08-31 00:54:11 | 48.49753 | 12.64358 | 117° | 33km/h | 17549m | -6.1m/s | -54.6°C | 4.4% | 85.9hPa | 2.6V | 00:00:00 | 02:24:52 | 00:00:00 | |
| OE5MMP-10 | 2026-08-31 00:54:06 | 48.49769 | 12.64300 | 113° | 37km/h | 17579m | -5.9m/s | -54.7°C | 4.4% | 85.5hPa | 2.6V | 00:00:00 | 02:24:47 | 00:00:00 | |
| DO3MHA-11 | 2026-08-31 00:54:04 | 48.49775 | 12.64276 | 109° | 40km/h | 17591m | -6.2m/s | -54.6°C | 4.4% | 85.3hPa | 2.6V | 00:00:00 | 02:24:45 | 00:00:00 | |
| OE5HKT-10 | 2026-08-31 00:54:02 | 48.49782 | 12.64251 | 111° | 46km/h | 17603m | -6.1m/s | -54.5°C | 4.3% | 85.2hPa | 2.5V | 00:00:00 | 02:24:43 | 00:00:00 | |
| BAUMI2-15 | 2026-08-31 00:54:01 | 48.49785 | 12.64238 | 110° | 40km/h | 17609m | -6.2m/s | -54.5°C | 4.3% | 85.1hPa | 2.5V | 00:00:00 | 02:24:42 | 00:00:00 | |
| OE5WHR-10 | 2026-08-31 00:53:59 | 48.49792 | 12.64211 | 107° | 47km/h | 17621m | -6.2m/s | -54.5°C | 4.3% | 84.9hPa | 2.6V | 00:00:00 | 00:00:00 | 00:00:00 | |
| OE5REO-15 | 2026-08-31 00:53:57 | 48.49795 | 12.64196 | 110° | 44km/h | 17627m | -6.4m/s | -54.5°C | 1.3% | 84.9hPa | 2.6V | 08:10:00 | 00:00:00 | 00:00:00 | |
| OE5MMP-10 | 2026-08-31 00:53:56 | 48.49801 | 12.64164 | 104° | 49km/h | 17640m | -6.4m/s | -54.4°C | 4.2% | 84.6hPa | 2.6V | 00:00:00 | 02:24:37 | 00:00:00 | |
| DO3MHA-11 | 2026-08-31 00:53:54 | 48.49806 | 12.64129 | 97° | 49km/h | 17652m | -6.5m/s | -54.4°C | 4.2% | 84.5hPa | 2.6V | 00:00:00 | 02:24:35 | 00:00:00 | |
| BAUMI2-15 | 2026-08-31 00:53:51 | 48.49808 | 12.64073 | 88° | 51km/h | 17673m | -6.4m/s | -54.5°C | 4.3% | 84.2hPa | 2.6V | 00:00:00 | 02:24:32 | 00:00:00 | |
| OE5DXL-15 | 2026-08-31 00:53:48 | 48.49799 | 12.63979 | 73° | 38km/h | 17705m | -6.2m/s | -54.6°C | 4.3% | 83.8hPa | 2.6V | 00:00:00 | 00:00:00 | 00:00:00 | |
| OE5MMP-10 | 2026-08-31 00:53:46 | 48.49799 | 12.63979 | 73° | 47km/h | 17705m | -6.2m/s | -54.6°C | 4.3% | 83.8hPa | 2.6V | 08:10:00 | 02:24:27 | 00:00:00 | |
| OE5FHM-15 | 2026-08-31 00:53:45 | 48.49795 | 12.63961 | 73° | 35km/h | 17711m | -6.2m/s | -54.7°C | 4.3% | 83.7hPa | 2.6V | 08:10:00 | 02:24:26 | 00:00:00 | |
| DO3MHA-11 | 2026-08-31 00:53:44 | 48.49791 | 12.63943 | 68° | 46km/h | 17717m | -6.4m/s | -54.7°C | 4.3% | 83.6hPa | 2.5V | 00:00:00 | 02:24:25 | 00:00:00 | |
| DB0UT-7 | 2026-08-31 00:53:43 | 48.49786 | 12.63926 | 69° | 35km/h | 17723m | -6.1m/s | 0°C | 0% | 0hPa | 2.5V | 08:10:00 | 02:24:24 | 00:00:00 | |
| OE5HKT-10 | 2026-08-31 00:53:41 | 48.49776 | 12.63893 | 67° | 35km/h | 17735m | -6.1m/s | -54.8°C | 4.3% | 83.4hPa | 2.5V | 08:10:00 | 00:00:00 | 00:00:00 | |
| OE5WHR-10 | 2026-08-31 00:53:38 | 48.49760 | 12.63845 | 60° | 33km/h | 17753m | -6.1m/s | -54.7°C | 4.3% | 83.2hPa | 2.6V | 00:00:00 | 02:24:19 | 00:00:00 | |
| OE5MMP-10 | 2026-08-31 00:53:36 | 48.49748 | 12.63817 | 57° | 35km/h | 17765m | -6.2m/s | -54.8°C | 4.4% | 83.0hPa | 2.6V | 00:00:00 | 02:24:17 | 00:00:00 | |
| DL6DJ-15 | 2026-08-31 00:53:35 | 48.49742 | 12.63804 | 53° | 38km/h | 17771m | -6.4m/s | -54.9°C | 1.3% | 83.0hPa | 2.6V | 00:00:00 | 00:00:00 | 00:00:00 | |
| DO3MHA-11 | 2026-08-31 00:53:34 | 48.49736 | 12.63791 | 57° | 33km/h | 17777m | -6.3m/s | -54.9°C | 4.4% | 82.9hPa | 2.6V | 08:11:00 | 02:24:15 | 00:00:00 | |
| BAUMI2-15 | 2026-08-31 00:53:31 | 48.49720 | 12.63758 | 52° | 33km/h | 17796m | -6.2m/s | -55.0°C | 4.4% | 82.6hPa | 2.5V | 08:11:00 | 02:24:12 | 00:00:00 | |
| OE5REO-15 | 2026-08-31 00:53:27 | 48.49699 | 12.63720 | 50° | 29km/h | 17822m | -6.3m/s | -55.3°C | 1.4% | 82.3hPa | 2.6V | 08:11:00 | 00:00:00 | 00:00:00 | |
| BAUMI2-15 | 2026-08-31 00:53:26 | 48.49694 | 12.63712 | 47° | 26km/h | 17829m | -6.1m/s | -55.3°C | 4.5% | 82.2hPa | 2.6V | 00:00:00 | 02:24:07 | 00:00:00 | |
| DO3MHA-11 | 2026-08-31 00:53:24 | 48.49684 | 12.63698 | 49° | 26km/h | 17841m | -6.4m/s | -55.3°C | 4.5% | 82.1hPa | 2.6V | 00:00:00 | 02:24:05 | 00:00:00 | |
| BAUMI2-15 | 2026-08-31 00:53:21 | 48.49671 | 12.63679 | 45° | 26km/h | 17861m | -6.2m/s | -55.2°C | 4.5% | 81.8hPa | 2.6V | 00:00:00 | 02:24:02 | 00:00:00 | |
| OE5HKT-10 | 2026-08-31 00:53:20 | 48.49666 | 12.63673 | 38° | 31km/h | 17866m | -6.5m/s | -55.2°C | 4.5% | 81.7hPa | 2.6V | 00:00:00 | 00:00:00 | 00:00:00 | |
| OE5WHR-10 | 2026-08-31 00:53:17 | 48.49651 | 12.63653 | 42° | 31km/h | 17886m | -6.2m/s | -55.2°C | 4.5% | 81.4hPa | 2.6V | 00:00:00 | 00:00:00 | 00:00:00 | |
| OE5MMP-10 | 2026-08-31 00:53:16 | 48.49645 | 12.63646 | 43° | 33km/h | 17892m | -5.9m/s | -55.2°C | 4.5% | 81.4hPa | 2.6V | 00:00:00 | 02:23:57 | 00:00:00 | |
| OE5FHM-15 | 2026-08-31 00:53:15 | 48.49640 | 12.63638 | 43° | 31km/h | 17898m | -6.1m/s | -55.2°C | 4.5% | 81.3hPa | 2.5V | 00:00:00 | 02:23:56 | 00:00:00 | |
| DO3MHA-11 | 2026-08-31 00:53:14 | 48.49634 | 12.63631 | 46° | 35km/h | 17904m | -6.1m/s | -55.3°C | 4.5% | 81.2hPa | 2.5V | 00:00:00 | 02:23:55 | 00:00:00 | |
| DB0UT-7 | 2026-08-31 00:53:13 | 48.49629 | 12.63622 | 45° | 16km/h | 17910m | -6.2m/s | 0°C | 0% | 0hPa | 2.5V | 00:00:00 | 00:00:00 | 00:00:00 | |
| BAUMI2-15 | 2026-08-31 00:53:11 | 48.49618 | 12.63604 | 47° | 35km/h | 17923m | -6.1m/s | -55.3°C | 4.6% | 81.0hPa | 2.5V | 00:00:00 | 02:23:52 | 00:00:00 | |
| OE5DRO-10 | 2026-08-31 00:53:08 | 48.49599 | 12.63574 | 49° | 31km/h | 17941m | -6.2m/s | -55.1°C | 4.4% | 80.8hPa | 2.5V | 00:00:00 | 00:00:00 | 00:00:00 | |
| OE5MMP-10 | 2026-08-31 00:53:06 | 48.49586 | 12.63556 | 43° | 31km/h | 17953m | -6.3m/s | -55.2°C | 4.5% | 80.6hPa | 2.6V | 00:00:00 | 02:23:47 | 00:00:00 | |
| DO3MHA-11 | 2026-08-31 00:53:04 | 48.49573 | 12.63539 | 37° | 29km/h | 17966m | -6.3m/s | -55.2°C | 4.5% | 80.4hPa | 2.6V | 00:00:00 | 02:23:45 | 00:00:00 | |
| BAUMI2-15 | 2026-08-31 00:53:01 | 48.49552 | 12.63521 | 27° | 29km/h | 17984m | -6.3m/s | -55.2°C | 4.5% | 80.2hPa | 2.5V | 00:00:00 | 02:23:42 | 00:00:00 | |
| OE5HKT-10 | 2026-08-31 00:53:00 | 48.49538 | 12.63512 | 20° | 24km/h | 17997m | -6.5m/s | -55.2°C | 4.5% | 80.0hPa | 2.5V | 00:00:00 | 02:23:40 | 00:00:00 | |
| OE5WHR-10 | 2026-08-31 00:52:56 | 48.49518 | 12.63500 | 22° | 20km/h | 18016m | -6.8m/s | -55.3°C | 4.6% | 79.8hPa | 2.5V | 00:00:00 | 00:00:00 | 00:00:00 | |
| OE5REO-15 | 2026-08-31 00:52:55 | 48.49518 | 12.63500 | 23° | 29km/h | 18016m | -6.9m/s | -55.3°C | 1.4% | 79.8hPa | 2.5V | 08:12:00 | 00:00:00 | 00:00:00 | |
| DO3MHA-11 | 2026-08-31 00:52:54 | 48.49505 | 12.63492 | 26° | 26km/h | 18030m | -6.3m/s | -55.3°C | 4.6% | 79.6hPa | 2.5V | 00:00:00 | 02:23:35 | 00:00:00 | |
| DK5PH-5 | 2026-08-31 00:52:51 | 48.49485 | 12.63478 | 26° | 11km/h | 18048m | -5.9m/s | -55.4°C | 4.7% | 79.4hPa | 2.5V | 00:00:00 | 02:23:32 | 00:00:00 | |
| OE5DRO-10 | 2026-08-31 00:52:49 | 48.49473 | 12.63469 | 25° | 13km/h | 18060m | -6.1m/s | -55.4°C | 4.7% | 79.2hPa | 2.6V | 00:00:00 | 00:00:00 | 00:00:00 | |
| OE5MMP-10 | 2026-08-31 00:52:46 | 48.49456 | 12.63459 | 22° | 15km/h | 18079m | -6.4m/s | -55.2°C | 4.6% | 79.0hPa | 2.6V | 00:00:00 | 02:23:27 | 00:00:00 | |
| OE5FHM-15 | 2026-08-31 00:52:45 | 48.49451 | 12.63456 | 20° | 7km/h | 18086m | -6.4m/s | -55.2°C | 4.6% | 78.9hPa | 2.5V | 00:00:00 | 02:23:26 | 00:00:00 | |
| DO3MHA-11 | 2026-08-31 00:52:44 | 48.49446 | 12.63453 | 22° | 11km/h | 18092m | -6.5m/s | -55.1°C | 4.6% | 78.8hPa | 2.5V | 00:00:00 | 02:23:25 | 00:00:00 | |
| DH7VM-15 | 2026-08-31 00:52:39 | 48.49432 | 12.63444 | 24° | 11km/h | 18118m | -6.5m/s | 0°C | 0% | 78.5hPa | 2.5V | 00:00:00 | 00:00:00 | 00:00:00 | |
| OE5HKT-10 | 2026-08-31 00:52:38 | 48.49427 | 12.63441 | 26° | 4km/h | 18131m | -6.4m/s | -54.7°C | 4.4% | 78.3hPa | 2.5V | 00:00:00 | 00:00:00 | 00:00:00 | |
| OE5MMP-10 | 2026-08-31 00:52:36 | 48.49423 | 12.63438 | 20° | 4km/h | 18144m | -6.3m/s | -54.5°C | 4.3% | 78.2hPa | 2.6V | 00:00:00 | 02:23:17 | 00:00:00 | |
| OE5WHR-10 | 2026-08-31 00:52:35 | 48.49421 | 12.63438 | 17° | 4km/h | 18151m | -6.4m/s | -54.5°C | 4.3% | 78.1hPa | 2.6V | 00:00:00 | 02:23:16 | 00:00:00 | |
| DO3MHA-11 | 2026-08-31 00:52:34 | 48.49419 | 12.63437 | 18° | 4km/h | 18157m | -6.6m/s | -54.5°C | 4.3% | 78.0hPa | 2.6V | 00:00:00 | 02:23:15 | 00:00:00 | |
| DL6DJ-15 | 2026-08-31 00:52:33 | 48.49418 | 12.63436 | 28° | 4km/h | 18164m | -6.5m/s | -54.5°C | 1.3% | 78.0hPa | 2.5V | 00:00:00 | 00:00:00 | 00:00:00 | |
| OE5DRO-10 | 2026-08-31 00:52:30 | 48.49417 | 12.63434 | 90° | 2km/h | 18183m | -6.3m/s | -54.4°C | 4.2% | 77.7hPa | 2.5V | 00:00:00 | 00:00:00 | 00:00:00 | |
| OE5MMP-10 | 2026-08-31 00:52:26 | 48.49419 | 12.63430 | 136° | 2km/h | 18209m | -6.2m/s | -54.3°C | 4.2% | 77.4hPa | 2.5V | 00:00:00 | 02:23:07 | 00:00:00 | |
| DO3MHA-11 | 2026-08-31 00:52:24 | 48.49420 | 12.63430 | 167° | 4km/h | 18221m | -6.2m/s | -54.4°C | 4.2% | 77.3hPa | 2.5V | 00:00:00 | 02:23:05 | 00:00:00 | |
| DK5PH-5 | 2026-08-31 00:52:21 | 48.49421 | 12.63431 | 213° | 9km/h | 18240m | -6.4m/s | -54.4°C | 4.2% | 77.0hPa | 2.5V | 00:00:00 | 02:23:02 | 00:00:00 | |
| OE5HKT-10 | 2026-08-31 00:52:17 | 48.49423 | 12.63435 | 252° | 7km/h | 18266m | -6.3m/s | -54.6°C | 4.2% | 76.7hPa | 2.5V | 00:00:00 | 00:00:00 | 00:00:00 | |
| OE5MMP-10 | 2026-08-31 00:52:16 | 48.49424 | 12.63436 | 253° | 4km/h | 18272m | -6.4m/s | -54.6°C | 4.3% | 76.7hPa | 2.5V | 08:12:00 | 02:22:57 | 00:00:00 | |
| OE5FHM-15 | 2026-08-31 00:52:15 | 48.49424 | 12.63437 | 259° | 13km/h | 18279m | -6.3m/s | -54.7°C | 4.3% | 76.6hPa | 2.5V | 00:00:00 | 02:22:56 | 00:00:00 | |
| DO3MHA-11 | 2026-08-31 00:52:14 | 48.49424 | 12.63438 | 269° | 4km/h | 18285m | -6.3m/s | -54.7°C | 4.3% | 76.5hPa | 2.6V | 00:00:00 | 02:22:55 | 00:00:00 | |
| OE5DRO-10 | 2026-08-31 00:52:11 | 48.49424 | 12.63440 | 257° | 11km/h | 18304m | -6.2m/s | -54.8°C | 4.3% | 76.2hPa | 2.6V | 08:12:00 | 00:00:00 | 00:00:00 | |
| OE5REO-15 | 2026-08-31 00:52:08 | 48.49425 | 12.63442 | 228° | 4km/h | 18317m | -6.1m/s | -54.9°C | 1.3% | 76.2hPa | 2.5V | 08:12:00 | 00:00:00 | 00:00:00 | |
| OE5MMP-10 | 2026-08-31 00:52:06 | 48.49428 | 12.63446 | 208° | 13km/h | 18336m | -6.3m/s | -55.0°C | 4.3% | 75.9hPa | 2.5V | 00:00:00 | 02:22:47 | 00:00:00 | |
| DO3MHA-11 | 2026-08-31 00:52:04 | 48.49433 | 12.63449 | 204° | 15km/h | 18348m | -6.2m/s | -55.1°C | 4.3% | 75.7hPa | 2.5V | 08:12:00 | 02:22:45 | 00:00:00 | |
| DL6DJ-15 | 2026-08-31 00:52:02 | 48.49438 | 12.63452 | 197° | 13km/h | 18361m | -6.5m/s | -55.3°C | 1.3% | 75.6hPa | 2.6V | 00:00:00 | 00:00:00 | 00:00:00 | |
| PG1ADW-2 | 2026-08-31 00:51:59 | 48.49448 | 12.63456 | 185° | 22km/h | 18381m | -6.6m/s | -55.4°C | 4.5% | 75.3hPa | 2.6V | 08:12:00 | 00:00:00 | 00:00:00 | |
| OE5MMP-10 | 2026-08-31 00:51:56 | 48.49460 | 12.63455 | 169° | 22km/h | 18400m | -6.3m/s | -55.5°C | 4.6% | 75.1hPa | 2.5V | 00:00:00 | 02:22:37 | 00:00:00 | |
| DO3MHA-11 | 2026-08-31 00:51:54 | 48.49469 | 12.63450 | 158° | 22km/h | 18413m | -6.4m/s | -55.5°C | 4.6% | 75.0hPa | 2.5V | 00:00:00 | 02:22:35 | 00:00:00 | |
| OE5WHR-10 | 2026-08-31 00:51:53 | 48.49473 | 12.63447 | 153° | 29km/h | 18419m | -6.2m/s | -55.4°C | 4.6% | 74.9hPa | 2.5V | 00:00:00 | 00:00:00 | 00:00:00 | |
| OE5DRO-10 | 2026-08-31 00:51:52 | 48.49478 | 12.63443 | 146° | 29km/h | 18426m | -6.3m/s | -55.4°C | 4.6% | 74.8hPa | 2.5V | 00:00:00 | 00:00:00 | 00:00:00 | |
| OE5MMP-10 | 2026-08-31 00:51:46 | 48.49495 | 12.63399 | 95° | 31km/h | 18465m | -6.5m/s | -55.2°C | 4.5% | 74.4hPa | 2.5V | 00:00:00 | 02:22:27 | 00:00:00 | |
| OE5FHM-15 | 2026-08-31 00:51:45 | 48.49496 | 12.63389 | 93° | 37km/h | 18472m | -6.6m/s | -55.2°C | 4.5% | 74.3hPa | 2.5V | 00:00:00 | 02:22:26 | 00:00:00 | |
| DO3MHA-11 | 2026-08-31 00:51:44 | 48.49496 | 12.63378 | 83° | 33km/h | 18479m | -6.5m/s | -55.1°C | 4.5% | 74.2hPa | 2.5V | 00:00:00 | 02:22:25 | 00:00:00 | |
| PG1ADW-2 | 2026-08-31 00:51:39 | 48.49483 | 12.63324 | 58° | 40km/h | 18512m | -6.6m/s | -55.2°C | 4.4% | 73.8hPa | 2.5V | 00:00:00 | 00:00:00 | 00:00:00 | |
| OE5REO-15 | 2026-08-31 00:51:37 | 48.49472 | 12.63302 | 48° | 37km/h | 18525m | -6.3m/s | -55.3°C | 1.3% | 73.7hPa | 2.5V | 08:13:00 | 00:00:00 | 00:00:00 | |
| OE5MMP-10 | 2026-08-31 00:51:36 | 48.49465 | 12.63292 | 44° | 40km/h | 18531m | -6.2m/s | -55.2°C | 4.4% | 73.6hPa | 2.5V | 00:00:00 | 02:22:17 | 00:00:00 | |
| OE5HKT-10 | 2026-08-31 00:51:35 | 48.49458 | 12.63282 | 41° | 40km/h | 18538m | -6.2m/s | -55.2°C | 4.4% | 73.5hPa | 2.5V | 00:00:00 | 00:00:00 | 00:00:00 | |
| DO3MHA-11 | 2026-08-31 00:51:34 | 48.49450 | 12.63273 | 38° | 42km/h | 18544m | -6.3m/s | -55.2°C | 4.4% | 73.4hPa | 2.5V | 00:00:00 | 02:22:15 | 00:00:00 | |
| OE5DRO-10 | 2026-08-31 00:51:33 | 48.49442 | 12.63264 | 36° | 40km/h | 18550m | -6.3m/s | -55.2°C | 4.4% | 73.4hPa | 2.5V | 00:00:00 | 00:00:00 | 00:00:00 | |
| OE5WHR-10 | 2026-08-31 00:51:32 | 48.49434 | 12.63256 | 33° | 38km/h | 18556m | -6.5m/s | -55.2°C | 4.4% | 73.3hPa | 2.5V | 00:00:00 | 02:22:13 | 00:00:00 | |
| DL6DJ-15 | 2026-08-31 00:51:31 | 48.49425 | 12.63248 | 30° | 40km/h | 18563m | -6.6m/s | -55.2°C | 1.3% | 73.3hPa | 2.5V | 00:00:00 | 00:00:00 | 00:00:00 | |
| OE5MMP-10 | 2026-08-31 00:51:26 | 48.49375 | 12.63217 | 18° | 40km/h | 18596m | -6.5m/s | -55.3°C | 4.4% | 72.8hPa | 2.5V | 00:00:00 | 02:22:07 | 00:00:00 | |
| DO3MHA-11 | 2026-08-31 00:51:24 | 48.49354 | 12.63208 | 12° | 37km/h | 18609m | -6.3m/s | -55.3°C | 4.5% | 72.7hPa | 2.5V | 00:00:00 | 02:22:05 | 00:00:00 | |
| OE5REO-15 | 2026-08-31 00:51:22 | 48.49333 | 12.63202 | 12° | 42km/h | 18621m | -6.5m/s | -55.4°C | 1.3% | 72.6hPa | 2.5V | 08:13:00 | 00:00:00 | 00:00:00 | |
| DK5PH-5 | 2026-08-31 00:51:21 | 48.49323 | 12.63200 | 8° | 20km/h | 18628m | -6.6m/s | -55.4°C | 4.5% | 72.5hPa | 2.5V | 00:00:00 | 02:22:02 | 00:00:00 | |
| PG1ADW-2 | 2026-08-31 00:51:19 | 48.49304 | 12.63197 | 8° | 24km/h | 18641m | -6.3m/s | -55.5°C | 4.5% | 72.3hPa | 2.5V | 00:00:00 | 00:00:00 | 00:00:00 | |
| OE5MMP-10 | 2026-08-31 00:51:16 | 48.49278 | 12.63195 | 358° | 26km/h | 18660m | -6.5m/s | -55.6°C | 4.5% | 72.1hPa | 2.5V | 00:00:00 | 02:21:57 | 00:00:00 | |
| OE5FHM-15 | 2026-08-31 00:51:15 | 48.49270 | 12.63196 | 359° | 15km/h | 18667m | -6.1m/s | -55.6°C | 4.6% | 72.0hPa | 2.5V | 00:00:00 | 02:21:56 | 00:00:00 | |
| DO3MHA-11 | 2026-08-31 00:51:14 | 48.49263 | 12.63196 | 359° | 24km/h | 18673m | -6.2m/s | -55.7°C | 4.6% | 71.9hPa | 2.5V | 00:00:00 | 02:21:55 | 00:00:00 | |
| OE5WHR-10 | 2026-08-31 00:51:11 | 48.49243 | 12.63198 | 357° | 15km/h | 18692m | -6.2m/s | -55.8°C | 4.7% | 71.7hPa | 2.5V | 08:13:00 | 00:00:00 | 00:00:00 | |
| OE5MMP-10 | 2026-08-31 00:51:06 | 48.49216 | 12.63203 | 357° | 13km/h | 18724m | -6.3m/s | -55.6°C | 4.7% | 71.4hPa | 2.5V | 00:00:00 | 02:21:47 | 00:00:00 | |
| OE5REO-15 | 2026-08-31 00:51:05 | 48.49216 | 12.63203 | 358° | 18km/h | 18724m | -6.4m/s | -55.7°C | 1.4% | 71.4hPa | 2.5V | 08:14:00 | 00:00:00 | 00:00:00 | |
| DO3MHA-11 | 2026-08-31 00:51:04 | 48.49208 | 12.63205 | 346° | 13km/h | 18736m | -6.4m/s | -55.6°C | 4.6% | 71.2hPa | 2.5V | 00:00:00 | 02:21:45 | 00:00:00 | |
| DL6DJ-15 | 2026-08-31 00:51:00 | 48.49195 | 12.63210 | 342° | 11km/h | 18762m | -6.7m/s | -55.5°C | 1.3% | 71.0hPa | 2.5V | 00:00:00 | 00:00:00 | 00:00:00 | |
| PG1ADW-2 | 2026-08-31 00:50:59 | 48.49192 | 12.63210 | 352° | 9km/h | 18769m | -6.8m/s | -55.4°C | 4.5% | 70.9hPa | 2.5V | 00:00:00 | 02:21:40 | 00:00:00 | |
| OE5MMP-10 | 2026-08-31 00:50:56 | 48.49185 | 12.63215 | 336° | 9km/h | 18788m | -6.6m/s | -55.5°C | 4.5% | 70.6hPa | 2.5V | 00:00:00 | 02:21:37 | 00:00:00 | |
| OE5DRO-10 | 2026-08-31 00:50:55 | 48.49182 | 12.63217 | 319° | 5km/h | 18795m | -6.6m/s | -55.5°C | 4.6% | 70.5hPa | 2.5V | 00:00:00 | 00:00:00 | 00:00:00 | |
| DO3MHA-11 | 2026-08-31 00:50:54 | 48.49180 | 12.63220 | 327° | 7km/h | 18802m | -6.6m/s | -55.5°C | 4.6% | 70.5hPa | 2.5V | 00:00:00 | 02:21:35 | 00:00:00 | |
| OE5HKT-10 | 2026-08-31 00:50:53 | 48.49178 | 12.63222 | 313° | 4km/h | 18809m | -6.4m/s | -55.5°C | 4.5% | 70.4hPa | 2.5V | 00:00:00 | 02:21:34 | 00:00:00 | |
| DK5PH-5 | 2026-08-31 00:50:51 | 48.49175 | 12.63228 | 305° | 7km/h | 18822m | -6.6m/s | -55.6°C | 4.6% | 70.2hPa | 2.5V | 00:00:00 | 02:21:32 | 00:00:00 | |
| OE5WHR-10 | 2026-08-31 00:50:50 | 48.49175 | 12.63230 | 279° | 4km/h | 18828m | -6.5m/s | -55.5°C | 4.6% | 70.2hPa | 2.5V | 00:00:00 | 00:00:00 | 00:00:00 | |
| OE5MMP-10 | 2026-08-31 00:50:46 | 48.49174 | 12.63240 | 236° | 2km/h | 18855m | -6.4m/s | -55.4°C | 4.6% | 69.9hPa | 2.5V | 08:13:00 | 02:21:27 | 00:00:00 | |
| OE5FHM-15 | 2026-08-31 00:50:45 | 48.49175 | 12.63240 | 218° | 9km/h | 18862m | -6.2m/s | -55.3°C | 4.6% | 69.8hPa | 2.5V | 00:00:00 | 02:21:26 | 00:00:00 | |
| DO3MHA-11 | 2026-08-31 00:50:44 | 48.49175 | 12.63241 | 197° | 2km/h | 18868m | -6.0m/s | -55.2°C | 4.5% | 69.8hPa | 2.5V | 00:00:00 | 02:21:25 | 00:00:00 | |
| BAUMI2-15 | 2026-08-31 00:50:42 | 48.49175 | 12.63241 | 126° | 2km/h | 18881m | -6.2m/s | -55.1°C | 4.5% | 69.6hPa | 2.5V | 00:00:00 | 02:21:23 | 00:00:00 | |
| OE5DXL-15 | 2026-08-31 00:50:41 | 48.49176 | 12.63240 | 294° | 9km/h | 18900m | -6.4m/s | -55.1°C | 4.5% | 69.4hPa | 2.5V | 08:14:00 | 00:00:00 | 00:00:00 | |
| PG1ADW-2 | 2026-08-31 00:50:39 | 48.49176 | 12.63240 | 294° | 15km/h | 18900m | -6.4m/s | -55.1°C | 4.5% | 69.4hPa | 2.5V | 00:00:00 | 00:00:00 | 00:00:00 | |
| BAUMI2-15 | 2026-08-31 00:50:37 | 48.49175 | 12.63242 | 342° | 4km/h | 18913m | -6.7m/s | -55.2°C | 4.5% | 69.3hPa | 2.5V | 00:00:00 | 02:21:18 | 00:00:00 | |
| OE5MMP-10 | 2026-08-31 00:50:36 | 48.49175 | 12.63242 | 175° | 7km/h | 18920m | -6.4m/s | -55.2°C | 4.5% | 69.2hPa | 2.5V | 00:00:00 | 02:21:17 | 00:00:00 | |
| OE5REO-15 | 2026-08-31 00:50:35 | 48.49175 | 12.63242 | 0° | 0km/h | 18920m | -6.5m/s | -55.2°C | 1.3% | 69.2hPa | 2.5V | 08:14:00 | 00:00:00 | 00:00:00 | |
| DO3MHA-11 | 2026-08-31 00:50:34 | 48.49176 | 12.63242 | 127° | 11km/h | 18934m | -6.8m/s | -55.2°C | 4.5% | 69.0hPa | 2.5V | 08:14:00 | 02:21:15 | 00:00:00 | |
| OE5HKT-10 | 2026-08-31 00:50:32 | 48.49178 | 12.63238 | 123° | 16km/h | 18948m | -6.8m/s | -55.1°C | 4.4% | 68.9hPa | 2.6V | 08:14:00 | 00:00:00 | 00:00:00 | |
| OE5WHR-10 | 2026-08-31 00:50:29 | 48.49182 | 12.63229 | 119° | 18km/h | 18969m | -6.7m/s | -55.2°C | 4.5% | 68.6hPa | 2.5V | 00:00:00 | 02:21:10 | 00:00:00 | |
| BAUMI2-15 | 2026-08-31 00:50:27 | 48.49184 | 12.63219 | 105° | 16km/h | 18983m | -6.5m/s | -55.2°C | 4.5% | 68.5hPa | 2.5V | 00:00:00 | 02:21:08 | 00:00:00 | |
| OE5MMP-10 | 2026-08-31 00:50:26 | 48.49184 | 12.63214 | 97° | 18km/h | 18989m | -6.5m/s | -55.2°C | 4.5% | 68.4hPa | 2.5V | 00:00:00 | 02:21:07 | 00:00:00 | |
| DO3MHA-11 | 2026-08-31 00:50:24 | 48.49184 | 12.63201 | 92° | 18km/h | 19002m | -6.5m/s | -55.2°C | 4.5% | 68.3hPa | 2.5V | 00:00:00 | 02:21:05 | 00:00:00 | |
| BAUMI2-15 | 2026-08-31 00:50:22 | 48.49184 | 12.63187 | 88° | 18km/h | 19016m | -6.6m/s | -55.1°C | 4.4% | 68.2hPa | 2.5V | 00:00:00 | 02:21:03 | 00:00:00 | |
| DK5PH-5 | 2026-08-31 00:50:21 | 48.49184 | 12.63180 | 91° | 24km/h | 19022m | -6.6m/s | -55.1°C | 4.4% | 68.1hPa | 2.5V | 00:00:00 | 02:21:02 | 00:00:00 | |
| OE5REO-15 | 2026-08-31 00:50:19 | 48.49183 | 12.63172 | 85° | 18km/h | 19029m | -6.6m/s | -55.0°C | 1.3% | 68.1hPa | 2.5V | 08:15:00 | 00:00:00 | 00:00:00 | |
| BAUMI2-15 | 2026-08-31 00:50:17 | 48.49182 | 12.63150 | 92° | 20km/h | 19048m | -6.6m/s | -54.9°C | 4.3% | 67.8hPa | 2.5V | 00:00:00 | 02:20:58 | 00:00:00 | |
| OE5MMP-10 | 2026-08-31 00:50:16 | 48.49182 | 12.63143 | 87° | 22km/h | 19055m | -6.5m/s | -54.9°C | 4.3% | 67.8hPa | 2.5V | 00:00:00 | 02:20:57 | 00:00:00 | |
| OE5FHM-15 | 2026-08-31 00:50:15 | 48.49182 | 12.63136 | 90° | 26km/h | 19062m | -6.5m/s | -54.9°C | 4.3% | 67.7hPa | 2.6V | 00:00:00 | 02:20:56 | 00:00:00 | |
| DO3MHA-11 | 2026-08-31 00:50:14 | 48.49182 | 12.63128 | 90° | 22km/h | 19068m | -6.7m/s | -54.9°C | 4.3% | 67.6hPa | 2.6V | 00:00:00 | 02:20:55 | 00:00:00 | |
| BAUMI2-15 | 2026-08-31 00:50:12 | 48.49182 | 12.63112 | 87° | 22km/h | 19082m | -6.5m/s | -54.9°C | 4.3% | 67.5hPa | 2.6V | 00:00:00 | 02:20:53 | 00:00:00 | |
| OE5DXL-15 | 2026-08-31 00:50:11 | 48.49181 | 12.63097 | 86° | 31km/h | 19096m | -6.5m/s | -54.9°C | 4.3% | 67.3hPa | 2.6V | 00:00:00 | 00:00:00 | 00:00:00 | |
| OE5HKT-10 | 2026-08-31 00:50:10 | 48.49181 | 12.63097 | 86° | 26km/h | 19096m | -6.5m/s | -54.9°C | 4.3% | 67.3hPa | 2.6V | 00:00:00 | 00:00:00 | 00:00:00 | |
| OE5WHR-10 | 2026-08-31 00:50:08 | 48.49180 | 12.63080 | 81° | 27km/h | 19109m | -6.6m/s | -55.0°C | 4.3% | 67.2hPa | 2.6V | 00:00:00 | 00:00:00 | 00:00:00 | |
| BAUMI2-15 | 2026-08-31 00:50:07 | 48.49179 | 12.63071 | 83° | 24km/h | 19116m | -6.6m/s | -55.1°C | 4.4% | 67.1hPa | 2.5V | 00:00:00 | 02:20:48 | 00:00:00 | |
| OE5MMP-10 | 2026-08-31 00:50:06 | 48.49178 | 12.63063 | 81° | 24km/h | 19123m | -6.7m/s | -55.2°C | 4.4% | 67.0hPa | 2.5V | 00:00:00 | 02:20:47 | 00:00:00 | |
| DO3MHA-11 | 2026-08-31 00:50:04 | 48.49176 | 12.63046 | 78° | 26km/h | 19136m | -6.6m/s | -55.3°C | 4.4% | 66.9hPa | 2.5V | 00:00:00 | 02:20:45 | 00:00:00 | |
| BAUMI2-15 | 2026-08-31 00:50:02 | 48.49175 | 12.63029 | 79° | 24km/h | 19150m | -6.5m/s | -55.4°C | 4.5% | 66.7hPa | 2.6V | 08:14:00 | 02:20:43 | 00:00:00 | |
| DL6DJ-15 | 2026-08-31 00:49:58 | 48.49170 | 12.62984 | 85° | 26km/h | 19184m | -6.8m/s | -55.7°C | 0% | 66.4hPa | 2.6V | 00:00:00 | 00:00:00 | 00:00:00 | |
| BAUMI2-15 | 2026-08-31 00:49:57 | 48.49170 | 12.62984 | 86° | 29km/h | 19184m | -6.8m/s | -55.6°C | 4.5% | 66.4hPa | 2.6V | 00:00:00 | 02:20:38 | 00:00:00 | |
| OE5MMP-10 | 2026-08-31 00:49:56 | 48.49170 | 12.62973 | 86° | 33km/h | 19191m | -7.1m/s | -55.6°C | 4.6% | 66.3hPa | 2.6V | 00:00:00 | 02:20:37 | 00:00:00 | |
| DO3MHA-11 | 2026-08-31 00:49:54 | 48.49169 | 12.62951 | 88° | 35km/h | 19205m | -7.0m/s | -55.6°C | 4.6% | 66.2hPa | 2.6V | 00:00:00 | 02:20:35 | 00:00:00 | |
| BAUMI2-15 | 2026-08-31 00:49:52 | 48.49167 | 12.62928 | 83° | 33km/h | 19220m | -6.8m/s | -55.7°C | 4.7% | 66.0hPa | 2.6V | 00:00:00 | 02:20:33 | 00:00:00 | |
| DK5PH-5 | 2026-08-31 00:49:51 | 48.49166 | 12.62916 | 80° | 33km/h | 19227m | -6.9m/s | -55.7°C | 4.6% | 66.0hPa | 2.6V | 08:14:00 | 02:20:32 | 00:00:00 | |
| OE5HKT-10 | 2026-08-31 00:49:48 | 48.49159 | 12.62879 | 75° | 37km/h | 19247m | -6.7m/s | -55.8°C | 4.7% | 65.7hPa | 2.6V | 00:00:00 | 02:20:29 | 00:00:00 | |
| OE5WHR-10 | 2026-08-31 00:49:47 | 48.49157 | 12.62865 | 75° | 37km/h | 19254m | -6.8m/s | -55.7°C | 4.8% | 65.6hPa | 2.6V | 00:00:00 | 00:00:00 | 00:00:00 | |
| OE5MMP-10 | 2026-08-31 00:49:46 | 48.49154 | 12.62852 | 73° | 40km/h | 19261m | -6.8m/s | -55.7°C | 4.7% | 65.6hPa | 2.6V | 00:00:00 | 02:20:27 | 00:00:00 | |
| DO3MHA-11 | 2026-08-31 00:49:44 | 48.49148 | 12.62824 | 72° | 40km/h | 19274m | -6.8m/s | -55.6°C | 4.7% | 65.5hPa | 2.6V | 00:00:00 | 02:20:25 | 00:00:00 | |
| BAUMI2-15 | 2026-08-31 00:49:42 | 48.49142 | 12.62795 | 71° | 42km/h | 19288m | -6.7m/s | -55.5°C | 4.7% | 65.3hPa | 2.6V | 00:00:00 | 02:20:23 | 00:00:00 | |
| OE5DXL-15 | 2026-08-31 00:49:41 | 48.49131 | 12.62750 | 72° | 20km/h | 19308m | -6.7m/s | -55.1°C | 4.5% | 65.1hPa | 2.6V | 00:00:00 | 00:00:00 | 00:00:00 | |
| OE5DRO-10 | 2026-08-31 00:49:39 | 48.49131 | 12.62750 | 72° | 27km/h | 19308m | -6.7m/s | -55.1°C | 4.5% | 65.1hPa | 2.6V | 00:00:00 | 00:00:00 | 00:00:00 | |
| BAUMI2-15 | 2026-08-31 00:49:37 | 48.49125 | 12.62720 | 77° | 38km/h | 19322m | -6.9m/s | -54.9°C | 4.4% | 64.9hPa | 2.6V | 00:00:00 | 02:20:18 | 00:00:00 | |
| OE5MMP-10 | 2026-08-31 00:49:36 | 48.49124 | 12.62705 | 82° | 33km/h | 19329m | -6.8m/s | -54.9°C | 4.3% | 64.9hPa | 2.6V | 00:00:00 | 02:20:17 | 00:00:00 | |
| DO3MHA-11 | 2026-08-31 00:49:34 | 48.49123 | 12.62676 | 92° | 27km/h | 19343m | -6.9m/s | -54.9°C | 4.3% | 64.7hPa | 2.6V | 00:00:00 | 02:20:15 | 00:00:00 | |
| OE5REO-15 | 2026-08-31 00:49:33 | 48.49123 | 12.62676 | 92° | 37km/h | 19343m | -7.0m/s | -54.9°C | 1.2% | 64.8hPa | 2.5V | 08:15:00 | 00:00:00 | 00:00:00 | |
| BAUMI2-15 | 2026-08-31 00:49:32 | 48.49124 | 12.62648 | 100° | 31km/h | 19357m | -7.2m/s | -54.9°C | 4.4% | 64.6hPa | 2.5V | 00:00:00 | 02:20:13 | 00:00:00 | |
| OE5HKT-10 | 2026-08-31 00:49:28 | 48.49137 | 12.62597 | 123° | 11km/h | 19392m | -6.9m/s | -55.0°C | 4.4% | 64.2hPa | 2.6V | 00:00:00 | 00:00:00 | 00:00:00 | |
| OE5MMP-10 | 2026-08-31 00:49:27 | 48.49140 | 12.62590 | 125° | 9km/h | 19399m | -7.0m/s | -55.0°C | 4.4% | 64.2hPa | 2.5V | 00:00:00 | 02:20:07 | 00:00:00 | |
| DH7VM-15 | 2026-08-31 00:49:26 | 48.49139 | 12.62590 | 126° | 18km/h | 19399m | -7.1m/s | 0°C | 0% | 64.2hPa | 2.5V | 00:00:00 | 00:00:00 | 00:00:00 | |
| DO3MHA-11 | 2026-08-31 00:49:24 | 48.49144 | 12.62580 | 125° | 7km/h | 19413m | -6.9m/s | -55.1°C | 4.6% | 64.0hPa | 2.5V | 00:00:00 | 02:20:05 | 00:00:00 | |
| BAUMI2-15 | 2026-08-31 00:49:22 | 48.49147 | 12.62573 | 131° | 5km/h | 19426m | -6.7m/s | -55.2°C | 4.6% | 63.9hPa | 2.5V | 00:00:00 | 02:20:03 | 00:00:00 | |
| DK5PH-5 | 2026-08-31 00:49:21 | 48.49149 | 12.62570 | 135° | 22km/h | 19433m | -6.8m/s | -55.2°C | 4.7% | 63.8hPa | 2.5V | 00:00:00 | 02:20:02 | 00:00:00 | |
| OE5DRO-10 | 2026-08-31 00:49:20 | 48.49150 | 12.62569 | 138° | 15km/h | 19440m | -6.7m/s | -55.2°C | 4.7% | 63.8hPa | 2.5V | 08:15:00 | 00:00:00 | 00:00:00 | |
| BAUMI2-15 | 2026-08-31 00:49:17 | 48.49153 | 12.62568 | 194° | 7km/h | 19461m | -7.0m/s | -55.3°C | 4.7% | 63.5hPa | 2.6V | 08:15:00 | 02:19:58 | 00:00:00 | |
| OE5MMP-10 | 2026-08-31 00:49:16 | 48.49154 | 12.62569 | 202° | 13km/h | 19468m | -7.0m/s | -55.3°C | 4.7% | 63.4hPa | 2.6V | 08:15:00 | 02:19:57 | 00:00:00 | |
| OE5FHM-15 | 2026-08-31 00:49:15 | 48.49155 | 12.62569 | 207° | 27km/h | 19475m | -7.1m/s | -55.3°C | 4.7% | 63.4hPa | 2.5V | 08:15:00 | 02:19:56 | 00:00:00 | |
| DO3MHA-11 | 2026-08-31 00:49:14 | 48.49157 | 12.62571 | 213° | 16km/h | 19482m | -7.2m/s | -55.3°C | 4.7% | 63.3hPa | 2.6V | 00:00:00 | 02:19:55 | 00:00:00 | |
| BAUMI2-15 | 2026-08-31 00:49:12 | 48.49160 | 12.62576 | 239° | 15km/h | 19497m | -7.3m/s | -55.0°C | 4.6% | 63.2hPa | 2.6V | 00:00:00 | 02:19:53 | 00:00:00 | |
| DO7DH-14 | 2026-08-31 00:49:11 | 48.49161 | 12.62580 | 260° | 16km/h | 19504m | -7.3m/s | -54.7°C | 4.4% | 63.1hPa | 2.6V | 00:00:00 | 02:19:52 | 00:00:00 | |
| OE5DXL-15 | 2026-08-31 00:49:10 | 48.49161 | 12.62585 | 276° | 27km/h | 19511m | -7.3m/s | -54.5°C | 4.4% | 63.0hPa | 2.6V | 00:00:00 | 00:00:00 | 00:00:00 | |
| BAUMI2-15 | 2026-08-31 00:49:07 | 48.49155 | 12.62603 | 313° | 27km/h | 19533m | -7.3m/s | -54.4°C | 4.3% | 62.8hPa | 2.6V | 00:00:00 | 02:19:48 | 00:00:00 | |
| OE5HKT-10 | 2026-08-31 00:49:06 | 48.49151 | 12.62609 | 323° | 18km/h | 19541m | -7.3m/s | -54.4°C | 4.3% | 62.8hPa | 2.6V | 00:00:00 | 00:00:00 | 00:00:00 | |
| OE5WHR-10 | 2026-08-31 00:49:05 | 48.49145 | 12.62614 | 331° | 33km/h | 19548m | -7.1m/s | -54.4°C | 4.3% | 62.6hPa | 2.6V | 00:00:00 | 00:00:00 | 00:00:00 | |
| DO3MHA-11 | 2026-08-31 00:49:04 | 48.49138 | 12.62619 | 340° | 37km/h | 19555m | -7.3m/s | -54.4°C | 4.3% | 62.6hPa | 2.6V | 08:15:00 | 02:19:45 | 00:00:00 | |
| BAUMI2-15 | 2026-08-31 00:49:02 | 48.49122 | 12.62624 | 356° | 37km/h | 19569m | -7.1m/s | -54.3°C | 4.2% | 62.5hPa | 2.5V | 00:00:00 | 02:19:43 | 00:00:00 | |
| DL6DJ-15 | 2026-08-31 00:48:56 | 48.49061 | 12.62597 | 38° | 35km/h | 19620m | -7.1m/s | -54.5°C | 1.2% | 62.0hPa | 2.6V | 00:00:00 | 00:00:00 | 00:00:00 | |
| DO3MHA-11 | 2026-08-31 00:48:54 | 48.49055 | 12.62588 | 43° | 29km/h | 19627m | -7.3m/s | -54.5°C | 4.4% | 61.9hPa | 2.6V | 00:00:00 | 02:19:35 | 00:00:00 | |
| BAUMI2-15 | 2026-08-31 00:48:52 | 48.49043 | 12.62569 | 54° | 33km/h | 19642m | -7.4m/s | -54.5°C | 4.4% | 61.8hPa | 2.6V | 00:00:00 | 02:19:33 | 00:00:00 | |
| DK5PH-5 | 2026-08-31 00:48:51 | 48.49038 | 12.62558 | 59° | 26km/h | 19649m | -7.4m/s | -54.5°C | 4.4% | 61.7hPa | 2.6V | 00:00:00 | 02:19:32 | 00:00:00 | |
| OE5REO-15 | 2026-08-31 00:48:47 | 48.49028 | 12.62514 | 89° | 26km/h | 19679m | -7.6m/s | -54.3°C | 1.3% | 61.4hPa | 2.6V | 08:15:00 | 00:00:00 | 00:00:00 | |
| OE5FHM-15 | 2026-08-31 00:48:45 | 48.49030 | 12.62497 | 112° | 27km/h | 19694m | -7.4m/s | -54.1°C | 4.3% | 61.2hPa | 2.6V | 00:00:00 | 02:19:26 | 00:00:00 | |
| DO3MHA-11 | 2026-08-31 00:48:44 | 48.49032 | 12.62491 | 126° | 13km/h | 19702m | -7.3m/s | -54.1°C | 4.3% | 61.1hPa | 2.6V | 00:00:00 | 02:19:25 | 00:00:00 | |
| OE5DRO-10 | 2026-08-31 00:48:42 | 48.49037 | 12.62486 | 174° | 18km/h | 19716m | -7.2m/s | -54.1°C | 4.3% | 61.0hPa | 2.6V | 00:00:00 | 00:00:00 | 00:00:00 | |
| DO7DH-14 | 2026-08-31 00:48:41 | 48.49039 | 12.62486 | 203° | 20km/h | 19723m | -7.2m/s | -54.0°C | 4.3% | 61.0hPa | 2.6V | 00:00:00 | 02:19:22 | 00:00:00 | |
| OE5DXL-15 | 2026-08-31 00:48:40 | 48.49041 | 12.62488 | 229° | 27km/h | 19731m | -7.3m/s | -54.0°C | 4.3% | 60.9hPa | 2.5V | 00:00:00 | 00:00:00 | 00:00:00 | |
| PG1ADW-2 | 2026-08-31 00:48:37 | 48.49043 | 12.62502 | 275° | 33km/h | 19753m | -7.4m/s | -54.0°C | 4.3% | 60.7hPa | 2.5V | 00:00:00 | 00:00:00 | 00:00:00 | |
| OE5MMP-10 | 2026-08-31 00:48:36 | 48.49042 | 12.62508 | 287° | 29km/h | 19760m | -7.5m/s | -54.0°C | 4.3% | 60.6hPa | 2.5V | 00:00:00 | 02:19:17 | 00:00:00 | |
| OE5HKT-10 | 2026-08-31 00:48:35 | 48.49041 | 12.62514 | 297° | 24km/h | 19767m | -7.4m/s | -54.0°C | 4.3% | 60.6hPa | 2.5V | 00:00:00 | 02:19:16 | 00:00:00 | |
| OE5REO-15 | 2026-08-31 00:48:30 | 48.49022 | 12.62539 | 337° | 31km/h | 19798m | -7.5m/s | -53.9°C | 1.2% | 60.3hPa | 2.5V | 08:16:00 | 00:00:00 | 00:00:00 | |
| OE5MMP-10 | 2026-08-31 00:48:26 | 48.48978 | 12.62540 | 20° | 40km/h | 19835m | -7.8m/s | -53.8°C | 4.2% | 59.9hPa | 2.5V | 00:00:00 | 02:19:07 | 00:00:00 | |
| DL6DJ-15 | 2026-08-31 00:48:25 | 48.48960 | 12.62526 | 37° | 42km/h | 19851m | -7.8m/s | -53.9°C | 1.2% | 59.8hPa | 2.5V | 00:00:00 | 00:00:00 | 00:00:00 | |
| DO3MHA-11 | 2026-08-31 00:48:24 | 48.48960 | 12.62526 | 38° | 37km/h | 19851m | -7.7m/s | -53.9°C | 4.2% | 59.8hPa | 2.5V | 00:00:00 | 02:19:05 | 00:00:00 | |
| OE5WHR-10 | 2026-08-31 00:48:23 | 48.48952 | 12.62515 | 47° | 26km/h | 19859m | -7.6m/s | -53.9°C | 4.2% | 59.7hPa | 2.5V | 00:00:00 | 02:19:04 | 00:00:00 | |
| DK5PH-5 | 2026-08-31 00:48:21 | 48.48940 | 12.62488 | 66° | 31km/h | 19874m | -7.5m/s | -53.9°C | 4.2% | 59.5hPa | 2.5V | 00:00:00 | 02:19:02 | 00:00:00 | |
| PG1ADW-2 | 2026-08-31 00:48:17 | 48.48935 | 12.62432 | 102° | 26km/h | 19904m | -7.5m/s | -54.0°C | 4.3% | 59.3hPa | 2.5V | 08:16:00 | 00:00:00 | 00:00:00 | |
| OE5MMP-10 | 2026-08-31 00:48:16 | 48.48937 | 12.62422 | 112° | 16km/h | 19912m | -7.5m/s | -54.0°C | 4.4% | 59.2hPa | 2.5V | 00:00:00 | 02:18:57 | 00:00:00 | |
| OE5FHM-15 | 2026-08-31 00:48:15 | 48.48940 | 12.62413 | 121° | 27km/h | 19920m | -7.5m/s | -53.9°C | 4.3% | 59.2hPa | 2.5V | 00:00:00 | 02:18:56 | 00:00:00 | |
| DO3MHA-11 | 2026-08-31 00:48:14 | 48.48943 | 12.62406 | 133° | 16km/h | 19927m | -7.5m/s | -53.8°C | 4.3% | 59.1hPa | 2.5V | 00:00:00 | 02:18:55 | 00:00:00 | |
| DO7DH-14 | 2026-08-31 00:48:11 | 48.48952 | 12.62400 | 193° | 24km/h | 19949m | -7.4m/s | -53.9°C | 4.3% | 58.8hPa | 2.5V | 00:00:00 | 02:18:52 | 00:00:00 | |
| OE5DXL-15 | 2026-08-31 00:48:10 | 48.48954 | 12.62402 | 221° | 31km/h | 19957m | -7.4m/s | -53.9°C | 4.3% | 58.8hPa | 2.5V | 00:00:00 | 00:00:00 | 00:00:00 | |
| OE5MMP-10 | 2026-08-31 00:48:06 | 48.48958 | 12.62426 | 276° | 37km/h | 19988m | -7.7m/s | -53.9°C | 4.2% | 58.5hPa | 2.5V | 00:00:00 | 02:18:47 | 00:00:00 | |
| DO3MHA-11 | 2026-08-31 00:48:04 | 48.48954 | 12.62446 | 292° | 40km/h | 20003m | -7.8m/s | -53.8°C | 4.2% | 58.4hPa | 2.5V | 00:00:00 | 02:18:45 | 00:00:00 | |
| OE5WHR-10 | 2026-08-31 00:48:02 | 48.48945 | 12.62468 | 311° | 31km/h | 20019m | -7.8m/s | -53.9°C | 4.2% | 58.2hPa | 2.5V | 08:16:00 | 00:00:00 | 00:00:00 | |
| DL6DJ-15 | 2026-08-31 00:47:54 | 48.48858 | 12.62496 | 29° | 35km/h | 20088m | -7.3m/s | -53.8°C | 1.2% | 57.6hPa | 2.5V | 00:00:00 | 00:00:00 | 00:00:00 | |
| DK5PH-5 | 2026-08-31 00:47:51 | 48.48846 | 12.62480 | 52° | 27km/h | 20103m | -7.4m/s | -53.8°C | 4.2% | 57.4hPa | 2.5V | 00:00:00 | 02:18:32 | 00:00:00 | |
| OE5MMP-10 | 2026-08-31 00:47:46 | 48.48840 | 12.62437 | 115° | 22km/h | 20142m | -7.9m/s | -53.9°C | 4.2% | 57.1hPa | 2.5V | 08:16:00 | 02:18:27 | 00:00:00 | |
| OE5FHM-15 | 2026-08-31 00:47:45 | 48.48843 | 12.62431 | 132° | 27km/h | 20149m | -7.8m/s | -54.0°C | 4.2% | 57.0hPa | 2.5V | 00:00:00 | 02:18:26 | 00:00:00 | |
| DO3MHA-11 | 2026-08-31 00:47:44 | 48.48846 | 12.62427 | 154° | 26km/h | 20157m | -7.5m/s | -54.0°C | 4.1% | 57.0hPa | 2.6V | 00:00:00 | 02:18:25 | 00:00:00 | |
| OE5REO-15 | 2026-08-31 00:47:43 | 48.48846 | 12.62427 | 154° | 16km/h | 20157m | -7.5m/s | -54.1°C | 1.2% | 57.0hPa | 2.6V | 08:17:00 | 00:00:00 | 00:00:00 | |
| OE5WHR-10 | 2026-08-31 00:47:41 | 48.48860 | 12.62429 | 212° | 29km/h | 20179m | -7.2m/s | -54.1°C | 4.2% | 56.7hPa | 2.6V | 00:00:00 | 00:00:00 | 00:00:00 | |
| OE5DXL-15 | 2026-08-31 00:47:40 | 48.48871 | 12.62450 | 244° | 29km/h | 20202m | -7.4m/s | -54.3°C | 4.2% | 56.5hPa | 2.6V | 00:00:00 | 00:00:00 | 00:00:00 | |
| PG1ADW-2 | 2026-08-31 00:47:37 | 48.48874 | 12.62460 | 252° | 29km/h | 20209m | -7.7m/s | -54.3°C | 4.3% | 56.5hPa | 2.5V | 00:00:00 | 02:18:18 | 00:00:00 | |
| OE5MMP-10 | 2026-08-31 00:47:36 | 48.48876 | 12.62471 | 258° | 33km/h | 20217m | -7.9m/s | -54.4°C | 4.3% | 56.4hPa | 2.5V | 00:00:00 | 02:18:17 | 00:00:00 | |
| DO3MHA-11 | 2026-08-31 00:47:34 | 48.48877 | 12.62497 | 276° | 29km/h | 20234m | -8.1m/s | -54.4°C | 4.3% | 56.3hPa | 2.5V | 08:17:00 | 02:18:15 | 00:00:00 | |
| OE5REO-15 | 2026-08-31 00:47:27 | 48.48848 | 12.62553 | 347° | 31km/h | 20280m | -7.7m/s | -54.7°C | 1.3% | 55.9hPa | 2.5V | 08:17:00 | 00:00:00 | 00:00:00 | |
| OE5MMP-10 | 2026-08-31 00:47:26 | 48.48834 | 12.62553 | 14° | 24km/h | 20296m | -7.9m/s | -54.6°C | 4.4% | 55.7hPa | 2.5V | 00:00:00 | 02:18:07 | 00:00:00 | |
| DO3MHA-11 | 2026-08-31 00:47:23 | 48.48819 | 12.62537 | 61° | 29km/h | 20319m | -8.0m/s | -54.6°C | 4.4% | 55.5hPa | 2.5V | 00:00:00 | 02:18:04 | 00:00:00 | |
| DL6DJ-15 | 2026-08-31 00:47:22 | 48.48817 | 12.62528 | 77° | 22km/h | 20327m | -8.1m/s | -54.6°C | 1.3% | 55.5hPa | 2.5V | 00:00:00 | 00:00:00 | 00:00:00 | |
| DK5PH-5 | 2026-08-31 00:47:21 | 48.48816 | 12.62520 | 99° | 35km/h | 20336m | -8.2m/s | -54.6°C | 4.4% | 55.4hPa | 2.5V | 00:00:00 | 02:18:02 | 00:00:00 | |
| OE5WHR-10 | 2026-08-31 00:47:20 | 48.48818 | 12.62512 | 119° | 35km/h | 20344m | -7.9m/s | -54.6°C | 4.4% | 55.3hPa | 2.5V | 00:00:00 | 02:18:01 | 00:00:00 | |
| PG1ADW-2 | 2026-08-31 00:47:17 | 48.48833 | 12.62500 | 182° | 37km/h | 20367m | -7.7m/s | -54.6°C | 4.5% | 55.1hPa | 2.5V | 00:00:00 | 00:00:00 | 00:00:00 | |
| OE5MMP-10 | 2026-08-31 00:47:16 | 48.48840 | 12.62501 | 199° | 35km/h | 20375m | -7.5m/s | -54.5°C | 4.3% | 55.0hPa | 2.5V | 00:00:00 | 02:17:57 | 00:00:00 | |
| OE5FHM-15 | 2026-08-31 00:47:15 | 48.48846 | 12.62506 | 215° | 38km/h | 20382m | -7.5m/s | -54.5°C | 4.4% | 55.0hPa | 2.5V | 00:00:00 | 02:17:56 | 00:00:00 | |
| OE5REO-15 | 2026-08-31 00:47:12 | 48.48860 | 12.62536 | 253° | 35km/h | 20405m | -7.6m/s | -54.5°C | 1.2% | 54.8hPa | 2.5V | 08:17:00 | 00:00:00 | 00:00:00 | |
| DO7DH-14 | 2026-08-31 00:47:11 | 48.48862 | 12.62549 | 263° | 44km/h | 20413m | -7.7m/s | -54.4°C | 4.3% | 54.7hPa | 2.5V | 00:00:00 | 02:17:52 | 00:00:00 | |
| OE5DXL-15 | 2026-08-31 00:47:09 | 48.48853 | 12.62606 | 301° | 40km/h | 20444m | -7.8m/s | -54.6°C | 4.3% | 54.5hPa | 2.5V | 00:00:00 | 00:00:00 | 00:00:00 | |
| OE5DRO-10 | 2026-08-31 00:47:07 | 48.48853 | 12.62606 | 301° | 38km/h | 20444m | -7.8m/s | -54.6°C | 4.3% | 54.5hPa | 2.5V | 00:00:00 | 00:00:00 | 00:00:00 | |
| OE5MMP-10 | 2026-08-31 00:47:06 | 48.48847 | 12.62619 | 310° | 38km/h | 20452m | -7.9m/s | -54.6°C | 4.3% | 54.4hPa | 2.5V | 00:00:00 | 02:17:47 | 00:00:00 | |
| OE5WHR-10 | 2026-08-31 00:46:59 | 48.48786 | 12.62651 | 11° | 42km/h | 20505m | -7.2m/s | -54.9°C | 4.4% | 53.9hPa | 2.5V | 00:00:00 | 00:00:00 | 00:00:00 | |
| PG1ADW-2 | 2026-08-31 00:46:57 | 48.48768 | 12.62643 | 21° | 42km/h | 20519m | -7.6m/s | -54.9°C | 4.4% | 53.8hPa | 2.6V | 00:00:00 | 00:00:00 | 00:00:00 | |
| OE5REO-15 | 2026-08-31 00:46:56 | 48.48769 | 12.62643 | 22° | 38km/h | 20519m | -7.6m/s | -55.0°C | 1.3% | 53.8hPa | 2.6V | 08:18:00 | 00:00:00 | 00:00:00 | |
| DK5PH-5 | 2026-08-31 00:46:51 | 48.48715 | 12.62609 | 19° | 38km/h | 20565m | -7.3m/s | -55.1°C | 4.5% | 53.4hPa | 2.6V | 00:00:00 | 02:17:32 | 00:00:00 | |
| OE5DRO-10 | 2026-08-31 00:46:48 | 48.48687 | 12.62600 | 5° | 42km/h | 20587m | -7.3m/s | -55.1°C | 4.5% | 53.2hPa | 2.6V | 00:00:00 | 00:00:00 | 00:00:00 | |
| OE5MMP-10 | 2026-08-31 00:46:46 | 48.48667 | 12.62599 | 2° | 47km/h | 20602m | -7.9m/s | -55.1°C | 4.5% | 53.1hPa | 2.6V | 00:00:00 | 02:17:27 | 00:00:00 | |
| OE5FHM-15 | 2026-08-31 00:46:45 | 48.48656 | 12.62598 | 2° | 35km/h | 20610m | -8.0m/s | -55.1°C | 4.5% | 53.0hPa | 2.5V | 00:00:00 | 02:17:26 | 00:00:00 | |
| BAUMI2-15 | 2026-08-31 00:46:41 | 48.48608 | 12.62588 | 17° | 47km/h | 20643m | -8.5m/s | -55.1°C | 4.5% | 52.7hPa | 2.5V | 00:00:00 | 02:17:22 | 00:00:00 | |
| OE5WHR-10 | 2026-08-31 00:46:38 | 48.48575 | 12.62563 | 38° | 31km/h | 20669m | -8.4m/s | -55.3°C | 4.6% | 52.6hPa | 2.5V | 00:00:00 | 00:00:00 | 00:00:00 | |
| PG1ADW-2 | 2026-08-31 00:46:37 | 48.48566 | 12.62551 | 47° | 29km/h | 20678m | -8.3m/s | -55.3°C | 4.6% | 52.5hPa | 2.5V | 00:00:00 | 00:00:00 | 00:00:00 | |
| BAUMI2-15 | 2026-08-31 00:46:31 | 48.48550 | 12.62470 | 101° | 35km/h | 20724m | -8.1m/s | -55.5°C | 4.7% | 52.1hPa | 2.5V | 08:18:00 | 02:17:12 | 00:00:00 | |
| OE5DRO-10 | 2026-08-31 00:46:29 | 48.48556 | 12.62445 | 119° | 27km/h | 20741m | -8.7m/s | -55.5°C | 4.7% | 52.0hPa | 2.6V | 08:18:00 | 00:00:00 | 00:00:00 | |
| BAUMI2-15 | 2026-08-31 00:46:26 | 48.48571 | 12.62417 | 146° | 20km/h | 20768m | -9.1m/s | -55.3°C | 4.6% | 51.7hPa | 2.6V | 00:00:00 | 02:17:07 | 00:00:00 | |
| OE5REO-15 | 2026-08-31 00:46:25 | 48.48571 | 12.62417 | 147° | 27km/h | 20768m | -9.2m/s | -55.3°C | 1.3% | 51.8hPa | 2.6V | 08:18:00 | 00:00:00 | 00:00:00 | |
| DF3TZ-5 | 2026-08-31 00:46:24 | 48.48586 | 12.62413 | 209° | 13km/h | 20792m | -7.6m/s | -55.3°C | 1.3% | 51.5hPa | 2.6V | 00:00:00 | 00:00:00 | 00:00:00 | |
| DK5PH-5 | 2026-08-31 00:46:21 | 48.48589 | 12.62421 | 273° | 31km/h | 20808m | -7.3m/s | -55.3°C | 4.7% | 51.4hPa | 2.6V | 00:00:00 | 02:17:02 | 00:00:00 | |
| DL6DJ-15 | 2026-08-31 00:46:20 | 48.48588 | 12.62428 | 292° | 18km/h | 20815m | -7.8m/s | -55.3°C | 1.3% | 51.4hPa | 2.6V | 00:00:00 | 00:00:00 | 00:00:00 | |
| PG1ADW-2 | 2026-08-31 00:46:17 | 48.48575 | 12.62449 | 325° | 35km/h | 20841m | -9.1m/s | -55.1°C | 4.6% | 51.2hPa | 2.6V | 00:00:00 | 02:16:58 | 00:00:00 | |
| OE5FHM-15 | 2026-08-31 00:46:15 | 48.48561 | 12.62458 | 349° | 33km/h | 20859m | -8.3m/s | -55.0°C | 4.6% | 51.0hPa | 2.5V | 00:00:00 | 02:16:56 | 00:00:00 | |
| BAUMI2-15 | 2026-08-31 00:46:11 | 48.48529 | 12.62445 | 40° | 40km/h | 20890m | -7.8m/s | -54.6°C | 4.5% | 50.8hPa | 2.5V | 00:00:00 | 02:16:52 | 00:00:00 | |
| OE5DRO-10 | 2026-08-31 00:46:10 | 48.48522 | 12.62435 | 50° | 31km/h | 20898m | -7.8m/s | -54.5°C | 4.4% | 50.7hPa | 2.5V | 00:00:00 | 00:00:00 | 00:00:00 | |
| OE5REO-15 | 2026-08-31 00:46:09 | 48.48522 | 12.62435 | 50° | 38km/h | 20898m | -7.9m/s | -54.6°C | 1.3% | 50.7hPa | 2.5V | 08:18:00 | 00:00:00 | 00:00:00 | |
| OE5MMP-10 | 2026-08-31 00:46:06 | 48.48506 | 12.62379 | 85° | 31km/h | 20932m | -8.8m/s | -54.3°C | 4.3% | 50.4hPa | 2.5V | 00:00:00 | 02:16:47 | 00:00:00 | |
| DL6DJ-15 | 2026-08-31 00:45:49 | 48.48512 | 12.62371 | 353° | 38km/h | 21073m | -8.1m/s | -54.6°C | 1.2% | 49.4hPa | 2.5V | 00:00:00 | 00:00:00 | 00:00:00 | |
| OE5MMP-10 | 2026-08-31 00:45:46 | 48.48481 | 12.62365 | 20° | 46km/h | 21097m | -8.0m/s | -54.6°C | 4.5% | 49.1hPa | 2.5V | 00:00:00 | 02:16:27 | 00:00:00 | |
| OE5FHM-15 | 2026-08-31 00:45:45 | 48.48471 | 12.62358 | 28° | 37km/h | 21105m | -7.9m/s | -54.6°C | 4.5% | 49.0hPa | 2.6V | 00:00:00 | 02:16:26 | 00:00:00 | |
| BAUMI2-15 | 2026-08-31 00:45:41 | 48.48437 | 12.62313 | 53° | 47km/h | 21137m | -8.3m/s | -54.6°C | 4.5% | 48.8hPa | 2.6V | 00:00:00 | 02:16:22 | 00:00:00 | |
| OE5DXL-15 | 2026-08-31 00:45:37 | 48.48410 | 12.62218 | 82° | 33km/h | 21189m | -8.2m/s | -54.6°C | 4.5% | 48.4hPa | 2.6V | 00:00:00 | 00:00:00 | 00:00:00 | |
| OE5WHR-10 | 2026-08-31 00:45:35 | 48.48410 | 12.62218 | 82° | 31km/h | 21189m | -8.2m/s | -54.6°C | 4.5% | 48.4hPa | 2.6V | 00:00:00 | 00:00:00 | 00:00:00 | |
| OE5DRO-10 | 2026-08-31 00:45:32 | 48.48410 | 12.62180 | 104° | 31km/h | 21213m | -7.8m/s | -54.3°C | 4.4% | 48.2hPa | 2.6V | 00:00:00 | 00:00:00 | 00:00:00 | |
| BAUMI2-15 | 2026-08-31 00:45:31 | 48.48412 | 12.62171 | 114° | 26km/h | 21220m | -7.8m/s | -54.3°C | 4.4% | 48.2hPa | 2.5V | 00:00:00 | 02:16:12 | 00:00:00 | |
| OE5MMP-10 | 2026-08-31 00:45:26 | 48.48432 | 12.62130 | 125° | 35km/h | 21262m | -8.9m/s | -54.0°C | 4.3% | 47.8hPa | 2.5V | 00:00:00 | 02:16:07 | 00:00:00 | |
| DO3MHA-11 | 2026-08-31 00:45:25 | 48.48436 | 12.62121 | 119° | 33km/h | 21271m | -9.0m/s | -54.0°C | 4.3% | 47.8hPa | 2.5V | 00:00:00 | 02:16:06 | 00:00:00 | |
| OE5HKT-10 | 2026-08-31 00:45:24 | 48.48439 | 12.62110 | 109° | 35km/h | 21280m | -8.7m/s | -54.0°C | 4.3% | 47.7hPa | 2.5V | 08:19:00 | 00:00:00 | 00:00:00 | |
| BAUMI2-15 | 2026-08-31 00:45:21 | 48.48441 | 12.62071 | 83° | 35km/h | 21306m | -8.3m/s | -54.1°C | 4.4% | 47.5hPa | 2.5V | 00:00:00 | 02:16:02 | 00:00:00 | |
| DL6DJ-15 | 2026-08-31 00:45:18 | 48.48434 | 12.62032 | 68° | 35km/h | 21331m | -8.6m/s | -54.2°C | 1.2% | 47.4hPa | 2.5V | 00:00:00 | 00:00:00 | 00:00:00 | |
| PG1ADW-2 | 2026-08-31 00:45:17 | 48.48430 | 12.62020 | 67° | 33km/h | 21339m | -8.5m/s | -54.1°C | 4.3% | 47.3hPa | 2.5V | 00:00:00 | 00:00:00 | 08:30:00 | |
| OE5MMP-10 | 2026-08-31 00:45:16 | 48.48427 | 12.62008 | 68° | 33km/h | 21348m | -8.5m/s | -54.1°C | 4.4% | 47.2hPa | 2.6V | 00:00:00 | 02:15:57 | 00:00:00 | |
| OE5FHM-15 | 2026-08-31 00:45:15 | 48.48424 | 12.61996 | 69° | 31km/h | 21356m | -8.7m/s | -54.1°C | 4.3% | 47.2hPa | 2.5V | 00:00:00 | 02:15:56 | 00:00:00 | |
| OE5WHR-10 | 2026-08-31 00:45:14 | 48.48421 | 12.61984 | 70° | 31km/h | 21365m | -8.5m/s | -54.0°C | 4.3% | 47.1hPa | 2.5V | 00:00:00 | 02:15:55 | 00:00:00 | |
| OE5DRO-10 | 2026-08-31 00:45:13 | 48.48418 | 12.61972 | 73° | 31km/h | 21373m | -8.2m/s | -54.0°C | 4.3% | 47.0hPa | 2.5V | 00:00:00 | 00:00:00 | 00:00:00 | |
| BAUMI2-15 | 2026-08-31 00:45:11 | 48.48414 | 12.61948 | 81° | 35km/h | 21389m | -8.1m/s | -54.0°C | 4.2% | 46.9hPa | 2.5V | 00:00:00 | 02:15:52 | 00:00:00 | |
| OE5MMP-10 | 2026-08-31 00:45:06 | 48.48414 | 12.61884 | 104° | 31km/h | 21432m | -8.9m/s | -54.0°C | 4.3% | 46.6hPa | 2.5V | 00:00:00 | 02:15:47 | 00:00:00 | |
| OE5REO-15 | 2026-08-31 00:45:05 | 48.48414 | 12.61884 | 104° | 35km/h | 21432m | -9.0m/s | -54.1°C | 1.2% | 46.6hPa | 2.5V | 08:20:00 | 00:00:00 | 00:00:00 | |
| DF7PN | 2026-08-31 00:45:00 | 48.48479 | 12.61822 | 207° | 26km/h | 21536m | -9.1m/s | -54.1°C | -1.0% | -1.0hPa | 2.5V | 00:00:00 | 00:00:00 | 00:00:00 | |
| DF3TZ-5 | 2026-08-31 00:44:50 | 48.48498 | 12.61872 | 278° | 27km/h | 21591m | -9.6m/s | -54.2°C | 1.2% | 45.5hPa | 2.5V | 00:00:00 | 00:00:00 | 00:00:00 | |
| DL6DJ-15 | 2026-08-31 00:44:47 | 48.48496 | 12.61882 | 291° | 26km/h | 21601m | -9.6m/s | -54.3°C | 1.2% | 45.4hPa | 2.5V | 00:00:00 | 00:00:00 | 00:00:00 | |
| OE5MMP-10 | 2026-08-31 00:44:46 | 48.48492 | 12.61891 | 308° | 31km/h | 21610m | -9.2m/s | -54.2°C | 4.4% | 45.3hPa | 2.5V | 08:19:00 | 02:15:27 | 00:00:00 | |
| OE5FHM-15 | 2026-08-31 00:44:45 | 48.48487 | 12.61898 | 324° | 37km/h | 21619m | -9.0m/s | -54.2°C | 4.4% | 45.2hPa | 2.5V | 08:19:00 | 02:15:26 | 00:00:00 | |
| DG1MFX-10 | 2026-08-31 00:44:38 | 48.48443 | 12.61891 | 39° | 35km/h | 21675m | -10.2m/s | -54.2°C | 1.2% | 44.8hPa | 2.5V | 08:20:00 | 00:00:00 | 00:00:00 | |
| PG1ADW-2 | 2026-08-31 00:44:37 | 48.48432 | 12.61872 | 67° | 26km/h | 21695m | -9.8m/s | -54.1°C | 4.4% | 44.6hPa | 2.5V | 00:00:00 | 00:00:00 | 00:00:00 | |
| OE5MMP-10 | 2026-08-31 00:44:36 | 48.48430 | 12.61860 | 82° | 35km/h | 21705m | -9.2m/s | -54.1°C | 4.3% | 44.6hPa | 2.5V | 00:00:00 | 02:15:17 | 00:00:00 | |
| OE5DRO-10 | 2026-08-31 00:44:35 | 48.48430 | 12.61849 | 102° | 40km/h | 21714m | -8.8m/s | -54.0°C | 4.3% | 44.5hPa | 2.5V | 00:00:00 | 00:00:00 | 00:00:00 | |
| OE5REO-15 | 2026-08-31 00:44:34 | 48.48430 | 12.61849 | 102° | 29km/h | 21714m | -8.8m/s | -54.0°C | 1.2% | 44.6hPa | 2.5V | 08:20:00 | 00:00:00 | 00:00:00 | |
| OE5WHR-10 | 2026-08-31 00:44:32 | 48.48445 | 12.61823 | 152° | 40km/h | 21740m | -9.1m/s | -53.9°C | 4.3% | 44.3hPa | 2.5V | 00:00:00 | 00:00:00 | 00:00:00 | |
| OE5MMP-10 | 2026-08-31 00:44:26 | 48.48497 | 12.61837 | 226° | 44km/h | 21797m | -9.4m/s | -54.1°C | 4.3% | 44.0hPa | 2.5V | 00:00:00 | 02:15:07 | 00:00:00 | |
| DK5PH-5 | 2026-08-31 00:44:21 | 48.48506 | 12.61912 | 290° | 27km/h | 21842m | -8.8m/s | -54.2°C | 4.3% | 43.6hPa | 2.5V | 00:00:00 | 02:15:02 | 00:00:00 | |
| OE5REO-15 | 2026-08-31 00:44:19 | 48.48495 | 12.61942 | 311° | 44km/h | 21860m | -9.5m/s | -54.3°C | 1.2% | 43.6hPa | 2.5V | 08:21:00 | 00:00:00 | 00:00:00 | |
| OE5MMP-10 | 2026-08-31 00:44:16 | 48.48469 | 12.61968 | 347° | 31km/h | 21889m | -9.5m/s | -54.3°C | 4.2% | 43.3hPa | 2.5V | 00:00:00 | 02:14:57 | 00:00:00 | |
| OE5FHM-15 | 2026-08-31 00:44:15 | 48.48459 | 12.61970 | 357° | 26km/h | 21898m | -9.3m/s | -54.3°C | 4.3% | 43.2hPa | 2.6V | 00:00:00 | 02:14:56 | 00:00:00 | |
| OE5WHR-10 | 2026-08-31 00:44:11 | 48.48430 | 12.61950 | 54° | 22km/h | 21934m | -8.7m/s | -54.5°C | 4.3% | 43.0hPa | 2.6V | 00:00:00 | 02:14:52 | 00:00:00 | |
| OE5MMP-10 | 2026-08-31 00:44:06 | 48.48429 | 12.61907 | 125° | 16km/h | 21978m | -9.0m/s | -54.7°C | 4.5% | 42.7hPa | 2.6V | 00:00:00 | 02:14:47 | 00:00:00 | |
| OE5DXL-15 | 2026-08-31 00:44:05 | 48.48436 | 12.61899 | 162° | 29km/h | 21996m | -8.5m/s | -54.7°C | 4.5% | 42.6hPa | 2.6V | 00:00:00 | 02:14:45 | 00:00:00 | |
| OE5REO-15 | 2026-08-31 00:44:02 | 48.48439 | 12.61898 | 175° | 11km/h | 22004m | -8.3m/s | -54.8°C | 1.2% | 42.6hPa | 2.6V | 08:21:00 | 00:00:00 | 00:00:00 | |
| DF3TZ-5 | 2026-08-31 00:43:48 | 48.48502 | 12.61924 | 102° | 33km/h | 22142m | -9.3m/s | -55.0°C | 1.3% | 41.7hPa | 2.6V | 00:00:00 | 00:00:00 | 00:00:00 | |
| DO3MHA-11 | 2026-08-31 00:43:47 | 48.48502 | 12.61911 | 88° | 38km/h | 22151m | -9.3m/s | -55.0°C | 4.5% | 41.6hPa | 2.6V | 00:00:00 | 02:14:28 | 00:00:00 | |
| OE5MMP-10 | 2026-08-31 00:43:46 | 48.48501 | 12.61898 | 79° | 40km/h | 22160m | -9.5m/s | -55.0°C | 4.5% | 41.5hPa | 2.6V | 00:00:00 | 02:14:27 | 00:00:00 | |
| OE5FHM-15 | 2026-08-31 00:43:45 | 48.48498 | 12.61884 | 66° | 35km/h | 22170m | -10.0m/s | -55.0°C | 4.5% | 41.4hPa | 2.5V | 00:00:00 | 02:14:26 | 00:00:00 | |
| OE5DRO-10 | 2026-08-31 00:43:38 | 48.48440 | 12.61834 | 349° | 33km/h | 22239m | -9.2m/s | -55.1°C | 4.6% | 41.0hPa | 2.5V | 08:21:00 | 00:00:00 | 00:00:00 | |
| DO3MHA-11 | 2026-08-31 00:43:37 | 48.48432 | 12.61838 | 336° | 27km/h | 22248m | -8.7m/s | -55.1°C | 4.6% | 40.9hPa | 2.5V | 00:00:00 | 02:14:18 | 00:00:00 | |
| OE5MMP-10 | 2026-08-31 00:43:36 | 48.48425 | 12.61843 | 323° | 27km/h | 22256m | -9.1m/s | -55.1°C | 4.5% | 40.9hPa | 2.5V | 00:00:00 | 02:14:17 | 00:00:00 | |
| OE5DXL-15 | 2026-08-31 00:43:35 | 48.48416 | 12.61860 | 297° | 33km/h | 22276m | -9.7m/s | -55.1°C | 4.5% | 40.8hPa | 2.5V | 00:00:00 | 00:00:00 | 00:00:00 | |
| OE5REO-15 | 2026-08-31 00:43:32 | 48.48414 | 12.61869 | 286° | 26km/h | 22286m | -10.0m/s | -55.2°C | 1.3% | 40.7hPa | 2.5V | 00:00:00 | 00:00:00 | 00:00:00 | |
| OE5WHR-10 | 2026-08-31 00:43:29 | 48.48420 | 12.61902 | 224° | 35km/h | 22326m | -9.7m/s | -55.0°C | 4.5% | 40.4hPa | 2.5V | 00:00:00 | 00:00:00 | 00:00:00 | |
| DO3MHA-11 | 2026-08-31 00:43:27 | 48.48433 | 12.61910 | 191° | 38km/h | 22345m | -9.8m/s | -55.0°C | 4.5% | 40.3hPa | 2.5V | 00:00:00 | 02:14:08 | 00:00:00 | |
| OE5MMP-10 | 2026-08-31 00:43:26 | 48.48441 | 12.61910 | 174° | 38km/h | 22355m | -10.0m/s | -55.0°C | 4.5% | 40.2hPa | 2.5V | 00:00:00 | 02:14:07 | 00:00:00 | |
| DK5PH-5 | 2026-08-31 00:43:21 | 48.48481 | 12.61871 | 122° | 37km/h | 22404m | -9.7m/s | -55.1°C | 4.5% | 39.9hPa | 2.5V | 00:00:00 | 02:14:02 | 00:00:00 | |
| OE5DRO-10 | 2026-08-31 00:43:19 | 48.48488 | 12.61843 | 96° | 35km/h | 22423m | -9.4m/s | -55.0°C | 4.5% | 39.8hPa | 2.5V | 00:00:00 | 00:00:00 | 00:00:00 | |
| DO3MHA-11 | 2026-08-31 00:43:17 | 48.48485 | 12.61815 | 69° | 33km/h | 22441m | -9.9m/s | -55.1°C | 4.5% | 39.7hPa | 2.5V | 00:00:00 | 02:13:58 | 00:00:00 | |
| OE5MMP-10 | 2026-08-31 00:43:16 | 48.48481 | 12.61803 | 54° | 31km/h | 22451m | -10.1m/s | -55.1°C | 4.5% | 39.6hPa | 2.5V | 08:21:00 | 02:13:57 | 00:00:00 | |
| OE5FHM-15 | 2026-08-31 00:43:15 | 48.48475 | 12.61793 | 48° | 33km/h | 22461m | -10.4m/s | -55.1°C | 4.5% | 39.6hPa | 2.5V | 00:00:00 | 02:13:56 | 00:00:00 | |
| DL6DJ-15 | 2026-08-31 00:43:14 | 48.48460 | 12.61779 | 22° | 33km/h | 22482m | -10.8m/s | -55.2°C | 1.3% | 39.5hPa | 2.5V | 00:00:00 | 00:00:00 | 00:00:00 | |
| OE5WHR-10 | 2026-08-31 00:43:08 | 48.48430 | 12.61795 | 292° | 35km/h | 22533m | -9.4m/s | -55.1°C | 4.5% | 39.1hPa | 2.5V | 00:00:00 | 02:13:49 | 00:00:00 | |
| DO3MHA-11 | 2026-08-31 00:43:07 | 48.48428 | 12.61805 | 279° | 40km/h | 22542m | -9.9m/s | -55.1°C | 4.6% | 39.1hPa | 2.5V | 00:00:00 | 02:13:48 | 00:00:00 | |
| OE5MMP-10 | 2026-08-31 00:43:06 | 48.48427 | 12.61817 | 262° | 42km/h | 22552m | -9.9m/s | -55.1°C | 4.6% | 39.0hPa | 2.5V | 00:00:00 | 02:13:47 | 00:00:00 | |
| OE5DXL-15 | 2026-08-31 00:43:05 | 48.48440 | 12.61854 | 228° | 37km/h | 22583m | -10.3m/s | -55.0°C | 4.5% | 38.8hPa | 2.5V | 00:00:00 | 00:00:00 | 00:00:00 | |
| OE5DRO-10 | 2026-08-31 00:43:00 | 48.48468 | 12.61881 | 199° | 33km/h | 22614m | -10.5m/s | -55.0°C | 4.5% | 38.6hPa | 2.6V | 00:00:00 | 00:00:00 | 00:00:00 | |
| DO3MHA-11 | 2026-08-31 00:42:57 | 48.48501 | 12.61886 | 170° | 29km/h | 22644m | -9.5m/s | -55.1°C | 4.6% | 38.5hPa | 2.6V | 08:21:00 | 02:13:38 | 00:00:00 | |
| OE5MMP-10 | 2026-08-31 00:42:56 | 48.48511 | 12.61881 | 158° | 27km/h | 22653m | -9.9m/s | -55.1°C | 4.6% | 38.4hPa | 2.6V | 00:00:00 | 02:13:37 | 00:00:00 | |
| DG1MFX-10 | 2026-08-31 00:42:54 | 48.48521 | 12.61874 | 149° | 38km/h | 22663m | -10.1m/s | -55.1°C | 1.3% | 38.4hPa | 2.6V | 08:21:00 | 00:00:00 | 00:00:00 | |
| DK5PH-5 | 2026-08-31 00:42:51 | 48.48538 | 12.61839 | 93° | 33km/h | 22703m | -10.0m/s | -55.0°C | 4.6% | 38.1hPa | 2.6V | 00:00:00 | 02:13:32 | 00:00:00 | |
| DO3MHA-11 | 2026-08-31 00:42:47 | 48.48528 | 12.61820 | 3° | 37km/h | 22744m | -10.0m/s | -55.1°C | 4.6% | 37.8hPa | 2.6V | 00:00:00 | 02:13:28 | 00:00:00 | |
| OE5MMP-10 | 2026-08-31 00:42:46 | 48.48522 | 12.61821 | 343° | 40km/h | 22753m | -9.5m/s | -55.1°C | 4.6% | 37.8hPa | 2.6V | 00:00:00 | 02:13:27 | 00:00:00 | |
| OE5FHM-15 | 2026-08-31 00:42:45 | 48.48516 | 12.61825 | 333° | 37km/h | 22763m | -9.6m/s | -55.1°C | 4.6% | 37.7hPa | 2.5V | 00:00:00 | 02:13:26 | 00:00:00 | |
| DL6DJ-15 | 2026-08-31 00:42:43 | 48.48497 | 12.61850 | 310° | 38km/h | 22793m | -10.7m/s | -55.0°C | 1.3% | 37.6hPa | 2.5V | 00:00:00 | 00:00:00 | 00:00:00 | |
| BAUMI2-15 | 2026-08-31 00:42:41 | 48.48491 | 12.61863 | 302° | 47km/h | 22803m | -10.1m/s | -55.0°C | 4.6% | 37.5hPa | 2.5V | 00:00:00 | 02:13:22 | 00:00:00 | |
| DO3MHA-11 | 2026-08-31 00:42:37 | 48.48480 | 12.61931 | 267° | 40km/h | 22846m | -10.3m/s | -54.8°C | 4.6% | 37.2hPa | 2.5V | 00:00:00 | 02:13:18 | 00:00:00 | |
| OE5MMP-10 | 2026-08-31 00:42:36 | 48.48481 | 12.61949 | 260° | 37km/h | 22856m | -10.3m/s | -54.8°C | 4.6% | 37.2hPa | 2.5V | 00:00:00 | 02:13:17 | 00:00:00 | |
| DG1MFX-10 | 2026-08-31 00:42:33 | 48.48490 | 12.61982 | 240° | 46km/h | 22877m | -9.9m/s | -54.9°C | 1.3% | 37.1hPa | 2.5V | 08:22:00 | 00:00:00 | 00:00:00 | |
| BAUMI2-15 | 2026-08-31 00:42:31 | 48.48512 | 12.62014 | 207° | 29km/h | 22907m | -10.0m/s | -54.7°C | 4.6% | 36.9hPa | 2.5V | 00:00:00 | 02:13:12 | 00:00:00 | |
| DO3MHA-11 | 2026-08-31 00:42:28 | 48.48541 | 12.62016 | 150° | 27km/h | 22949m | -10.7m/s | -54.6°C | 4.5% | 36.6hPa | 2.5V | 00:00:00 | 02:13:08 | 00:00:00 | |
| OE5WHR-10 | 2026-08-31 00:42:27 | 48.48545 | 12.62010 | 132° | 37km/h | 22960m | -10.5m/s | -54.6°C | 4.5% | 36.6hPa | 2.5V | 00:00:00 | 00:00:00 | 00:00:00 | |
| OE5DRO-10 | 2026-08-31 00:42:22 | 48.48544 | 12.61982 | 40° | 40km/h | 23002m | -10.0m/s | -54.3°C | 4.4% | 36.4hPa | 2.5V | 00:00:00 | 00:00:00 | 00:00:00 | |
| DK5PH-5 | 2026-08-31 00:42:21 | 48.48538 | 12.61977 | 27° | 35km/h | 23012m | -9.8m/s | -54.3°C | 4.4% | 36.3hPa | 2.5V | 00:00:00 | 02:13:02 | 00:00:00 | |
| OE5MMP-10 | 2026-08-31 00:42:16 | 48.48492 | 12.61978 | 341° | 44km/h | 23062m | -10.0m/s | -54.2°C | 4.4% | 36.0hPa | 2.5V | 00:00:00 | 02:12:57 | 00:00:00 | |
| OE5FHM-15 | 2026-08-31 00:42:15 | 48.48480 | 12.61985 | 334° | 35km/h | 23073m | -10.2m/s | -54.1°C | 4.4% | 35.9hPa | 2.5V | 00:00:00 | 02:12:56 | 00:00:00 | |
| DG1MFX-10 | 2026-08-31 00:42:13 | 48.48470 | 12.61994 | 327° | 49km/h | 23083m | -10.6m/s | -54.2°C | 1.3% | 35.9hPa | 2.5V | 08:22:00 | 00:00:00 | 00:00:00 | |
| DL6DJ-15 | 2026-08-31 00:42:12 | 48.48445 | 12.62032 | 303° | 44km/h | 23115m | -10.2m/s | -54.2°C | 1.2% | 35.7hPa | 2.5V | 00:00:00 | 00:00:00 | 00:00:00 | |
| BAUMI2-15 | 2026-08-31 00:42:11 | 48.48445 | 12.62032 | 304° | 40km/h | 23115m | -10.2m/s | -54.1°C | 4.4% | 35.7hPa | 2.5V | 00:00:00 | 02:12:52 | 00:00:00 | |
| OE5MMP-10 | 2026-08-31 00:42:06 | 48.48438 | 12.62100 | 252° | 26km/h | 23166m | -9.9m/s | -54.1°C | 4.4% | 35.4hPa | 2.5V | 00:00:00 | 02:12:47 | 00:00:00 | |
| OE5WHR-10 | 2026-08-31 00:42:05 | 48.48441 | 12.62111 | 241° | 33km/h | 23176m | -10.3m/s | -54.0°C | 4.3% | 35.4hPa | 2.5V | 00:00:00 | 02:12:46 | 00:00:00 | |
| OE5DRO-10 | 2026-08-31 00:42:03 | 48.48450 | 12.62128 | 222° | 38km/h | 23197m | -10.3m/s | -53.9°C | 4.3% | 35.2hPa | 2.5V | 00:00:00 | 00:00:00 | 00:00:00 | |
| BAUMI2-15 | 2026-08-31 00:41:56 | 48.48486 | 12.62120 | 113° | 33km/h | 23269m | -10.0m/s | -54.0°C | 4.3% | 34.8hPa | 2.5V | 00:00:00 | 02:12:37 | 00:00:00 | |
| DG1MFX-10 | 2026-08-31 00:41:54 | 48.48488 | 12.62098 | 89° | 33km/h | 23290m | -10.5m/s | -54.1°C | 1.2% | 34.8hPa | 2.5V | 08:23:00 | 00:00:00 | 00:00:00 | |
| BAUMI2-15 | 2026-08-31 00:41:51 | 48.48480 | 12.62058 | 58° | 40km/h | 23322m | -10.6m/s | -53.9°C | 4.3% | 34.6hPa | 2.5V | 00:00:00 | 02:12:32 | 00:00:00 | |
| DK5PH-5 | 2026-08-31 00:41:49 | 48.48466 | 12.62037 | 35° | 40km/h | 23343m | -9.9m/s | -54.0°C | 4.4% | 34.5hPa | 2.5V | 00:00:00 | 02:12:30 | 00:00:00 | |
| OE5MMP-10 | 2026-08-31 00:41:46 | 48.48436 | 12.62022 | 4° | 46km/h | 23372m | -10.1m/s | -54.0°C | 4.4% | 34.3hPa | 2.5V | 08:22:00 | 02:12:27 | 00:00:00 | |
| OE5FHM-15 | 2026-08-31 00:41:45 | 48.48425 | 12.62022 | 355° | 42km/h | 23383m | -10.6m/s | -54.0°C | 4.3% | 34.2hPa | 2.6V | 00:00:00 | 02:12:26 | 00:00:00 | |
| OE5WHR-10 | 2026-08-31 00:41:44 | 48.48414 | 12.62025 | 350° | 38km/h | 23393m | -10.4m/s | -54.0°C | 4.4% | 34.2hPa | 2.6V | 08:22:00 | 00:00:00 | 00:00:00 | |
| DL6DJ-15 | 2026-08-31 00:41:41 | 48.48368 | 12.62054 | 323° | 47km/h | 23436m | -10.8m/s | -54.0°C | 1.2% | 34.0hPa | 2.6V | 00:00:00 | 00:00:00 | 00:00:00 | |
| OE5DRO-10 | 2026-08-31 00:41:40 | 48.48368 | 12.62054 | 324° | 38km/h | 23436m | -10.8m/s | -54.0°C | 4.3% | 33.9hPa | 2.6V | 00:00:00 | 00:00:00 | 00:00:00 | |
| OE5MMP-10 | 2026-08-31 00:41:36 | 48.48341 | 12.62104 | 292° | 31km/h | 23479m | -9.7m/s | -53.9°C | 4.4% | 33.7hPa | 2.5V | 00:00:00 | 02:12:17 | 00:00:00 | |
| OE5DXL-15 | 2026-08-31 00:41:33 | 48.48340 | 12.62150 | 253° | 40km/h | 23518m | -9.7m/s | -53.9°C | 4.3% | 33.6hPa | 2.5V | 08:23:00 | 00:00:00 | 00:00:00 | |
| DO3MHA-11 | 2026-08-31 00:41:32 | 48.48340 | 12.62150 | 253° | 40km/h | 23518m | -9.7m/s | -53.9°C | 4.3% | 33.6hPa | 2.5V | 00:00:00 | 02:12:13 | 00:00:00 | |
| BAUMI2-15 | 2026-08-31 00:41:31 | 48.48342 | 12.62160 | 248° | 33km/h | 23528m | -10.1m/s | -53.9°C | 4.3% | 33.5hPa | 2.5V | 08:23:00 | 02:12:12 | 00:00:00 | |
| BAUMI2-15 | 2026-08-31 00:41:26 | 48.48354 | 12.62221 | 267° | 44km/h | 23582m | -10.9m/s | -53.8°C | 4.4% | 33.2hPa | 2.5V | 00:00:00 | 02:12:07 | 00:00:00 | |
| OE5WHR-10 | 2026-08-31 00:41:23 | 48.48348 | 12.62268 | 297° | 46km/h | 23615m | -10.5m/s | -53.7°C | 4.3% | 33.0hPa | 2.5V | 00:00:00 | 00:00:00 | 00:00:00 | |
| BAUMI2-15 | 2026-08-31 00:41:21 | 48.48334 | 12.62298 | 313° | 53km/h | 23636m | -10.1m/s | -53.5°C | 4.3% | 32.9hPa | 2.5V | 00:00:00 | 02:12:02 | 00:00:00 | |
| DK5PH-5 | 2026-08-31 00:41:19 | 48.48314 | 12.62322 | 330° | 44km/h | 23657m | -10.6m/s | -53.4°C | 4.2% | 32.8hPa | 2.5V | 00:00:00 | 02:12:00 | 00:00:00 | |
| OE5MMP-10 | 2026-08-31 00:41:16 | 48.48275 | 12.62343 | 351° | 46km/h | 23690m | -11.1m/s | -53.5°C | 4.3% | 32.6hPa | 2.5V | 00:00:00 | 02:11:57 | 00:00:00 | |
| OE5FHM-15 | 2026-08-31 00:41:15 | 48.48261 | 12.62345 | 2° | 40km/h | 23701m | -11.0m/s | -53.5°C | 4.3% | 32.6hPa | 2.6V | 00:00:00 | 02:11:56 | 00:00:00 | |
| DG1MFX-10 | 2026-08-31 00:41:13 | 48.48234 | 12.62338 | 20° | 51km/h | 23723m | -11.3m/s | -53.5°C | 1.2% | 32.5hPa | 2.6V | 08:23:00 | 00:00:00 | 00:00:00 | |
| BAUMI2-15 | 2026-08-31 00:41:11 | 48.48212 | 12.62320 | 41° | 38km/h | 23746m | -11.3m/s | -53.5°C | 4.3% | 32.3hPa | 2.6V | 00:00:00 | 02:11:52 | 00:00:00 | |
| DL6DJ-15 | 2026-08-31 00:41:09 | 48.48199 | 12.62295 | 66° | 37km/h | 23767m | -9.7m/s | -53.5°C | 1.2% | 32.3hPa | 2.6V | 00:00:00 | 00:00:00 | 00:00:00 | |
| DO3MHA-11 | 2026-08-31 00:41:06 | 48.48200 | 12.62258 | 121° | 31km/h | 23798m | -10.7m/s | -53.5°C | 4.3% | 32.1hPa | 2.6V | 00:00:00 | 02:11:47 | 00:00:00 | |
| OE5WHR-10 | 2026-08-31 00:41:02 | 48.48228 | 12.62239 | 183° | 40km/h | 23845m | -11.8m/s | -53.4°C | 4.3% | 31.8hPa | 2.6V | 00:00:00 | 02:11:43 | 00:00:00 | |
| BAUMI2-15 | 2026-08-31 00:41:01 | 48.48237 | 12.62242 | 200° | 35km/h | 23857m | -11.8m/s | -53.3°C | 4.3% | 31.8hPa | 2.6V | 00:00:00 | 02:11:42 | 00:00:00 | |
| DO7DH-14 | 2026-08-31 00:40:56 | 48.48251 | 12.62298 | 291° | 42km/h | 23912m | -10.8m/s | -53.1°C | 4.2% | 31.5hPa | 2.6V | 00:00:00 | 02:11:37 | 00:00:00 | |
| OE5DXL-15 | 2026-08-31 00:40:54 | 48.48219 | 12.62343 | 340° | 47km/h | 23954m | -11.0m/s | -53.0°C | 4.2% | 31.3hPa | 2.6V | 00:00:00 | 00:00:00 | 00:00:00 | |
| DG1MFX-10 | 2026-08-31 00:40:52 | 48.48219 | 12.62343 | 341° | 47km/h | 23954m | -11.0m/s | -53.1°C | 1.2% | 31.3hPa | 2.6V | 08:24:00 | 00:00:00 | 00:00:00 | |
| BAUMI2-15 | 2026-08-31 00:40:51 | 48.48207 | 12.62348 | 350° | 46km/h | 23965m | -11.2m/s | -53.0°C | 4.2% | 31.2hPa | 2.6V | 00:00:00 | 02:11:32 | 00:00:00 | |
| DK5PH-5 | 2026-08-31 00:40:49 | 48.48183 | 12.62349 | 13° | 44km/h | 23987m | -11.0m/s | -52.9°C | 4.1% | 31.1hPa | 2.6V | 08:23:00 | 02:11:30 | 00:00:00 | |
| OE5MMP-10 | 2026-08-31 00:40:46 | 48.48154 | 12.62323 | 49° | 33km/h | 24019m | -10.2m/s | -52.8°C | 4.1% | 31.0hPa | 2.5V | 00:00:00 | 02:11:27 | 00:00:00 | |
| OE5FHM-15 | 2026-08-31 00:40:45 | 48.48148 | 12.62310 | 61° | 44km/h | 24030m | -10.4m/s | -52.8°C | 4.1% | 30.9hPa | 2.5V | 00:00:00 | 02:11:26 | 00:00:00 | |
| DO3MHA-11 | 2026-08-31 00:40:42 | 48.48144 | 12.62270 | 105° | 31km/h | 24064m | -11.8m/s | -52.6°C | 4.0% | 30.7hPa | 2.5V | 08:23:00 | 02:11:23 | 00:00:00 | |
| OE5WHR-10 | 2026-08-31 00:40:41 | 48.48147 | 12.62259 | 120° | 44km/h | 24076m | -12.0m/s | -52.5°C | 4.0% | 30.7hPa | 2.5V | 00:00:00 | 00:00:00 | 00:00:00 | |
| DO9HM | 2026-08-31 00:40:38 | 48.48158 | 12.62245 | 163° | 26km/h | 24099m | -11.5m/s | 0°C | 0% | 0hPa | 2.5V | 00:00:00 | 00:00:00 | 00:00:00 | |
| OE5MMP-10 | 2026-08-31 00:40:36 | 48.48175 | 12.62255 | 235° | 42km/h | 24133m | -10.5m/s | -52.8°C | 4.1% | 30.4hPa | 2.5V | 00:00:00 | 02:11:17 | 00:00:00 | |
| DO3MHA-11 | 2026-08-31 00:40:32 | 48.48178 | 12.62306 | 294° | 55km/h | 24180m | -11.3m/s | -53.0°C | 4.2% | 30.2hPa | 2.5V | 00:00:00 | 02:11:13 | 00:00:00 | |
| DG1MFX-10 | 2026-08-31 00:40:31 | 48.48178 | 12.62306 | 294° | 42km/h | 24180m | -11.3m/s | -53.0°C | 1.2% | 30.3hPa | 2.5V | 08:24:00 | 00:00:00 | 00:00:00 | |
| OE5HKT-10 | 2026-08-31 00:40:30 | 48.48166 | 12.62333 | 315° | 47km/h | 24204m | -11.3m/s | -53.1°C | 4.2% | 30.1hPa | 2.5V | 00:00:00 | 00:00:00 | 00:00:00 | |
| DO7DH-14 | 2026-08-31 00:40:26 | 48.48120 | 12.62361 | 359° | 53km/h | 24249m | -11.3m/s | -53.1°C | 4.3% | 29.9hPa | 2.5V | 00:00:00 | 02:11:07 | 00:00:00 | |
| OE5WHR-10 | 2026-08-31 00:40:20 | 48.48052 | 12.62289 | 72° | 49km/h | 24325m | -11.2m/s | -52.9°C | 4.2% | 29.5hPa | 2.5V | 00:00:00 | 00:00:00 | 00:00:00 | |
| DK5PH-5 | 2026-08-31 00:40:19 | 48.48049 | 12.62269 | 88° | 49km/h | 24336m | -10.5m/s | -53.0°C | 4.2% | 29.4hPa | 2.5V | 00:00:00 | 02:11:00 | 00:00:00 | |
| OE5MMP-10 | 2026-08-31 00:40:16 | 48.48063 | 12.62218 | 138° | 46km/h | 24372m | -12.9m/s | -53.0°C | 4.2% | 29.3hPa | 2.5V | 08:24:00 | 02:10:57 | 00:00:00 | |
| OE5FHM-15 | 2026-08-31 00:40:15 | 48.48073 | 12.62209 | 159° | 49km/h | 24385m | -11.7m/s | -53.0°C | 4.2% | 29.3hPa | 2.5V | 08:24:00 | 02:10:56 | 00:00:00 | |
| DG1MFX-10 | 2026-08-31 00:40:10 | 48.48110 | 12.62230 | 240° | 44km/h | 24437m | -11.4m/s | -53.0°C | 1.2% | 29.0hPa | 2.5V | 00:00:00 | 00:00:00 | 00:00:00 | |
| DL6DJ-15 | 2026-08-31 00:40:08 | 48.48104 | 12.62297 | 313° | 51km/h | 24488m | -11.4m/s | -52.8°C | 1.1% | 28.8hPa | 2.5V | 00:00:00 | 00:00:00 | 00:00:00 | |
| OE5MMP-10 | 2026-08-31 00:40:06 | 48.48093 | 12.62309 | 330° | 51km/h | 24500m | -12.4m/s | -52.5°C | 4.1% | 28.7hPa | 2.5V | 00:00:00 | 02:10:47 | 00:00:00 | |
| OE5WHR-10 | 2026-08-31 00:39:59 | 48.48031 | 12.62248 | 101° | 51km/h | 24589m | -12.4m/s | -52.2°C | 4.0% | 28.3hPa | 2.5V | 00:00:00 | 02:10:40 | 00:00:00 | |
| DO3MHA-11 | 2026-08-31 00:39:58 | 48.48035 | 12.62230 | 122° | 49km/h | 24601m | -12.3m/s | -52.2°C | 4.0% | 28.3hPa | 2.5V | 00:00:00 | 02:10:39 | 00:00:00 | |
| OE5MMP-10 | 2026-08-31 00:39:56 | 48.48055 | 12.62206 | 162° | 53km/h | 24626m | -12.7m/s | -52.4°C | 4.1% | 28.2hPa | 2.5V | 00:00:00 | 02:10:37 | 00:00:00 | |
| OE5HKT-10 | 2026-08-31 00:39:52 | 48.48101 | 12.62232 | 239° | 58km/h | 24678m | -12.6m/s | -52.3°C | 4.1% | 27.9hPa | 2.5V | 00:00:00 | 02:10:33 | 00:00:00 | |
| DK5PH-5 | 2026-08-31 00:39:49 | 48.48103 | 12.62290 | 296° | 55km/h | 24715m | -12.4m/s | -52.2°C | 4.0% | 27.8hPa | 2.5V | 00:00:00 | 02:10:30 | 00:00:00 | |
| DO7DH-14 | 2026-08-31 00:39:48 | 48.48095 | 12.62307 | 313° | 58km/h | 24728m | -12.2m/s | -52.2°C | 4.0% | 27.7hPa | 2.5V | 08:24:00 | 02:10:29 | 00:00:00 | |
| OE5MMP-10 | 2026-08-31 00:39:46 | 48.48073 | 12.62325 | 353° | 49km/h | 24753m | -12.9m/s | -52.1°C | 4.0% | 27.6hPa | 2.6V | 00:00:00 | 02:10:27 | 00:00:00 | |
| OE5FHM-15 | 2026-08-31 00:39:45 | 48.48061 | 12.62325 | 11° | 57km/h | 24767m | -13.4m/s | -52.1°C | 4.0% | 27.5hPa | 2.5V | 00:00:00 | 02:10:26 | 00:00:00 | |
| DO3MHA-11 | 2026-08-31 00:39:39 | 48.48047 | 12.62240 | 140° | 60km/h | 24841m | -12.3m/s | -52.2°C | 4.0% | 27.3hPa | 2.5V | 00:00:00 | 02:10:20 | 00:00:00 | |
| OE5WHR-10 | 2026-08-31 00:39:38 | 48.48059 | 12.62229 | 158° | 58km/h | 24854m | -12.9m/s | -52.2°C | 4.0% | 27.1hPa | 2.5V | 00:00:00 | 00:00:00 | 00:00:00 | |
| OE5MMP-10 | 2026-08-31 00:39:36 | 48.48088 | 12.62224 | 191° | 60km/h | 24881m | -14.1m/s | -52.2°C | 4.0% | 27.0hPa | 2.5V | 00:00:00 | 02:10:17 | 00:00:00 | |
| DO3MHA-11 | 2026-08-31 00:39:29 | 48.48120 | 12.62352 | 313° | 57km/h | 24971m | -13.5m/s | -52.1°C | 4.0% | 26.6hPa | 2.5V | 00:00:00 | 02:10:10 | 00:00:00 | |
| DG1MFX-10 | 2026-08-31 00:39:28 | 48.48120 | 12.62352 | 314° | 60km/h | 24971m | -13.6m/s | -52.2°C | 1.1% | 26.7hPa | 2.5V | 00:00:00 | 00:00:00 | 00:00:00 | |
| OE5MMP-10 | 2026-08-31 00:39:26 | 48.48082 | 12.62373 | 12° | 57km/h | 25010m | -13.1m/s | -52.2°C | 4.1% | 26.5hPa | 2.5V | 00:00:00 | 02:10:07 | 00:00:00 | |
| OE5DRO-10 | 2026-08-31 00:39:23 | 48.48051 | 12.62335 | 72° | 57km/h | 25050m | -13.9m/s | -52.1°C | 4.1% | 26.3hPa | 2.5V | 00:00:00 | 00:00:00 | 00:00:00 | |
| DO3MHA-11 | 2026-08-31 00:39:19 | 48.48073 | 12.62266 | 160° | 58km/h | 25105m | -13.6m/s | -52.2°C | 4.1% | 26.1hPa | 2.5V | 00:00:00 | 02:10:00 | 00:00:00 | |
| OE5WHR-10 | 2026-08-31 00:39:17 | 48.48103 | 12.62266 | 198° | 58km/h | 25131m | -12.5m/s | -52.3°C | 4.1% | 26.0hPa | 2.6V | 00:00:00 | 00:00:00 | 00:00:00 | |
| OE5MMP-10 | 2026-08-31 00:39:16 | 48.48117 | 12.62277 | 218° | 58km/h | 25143m | -12.4m/s | -52.3°C | 4.2% | 25.9hPa | 2.6V | 00:00:00 | 02:09:57 | 00:00:00 | |
| OE5FHM-15 | 2026-08-31 00:39:15 | 48.48128 | 12.62295 | 237° | 58km/h | 25155m | -13.0m/s | -52.3°C | 4.2% | 25.8hPa | 2.5V | 00:00:00 | 02:09:56 | 00:00:00 | |
| DO7DH-14 | 2026-08-31 00:39:10 | 48.48117 | 12.62400 | 324° | 62km/h | 25221m | -12.9m/s | -52.0°C | 4.1% | 25.5hPa | 2.5V | 00:00:00 | 02:09:51 | 00:00:00 | |
| DO3MHA-11 | 2026-08-31 00:39:08 | 48.48093 | 12.62410 | 9° | 49km/h | 25247m | -13.0m/s | -51.8°C | 4.1% | 25.5hPa | 2.5V | 00:00:00 | 02:09:49 | 00:00:00 | |
| DG1MFX-10 | 2026-08-31 00:39:07 | 48.48093 | 12.62410 | 9° | 46km/h | 25247m | -13.1m/s | -51.9°C | 1.1% | 25.5hPa | 2.5V | 08:26:00 | 00:00:00 | 00:00:00 | |
| OE5MMP-10 | 2026-08-31 00:39:06 | 48.48075 | 12.62393 | 63° | 58km/h | 25273m | -13.6m/s | -51.6°C | 4.0% | 25.4hPa | 2.5V | 00:00:00 | 02:09:47 | 00:00:00 | |
| DL6DJ-15 | 2026-08-31 00:39:05 | 48.48073 | 12.62379 | 94° | 38km/h | 25286m | -14.0m/s | -51.5°C | 1.0% | 25.4hPa | 2.5V | 00:00:00 | 00:00:00 | 00:00:00 | |
| OE5DRO-10 | 2026-08-31 00:39:04 | 48.48077 | 12.62364 | 121° | 58km/h | 25300m | -13.4m/s | -51.3°C | 3.9% | 25.3hPa | 2.5V | 00:00:00 | 00:00:00 | 00:00:00 | |
| DO3MHA-11 | 2026-08-31 00:38:58 | 48.48153 | 12.62384 | 238° | 66km/h | 25381m | -14.5m/s | -51.1°C | 3.7% | 25.0hPa | 2.5V | 00:00:00 | 02:09:39 | 00:00:00 | |
| OE5WHR-10 | 2026-08-31 00:38:56 | 48.48164 | 12.62440 | 268° | 58km/h | 25409m | -14.0m/s | -51.1°C | 3.8% | 24.8hPa | 2.5V | 00:00:00 | 02:09:37 | 00:00:00 | |
| DK5PH-5 | 2026-08-31 00:38:49 | 48.48095 | 12.62520 | 49° | 57km/h | 25504m | -14.0m/s | -51.4°C | 3.8% | 24.4hPa | 2.5V | 00:00:00 | 02:09:30 | 00:00:00 | |
| DG1MFX-10 | 2026-08-31 00:38:48 | 48.48090 | 12.62506 | 74° | 46km/h | 25518m | -14.2m/s | -51.5°C | 1.1% | 24.4hPa | 2.5V | 08:26:00 | 00:00:00 | 00:00:00 | |
| OE5DXL-15 | 2026-08-31 00:38:47 | 48.48101 | 12.62457 | 142° | 58km/h | 25560m | -14.5m/s | -51.6°C | 3.9% | 24.2hPa | 2.5V | 00:00:00 | 00:00:00 | 00:00:00 | |
| OE5FHM-15 | 2026-08-31 00:38:45 | 48.48101 | 12.62457 | 142° | 58km/h | 25560m | -14.5m/s | -51.6°C | 3.9% | 24.2hPa | 2.5V | 00:00:00 | 02:09:26 | 00:00:00 | |
| BAUMI2-15 | 2026-08-31 00:38:40 | 48.48164 | 12.62476 | 239° | 62km/h | 25629m | -13.0m/s | -51.9°C | 4.0% | 24.0hPa | 2.5V | 00:00:00 | 02:09:21 | 00:00:00 | |
| DF3TZ-5 | 2026-08-31 00:38:38 | 48.48166 | 12.62544 | 294° | 62km/h | 25668m | -13.2m/s | -52.0°C | 1.1% | 23.9hPa | 2.5V | 00:00:00 | 00:00:00 | 00:00:00 | |
| OE5MMP-10 | 2026-08-31 00:38:36 | 48.48157 | 12.62563 | 312° | 55km/h | 25682m | -13.4m/s | -52.0°C | 4.0% | 23.8hPa | 2.5V | 00:00:00 | 02:09:17 | 00:00:00 | |
| DO7DH-14 | 2026-08-31 00:38:35 | 48.48145 | 12.62579 | 329° | 64km/h | 25695m | -13.4m/s | -52.1°C | 4.0% | 23.7hPa | 2.5V | 00:00:00 | 02:09:16 | 00:00:00 | |
| BAUMI2-15 | 2026-08-31 00:38:30 | 48.48082 | 12.62564 | 61° | 47km/h | 25764m | -13.7m/s | -52.2°C | 4.2% | 23.5hPa | 2.5V | 00:00:00 | 02:09:11 | 00:00:00 | |
| DO3MHA-11 | 2026-08-31 00:38:27 | 48.48084 | 12.62515 | 128° | 51km/h | 25806m | -13.4m/s | -52.0°C | 4.1% | 23.3hPa | 2.6V | 00:00:00 | 02:09:08 | 00:00:00 | |
| OE5MMP-10 | 2026-08-31 00:38:26 | 48.48093 | 12.62504 | 153° | 62km/h | 25819m | -14.0m/s | -51.8°C | 4.1% | 23.3hPa | 2.6V | 00:00:00 | 02:09:07 | 00:00:00 | |
| BAUMI2-15 | 2026-08-31 00:38:22 | 48.48147 | 12.62517 | 222° | 68km/h | 25874m | -14.6m/s | -51.6°C | 4.0% | 23.1hPa | 2.6V | 00:00:00 | 02:09:03 | 00:00:00 | |
| BAUMI2-15 | 2026-08-31 00:38:17 | 48.48163 | 12.62632 | 296° | 58km/h | 25945m | -14.3m/s | -51.5°C | 4.0% | 22.8hPa | 2.6V | 00:00:00 | 02:08:58 | 00:00:00 | |
| OE5MMP-10 | 2026-08-31 00:38:16 | 48.48155 | 12.62652 | 311° | 51km/h | 25960m | -14.4m/s | -51.4°C | 4.0% | 22.7hPa | 2.6V | 00:00:00 | 02:08:57 | 00:00:00 | |
| OE5FHM-15 | 2026-08-31 00:38:15 | 48.48143 | 12.62667 | 332° | 57km/h | 25974m | -15.7m/s | -51.4°C | 4.0% | 22.7hPa | 2.6V | 00:00:00 | 02:08:56 | 00:00:00 | |
| OE5WHR-10 | 2026-08-31 00:38:14 | 48.48130 | 12.62674 | 351° | 57km/h | 25990m | -15.6m/s | -51.4°C | 4.0% | 22.6hPa | 2.6V | 00:00:00 | 00:00:00 | 00:00:00 | |
| BAUMI2-15 | 2026-08-31 00:38:12 | 48.48104 | 12.62669 | 25° | 47km/h | 26020m | -14.4m/s | -51.3°C | 4.0% | 22.6hPa | 2.6V | 00:00:00 | 02:08:53 | 00:00:00 | |
| DK5PH-5 | 2026-08-31 00:38:11 | 48.48095 | 12.62658 | 53° | 58km/h | 26034m | -14.8m/s | -51.2°C | 4.0% | 22.5hPa | 2.5V | 00:00:00 | 02:08:52 | 00:00:00 | |
| OE5HKT-10 | 2026-08-31 00:38:08 | 48.48093 | 12.62609 | 121° | 57km/h | 26077m | -13.5m/s | -51.2°C | 4.0% | 22.3hPa | 2.5V | 00:00:00 | 00:00:00 | 00:00:00 | |
| DG1MFX-10 | 2026-08-31 00:38:07 | 48.48101 | 12.62597 | 146° | 46km/h | 26091m | -14.6m/s | -51.2°C | 1.1% | 22.3hPa | 2.5V | 08:26:00 | 00:00:00 | 00:00:00 | |
| OE5MMP-10 | 2026-08-31 00:38:06 | 48.48112 | 12.62590 | 168° | 60km/h | 26106m | -15.3m/s | -51.2°C | 4.0% | 22.2hPa | 2.5V | 00:00:00 | 02:08:47 | 00:00:00 | |
| DL6DJ-15 | 2026-08-31 00:38:03 | 48.48144 | 12.62608 | 232° | 51km/h | 26150m | -14.9m/s | -50.9°C | 1.0% | 22.1hPa | 2.5V | 00:00:00 | 00:00:00 | 00:00:00 | |
| BAUMI2-15 | 2026-08-31 00:38:01 | 48.48153 | 12.62648 | 271° | 69km/h | 26178m | -13.2m/s | -50.8°C | 3.9% | 21.9hPa | 2.5V | 00:00:00 | 02:08:42 | 00:00:00 | |
| DO7DH-14 | 2026-08-31 00:37:57 | 48.48116 | 12.62732 | 333° | 64km/h | 26235m | -15.3m/s | -50.7°C | 3.9% | 21.8hPa | 2.5V | 00:00:00 | 02:08:38 | 00:00:00 | |
| OE5MMP-10 | 2026-08-31 00:37:56 | 48.48099 | 12.62741 | 350° | 62km/h | 26251m | -15.6m/s | -50.7°C | 3.9% | 21.7hPa | 2.5V | 00:00:00 | 02:08:37 | 00:00:00 | |
| OE5WHR-10 | 2026-08-31 00:37:53 | 48.48048 | 12.62728 | 33° | 57km/h | 26295m | -14.5m/s | -50.7°C | 3.9% | 21.6hPa | 2.5V | 00:00:00 | 02:08:34 | 00:00:00 | |
| BAUMI2-15 | 2026-08-31 00:37:51 | 48.48029 | 12.62692 | 69° | 55km/h | 26324m | -14.8m/s | -50.5°C | 3.8% | 21.5hPa | 2.5V | 00:00:00 | 02:08:32 | 00:00:00 | |
| DO3MHA-11 | 2026-08-31 00:37:49 | 48.48028 | 12.62651 | 110° | 57km/h | 26353m | -16.1m/s | -50.3°C | 3.8% | 21.4hPa | 2.5V | 00:00:00 | 02:08:30 | 00:00:00 | |
| OE5DRO-10 | 2026-08-31 00:37:48 | 48.48034 | 12.62634 | 129° | 57km/h | 26368m | -14.8m/s | -50.3°C | 3.8% | 21.3hPa | 2.5V | 00:00:00 | 00:00:00 | 00:00:00 | |
| OE5HKT-10 | 2026-08-31 00:37:47 | 48.48045 | 12.62621 | 152° | 57km/h | 26383m | -15.9m/s | -50.3°C | 3.8% | 21.3hPa | 2.5V | 00:00:00 | 00:00:00 | 00:00:00 | |
| OE5MMP-10 | 2026-08-31 00:37:46 | 48.48058 | 12.62614 | 170° | 57km/h | 26398m | -16.5m/s | -50.4°C | 3.8% | 21.2hPa | 2.5V | 00:00:00 | 02:08:27 | 00:00:00 | |
| OE5FHM-15 | 2026-08-31 00:37:45 | 48.48071 | 12.62614 | 190° | 62km/h | 26414m | -14.7m/s | -50.4°C | 3.9% | 21.1hPa | 2.5V | 00:00:00 | 02:08:26 | 00:00:00 | |
| DG1MFX-10 | 2026-08-31 00:37:44 | 48.48071 | 12.62614 | 191° | 55km/h | 26414m | -14.7m/s | -50.5°C | 1.1% | 21.2hPa | 2.5V | 08:26:00 | 00:00:00 | 00:00:00 | |
| BAUMI2-15 | 2026-08-31 00:37:41 | 48.48105 | 12.62672 | 269° | 58km/h | 26472m | -14.3m/s | -50.1°C | 3.7% | 21.0hPa | 2.5V | 00:00:00 | 02:08:22 | 00:00:00 | |
| OE5MMP-10 | 2026-08-31 00:37:36 | 48.48056 | 12.62736 | 4° | 58km/h | 26546m | -17.7m/s | -49.8°C | 3.6% | 20.8hPa | 2.6V | 00:00:00 | 02:08:17 | 00:00:00 | |
| DK5PH-5 | 2026-08-31 00:37:35 | 48.48041 | 12.62731 | 21° | 69km/h | 26563m | -16.5m/s | -49.7°C | 3.6% | 20.6hPa | 2.6V | 00:00:00 | 02:08:16 | 00:00:00 | |
| OE5WHR-10 | 2026-08-31 00:37:32 | 48.48014 | 12.62685 | 87° | 62km/h | 26610m | -17.2m/s | -49.6°C | 3.6% | 20.5hPa | 2.5V | 00:00:00 | 00:00:00 | 00:00:00 | |
| DO3MHA-11 | 2026-08-31 00:37:31 | 48.48015 | 12.62665 | 106° | 57km/h | 26626m | -17.7m/s | -49.7°C | 3.6% | 20.5hPa | 2.5V | 00:00:00 | 02:08:12 | 00:00:00 | |
| OE5MMP-10 | 2026-08-31 00:37:26 | 48.48076 | 12.62635 | 211° | 73km/h | 26710m | -15.2m/s | -49.6°C | 3.5% | 20.1hPa | 2.5V | 00:00:00 | 02:08:07 | 00:00:00 | |
| BAUMI2-15 | 2026-08-31 00:37:25 | 48.48089 | 12.62652 | 233° | 75km/h | 26725m | -15.3m/s | -49.6°C | 3.5% | 20.1hPa | 2.5V | 00:00:00 | 02:08:06 | 00:00:00 | |
| DG1MFX-10 | 2026-08-31 00:37:24 | 48.48097 | 12.62675 | 251° | 71km/h | 26739m | -16.3m/s | -49.7°C | 1.0% | 20.2hPa | 2.5V | 08:27:00 | 00:00:00 | 00:00:00 | |
| DO7DH-14 | 2026-08-31 00:37:21 | 48.48090 | 12.62758 | 305° | 75km/h | 26785m | -15.5m/s | -49.8°C | 3.6% | 19.9hPa | 2.5V | 00:00:00 | 02:08:02 | 00:00:00 | |
| BAUMI2-15 | 2026-08-31 00:37:20 | 48.48078 | 12.62779 | 318° | 68km/h | 26800m | -16.1m/s | -49.8°C | 3.6% | 19.9hPa | 2.5V | 00:00:00 | 02:08:01 | 00:00:00 | |
| OE5MMP-10 | 2026-08-31 00:37:16 | 48.48015 | 12.62794 | 30° | 58km/h | 26865m | -17.0m/s | -50.0°C | 3.6% | 19.7hPa | 2.5V | 08:27:00 | 02:07:57 | 00:00:00 | |
| OE5FHM-15 | 2026-08-31 00:37:15 | 48.48006 | 12.62782 | 57° | 64km/h | 26882m | -17.0m/s | -50.0°C | 3.6% | 19.7hPa | 2.5V | 00:00:00 | 02:07:56 | 00:00:00 | |
| DO3MHA-11 | 2026-08-31 00:37:13 | 48.48012 | 12.62739 | 148° | 58km/h | 26928m | -17.5m/s | -50.1°C | 3.7% | 19.5hPa | 2.6V | 00:00:00 | 02:07:53 | 00:00:00 | |
| OE5WHR-10 | 2026-08-31 00:37:11 | 48.48023 | 12.62732 | 168° | 64km/h | 26945m | -17.3m/s | -50.2°C | 3.7% | 19.4hPa | 2.5V | 00:00:00 | 00:00:00 | 00:00:00 | |
| BAUMI2-15 | 2026-08-31 00:37:10 | 48.48038 | 12.62731 | 190° | 75km/h | 26961m | -17.2m/s | -50.2°C | 3.7% | 19.4hPa | 2.5V | 08:27:00 | 02:07:51 | 00:00:00 | |
| OE5MMP-10 | 2026-08-31 00:37:06 | 48.48088 | 12.62809 | 257° | 73km/h | 27026m | -16.3m/s | -50.3°C | 3.8% | 19.2hPa | 2.5V | 00:00:00 | 02:07:47 | 00:00:00 | |
| DF3TZ-5 | 2026-08-31 00:37:05 | 48.48085 | 12.62871 | 292° | 82km/h | 27057m | -15.1m/s | -50.5°C | 1.0% | 19.1hPa | 2.5V | 00:00:00 | 00:00:00 | 00:00:00 | |
| DG1MFX-10 | 2026-08-31 00:37:03 | 48.48084 | 12.62871 | 294° | 82km/h | 27057m | -15.1m/s | -50.5°C | 1.1% | 19.1hPa | 2.5V | 08:27:00 | 00:00:00 | 00:00:00 | |
| DL6DJ-15 | 2026-08-31 00:37:01 | 48.48044 | 12.62926 | 346° | 68km/h | 27102m | -17.3m/s | -50.3°C | 1.0% | 19.0hPa | 2.5V | 00:00:00 | 00:00:00 | 00:00:00 | |
| BAUMI2-15 | 2026-08-31 00:36:58 | 48.47999 | 12.62909 | 45° | 46km/h | 27151m | -15.8m/s | -50.2°C | 3.8% | 18.8hPa | 2.5V | 00:00:00 | 02:07:39 | 00:00:00 | |
| OE5MMP-10 | 2026-08-31 00:36:56 | 48.47989 | 12.62876 | 96° | 60km/h | 27182m | -17.5m/s | -50.2°C | 3.8% | 18.7hPa | 2.5V | 00:00:00 | 02:07:37 | 00:00:00 | |
| DO3MHA-11 | 2026-08-31 00:36:55 | 48.47993 | 12.62862 | 126° | 64km/h | 27199m | -18.1m/s | -50.2°C | 3.8% | 18.7hPa | 2.5V | 00:00:00 | 02:07:36 | 00:00:00 | |
| BAUMI2-15 | 2026-08-31 00:36:53 | 48.48011 | 12.62852 | 190° | 60km/h | 27233m | -16.6m/s | -50.1°C | 3.7% | 18.6hPa | 2.5V | 00:00:00 | 02:07:34 | 00:00:00 | |
| OE5WHR-10 | 2026-08-31 00:36:50 | 48.48037 | 12.62896 | 258° | 69km/h | 27281m | -17.9m/s | -50.0°C | 3.8% | 18.5hPa | 2.6V | 00:00:00 | 02:07:31 | 00:00:00 | |
| BAUMI2-15 | 2026-08-31 00:36:48 | 48.48033 | 12.62952 | 295° | 77km/h | 27315m | -17.5m/s | -50.0°C | 3.7% | 18.4hPa | 2.6V | 00:00:00 | 02:07:29 | 00:00:00 | |
| OE5MMP-10 | 2026-08-31 00:36:46 | 48.48006 | 12.63002 | 326° | 73km/h | 27347m | -16.3m/s | -50.0°C | 3.8% | 18.2hPa | 2.6V | 00:00:00 | 02:07:27 | 00:00:00 | |
| OE5FHM-15 | 2026-08-31 00:36:45 | 48.47986 | 12.63017 | 343° | 66km/h | 27363m | -17.4m/s | -50.0°C | 3.7% | 18.2hPa | 2.5V | 00:00:00 | 02:07:26 | 00:00:00 | |
| DK5PH-5 | 2026-08-31 00:36:44 | 48.47964 | 12.63022 | 358° | 77km/h | 27380m | -18.0m/s | -50.1°C | 3.8% | 18.2hPa | 2.5V | 00:00:00 | 02:07:25 | 00:00:00 | |
| DG1MFX-10 | 2026-08-31 00:36:42 | 48.47943 | 12.63019 | 16° | 84km/h | 27396m | -18.0m/s | -50.2°C | 1.1% | 18.2hPa | 2.5V | 08:28:00 | 00:00:00 | 00:00:00 | |
| OE5HKT-10 | 2026-08-31 00:36:40 | 48.47904 | 12.62965 | 73° | 60km/h | 27446m | -16.9m/s | -50.1°C | 3.8% | 18.0hPa | 2.5V | 00:00:00 | 00:00:00 | 00:00:00 | |
| DO3MHA-11 | 2026-08-31 00:36:37 | 48.47916 | 12.62903 | 143° | 60km/h | 27497m | -17.1m/s | -49.9°C | 3.8% | 17.8hPa | 2.5V | 00:00:00 | 02:07:18 | 00:00:00 | |
| OE5MMP-10 | 2026-08-31 00:36:36 | 48.47929 | 12.62895 | 169° | 62km/h | 27514m | -17.5m/s | -49.8°C | 3.7% | 17.8hPa | 2.5V | 00:00:00 | 02:07:17 | 00:00:00 | |
| DF3TZ-5 | 2026-08-31 00:36:33 | 48.47967 | 12.62941 | 266° | 55km/h | 27578m | -17.0m/s | -49.7°C | 1.0% | 17.6hPa | 2.5V | 00:00:00 | 00:00:00 | 00:00:00 | |
| OE8JPQ-2 | 2026-08-31 00:36:30 | 48.47957 | 12.62982 | 314° | 75km/h | 27610m | -18.1m/s | 0°C | 0% | 0hPa | 2.5V | 00:00:00 | 00:00:00 | 00:00:00 | |
| OE5WHR-10 | 2026-08-31 00:36:29 | 48.47944 | 12.62997 | 333° | 69km/h | 27627m | -18.4m/s | -49.6°C | 3.6% | 17.5hPa | 2.5V | 00:00:00 | 00:00:00 | 00:00:00 | |
| OE5MMP-10 | 2026-08-31 00:36:26 | 48.47891 | 12.62995 | 30° | 62km/h | 27680m | -17.8m/s | -49.5°C | 3.7% | 17.3hPa | 2.6V | 00:00:00 | 02:07:07 | 00:00:00 | |
| DG1MFX-10 | 2026-08-31 00:36:21 | 48.47865 | 12.62908 | 110° | 60km/h | 27747m | -18.0m/s | -49.6°C | 1.0% | 17.2hPa | 2.6V | 08:28:00 | 00:00:00 | 00:00:00 | |
| OE5HKT-10 | 2026-08-31 00:36:19 | 48.47897 | 12.62873 | 181° | 62km/h | 27798m | -17.5m/s | -49.6°C | 3.7% | 17.0hPa | 2.6V | 00:00:00 | 02:07:00 | 00:00:00 | |
| DO3MHA-11 | 2026-08-31 00:36:17 | 48.47924 | 12.62892 | 227° | 71km/h | 27832m | -17.2m/s | -49.5°C | 3.7% | 16.9hPa | 2.6V | 00:00:00 | 02:06:58 | 00:00:00 | |
| DK5PH-5 | 2026-08-31 00:36:11 | 48.47894 | 12.63027 | 341° | 37km/h | 27938m | -18.5m/s | -49.3°C | 3.6% | 16.6hPa | 2.6V | 00:00:00 | 02:06:52 | 00:00:00 | |
| OE5WHR-10 | 2026-08-31 00:36:08 | 48.47842 | 12.63015 | 41° | 66km/h | 27990m | -16.1m/s | -49.4°C | 3.6% | 16.5hPa | 2.6V | 00:00:00 | 00:00:00 | 00:00:00 | |
| DO3MHA-11 | 2026-08-31 00:36:06 | 48.47829 | 12.62976 | 91° | 71km/h | 28023m | -17.5m/s | -49.4°C | 3.6% | 16.4hPa | 2.6V | 00:00:00 | 02:06:47 | 00:00:00 | |
| DL6DJ-15 | 2026-08-31 00:35:59 | 48.47899 | 12.62957 | 249° | 58km/h | 28142m | -17.7m/s | -49.4°C | 1.0% | 16.1hPa | 2.6V | 00:00:00 | 00:00:00 | 00:00:00 | |
| OE5HKT-10 | 2026-08-31 00:35:58 | 48.47901 | 12.62979 | 275° | 66km/h | 28160m | -18.0m/s | -49.3°C | 3.7% | 16.1hPa | 2.6V | 00:00:00 | 00:00:00 | 00:00:00 | |
| OE5MMP-10 | 2026-08-31 00:35:55 | 48.47871 | 12.63034 | 341° | 73km/h | 28213m | -19.3m/s | -49.2°C | 3.7% | 15.9hPa | 2.5V | 00:00:00 | 02:06:36 | 00:00:00 | |
| DO3MHA-11 | 2026-08-31 00:35:49 | 48.47789 | 12.62951 | 93° | 71km/h | 28326m | -18.4m/s | -49.0°C | 3.7% | 15.6hPa | 2.5V | 00:00:00 | 02:06:30 | 00:00:00 | |
| OE5WHR-10 | 2026-08-31 00:35:47 | 48.47802 | 12.62905 | 135° | 68km/h | 28362m | -17.6m/s | -49.0°C | 3.7% | 15.5hPa | 2.5V | 00:00:00 | 02:06:28 | 00:00:00 | |
| OE5MMP-10 | 2026-08-31 00:35:45 | 48.47830 | 12.62889 | 185° | 71km/h | 28399m | -18.0m/s | -49.0°C | 3.7% | 15.5hPa | 2.5V | 08:28:00 | 02:06:26 | 00:00:00 | |
| OE8JPQ-2 | 2026-08-31 00:35:40 | 48.47854 | 12.63010 | 315° | 57km/h | 28505m | -18.4m/s | 0°C | 0% | 0hPa | 2.6V | 00:00:00 | 02:06:20 | 00:00:00 | |
| DO7DH-14 | 2026-08-31 00:35:38 | 48.47838 | 12.63027 | 334° | 78km/h | 28523m | -17.9m/s | -48.5°C | 3.6% | 15.1hPa | 2.6V | 00:00:00 | 02:06:19 | 00:00:00 | |
| OE5MMP-10 | 2026-08-31 00:35:35 | 48.47784 | 12.63026 | 33° | 64km/h | 28576m | -18.0m/s | -48.3°C | 3.5% | 15.0hPa | 2.6V | 00:00:00 | 02:06:16 | 00:00:00 | |
| DO3MHA-11 | 2026-08-31 00:35:32 | 48.47763 | 12.62962 | 99° | 69km/h | 28630m | -18.8m/s | -48.1°C | 3.5% | 14.9hPa | 2.6V | 00:00:00 | 02:06:13 | 00:00:00 | |
| OE5HKT-10 | 2026-08-31 00:35:30 | 48.47778 | 12.62924 | 146° | 53km/h | 28668m | -19.0m/s | -48.0°C | 3.5% | 14.8hPa | 2.6V | 00:00:00 | 00:00:00 | 00:00:00 | |
| DL6DJ-15 | 2026-08-31 00:35:28 | 48.47820 | 12.62929 | 219° | 64km/h | 28723m | -18.1m/s | -48.0°C | 0.9% | 14.7hPa | 2.6V | 00:00:00 | 00:00:00 | 00:00:00 | |
| OE5WHR-10 | 2026-08-31 00:35:26 | 48.47831 | 12.62947 | 241° | 71km/h | 28741m | -17.6m/s | -47.9°C | 3.5% | 14.7hPa | 2.6V | 08:29:00 | 00:00:00 | 00:00:00 | |
| OE5MMP-10 | 2026-08-31 00:35:25 | 48.47836 | 12.62972 | 265° | 78km/h | 28758m | -19.5m/s | -47.8°C | 3.5% | 14.6hPa | 2.6V | 00:00:00 | 02:06:06 | 00:00:00 | |
| DG1MFX-10 | 2026-08-31 00:35:19 | 48.47776 | 12.63073 | 356° | 82km/h | 28854m | -19.0m/s | -47.9°C | 1.0% | 14.4hPa | 2.6V | 08:29:00 | 00:00:00 | 00:00:00 | |
| OE5FHM-15 | 2026-08-31 00:35:15 | 48.47717 | 12.62988 | 99° | 68km/h | 28945m | -20.0m/s | -47.5°C | 3.5% | 14.2hPa | 2.6V | 00:00:00 | 02:05:56 | 00:00:00 | |
| OE5DXL-15 | 2026-08-31 00:35:12 | 48.47775 | 12.62945 | 214° | 64km/h | 29042m | -19.9m/s | -47.4°C | 3.5% | 13.9hPa | 2.6V | 00:00:00 | 00:00:00 | 00:00:00 | |
| OE5MMP-10 | 2026-08-31 00:35:05 | 48.47768 | 12.63048 | 329° | 77km/h | 29138m | -21.1m/s | -46.7°C | 3.3% | 13.8hPa | 2.5V | 00:00:00 | 02:05:46 | 00:00:00 | |
| DO3MHA-11 | 2026-08-31 00:35:02 | 48.47708 | 12.63053 | 24° | 77km/h | 29199m | -21.1m/s | -46.5°C | 3.3% | 13.6hPa | 2.5V | 00:00:00 | 02:05:43 | 00:00:00 | |
| DL6DJ-15 | 2026-08-31 00:34:57 | 48.47685 | 12.62915 | 138° | 62km/h | 29317m | -20.5m/s | -46.4°C | 0.9% | 13.4hPa | 2.5V | 00:00:00 | 00:00:00 | 00:00:00 | |
| OE5MMP-10 | 2026-08-31 00:34:55 | 48.47698 | 12.62905 | 163° | 60km/h | 29338m | -21.0m/s | -46.3°C | 3.3% | 13.3hPa | 2.5V | 00:00:00 | 02:05:36 | 00:00:00 | |
| OE5FHM-15 | 2026-08-31 00:34:45 | 48.47673 | 12.62996 | 20° | 49km/h | 29529m | -20.2m/s | -45.6°C | 3.2% | 13.0hPa | 2.5V | 00:00:00 | 02:05:26 | 00:00:00 | |
| OE5WHR-10 | 2026-08-31 00:34:44 | 48.47656 | 12.62982 | 36° | 57km/h | 29549m | -20.3m/s | -45.5°C | 3.1% | 12.9hPa | 2.5V | 00:00:00 | 02:05:25 | 00:00:00 | |
| OE5DXL-15 | 2026-08-31 00:34:41 | 48.47626 | 12.62913 | 80° | 40km/h | 29606m | -19.4m/s | -45.3°C | 3.1% | 12.8hPa | 2.5V | 00:00:00 | 00:00:00 | 00:00:00 | |
| DO3MHA-11 | 2026-08-31 00:34:40 | 48.47625 | 12.62886 | 96° | 64km/h | 29625m | -18.6m/s | -45.3°C | 3.1% | 12.7hPa | 2.5V | 00:00:00 | 02:05:21 | 00:00:00 | |
| OE5DRO-10 | 2026-08-31 00:34:38 | 48.47637 | 12.62842 | 128° | 20km/h | 29662m | -17.4m/s | -45.2°C | 3.1% | 12.7hPa | 2.6V | 00:00:00 | 00:00:00 | 00:00:00 | |
| BAUMI2-15 | 2026-08-31 00:34:37 | 48.47648 | 12.62826 | 144° | 53km/h | 29680m | -18.4m/s | -45.1°C | 3.0% | 12.7hPa | 2.6V | 00:00:00 | 02:05:18 | 00:00:00 | |
| OE5MMP-10 | 2026-08-31 00:34:35 | 48.47673 | 12.62811 | 172° | 49km/h | 29716m | -18.4m/s | -44.9°C | 3.0% | 12.6hPa | 2.6V | 00:00:00 | 02:05:16 | 00:00:00 | |
| BAUMI2-15 | 2026-08-31 00:34:32 | 48.47708 | 12.62825 | 218° | 47km/h | 29771m | -17.2m/s | -45.0°C | 3.0% | 12.5hPa | 2.6V | 00:00:00 | 02:05:13 | 00:00:00 | |
| DF3TZ-5 | 2026-08-31 00:34:29 | 48.47723 | 12.62869 | 264° | 46km/h | 29823m | -17.4m/s | -45.0°C | -1.0% | 12.4hPa | 2.5V | 00:00:00 | 00:00:00 | 00:00:00 | |
| BAUMI2-15 | 2026-08-31 00:34:27 | 48.47721 | 12.62906 | 286° | 44km/h | 29859m | -18.3m/s | -44.8°C | 3.1% | 12.3hPa | 2.5V | 00:00:00 | 02:05:08 | 00:00:00 | |
| DL6DJ-15 | 2026-08-31 00:34:26 | 48.47712 | 12.62940 | 297° | 44km/h | 29897m | -19.6m/s | -44.8°C | 0.8% | 12.3hPa | 2.5V | 00:00:00 | 00:00:00 | 00:00:00 | |
| OE5MMP-10 | 2026-08-31 00:34:25 | 48.47712 | 12.62940 | 298° | 31km/h | 29897m | -19.5m/s | -44.7°C | 3.1% | 12.2hPa | 2.5V | 00:00:00 | 02:05:06 | 00:00:00 | |
| DO3MHA-11 | 2026-08-31 00:34:24 | 48.47706 | 12.62953 | 305° | 22km/h | 29916m | -18.6m/s | -44.8°C | 3.1% | 12.2hPa | 2.5V | 00:00:00 | 02:05:05 | 00:00:00 | |
| OE5WHR-10 | 2026-08-31 00:34:23 | 48.47701 | 12.62964 | 313° | 16km/h | 29934m | -17.4m/s | -44.9°C | 3.1% | 12.2hPa | 2.5V | 00:00:00 | 00:00:00 | 00:00:00 | |
| BAUMI2-15 | 2026-08-31 00:34:22 | 48.47695 | 12.62972 | 325° | 27km/h | 29952m | -16.6m/s | -44.9°C | 3.2% | 12.1hPa | 2.5V | 00:00:00 | 02:05:03 | 00:00:00 | |
| OE5HKT-10 | 2026-08-31 00:34:20 | 48.47684 | 12.62975 | 15° | 15km/h | 29989m | -21.5m/s | -44.8°C | 3.1% | 12.1hPa | 2.5V | 00:00:00 | 02:05:01 | 00:00:00 | |
| DG1MFX-10 | 2026-08-31 00:34:17 | 48.47665 | 12.62959 | 34° | 29km/h | 30085m | -41.6m/s | -44.2°C | 0.8% | 12.0hPa | 2.5V | 00:00:00 | 00:00:00 | 00:00:00 | |
| OE5MMP-10 | 2026-08-31 00:34:15 | 48.47654 | 12.62949 | 29° | 9km/h | 30165m | -38.0m/s | -44.0°C | 2.8% | 11.8hPa | 2.5V | 00:00:00 | 02:04:56 | 08:30:00 | |
| BAUMI2-15 | 2026-08-31 00:34:11 | 48.47646 | 12.62945 | 283° | 5km/h | 30291m | -20.5m/s | -43.9°C | 2.8% | 11.6hPa | 2.6V | 00:00:00 | 02:04:52 | 00:00:00 | |
| BAUMI2-15 | 2026-08-31 00:34:06 | 48.47646 | 12.62956 | 253° | 9km/h | 30300m | 4.4m/s | -44.1°C | 2.8% | 11.5hPa | 2.6V | 00:00:00 | 02:04:47 | 00:00:00 | |
| OE5MMP-10 | 2026-08-31 00:34:05 | 48.47647 | 12.62959 | 234° | 15km/h | 30295m | 4.2m/s | -44.1°C | 2.8% | 11.5hPa | 2.6V | 00:00:00 | 02:04:46 | 00:00:00 | |
| OE5WHR-10 | 2026-08-31 00:34:02 | 48.47651 | 12.62953 | 104° | 11km/h | 30279m | 5.3m/s | -44.2°C | 2.8% | 11.5hPa | 2.6V | 00:00:00 | 00:00:00 | 00:00:00 | |
| DF3TZ-5 | 2026-08-31 00:33:58 | 48.47646 | 12.62928 | 37° | 15km/h | 30257m | 5.4m/s | -44.4°C | -1.0% | 11.6hPa | 2.6V | 00:00:00 | 00:00:00 | 00:00:00 | |
| DL6DJ-15 | 2026-08-31 00:33:55 | 48.47636 | 12.62926 | 358° | 4km/h | 30237m | 5.6m/s | -44.5°C | 0.8% | 11.7hPa | 2.6V | 00:00:00 | 00:00:00 | 00:00:00 | |
| BAUMI2-15 | 2026-08-31 00:33:51 | 48.47636 | 12.62922 | 132° | 9km/h | 30221m | 5.6m/s | -44.6°C | 2.9% | 11.6hPa | 2.6V | 00:00:00 | 02:04:32 | 00:00:00 | |
| DO3MHA-11 | 2026-08-31 00:33:49 | 48.47638 | 12.62918 | 128° | 13km/h | 30210m | 4.7m/s | -44.6°C | 2.9% | 11.7hPa | 2.6V | 00:00:00 | 02:04:30 | 08:30:00 | |
| BAUMI2-15 | 2026-08-31 00:33:46 | 48.47643 | 12.62906 | 121° | 13km/h | 30193m | 6.1m/s | -44.5°C | 2.9% | 11.7hPa | 2.5V | 00:00:00 | 02:04:27 | 00:00:00 | |
| OE5MMP-10 | 2026-08-31 00:33:45 | 48.47645 | 12.62900 | 119° | 9km/h | 30188m | 4.7m/s | -44.5°C | 2.9% | 11.7hPa | 2.5V | 00:00:00 | 02:04:26 | 00:00:00 | |
| DO3MHA-11 | 2026-08-31 00:33:39 | 48.47645 | 12.62890 | 333° | 13km/h | 30158m | 4.2m/s | -44.8°C | 2.9% | 11.7hPa | 2.5V | 00:00:00 | 02:04:20 | 00:00:00 | |
| OE5HKT-10 | 2026-08-31 00:33:38 | 48.47645 | 12.62890 | 44° | 13km/h | 30153m | 5.5m/s | -44.8°C | 2.9% | 11.7hPa | 2.5V | 00:00:00 | 00:00:00 | 00:00:00 | |
| DG1MFX-10 | 2026-08-31 00:33:36 | 48.47646 | 12.62885 | 117° | 15km/h | 30141m | 5.5m/s | -44.9°C | 0.8% | 11.8hPa | 2.5V | 00:00:00 | 00:00:00 | 00:00:00 | |
| OE5MMP-10 | 2026-08-31 00:33:35 | 48.47648 | 12.62880 | 118° | 15km/h | 30136m | 5.6m/s | -44.9°C | 3.0% | 11.8hPa | 2.5V | 00:00:00 | 02:04:16 | 00:00:00 | |
| BAUMI2-15 | 2026-08-31 00:33:31 | 48.47655 | 12.62854 | 108° | 13km/h | 30115m | 4.7m/s | -44.9°C | 3.0% | 11.8hPa | 2.5V | 00:00:00 | 02:04:12 | 08:30:00 | |
| DO3MHA-11 | 2026-08-31 00:33:29 | 48.47657 | 12.62842 | 108° | 11km/h | 30104m | 5.5m/s | -45.0°C | 3.0% | 11.9hPa | 2.5V | 00:00:00 | 02:04:10 | 00:00:00 | |
| BAUMI2-15 | 2026-08-31 00:33:26 | 48.47659 | 12.62835 | 276° | 7km/h | 30088m | 6.4m/s | -45.0°C | 3.0% | 11.9hPa | 2.5V | 00:00:00 | 02:04:07 | 00:00:00 | |
| OE5MMP-10 | 2026-08-31 00:33:25 | 48.47659 | 12.62837 | 275° | 15km/h | 30082m | 5.2m/s | -45.0°C | 3.0% | 11.9hPa | 2.5V | 00:00:00 | 02:04:06 | 00:00:00 | |
| DL6DJ-15 | 2026-08-31 00:33:24 | 48.47660 | 12.62843 | 232° | 7km/h | 30073m | 4.4m/s | -45.1°C | 0.8% | 11.9hPa | 2.5V | 00:00:00 | 00:00:00 | 00:00:00 | |
| BAUMI2-15 | 2026-08-31 00:33:21 | 48.47664 | 12.62843 | 151° | 20km/h | 30062m | 5.9m/s | -45.1°C | 3.0% | 11.9hPa | 2.5V | 00:00:00 | 02:04:02 | 00:00:00 | |
| OE5WHR-10 | 2026-08-31 00:33:20 | 48.47668 | 12.62839 | 135° | 13km/h | 30057m | 5.3m/s | -45.1°C | 3.0% | 11.9hPa | 2.5V | 00:00:00 | 00:00:00 | 00:00:00 | |
| DO3MHA-11 | 2026-08-31 00:33:19 | 48.47671 | 12.62832 | 123° | 16km/h | 30052m | 4.2m/s | -45.1°C | 3.0% | 11.9hPa | 2.5V | 00:00:00 | 02:04:00 | 00:00:00 | |
| OE5HKT-10 | 2026-08-31 00:33:17 | 48.47676 | 12.62817 | 102° | 13km/h | 30043m | 5.5m/s | -45.1°C | 3.0% | 11.9hPa | 2.6V | 00:00:00 | 02:03:58 | 00:00:00 | |
| BAUMI2-15 | 2026-08-31 00:33:16 | 48.47676 | 12.62810 | 83° | 7km/h | 30037m | 5.9m/s | -45.1°C | 3.0% | 12.0hPa | 2.6V | 00:00:00 | 02:03:57 | 00:00:00 | |
| OE5FHM-15 | 2026-08-31 00:33:15 | 48.47675 | 12.62806 | 51° | 9km/h | 30031m | 5.5m/s | -45.1°C | 3.1% | 12.0hPa | 2.6V | 00:00:00 | 02:03:56 | 00:00:00 | |
| DG1MFX-10 | 2026-08-31 00:33:14 | 48.47675 | 12.62806 | 51° | 9km/h | 30031m | 5.5m/s | -45.2°C | 0.9% | 12.0hPa | 2.6V | 00:00:00 | 00:00:00 | 00:00:00 | |
| BAUMI2-15 | 2026-08-31 00:33:11 | 48.47671 | 12.62804 | 132° | 11km/h | 30010m | 5.5m/s | -45.2°C | 3.0% | 12.0hPa | 2.6V | 00:00:00 | 02:03:52 | 00:00:00 | |
| DO3MHA-11 | 2026-08-31 00:33:09 | 48.47674 | 12.62799 | 127° | 13km/h | 30000m | 4.9m/s | -45.2°C | 3.0% | 12.0hPa | 2.6V | 00:00:00 | 02:03:50 | 00:00:00 | |
| BAUMI2-15 | 2026-08-31 00:33:06 | 48.47680 | 12.62786 | 124° | 9km/h | 29984m | 5.6m/s | -45.2°C | 3.0% | 12.1hPa | 2.6V | 00:00:00 | 02:03:47 | 00:00:00 | |
| OE5MMP-10 | 2026-08-31 00:33:05 | 48.47681 | 12.62782 | 123° | 15km/h | 29979m | 5.3m/s | -45.1°C | 3.0% | 12.1hPa | 2.6V | 00:00:00 | 02:03:46 | 00:00:00 | |
| DL6DJ-15 | 2026-08-31 00:32:53 | 48.47660 | 12.62739 | 73° | 7km/h | 29909m | 5.4m/s | -45.0°C | 0.8% | 12.2hPa | 2.6V | 00:00:00 | 00:00:00 | 00:00:00 | |
| OE5REO-15 | 2026-08-31 00:32:52 | 48.47661 | 12.62741 | 40° | 7km/h | 29915m | 6.1m/s | -45.0°C | 0.8% | 12.3hPa | 2.6V | 00:00:00 | 00:00:00 | 00:00:00 | |
| BAUMI2-15 | 2026-08-31 00:32:51 | 48.47660 | 12.62735 | 96° | 5km/h | 29904m | 5.1m/s | -45.0°C | 3.0% | 12.2hPa | 2.6V | 00:00:00 | 02:03:32 | 00:00:00 | |
| DO3MHA-11 | 2026-08-31 00:32:49 | 48.47661 | 12.62730 | 110° | 5km/h | 29893m | 6.1m/s | -45.1°C | 3.0% | 12.2hPa | 2.6V | 00:00:00 | 02:03:30 | 00:00:00 | |
| BAUMI2-15 | 2026-08-31 00:32:46 | 48.47660 | 12.62727 | 30° | 9km/h | 29877m | 5.1m/s | -45.2°C | 3.0% | 12.3hPa | 2.5V | 00:00:00 | 02:03:27 | 08:30:00 | |
| OE5FHM-15 | 2026-08-31 00:32:45 | 48.47658 | 12.62726 | 40° | 7km/h | 29872m | 6.4m/s | -45.2°C | 3.0% | 12.3hPa | 2.5V | 00:00:00 | 02:03:26 | 00:00:00 | |
| OE5DXL-15 | 2026-08-31 00:32:41 | 48.47650 | 12.62722 | 341° | 7km/h | 29849m | 6.1m/s | -45.3°C | 3.0% | 12.3hPa | 2.6V | 00:00:00 | 00:00:00 | 00:00:00 | |
| OE5WHR-10 | 2026-08-31 00:32:38 | 48.47644 | 12.62729 | 307° | 7km/h | 29834m | 5.9m/s | -45.3°C | 3.0% | 12.4hPa | 2.6V | 00:00:00 | 02:03:19 | 00:00:00 | |
| OE5REO-15 | 2026-08-31 00:32:37 | 48.47644 | 12.62729 | 308° | 7km/h | 29834m | 5.9m/s | -45.4°C | 0.8% | 12.4hPa | 2.6V | 00:00:00 | 00:00:00 | 00:00:00 | |
| DO3MHA-11 | 2026-08-31 00:32:36 | 48.47644 | 12.62730 | 144° | 9km/h | 29822m | 4.9m/s | -45.3°C | 3.1% | 12.4hPa | 2.6V | 00:00:00 | 02:03:17 | 00:00:00 | |
| OE5MMP-10 | 2026-08-31 00:32:35 | 48.47644 | 12.62730 | 133° | 7km/h | 29817m | 4.4m/s | -45.3°C | 3.0% | 12.4hPa | 2.6V | 00:00:00 | 02:03:16 | 00:00:00 | |
| DG1MFX-10 | 2026-08-31 00:32:34 | 48.47645 | 12.62729 | 136° | 4km/h | 29812m | 5.4m/s | -45.4°C | 0.9% | 12.5hPa | 2.6V | 00:00:00 | 00:00:00 | 00:00:00 | |
| OE5MMP-10 | 2026-08-31 00:32:25 | 48.47639 | 12.62708 | 55° | 9km/h | 29763m | 6.3m/s | -45.3°C | 3.0% | 12.5hPa | 2.6V | 00:00:00 | 02:03:06 | 00:00:00 | |
| OE5DRO-10 | 2026-08-31 00:32:23 | 48.47635 | 12.62701 | 35° | 13km/h | 29752m | 5.2m/s | -45.3°C | 3.0% | 12.5hPa | 2.6V | 00:00:00 | 00:00:00 | 00:00:00 | |
| DO3MHA-11 | 2026-08-31 00:32:22 | 48.47633 | 12.62699 | 40° | 9km/h | 29746m | 5.5m/s | -45.3°C | 3.0% | 12.5hPa | 2.6V | 00:00:00 | 02:03:03 | 00:00:00 | |
| DL6DJ-15 | 2026-08-31 00:32:21 | 48.47632 | 12.62697 | 61° | 5km/h | 29740m | 6.5m/s | -45.4°C | 0.8% | 12.6hPa | 2.6V | 00:00:00 | 00:00:00 | 00:00:00 | |
| OE5REO-15 | 2026-08-31 00:32:20 | 48.47632 | 12.62697 | 62° | 7km/h | 29740m | 6.5m/s | -45.4°C | 0.8% | 12.6hPa | 2.6V | 00:00:00 | 00:00:00 | 00:00:00 | |
| OE5WHR-10 | 2026-08-31 00:32:17 | 48.47631 | 12.62688 | 52° | 15km/h | 29719m | 6.2m/s | -45.5°C | 3.0% | 12.6hPa | 2.6V | 00:00:00 | 00:00:00 | 08:30:00 | |
| OE5MMP-10 | 2026-08-31 00:32:15 | 48.47628 | 12.62685 | 28° | 16km/h | 29707m | 4.7m/s | -45.6°C | 3.0% | 12.6hPa | 2.5V | 00:00:00 | 02:02:56 | 00:00:00 | |
| OE5HKT-10 | 2026-08-31 00:32:13 | 48.47623 | 12.62679 | 57° | 11km/h | 29696m | 6.3m/s | -45.6°C | 3.1% | 12.6hPa | 2.5V | 00:00:00 | 02:02:54 | 00:00:00 | |
| DO3MHA-11 | 2026-08-31 00:32:12 | 48.47621 | 12.62673 | 66° | 15km/h | 29691m | 5.1m/s | -45.7°C | 3.1% | 12.6hPa | 2.5V | 00:00:00 | 02:02:53 | 08:30:00 | |
| OE5DXL-15 | 2026-08-31 00:32:11 | 48.47619 | 12.62667 | 67° | 16km/h | 29686m | 4.4m/s | -45.7°C | 3.1% | 12.6hPa | 2.6V | 00:00:00 | 00:00:00 | 08:30:00 | |
| OE5MMP-10 | 2026-08-31 00:32:05 | 48.47601 | 12.62642 | 32° | 16km/h | 29653m | 6.2m/s | -45.7°C | 3.1% | 12.7hPa | 2.5V | 00:00:00 | 02:02:46 | 00:00:00 | |
| OE5DRO-10 | 2026-08-31 00:32:04 | 48.47599 | 12.62639 | 49° | 15km/h | 29647m | 5.9m/s | -45.7°C | 3.1% | 12.7hPa | 2.5V | 00:00:00 | 00:00:00 | 00:00:00 | |
| DF3TZ-5 | 2026-08-31 00:31:54 | 48.47563 | 12.62590 | 27° | 20km/h | 29588m | 6.2m/s | -46.1°C | -1.0% | -1.0hPa | 2.5V | 00:00:00 | 00:00:00 | 00:00:00 | |
| DL6DJ-15 | 2026-08-31 00:31:50 | 48.47548 | 12.62583 | 15° | 16km/h | 29571m | 5.4m/s | -46.1°C | 0.8% | 12.9hPa | 2.5V | 00:00:00 | 00:00:00 | 00:00:00 | |
| DH7VM-15 | 2026-08-31 00:31:49 | 48.47548 | 12.62583 | 17° | 16km/h | 29572m | 5.4m/s | 0°C | 0% | 12.9hPa | 2.5V | 00:00:00 | 00:00:00 | 00:00:00 | |
| OE5MMP-10 | 2026-08-31 00:31:45 | 48.47540 | 12.62567 | 68° | 11km/h | 29544m | 6.1m/s | -46.1°C | 3.1% | 12.9hPa | 2.5V | 00:00:00 | 02:02:26 | 00:00:00 | |
| OE5DXL-15 | 2026-08-31 00:31:41 | 48.47533 | 12.62553 | 59° | 13km/h | 29521m | 6.3m/s | -46.1°C | 3.1% | 13.0hPa | 2.5V | 00:00:00 | 00:00:00 | 00:00:00 | |
| OE5WHR-10 | 2026-08-31 00:31:35 | 48.47521 | 12.62535 | 31° | 13km/h | 29488m | 5.0m/s | -46.1°C | 3.1% | 13.1hPa | 2.5V | 00:00:00 | 02:02:16 | 00:00:00 | |
| DG1MFX-10 | 2026-08-31 00:31:31 | 48.47519 | 12.62525 | 96° | 13km/h | 29471m | 4.8m/s | -46.3°C | 0.9% | 13.1hPa | 2.5V | 00:00:00 | 00:00:00 | 00:00:00 | |
| OE5MMP-10 | 2026-08-31 00:31:25 | 48.47503 | 12.62502 | 21° | 15km/h | 29432m | 5.2m/s | -46.5°C | 3.1% | 13.1hPa | 2.5V | 00:00:00 | 02:02:06 | 00:00:00 | |
| DO3MHA-11 | 2026-08-31 00:31:20 | 48.47481 | 12.62503 | 348° | 13km/h | 29405m | 4.7m/s | -46.6°C | 3.2% | 13.2hPa | 2.5V | 00:00:00 | 02:02:01 | 00:00:00 | |
| DL6DJ-15 | 2026-08-31 00:31:19 | 48.47478 | 12.62503 | 357° | 11km/h | 29399m | 5.6m/s | -46.7°C | 0.9% | 13.3hPa | 2.5V | 00:00:00 | 00:00:00 | 00:00:00 | |
| DO7DH-14 | 2026-08-31 00:31:18 | 48.47475 | 12.62503 | 18° | 16km/h | 29393m | 6.6m/s | -46.7°C | 3.2% | 13.2hPa | 2.5V | 00:00:00 | 02:01:59 | 08:30:00 | |
| OE5FHM-15 | 2026-08-31 00:31:15 | 48.47469 | 12.62496 | 39° | 18km/h | 29378m | 4.9m/s | -46.9°C | 3.3% | 13.3hPa | 2.6V | 00:00:00 | 02:01:56 | 08:30:00 | |
| OE5WHR-10 | 2026-08-31 00:31:14 | 48.47467 | 12.62494 | 16° | 18km/h | 29372m | 5.7m/s | -46.9°C | 3.2% | 13.3hPa | 2.5V | 00:00:00 | 00:00:00 | 00:00:00 | |
| OE5DXL-15 | 2026-08-31 00:31:11 | 48.47454 | 12.62496 | 350° | 18km/h | 29356m | 5.0m/s | -46.8°C | 3.3% | 13.3hPa | 2.6V | 00:00:00 | 00:00:00 | 00:00:00 | |
| DO3MHA-11 | 2026-08-31 00:31:10 | 48.47449 | 12.62497 | 354° | 16km/h | 29350m | 5.8m/s | -46.8°C | 3.2% | 13.3hPa | 2.6V | 00:00:00 | 02:01:51 | 00:00:00 | |
| OE5MMP-10 | 2026-08-31 00:31:05 | 48.47429 | 12.62489 | 24° | 18km/h | 29321m | 5.3m/s | -46.7°C | 3.2% | 13.4hPa | 2.6V | 00:00:00 | 02:01:46 | 00:00:00 | |
| DF3TZ-5 | 2026-08-31 00:30:52 | 48.47368 | 12.62463 | 32° | 24km/h | 29244m | 5.6m/s | 0°C | -1.0% | -1.0hPa | 2.6V | 00:00:00 | 00:00:00 | 00:00:00 | |
| DL6DJ-15 | 2026-08-31 00:30:48 | 48.47351 | 12.62450 | 23° | 24km/h | 29228m | 4.5m/s | -47.0°C | 0.8% | 13.6hPa | 2.6V | 00:00:00 | 00:00:00 | 00:00:00 | |
| OE5FHM-15 | 2026-08-31 00:30:45 | 48.47338 | 12.62439 | 33° | 13km/h | 29211m | 5.7m/s | -47.1°C | 3.2% | 13.6hPa | 2.6V | 00:00:00 | 02:01:26 | 00:00:00 | |
| OE5REO-15 | 2026-08-31 00:30:43 | 48.47335 | 12.62437 | 27° | 13km/h | 29206m | 5.2m/s | -47.1°C | 0.9% | 13.7hPa | 2.6V | 00:00:00 | 00:00:00 | 00:00:00 | |
| BAUMI2-15 | 2026-08-31 00:30:41 | 48.47325 | 12.62437 | 342° | 18km/h | 29188m | 5.4m/s | -47.1°C | 3.2% | 13.7hPa | 2.6V | 00:00:00 | 02:01:22 | 00:00:00 | |
| OE5DXL-15 | 2026-08-31 00:30:38 | 48.47312 | 12.62441 | 6° | 15km/h | 29173m | 6.4m/s | -47.1°C | 3.2% | 13.7hPa | 2.6V | 00:00:00 | 00:00:00 | 00:00:00 | |
| BAUMI2-15 | 2026-08-31 00:30:36 | 48.47304 | 12.62436 | 38° | 20km/h | 29161m | 5.4m/s | -47.2°C | 3.2% | 13.7hPa | 2.6V | 00:00:00 | 02:01:17 | 00:00:00 | |
| OE5MMP-10 | 2026-08-31 00:30:35 | 48.47300 | 12.62432 | 38° | 16km/h | 29156m | 5.2m/s | -47.2°C | 3.2% | 13.7hPa | 2.6V | 00:00:00 | 02:01:16 | 00:00:00 | |
| OE5WHR-10 | 2026-08-31 00:30:32 | 48.47286 | 12.62423 | 10° | 13km/h | 29139m | 4.8m/s | -47.3°C | 3.3% | 13.8hPa | 2.6V | 00:00:00 | 02:01:13 | 00:00:00 | |
| BAUMI2-15 | 2026-08-31 00:30:31 | 48.47282 | 12.62422 | 3° | 15km/h | 29134m | 4.8m/s | -47.4°C | 3.3% | 13.8hPa | 2.6V | 00:00:00 | 02:01:12 | 00:00:00 | |
| DG1MFX-10 | 2026-08-31 00:30:30 | 48.47282 | 12.62422 | 4° | 18km/h | 29134m | 4.8m/s | -47.5°C | 0.9% | 13.9hPa | 2.5V | 00:00:00 | 00:00:00 | 00:00:00 | |
| DO3MHA-11 | 2026-08-31 00:30:28 | 48.47271 | 12.62422 | 355° | 11km/h | 29117m | 5.1m/s | -47.6°C | 3.4% | 13.8hPa | 2.5V | 00:00:00 | 02:01:09 | 00:00:00 | |
| BAUMI2-15 | 2026-08-31 00:30:26 | 48.47265 | 12.62424 | 343° | 15km/h | 29106m | 6.1m/s | -47.6°C | 3.4% | 13.9hPa | 2.6V | 00:00:00 | 02:01:07 | 00:00:00 | |
| OE5MMP-10 | 2026-08-31 00:30:25 | 48.47261 | 12.62425 | 342° | 9km/h | 29100m | 5.8m/s | -47.6°C | 3.3% | 13.9hPa | 2.6V | 00:00:00 | 02:01:06 | 00:00:00 | |
| BAUMI2-15 | 2026-08-31 00:30:21 | 48.47249 | 12.62429 | 26° | 4km/h | 29078m | 6.1m/s | -47.7°C | 3.4% | 13.9hPa | 2.6V | 00:00:00 | 02:01:02 | 00:00:00 | |
| DO3MHA-11 | 2026-08-31 00:30:18 | 48.47249 | 12.62426 | 23° | 15km/h | 29062m | 5.9m/s | -47.7°C | 3.3% | 13.9hPa | 2.6V | 00:00:00 | 02:00:59 | 00:00:00 | |
| BAUMI2-15 | 2026-08-31 00:30:17 | 48.47246 | 12.62428 | 331° | 15km/h | 29051m | 5.2m/s | -47.6°C | 3.3% | 14.0hPa | 2.6V | 00:00:00 | 02:00:57 | 00:00:00 | |
| OE5FHM-15 | 2026-08-31 00:30:16 | 48.47243 | 12.62431 | 332° | 15km/h | 29046m | 4.8m/s | -47.6°C | 3.4% | 14.0hPa | 2.6V | 00:00:00 | 02:00:56 | 00:00:00 | |
| OE5MMP-10 | 2026-08-31 00:30:15 | 48.47243 | 12.62431 | 332° | 18km/h | 29046m | 4.8m/s | -47.6°C | 3.4% | 14.0hPa | 2.6V | 00:00:00 | 02:00:56 | 00:00:00 | |
| DO7DH-14 | 2026-08-31 00:30:12 | 48.47232 | 12.62436 | 353° | 11km/h | 29029m | 5.5m/s | -47.6°C | 3.3% | 14.0hPa | 2.5V | 00:00:00 | 02:00:53 | 00:00:00 | |
| OE5WHR-10 | 2026-08-31 00:30:11 | 48.47227 | 12.62437 | 359° | 15km/h | 29023m | 5.1m/s | -47.6°C | 3.3% | 14.1hPa | 2.5V | 00:00:00 | 00:00:00 | 00:00:00 | |
| DG1MFX-10 | 2026-08-31 00:30:10 | 48.47227 | 12.62437 | 359° | 16km/h | 29023m | 5.1m/s | -47.7°C | 0.9% | 14.1hPa | 2.5V | 00:00:00 | 00:00:00 | 00:00:00 | |
| DO3MHA-11 | 2026-08-31 00:30:08 | 48.47212 | 12.62438 | 355° | 11km/h | 29006m | 5.7m/s | -47.7°C | 3.3% | 14.1hPa | 2.5V | 00:00:00 | 02:00:49 | 00:00:00 | |
| BAUMI2-15 | 2026-08-31 00:30:06 | 48.47201 | 12.62440 | 359° | 9km/h | 28997m | 4.5m/s | -47.7°C | 3.3% | 14.1hPa | 2.5V | 00:00:00 | 02:00:47 | 00:00:00 | |
| OE5MMP-10 | 2026-08-31 00:30:05 | 48.47197 | 12.62439 | 8° | 9km/h | 28991m | 6.5m/s | -47.7°C | 3.3% | 14.1hPa | 2.5V | 00:00:00 | 02:00:46 | 00:00:00 | |
| BAUMI2-15 | 2026-08-31 00:30:01 | 48.47194 | 12.62436 | 290° | 9km/h | 28968m | 6.3m/s | -47.9°C | 3.4% | 14.1hPa | 2.5V | 00:00:00 | 02:00:42 | 08:30:00 | |
| OE5HKT-10 | 2026-08-31 00:29:56 | 48.47186 | 12.62451 | 325° | 16km/h | 28939m | 4.9m/s | -48.0°C | 3.4% | 14.2hPa | 2.5V | 00:00:00 | 00:00:00 | 00:00:00 | |
| DO3MHA-11 | 2026-08-31 00:29:55 | 48.47183 | 12.62454 | 332° | 16km/h | 28934m | 5.0m/s | -48.1°C | 3.5% | 14.2hPa | 2.5V | 00:00:00 | 02:00:36 | 08:30:00 | |
| BAUMI2-15 | 2026-08-31 00:29:51 | 48.47163 | 12.62465 | 353° | 15km/h | 28912m | 4.5m/s | -48.1°C | 3.4% | 14.3hPa | 2.5V | 00:00:00 | 02:00:32 | 00:00:00 | |
| OE5WHR-10 | 2026-08-31 00:29:50 | 48.47158 | 12.62466 | 6° | 16km/h | 28906m | 6.5m/s | -48.0°C | 3.4% | 14.3hPa | 2.5V | 00:00:00 | 00:00:00 | 00:00:00 | |
| BAUMI2-15 | 2026-08-31 00:29:46 | 48.47147 | 12.62460 | 347° | 18km/h | 28884m | 6.3m/s | -48.0°C | 3.4% | 14.4hPa | 2.5V | 00:00:00 | 02:00:27 | 00:00:00 | |
| OE5MMP-10 | 2026-08-31 00:29:45 | 48.47145 | 12.62462 | 322° | 20km/h | 28878m | 5.7m/s | -48.0°C | 3.4% | 14.4hPa | 2.5V | 00:00:00 | 02:00:26 | 08:30:00 | |
| BAUMI2-15 | 2026-08-31 00:29:41 | 48.47130 | 12.62484 | 317° | 22km/h | 28855m | 5.5m/s | -48.0°C | 3.5% | 14.4hPa | 2.6V | 00:00:00 | 02:00:22 | 00:00:00 | |
| OE5REO-15 | 2026-08-31 00:29:40 | 48.47130 | 12.62484 | 318° | 22km/h | 28855m | 5.6m/s | -48.0°C | 0.9% | 14.5hPa | 2.6V | 00:00:00 | 00:00:00 | 00:00:00 | |
| OE5DXL-15 | 2026-08-31 00:29:38 | 48.47118 | 12.62499 | 330° | 16km/h | 28839m | 6.3m/s | -47.9°C | 3.4% | 14.4hPa | 2.6V | 00:00:00 | 00:00:00 | 00:00:00 | |
| BAUMI2-15 | 2026-08-31 00:29:36 | 48.47108 | 12.62505 | 343° | 15km/h | 28827m | 5.1m/s | -47.9°C | 3.5% | 14.5hPa | 2.6V | 00:00:00 | 02:00:17 | 00:00:00 | |
| OE5MMP-10 | 2026-08-31 00:29:35 | 48.47104 | 12.62507 | 355° | 16km/h | 28822m | 5.7m/s | -47.9°C | 3.4% | 14.5hPa | 2.6V | 00:00:00 | 02:00:16 | 00:00:00 | |
| OE5HKT-10 | 2026-08-31 00:29:32 | 48.47094 | 12.62504 | 12° | 13km/h | 28805m | 4.1m/s | -47.9°C | 3.4% | 14.6hPa | 2.6V | 00:00:00 | 00:00:00 | 00:00:00 | |
| BAUMI2-15 | 2026-08-31 00:29:31 | 48.47091 | 12.62504 | 348° | 18km/h | 28801m | 5.4m/s | -47.9°C | 3.4% | 14.5hPa | 2.6V | 00:00:00 | 02:00:12 | 00:00:00 | |
| DG1MFX-10 | 2026-08-31 00:29:30 | 48.47091 | 12.62504 | 349° | 11km/h | 28801m | 5.5m/s | -48.0°C | 1.0% | 14.6hPa | 2.6V | 00:00:00 | 00:00:00 | 00:00:00 | |
| OE5WHR-10 | 2026-08-31 00:29:29 | 48.47085 | 12.62511 | 312° | 16km/h | 28789m | 5.8m/s | -48.0°C | 3.4% | 14.6hPa | 2.6V | 00:00:00 | 02:00:10 | 00:00:00 | |
| BAUMI2-15 | 2026-08-31 00:29:26 | 48.47074 | 12.62531 | 311° | 16km/h | 28773m | 5.8m/s | -48.0°C | 3.4% | 14.6hPa | 2.6V | 00:00:00 | 02:00:07 | 00:00:00 | |
| DO3MHA-11 | 2026-08-31 00:29:25 | 48.47071 | 12.62536 | 319° | 13km/h | 28767m | 5.4m/s | -48.0°C | 3.4% | 14.6hPa | 2.6V | 00:00:00 | 02:00:06 | 00:00:00 | |
| BAUMI2-15 | 2026-08-31 00:29:21 | 48.47056 | 12.62547 | 347° | 11km/h | 28744m | 5.2m/s | -48.1°C | 3.4% | 14.7hPa | 2.5V | 00:00:00 | 02:00:02 | 00:00:00 | |
| BAUMI2-15 | 2026-08-31 00:29:16 | 48.47045 | 12.62547 | 304° | 16km/h | 28717m | 4.5m/s | -48.0°C | 3.4% | 14.7hPa | 2.5V | 00:00:00 | 01:59:57 | 08:30:00 | |
| OE5FHM-15 | 2026-08-31 00:29:15 | 48.47044 | 12.62550 | 290° | 13km/h | 28712m | 6.6m/s | -48.0°C | 3.4% | 14.7hPa | 2.5V | 00:00:00 | 01:59:56 | 00:00:00 | |
| BAUMI2-15 | 2026-08-31 00:29:11 | 48.47037 | 12.62581 | 291° | 15km/h | 28689m | 6.0m/s | -48.1°C | 3.4% | 14.8hPa | 2.5V | 00:00:00 | 01:59:52 | 00:00:00 | |
| DG1MFX-10 | 2026-08-31 00:29:09 | 48.47036 | 12.62587 | 298° | 16km/h | 28683m | 5.7m/s | -48.2°C | 1.0% | 14.9hPa | 2.5V | 00:00:00 | 00:00:00 | 00:00:00 | |
| OE5WHR-10 | 2026-08-31 00:29:08 | 48.47032 | 12.62594 | 340° | 11km/h | 28673m | 5.3m/s | -48.2°C | 3.4% | 14.9hPa | 2.5V | 00:00:00 | 00:00:00 | 08:30:00 | |
| BAUMI2-15 | 2026-08-31 00:29:06 | 48.47026 | 12.62595 | 357° | 9km/h | 28661m | 5.8m/s | -48.2°C | 3.4% | 14.9hPa | 2.5V | 00:00:00 | 01:59:47 | 00:00:00 | |
| OE5MMP-10 | 2026-08-31 00:29:05 | 48.47023 | 12.62595 | 357° | 13km/h | 28655m | 4.8m/s | -48.2°C | 3.4% | 14.9hPa | 2.5V | 00:00:00 | 01:59:46 | 00:00:00 | |
| BAUMI2-15 | 2026-08-31 00:29:01 | 48.47016 | 12.62599 | 278° | 16km/h | 28634m | 4.7m/s | -48.3°C | 3.4% | 14.9hPa | 2.5V | 00:00:00 | 01:59:42 | 00:00:00 | |
| BAUMI2-15 | 2026-08-31 00:28:56 | 48.47009 | 12.62630 | 293° | 13km/h | 28606m | 5.3m/s | -48.4°C | 3.4% | 15.0hPa | 2.5V | 00:00:00 | 01:59:37 | 00:00:00 | |
| OE5MMP-10 | 2026-08-31 00:28:55 | 48.47008 | 12.62637 | 291° | 9km/h | 28600m | 6.1m/s | -48.4°C | 3.4% | 15.0hPa | 2.5V | 00:00:00 | 01:59:36 | 00:00:00 | |
| DO3MHA-11 | 2026-08-31 00:28:54 | 48.47006 | 12.62642 | 289° | 9km/h | 28595m | 5.3m/s | -48.5°C | 3.5% | 15.0hPa | 2.5V | 00:00:00 | 01:59:35 | 00:00:00 | |
| OE5REO-15 | 2026-08-31 00:28:53 | 48.47006 | 12.62642 | 289° | 11km/h | 28595m | 5.3m/s | -48.5°C | 0.9% | 15.1hPa | 2.5V | 00:00:00 | 00:00:00 | 00:00:00 | |
| BAUMI2-15 | 2026-08-31 00:28:51 | 48.47003 | 12.62647 | 346° | 9km/h | 28579m | 6.4m/s | -48.5°C | 3.5% | 15.0hPa | 2.5V | 00:00:00 | 01:59:32 | 00:00:00 | |
| DG1MFX-10 | 2026-08-31 00:28:49 | 48.47001 | 12.62647 | 350° | 11km/h | 28573m | 5.5m/s | -48.5°C | 1.0% | 15.1hPa | 2.5V | 00:00:00 | 00:00:00 | 00:00:00 | |
| OE5WHR-10 | 2026-08-31 00:28:47 | 48.46993 | 12.62651 | 333° | 9km/h | 28558m | 6.5m/s | -48.5°C | 3.5% | 15.1hPa | 2.5V | 00:00:00 | 00:00:00 | 00:00:00 | |
| BAUMI2-15 | 2026-08-31 00:28:46 | 48.46992 | 12.62653 | 305° | 7km/h | 28552m | 5.8m/s | -48.5°C | 3.5% | 15.1hPa | 2.5V | 00:00:00 | 01:59:27 | 00:00:00 | |
| DO3MHA-11 | 2026-08-31 00:28:44 | 48.46991 | 12.62657 | 279° | 9km/h | 28541m | 4.9m/s | -48.5°C | 3.5% | 15.2hPa | 2.5V | 00:00:00 | 01:59:25 | 00:00:00 | |
| OE5DXL-15 | 2026-08-31 00:28:38 | 48.46980 | 12.62682 | 315° | 7km/h | 28508m | 5.8m/s | -48.8°C | 3.6% | 15.2hPa | 2.5V | 00:00:00 | 00:00:00 | 00:00:00 | |
| OE5REO-15 | 2026-08-31 00:28:37 | 48.46980 | 12.62681 | 315° | 7km/h | 28508m | 5.8m/s | -48.8°C | 1.0% | 15.3hPa | 2.5V | 00:00:00 | 00:00:00 | 00:00:00 | |
| OE5MMP-10 | 2026-08-31 00:28:35 | 48.46978 | 12.62683 | 5° | 7km/h | 28492m | 6.3m/s | -48.8°C | 3.5% | 15.3hPa | 2.5V | 00:00:00 | 01:59:16 | 00:00:00 | |
| DO3MHA-11 | 2026-08-31 00:28:34 | 48.46977 | 12.62683 | 352° | 9km/h | 28486m | 5.8m/s | -48.7°C | 3.5% | 15.3hPa | 2.5V | 00:00:00 | 01:59:15 | 00:00:00 | |
| DG1MFX-10 | 2026-08-31 00:28:28 | 48.46976 | 12.62691 | 249° | 9km/h | 28459m | 4.4m/s | -48.9°C | 1.0% | 15.4hPa | 2.5V | 00:00:00 | 00:00:00 | 00:00:00 | |
| OE5WHR-10 | 2026-08-31 00:28:26 | 48.46975 | 12.62705 | 293° | 5km/h | 28442m | 5.8m/s | -48.9°C | 3.6% | 15.3hPa | 2.5V | 00:00:00 | 01:59:07 | 00:00:00 | |
| OE5MMP-10 | 2026-08-31 00:28:25 | 48.46974 | 12.62710 | 300° | 5km/h | 28436m | 4.8m/s | -48.9°C | 3.6% | 15.4hPa | 2.5V | 00:00:00 | 01:59:06 | 00:00:00 | |
| DO3MHA-11 | 2026-08-31 00:28:24 | 48.46972 | 12.62714 | 301° | 5km/h | 28431m | 5.5m/s | -48.9°C | 3.6% | 15.4hPa | 2.5V | 00:00:00 | 01:59:05 | 00:00:00 | |
| OE5HKT-10 | 2026-08-31 00:28:22 | 48.46971 | 12.62719 | 281° | 5km/h | 28420m | 5.1m/s | -48.9°C | 3.6% | 15.4hPa | 2.5V | 00:00:00 | 00:00:00 | 00:00:00 | |
| OE5REO-15 | 2026-08-31 00:28:20 | 48.46971 | 12.62719 | 0° | 0km/h | 28414m | 5.0m/s | -49.0°C | 1.0% | 15.5hPa | 2.5V | 00:00:00 | 00:00:00 | 00:00:00 | |
| OE5MMP-10 | 2026-08-31 00:28:15 | 48.46966 | 12.62727 | 266° | 5km/h | 28381m | 6.0m/s | -49.0°C | 3.6% | 15.5hPa | 2.5V | 00:00:00 | 01:58:56 | 08:30:00 | |
| DO3MHA-11 | 2026-08-31 00:28:14 | 48.46966 | 12.62729 | 260° | 5km/h | 28376m | 5.1m/s | -48.9°C | 3.6% | 15.6hPa | 2.6V | 00:00:00 | 01:58:55 | 08:30:00 | |
| DL6DJ-15 | 2026-08-31 00:28:13 | 48.46967 | 12.62732 | 272° | 5km/h | 28370m | 5.1m/s | -49.0°C | 1.0% | 15.6hPa | 2.5V | 00:00:00 | 00:00:00 | 00:00:00 | |
| DG1MFX-10 | 2026-08-31 00:28:10 | 48.46962 | 12.62737 | 74° | 4km/h | 28342m | 6.1m/s | -48.9°C | 1.0% | 15.7hPa | 2.5V | 00:00:00 | 00:00:00 | 00:00:00 | |
| DO3MHA-11 | 2026-08-31 00:28:08 | 48.46962 | 12.62732 | 4° | 5km/h | 28320m | 5.9m/s | -48.9°C | 3.6% | 15.7hPa | 2.5V | 00:00:00 | 01:58:45 | 00:00:00 | |
| OE5WHR-10 | 2026-08-31 00:27:57 | 48.46937 | 12.62697 | 10° | 9km/h | 28213m | 5.9m/s | -49.1°C | 3.6% | 16.0hPa | 2.5V | 00:00:00 | 00:00:00 | 00:00:00 | |
| DO3MHA-11 | 2026-08-31 00:27:56 | 48.46937 | 12.62697 | 10° | 11km/h | 28213m | 5.9m/s | -49.1°C | 3.6% | 16.0hPa | 2.5V | 00:00:00 | 01:58:25 | 00:00:00 | |
| DL6DJ-15 | 2026-08-31 00:27:48 | 48.46934 | 12.62695 | 17° | 7km/h | 28202m | 5.1m/s | -49.1°C | 1.0% | 16.0hPa | 2.5V | 00:00:00 | 00:00:00 | 00:00:00 | |
| OE5DXL-15 | 2026-08-31 00:27:38 | 48.46923 | 12.62689 | 40° | 9km/h | 28181m | 5.2m/s | -49.1°C | 3.6% | 16.0hPa | 2.5V | 00:00:00 | 00:00:00 | 08:30:00 | |
| OE5HKT-10 | 2026-08-31 00:27:36 | 48.46919 | 12.62681 | 77° | 9km/h | 28169m | 5.4m/s | -49.1°C | 3.6% | 16.1hPa | 2.6V | 00:00:00 | 00:00:00 | 08:30:00 | |
| OE5MMP-10 | 2026-08-31 00:27:35 | 48.46919 | 12.62676 | 81° | 7km/h | 28164m | 4.9m/s | -49.1°C | 3.6% | 16.1hPa | 2.6V | 00:00:00 | 01:58:16 | 00:00:00 | |
| DO3MHA-11 | 2026-08-31 00:27:34 | 48.46918 | 12.62672 | 75° | 7km/h | 28158m | 5.7m/s | -49.1°C | 3.6% | 16.1hPa | 2.6V | 00:00:00 | 01:58:15 | 00:00:00 | |
| OE5REO-15 | 2026-08-31 00:27:33 | 48.46918 | 12.62672 | 76° | 11km/h | 28158m | 5.8m/s | -49.2°C | 1.0% | 16.1hPa | 2.6V | 00:00:00 | 00:00:00 | 00:00:00 | |
| DG1MFX-10 | 2026-08-31 00:27:26 | 48.46909 | 12.62663 | 44° | 5km/h | 28121m | 4.6m/s | -49.2°C | 1.0% | 16.3hPa | 2.6V | 00:00:00 | 00:00:00 | 00:00:00 | |
| OE5MMP-10 | 2026-08-31 00:27:25 | 48.46905 | 12.62659 | 23° | 9km/h | 28110m | 6.0m/s | -49.1°C | 3.6% | 16.2hPa | 2.6V | 00:00:00 | 01:58:06 | 00:00:00 | |
| DO3MHA-11 | 2026-08-31 00:27:24 | 48.46902 | 12.62658 | 20° | 9km/h | 28104m | 5.1m/s | -49.1°C | 3.6% | 16.2hPa | 2.6V | 00:00:00 | 01:58:05 | 00:00:00 | |
| OE5WHR-10 | 2026-08-31 00:27:23 | 48.46899 | 12.62656 | 22° | 9km/h | 28099m | 4.8m/s | -49.1°C | 3.5% | 16.2hPa | 2.6V | 00:00:00 | 01:58:04 | 00:00:00 | |
| OE5REO-15 | 2026-08-31 00:27:17 | 48.46889 | 12.62651 | 327° | 7km/h | 28073m | 6.3m/s | -49.1°C | 1.0% | 16.4hPa | 2.6V | 00:00:00 | 00:00:00 | 00:00:00 | |
| OE5FHM-15 | 2026-08-31 00:27:15 | 48.46884 | 12.62660 | 305° | 13km/h | 28056m | 6.0m/s | -49.1°C | 3.6% | 16.4hPa | 2.6V | 00:00:00 | 01:57:56 | 00:00:00 | |
| DO3MHA-11 | 2026-08-31 00:27:14 | 48.46883 | 12.62662 | 299° | 9km/h | 28050m | 6.1m/s | -49.1°C | 3.6% | 16.4hPa | 2.6V | 00:00:00 | 01:57:55 | 00:00:00 | |
| OE5HKT-10 | 2026-08-31 00:27:13 | 48.46882 | 12.62665 | 301° | 15km/h | 28044m | 5.1m/s | -49.1°C | 3.6% | 16.4hPa | 2.6V | 00:00:00 | 00:00:00 | 00:00:00 | |
| DL6DJ-15 | 2026-08-31 00:27:11 | 48.46879 | 12.62669 | 325° | 9km/h | 28033m | 6.4m/s | -49.2°C | 1.0% | 16.5hPa | 2.6V | 00:00:00 | 00:00:00 | 00:00:00 | |
| OE5DXL-15 | 2026-08-31 00:27:08 | 48.46872 | 12.62675 | 333° | 15km/h | 28018m | 5.3m/s | -49.2°C | 3.7% | 16.5hPa | 2.6V | 00:00:00 | 00:00:00 | 00:00:00 | |
| DG1MFX-10 | 2026-08-31 00:27:06 | 48.46870 | 12.62676 | 332° | 7km/h | 28012m | 6.0m/s | -49.3°C | 1.0% | 16.5hPa | 2.6V | 00:00:00 | 00:00:00 | 00:00:00 | |
| OE5MMP-10 | 2026-08-31 00:27:05 | 48.46868 | 12.62680 | 300° | 16km/h | 28002m | 4.5m/s | -49.3°C | 3.6% | 16.5hPa | 2.6V | 00:00:00 | 01:57:46 | 00:00:00 | |
| DO3MHA-11 | 2026-08-31 00:27:04 | 48.46867 | 12.62682 | 301° | 18km/h | 27996m | 5.7m/s | -49.3°C | 3.7% | 16.5hPa | 2.6V | 00:00:00 | 01:57:45 | 00:00:00 | |
| OE5WHR-10 | 2026-08-31 00:27:02 | 48.46863 | 12.62692 | 301° | 16km/h | 27985m | 5.0m/s | -49.2°C | 3.7% | 16.5hPa | 2.6V | 00:00:00 | 00:00:00 | 00:00:00 | |
| OE5MMP-10 | 2026-08-31 00:26:55 | 48.46851 | 12.62739 | 299° | 15km/h | 27946m | 5.5m/s | -49.2°C | 3.6% | 16.6hPa | 2.6V | 00:00:00 | 01:57:36 | 00:00:00 | |
| DO3MHA-11 | 2026-08-31 00:26:54 | 48.46849 | 12.62746 | 300° | 9km/h | 27941m | 4.7m/s | -49.2°C | 3.6% | 16.7hPa | 2.6V | 00:00:00 | 01:57:35 | 00:00:00 | |
| OE5HKT-10 | 2026-08-31 00:26:52 | 48.46845 | 12.62758 | 287° | 11km/h | 27930m | 6.4m/s | -49.1°C | 3.6% | 16.7hPa | 2.6V | 00:00:00 | 01:57:33 | 00:00:00 | |
| OE5REO-15 | 2026-08-31 00:26:46 | 48.46840 | 12.62781 | 304° | 13km/h | 27902m | 4.5m/s | -49.1°C | 1.0% | 16.8hPa | 2.6V | 00:00:00 | 00:00:00 | 00:00:00 | |
| OE5MMP-10 | 2026-08-31 00:26:45 | 48.46837 | 12.62788 | 289° | 13km/h | 27892m | 5.8m/s | -49.1°C | 3.6% | 16.8hPa | 2.6V | 00:00:00 | 01:57:26 | 08:30:00 | |
| BAUMI2-15 | 2026-08-31 00:26:41 | 48.46837 | 12.62806 | 280° | 15km/h | 27871m | 6.4m/s | -49.2°C | 3.6% | 16.8hPa | 2.5V | 00:00:00 | 01:57:22 | 00:00:00 | |
| DL6DJ-15 | 2026-08-31 00:26:40 | 48.46834 | 12.62820 | 293° | 16km/h | 27860m | 4.5m/s | -49.3°C | 1.0% | 16.9hPa | 2.5V | 00:00:00 | 00:00:00 | 00:00:00 | |
| OE5DXL-15 | 2026-08-31 00:26:38 | 48.46832 | 12.62825 | 296° | 7km/h | 27855m | 4.9m/s | -49.3°C | 3.6% | 16.9hPa | 2.5V | 00:00:00 | 00:00:00 | 00:00:00 | |
| BAUMI2-15 | 2026-08-31 00:26:36 | 48.46830 | 12.62831 | 303° | 4km/h | 27844m | 5.4m/s | -49.3°C | 3.6% | 16.9hPa | 2.5V | 00:00:00 | 01:57:17 | 00:00:00 | |
| OE5MMP-10 | 2026-08-31 00:26:35 | 48.46830 | 12.62832 | 45° | 5km/h | 27839m | 5.0m/s | -49.3°C | 3.6% | 16.9hPa | 2.5V | 00:00:00 | 01:57:16 | 00:00:00 | |
| DO3MHA-11 | 2026-08-31 00:26:32 | 48.46827 | 12.62829 | 12° | 7km/h | 27821m | 5.5m/s | -49.3°C | 3.6% | 17.0hPa | 2.5V | 00:00:00 | 01:57:13 | 08:30:00 | |
| OE5HKT-10 | 2026-08-31 00:26:31 | 48.46826 | 12.62829 | 6° | 7km/h | 27816m | 5.1m/s | -49.3°C | 3.6% | 17.0hPa | 2.5V | 00:00:00 | 00:00:00 | 00:00:00 | |
| DO7DH-14 | 2026-08-31 00:26:29 | 48.46823 | 12.62829 | 3° | 9km/h | 27804m | 6.2m/s | -49.4°C | 3.6% | 17.0hPa | 2.5V | 00:00:00 | 01:57:10 | 00:00:00 | |
| BAUMI2-15 | 2026-08-31 00:26:26 | 48.46819 | 12.62830 | 341° | 11km/h | 27790m | 5.9m/s | -49.4°C | 3.6% | 17.1hPa | 2.5V | 00:00:00 | 01:57:07 | 00:00:00 | |
| OE5MMP-10 | 2026-08-31 00:26:25 | 48.46817 | 12.62831 | 343° | 7km/h | 27783m | 6.2m/s | -49.4°C | 3.7% | 17.1hPa | 2.5V | 00:00:00 | 01:57:06 | 00:00:00 | |
| DG1MFX-10 | 2026-08-31 00:26:24 | 48.46817 | 12.62831 | 343° | 13km/h | 27783m | 6.2m/s | -49.4°C | 1.0% | 17.1hPa | 2.5V | 00:00:00 | 00:00:00 | 00:00:00 | |
| DO3MHA-11 | 2026-08-31 00:26:22 | 48.46808 | 12.62835 | 346° | 5km/h | 27768m | 5.6m/s | -49.4°C | 3.7% | 17.1hPa | 2.5V | 00:00:00 | 01:57:03 | 00:00:00 | |
| BAUMI2-15 | 2026-08-31 00:26:21 | 48.46806 | 12.62836 | 357° | 2km/h | 27761m | 6.2m/s | -49.4°C | 3.6% | 17.1hPa | 2.5V | 00:00:00 | 01:57:02 | 00:00:00 | |
| OE5WHR-10 | 2026-08-31 00:26:20 | 48.46805 | 12.62836 | 49° | 5km/h | 27756m | 5.4m/s | -49.4°C | 3.6% | 17.2hPa | 2.5V | 00:00:00 | 01:57:01 | 00:00:00 | |
| BAUMI2-15 | 2026-08-31 00:26:16 | 48.46804 | 12.62836 | 312° | 7km/h | 27733m | 4.8m/s | -49.3°C | 3.6% | 17.2hPa | 2.5V | 00:00:00 | 01:56:57 | 00:00:00 | |
| OE5MMP-10 | 2026-08-31 00:26:15 | 48.46803 | 12.62838 | 295° | 11km/h | 27728m | 5.6m/s | -49.3°C | 3.6% | 17.3hPa | 2.5V | 00:00:00 | 01:56:56 | 00:00:00 | |
| DO3MHA-11 | 2026-08-31 00:26:12 | 48.46801 | 12.62846 | 302° | 9km/h | 27711m | 5.1m/s | -49.4°C | 3.6% | 17.3hPa | 2.5V | 00:00:00 | 01:56:53 | 00:00:00 | |
| BAUMI2-15 | 2026-08-31 00:26:11 | 48.46799 | 12.62849 | 318° | 15km/h | 27705m | 6.5m/s | -49.4°C | 3.7% | 17.3hPa | 2.5V | 00:00:00 | 01:56:52 | 00:00:00 | |
| OE5HKT-10 | 2026-08-31 00:26:10 | 48.46796 | 12.62853 | 330° | 7km/h | 27699m | 5.6m/s | -49.4°C | 3.7% | 17.3hPa | 2.5V | 00:00:00 | 00:00:00 | 00:00:00 | |
| DL6DJ-15 | 2026-08-31 00:26:09 | 48.46789 | 12.62858 | 340° | 13km/h | 27689m | 5.5m/s | -49.4°C | 1.0% | 17.4hPa | 2.5V | 00:00:00 | 00:00:00 | 00:00:00 | |
| OE5DXL-15 | 2026-08-31 00:26:08 | 48.46789 | 12.62858 | 341° | 7km/h | 27689m | 5.5m/s | -49.4°C | 3.7% | 17.4hPa | 2.5V | 00:00:00 | 00:00:00 | 00:00:00 | |
| BAUMI2-15 | 2026-08-31 00:26:06 | 48.46784 | 12.62859 | 3° | 2km/h | 27677m | 5.5m/s | -49.3°C | 3.6% | 17.4hPa | 2.5V | 00:00:00 | 01:56:47 | 00:00:00 | |
| OE5MMP-10 | 2026-08-31 00:26:05 | 48.46784 | 12.62859 | 36° | 4km/h | 27672m | 5.1m/s | -49.3°C | 3.6% | 17.4hPa | 2.5V | 00:00:00 | 01:56:46 | 00:00:00 | |
| DG1MFX-10 | 2026-08-31 00:26:03 | 48.46783 | 12.62858 | 43° | 2km/h | 27666m | 6.2m/s | -49.3°C | 1.0% | 17.5hPa | 2.5V | 00:00:00 | 00:00:00 | 00:00:00 | |
| DO3MHA-11 | 2026-08-31 00:26:02 | 48.46782 | 12.62858 | 345° | 7km/h | 27655m | 5.0m/s | -49.3°C | 3.6% | 17.4hPa | 2.5V | 00:00:00 | 01:56:43 | 00:00:00 | |
| BAUMI2-15 | 2026-08-31 00:26:01 | 48.46782 | 12.62858 | 286° | 4km/h | 27650m | 5.5m/s | -49.3°C | 3.6% | 17.4hPa | 2.6V | 00:00:00 | 01:56:42 | 00:00:00 | |
| OE5WHR-10 | 2026-08-31 00:25:59 | 48.46782 | 12.62860 | 227° | 9km/h | 27638m | 5.2m/s | -49.3°C | 3.6% | 17.5hPa | 2.5V | 00:00:00 | 00:00:00 | 08:30:00 | |
| DO7DH-14 | 2026-08-31 00:25:57 | 48.46782 | 12.62862 | 319° | 20km/h | 27628m | 5.5m/s | -49.3°C | 3.6% | 17.5hPa | 2.5V | 00:00:00 | 01:56:38 | 00:00:00 | |
| BAUMI2-15 | 2026-08-31 00:25:56 | 48.46780 | 12.62864 | 335° | 13km/h | 27622m | 6.3m/s | -49.3°C | 3.6% | 17.5hPa | 2.5V | 00:00:00 | 01:56:37 | 00:00:00 | |
| OE5MMP-10 | 2026-08-31 00:25:55 | 48.46777 | 12.62866 | 349° | 9km/h | 27617m | 4.9m/s | -49.3°C | 3.6% | 17.5hPa | 2.5V | 00:00:00 | 01:56:36 | 00:00:00 | |
| DO3MHA-11 | 2026-08-31 00:25:52 | 48.46767 | 12.62864 | 35° | 7km/h | 27601m | 5.9m/s | -49.3°C | 3.6% | 17.6hPa | 2.5V | 00:00:00 | 01:56:33 | 00:00:00 | |
| BAUMI2-15 | 2026-08-31 00:25:51 | 48.46766 | 12.62862 | 72° | 5km/h | 27595m | 5.2m/s | -49.3°C | 3.6% | 17.6hPa | 2.5V | 00:00:00 | 01:56:32 | 00:00:00 | |
| OE5HKT-10 | 2026-08-31 00:25:49 | 48.46766 | 12.62857 | 120° | 11km/h | 27586m | 4.9m/s | -49.3°C | 3.6% | 17.6hPa | 2.5V | 00:00:00 | 01:56:30 | 00:00:00 | |
| BAUMI2-15 | 2026-08-31 00:25:46 | 48.46766 | 12.62856 | 344° | 7km/h | 27569m | 5.2m/s | -49.3°C | 3.6% | 17.7hPa | 2.5V | 00:00:00 | 01:56:27 | 08:30:00 | |
| OE5FHM-15 | 2026-08-31 00:25:45 | 48.46764 | 12.62856 | 356° | 15km/h | 27564m | 4.7m/s | -49.3°C | 3.6% | 17.7hPa | 2.6V | 00:00:00 | 01:56:26 | 00:00:00 | |
| OE5REO-15 | 2026-08-31 00:25:43 | 48.46762 | 12.62856 | 12° | 7km/h | 27558m | 6.0m/s | -49.4°C | 1.0% | 17.7hPa | 2.6V | 00:00:00 | 00:00:00 | 00:00:00 | |
| DO3MHA-11 | 2026-08-31 00:25:42 | 48.46758 | 12.62853 | 42° | 13km/h | 27547m | 5.4m/s | -49.4°C | 3.6% | 17.7hPa | 2.6V | 00:00:00 | 01:56:23 | 00:00:00 | |
| BAUMI2-15 | 2026-08-31 00:25:41 | 48.46756 | 12.62850 | 35° | 13km/h | 27541m | 5.0m/s | -49.4°C | 3.6% | 17.7hPa | 2.6V | 00:00:00 | 01:56:22 | 00:00:00 | |
| OE5WHR-10 | 2026-08-31 00:25:38 | 48.46747 | 12.62846 | 5° | 15km/h | 27525m | 4.4m/s | -49.5°C | 3.6% | 17.8hPa | 2.6V | 00:00:00 | 00:00:00 | 00:00:00 | |
| DL6DJ-15 | 2026-08-31 00:25:37 | 48.46744 | 12.62846 | 8° | 11km/h | 27520m | 4.9m/s | -49.5°C | 1.0% | 17.8hPa | 2.6V | 00:00:00 | 00:00:00 | 00:00:00 | |
| BAUMI2-15 | 2026-08-31 00:25:36 | 48.46741 | 12.62844 | 24° | 13km/h | 27514m | 6.1m/s | -49.5°C | 3.6% | 17.8hPa | 2.6V | 00:00:00 | 01:56:17 | 00:00:00 | |
| OE5MMP-10 | 2026-08-31 00:25:35 | 48.46739 | 12.62842 | 42° | 13km/h | 27509m | 5.6m/s | -49.5°C | 3.6% | 17.8hPa | 2.6V | 00:00:00 | 01:56:16 | 00:00:00 | |
| S52SK | 2026-08-31 00:25:34 | 48.46739 | 12.62842 | 43° | 11km/h | 27509m | 5.7m/s | 0°C | 0% | 0hPa | 2.6V | 00:00:00 | 00:00:00 | 00:00:00 | |
| DO3MHA-11 | 2026-08-31 00:25:32 | 48.46732 | 12.62832 | 27° | 15km/h | 27492m | 6.3m/s | -49.6°C | 3.7% | 17.9hPa | 2.6V | 00:00:00 | 01:56:13 | 00:00:00 | |
| BAUMI2-15 | 2026-08-31 00:25:31 | 48.46728 | 12.62831 | 10° | 13km/h | 27486m | 5.6m/s | -49.6°C | 3.6% | 17.9hPa | 2.5V | 00:00:00 | 01:56:12 | 00:00:00 | |
| OE5HKT-10 | 2026-08-31 00:25:28 | 48.46718 | 12.62832 | 348° | 18km/h | 27469m | 5.9m/s | -49.8°C | 3.7% | 18.0hPa | 2.6V | 00:00:00 | 00:00:00 | 00:00:00 | |
| S52SK | 2026-08-31 00:25:27 | 48.46717 | 12.62832 | 349° | 11km/h | 27469m | 6.0m/s | 0°C | 0% | 0hPa | 2.6V | 00:00:00 | 00:00:00 | 00:00:00 | |
| BAUMI2-15 | 2026-08-31 00:25:26 | 48.46712 | 12.62834 | 333° | 15km/h | 27459m | 5.2m/s | -49.8°C | 3.7% | 18.0hPa | 2.6V | 00:00:00 | 01:56:07 | 00:00:00 | |
| OE5MMP-10 | 2026-08-31 00:25:25 | 48.46710 | 12.62837 | 331° | 18km/h | 27453m | 6.5m/s | -49.8°C | 3.8% | 18.0hPa | 2.6V | 00:00:00 | 01:56:06 | 00:00:00 | |
| DO3MHA-11 | 2026-08-31 00:25:22 | 48.46699 | 12.62843 | 350° | 20km/h | 27435m | 6.2m/s | -49.9°C | 3.7% | 18.0hPa | 2.6V | 00:00:00 | 01:56:03 | 00:00:00 | |
| BAUMI2-15 | 2026-08-31 00:25:21 | 48.46695 | 12.62844 | 6° | 18km/h | 27429m | 5.9m/s | -49.9°C | 3.7% | 18.1hPa | 2.6V | 00:00:00 | 01:56:02 | 00:00:00 | |
| OE5WHR-10 | 2026-08-31 00:25:17 | 48.46678 | 12.62840 | 356° | 24km/h | 27408m | 6.2m/s | -49.8°C | 3.7% | 18.1hPa | 2.6V | 00:00:00 | 01:55:58 | 00:00:00 | |
| BAUMI2-15 | 2026-08-31 00:25:16 | 48.46672 | 12.62842 | 348° | 22km/h | 27402m | 5.6m/s | -49.8°C | 3.7% | 18.1hPa | 2.6V | 00:00:00 | 01:55:57 | 00:00:00 | |
| OE5FHM-15 | 2026-08-31 00:25:15 | 48.46665 | 12.62844 | 342° | 24km/h | 27396m | 5.5m/s | -49.8°C | 3.7% | 18.2hPa | 2.6V | 00:00:00 | 01:55:56 | 00:00:00 | |
| DO3MHA-11 | 2026-08-31 00:25:12 | 48.46650 | 12.62854 | 330° | 24km/h | 27379m | 4.7m/s | -49.8°C | 3.7% | 18.2hPa | 2.5V | 00:00:00 | 01:55:53 | 00:00:00 | |
| BAUMI2-15 | 2026-08-31 00:25:11 | 48.46646 | 12.62858 | 327° | 22km/h | 27375m | 4.6m/s | -49.8°C | 3.7% | 18.2hPa | 2.5V | 00:00:00 | 01:55:52 | 00:00:00 | |
| OE5DXL-15 | 2026-08-31 00:25:08 | 48.46632 | 12.62871 | 334° | 26km/h | 27358m | 5.1m/s | -49.8°C | 3.7% | 18.3hPa | 2.5V | 00:00:00 | 00:00:00 | 00:00:00 | |
| OE5HKT-10 | 2026-08-31 00:25:07 | 48.46626 | 12.62875 | 338° | 26km/h | 27352m | 5.7m/s | -49.8°C | 3.6% | 18.3hPa | 2.5V | 00:00:00 | 00:00:00 | 00:00:00 | |
| BAUMI2-15 | 2026-08-31 00:25:06 | 48.46621 | 12.62878 | 343° | 26km/h | 27346m | 6.1m/s | -49.8°C | 3.7% | 18.3hPa | 2.5V | 00:00:00 | 01:55:47 | 00:00:00 | |
| OE5MMP-10 | 2026-08-31 00:25:05 | 48.46615 | 12.62880 | 345° | 26km/h | 27341m | 4.9m/s | -49.7°C | 3.7% | 18.3hPa | 2.5V | 00:00:00 | 01:55:46 | 00:00:00 | |
| DO3MHA-11 | 2026-08-31 00:25:02 | 48.46597 | 12.62891 | 332° | 26km/h | 27324m | 5.5m/s | -49.7°C | 3.7% | 18.4hPa | 2.5V | 00:00:00 | 01:55:43 | 08:30:00 | |
| BAUMI2-15 | 2026-08-31 00:25:01 | 48.46590 | 12.62897 | 326° | 26km/h | 27319m | 4.9m/s | -49.7°C | 3.7% | 18.4hPa | 2.5V | 00:00:00 | 01:55:42 | 08:30:00 | |
| OE5WHR-10 | 2026-08-31 00:24:56 | 48.46568 | 12.62928 | 319° | 24km/h | 27291m | 6.0m/s | -49.8°C | 3.6% | 18.5hPa | 2.5V | 00:00:00 | 00:00:00 | 00:00:00 | |
| OE5MMP-10 | 2026-08-31 00:24:55 | 48.46563 | 12.62933 | 325° | 24km/h | 27285m | 5.7m/s | -49.8°C | 3.7% | 18.5hPa | 2.5V | 00:00:00 | 01:55:36 | 00:00:00 | |
| DO3MHA-11 | 2026-08-31 00:24:52 | 48.46547 | 12.62947 | 332° | 24km/h | 27269m | 6.4m/s | -49.8°C | 3.6% | 18.5hPa | 2.5V | 00:00:00 | 01:55:33 | 00:00:00 | |
| BAUMI2-15 | 2026-08-31 00:24:51 | 48.46542 | 12.62951 | 332° | 24km/h | 27263m | 5.6m/s | -49.8°C | 3.6% | 18.6hPa | 2.5V | 00:00:00 | 01:55:32 | 00:00:00 | |
| BAUMI2-15 | 2026-08-31 00:24:46 | 48.46517 | 12.62975 | 321° | 24km/h | 27237m | 4.7m/s | -49.9°C | 3.7% | 18.6hPa | 2.5V | 00:00:00 | 01:55:27 | 00:00:00 | |
| OE5HKT-10 | 2026-08-31 00:24:45 | 48.46512 | 12.62981 | 313° | 26km/h | 27231m | 6.2m/s | -49.9°C | 3.7% | 18.6hPa | 2.5V | 00:00:00 | 01:55:26 | 00:00:00 | |
| DO3MHA-11 | 2026-08-31 00:24:42 | 48.46504 | 12.63004 | 293° | 27km/h | 27215m | 4.7m/s | -50.0°C | 3.8% | 18.7hPa | 2.5V | 00:00:00 | 01:55:23 | 00:00:00 | |
| DG1MFX-10 | 2026-08-31 00:24:41 | 48.46504 | 12.63004 | 293° | 24km/h | 27215m | 4.7m/s | -50.0°C | 1.1% | 18.7hPa | 2.5V | 00:00:00 | 00:00:00 | 00:00:00 | |
| OE5REO-15 | 2026-08-31 00:24:40 | 48.46501 | 12.63013 | 297° | 27km/h | 27209m | 6.3m/s | -50.0°C | 1.0% | 18.8hPa | 2.5V | 00:00:00 | 00:00:00 | 00:00:00 | |
| OE5DXL-15 | 2026-08-31 00:24:38 | 48.46490 | 12.63041 | 305° | 22km/h | 27194m | 4.9m/s | -50.0°C | 3.7% | 18.7hPa | 2.5V | 00:00:00 | 00:00:00 | 00:00:00 | |
| OE5WHR-10 | 2026-08-31 00:24:35 | 48.46480 | 12.63064 | 302° | 22km/h | 27177m | 4.5m/s | -50.0°C | 3.7% | 18.8hPa | 2.5V | 00:00:00 | 00:00:00 | 00:00:00 | |
| OE5MMP-10 | 2026-08-31 00:24:25 | 48.46449 | 12.63150 | 299° | 16km/h | 27126m | 6.2m/s | -50.3°C | 3.7% | 18.9hPa | 2.5V | 00:00:00 | 01:55:06 | 00:00:00 | |
| OE5HKT-10 | 2026-08-31 00:24:24 | 48.46447 | 12.63156 | 312° | 18km/h | 27120m | 5.6m/s | -50.3°C | 3.7% | 18.9hPa | 2.5V | 00:00:00 | 00:00:00 | 08:30:00 | |
| DG1MFX-10 | 2026-08-31 00:24:21 | 48.46442 | 12.63162 | 317° | 9km/h | 27109m | 5.5m/s | -50.4°C | 1.1% | 19.0hPa | 2.6V | 00:00:00 | 00:00:00 | 00:00:00 | |
| OE5MMP-10 | 2026-08-31 00:24:15 | 48.46438 | 12.63210 | 271° | 20km/h | 27074m | 4.4m/s | -50.5°C | 3.9% | 19.1hPa | 2.6V | 00:00:00 | 01:54:56 | 00:00:00 | |
| OE5WHR-10 | 2026-08-31 00:24:14 | 48.46439 | 12.63219 | 264° | 24km/h | 27068m | 6.1m/s | -50.5°C | 3.8% | 19.1hPa | 2.5V | 00:00:00 | 01:54:55 | 00:00:00 | |
| DO3MHA-11 | 2026-08-31 00:24:12 | 48.46442 | 12.63236 | 249° | 29km/h | 27057m | 4.6m/s | -50.5°C | 3.9% | 19.1hPa | 2.5V | 00:00:00 | 01:54:53 | 00:00:00 | |
| OE5REO-15 | 2026-08-31 00:24:09 | 48.46445 | 12.63251 | 263° | 16km/h | 27047m | 6.2m/s | -50.5°C | 1.1% | 19.2hPa | 2.5V | 00:00:00 | 00:00:00 | 00:00:00 | |
| OE5DXL-15 | 2026-08-31 00:24:08 | 48.46444 | 12.63263 | 283° | 22km/h | 27037m | 4.5m/s | -50.5°C | 3.8% | 19.2hPa | 2.5V | 00:00:00 | 00:00:00 | 00:00:00 | |
| OE5MMP-10 | 2026-08-31 00:24:05 | 48.46443 | 12.63282 | 271° | 29km/h | 27021m | 5.0m/s | -50.5°C | 3.8% | 19.3hPa | 2.5V | 00:00:00 | 01:54:46 | 00:00:00 | |
| DL6DJ-15 | 2026-08-31 00:24:04 | 48.46443 | 12.63290 | 272° | 22km/h | 27015m | 4.9m/s | -50.5°C | 1.1% | 19.3hPa | 2.5V | 00:00:00 | 00:00:00 | 00:00:00 | |
| OE5HKT-10 | 2026-08-31 00:24:03 | 48.46442 | 12.63299 | 277° | 24km/h | 27010m | 6.4m/s | 0°C | 0% | 0hPa | 2.5V | 00:00:00 | 00:00:00 | 00:00:00 | |
| DO7DH-14 | 2026-08-31 00:23:58 | 48.46441 | 12.63360 | 262° | 22km/h | 26984m | 4.1m/s | -50.5°C | 3.8% | 19.4hPa | 2.5V | 00:00:00 | 01:54:39 | 00:00:00 | |
| DO3MHA-11 | 2026-08-31 00:23:55 | 48.46442 | 12.63390 | 283° | 18km/h | 26968m | 5.7m/s | -50.5°C | 3.8% | 19.4hPa | 2.5V | 00:00:00 | 01:54:36 | 00:00:00 | |
| OE5WHR-10 | 2026-08-31 00:23:53 | 48.46439 | 12.63402 | 297° | 20km/h | 26958m | 4.8m/s | -50.4°C | 3.8% | 19.5hPa | 2.5V | 00:00:00 | 00:00:00 | 00:00:00 | |
| OE5MMP-10 | 2026-08-31 00:23:45 | 48.46433 | 12.63455 | 288° | 20km/h | 26917m | 4.6m/s | -50.2°C | 3.8% | 19.6hPa | 2.5V | 00:00:00 | 01:54:26 | 08:30:00 | |
| OE5HKT-10 | 2026-08-31 00:23:42 | 48.46431 | 12.63478 | 275° | 22km/h | 26901m | 4.5m/s | -50.2°C | 3.8% | 19.6hPa | 2.5V | 00:00:00 | 01:54:23 | 00:00:00 | |
| OE5DXL-15 | 2026-08-31 00:23:38 | 48.46424 | 12.63506 | 302° | 18km/h | 26880m | 4.5m/s | -50.2°C | 3.8% | 19.7hPa | 2.5V | 00:00:00 | 00:00:00 | 00:00:00 | |
| OE5MMP-10 | 2026-08-31 00:23:35 | 48.46418 | 12.63530 | 282° | 24km/h | 26864m | 4.8m/s | -50.2°C | 3.8% | 19.7hPa | 2.5V | 00:00:00 | 01:54:16 | 00:00:00 | |
| DL6DJ-15 | 2026-08-31 00:23:33 | 48.46415 | 12.63548 | 284° | 22km/h | 26853m | 6.2m/s | -50.2°C | 1.1% | 19.8hPa | 2.5V | 00:00:00 | 00:00:00 | 00:00:00 | |
| OE5WHR-10 | 2026-08-31 00:23:32 | 48.46414 | 12.63557 | 291° | 18km/h | 26847m | 5.7m/s | -50.2°C | 3.8% | 19.8hPa | 2.5V | 00:00:00 | 00:00:00 | 00:00:00 | |
| DO3MHA-11 | 2026-08-31 00:23:25 | 48.46399 | 12.63615 | 307° | 16km/h | 26810m | 5.7m/s | -50.1°C | 3.8% | 19.9hPa | 2.5V | 00:00:00 | 01:54:06 | 00:00:00 | |
| OE5REO-15 | 2026-08-31 00:23:22 | 48.46393 | 12.63625 | 311° | 16km/h | 26800m | 4.8m/s | -50.1°C | 1.1% | 20.0hPa | 2.5V | 00:00:00 | 00:00:00 | 00:00:00 | |
| OE5HKT-10 | 2026-08-31 00:23:21 | 48.46390 | 12.63635 | 275° | 15km/h | 26789m | 5.7m/s | -50.0°C | 3.7% | 20.0hPa | 2.5V | 00:00:00 | 00:00:00 | 00:00:00 | |
| OE5FHM-15 | 2026-08-31 00:23:15 | 48.46394 | 12.63669 | 262° | 13km/h | 26757m | 5.9m/s | -50.0°C | 3.7% | 20.1hPa | 2.5V | 00:00:00 | 01:53:56 | 00:00:00 | |
| OE5WHR-10 | 2026-08-31 00:23:11 | 48.46393 | 12.63693 | 300° | 11km/h | 26737m | 6.3m/s | -50.0°C | 3.6% | 20.1hPa | 2.5V | 00:00:00 | 01:53:52 | 00:00:00 | |
| OE5DXL-15 | 2026-08-31 00:23:08 | 48.46385 | 12.63706 | 309° | 11km/h | 26721m | 5.2m/s | -50.1°C | 3.7% | 20.2hPa | 2.5V | 00:00:00 | 00:00:00 | 08:30:00 | |
| OE5REO-15 | 2026-08-31 00:23:06 | 48.46383 | 12.63710 | 292° | 15km/h | 26715m | 6.0m/s | -50.2°C | 1.0% | 20.3hPa | 2.5V | 00:00:00 | 00:00:00 | 00:00:00 | |
| OE5MMP-10 | 2026-08-31 00:23:05 | 48.46383 | 12.63721 | 260° | 11km/h | 26705m | 4.9m/s | -50.2°C | 3.8% | 20.2hPa | 2.5V | 00:00:00 | 01:53:46 | 00:00:00 | |
| DO3MHA-11 | 2026-08-31 00:23:03 | 48.46385 | 12.63730 | 248° | 7km/h | 26694m | 5.6m/s | -50.2°C | 3.8% | 20.3hPa | 2.5V | 00:00:00 | 01:53:44 | 08:30:00 | |
| DL6DJ-15 | 2026-08-31 00:23:02 | 48.46386 | 12.63733 | 241° | 9km/h | 26688m | 5.4m/s | -50.2°C | 1.1% | 20.3hPa | 2.6V | 00:00:00 | 00:00:00 | 00:00:00 | |
| OE5HKT-10 | 2026-08-31 00:23:00 | 48.46388 | 12.63740 | 240° | 9km/h | 26676m | 5.6m/s | -50.2°C | 3.8% | 20.3hPa | 2.6V | 00:00:00 | 00:00:00 | 00:00:00 | |
| OE5MMP-10 | 2026-08-31 00:22:55 | 48.46384 | 12.63752 | 360° | 11km/h | 26651m | 5.1m/s | -50.2°C | 3.7% | 20.4hPa | 2.6V | 00:00:00 | 01:53:36 | 00:00:00 | |
| OE5WHR-10 | 2026-08-31 00:22:50 | 48.46377 | 12.63757 | 255° | 7km/h | 26627m | 4.6m/s | -50.2°C | 3.7% | 20.5hPa | 2.6V | 00:00:00 | 00:00:00 | 08:30:00 | |
| OE5FHM-15 | 2026-08-31 00:22:45 | 48.46374 | 12.63779 | 318° | 5km/h | 26601m | 4.8m/s | -50.4°C | 3.7% | 20.6hPa | 2.5V | 00:00:00 | 01:53:26 | 00:00:00 | |
| BAUMI2-15 | 2026-08-31 00:22:41 | 48.46368 | 12.63784 | 1° | 7km/h | 26579m | 5.0m/s | -50.4°C | 3.7% | 20.7hPa | 2.5V | 00:00:00 | 01:53:22 | 00:00:00 | |
| OE5HKT-10 | 2026-08-31 00:22:39 | 48.46364 | 12.63783 | 7° | 5km/h | 26568m | 4.8m/s | -50.5°C | 3.8% | 20.7hPa | 2.5V | 00:00:00 | 01:53:20 | 00:00:00 | |
| OE5DXL-15 | 2026-08-31 00:22:38 | 48.46362 | 12.63783 | 360° | 7km/h | 26563m | 4.6m/s | -50.5°C | 3.7% | 20.7hPa | 2.5V | 00:00:00 | 00:00:00 | 00:00:00 | |
| BAUMI2-15 | 2026-08-31 00:22:36 | 48.46360 | 12.63784 | 238° | 4km/h | 26552m | 5.6m/s | -50.6°C | 3.8% | 20.7hPa | 2.5V | 00:00:00 | 01:53:17 | 00:00:00 | |
| OE5MMP-10 | 2026-08-31 00:22:35 | 48.46361 | 12.63785 | 214° | 4km/h | 26547m | 4.6m/s | -50.7°C | 3.8% | 20.7hPa | 2.5V | 00:00:00 | 01:53:16 | 00:00:00 | |
| OE5REO-15 | 2026-08-31 00:22:34 | 48.46361 | 12.63785 | 214° | 5km/h | 26547m | 4.6m/s | -50.7°C | 1.1% | 20.8hPa | 2.5V | 00:00:00 | 00:00:00 | 00:00:00 | |
| BAUMI2-15 | 2026-08-31 00:22:31 | 48.46363 | 12.63791 | 289° | 5km/h | 26526m | 4.4m/s | -50.8°C | 3.8% | 20.8hPa | 2.5V | 00:00:00 | 01:53:12 | 00:00:00 | |
| OE5WHR-10 | 2026-08-31 00:22:29 | 48.46362 | 12.63795 | 269° | 7km/h | 26516m | 5.8m/s | -50.8°C | 3.9% | 20.9hPa | 2.6V | 00:00:00 | 00:00:00 | 00:00:00 | |
| DO3MHA-11 | 2026-08-31 00:22:26 | 48.46363 | 12.63799 | 314° | 11km/h | 26501m | 4.4m/s | -50.9°C | 4.0% | 20.9hPa | 2.6V | 00:00:00 | 01:53:07 | 00:00:00 | |
| OE5MMP-10 | 2026-08-31 00:22:25 | 48.46362 | 12.63799 | 341° | 5km/h | 26496m | 5.9m/s | -50.9°C | 4.0% | 20.9hPa | 2.6V | 00:00:00 | 01:53:06 | 00:00:00 | |
| BAUMI2-15 | 2026-08-31 00:22:21 | 48.46353 | 12.63801 | 9° | 4km/h | 26475m | 5.9m/s | -50.9°C | 3.9% | 21.0hPa | 2.6V | 00:00:00 | 01:53:02 | 00:00:00 | |
| OE5REO-15 | 2026-08-31 00:22:19 | 48.46352 | 12.63801 | 48° | 4km/h | 26469m | 5.1m/s | -51.0°C | 1.2% | 21.0hPa | 2.6V | 00:00:00 | 00:00:00 | 00:00:00 | |
| DO7DH-14 | 2026-08-31 00:22:18 | 48.46351 | 12.63799 | 4° | 18km/h | 26460m | 5.4m/s | -51.0°C | 3.9% | 21.0hPa | 2.6V | 00:00:00 | 01:52:59 | 00:00:00 | |
| BAUMI2-15 | 2026-08-31 00:22:16 | 48.46350 | 12.63801 | 317° | 9km/h | 26449m | 4.7m/s | -50.9°C | 3.9% | 21.1hPa | 2.6V | 00:00:00 | 01:52:57 | 08:30:00 | |
| OE5MMP-10 | 2026-08-31 00:22:15 | 48.46348 | 12.63804 | 311° | 11km/h | 26444m | 5.0m/s | -50.9°C | 3.9% | 21.1hPa | 2.6V | 00:00:00 | 01:52:56 | 08:30:00 | |
| BAUMI2-15 | 2026-08-31 00:22:11 | 48.46342 | 12.63814 | 325° | 15km/h | 26422m | 5.4m/s | -50.8°C | 3.8% | 21.2hPa | 2.5V | 00:00:00 | 01:52:52 | 00:00:00 | |
| DO3MHA-11 | 2026-08-31 00:22:08 | 48.46332 | 12.63820 | 355° | 13km/h | 26406m | 4.9m/s | -50.7°C | 3.8% | 21.2hPa | 2.5V | 00:00:00 | 01:52:49 | 00:00:00 | |
| BAUMI2-15 | 2026-08-31 00:22:06 | 48.46326 | 12.63820 | 8° | 11km/h | 26395m | 4.5m/s | -50.7°C | 3.8% | 21.2hPa | 2.5V | 00:00:00 | 01:52:47 | 00:00:00 | |
| OE5MMP-10 | 2026-08-31 00:22:05 | 48.46324 | 12.63819 | 2° | 13km/h | 26391m | 4.1m/s | -50.7°C | 3.8% | 21.3hPa | 2.5V | 00:00:00 | 01:52:46 | 00:00:00 | |
| DK5PH-5 | 2026-08-31 00:22:03 | 48.46319 | 12.63821 | 338° | 20km/h | 26380m | 5.5m/s | -50.9°C | 3.8% | 21.3hPa | 2.5V | 00:00:00 | 01:52:44 | 08:30:00 | |
| DL6DJ-15 | 2026-08-31 00:22:00 | 48.46309 | 12.63829 | 331° | 13km/h | 26364m | 6.1m/s | -51.1°C | 1.1% | 21.4hPa | 2.6V | 00:00:00 | 00:00:00 | 00:00:00 | |
| DO3MHA-11 | 2026-08-31 00:21:58 | 48.46303 | 12.63832 | 341° | 15km/h | 26353m | 4.4m/s | -51.1°C | 3.8% | 21.4hPa | 2.6V | 00:00:00 | 01:52:39 | 00:00:00 | |
| OE5HKT-10 | 2026-08-31 00:21:57 | 48.46300 | 12.63834 | 340° | 22km/h | 26348m | 4.8m/s | -51.1°C | 3.8% | 21.4hPa | 2.6V | 00:00:00 | 00:00:00 | 00:00:00 | |
| BAUMI2-15 | 2026-08-31 00:21:56 | 48.46296 | 12.63837 | 340° | 24km/h | 26343m | 6.5m/s | -51.1°C | 3.9% | 21.4hPa | 2.6V | 00:00:00 | 01:52:37 | 00:00:00 | |
| OE5MMP-10 | 2026-08-31 00:21:55 | 48.46290 | 12.63840 | 341° | 24km/h | 26336m | 5.9m/s | -51.2°C | 3.9% | 21.4hPa | 2.6V | 00:00:00 | 01:52:36 | 00:00:00 | |
| BAUMI2-15 | 2026-08-31 00:21:51 | 48.46266 | 12.63850 | 347° | 24km/h | 26314m | 4.8m/s | -51.2°C | 3.9% | 21.5hPa | 2.6V | 00:00:00 | 01:52:32 | 00:00:00 | |
| OE5REO-15 | 2026-08-31 00:21:48 | 48.46255 | 12.63855 | 338° | 24km/h | 26304m | 6.2m/s | -51.2°C | 1.1% | 21.6hPa | 2.6V | 00:00:00 | 00:00:00 | 00:00:00 | |
| OE5WHR-10 | 2026-08-31 00:21:47 | 48.46245 | 12.63864 | 327° | 18km/h | 26293m | 4.4m/s | -51.1°C | 3.9% | 21.6hPa | 2.6V | 00:00:00 | 00:00:00 | 00:00:00 | |
| BAUMI2-15 | 2026-08-31 00:21:46 | 48.46240 | 12.63868 | 326° | 20km/h | 26288m | 6.1m/s | -51.1°C | 3.9% | 21.6hPa | 2.5V | 00:00:00 | 01:52:27 | 00:00:00 | |
| OE5MMP-10 | 2026-08-31 00:21:45 | 48.46236 | 12.63872 | 326° | 20km/h | 26282m | 5.2m/s | -51.1°C | 3.9% | 21.6hPa | 2.5V | 00:00:00 | 01:52:26 | 00:00:00 | |
| BAUMI2-15 | 2026-08-31 00:21:41 | 48.46218 | 12.63886 | 340° | 22km/h | 26261m | 4.8m/s | -51.1°C | 3.9% | 21.7hPa | 2.5V | 00:00:00 | 01:52:22 | 00:00:00 | |
| OE5DXL-15 | 2026-08-31 00:21:38 | 48.46201 | 12.63895 | 341° | 16km/h | 26246m | 5.9m/s | -51.2°C | 3.9% | 21.8hPa | 2.5V | 00:00:00 | 01:52:19 | 00:00:00 | |
| DO7DH-14 | 2026-08-31 00:21:36 | 48.46195 | 12.63900 | 320° | 16km/h | 26236m | 4.2m/s | -51.1°C | 3.9% | 21.8hPa | 2.6V | 00:00:00 | 01:52:17 | 00:00:00 | |
| OE5MMP-10 | 2026-08-31 00:21:35 | 48.46192 | 12.63904 | 313° | 16km/h | 26231m | 5.7m/s | -51.1°C | 3.9% | 21.8hPa | 2.6V | 00:00:00 | 01:52:16 | 00:00:00 | |
| OE5REO-15 | 2026-08-31 00:21:34 | 48.46189 | 12.63909 | 311° | 18km/h | 26226m | 5.5m/s | -51.2°C | 1.1% | 21.9hPa | 2.6V | 00:00:00 | 00:00:00 | 00:00:00 | |
| BAUMI2-15 | 2026-08-31 00:21:31 | 48.46180 | 12.63924 | 317° | 15km/h | 26211m | 5.9m/s | -51.0°C | 3.8% | 21.9hPa | 2.6V | 00:00:00 | 01:52:12 | 08:30:00 | |
| DK5PH-5 | 2026-08-31 00:21:29 | 48.46174 | 12.63931 | 327° | 16km/h | 26200m | 4.8m/s | -51.1°C | 3.9% | 21.9hPa | 2.5V | 00:00:00 | 01:52:10 | 00:00:00 | |
| BAUMI2-15 | 2026-08-31 00:21:26 | 48.46165 | 12.63941 | 322° | 20km/h | 26184m | 5.9m/s | -51.1°C | 3.9% | 22.0hPa | 2.5V | 00:00:00 | 01:52:07 | 00:00:00 | |
| OE5MMP-10 | 2026-08-31 00:21:25 | 48.46161 | 12.63946 | 318° | 18km/h | 26179m | 4.3m/s | -51.2°C | 3.9% | 22.0hPa | 2.5V | 00:00:00 | 01:52:06 | 00:00:00 | |
| BAUMI2-15 | 2026-08-31 00:21:21 | 48.46148 | 12.63966 | 316° | 18km/h | 26159m | 4.3m/s | -51.4°C | 3.9% | 22.1hPa | 2.5V | 00:00:00 | 01:52:02 | 00:00:00 | |
| OE5REO-15 | 2026-08-31 00:21:17 | 48.46139 | 12.63979 | 318° | 20km/h | 26144m | 5.1m/s | -51.4°C | 1.1% | 22.2hPa | 2.5V | 00:00:00 | 00:00:00 | 00:00:00 | |
| BAUMI2-15 | 2026-08-31 00:21:16 | 48.46132 | 12.63989 | 315° | 13km/h | 26134m | 4.9m/s | -51.5°C | 4.0% | 22.1hPa | 2.5V | 00:00:00 | 01:51:57 | 00:00:00 | |
| OE5FHM-15 | 2026-08-31 00:21:15 | 48.46129 | 12.63993 | 311° | 15km/h | 26129m | 6.3m/s | -51.5°C | 4.0% | 22.2hPa | 2.6V | 00:00:00 | 01:51:56 | 00:00:00 | |
| OE5HKT-10 | 2026-08-31 00:21:14 | 48.46127 | 12.63997 | 296° | 15km/h | 26123m | 5.3m/s | -51.5°C | 4.0% | 22.2hPa | 2.6V | 00:00:00 | 00:00:00 | 08:30:00 | |
| BAUMI2-15 | 2026-08-31 00:21:11 | 48.46125 | 12.64012 | 280° | 18km/h | 26107m | 5.7m/s | -51.4°C | 4.0% | 22.2hPa | 2.6V | 00:00:00 | 01:51:52 | 00:00:00 | |
| OE5DXL-15 | 2026-08-31 00:21:08 | 48.46123 | 12.64034 | 275° | 16km/h | 26091m | 5.9m/s | -51.4°C | 3.9% | 22.3hPa | 2.6V | 00:00:00 | 00:00:00 | 00:00:00 | |
| BAUMI2-15 | 2026-08-31 00:21:06 | 48.46123 | 12.64048 | 277° | 18km/h | 26080m | 4.6m/s | -51.4°C | 4.0% | 22.3hPa | 2.6V | 00:00:00 | 01:51:47 | 00:00:00 | |
| OE5MMP-10 | 2026-08-31 00:21:05 | 48.46122 | 12.64055 | 282° | 15km/h | 26075m | 5.9m/s | -51.4°C | 4.0% | 22.3hPa | 2.6V | 00:00:00 | 01:51:46 | 00:00:00 | |
| DO7DH-14 | 2026-08-31 00:21:03 | 48.46119 | 12.64075 | 281° | 15km/h | 26059m | 5.7m/s | -51.4°C | 4.0% | 22.4hPa | 2.6V | 00:00:00 | 01:51:43 | 08:30:00 | |
| DL6DJ-15 | 2026-08-31 00:20:58 | 48.46122 | 12.64089 | 243° | 9km/h | 26038m | 5.4m/s | -51.5°C | 1.1% | 22.5hPa | 2.6V | 00:00:00 | 00:00:00 | 00:00:00 | |
| DO3MHA-11 | 2026-08-31 00:20:56 | 48.46123 | 12.64099 | 265° | 15km/h | 26027m | 5.2m/s | -51.5°C | 4.0% | 22.5hPa | 2.6V | 00:00:00 | 01:51:37 | 00:00:00 | |
| OE5HKT-10 | 2026-08-31 00:20:53 | 48.46124 | 12.64116 | 260° | 16km/h | 26011m | 5.5m/s | -51.6°C | 4.0% | 22.6hPa | 2.6V | 00:00:00 | 00:00:00 | 00:00:00 | |
| BAUMI2-15 | 2026-08-31 00:20:51 | 48.46125 | 12.64127 | 265° | 16km/h | 26000m | 5.4m/s | -51.6°C | 4.0% | 22.6hPa | 2.6V | 00:00:00 | 01:51:32 | 00:00:00 | |
| OE5REO-15 | 2026-08-31 00:20:47 | 48.46127 | 12.64146 | 257° | 15km/h | 25986m | 4.3m/s | -51.7°C | 1.1% | 22.7hPa | 2.6V | 00:00:00 | 00:00:00 | 00:00:00 | |
| BAUMI2-15 | 2026-08-31 00:20:46 | 48.46130 | 12.64156 | 227° | 18km/h | 25974m | 5.6m/s | -51.6°C | 4.0% | 22.7hPa | 2.6V | 00:00:00 | 01:51:27 | 08:30:00 | |
| OE5FHM-15 | 2026-08-31 00:20:45 | 48.46133 | 12.64159 | 220° | 15km/h | 25969m | 5.0m/s | -51.6°C | 4.0% | 22.7hPa | 2.6V | 00:00:00 | 01:51:26 | 00:00:00 | |
| OE5WHR-10 | 2026-08-31 00:20:44 | 48.46136 | 12.64163 | 224° | 16km/h | 25964m | 4.6m/s | -51.6°C | 4.0% | 22.7hPa | 2.5V | 00:00:00 | 00:00:00 | 00:00:00 | |
| OE5DXL-15 | 2026-08-31 00:20:38 | 48.46144 | 12.64203 | 262° | 15km/h | 25931m | 5.3m/s | -51.5°C | 3.9% | 22.9hPa | 2.6V | 00:00:00 | 00:00:00 | 00:00:00 | |
| OE5MMP-10 | 2026-08-31 00:20:35 | 48.46145 | 12.64216 | 264° | 15km/h | 25916m | 5.7m/s | -51.5°C | 3.9% | 22.9hPa | 2.6V | 00:00:00 | 01:51:16 | 00:00:00 | |
| DO3MHA-11 | 2026-08-31 00:20:32 | 48.46152 | 12.64235 | 218° | 15km/h | 25895m | 5.8m/s | -51.6°C | 3.9% | 23.0hPa | 2.6V | 00:00:00 | 01:51:12 | 00:00:00 | |
| DK5PH-5 | 2026-08-31 00:20:29 | 48.46158 | 12.64244 | 225° | 13km/h | 25885m | 5.5m/s | -51.6°C | 3.9% | 23.0hPa | 2.6V | 00:00:00 | 01:51:10 | 00:00:00 | |
| DL6DJ-15 | 2026-08-31 00:20:27 | 48.46163 | 12.64260 | 265° | 15km/h | 25869m | 4.5m/s | -51.8°C | 1.1% | 23.2hPa | 2.5V | 00:00:00 | 00:00:00 | 00:00:00 | |
| OE5MMP-10 | 2026-08-31 00:20:25 | 48.46164 | 12.64265 | 266° | 13km/h | 25864m | 5.8m/s | -51.8°C | 4.0% | 23.1hPa | 2.5V | 00:00:00 | 01:51:06 | 00:00:00 | |
| OE5WHR-10 | 2026-08-31 00:20:23 | 48.46164 | 12.64275 | 262° | 13km/h | 25854m | 4.5m/s | -51.8°C | 4.0% | 23.1hPa | 2.5V | 00:00:00 | 00:00:00 | 00:00:00 | |
| DO3MHA-11 | 2026-08-31 00:20:21 | 48.46165 | 12.64286 | 268° | 13km/h | 25843m | 5.4m/s | -51.8°C | 4.0% | 23.2hPa | 2.5V | 00:00:00 | 01:51:02 | 00:00:00 | |
| OE5REO-15 | 2026-08-31 00:20:17 | 48.46164 | 12.64304 | 278° | 11km/h | 25829m | 5.0m/s | -51.8°C | 1.1% | 23.3hPa | 2.5V | 00:00:00 | 00:00:00 | 00:00:00 | |
| OE5MMP-10 | 2026-08-31 00:20:15 | 48.46168 | 12.64310 | 192° | 15km/h | 25814m | 4.7m/s | -52.0°C | 4.0% | 23.3hPa | 2.5V | 00:00:00 | 01:50:56 | 00:00:00 | |
| OE5HKT-10 | 2026-08-31 00:20:11 | 48.46179 | 12.64324 | 254° | 11km/h | 25794m | 4.4m/s | -52.2°C | 4.1% | 23.4hPa | 2.6V | 00:00:00 | 00:00:00 | 00:00:00 | |
| OE5DXL-15 | 2026-08-31 00:20:08 | 48.46178 | 12.64342 | 301° | 9km/h | 25778m | 5.3m/s | -52.3°C | 4.2% | 23.4hPa | 2.5V | 00:00:00 | 00:00:00 | 00:00:00 | |
| OE5MMP-10 | 2026-08-31 00:20:05 | 48.46174 | 12.64352 | 295° | 9km/h | 25764m | 5.5m/s | -52.3°C | 4.2% | 23.5hPa | 2.5V | 00:00:00 | 01:50:46 | 00:00:00 | |
| OE5WHR-10 | 2026-08-31 00:20:02 | 48.46172 | 12.64362 | 286° | 9km/h | 25749m | 4.1m/s | -52.3°C | 4.1% | 23.5hPa | 2.5V | 00:00:00 | 01:50:43 | 00:00:00 | |
| OE5REO-15 | 2026-08-31 00:20:01 | 48.46172 | 12.64362 | 286° | 7km/h | 25749m | 4.2m/s | -52.3°C | 1.2% | 23.6hPa | 2.5V | 00:00:00 | 00:00:00 | 00:00:00 | |
| DF3TZ-5 | 2026-08-31 00:20:00 | 48.46168 | 12.64365 | 1° | 9km/h | 25733m | 4.8m/s | 0°C | -1.0% | -1.0hPa | 2.5V | 00:00:00 | 00:00:00 | 00:00:00 | |
| DL6DJ-15 | 2026-08-31 00:19:56 | 48.46161 | 12.64373 | 276° | 11km/h | 25714m | 4.7m/s | -52.2°C | 1.2% | 23.7hPa | 2.5V | 00:00:00 | 00:00:00 | 00:00:00 | |
| OE5MMP-10 | 2026-08-31 00:19:55 | 48.46160 | 12.64373 | 277° | 11km/h | 25714m | 4.6m/s | -52.1°C | 4.1% | 23.7hPa | 2.5V | 00:00:00 | 01:50:36 | 00:00:00 | |
| OE5HKT-10 | 2026-08-31 00:19:50 | 48.46163 | 12.64390 | 287° | 9km/h | 25689m | 4.0m/s | -52.1°C | 4.2% | 23.8hPa | 2.5V | 00:00:00 | 00:00:00 | 00:00:00 | |
| OE5REO-15 | 2026-08-31 00:19:46 | 48.46159 | 12.64403 | 294° | 18km/h | 25673m | 5.7m/s | -52.2°C | 1.2% | 23.9hPa | 2.5V | 00:00:00 | 00:00:00 | 00:00:00 | |
| OE5MMP-10 | 2026-08-31 00:19:45 | 48.46155 | 12.64414 | 300° | 7km/h | 25664m | 4.7m/s | -52.1°C | 4.2% | 23.9hPa | 2.5V | 00:00:00 | 01:50:26 | 00:00:00 | |
| DK5PH-5 | 2026-08-31 00:19:44 | 48.46154 | 12.64418 | 307° | 13km/h | 25658m | 5.8m/s | -52.1°C | 4.1% | 23.8hPa | 2.5V | 00:00:00 | 01:50:25 | 00:00:00 | |
| OE5WHR-10 | 2026-08-31 00:19:41 | 48.46153 | 12.64419 | 176° | 11km/h | 25643m | 5.4m/s | -52.1°C | 4.2% | 23.9hPa | 2.5V | 00:00:00 | 00:00:00 | 08:30:00 | |
| OE5DXL-15 | 2026-08-31 00:19:38 | 48.46157 | 12.64423 | 243° | 13km/h | 25627m | 4.7m/s | -52.0°C | 4.1% | 24.0hPa | 2.6V | 00:00:00 | 00:00:00 | 00:00:00 | |
| OE5MMP-10 | 2026-08-31 00:19:35 | 48.46156 | 12.64431 | 319° | 9km/h | 25610m | 4.8m/s | -51.9°C | 4.1% | 24.1hPa | 2.6V | 00:00:00 | 01:50:16 | 00:00:00 | |
| OE5REO-15 | 2026-08-31 00:19:30 | 48.46152 | 12.64445 | 264° | 11km/h | 25589m | 4.1m/s | -51.8°C | 1.1% | 24.2hPa | 2.6V | 00:00:00 | 00:00:00 | 00:00:00 | |
| OE5HKT-10 | 2026-08-31 00:19:29 | 48.46154 | 12.64451 | 231° | 13km/h | 25580m | 5.9m/s | -51.8°C | 4.0% | 24.2hPa | 2.6V | 00:00:00 | 01:50:10 | 00:00:00 | |
| OE5MMP-10 | 2026-08-31 00:19:25 | 48.46162 | 12.64456 | 208° | 15km/h | 25559m | 5.9m/s | -51.8°C | 4.1% | 24.2hPa | 2.6V | 00:00:00 | 01:50:06 | 00:00:00 | |
| OE5WHR-10 | 2026-08-31 00:19:20 | 48.46172 | 12.64479 | 265° | 15km/h | 25533m | 5.2m/s | -51.7°C | 4.1% | 24.4hPa | 2.6V | 00:00:00 | 00:00:00 | 00:00:00 | |
| OE5FHM-15 | 2026-08-31 00:19:15 | 48.46172 | 12.64504 | 249° | 18km/h | 25509m | 4.2m/s | -51.6°C | 4.1% | 24.4hPa | 2.6V | 00:00:00 | 01:49:56 | 00:00:00 | |
| OE5REO-15 | 2026-08-31 00:19:14 | 48.46172 | 12.64504 | 249° | 16km/h | 25509m | 4.2m/s | -51.7°C | 1.1% | 24.5hPa | 2.5V | 00:00:00 | 00:00:00 | 00:00:00 | |
| DO3MHA-11 | 2026-08-31 00:19:12 | 48.46179 | 12.64516 | 212° | 16km/h | 25494m | 4.8m/s | -51.5°C | 4.0% | 24.5hPa | 2.5V | 00:00:00 | 01:49:53 | 08:30:00 | |
| OE5HKT-10 | 2026-08-31 00:19:08 | 48.46187 | 12.64532 | 252° | 18km/h | 25475m | 5.1m/s | -51.4°C | 4.1% | 24.6hPa | 2.6V | 00:00:00 | 00:00:00 | 00:00:00 | |
| OE5DXL-15 | 2026-08-31 00:19:07 | 48.46189 | 12.64539 | 256° | 20km/h | 25470m | 3.8m/s | -51.4°C | 4.0% | 24.6hPa | 2.5V | 00:00:00 | 00:00:00 | 00:00:00 | |
| DK5PH-5 | 2026-08-31 00:19:06 | 48.46190 | 12.64547 | 258° | 20km/h | 25466m | 4.6m/s | -51.3°C | 4.0% | 24.6hPa | 2.5V | 00:00:00 | 01:49:47 | 00:00:00 | |
| OE5MMP-10 | 2026-08-31 00:19:05 | 48.46191 | 12.64555 | 260° | 18km/h | 25461m | 5.9m/s | -51.3°C | 3.9% | 24.6hPa | 2.5V | 00:00:00 | 01:49:46 | 00:00:00 | |
| DL6DJ-15 | 2026-08-31 00:18:53 | 48.46207 | 12.64639 | 259° | 22km/h | 25397m | 5.1m/s | -51.2°C | 1.1% | 24.9hPa | 2.5V | 00:00:00 | 00:00:00 | 00:00:00 | |
| DO3MHA-11 | 2026-08-31 00:18:47 | 48.46213 | 12.64682 | 253° | 24km/h | 25366m | 5.8m/s | -51.1°C | 3.8% | 25.0hPa | 2.5V | 00:00:00 | 01:49:28 | 00:00:00 | |
| OE5FHM-15 | 2026-08-31 00:18:45 | 48.46217 | 12.64698 | 244° | 20km/h | 25356m | 4.8m/s | -51.1°C | 3.9% | 25.0hPa | 2.5V | 00:00:00 | 01:49:26 | 00:00:00 | |
| OE5REO-15 | 2026-08-31 00:18:41 | 48.46227 | 12.64720 | 228° | 24km/h | 25339m | 4.8m/s | -51.3°C | 1.1% | 25.2hPa | 2.5V | 00:00:00 | 00:00:00 | 00:00:00 | |
| BAUMI2-15 | 2026-08-31 00:18:40 | 48.46235 | 12.64734 | 236° | 22km/h | 25328m | 5.6m/s | -51.4°C | 3.9% | 25.1hPa | 2.5V | 00:00:00 | 01:49:21 | 00:00:00 | |
| OE5WHR-10 | 2026-08-31 00:18:38 | 48.46242 | 12.64749 | 236° | 18km/h | 25319m | 4.9m/s | -51.4°C | 3.9% | 25.2hPa | 2.5V | 00:00:00 | 00:00:00 | 00:00:00 | |
| DO3MHA-11 | 2026-08-31 00:18:37 | 48.46245 | 12.64755 | 231° | 20km/h | 25313m | 6.1m/s | -51.4°C | 3.9% | 25.2hPa | 2.5V | 00:00:00 | 01:49:18 | 00:00:00 | |
| OE5MMP-10 | 2026-08-31 00:18:35 | 48.46251 | 12.64764 | 223° | 20km/h | 25303m | 4.8m/s | -51.4°C | 3.9% | 25.3hPa | 2.6V | 00:00:00 | 01:49:16 | 00:00:00 | |
| BAUMI2-15 | 2026-08-31 00:18:30 | 48.46269 | 12.64792 | 218° | 18km/h | 25276m | 6.0m/s | -51.5°C | 3.9% | 25.3hPa | 2.6V | 00:00:00 | 01:49:11 | 00:00:00 | |
| DO7DH-14 | 2026-08-31 00:18:29 | 48.46273 | 12.64796 | 212° | 13km/h | 25270m | 4.8m/s | -51.6°C | 3.9% | 25.4hPa | 2.5V | 00:00:00 | 01:49:10 | 00:00:00 | |
| DO3MHA-11 | 2026-08-31 00:18:27 | 48.46280 | 12.64803 | 219° | 18km/h | 25261m | 5.7m/s | -51.7°C | 4.0% | 25.4hPa | 2.5V | 00:00:00 | 01:49:08 | 00:00:00 | |
| OE5MMP-10 | 2026-08-31 00:18:25 | 48.46288 | 12.64814 | 229° | 16km/h | 25250m | 4.9m/s | -51.9°C | 4.0% | 25.5hPa | 2.5V | 00:00:00 | 01:49:06 | 00:00:00 | |
| OE5HKT-10 | 2026-08-31 00:18:24 | 48.46291 | 12.64820 | 227° | 16km/h | 25245m | 5.0m/s | -51.9°C | 4.0% | 25.5hPa | 2.5V | 00:00:00 | 01:49:05 | 00:00:00 | |
| DL6DJ-15 | 2026-08-31 00:18:22 | 48.46298 | 12.64829 | 217° | 15km/h | 25234m | 4.9m/s | -52.0°C | 1.1% | 25.6hPa | 2.5V | 00:00:00 | 00:00:00 | 00:00:00 | |
| BAUMI2-15 | 2026-08-31 00:18:20 | 48.46304 | 12.64837 | 222° | 15km/h | 25224m | 6.0m/s | -52.0°C | 4.0% | 25.6hPa | 2.5V | 00:00:00 | 01:49:01 | 00:00:00 | |
| OE5WHR-10 | 2026-08-31 00:18:17 | 48.46313 | 12.64851 | 229° | 11km/h | 25209m | 5.0m/s | -52.2°C | 4.1% | 25.6hPa | 2.5V | 00:00:00 | 00:00:00 | 00:00:00 | |
| DO3MHA-11 | 2026-08-31 00:18:16 | 48.46315 | 12.64854 | 223° | 13km/h | 25203m | 6.2m/s | -52.2°C | 4.1% | 25.7hPa | 2.5V | 00:00:00 | 01:48:57 | 00:00:00 | |
| OE5MMP-10 | 2026-08-31 00:18:15 | 48.46317 | 12.64856 | 209° | 13km/h | 25197m | 5.3m/s | -52.2°C | 4.1% | 25.7hPa | 2.5V | 00:00:00 | 01:48:56 | 00:00:00 | |
| BAUMI2-15 | 2026-08-31 00:18:10 | 48.46327 | 12.64865 | 206° | 16km/h | 25171m | 4.9m/s | -52.3°C | 4.1% | 25.8hPa | 2.6V | 00:00:00 | 01:48:51 | 00:00:00 | |
| OE5DXL-15 | 2026-08-31 00:18:07 | 48.46339 | 12.64870 | 187° | 7km/h | 25155m | 4.7m/s | -52.3°C | 4.1% | 25.8hPa | 2.6V | 00:00:00 | 00:00:00 | 00:00:00 | |
| DO3MHA-11 | 2026-08-31 00:18:06 | 48.46343 | 12.64871 | 193° | 11km/h | 25149m | 6.0m/s | -52.3°C | 4.1% | 25.9hPa | 2.6V | 00:00:00 | 01:48:47 | 00:00:00 | |
| OE5MMP-10 | 2026-08-31 00:18:05 | 48.46347 | 12.64872 | 200° | 9km/h | 25144m | 5.3m/s | -52.3°C | 4.1% | 25.9hPa | 2.5V | 00:00:00 | 01:48:46 | 00:00:00 | |
| OE5HKT-10 | 2026-08-31 00:18:03 | 48.46355 | 12.64876 | 194° | 5km/h | 25134m | 4.8m/s | -52.3°C | 4.1% | 25.9hPa | 2.5V | 00:00:00 | 00:00:00 | 08:30:00 | |
| BAUMI2-15 | 2026-08-31 00:18:00 | 48.46362 | 12.64874 | 146° | 5km/h | 25118m | 4.6m/s | -52.3°C | 4.1% | 26.0hPa | 2.6V | 00:00:00 | 01:48:41 | 08:30:00 | |
| DO7DH-14 | 2026-08-31 00:17:57 | 48.46365 | 12.64873 | 246° | 5km/h | 25102m | 4.3m/s | -52.2°C | 4.1% | 26.1hPa | 2.5V | 00:00:00 | 01:48:38 | 00:00:00 | |
| OE5WHR-10 | 2026-08-31 00:17:56 | 48.46366 | 12.64874 | 237° | 5km/h | 25098m | 4.6m/s | -52.3°C | 4.1% | 26.1hPa | 2.5V | 00:00:00 | 01:48:37 | 00:00:00 | |
| OE5MMP-10 | 2026-08-31 00:17:55 | 48.46367 | 12.64875 | 212° | 5km/h | 25092m | 6.0m/s | -52.3°C | 4.1% | 26.1hPa | 2.5V | 00:00:00 | 01:48:36 | 00:00:00 | |
| BAUMI2-15 | 2026-08-31 00:17:50 | 48.46374 | 12.64880 | 231° | 5km/h | 25065m | 4.8m/s | -52.3°C | 4.1% | 26.2hPa | 2.5V | 00:00:00 | 01:48:31 | 00:00:00 | |
| DO3MHA-11 | 2026-08-31 00:17:46 | 48.46378 | 12.64880 | 134° | 5km/h | 25045m | 4.6m/s | -52.2°C | 4.1% | 26.3hPa | 2.5V | 00:00:00 | 01:48:27 | 00:00:00 | |
| OE5MMP-10 | 2026-08-31 00:17:45 | 48.46379 | 12.64879 | 131° | 5km/h | 25040m | 5.7m/s | -52.2°C | 4.1% | 26.3hPa | 2.5V | 00:00:00 | 01:48:26 | 08:30:00 | |
| OE5HKT-10 | 2026-08-31 00:17:43 | 48.46381 | 12.64878 | 204° | 7km/h | 25023m | 5.0m/s | -52.3°C | 4.1% | 26.4hPa | 2.5V | 00:00:00 | 00:00:00 | 00:00:00 | |
| OE5REO-15 | 2026-08-31 00:17:40 | 48.46384 | 12.64880 | 202° | 7km/h | 25013m | 4.9m/s | -52.3°C | 1.2% | 26.5hPa | 2.5V | 00:00:00 | 00:00:00 | 00:00:00 | |
| OE5DXL-15 | 2026-08-31 00:17:37 | 48.46388 | 12.64886 | 255° | 11km/h | 24996m | 5.2m/s | -52.3°C | 4.1% | 26.5hPa | 2.5V | 00:00:00 | 00:00:00 | 00:00:00 | |
| DO3MHA-11 | 2026-08-31 00:17:36 | 48.46388 | 12.64889 | 262° | 5km/h | 24991m | 4.5m/s | -52.3°C | 4.1% | 26.5hPa | 2.5V | 00:00:00 | 01:48:17 | 08:30:00 | |
| OE5WHR-10 | 2026-08-31 00:17:35 | 48.46388 | 12.64891 | 246° | 9km/h | 24986m | 6.0m/s | -52.3°C | 4.1% | 26.6hPa | 2.5V | 00:00:00 | 00:00:00 | 00:00:00 | |
| BAUMI2-15 | 2026-08-31 00:17:30 | 48.46391 | 12.64896 | 260° | 7km/h | 24959m | 4.8m/s | -52.3°C | 4.1% | 26.7hPa | 2.5V | 00:00:00 | 01:48:11 | 00:00:00 | |
| DO7DH-14 | 2026-08-31 00:17:27 | 48.46394 | 12.64902 | 207° | 11km/h | 24944m | 5.0m/s | -52.2°C | 4.1% | 26.7hPa | 2.6V | 00:00:00 | 01:48:08 | 00:00:00 | |
| DO3MHA-11 | 2026-08-31 00:17:26 | 48.46396 | 12.64904 | 211° | 11km/h | 24939m | 4.3m/s | -52.3°C | 4.0% | 26.7hPa | 2.6V | 00:00:00 | 01:48:07 | 00:00:00 | |
| OE5MMP-10 | 2026-08-31 00:17:25 | 48.46399 | 12.64906 | 219° | 11km/h | 24934m | 5.9m/s | -52.3°C | 4.1% | 26.8hPa | 2.6V | 00:00:00 | 01:48:06 | 00:00:00 | |
| OE5REO-15 | 2026-08-31 00:17:23 | 48.46401 | 12.64910 | 227° | 15km/h | 24928m | 5.4m/s | -52.3°C | 1.2% | 26.8hPa | 2.6V | 00:00:00 | 00:00:00 | 00:00:00 | |
| BAUMI2-15 | 2026-08-31 00:17:20 | 48.46413 | 12.64921 | 178° | 7km/h | 24907m | 4.7m/s | -52.4°C | 4.1% | 26.9hPa | 2.6V | 00:00:00 | 01:48:01 | 00:00:00 | |
| DO3MHA-11 | 2026-08-31 00:17:16 | 48.46421 | 12.64920 | 208° | 13km/h | 24887m | 4.2m/s | -52.3°C | 4.1% | 26.9hPa | 2.6V | 00:00:00 | 01:47:57 | 00:00:00 | |
| OE5MMP-10 | 2026-08-31 00:17:15 | 48.46423 | 12.64921 | 208° | 15km/h | 24883m | 4.8m/s | -52.3°C | 4.1% | 27.0hPa | 2.6V | 00:00:00 | 01:47:56 | 00:00:00 | |
| OE5WHR-10 | 2026-08-31 00:17:14 | 48.46425 | 12.64923 | 202° | 13km/h | 24877m | 5.3m/s | -52.3°C | 4.2% | 27.0hPa | 2.5V | 00:00:00 | 00:00:00 | 00:00:00 | |
| BAUMI2-15 | 2026-08-31 00:17:10 | 48.46438 | 12.64931 | 209° | 16km/h | 24858m | 5.1m/s | -52.4°C | 4.1% | 27.1hPa | 2.5V | 00:00:00 | 01:47:51 | 00:00:00 | |
| OE5REO-15 | 2026-08-31 00:17:08 | 48.46442 | 12.64934 | 214° | 16km/h | 24852m | 5.1m/s | -52.4°C | 1.2% | 27.2hPa | 2.5V | 00:00:00 | 00:00:00 | 00:00:00 | |
| OE5DXL-15 | 2026-08-31 00:17:07 | 48.46453 | 12.64940 | 183° | 7km/h | 24839m | 4.3m/s | -52.4°C | 4.1% | 27.1hPa | 2.5V | 00:00:00 | 00:00:00 | 00:00:00 | |
| DO3MHA-11 | 2026-08-31 00:17:06 | 48.46453 | 12.64940 | 183° | 11km/h | 24839m | 4.3m/s | -52.4°C | 4.1% | 27.1hPa | 2.5V | 00:00:00 | 01:47:47 | 00:00:00 | |
| OE5MMP-10 | 2026-08-31 00:17:05 | 48.46456 | 12.64940 | 159° | 11km/h | 24835m | 4.7m/s | -52.4°C | 4.1% | 27.2hPa | 2.5V | 00:00:00 | 01:47:46 | 00:00:00 | |
| DL6DJ-15 | 2026-08-31 00:16:49 | 48.46480 | 12.64946 | 121° | 9km/h | 24754m | 5.6m/s | -52.6°C | 1.2% | 27.6hPa | 2.5V | 00:00:00 | 00:00:00 | 00:00:00 | |
| OE5FHM-15 | 2026-08-31 00:16:45 | 48.46483 | 12.64935 | 80° | 5km/h | 24735m | 4.9m/s | -52.7°C | 4.2% | 27.6hPa | 2.5V | 00:00:00 | 01:47:26 | 00:00:00 | |
| OE5DRO-10 | 2026-08-31 00:16:42 | 48.46484 | 12.64938 | 224° | 5km/h | 24719m | 5.4m/s | -52.8°C | 4.2% | 27.7hPa | 2.5V | 00:00:00 | 00:00:00 | 00:00:00 | |
| OE5HKT-10 | 2026-08-31 00:16:38 | 48.46488 | 12.64944 | 272° | 5km/h | 24699m | 5.5m/s | -52.8°C | 4.2% | 27.8hPa | 2.5V | 00:00:00 | 00:00:00 | 00:00:00 | |
| OE5REO-15 | 2026-08-31 00:16:36 | 48.46488 | 12.64945 | 0° | 0km/h | 24694m | 4.5m/s | -52.9°C | 1.2% | 27.8hPa | 2.5V | 00:00:00 | 00:00:00 | 00:00:00 | |
| DK5PH-5 | 2026-08-31 00:16:35 | 48.46488 | 12.64943 | 106° | 5km/h | 24684m | 5.7m/s | -52.8°C | 4.2% | 27.8hPa | 2.5V | 00:00:00 | 01:47:16 | 00:00:00 | |
| OE5WHR-10 | 2026-08-31 00:16:32 | 48.46488 | 12.64936 | 66° | 5km/h | 24669m | 5.9m/s | -52.8°C | 4.2% | 27.9hPa | 2.5V | 00:00:00 | 00:00:00 | 08:30:00 | |
| OE8JPQ-2 | 2026-08-31 00:16:31 | 48.46488 | 12.64934 | 19° | 7km/h | 24664m | 5.2m/s | 0°C | 0% | 0hPa | 2.5V | 00:00:00 | 00:00:00 | 00:00:00 | |
| DO7DH-14 | 2026-08-31 00:16:27 | 48.46485 | 12.64939 | 236° | 7km/h | 24643m | 4.9m/s | -52.7°C | 4.1% | 28.0hPa | 2.5V | 00:00:00 | 01:47:08 | 08:30:00 | |
| OE5MMP-10 | 2026-08-31 00:16:25 | 48.46487 | 12.64943 | 234° | 5km/h | 24634m | 4.8m/s | -52.7°C | 4.1% | 28.1hPa | 2.5V | 00:00:00 | 01:47:06 | 00:00:00 | |
| OE5DRO-10 | 2026-08-31 00:16:23 | 48.46488 | 12.64945 | 340° | 7km/h | 24623m | 4.9m/s | -52.7°C | 4.1% | 28.1hPa | 2.5V | 00:00:00 | 00:00:00 | 00:00:00 | |
| OE5REO-15 | 2026-08-31 00:16:20 | 48.46487 | 12.64943 | 84° | 5km/h | 24613m | 5.6m/s | -52.8°C | 1.1% | 28.2hPa | 2.5V | 00:00:00 | 00:00:00 | 00:00:00 | |
| OE5HKT-10 | 2026-08-31 00:16:17 | 48.46490 | 12.64932 | 119° | 13km/h | 24592m | 5.7m/s | -52.8°C | 4.1% | 28.2hPa | 2.5V | 00:00:00 | 01:46:58 | 00:00:00 | |
| OE5MMP-10 | 2026-08-31 00:16:15 | 48.46490 | 12.64931 | 329° | 7km/h | 24581m | 5.0m/s | -53.0°C | 4.1% | 28.3hPa | 2.5V | 00:00:00 | 01:46:56 | 08:30:00 | |
| OE5WHR-10 | 2026-08-31 00:16:11 | 48.46488 | 12.64939 | 282° | 7km/h | 24561m | 3.6m/s | -53.2°C | 4.2% | 28.4hPa | 2.6V | 00:00:00 | 00:00:00 | 00:00:00 | |
| OE5MMP-10 | 2026-08-31 00:16:05 | 48.46479 | 12.64942 | 79° | 7km/h | 24531m | 5.7m/s | -53.6°C | 4.3% | 28.5hPa | 2.6V | 00:00:00 | 01:46:46 | 00:00:00 | |
| OE5DRO-10 | 2026-08-31 00:16:04 | 48.46479 | 12.64938 | 99° | 9km/h | 24525m | 4.9m/s | -53.7°C | 4.4% | 28.5hPa | 2.6V | 00:00:00 | 00:00:00 | 00:00:00 | |
| OE8JPQ-2 | 2026-08-31 00:16:02 | 48.46480 | 12.64930 | 91° | 9km/h | 24515m | 5.8m/s | 0°C | 0% | 0hPa | 2.6V | 00:00:00 | 00:00:00 | 00:00:00 | |
| DO7DH-14 | 2026-08-31 00:15:57 | 48.46479 | 12.64919 | 245° | 11km/h | 24490m | 4.8m/s | -53.8°C | 4.4% | 28.7hPa | 2.6V | 00:00:00 | 01:46:38 | 00:00:00 | |
| OE5MMP-10 | 2026-08-31 00:15:55 | 48.46478 | 12.64921 | 326° | 9km/h | 24479m | 5.9m/s | -53.8°C | 4.4% | 28.7hPa | 2.6V | 00:00:00 | 01:46:36 | 00:00:00 | |
| OE5WHR-10 | 2026-08-31 00:15:50 | 48.46469 | 12.64916 | 56° | 13km/h | 24453m | 5.0m/s | -53.8°C | 4.4% | 28.9hPa | 2.6V | 00:00:00 | 01:46:31 | 00:00:00 | |
| OE5REO-15 | 2026-08-31 00:15:49 | 48.46469 | 12.64916 | 57° | 11km/h | 24453m | 5.0m/s | -53.9°C | 1.3% | 28.9hPa | 2.6V | 00:00:00 | 00:00:00 | 00:00:00 | |
| OE5MMP-10 | 2026-08-31 00:15:45 | 48.46461 | 12.64899 | 80° | 9km/h | 24426m | 5.1m/s | -53.8°C | 4.3% | 29.0hPa | 2.6V | 00:00:00 | 01:46:26 | 00:00:00 | |
| OE8JPQ-2 | 2026-08-31 00:15:41 | 48.46457 | 12.64895 | 354° | 16km/h | 24406m | 5.1m/s | 0°C | 0% | 0hPa | 2.6V | 00:00:00 | 01:46:22 | 00:00:00 | |
| OE5MMP-10 | 2026-08-31 00:15:35 | 48.46443 | 12.64877 | 61° | 15km/h | 24375m | 6.1m/s | -53.9°C | 4.4% | 29.2hPa | 2.6V | 00:00:00 | 01:46:16 | 00:00:00 | |
| OE5DXL-15 | 2026-08-31 00:15:34 | 48.46440 | 12.64869 | 58° | 16km/h | 24369m | 5.0m/s | -53.9°C | 4.4% | 29.2hPa | 2.6V | 00:00:00 | 00:00:00 | 00:00:00 | |
| OE5REO-15 | 2026-08-31 00:15:33 | 48.46440 | 12.64869 | 59° | 22km/h | 24369m | 5.1m/s | -54.0°C | 1.3% | 29.3hPa | 2.5V | 00:00:00 | 00:00:00 | 00:00:00 | |
| OE5WHR-10 | 2026-08-31 00:15:29 | 48.46430 | 12.64844 | 52° | 16km/h | 24344m | 4.4m/s | -54.0°C | 4.5% | 29.4hPa | 2.5V | 00:00:00 | 00:00:00 | 00:00:00 | |
| DO7DH-14 | 2026-08-31 00:15:27 | 48.46427 | 12.64841 | 6° | 16km/h | 24333m | 5.3m/s | -53.9°C | 4.4% | 29.4hPa | 2.5V | 00:00:00 | 01:46:08 | 00:00:00 | |
| OE5DRO-10 | 2026-08-31 00:15:26 | 48.46423 | 12.64841 | 359° | 11km/h | 24329m | 4.8m/s | -53.9°C | 4.4% | 29.4hPa | 2.5V | 00:00:00 | 00:00:00 | 08:30:00 | |
| OE5MMP-10 | 2026-08-31 00:15:25 | 48.46420 | 12.64841 | 355° | 16km/h | 24323m | 6.0m/s | -53.9°C | 4.4% | 29.5hPa | 2.5V | 00:00:00 | 01:46:06 | 00:00:00 | |
| OE5REO-15 | 2026-08-31 00:15:18 | 48.46395 | 12.64836 | 36° | 16km/h | 24292m | 6.1m/s | -54.0°C | 1.3% | 29.7hPa | 2.5V | 00:00:00 | 00:00:00 | 00:00:00 | |
| DL6DJ-15 | 2026-08-31 00:15:17 | 48.46385 | 12.64819 | 35° | 13km/h | 24270m | 5.9m/s | -54.0°C | 1.3% | 29.8hPa | 2.5V | 00:00:00 | 00:00:00 | 00:00:00 | |
| OE5FHM-15 | 2026-08-31 00:15:15 | 48.46385 | 12.64819 | 36° | 15km/h | 24271m | 5.8m/s | -54.0°C | 4.5% | 29.7hPa | 2.5V | 00:00:00 | 01:45:56 | 00:00:00 | |
| OE5HKT-10 | 2026-08-31 00:15:08 | 48.46351 | 12.64821 | 358° | 15km/h | 24235m | 5.1m/s | -53.8°C | 4.5% | 29.9hPa | 2.5V | 00:00:00 | 00:00:00 | 00:00:00 | |
| OE5MMP-10 | 2026-08-31 00:15:05 | 48.46336 | 12.64819 | 10° | 11km/h | 24221m | 6.0m/s | -53.7°C | 4.4% | 30.0hPa | 2.5V | 00:00:00 | 01:45:46 | 00:00:00 | |
| OE5DXL-15 | 2026-08-31 00:15:04 | 48.46333 | 12.64819 | 17° | 11km/h | 24215m | 5.0m/s | -53.7°C | 4.5% | 30.0hPa | 2.5V | 00:00:00 | 00:00:00 | 00:00:00 | |
| OE5REO-15 | 2026-08-31 00:15:02 | 48.46331 | 12.64818 | 22° | 7km/h | 24210m | 4.1m/s | -53.7°C | 1.3% | 30.1hPa | 2.5V | 00:00:00 | 00:00:00 | 00:00:00 | |
| DO7DH-14 | 2026-08-31 00:14:57 | 48.46315 | 12.64819 | 325° | 11km/h | 24179m | 5.7m/s | -53.5°C | 4.3% | 30.2hPa | 2.5V | 00:00:00 | 01:45:38 | 00:00:00 | |
| OE5MMP-10 | 2026-08-31 00:14:55 | 48.46310 | 12.64825 | 319° | 13km/h | 24169m | 5.2m/s | -53.4°C | 4.3% | 30.2hPa | 2.5V | 00:00:00 | 01:45:36 | 00:00:00 | |
| OE5HKT-10 | 2026-08-31 00:14:47 | 48.46289 | 12.64849 | 352° | 9km/h | 24127m | 5.6m/s | -53.4°C | 4.3% | 30.4hPa | 2.5V | 00:00:00 | 00:00:00 | 00:00:00 | |
| OE5REO-15 | 2026-08-31 00:14:46 | 48.46289 | 12.64849 | 353° | 7km/h | 24127m | 5.7m/s | -53.4°C | 1.2% | 30.5hPa | 2.5V | 00:00:00 | 00:00:00 | 00:00:00 | |
| OE5FHM-15 | 2026-08-31 00:14:45 | 48.46285 | 12.64848 | 30° | 9km/h | 24117m | 5.1m/s | -53.5°C | 4.3% | 30.5hPa | 2.5V | 00:00:00 | 01:45:26 | 00:00:00 | |
| BAUMI2-15 | 2026-08-31 00:14:40 | 48.46272 | 12.64841 | 360° | 13km/h | 24090m | 4.9m/s | -53.6°C | 4.3% | 30.6hPa | 2.6V | 00:00:00 | 01:45:21 | 00:00:00 | |
| DK5PH-5 | 2026-08-31 00:14:35 | 48.46258 | 12.64848 | 330° | 9km/h | 24066m | 4.9m/s | -53.6°C | 4.3% | 30.7hPa | 2.6V | 00:00:00 | 01:45:16 | 00:00:00 | |
| OE5DXL-15 | 2026-08-31 00:14:34 | 48.46254 | 12.64849 | 353° | 9km/h | 24056m | 4.6m/s | -53.6°C | 4.3% | 30.8hPa | 2.6V | 00:00:00 | 00:00:00 | 00:00:00 | |
| OE5REO-15 | 2026-08-31 00:14:31 | 48.46252 | 12.64850 | 356° | 9km/h | 24051m | 4.8m/s | -53.7°C | 1.2% | 30.8hPa | 2.6V | 00:00:00 | 00:00:00 | 00:00:00 | |
| BAUMI2-15 | 2026-08-31 00:14:30 | 48.46248 | 12.64851 | 339° | 9km/h | 24040m | 5.3m/s | -53.8°C | 4.3% | 30.8hPa | 2.6V | 00:00:00 | 01:45:11 | 08:30:00 | |
| DO7DH-14 | 2026-08-31 00:14:27 | 48.46242 | 12.64853 | 357° | 11km/h | 24025m | 6.0m/s | -53.8°C | 4.4% | 30.9hPa | 2.6V | 00:00:00 | 01:45:08 | 00:00:00 | |
| OE5WHR-10 | 2026-08-31 00:14:26 | 48.46239 | 12.64853 | 1° | 9km/h | 24020m | 4.9m/s | -53.8°C | 4.4% | 31.0hPa | 2.6V | 00:00:00 | 00:00:00 | 00:00:00 | |
| OE5MMP-10 | 2026-08-31 00:14:25 | 48.46235 | 12.64853 | 3° | 7km/h | 24015m | 4.5m/s | -53.8°C | 4.4% | 31.0hPa | 2.5V | 00:00:00 | 01:45:06 | 00:00:00 | |
| BAUMI2-15 | 2026-08-31 00:14:21 | 48.46227 | 12.64851 | 53° | 7km/h | 23989m | 5.4m/s | -53.9°C | 4.3% | 31.1hPa | 2.5V | 00:00:00 | 01:45:01 | 00:00:00 | |
| OE5MMP-10 | 2026-08-31 00:14:15 | 48.46223 | 12.64836 | 63° | 11km/h | 23964m | 4.6m/s | -54.1°C | 4.4% | 31.2hPa | 2.5V | 00:00:00 | 01:44:56 | 00:00:00 | |
| DL6DJ-15 | 2026-08-31 00:14:14 | 48.46216 | 12.64829 | 23° | 13km/h | 23947m | 4.8m/s | -54.1°C | 1.2% | 31.4hPa | 2.5V | 00:00:00 | 00:00:00 | 00:00:00 | |
| DO3MHA-11 | 2026-08-31 00:14:12 | 48.46216 | 12.64829 | 24° | 9km/h | 23948m | 4.8m/s | -54.1°C | 4.4% | 31.3hPa | 2.5V | 00:00:00 | 01:44:53 | 00:00:00 | |
| BAUMI2-15 | 2026-08-31 00:14:10 | 48.46210 | 12.64825 | 18° | 9km/h | 23937m | 5.6m/s | -54.1°C | 4.4% | 31.3hPa | 2.5V | 00:00:00 | 01:44:51 | 00:00:00 | |
| OE5WHR-10 | 2026-08-31 00:14:05 | 48.46198 | 12.64822 | 9° | 13km/h | 23911m | 5.1m/s | -54.1°C | 4.4% | 31.5hPa | 2.5V | 00:00:00 | 00:00:00 | 00:00:00 | |
| OE5DXL-15 | 2026-08-31 00:14:04 | 48.46196 | 12.64821 | 7° | 15km/h | 23905m | 6.1m/s | -54.1°C | 4.4% | 31.5hPa | 2.5V | 00:00:00 | 00:00:00 | 08:30:00 | |
| DO3MHA-11 | 2026-08-31 00:14:01 | 48.46191 | 12.64822 | 354° | 13km/h | 23890m | 5.7m/s | -54.2°C | 4.5% | 31.6hPa | 2.5V | 00:00:00 | 01:44:42 | 00:00:00 | |
| BAUMI2-15 | 2026-08-31 00:14:00 | 48.46188 | 12.64823 | 353° | 15km/h | 23884m | 5.5m/s | -54.2°C | 4.5% | 31.6hPa | 2.5V | 00:00:00 | 01:44:41 | 00:00:00 | |
| OE5REO-15 | 2026-08-31 00:13:59 | 48.46188 | 12.64823 | 353° | 13km/h | 23884m | 5.6m/s | -54.3°C | 1.3% | 31.6hPa | 2.6V | 00:00:00 | 00:00:00 | 00:00:00 | |
| DO7DH-14 | 2026-08-31 00:13:57 | 48.46177 | 12.64825 | 347° | 16km/h | 23869m | 6.0m/s | -54.2°C | 4.5% | 31.7hPa | 2.6V | 00:00:00 | 01:44:38 | 00:00:00 | |
| OE5MMP-10 | 2026-08-31 00:13:55 | 48.46170 | 12.64828 | 350° | 15km/h | 23859m | 4.1m/s | -54.2°C | 4.5% | 31.8hPa | 2.6V | 00:00:00 | 01:44:36 | 00:00:00 | |
| BAUMI2-15 | 2026-08-31 00:13:50 | 48.46153 | 12.64830 | 350° | 16km/h | 23832m | 5.5m/s | -54.2°C | 4.5% | 31.9hPa | 2.6V | 00:00:00 | 01:44:31 | 00:00:00 | |
| OE5MMP-10 | 2026-08-31 00:13:45 | 48.46132 | 12.64836 | 342° | 18km/h | 23807m | 5.0m/s | -54.2°C | 4.5% | 32.0hPa | 2.6V | 00:00:00 | 01:44:26 | 00:00:00 | |
| OE5WHR-10 | 2026-08-31 00:13:44 | 48.46128 | 12.64839 | 333° | 18km/h | 23802m | 5.8m/s | -54.2°C | 4.5% | 32.0hPa | 2.5V | 00:00:00 | 01:44:25 | 00:00:00 | |
| OE5REO-15 | 2026-08-31 00:13:43 | 48.46128 | 12.64839 | 334° | 16km/h | 23802m | 5.9m/s | -54.3°C | 1.3% | 32.1hPa | 2.5V | 00:00:00 | 00:00:00 | 00:00:00 | |
| BAUMI2-15 | 2026-08-31 00:13:40 | 48.46115 | 12.64854 | 325° | 18km/h | 23780m | 4.7m/s | -54.2°C | 4.5% | 32.1hPa | 2.5V | 00:00:00 | 01:44:21 | 00:00:00 | |
| OE5MMP-10 | 2026-08-31 00:13:35 | 48.46097 | 12.64875 | 327° | 22km/h | 23756m | 5.2m/s | -54.2°C | 4.5% | 32.3hPa | 2.5V | 00:00:00 | 01:44:16 | 00:00:00 | |
| OE5DXL-15 | 2026-08-31 00:13:34 | 48.46092 | 12.64880 | 332° | 18km/h | 23750m | 5.9m/s | -54.2°C | 4.5% | 32.3hPa | 2.5V | 00:00:00 | 00:00:00 | 00:00:00 | |
| BAUMI2-15 | 2026-08-31 00:13:30 | 48.46070 | 12.64895 | 334° | 20km/h | 23729m | 4.4m/s | -54.2°C | 4.5% | 32.4hPa | 2.5V | 00:00:00 | 01:44:11 | 00:00:00 | |
| OE5REO-15 | 2026-08-31 00:13:28 | 48.46061 | 12.64902 | 330° | 20km/h | 23719m | 5.7m/s | -54.3°C | 1.2% | 32.5hPa | 2.5V | 00:00:00 | 00:00:00 | 00:00:00 | |
| DO7DH-14 | 2026-08-31 00:13:27 | 48.46057 | 12.64906 | 324° | 16km/h | 23714m | 4.8m/s | -54.2°C | 4.5% | 32.4hPa | 2.5V | 00:00:00 | 01:44:08 | 00:00:00 | |
| OE5MMP-10 | 2026-08-31 00:13:25 | 48.46051 | 12.64916 | 308° | 18km/h | 23703m | 6.2m/s | -54.3°C | 4.5% | 32.5hPa | 2.5V | 00:00:00 | 01:44:06 | 00:00:00 | |
| OE5HKT-10 | 2026-08-31 00:13:23 | 48.46047 | 12.64925 | 298° | 18km/h | 23693m | 3.5m/s | -54.3°C | 4.4% | 32.6hPa | 2.5V | 00:00:00 | 01:44:04 | 00:00:00 | |
| BAUMI2-15 | 2026-08-31 00:13:20 | 48.46038 | 12.64938 | 333° | 20km/h | 23678m | 4.6m/s | -54.3°C | 4.5% | 32.6hPa | 2.5V | 00:00:00 | 01:44:01 | 00:00:00 | |
| BAUMI2-15 | 2026-08-31 00:13:15 | 48.46015 | 12.64947 | 354° | 13km/h | 23654m | 4.1m/s | -54.4°C | 4.5% | 32.8hPa | 2.5V | 00:00:00 | 01:43:56 | 00:00:00 | |
| OE5REO-15 | 2026-08-31 00:13:11 | 48.46006 | 12.64952 | 327° | 15km/h | 23640m | 4.7m/s | -54.5°C | 1.3% | 32.9hPa | 2.6V | 00:00:00 | 00:00:00 | 00:00:00 | |
| BAUMI2-15 | 2026-08-31 00:13:10 | 48.46001 | 12.64958 | 315° | 15km/h | 23630m | 5.8m/s | -54.4°C | 4.6% | 32.9hPa | 2.6V | 00:00:00 | 01:43:51 | 00:00:00 | |
| OE5MMP-10 | 2026-08-31 00:13:05 | 48.45987 | 12.64976 | 327° | 11km/h | 23604m | 4.5m/s | -54.4°C | 4.5% | 33.0hPa | 2.6V | 00:00:00 | 01:43:46 | 00:00:00 | |
| OE5DXL-15 | 2026-08-31 00:13:04 | 48.45981 | 12.64982 | 320° | 13km/h | 23593m | 5.7m/s | -54.4°C | 4.5% | 33.1hPa | 2.6V | 00:00:00 | 00:00:00 | 00:00:00 | |
| OE5WHR-10 | 2026-08-31 00:13:02 | 48.45979 | 12.64986 | 309° | 13km/h | 23588m | 4.9m/s | -54.4°C | 4.6% | 33.1hPa | 2.6V | 00:00:00 | 00:00:00 | 00:00:00 | |
| BAUMI2-15 | 2026-08-31 00:13:00 | 48.45976 | 12.64993 | 302° | 9km/h | 23576m | 5.4m/s | -54.4°C | 4.5% | 33.2hPa | 2.6V | 00:00:00 | 01:43:41 | 08:30:00 | |
| DO3MHA-11 | 2026-08-31 00:12:59 | 48.45974 | 12.64997 | 298° | 15km/h | 23572m | 4.2m/s | -54.4°C | 4.6% | 33.2hPa | 2.5V | 00:00:00 | 01:43:40 | 00:00:00 | |
| OE5REO-15 | 2026-08-31 00:12:57 | 48.45973 | 12.65004 | 276° | 7km/h | 23561m | 5.7m/s | -54.4°C | 1.3% | 33.3hPa | 2.5V | 00:00:00 | 00:00:00 | 00:00:00 | |
| OE5MMP-10 | 2026-08-31 00:12:55 | 48.45972 | 12.65008 | 307° | 13km/h | 23551m | 5.0m/s | -54.3°C | 4.6% | 33.3hPa | 2.5V | 00:00:00 | 01:43:36 | 00:00:00 | |
| BAUMI2-15 | 2026-08-31 00:12:50 | 48.45959 | 12.65020 | 326° | 13km/h | 23526m | 5.3m/s | -54.3°C | 4.6% | 33.5hPa | 2.5V | 00:00:00 | 01:43:31 | 00:00:00 | |
| OE5FHM-15 | 2026-08-31 00:12:45 | 48.45945 | 12.65037 | 326° | 16km/h | 23501m | 4.8m/s | -54.3°C | 4.5% | 33.6hPa | 2.5V | 00:00:00 | 01:43:26 | 00:00:00 | |
| OE8JPQ-2 | 2026-08-31 00:12:43 | 48.45939 | 12.65043 | 324° | 15km/h | 23490m | 5.3m/s | 0°C | 0% | 0hPa | 2.5V | 00:00:00 | 00:00:00 | 00:00:00 | |
| DO3MHA-11 | 2026-08-31 00:12:42 | 48.45936 | 12.65046 | 326° | 13km/h | 23485m | 4.2m/s | -54.3°C | 4.5% | 33.7hPa | 2.5V | 00:00:00 | 01:43:23 | 00:00:00 | |
| OE5WHR-10 | 2026-08-31 00:12:41 | 48.45934 | 12.65049 | 330° | 16km/h | 23481m | 4.5m/s | -54.3°C | 4.5% | 33.7hPa | 2.5V | 00:00:00 | 01:43:22 | 00:00:00 | |
| OE5REO-15 | 2026-08-31 00:12:40 | 48.45934 | 12.65049 | 331° | 13km/h | 23481m | 4.5m/s | -54.3°C | 1.3% | 33.8hPa | 2.5V | 00:00:00 | 00:00:00 | 00:00:00 | |
| DK5PH-5 | 2026-08-31 00:12:35 | 48.45913 | 12.65066 | 327° | 16km/h | 23450m | 4.7m/s | -54.3°C | 4.5% | 33.8hPa | 2.5V | 00:00:00 | 01:43:16 | 08:30:00 | |
| OE5DXL-15 | 2026-08-31 00:12:34 | 48.45902 | 12.65075 | 339° | 16km/h | 23435m | 4.1m/s | -54.2°C | 4.5% | 33.9hPa | 2.6V | 00:00:00 | 00:00:00 | 00:00:00 | |
| OE5REO-15 | 2026-08-31 00:12:26 | 48.45878 | 12.65078 | 354° | 22km/h | 23403m | 4.7m/s | -54.2°C | 1.3% | 34.2hPa | 2.5V | 00:00:00 | 00:00:00 | 00:00:00 | |
| OE5MMP-10 | 2026-08-31 00:12:25 | 48.45873 | 12.65079 | 350° | 16km/h | 23399m | 4.2m/s | -54.2°C | 4.6% | 34.2hPa | 2.5V | 00:00:00 | 01:43:06 | 00:00:00 | |
| DO3MHA-11 | 2026-08-31 00:12:24 | 48.45868 | 12.65080 | 350° | 15km/h | 23393m | 5.6m/s | -54.2°C | 4.6% | 34.2hPa | 2.5V | 00:00:00 | 01:43:05 | 08:30:00 | |
| OE5WHR-10 | 2026-08-31 00:12:20 | 48.45851 | 12.65088 | 330° | 16km/h | 23372m | 5.6m/s | -54.1°C | 4.5% | 34.3hPa | 2.6V | 00:00:00 | 00:00:00 | 00:00:00 | |
| OE5MMP-10 | 2026-08-31 00:12:15 | 48.45834 | 12.65101 | 354° | 18km/h | 23346m | 4.8m/s | -54.0°C | 4.5% | 34.4hPa | 2.6V | 00:00:00 | 01:42:56 | 00:00:00 | |
| DO3MHA-11 | 2026-08-31 00:12:14 | 48.45830 | 12.65101 | 357° | 11km/h | 23341m | 5.8m/s | -54.0°C | 4.5% | 34.4hPa | 2.6V | 00:00:00 | 01:42:55 | 00:00:00 | |
| OE5REO-15 | 2026-08-31 00:12:10 | 48.45816 | 12.65101 | 1° | 18km/h | 23326m | 5.8m/s | -54.0°C | 1.3% | 34.6hPa | 2.6V | 00:00:00 | 00:00:00 | 00:00:00 | |
| OE5MMP-10 | 2026-08-31 00:12:05 | 48.45789 | 12.65120 | 319° | 13km/h | 23297m | 4.2m/s | -53.9°C | 4.4% | 34.7hPa | 2.6V | 00:00:00 | 01:42:46 | 00:00:00 | |
| OE5HKT-10 | 2026-08-31 00:12:04 | 48.45786 | 12.65125 | 318° | 11km/h | 23292m | 5.9m/s | -53.8°C | 4.4% | 34.7hPa | 2.6V | 00:00:00 | 00:00:00 | 00:00:00 | |
| OE5DXL-15 | 2026-08-31 00:12:02 | 48.45780 | 12.65129 | 1° | 13km/h | 23276m | 5.4m/s | -53.8°C | 4.4% | 34.8hPa | 2.5V | 00:00:00 | 00:00:00 | 00:00:00 | |
| DO3MHA-11 | 2026-08-31 00:12:01 | 48.45780 | 12.65129 | 1° | 13km/h | 23276m | 5.4m/s | -53.8°C | 4.4% | 34.8hPa | 2.5V | 00:00:00 | 01:42:42 | 00:00:00 | |
| OE5WHR-10 | 2026-08-31 00:11:59 | 48.45775 | 12.65129 | 2° | 13km/h | 23266m | 4.4m/s | -53.8°C | 4.4% | 34.9hPa | 2.5V | 00:00:00 | 00:00:00 | 00:00:00 | |
| OE5MMP-10 | 2026-08-31 00:11:55 | 48.45762 | 12.65129 | 352° | 11km/h | 23246m | 4.9m/s | -53.8°C | 4.4% | 35.0hPa | 2.5V | 00:00:00 | 01:42:36 | 00:00:00 | |
| DO7DH-14 | 2026-08-31 00:11:54 | 48.45759 | 12.65130 | 344° | 13km/h | 23240m | 5.5m/s | -53.8°C | 4.4% | 35.0hPa | 2.5V | 00:00:00 | 01:42:35 | 08:30:00 | |
| DO3MHA-11 | 2026-08-31 00:11:51 | 48.45750 | 12.65137 | 327° | 11km/h | 23225m | 5.4m/s | -53.8°C | 4.4% | 35.1hPa | 2.5V | 00:00:00 | 01:42:32 | 00:00:00 | |
| OE5MMP-10 | 2026-08-31 00:11:45 | 48.45736 | 12.65146 | 352° | 15km/h | 23195m | 4.0m/s | -53.7°C | 4.3% | 35.2hPa | 2.5V | 00:00:00 | 01:42:26 | 08:30:00 | |
| OE5HKT-10 | 2026-08-31 00:11:43 | 48.45730 | 12.65147 | 354° | 13km/h | 23185m | 5.3m/s | -53.8°C | 4.3% | 35.3hPa | 2.5V | 00:00:00 | 00:00:00 | 00:00:00 | |
| DO3MHA-11 | 2026-08-31 00:11:41 | 48.45724 | 12.65149 | 341° | 15km/h | 23175m | 5.2m/s | -53.9°C | 4.4% | 35.4hPa | 2.5V | 00:00:00 | 01:42:22 | 00:00:00 | |
| OE5REO-15 | 2026-08-31 00:11:39 | 48.45720 | 12.65152 | 336° | 18km/h | 23170m | 5.6m/s | -54.0°C | 1.3% | 35.4hPa | 2.5V | 00:00:00 | 00:00:00 | 00:00:00 | |
| OE5WHR-10 | 2026-08-31 00:11:38 | 48.45712 | 12.65159 | 317° | 13km/h | 23160m | 5.3m/s | -54.0°C | 4.4% | 35.4hPa | 2.5V | 00:00:00 | 01:42:19 | 00:00:00 | |
| OE5MMP-10 | 2026-08-31 00:11:35 | 48.45706 | 12.65174 | 298° | 11km/h | 23144m | 4.5m/s | -54.0°C | 4.5% | 35.5hPa | 2.5V | 00:00:00 | 01:42:16 | 00:00:00 | |
| DK5PH-5 | 2026-08-31 00:11:34 | 48.45704 | 12.65179 | 306° | 13km/h | 23140m | 5.6m/s | -54.0°C | 4.5% | 35.5hPa | 2.5V | 00:00:00 | 01:42:15 | 00:00:00 | |
| DO3MHA-11 | 2026-08-31 00:11:31 | 48.45697 | 12.65190 | 318° | 9km/h | 23126m | 4.6m/s | -54.0°C | 4.4% | 35.6hPa | 2.5V | 00:00:00 | 01:42:12 | 00:00:00 | |
| OE5MMP-10 | 2026-08-31 00:11:25 | 48.45687 | 12.65204 | 330° | 15km/h | 23095m | 3.6m/s | -53.9°C | 4.5% | 35.8hPa | 2.5V | 00:00:00 | 01:42:06 | 00:00:00 | |
| OE5REO-15 | 2026-08-31 00:11:23 | 48.45686 | 12.65206 | 316° | 9km/h | 23091m | 4.9m/s | -53.9°C | 1.3% | 35.9hPa | 2.5V | 00:00:00 | 00:00:00 | 00:00:00 | |
| OE5HKT-10 | 2026-08-31 00:11:22 | 48.45683 | 12.65214 | 287° | 16km/h | 23080m | 5.0m/s | -53.8°C | 4.4% | 35.9hPa | 2.5V | 00:00:00 | 01:42:03 | 00:00:00 | |
| DO3MHA-11 | 2026-08-31 00:11:21 | 48.45682 | 12.65219 | 290° | 15km/h | 23075m | 4.9m/s | -53.8°C | 4.4% | 36.0hPa | 2.5V | 00:00:00 | 01:42:02 | 00:00:00 | |
| DO7DH-14 | 2026-08-31 00:11:19 | 48.45678 | 12.65232 | 301° | 15km/h | 23065m | 4.4m/s | -53.8°C | 4.4% | 36.0hPa | 2.5V | 00:00:00 | 01:42:00 | 00:00:00 | |
| OE5WHR-10 | 2026-08-31 00:11:17 | 48.45673 | 12.65243 | 300° | 16km/h | 23056m | 4.9m/s | -53.7°C | 4.5% | 36.0hPa | 2.5V | 00:00:00 | 00:00:00 | 00:00:00 | |
| OE5FHM-15 | 2026-08-31 00:11:15 | 48.45671 | 12.65252 | 280° | 15km/h | 23046m | 4.9m/s | -53.7°C | 4.4% | 36.1hPa | 2.5V | 00:00:00 | 01:41:56 | 00:00:00 | |
| DO3MHA-11 | 2026-08-31 00:11:11 | 48.45667 | 12.65267 | 307° | 20km/h | 23026m | 4.3m/s | -53.7°C | 4.4% | 36.2hPa | 2.5V | 00:00:00 | 01:41:52 | 00:00:00 | |
| OE5REO-15 | 2026-08-31 00:11:07 | 48.45662 | 12.65283 | 289° | 18km/h | 23011m | 4.2m/s | -53.8°C | 1.3% | 36.3hPa | 2.5V | 00:00:00 | 00:00:00 | 00:00:00 | |
| OE5MMP-10 | 2026-08-31 00:11:05 | 48.45656 | 12.65305 | 295° | 16km/h | 22995m | 4.5m/s | -53.7°C | 4.4% | 36.4hPa | 2.5V | 00:00:00 | 01:41:46 | 00:00:00 | |
| DK5PH-5 | 2026-08-31 00:11:04 | 48.45653 | 12.65314 | 292° | 15km/h | 22990m | 4.8m/s | -53.7°C | 4.4% | 36.4hPa | 2.5V | 00:00:00 | 01:41:45 | 00:00:00 | |
| DO3MHA-11 | 2026-08-31 00:11:01 | 48.45651 | 12.65335 | 264° | 13km/h | 22975m | 3.8m/s | -53.9°C | 4.4% | 36.5hPa | 2.5V | 00:00:00 | 01:41:42 | 00:00:00 | |
| OE8JPQ-2 | 2026-08-31 00:10:58 | 48.45650 | 12.65349 | 302° | 15km/h | 22961m | 5.1m/s | 0°C | 0% | 0hPa | 2.5V | 00:00:00 | 01:41:39 | 00:00:00 | |
| OE5WHR-10 | 2026-08-31 00:10:56 | 48.45646 | 12.65356 | 311° | 15km/h | 22951m | 4.7m/s | -53.8°C | 4.4% | 36.6hPa | 2.5V | 00:00:00 | 00:00:00 | 00:00:00 | |
| OE5MMP-10 | 2026-08-31 00:10:55 | 48.45644 | 12.65361 | 302° | 15km/h | 22946m | 5.4m/s | -53.9°C | 4.4% | 36.7hPa | 2.5V | 00:00:00 | 01:41:36 | 00:00:00 | |
| OE5REO-15 | 2026-08-31 00:10:52 | 48.45642 | 12.65370 | 288° | 13km/h | 22936m | 4.0m/s | -53.9°C | 1.3% | 36.8hPa | 2.5V | 00:00:00 | 00:00:00 | 00:00:00 | |
| DO3MHA-11 | 2026-08-31 00:10:51 | 48.45639 | 12.65380 | 298° | 16km/h | 22926m | 5.6m/s | -53.9°C | 4.4% | 36.8hPa | 2.5V | 00:00:00 | 01:41:32 | 08:30:00 | |
| DO7DH-14 | 2026-08-31 00:10:49 | 48.45635 | 12.65390 | 297° | 15km/h | 22917m | 4.1m/s | -53.9°C | 4.4% | 36.8hPa | 2.5V | 00:00:00 | 01:41:30 | 00:00:00 | |
| OE5FHM-15 | 2026-08-31 00:10:45 | 48.45632 | 12.65414 | 277° | 15km/h | 22897m | 4.9m/s | -54.0°C | 4.5% | 36.9hPa | 2.5V | 00:00:00 | 01:41:26 | 00:00:00 | |
| DO3MHA-11 | 2026-08-31 00:10:41 | 48.45630 | 12.65440 | 265° | 16km/h | 22877m | 5.7m/s | -53.9°C | 4.5% | 37.1hPa | 2.5V | 00:00:00 | 01:41:22 | 00:00:00 | |
| OE5HKT-10 | 2026-08-31 00:10:40 | 48.45630 | 12.65445 | 257° | 15km/h | 22872m | 4.7m/s | -53.9°C | 4.5% | 37.1hPa | 2.5V | 00:00:00 | 00:00:00 | 00:00:00 | |
| DL6DJ-15 | 2026-08-31 00:10:36 | 48.45633 | 12.65462 | 250° | 9km/h | 22853m | 4.2m/s | -53.9°C | 1.3% | 37.3hPa | 2.5V | 00:00:00 | 00:00:00 | 00:00:00 | |
| OE5WHR-10 | 2026-08-31 00:10:35 | 48.45634 | 12.65466 | 240° | 15km/h | 22848m | 5.5m/s | -53.9°C | 4.4% | 37.3hPa | 2.5V | 00:00:00 | 01:41:16 | 00:00:00 | |
| DK5PH-5 | 2026-08-31 00:10:34 | 48.45636 | 12.65470 | 231° | 15km/h | 22843m | 5.1m/s | -53.9°C | 4.4% | 37.3hPa | 2.5V | 00:00:00 | 01:41:15 | 00:00:00 | |
| BAUMI2-15 | 2026-08-31 00:10:30 | 48.45643 | 12.65488 | 263° | 16km/h | 22823m | 4.6m/s | -54.0°C | 4.4% | 37.4hPa | 2.5V | 00:00:00 | 01:41:11 | 00:00:00 | |
| OE5DXL-15 | 2026-08-31 00:10:28 | 48.45644 | 12.65507 | 261° | 15km/h | 22808m | 4.4m/s | -54.0°C | 4.4% | 37.5hPa | 2.5V | 00:00:00 | 00:00:00 | 00:00:00 | |
| DO3MHA-11 | 2026-08-31 00:10:23 | 48.45647 | 12.65532 | 247° | 15km/h | 22789m | 4.9m/s | -53.9°C | 4.4% | 37.6hPa | 2.5V | 00:00:00 | 01:41:04 | 00:00:00 | |
| BAUMI2-15 | 2026-08-31 00:10:20 | 48.45655 | 12.65546 | 223° | 15km/h | 22775m | 4.5m/s | -53.9°C | 4.4% | 37.7hPa | 2.5V | 00:00:00 | 01:41:01 | 00:00:00 | |
| DO7DH-14 | 2026-08-31 00:10:19 | 48.45657 | 12.65550 | 230° | 13km/h | 22769m | 5.5m/s | -53.9°C | 4.4% | 37.7hPa | 2.5V | 00:00:00 | 01:41:00 | 00:00:00 | |
| OE8JPQ-2 | 2026-08-31 00:10:18 | 48.45659 | 12.65554 | 241° | 13km/h | 22765m | 4.6m/s | 0°C | 0% | 0hPa | 2.6V | 00:00:00 | 00:00:00 | 00:00:00 | |
| OE5MMP-10 | 2026-08-31 00:10:15 | 48.45665 | 12.65569 | 235° | 15km/h | 22749m | 4.4m/s | -54.0°C | 4.4% | 37.8hPa | 2.6V | 00:00:00 | 01:40:56 | 08:30:00 | |
| OE5WHR-10 | 2026-08-31 00:10:14 | 48.45667 | 12.65573 | 237° | 15km/h | 22745m | 3.6m/s | -54.0°C | 4.4% | 37.9hPa | 2.5V | 00:00:00 | 00:00:00 | 08:30:00 | |
| DO3MHA-11 | 2026-08-31 00:10:13 | 48.45669 | 12.65578 | 243° | 13km/h | 22741m | 5.3m/s | -54.0°C | 4.4% | 37.9hPa | 2.5V | 00:00:00 | 01:40:54 | 00:00:00 | |
| BAUMI2-15 | 2026-08-31 00:10:10 | 48.45672 | 12.65591 | 244° | 15km/h | 22728m | 4.2m/s | -54.0°C | 4.4% | 38.0hPa | 2.6V | 00:00:00 | 01:40:51 | 00:00:00 | |
| OE5MMP-10 | 2026-08-31 00:10:05 | 48.45685 | 12.65610 | 228° | 13km/h | 22703m | 4.8m/s | -54.1°C | 4.4% | 38.1hPa | 2.6V | 00:00:00 | 01:40:46 | 00:00:00 | |
| DO3MHA-11 | 2026-08-31 00:10:03 | 48.45690 | 12.65618 | 227° | 15km/h | 22694m | 4.2m/s | -54.1°C | 4.4% | 38.2hPa | 2.6V | 00:00:00 | 01:40:44 | 00:00:00 | |
| OE5REO-15 | 2026-08-31 00:10:02 | 48.45689 | 12.65618 | 228° | 13km/h | 22694m | 4.2m/s | -54.2°C | 1.3% | 38.2hPa | 2.6V | 00:00:00 | 00:00:00 | 00:00:00 | |
| DK5PH-5 | 2026-08-31 00:10:01 | 48.45695 | 12.65624 | 213° | 13km/h | 22685m | 4.6m/s | -54.2°C | 4.4% | 38.2hPa | 2.6V | 00:00:00 | 01:40:42 | 00:00:00 | |
| BAUMI2-15 | 2026-08-31 00:10:00 | 48.45698 | 12.65627 | 211° | 13km/h | 22680m | 4.4m/s | -54.2°C | 4.4% | 38.3hPa | 2.6V | 00:00:00 | 01:40:41 | 00:00:00 | |
| OE5DXL-15 | 2026-08-31 00:09:56 | 48.45712 | 12.65641 | 209° | 13km/h | 22655m | 4.2m/s | -54.2°C | 4.4% | 38.4hPa | 2.5V | 00:00:00 | 00:00:00 | 00:00:00 | |
| OE5MMP-10 | 2026-08-31 00:09:55 | 48.45712 | 12.65641 | 209° | 13km/h | 22655m | 4.2m/s | -54.2°C | 4.4% | 38.4hPa | 2.5V | 00:00:00 | 01:40:36 | 00:00:00 | |
| OE8JPQ-2 | 2026-08-31 00:09:54 | 48.45715 | 12.65644 | 210° | 13km/h | 22652m | 3.6m/s | 0°C | 0% | 0hPa | 2.5V | 00:00:00 | 00:00:00 | 00:00:00 | |
| DO3MHA-11 | 2026-08-31 00:09:53 | 48.45719 | 12.65647 | 215° | 13km/h | 22647m | 5.2m/s | -54.2°C | 4.4% | 38.4hPa | 2.5V | 00:00:00 | 01:40:34 | 00:00:00 | |
| BAUMI2-15 | 2026-08-31 00:09:50 | 48.45725 | 12.65656 | 223° | 13km/h | 22633m | 4.5m/s | -54.3°C | 4.5% | 38.5hPa | 2.5V | 00:00:00 | 01:40:31 | 00:00:00 | |
| DO7DH-14 | 2026-08-31 00:09:49 | 48.45728 | 12.65659 | 214° | 15km/h | 22628m | 5.1m/s | -54.4°C | 4.5% | 38.6hPa | 2.5V | 00:00:00 | 01:40:30 | 00:00:00 | |
| OE5MMP-10 | 2026-08-31 00:09:45 | 48.45741 | 12.65664 | 177° | 13km/h | 22611m | 4.7m/s | -54.3°C | 4.4% | 38.7hPa | 2.5V | 00:00:00 | 01:40:26 | 00:00:00 | |
| DO3MHA-11 | 2026-08-31 00:09:43 | 48.45746 | 12.65664 | 192° | 13km/h | 22601m | 5.3m/s | -54.4°C | 4.5% | 38.7hPa | 2.6V | 00:00:00 | 01:40:24 | 00:00:00 | |
| OE5REO-15 | 2026-08-31 00:09:42 | 48.45746 | 12.65664 | 192° | 9km/h | 22601m | 5.3m/s | -54.4°C | 1.3% | 38.8hPa | 2.6V | 00:00:00 | 00:00:00 | 00:00:00 | |
| BAUMI2-15 | 2026-08-31 00:09:40 | 48.45754 | 12.65669 | 203° | 13km/h | 22588m | 4.6m/s | -54.5°C | 4.5% | 38.8hPa | 2.6V | 00:00:00 | 01:40:21 | 00:00:00 | |
| BAUMI2-15 | 2026-08-31 00:09:36 | 48.45771 | 12.65672 | 186° | 15km/h | 22564m | 3.8m/s | -54.5°C | 4.6% | 39.0hPa | 2.6V | 00:00:00 | 01:40:16 | 00:00:00 | |
| OE5MMP-10 | 2026-08-31 00:09:35 | 48.45771 | 12.65672 | 186° | 13km/h | 22564m | 3.8m/s | -54.5°C | 4.6% | 39.0hPa | 2.6V | 00:00:00 | 01:40:16 | 00:00:00 | |
| DL6DJ-15 | 2026-08-31 00:09:34 | 48.45776 | 12.65673 | 181° | 15km/h | 22560m | 3.2m/s | -54.6°C | 1.3% | 39.0hPa | 2.6V | 00:00:00 | 00:00:00 | 00:00:00 | |
| OE5WHR-10 | 2026-08-31 00:09:32 | 48.45782 | 12.65671 | 153° | 13km/h | 22551m | 5.4m/s | -54.5°C | 4.6% | 39.0hPa | 2.6V | 00:00:00 | 01:40:13 | 00:00:00 | |
| DK5PH-5 | 2026-08-31 00:09:31 | 48.45785 | 12.65668 | 139° | 11km/h | 22546m | 4.0m/s | -54.5°C | 4.5% | 39.1hPa | 2.6V | 00:00:00 | 01:40:12 | 00:00:00 | |
| DO3MHA-11 | 2026-08-31 00:09:30 | 48.45787 | 12.65665 | 137° | 15km/h | 22542m | 5.1m/s | -54.5°C | 4.5% | 39.1hPa | 2.5V | 00:00:00 | 01:40:11 | 00:00:00 | |
| OE5REO-15 | 2026-08-31 00:09:27 | 48.45792 | 12.65659 | 140° | 13km/h | 22532m | 4.2m/s | -54.5°C | 1.3% | 39.2hPa | 2.5V | 00:00:00 | 00:00:00 | 00:00:00 | |
| OE5MMP-10 | 2026-08-31 00:09:25 | 48.45799 | 12.65649 | 142° | 15km/h | 22519m | 3.2m/s | -54.5°C | 4.5% | 39.3hPa | 2.5V | 00:00:00 | 01:40:06 | 00:00:00 | |
| OE5DXL-15 | 2026-08-31 00:09:24 | 48.45805 | 12.65646 | 171° | 11km/h | 22510m | 5.4m/s | -54.5°C | 4.6% | 39.3hPa | 2.5V | 00:00:00 | 00:00:00 | 08:30:00 | |
| DO3MHA-11 | 2026-08-31 00:09:20 | 48.45819 | 12.65645 | 174° | 7km/h | 22497m | 4.6m/s | -54.5°C | 4.5% | 39.4hPa | 2.5V | 00:00:00 | 01:40:01 | 00:00:00 | |
| DO7DH-14 | 2026-08-31 00:09:19 | 48.45823 | 12.65643 | 163° | 9km/h | 22492m | 4.8m/s | -54.5°C | 4.6% | 39.4hPa | 2.5V | 00:00:00 | 01:40:00 | 00:00:00 | |
| OE5REO-15 | 2026-08-31 00:09:12 | 48.45835 | 12.65640 | 211° | 7km/h | 22466m | 3.9m/s | -54.5°C | 1.3% | 39.6hPa | 2.5V | 00:00:00 | 00:00:00 | 00:00:00 | |
| OE5WHR-10 | 2026-08-31 00:09:11 | 48.45837 | 12.65641 | 166° | 9km/h | 22456m | 5.0m/s | -54.5°C | 4.5% | 39.6hPa | 2.5V | 00:00:00 | 00:00:00 | 00:00:00 | |
| BAUMI2-15 | 2026-08-31 00:09:10 | 48.45839 | 12.65640 | 156° | 9km/h | 22452m | 4.2m/s | -54.5°C | 4.6% | 39.7hPa | 2.5V | 00:00:00 | 01:39:51 | 00:00:00 | |
| OE5MMP-10 | 2026-08-31 00:09:05 | 48.45849 | 12.65633 | 134° | 9km/h | 22429m | 5.5m/s | -54.4°C | 4.5% | 39.8hPa | 2.5V | 00:00:00 | 01:39:46 | 00:00:00 | |
| DL6DJ-15 | 2026-08-31 00:09:03 | 48.45853 | 12.65625 | 118° | 11km/h | 22420m | 4.3m/s | -54.5°C | 1.3% | 39.9hPa | 2.5V | 00:00:00 | 00:00:00 | 00:00:00 | |
| DK5PH-5 | 2026-08-31 00:09:01 | 48.45855 | 12.65619 | 129° | 11km/h | 22410m | 4.6m/s | -54.5°C | 4.5% | 39.9hPa | 2.5V | 00:00:00 | 01:39:42 | 00:00:00 | |
| OE5HKT-10 | 2026-08-31 00:09:00 | 48.45856 | 12.65617 | 134° | 11km/h | 22406m | 3.7m/s | -54.5°C | 4.5% | 39.9hPa | 2.5V | 00:00:00 | 00:00:00 | 08:30:00 | |
| DO3MHA-11 | 2026-08-31 00:08:58 | 48.45858 | 12.65613 | 115° | 9km/h | 22396m | 5.5m/s | -54.5°C | 4.5% | 40.0hPa | 2.5V | 00:00:00 | 01:39:39 | 00:00:00 | |
| OE5REO-15 | 2026-08-31 00:08:57 | 48.45858 | 12.65613 | 115° | 7km/h | 22396m | 5.5m/s | -54.6°C | 1.3% | 40.1hPa | 2.5V | 00:00:00 | 00:00:00 | 00:00:00 | |
| OE5MMP-10 | 2026-08-31 00:08:55 | 48.45862 | 12.65603 | 134° | 13km/h | 22381m | 5.1m/s | -54.6°C | 4.5% | 40.1hPa | 2.5V | 00:00:00 | 01:39:36 | 00:00:00 | |
| OE5DXL-15 | 2026-08-31 00:08:54 | 48.45864 | 12.65601 | 139° | 13km/h | 22376m | 4.0m/s | -54.7°C | 4.6% | 40.1hPa | 2.5V | 00:00:00 | 00:00:00 | 00:00:00 | |
| OE8JPQ-2 | 2026-08-31 00:08:51 | 48.45869 | 12.65588 | 109° | 11km/h | 22362m | 4.6m/s | 0°C | 0% | 0hPa | 2.5V | 00:00:00 | 00:00:00 | 00:00:00 | |
| OE5WHR-10 | 2026-08-31 00:08:50 | 48.45870 | 12.65582 | 104° | 11km/h | 22358m | 4.1m/s | -54.8°C | 4.6% | 40.2hPa | 2.5V | 00:00:00 | 00:00:00 | 00:00:00 | |
| DO7DH-14 | 2026-08-31 00:08:49 | 48.45871 | 12.65577 | 105° | 13km/h | 22353m | 5.1m/s | -54.7°C | 4.6% | 40.3hPa | 2.5V | 00:00:00 | 01:39:30 | 00:00:00 | |
| OE5FHM-15 | 2026-08-31 00:08:45 | 48.45876 | 12.65563 | 113° | 11km/h | 22335m | 4.6m/s | -54.7°C | 4.5% | 40.4hPa | 2.6V | 00:00:00 | 01:39:26 | 08:30:00 | |
| OE5REO-15 | 2026-08-31 00:08:41 | 48.45878 | 12.65549 | 101° | 15km/h | 22320m | 5.4m/s | -54.7°C | 1.3% | 40.5hPa | 2.5V | 00:00:00 | 00:00:00 | 00:00:00 | |
| OE5HKT-10 | 2026-08-31 00:08:39 | 48.45880 | 12.65535 | 103° | 11km/h | 22307m | 4.1m/s | -54.7°C | 4.5% | 40.5hPa | 2.5V | 00:00:00 | 00:00:00 | 00:00:00 | |
| OE5MMP-10 | 2026-08-31 00:08:35 | 48.45880 | 12.65517 | 93° | 11km/h | 22288m | 5.5m/s | -54.7°C | 4.5% | 40.7hPa | 2.5V | 00:00:00 | 01:39:16 | 00:00:00 | |
| DK5PH-5 | 2026-08-31 00:08:31 | 48.45882 | 12.65505 | 75° | 9km/h | 22269m | 5.3m/s | -54.9°C | 4.6% | 40.8hPa | 2.5V | 00:00:00 | 01:39:12 | 00:00:00 | |
| OE5WHR-10 | 2026-08-31 00:08:29 | 48.45880 | 12.65499 | 70° | 11km/h | 22259m | 4.6m/s | -54.9°C | 4.7% | 40.9hPa | 2.5V | 00:00:00 | 01:39:10 | 00:00:00 | |
| OE3JTB-15 | 2026-08-31 00:08:26 | 48.45876 | 12.65484 | 64° | 13km/h | 22246m | 3.9m/s | -54.9°C | 4.6% | 41.0hPa | 2.5V | 00:00:00 | 00:00:00 | 00:00:00 | |
| OE5MMP-10 | 2026-08-31 00:08:25 | 48.45874 | 12.65479 | 54° | 9km/h | 22241m | 5.4m/s | -54.8°C | 4.6% | 41.0hPa | 2.5V | 00:00:00 | 01:39:06 | 00:00:00 | |
| OE5DXL-15 | 2026-08-31 00:08:24 | 48.45872 | 12.65474 | 42° | 7km/h | 22236m | 4.7m/s | -54.8°C | 4.6% | 41.0hPa | 2.5V | 00:00:00 | 00:00:00 | 00:00:00 | |
| DO7DH-14 | 2026-08-31 00:08:19 | 48.45866 | 12.65463 | 132° | 7km/h | 22213m | 4.4m/s | -54.9°C | 4.6% | 41.2hPa | 2.5V | 00:00:00 | 01:39:00 | 00:00:00 | |
| OE5HKT-10 | 2026-08-31 00:08:18 | 48.45867 | 12.65462 | 121° | 7km/h | 22208m | 5.2m/s | -54.9°C | 4.6% | 41.2hPa | 2.5V | 00:00:00 | 01:38:59 | 00:00:00 | |
| OE5FHM-15 | 2026-08-31 00:08:16 | 48.45868 | 12.65452 | 97° | 7km/h | 22193m | 5.2m/s | -54.9°C | 4.6% | 41.3hPa | 2.5V | 00:00:00 | 01:38:56 | 00:00:00 | |
| OE5MMP-10 | 2026-08-31 00:08:15 | 48.45868 | 12.65452 | 97° | 7km/h | 22193m | 5.2m/s | -54.9°C | 4.6% | 41.3hPa | 2.5V | 00:00:00 | 01:38:56 | 00:00:00 | |
| OE5REO-15 | 2026-08-31 00:08:10 | 48.45865 | 12.65440 | 36° | 11km/h | 22173m | 4.7m/s | -54.9°C | 1.4% | 41.5hPa | 2.5V | 00:00:00 | 00:00:00 | 00:00:00 | |
| OE5WHR-10 | 2026-08-31 00:08:08 | 48.45858 | 12.65438 | 336° | 5km/h | 22159m | 4.9m/s | -54.8°C | 4.6% | 41.5hPa | 2.5V | 00:00:00 | 00:00:00 | 00:00:00 | |
| OE5MMP-10 | 2026-08-31 00:08:05 | 48.45856 | 12.65441 | 335° | 7km/h | 22145m | 5.1m/s | -54.9°C | 4.6% | 41.6hPa | 2.6V | 00:00:00 | 01:38:46 | 00:00:00 | |
| DK5PH-5 | 2026-08-31 00:08:01 | 48.45852 | 12.65441 | 16° | 7km/h | 22125m | 4.6m/s | -54.8°C | 4.6% | 41.8hPa | 2.6V | 00:00:00 | 01:38:42 | 08:30:00 | |
| DO3MHA-11 | 2026-08-31 00:07:57 | 48.45846 | 12.65432 | 59° | 7km/h | 22106m | 3.9m/s | -54.7°C | 4.6% | 41.8hPa | 2.6V | 00:00:00 | 01:38:38 | 00:00:00 | |
| OE5MMP-10 | 2026-08-31 00:07:55 | 48.45844 | 12.65426 | 60° | 5km/h | 22097m | 4.6m/s | -54.7°C | 4.6% | 41.9hPa | 2.5V | 00:00:00 | 01:38:36 | 00:00:00 | |
| OE5DXL-15 | 2026-08-31 00:07:54 | 48.45842 | 12.65423 | 13° | 5km/h | 22088m | 4.6m/s | -54.7°C | 4.5% | 42.0hPa | 2.5V | 00:00:00 | 00:00:00 | 00:00:00 | |
| DO3MHA-11 | 2026-08-31 00:07:47 | 48.45833 | 12.65421 | 16° | 7km/h | 22058m | 5.4m/s | -54.9°C | 4.6% | 42.2hPa | 2.6V | 00:00:00 | 01:38:28 | 00:00:00 | |
| OE5MMP-10 | 2026-08-31 00:07:45 | 48.45830 | 12.65421 | 352° | 7km/h | 22048m | 4.7m/s | -54.9°C | 4.6% | 42.3hPa | 2.6V | 00:00:00 | 01:38:26 | 00:00:00 | |
| OE5DRO-10 | 2026-08-31 00:07:43 | 48.45828 | 12.65423 | 306° | 7km/h | 22037m | 5.0m/s | -54.9°C | 4.7% | 42.3hPa | 2.6V | 00:00:00 | 00:00:00 | 00:00:00 | |
| OE3JTB-15 | 2026-08-31 00:07:40 | 48.45825 | 12.65428 | 319° | 7km/h | 22024m | 5.2m/s | -54.8°C | 4.6% | 42.4hPa | 2.6V | 00:00:00 | 01:38:21 | 00:00:00 | |
| OE8JPQ-2 | 2026-08-31 00:07:38 | 48.45822 | 12.65432 | 311° | 5km/h | 22014m | 4.9m/s | 0°C | 0% | 0hPa | 2.6V | 00:00:00 | 00:00:00 | 00:00:00 | |
| OE5MMP-10 | 2026-08-31 00:07:35 | 48.45819 | 12.65440 | 304° | 7km/h | 21999m | 4.7m/s | -54.8°C | 4.6% | 42.6hPa | 2.6V | 00:00:00 | 01:38:16 | 00:00:00 | |
| DK5PH-5 | 2026-08-31 00:07:31 | 48.45813 | 12.65449 | 305° | 7km/h | 21979m | 5.6m/s | -54.9°C | 4.6% | 42.7hPa | 2.6V | 00:00:00 | 01:38:12 | 00:00:00 | |
| Es werden nur die letzten 3500 von 5264 Frames angezeigt. GPX/KML und Diagramme bleiben verfügbar. | |||||||||||||||